<?xml version="1.0" encoding="UTF-8" standalone="no" ?>
<gpx xmlns="http://www.topografix.com/GPX/1/1" xmlns:xsi="http://www.w3.org/2001/XMLSchema-instance" xsi:schemaLocation="http://www.topografix.com/GPX/1/1 http://www.topografix.com/GPX/1/1/gpx.xsd" version="1.1" creator="VisuGPX - https://www.visugpx.com">
  <metadata>
    <name>Saint-Martin-de-Varreville, Brucheville</name>
  </metadata>
  <trk>
    <name><![CDATA[Saint-Martin-de-Varreville, Brucheville_1]]></name>
    <trkseg>
      <trkpt lat="49.42666" lon="-1.2371">
        <ele>20.5</ele>
        <time>2022-06-02T08:35:52Z</time>
      </trkpt>
      <trkpt lat="49.42666" lon="-1.2371">
        <ele>20.5</ele>
        <time>2022-06-02T08:35:53Z</time>
      </trkpt>
      <trkpt lat="49.42666" lon="-1.2371">
        <ele>20.5</ele>
        <time>2022-06-02T08:35:54Z</time>
      </trkpt>
      <trkpt lat="49.42666" lon="-1.2371">
        <ele>20.5</ele>
        <time>2022-06-02T08:35:55Z</time>
      </trkpt>
      <trkpt lat="49.42666" lon="-1.2371">
        <ele>20.5</ele>
        <time>2022-06-02T08:35:56Z</time>
      </trkpt>
      <trkpt lat="49.42666" lon="-1.2371">
        <ele>20.5</ele>
        <time>2022-06-02T08:35:57Z</time>
      </trkpt>
      <trkpt lat="49.42666" lon="-1.2371">
        <ele>20.5</ele>
        <time>2022-06-02T08:35:58Z</time>
      </trkpt>
      <trkpt lat="49.42666" lon="-1.2371">
        <ele>20.5</ele>
        <time>2022-06-02T08:35:59Z</time>
      </trkpt>
      <trkpt lat="49.42666" lon="-1.2371">
        <ele>20.5</ele>
        <time>2022-06-02T08:36:00Z</time>
      </trkpt>
      <trkpt lat="49.42666" lon="-1.2371">
        <ele>20.5</ele>
        <time>2022-06-02T08:36:01Z</time>
      </trkpt>
      <trkpt lat="49.42666" lon="-1.2371">
        <ele>20.5</ele>
        <time>2022-06-02T08:36:02Z</time>
      </trkpt>
      <trkpt lat="49.42666" lon="-1.2371">
        <ele>20.5</ele>
        <time>2022-06-02T08:36:03Z</time>
      </trkpt>
      <trkpt lat="49.42666" lon="-1.2371">
        <ele>20.5</ele>
        <time>2022-06-02T08:36:04Z</time>
      </trkpt>
      <trkpt lat="49.42666" lon="-1.2371">
        <ele>20.5</ele>
        <time>2022-06-02T08:36:05Z</time>
      </trkpt>
      <trkpt lat="49.42666" lon="-1.2371">
        <ele>20.5</ele>
        <time>2022-06-02T08:36:06Z</time>
      </trkpt>
      <trkpt lat="49.42666" lon="-1.2371">
        <ele>20.5</ele>
        <time>2022-06-02T08:36:07Z</time>
      </trkpt>
      <trkpt lat="49.42666" lon="-1.2371">
        <ele>20.5</ele>
        <time>2022-06-02T08:36:08Z</time>
      </trkpt>
      <trkpt lat="49.42666" lon="-1.2371">
        <ele>20.5</ele>
        <time>2022-06-02T08:36:09Z</time>
      </trkpt>
      <trkpt lat="49.42666" lon="-1.2371">
        <ele>20.5</ele>
        <time>2022-06-02T08:36:10Z</time>
      </trkpt>
      <trkpt lat="49.42666" lon="-1.2371">
        <ele>20.5</ele>
        <time>2022-06-02T08:36:11Z</time>
      </trkpt>
      <trkpt lat="49.42666" lon="-1.2371">
        <ele>20.5</ele>
        <time>2022-06-02T08:36:12Z</time>
      </trkpt>
      <trkpt lat="49.42666" lon="-1.2371">
        <ele>20.5</ele>
        <time>2022-06-02T08:36:13Z</time>
      </trkpt>
      <trkpt lat="49.42666" lon="-1.2371">
        <ele>20.5</ele>
        <time>2022-06-02T08:36:14Z</time>
      </trkpt>
      <trkpt lat="49.42666" lon="-1.2371">
        <ele>20.5</ele>
        <time>2022-06-02T08:36:15Z</time>
      </trkpt>
      <trkpt lat="49.42666" lon="-1.2371">
        <ele>20.5</ele>
        <time>2022-06-02T08:36:16Z</time>
      </trkpt>
      <trkpt lat="49.42666" lon="-1.2371">
        <ele>20.5</ele>
        <time>2022-06-02T08:36:17Z</time>
      </trkpt>
      <trkpt lat="49.42666" lon="-1.2371">
        <ele>20.5</ele>
        <time>2022-06-02T08:36:18Z</time>
      </trkpt>
      <trkpt lat="49.42666" lon="-1.2371">
        <ele>20.5</ele>
        <time>2022-06-02T08:36:19Z</time>
      </trkpt>
      <trkpt lat="49.42666" lon="-1.2371">
        <ele>20.5</ele>
        <time>2022-06-02T08:36:20Z</time>
      </trkpt>
      <trkpt lat="49.42666" lon="-1.23709">
        <ele>20.5</ele>
        <time>2022-06-02T08:36:21Z</time>
      </trkpt>
      <trkpt lat="49.42666" lon="-1.23708">
        <ele>20.5</ele>
        <time>2022-06-02T08:36:23Z</time>
      </trkpt>
      <trkpt lat="49.42666" lon="-1.23708">
        <ele>20.5</ele>
        <time>2022-06-02T08:36:24Z</time>
      </trkpt>
      <trkpt lat="49.42666" lon="-1.23708">
        <ele>20.5</ele>
        <time>2022-06-02T08:36:25Z</time>
      </trkpt>
      <trkpt lat="49.42666" lon="-1.23708">
        <ele>20.5</ele>
        <time>2022-06-02T08:36:27Z</time>
      </trkpt>
      <trkpt lat="49.42667" lon="-1.23707">
        <ele>20.5</ele>
        <time>2022-06-02T08:36:28Z</time>
      </trkpt>
      <trkpt lat="49.42667" lon="-1.23705">
        <ele>20.4</ele>
        <time>2022-06-02T08:36:29Z</time>
      </trkpt>
      <trkpt lat="49.42668" lon="-1.23703">
        <ele>20.4</ele>
        <time>2022-06-02T08:36:30Z</time>
      </trkpt>
      <trkpt lat="49.42668" lon="-1.23701">
        <ele>20.4</ele>
        <time>2022-06-02T08:36:31Z</time>
      </trkpt>
      <trkpt lat="49.42669" lon="-1.237">
        <ele>20.3</ele>
        <time>2022-06-02T08:36:32Z</time>
      </trkpt>
      <trkpt lat="49.42669" lon="-1.23698">
        <ele>20.3</ele>
        <time>2022-06-02T08:36:33Z</time>
      </trkpt>
      <trkpt lat="49.42671" lon="-1.23697">
        <ele>20.2</ele>
        <time>2022-06-02T08:36:34Z</time>
      </trkpt>
      <trkpt lat="49.42672" lon="-1.23695">
        <ele>20.2</ele>
        <time>2022-06-02T08:36:36Z</time>
      </trkpt>
      <trkpt lat="49.42673" lon="-1.23694">
        <ele>20.1</ele>
        <time>2022-06-02T08:36:37Z</time>
      </trkpt>
      <trkpt lat="49.42673" lon="-1.23691">
        <ele>20</ele>
        <time>2022-06-02T08:36:38Z</time>
      </trkpt>
      <trkpt lat="49.42673" lon="-1.2369">
        <ele>20</ele>
        <time>2022-06-02T08:36:39Z</time>
      </trkpt>
      <trkpt lat="49.42674" lon="-1.23689">
        <ele>20</ele>
        <time>2022-06-02T08:36:40Z</time>
      </trkpt>
      <trkpt lat="49.42674" lon="-1.23685">
        <ele>19.9</ele>
        <time>2022-06-02T08:36:42Z</time>
      </trkpt>
      <trkpt lat="49.42674" lon="-1.23683">
        <ele>19.8</ele>
        <time>2022-06-02T08:36:43Z</time>
      </trkpt>
      <trkpt lat="49.42675" lon="-1.23682">
        <ele>19.8</ele>
        <time>2022-06-02T08:36:44Z</time>
      </trkpt>
      <trkpt lat="49.42675" lon="-1.2368">
        <ele>19.7</ele>
        <time>2022-06-02T08:36:46Z</time>
      </trkpt>
      <trkpt lat="49.42675" lon="-1.23677">
        <ele>19.6</ele>
        <time>2022-06-02T08:36:47Z</time>
      </trkpt>
      <trkpt lat="49.42675" lon="-1.23675">
        <ele>19.6</ele>
        <time>2022-06-02T08:36:48Z</time>
      </trkpt>
      <trkpt lat="49.42675" lon="-1.23674">
        <ele>19.6</ele>
        <time>2022-06-02T08:36:49Z</time>
      </trkpt>
      <trkpt lat="49.42675" lon="-1.23672">
        <ele>19.5</ele>
        <time>2022-06-02T08:36:50Z</time>
      </trkpt>
      <trkpt lat="49.42676" lon="-1.23671">
        <ele>19.5</ele>
        <time>2022-06-02T08:36:52Z</time>
      </trkpt>
      <trkpt lat="49.42676" lon="-1.2367">
        <ele>19.4</ele>
        <time>2022-06-02T08:36:53Z</time>
      </trkpt>
      <trkpt lat="49.42676" lon="-1.23668">
        <ele>19.4</ele>
        <time>2022-06-02T08:36:54Z</time>
      </trkpt>
      <trkpt lat="49.42677" lon="-1.23666">
        <ele>19.3</ele>
        <time>2022-06-02T08:36:55Z</time>
      </trkpt>
      <trkpt lat="49.42677" lon="-1.23664">
        <ele>19.3</ele>
        <time>2022-06-02T08:36:56Z</time>
      </trkpt>
      <trkpt lat="49.42678" lon="-1.23662">
        <ele>19.2</ele>
        <time>2022-06-02T08:36:58Z</time>
      </trkpt>
      <trkpt lat="49.42678" lon="-1.23659">
        <ele>19.1</ele>
        <time>2022-06-02T08:36:59Z</time>
      </trkpt>
      <trkpt lat="49.42678" lon="-1.23656">
        <ele>19</ele>
        <time>2022-06-02T08:37:00Z</time>
      </trkpt>
      <trkpt lat="49.42678" lon="-1.23655">
        <ele>19</ele>
        <time>2022-06-02T08:37:02Z</time>
      </trkpt>
      <trkpt lat="49.42678" lon="-1.23653">
        <ele>18.9</ele>
        <time>2022-06-02T08:37:03Z</time>
      </trkpt>
      <trkpt lat="49.42679" lon="-1.23651">
        <ele>18.8</ele>
        <time>2022-06-02T08:37:04Z</time>
      </trkpt>
      <trkpt lat="49.42679" lon="-1.23649">
        <ele>18.8</ele>
        <time>2022-06-02T08:37:05Z</time>
      </trkpt>
      <trkpt lat="49.42678" lon="-1.23647">
        <ele>18.7</ele>
        <time>2022-06-02T08:37:06Z</time>
      </trkpt>
      <trkpt lat="49.42678" lon="-1.23645">
        <ele>18.6</ele>
        <time>2022-06-02T08:37:07Z</time>
      </trkpt>
      <trkpt lat="49.42678" lon="-1.23643">
        <ele>18.6</ele>
        <time>2022-06-02T08:37:09Z</time>
      </trkpt>
      <trkpt lat="49.42678" lon="-1.23641">
        <ele>18.5</ele>
        <time>2022-06-02T08:37:10Z</time>
      </trkpt>
      <trkpt lat="49.42678" lon="-1.2364">
        <ele>18.5</ele>
        <time>2022-06-02T08:37:11Z</time>
      </trkpt>
      <trkpt lat="49.42678" lon="-1.23638">
        <ele>18.4</ele>
        <time>2022-06-02T08:37:12Z</time>
      </trkpt>
      <trkpt lat="49.42678" lon="-1.23635">
        <ele>18.4</ele>
        <time>2022-06-02T08:37:13Z</time>
      </trkpt>
      <trkpt lat="49.42678" lon="-1.23634">
        <ele>18.3</ele>
        <time>2022-06-02T08:37:14Z</time>
      </trkpt>
      <trkpt lat="49.42678" lon="-1.23632">
        <ele>18.3</ele>
        <time>2022-06-02T08:37:15Z</time>
      </trkpt>
      <trkpt lat="49.42679" lon="-1.23631">
        <ele>18.2</ele>
        <time>2022-06-02T08:37:16Z</time>
      </trkpt>
      <trkpt lat="49.42679" lon="-1.23629">
        <ele>18.2</ele>
        <time>2022-06-02T08:37:17Z</time>
      </trkpt>
      <trkpt lat="49.42679" lon="-1.23627">
        <ele>18.1</ele>
        <time>2022-06-02T08:37:18Z</time>
      </trkpt>
      <trkpt lat="49.42679" lon="-1.23626">
        <ele>18.1</ele>
        <time>2022-06-02T08:37:19Z</time>
      </trkpt>
      <trkpt lat="49.42679" lon="-1.23624">
        <ele>18</ele>
        <time>2022-06-02T08:37:20Z</time>
      </trkpt>
      <trkpt lat="49.4268" lon="-1.23622">
        <ele>18</ele>
        <time>2022-06-02T08:37:22Z</time>
      </trkpt>
      <trkpt lat="49.42681" lon="-1.2362">
        <ele>17.9</ele>
        <time>2022-06-02T08:37:23Z</time>
      </trkpt>
      <trkpt lat="49.42681" lon="-1.23618">
        <ele>17.8</ele>
        <time>2022-06-02T08:37:24Z</time>
      </trkpt>
      <trkpt lat="49.42682" lon="-1.23615">
        <ele>17.8</ele>
        <time>2022-06-02T08:37:25Z</time>
      </trkpt>
      <trkpt lat="49.42682" lon="-1.23613">
        <ele>17.7</ele>
        <time>2022-06-02T08:37:26Z</time>
      </trkpt>
      <trkpt lat="49.42682" lon="-1.23611">
        <ele>17.6</ele>
        <time>2022-06-02T08:37:27Z</time>
      </trkpt>
      <trkpt lat="49.42683" lon="-1.23609">
        <ele>17.6</ele>
        <time>2022-06-02T08:37:28Z</time>
      </trkpt>
      <trkpt lat="49.42684" lon="-1.23607">
        <ele>17.5</ele>
        <time>2022-06-02T08:37:29Z</time>
      </trkpt>
      <trkpt lat="49.42684" lon="-1.23605">
        <ele>17.4</ele>
        <time>2022-06-02T08:37:31Z</time>
      </trkpt>
      <trkpt lat="49.42684" lon="-1.23603">
        <ele>17.4</ele>
        <time>2022-06-02T08:37:32Z</time>
      </trkpt>
      <trkpt lat="49.42683" lon="-1.23601">
        <ele>17.3</ele>
        <time>2022-06-02T08:37:33Z</time>
      </trkpt>
      <trkpt lat="49.42683" lon="-1.236">
        <ele>17.3</ele>
        <time>2022-06-02T08:37:34Z</time>
      </trkpt>
      <trkpt lat="49.42683" lon="-1.23599">
        <ele>17.2</ele>
        <time>2022-06-02T08:37:35Z</time>
      </trkpt>
      <trkpt lat="49.42682" lon="-1.23596">
        <ele>17.2</ele>
        <time>2022-06-02T08:37:37Z</time>
      </trkpt>
      <trkpt lat="49.42681" lon="-1.23596">
        <ele>16.1</ele>
        <time>2022-06-02T08:37:38Z</time>
      </trkpt>
      <trkpt lat="49.4268" lon="-1.23595">
        <ele>16</ele>
        <time>2022-06-02T08:37:39Z</time>
      </trkpt>
      <trkpt lat="49.4268" lon="-1.23595">
        <ele>16</ele>
        <time>2022-06-02T08:37:40Z</time>
      </trkpt>
      <trkpt lat="49.4268" lon="-1.23595">
        <ele>15.9</ele>
        <time>2022-06-02T08:37:41Z</time>
      </trkpt>
      <trkpt lat="49.4268" lon="-1.23596">
        <ele>15.9</ele>
        <time>2022-06-02T08:37:43Z</time>
      </trkpt>
      <trkpt lat="49.4268" lon="-1.23596">
        <ele>15.9</ele>
        <time>2022-06-02T08:37:44Z</time>
      </trkpt>
      <trkpt lat="49.4268" lon="-1.23596">
        <ele>15.9</ele>
        <time>2022-06-02T08:37:46Z</time>
      </trkpt>
      <trkpt lat="49.4268" lon="-1.23595">
        <ele>15.8</ele>
        <time>2022-06-02T08:37:47Z</time>
      </trkpt>
      <trkpt lat="49.4268" lon="-1.23594">
        <ele>15.8</ele>
        <time>2022-06-02T08:37:48Z</time>
      </trkpt>
      <trkpt lat="49.4268" lon="-1.23593">
        <ele>15.7</ele>
        <time>2022-06-02T08:37:49Z</time>
      </trkpt>
      <trkpt lat="49.4268" lon="-1.23592">
        <ele>15.7</ele>
        <time>2022-06-02T08:37:50Z</time>
      </trkpt>
      <trkpt lat="49.42681" lon="-1.23592">
        <ele>15.6</ele>
        <time>2022-06-02T08:37:51Z</time>
      </trkpt>
      <trkpt lat="49.42681" lon="-1.23593">
        <ele>15.5</ele>
        <time>2022-06-02T08:37:53Z</time>
      </trkpt>
      <trkpt lat="49.42681" lon="-1.23593">
        <ele>15.5</ele>
        <time>2022-06-02T08:37:54Z</time>
      </trkpt>
      <trkpt lat="49.42681" lon="-1.23592">
        <ele>15.5</ele>
        <time>2022-06-02T08:37:55Z</time>
      </trkpt>
      <trkpt lat="49.42681" lon="-1.23592">
        <ele>15.4</ele>
        <time>2022-06-02T08:37:56Z</time>
      </trkpt>
      <trkpt lat="49.42681" lon="-1.23591">
        <ele>15.4</ele>
        <time>2022-06-02T08:37:57Z</time>
      </trkpt>
      <trkpt lat="49.4268" lon="-1.2359">
        <ele>15.3</ele>
        <time>2022-06-02T08:37:58Z</time>
      </trkpt>
      <trkpt lat="49.42679" lon="-1.23589">
        <ele>15.2</ele>
        <time>2022-06-02T08:37:59Z</time>
      </trkpt>
      <trkpt lat="49.42679" lon="-1.23589">
        <ele>15.1</ele>
        <time>2022-06-02T08:38:00Z</time>
      </trkpt>
      <trkpt lat="49.42678" lon="-1.23589">
        <ele>15</ele>
        <time>2022-06-02T08:38:01Z</time>
      </trkpt>
      <trkpt lat="49.42677" lon="-1.23588">
        <ele>15</ele>
        <time>2022-06-02T08:38:02Z</time>
      </trkpt>
      <trkpt lat="49.42675" lon="-1.23585">
        <ele>14.9</ele>
        <time>2022-06-02T08:38:04Z</time>
      </trkpt>
      <trkpt lat="49.42675" lon="-1.23584">
        <ele>14.8</ele>
        <time>2022-06-02T08:38:05Z</time>
      </trkpt>
      <trkpt lat="49.42674" lon="-1.23583">
        <ele>14.8</ele>
        <time>2022-06-02T08:38:06Z</time>
      </trkpt>
      <trkpt lat="49.42673" lon="-1.23581">
        <ele>14.8</ele>
        <time>2022-06-02T08:38:07Z</time>
      </trkpt>
      <trkpt lat="49.42673" lon="-1.2358">
        <ele>14.8</ele>
        <time>2022-06-02T08:38:09Z</time>
      </trkpt>
      <trkpt lat="49.42672" lon="-1.23579">
        <ele>14.7</ele>
        <time>2022-06-02T08:38:10Z</time>
      </trkpt>
      <trkpt lat="49.42671" lon="-1.23578">
        <ele>14.7</ele>
        <time>2022-06-02T08:38:11Z</time>
      </trkpt>
      <trkpt lat="49.42671" lon="-1.23577">
        <ele>14.7</ele>
        <time>2022-06-02T08:38:12Z</time>
      </trkpt>
      <trkpt lat="49.4267" lon="-1.23576">
        <ele>14.7</ele>
        <time>2022-06-02T08:38:13Z</time>
      </trkpt>
      <trkpt lat="49.42669" lon="-1.23574">
        <ele>14.7</ele>
        <time>2022-06-02T08:38:14Z</time>
      </trkpt>
      <trkpt lat="49.42668" lon="-1.23575">
        <ele>14.7</ele>
        <time>2022-06-02T08:38:15Z</time>
      </trkpt>
      <trkpt lat="49.42667" lon="-1.23575">
        <ele>14.7</ele>
        <time>2022-06-02T08:38:16Z</time>
      </trkpt>
      <trkpt lat="49.42666" lon="-1.23574">
        <ele>14.7</ele>
        <time>2022-06-02T08:38:18Z</time>
      </trkpt>
      <trkpt lat="49.42665" lon="-1.23572">
        <ele>14.7</ele>
        <time>2022-06-02T08:38:19Z</time>
      </trkpt>
      <trkpt lat="49.42664" lon="-1.23571">
        <ele>14.7</ele>
        <time>2022-06-02T08:38:20Z</time>
      </trkpt>
      <trkpt lat="49.42664" lon="-1.2357">
        <ele>14.7</ele>
        <time>2022-06-02T08:38:21Z</time>
      </trkpt>
      <trkpt lat="49.42664" lon="-1.23569">
        <ele>14.7</ele>
        <time>2022-06-02T08:38:22Z</time>
      </trkpt>
      <trkpt lat="49.42664" lon="-1.23568">
        <ele>14.7</ele>
        <time>2022-06-02T08:38:23Z</time>
      </trkpt>
      <trkpt lat="49.42665" lon="-1.23567">
        <ele>14.6</ele>
        <time>2022-06-02T08:38:24Z</time>
      </trkpt>
      <trkpt lat="49.42665" lon="-1.23566">
        <ele>14.6</ele>
        <time>2022-06-02T08:38:25Z</time>
      </trkpt>
      <trkpt lat="49.42666" lon="-1.23567">
        <ele>14.6</ele>
        <time>2022-06-02T08:38:26Z</time>
      </trkpt>
      <trkpt lat="49.42666" lon="-1.23566">
        <ele>14.6</ele>
        <time>2022-06-02T08:38:27Z</time>
      </trkpt>
      <trkpt lat="49.42666" lon="-1.23563">
        <ele>14.6</ele>
        <time>2022-06-02T08:38:29Z</time>
      </trkpt>
      <trkpt lat="49.42666" lon="-1.23561">
        <ele>14.6</ele>
        <time>2022-06-02T08:38:30Z</time>
      </trkpt>
      <trkpt lat="49.42667" lon="-1.23558">
        <ele>14.6</ele>
        <time>2022-06-02T08:38:31Z</time>
      </trkpt>
      <trkpt lat="49.42668" lon="-1.23557">
        <ele>14.6</ele>
        <time>2022-06-02T08:38:32Z</time>
      </trkpt>
      <trkpt lat="49.42668" lon="-1.23556">
        <ele>14.6</ele>
        <time>2022-06-02T08:38:33Z</time>
      </trkpt>
      <trkpt lat="49.42669" lon="-1.23554">
        <ele>14.6</ele>
        <time>2022-06-02T08:38:34Z</time>
      </trkpt>
      <trkpt lat="49.4267" lon="-1.23552">
        <ele>14.6</ele>
        <time>2022-06-02T08:38:35Z</time>
      </trkpt>
      <trkpt lat="49.42672" lon="-1.23551">
        <ele>14.5</ele>
        <time>2022-06-02T08:38:37Z</time>
      </trkpt>
      <trkpt lat="49.42672" lon="-1.23549">
        <ele>14.5</ele>
        <time>2022-06-02T08:38:38Z</time>
      </trkpt>
      <trkpt lat="49.42672" lon="-1.23548">
        <ele>14.5</ele>
        <time>2022-06-02T08:38:39Z</time>
      </trkpt>
      <trkpt lat="49.42673" lon="-1.23547">
        <ele>14.5</ele>
        <time>2022-06-02T08:38:40Z</time>
      </trkpt>
      <trkpt lat="49.42673" lon="-1.23547">
        <ele>14.5</ele>
        <time>2022-06-02T08:38:41Z</time>
      </trkpt>
      <trkpt lat="49.42674" lon="-1.23547">
        <ele>14.5</ele>
        <time>2022-06-02T08:38:42Z</time>
      </trkpt>
      <trkpt lat="49.42674" lon="-1.23547">
        <ele>14.5</ele>
        <time>2022-06-02T08:38:43Z</time>
      </trkpt>
      <trkpt lat="49.42674" lon="-1.23547">
        <ele>14.5</ele>
        <time>2022-06-02T08:38:44Z</time>
      </trkpt>
      <trkpt lat="49.42674" lon="-1.23547">
        <ele>14.5</ele>
        <time>2022-06-02T08:38:45Z</time>
      </trkpt>
      <trkpt lat="49.42673" lon="-1.23547">
        <ele>14.5</ele>
        <time>2022-06-02T08:38:47Z</time>
      </trkpt>
      <trkpt lat="49.42673" lon="-1.23547">
        <ele>14.5</ele>
        <time>2022-06-02T08:38:48Z</time>
      </trkpt>
      <trkpt lat="49.42673" lon="-1.23548">
        <ele>14.5</ele>
        <time>2022-06-02T08:38:49Z</time>
      </trkpt>
      <trkpt lat="49.42673" lon="-1.23548">
        <ele>14.5</ele>
        <time>2022-06-02T08:38:50Z</time>
      </trkpt>
      <trkpt lat="49.42673" lon="-1.23548">
        <ele>14.5</ele>
        <time>2022-06-02T08:38:51Z</time>
      </trkpt>
      <trkpt lat="49.42673" lon="-1.23548">
        <ele>14.5</ele>
        <time>2022-06-02T08:38:52Z</time>
      </trkpt>
      <trkpt lat="49.42673" lon="-1.23548">
        <ele>14.5</ele>
        <time>2022-06-02T08:38:53Z</time>
      </trkpt>
      <trkpt lat="49.42673" lon="-1.23548">
        <ele>14.5</ele>
        <time>2022-06-02T08:38:54Z</time>
      </trkpt>
      <trkpt lat="49.42674" lon="-1.23549">
        <ele>14.5</ele>
        <time>2022-06-02T08:38:55Z</time>
      </trkpt>
      <trkpt lat="49.42674" lon="-1.23549">
        <ele>14.5</ele>
        <time>2022-06-02T08:38:56Z</time>
      </trkpt>
      <trkpt lat="49.42674" lon="-1.23549">
        <ele>14.5</ele>
        <time>2022-06-02T08:38:57Z</time>
      </trkpt>
      <trkpt lat="49.42674" lon="-1.2355">
        <ele>14.5</ele>
        <time>2022-06-02T08:38:58Z</time>
      </trkpt>
      <trkpt lat="49.42674" lon="-1.2355">
        <ele>14.5</ele>
        <time>2022-06-02T08:38:59Z</time>
      </trkpt>
      <trkpt lat="49.42674" lon="-1.23549">
        <ele>14.5</ele>
        <time>2022-06-02T08:39:00Z</time>
      </trkpt>
      <trkpt lat="49.42674" lon="-1.23549">
        <ele>14.5</ele>
        <time>2022-06-02T08:39:01Z</time>
      </trkpt>
      <trkpt lat="49.42674" lon="-1.23549">
        <ele>14.5</ele>
        <time>2022-06-02T08:39:02Z</time>
      </trkpt>
      <trkpt lat="49.42674" lon="-1.23549">
        <ele>14.5</ele>
        <time>2022-06-02T08:39:04Z</time>
      </trkpt>
      <trkpt lat="49.42674" lon="-1.23549">
        <ele>14.5</ele>
        <time>2022-06-02T08:39:05Z</time>
      </trkpt>
      <trkpt lat="49.42674" lon="-1.23549">
        <ele>14.5</ele>
        <time>2022-06-02T08:39:06Z</time>
      </trkpt>
      <trkpt lat="49.42674" lon="-1.2355">
        <ele>14.5</ele>
        <time>2022-06-02T08:39:08Z</time>
      </trkpt>
      <trkpt lat="49.42675" lon="-1.2355">
        <ele>14.5</ele>
        <time>2022-06-02T08:39:09Z</time>
      </trkpt>
      <trkpt lat="49.42676" lon="-1.23549">
        <ele>14.5</ele>
        <time>2022-06-02T08:39:11Z</time>
      </trkpt>
      <trkpt lat="49.42677" lon="-1.23548">
        <ele>14.5</ele>
        <time>2022-06-02T08:39:12Z</time>
      </trkpt>
      <trkpt lat="49.42678" lon="-1.23547">
        <ele>14.5</ele>
        <time>2022-06-02T08:39:13Z</time>
      </trkpt>
      <trkpt lat="49.42678" lon="-1.23546">
        <ele>14.5</ele>
        <time>2022-06-02T08:39:14Z</time>
      </trkpt>
      <trkpt lat="49.42678" lon="-1.23545">
        <ele>14.5</ele>
        <time>2022-06-02T08:39:15Z</time>
      </trkpt>
      <trkpt lat="49.42678" lon="-1.23545">
        <ele>14.4</ele>
        <time>2022-06-02T08:39:16Z</time>
      </trkpt>
      <trkpt lat="49.42678" lon="-1.23544">
        <ele>14.4</ele>
        <time>2022-06-02T08:39:17Z</time>
      </trkpt>
      <trkpt lat="49.42678" lon="-1.23544">
        <ele>14.4</ele>
        <time>2022-06-02T08:39:18Z</time>
      </trkpt>
      <trkpt lat="49.42679" lon="-1.23544">
        <ele>14.4</ele>
        <time>2022-06-02T08:39:19Z</time>
      </trkpt>
      <trkpt lat="49.42679" lon="-1.23544">
        <ele>14.4</ele>
        <time>2022-06-02T08:39:20Z</time>
      </trkpt>
      <trkpt lat="49.42679" lon="-1.23544">
        <ele>14.4</ele>
        <time>2022-06-02T08:39:21Z</time>
      </trkpt>
      <trkpt lat="49.42679" lon="-1.23543">
        <ele>14.4</ele>
        <time>2022-06-02T08:39:22Z</time>
      </trkpt>
      <trkpt lat="49.42679" lon="-1.23543">
        <ele>14.4</ele>
        <time>2022-06-02T08:39:23Z</time>
      </trkpt>
      <trkpt lat="49.42679" lon="-1.23543">
        <ele>14.4</ele>
        <time>2022-06-02T08:39:24Z</time>
      </trkpt>
      <trkpt lat="49.42679" lon="-1.23543">
        <ele>14.4</ele>
        <time>2022-06-02T08:39:25Z</time>
      </trkpt>
      <trkpt lat="49.42679" lon="-1.23543">
        <ele>14.4</ele>
        <time>2022-06-02T08:39:26Z</time>
      </trkpt>
      <trkpt lat="49.42679" lon="-1.23543">
        <ele>14.4</ele>
        <time>2022-06-02T08:39:27Z</time>
      </trkpt>
      <trkpt lat="49.42679" lon="-1.23543">
        <ele>14.4</ele>
        <time>2022-06-02T08:39:28Z</time>
      </trkpt>
      <trkpt lat="49.4268" lon="-1.23542">
        <ele>14.4</ele>
        <time>2022-06-02T08:39:29Z</time>
      </trkpt>
      <trkpt lat="49.42679" lon="-1.23542">
        <ele>14.4</ele>
        <time>2022-06-02T08:39:30Z</time>
      </trkpt>
      <trkpt lat="49.42679" lon="-1.23542">
        <ele>14.4</ele>
        <time>2022-06-02T08:39:31Z</time>
      </trkpt>
      <trkpt lat="49.42679" lon="-1.23542">
        <ele>14.4</ele>
        <time>2022-06-02T08:39:32Z</time>
      </trkpt>
      <trkpt lat="49.42679" lon="-1.23542">
        <ele>14.4</ele>
        <time>2022-06-02T08:39:33Z</time>
      </trkpt>
      <trkpt lat="49.4268" lon="-1.23542">
        <ele>14.4</ele>
        <time>2022-06-02T08:39:34Z</time>
      </trkpt>
      <trkpt lat="49.4268" lon="-1.23542">
        <ele>14.4</ele>
        <time>2022-06-02T08:39:35Z</time>
      </trkpt>
      <trkpt lat="49.42681" lon="-1.23542">
        <ele>14.4</ele>
        <time>2022-06-02T08:39:36Z</time>
      </trkpt>
      <trkpt lat="49.42681" lon="-1.23542">
        <ele>14.4</ele>
        <time>2022-06-02T08:39:38Z</time>
      </trkpt>
      <trkpt lat="49.42681" lon="-1.23542">
        <ele>14.4</ele>
        <time>2022-06-02T08:39:39Z</time>
      </trkpt>
      <trkpt lat="49.42682" lon="-1.23542">
        <ele>14.4</ele>
        <time>2022-06-02T08:39:40Z</time>
      </trkpt>
      <trkpt lat="49.42683" lon="-1.23542">
        <ele>14.4</ele>
        <time>2022-06-02T08:39:42Z</time>
      </trkpt>
      <trkpt lat="49.42684" lon="-1.23542">
        <ele>14.4</ele>
        <time>2022-06-02T08:39:43Z</time>
      </trkpt>
      <trkpt lat="49.42684" lon="-1.23542">
        <ele>14.4</ele>
        <time>2022-06-02T08:39:44Z</time>
      </trkpt>
      <trkpt lat="49.42684" lon="-1.23542">
        <ele>14.4</ele>
        <time>2022-06-02T08:39:45Z</time>
      </trkpt>
      <trkpt lat="49.42684" lon="-1.23542">
        <ele>14.4</ele>
        <time>2022-06-02T08:39:46Z</time>
      </trkpt>
      <trkpt lat="49.42684" lon="-1.23542">
        <ele>14.4</ele>
        <time>2022-06-02T08:39:48Z</time>
      </trkpt>
      <trkpt lat="49.42684" lon="-1.23543">
        <ele>14.4</ele>
        <time>2022-06-02T08:39:49Z</time>
      </trkpt>
      <trkpt lat="49.42684" lon="-1.23543">
        <ele>14.4</ele>
        <time>2022-06-02T08:39:50Z</time>
      </trkpt>
      <trkpt lat="49.42684" lon="-1.23543">
        <ele>14.4</ele>
        <time>2022-06-02T08:39:51Z</time>
      </trkpt>
      <trkpt lat="49.42684" lon="-1.23543">
        <ele>14.4</ele>
        <time>2022-06-02T08:39:53Z</time>
      </trkpt>
      <trkpt lat="49.42684" lon="-1.23543">
        <ele>14.4</ele>
        <time>2022-06-02T08:39:54Z</time>
      </trkpt>
      <trkpt lat="49.42684" lon="-1.23544">
        <ele>14.4</ele>
        <time>2022-06-02T08:39:55Z</time>
      </trkpt>
      <trkpt lat="49.42684" lon="-1.23544">
        <ele>14.4</ele>
        <time>2022-06-02T08:39:56Z</time>
      </trkpt>
      <trkpt lat="49.42684" lon="-1.23544">
        <ele>14.4</ele>
        <time>2022-06-02T08:39:57Z</time>
      </trkpt>
      <trkpt lat="49.42684" lon="-1.23544">
        <ele>14.4</ele>
        <time>2022-06-02T08:39:58Z</time>
      </trkpt>
      <trkpt lat="49.42684" lon="-1.23544">
        <ele>14.4</ele>
        <time>2022-06-02T08:39:59Z</time>
      </trkpt>
      <trkpt lat="49.42684" lon="-1.23544">
        <ele>14.4</ele>
        <time>2022-06-02T08:40:00Z</time>
      </trkpt>
      <trkpt lat="49.42684" lon="-1.23544">
        <ele>14.4</ele>
        <time>2022-06-02T08:40:01Z</time>
      </trkpt>
      <trkpt lat="49.42684" lon="-1.23544">
        <ele>14.4</ele>
        <time>2022-06-02T08:40:03Z</time>
      </trkpt>
      <trkpt lat="49.42684" lon="-1.23544">
        <ele>14.4</ele>
        <time>2022-06-02T08:40:04Z</time>
      </trkpt>
      <trkpt lat="49.42684" lon="-1.23544">
        <ele>14.4</ele>
        <time>2022-06-02T08:40:05Z</time>
      </trkpt>
      <trkpt lat="49.42684" lon="-1.23545">
        <ele>14.4</ele>
        <time>2022-06-02T08:40:06Z</time>
      </trkpt>
      <trkpt lat="49.42684" lon="-1.23545">
        <ele>14.4</ele>
        <time>2022-06-02T08:40:07Z</time>
      </trkpt>
      <trkpt lat="49.42684" lon="-1.23545">
        <ele>14.4</ele>
        <time>2022-06-02T08:40:08Z</time>
      </trkpt>
      <trkpt lat="49.42684" lon="-1.23545">
        <ele>14.4</ele>
        <time>2022-06-02T08:40:09Z</time>
      </trkpt>
      <trkpt lat="49.42683" lon="-1.23545">
        <ele>14.4</ele>
        <time>2022-06-02T08:40:10Z</time>
      </trkpt>
      <trkpt lat="49.42683" lon="-1.23545">
        <ele>14.4</ele>
        <time>2022-06-02T08:40:11Z</time>
      </trkpt>
      <trkpt lat="49.42683" lon="-1.23545">
        <ele>14.4</ele>
        <time>2022-06-02T08:40:12Z</time>
      </trkpt>
      <trkpt lat="49.42683" lon="-1.23545">
        <ele>14.4</ele>
        <time>2022-06-02T08:40:13Z</time>
      </trkpt>
      <trkpt lat="49.42683" lon="-1.23545">
        <ele>14.4</ele>
        <time>2022-06-02T08:40:14Z</time>
      </trkpt>
      <trkpt lat="49.42683" lon="-1.23545">
        <ele>14.4</ele>
        <time>2022-06-02T08:40:15Z</time>
      </trkpt>
      <trkpt lat="49.42683" lon="-1.23546">
        <ele>14.4</ele>
        <time>2022-06-02T08:40:16Z</time>
      </trkpt>
      <trkpt lat="49.42683" lon="-1.23546">
        <ele>14.4</ele>
        <time>2022-06-02T08:40:17Z</time>
      </trkpt>
      <trkpt lat="49.42683" lon="-1.23546">
        <ele>14.4</ele>
        <time>2022-06-02T08:40:18Z</time>
      </trkpt>
      <trkpt lat="49.42683" lon="-1.23546">
        <ele>14.4</ele>
        <time>2022-06-02T08:40:19Z</time>
      </trkpt>
      <trkpt lat="49.42683" lon="-1.23546">
        <ele>14.4</ele>
        <time>2022-06-02T08:40:20Z</time>
      </trkpt>
      <trkpt lat="49.42683" lon="-1.23546">
        <ele>14.4</ele>
        <time>2022-06-02T08:40:21Z</time>
      </trkpt>
      <trkpt lat="49.42683" lon="-1.23546">
        <ele>14.4</ele>
        <time>2022-06-02T08:40:22Z</time>
      </trkpt>
      <trkpt lat="49.42683" lon="-1.23546">
        <ele>14.4</ele>
        <time>2022-06-02T08:40:23Z</time>
      </trkpt>
      <trkpt lat="49.42683" lon="-1.23546">
        <ele>14.4</ele>
        <time>2022-06-02T08:40:24Z</time>
      </trkpt>
      <trkpt lat="49.42683" lon="-1.23546">
        <ele>14.4</ele>
        <time>2022-06-02T08:40:25Z</time>
      </trkpt>
      <trkpt lat="49.42683" lon="-1.23547">
        <ele>14.4</ele>
        <time>2022-06-02T08:40:26Z</time>
      </trkpt>
      <trkpt lat="49.42683" lon="-1.23547">
        <ele>14.4</ele>
        <time>2022-06-02T08:40:27Z</time>
      </trkpt>
      <trkpt lat="49.42683" lon="-1.23547">
        <ele>14.4</ele>
        <time>2022-06-02T08:40:28Z</time>
      </trkpt>
      <trkpt lat="49.42683" lon="-1.23547">
        <ele>14.4</ele>
        <time>2022-06-02T08:40:29Z</time>
      </trkpt>
      <trkpt lat="49.42683" lon="-1.23547">
        <ele>14.4</ele>
        <time>2022-06-02T08:40:30Z</time>
      </trkpt>
      <trkpt lat="49.42683" lon="-1.23547">
        <ele>14.4</ele>
        <time>2022-06-02T08:40:31Z</time>
      </trkpt>
      <trkpt lat="49.42683" lon="-1.23547">
        <ele>14.4</ele>
        <time>2022-06-02T08:40:32Z</time>
      </trkpt>
      <trkpt lat="49.42683" lon="-1.23547">
        <ele>14.4</ele>
        <time>2022-06-02T08:40:33Z</time>
      </trkpt>
      <trkpt lat="49.42683" lon="-1.23547">
        <ele>14.4</ele>
        <time>2022-06-02T08:40:34Z</time>
      </trkpt>
      <trkpt lat="49.42683" lon="-1.23547">
        <ele>14.4</ele>
        <time>2022-06-02T08:40:35Z</time>
      </trkpt>
      <trkpt lat="49.42683" lon="-1.23548">
        <ele>14.4</ele>
        <time>2022-06-02T08:40:36Z</time>
      </trkpt>
      <trkpt lat="49.42683" lon="-1.23548">
        <ele>14.4</ele>
        <time>2022-06-02T08:40:37Z</time>
      </trkpt>
      <trkpt lat="49.42683" lon="-1.23548">
        <ele>14.4</ele>
        <time>2022-06-02T08:40:38Z</time>
      </trkpt>
      <trkpt lat="49.42683" lon="-1.23548">
        <ele>14.4</ele>
        <time>2022-06-02T08:40:39Z</time>
      </trkpt>
      <trkpt lat="49.42683" lon="-1.23548">
        <ele>14.4</ele>
        <time>2022-06-02T08:40:40Z</time>
      </trkpt>
      <trkpt lat="49.42683" lon="-1.23548">
        <ele>14.4</ele>
        <time>2022-06-02T08:40:41Z</time>
      </trkpt>
      <trkpt lat="49.42683" lon="-1.23551">
        <ele>14.4</ele>
        <time>2022-06-02T08:40:42Z</time>
      </trkpt>
      <trkpt lat="49.42683" lon="-1.23553">
        <ele>14.4</ele>
        <time>2022-06-02T08:40:43Z</time>
      </trkpt>
      <trkpt lat="49.42683" lon="-1.23555">
        <ele>14.4</ele>
        <time>2022-06-02T08:40:44Z</time>
      </trkpt>
      <trkpt lat="49.42683" lon="-1.23555">
        <ele>14.4</ele>
        <time>2022-06-02T08:40:45Z</time>
      </trkpt>
      <trkpt lat="49.42683" lon="-1.23552">
        <ele>14.4</ele>
        <time>2022-06-02T08:40:46Z</time>
      </trkpt>
      <trkpt lat="49.42683" lon="-1.2355">
        <ele>14.4</ele>
        <time>2022-06-02T08:40:49Z</time>
      </trkpt>
      <trkpt lat="49.42684" lon="-1.23548">
        <ele>14.4</ele>
        <time>2022-06-02T08:40:50Z</time>
      </trkpt>
      <trkpt lat="49.42682" lon="-1.2355">
        <ele>14.3</ele>
        <time>2022-06-02T08:40:52Z</time>
      </trkpt>
      <trkpt lat="49.42681" lon="-1.23551">
        <ele>14.3</ele>
        <time>2022-06-02T08:40:53Z</time>
      </trkpt>
      <trkpt lat="49.42681" lon="-1.23551">
        <ele>14.3</ele>
        <time>2022-06-02T08:40:54Z</time>
      </trkpt>
      <trkpt lat="49.4268" lon="-1.23554">
        <ele>14.3</ele>
        <time>2022-06-02T08:40:56Z</time>
      </trkpt>
      <trkpt lat="49.42681" lon="-1.23552">
        <ele>14.3</ele>
        <time>2022-06-02T08:40:58Z</time>
      </trkpt>
      <trkpt lat="49.42681" lon="-1.23553">
        <ele>14.3</ele>
        <time>2022-06-02T08:40:59Z</time>
      </trkpt>
      <trkpt lat="49.42681" lon="-1.23553">
        <ele>14.3</ele>
        <time>2022-06-02T08:41:00Z</time>
      </trkpt>
      <trkpt lat="49.42681" lon="-1.23554">
        <ele>14.3</ele>
        <time>2022-06-02T08:41:01Z</time>
      </trkpt>
      <trkpt lat="49.42681" lon="-1.23554">
        <ele>14.3</ele>
        <time>2022-06-02T08:41:02Z</time>
      </trkpt>
      <trkpt lat="49.42681" lon="-1.23555">
        <ele>14.3</ele>
        <time>2022-06-02T08:41:04Z</time>
      </trkpt>
      <trkpt lat="49.42681" lon="-1.23555">
        <ele>14.3</ele>
        <time>2022-06-02T08:41:05Z</time>
      </trkpt>
      <trkpt lat="49.42681" lon="-1.23555">
        <ele>14.3</ele>
        <time>2022-06-02T08:41:06Z</time>
      </trkpt>
      <trkpt lat="49.42681" lon="-1.23555">
        <ele>14.3</ele>
        <time>2022-06-02T08:41:07Z</time>
      </trkpt>
      <trkpt lat="49.42681" lon="-1.23554">
        <ele>14.3</ele>
        <time>2022-06-02T08:41:08Z</time>
      </trkpt>
      <trkpt lat="49.42681" lon="-1.23555">
        <ele>14.3</ele>
        <time>2022-06-02T08:41:09Z</time>
      </trkpt>
      <trkpt lat="49.42681" lon="-1.23555">
        <ele>14.3</ele>
        <time>2022-06-02T08:41:10Z</time>
      </trkpt>
      <trkpt lat="49.42681" lon="-1.23554">
        <ele>14.3</ele>
        <time>2022-06-02T08:41:12Z</time>
      </trkpt>
      <trkpt lat="49.42681" lon="-1.23554">
        <ele>14.3</ele>
        <time>2022-06-02T08:41:13Z</time>
      </trkpt>
      <trkpt lat="49.42681" lon="-1.23554">
        <ele>14.3</ele>
        <time>2022-06-02T08:41:14Z</time>
      </trkpt>
      <trkpt lat="49.42681" lon="-1.23554">
        <ele>14.3</ele>
        <time>2022-06-02T08:41:15Z</time>
      </trkpt>
      <trkpt lat="49.42681" lon="-1.23554">
        <ele>14.3</ele>
        <time>2022-06-02T08:41:16Z</time>
      </trkpt>
      <trkpt lat="49.42681" lon="-1.23554">
        <ele>14.3</ele>
        <time>2022-06-02T08:41:17Z</time>
      </trkpt>
      <trkpt lat="49.42681" lon="-1.23554">
        <ele>14.3</ele>
        <time>2022-06-02T08:41:18Z</time>
      </trkpt>
      <trkpt lat="49.42681" lon="-1.23553">
        <ele>14.3</ele>
        <time>2022-06-02T08:41:19Z</time>
      </trkpt>
      <trkpt lat="49.42681" lon="-1.23553">
        <ele>14.3</ele>
        <time>2022-06-02T08:41:20Z</time>
      </trkpt>
      <trkpt lat="49.42681" lon="-1.23553">
        <ele>14.3</ele>
        <time>2022-06-02T08:41:22Z</time>
      </trkpt>
      <trkpt lat="49.42681" lon="-1.23553">
        <ele>14.3</ele>
        <time>2022-06-02T08:41:23Z</time>
      </trkpt>
      <trkpt lat="49.42681" lon="-1.23553">
        <ele>14.3</ele>
        <time>2022-06-02T08:41:24Z</time>
      </trkpt>
      <trkpt lat="49.42681" lon="-1.23553">
        <ele>14.3</ele>
        <time>2022-06-02T08:41:25Z</time>
      </trkpt>
      <trkpt lat="49.42681" lon="-1.23553">
        <ele>14.3</ele>
        <time>2022-06-02T08:41:26Z</time>
      </trkpt>
      <trkpt lat="49.42681" lon="-1.23553">
        <ele>14.3</ele>
        <time>2022-06-02T08:41:27Z</time>
      </trkpt>
      <trkpt lat="49.42681" lon="-1.23553">
        <ele>14.3</ele>
        <time>2022-06-02T08:41:29Z</time>
      </trkpt>
      <trkpt lat="49.42681" lon="-1.23553">
        <ele>14.3</ele>
        <time>2022-06-02T08:41:31Z</time>
      </trkpt>
      <trkpt lat="49.42681" lon="-1.23554">
        <ele>14.3</ele>
        <time>2022-06-02T08:41:32Z</time>
      </trkpt>
      <trkpt lat="49.42681" lon="-1.23554">
        <ele>14.3</ele>
        <time>2022-06-02T08:41:33Z</time>
      </trkpt>
      <trkpt lat="49.42681" lon="-1.23554">
        <ele>14.3</ele>
        <time>2022-06-02T08:41:34Z</time>
      </trkpt>
      <trkpt lat="49.42681" lon="-1.23555">
        <ele>14.3</ele>
        <time>2022-06-02T08:41:35Z</time>
      </trkpt>
      <trkpt lat="49.4268" lon="-1.23553">
        <ele>14.3</ele>
        <time>2022-06-02T08:41:37Z</time>
      </trkpt>
      <trkpt lat="49.4268" lon="-1.23551">
        <ele>14.3</ele>
        <time>2022-06-02T08:41:38Z</time>
      </trkpt>
      <trkpt lat="49.4268" lon="-1.2355">
        <ele>14.3</ele>
        <time>2022-06-02T08:41:39Z</time>
      </trkpt>
      <trkpt lat="49.4268" lon="-1.23548">
        <ele>14.3</ele>
        <time>2022-06-02T08:41:40Z</time>
      </trkpt>
      <trkpt lat="49.4268" lon="-1.23547">
        <ele>14.3</ele>
        <time>2022-06-02T08:41:41Z</time>
      </trkpt>
      <trkpt lat="49.42679" lon="-1.23547">
        <ele>14.3</ele>
        <time>2022-06-02T08:41:42Z</time>
      </trkpt>
      <trkpt lat="49.42679" lon="-1.23546">
        <ele>14.3</ele>
        <time>2022-06-02T08:41:44Z</time>
      </trkpt>
      <trkpt lat="49.42679" lon="-1.23546">
        <ele>14.3</ele>
        <time>2022-06-02T08:41:45Z</time>
      </trkpt>
      <trkpt lat="49.42679" lon="-1.23546">
        <ele>14.3</ele>
        <time>2022-06-02T08:41:46Z</time>
      </trkpt>
      <trkpt lat="49.42679" lon="-1.23546">
        <ele>14.3</ele>
        <time>2022-06-02T08:41:47Z</time>
      </trkpt>
      <trkpt lat="49.42679" lon="-1.23545">
        <ele>14.3</ele>
        <time>2022-06-02T08:41:49Z</time>
      </trkpt>
      <trkpt lat="49.42679" lon="-1.23545">
        <ele>14.3</ele>
        <time>2022-06-02T08:41:50Z</time>
      </trkpt>
      <trkpt lat="49.42679" lon="-1.23545">
        <ele>14.3</ele>
        <time>2022-06-02T08:41:51Z</time>
      </trkpt>
      <trkpt lat="49.42678" lon="-1.23544">
        <ele>14.3</ele>
        <time>2022-06-02T08:41:52Z</time>
      </trkpt>
      <trkpt lat="49.42677" lon="-1.23543">
        <ele>14.3</ele>
        <time>2022-06-02T08:41:53Z</time>
      </trkpt>
      <trkpt lat="49.42676" lon="-1.23542">
        <ele>14.2</ele>
        <time>2022-06-02T08:41:54Z</time>
      </trkpt>
      <trkpt lat="49.42676" lon="-1.23542">
        <ele>14.2</ele>
        <time>2022-06-02T08:41:55Z</time>
      </trkpt>
      <trkpt lat="49.42675" lon="-1.23542">
        <ele>14.2</ele>
        <time>2022-06-02T08:41:56Z</time>
      </trkpt>
      <trkpt lat="49.42675" lon="-1.23541">
        <ele>14.2</ele>
        <time>2022-06-02T08:41:57Z</time>
      </trkpt>
      <trkpt lat="49.42675" lon="-1.23541">
        <ele>14.2</ele>
        <time>2022-06-02T08:41:58Z</time>
      </trkpt>
      <trkpt lat="49.42675" lon="-1.23541">
        <ele>14.2</ele>
        <time>2022-06-02T08:41:59Z</time>
      </trkpt>
      <trkpt lat="49.42675" lon="-1.23541">
        <ele>14.2</ele>
        <time>2022-06-02T08:42:00Z</time>
      </trkpt>
      <trkpt lat="49.42675" lon="-1.23541">
        <ele>14.2</ele>
        <time>2022-06-02T08:42:01Z</time>
      </trkpt>
      <trkpt lat="49.42675" lon="-1.23541">
        <ele>14.2</ele>
        <time>2022-06-02T08:42:02Z</time>
      </trkpt>
      <trkpt lat="49.42675" lon="-1.23541">
        <ele>14.2</ele>
        <time>2022-06-02T08:42:03Z</time>
      </trkpt>
      <trkpt lat="49.42674" lon="-1.23541">
        <ele>14.2</ele>
        <time>2022-06-02T08:42:04Z</time>
      </trkpt>
      <trkpt lat="49.42674" lon="-1.23541">
        <ele>14.2</ele>
        <time>2022-06-02T08:42:05Z</time>
      </trkpt>
      <trkpt lat="49.42675" lon="-1.23541">
        <ele>14.2</ele>
        <time>2022-06-02T08:42:06Z</time>
      </trkpt>
      <trkpt lat="49.42675" lon="-1.23541">
        <ele>14.2</ele>
        <time>2022-06-02T08:42:07Z</time>
      </trkpt>
      <trkpt lat="49.42675" lon="-1.23541">
        <ele>14.2</ele>
        <time>2022-06-02T08:42:08Z</time>
      </trkpt>
      <trkpt lat="49.42675" lon="-1.23541">
        <ele>14.2</ele>
        <time>2022-06-02T08:42:09Z</time>
      </trkpt>
      <trkpt lat="49.42675" lon="-1.23541">
        <ele>14.2</ele>
        <time>2022-06-02T08:42:10Z</time>
      </trkpt>
      <trkpt lat="49.42675" lon="-1.23541">
        <ele>14.2</ele>
        <time>2022-06-02T08:42:11Z</time>
      </trkpt>
      <trkpt lat="49.42675" lon="-1.23541">
        <ele>14.2</ele>
        <time>2022-06-02T08:42:12Z</time>
      </trkpt>
      <trkpt lat="49.42675" lon="-1.23541">
        <ele>14.2</ele>
        <time>2022-06-02T08:42:13Z</time>
      </trkpt>
      <trkpt lat="49.42675" lon="-1.23541">
        <ele>14.2</ele>
        <time>2022-06-02T08:42:14Z</time>
      </trkpt>
      <trkpt lat="49.42674" lon="-1.23543">
        <ele>14.2</ele>
        <time>2022-06-02T08:42:15Z</time>
      </trkpt>
      <trkpt lat="49.42674" lon="-1.23544">
        <ele>14.2</ele>
        <time>2022-06-02T08:42:16Z</time>
      </trkpt>
      <trkpt lat="49.42674" lon="-1.23543">
        <ele>14.2</ele>
        <time>2022-06-02T08:42:17Z</time>
      </trkpt>
      <trkpt lat="49.42674" lon="-1.23543">
        <ele>14.2</ele>
        <time>2022-06-02T08:42:18Z</time>
      </trkpt>
      <trkpt lat="49.42674" lon="-1.23543">
        <ele>14.2</ele>
        <time>2022-06-02T08:42:19Z</time>
      </trkpt>
      <trkpt lat="49.42673" lon="-1.23542">
        <ele>14.2</ele>
        <time>2022-06-02T08:42:20Z</time>
      </trkpt>
      <trkpt lat="49.42673" lon="-1.23542">
        <ele>14.2</ele>
        <time>2022-06-02T08:42:21Z</time>
      </trkpt>
      <trkpt lat="49.42673" lon="-1.23541">
        <ele>14.2</ele>
        <time>2022-06-02T08:42:23Z</time>
      </trkpt>
      <trkpt lat="49.42673" lon="-1.23542">
        <ele>14.2</ele>
        <time>2022-06-02T08:42:24Z</time>
      </trkpt>
      <trkpt lat="49.42673" lon="-1.23542">
        <ele>14.2</ele>
        <time>2022-06-02T08:42:25Z</time>
      </trkpt>
      <trkpt lat="49.42673" lon="-1.23542">
        <ele>14.2</ele>
        <time>2022-06-02T08:42:26Z</time>
      </trkpt>
      <trkpt lat="49.42673" lon="-1.23542">
        <ele>14.2</ele>
        <time>2022-06-02T08:42:27Z</time>
      </trkpt>
      <trkpt lat="49.42673" lon="-1.23542">
        <ele>14.2</ele>
        <time>2022-06-02T08:42:28Z</time>
      </trkpt>
      <trkpt lat="49.42673" lon="-1.23542">
        <ele>14.2</ele>
        <time>2022-06-02T08:42:29Z</time>
      </trkpt>
      <trkpt lat="49.42673" lon="-1.23542">
        <ele>14.2</ele>
        <time>2022-06-02T08:42:30Z</time>
      </trkpt>
      <trkpt lat="49.42673" lon="-1.23542">
        <ele>14.2</ele>
        <time>2022-06-02T08:42:31Z</time>
      </trkpt>
      <trkpt lat="49.42673" lon="-1.23542">
        <ele>14.2</ele>
        <time>2022-06-02T08:42:32Z</time>
      </trkpt>
      <trkpt lat="49.42674" lon="-1.23542">
        <ele>14.2</ele>
        <time>2022-06-02T08:42:34Z</time>
      </trkpt>
      <trkpt lat="49.42674" lon="-1.23542">
        <ele>14.2</ele>
        <time>2022-06-02T08:42:35Z</time>
      </trkpt>
      <trkpt lat="49.42674" lon="-1.23542">
        <ele>14.2</ele>
        <time>2022-06-02T08:42:36Z</time>
      </trkpt>
      <trkpt lat="49.42674" lon="-1.23542">
        <ele>14.2</ele>
        <time>2022-06-02T08:42:37Z</time>
      </trkpt>
      <trkpt lat="49.42674" lon="-1.23542">
        <ele>14.2</ele>
        <time>2022-06-02T08:42:38Z</time>
      </trkpt>
      <trkpt lat="49.42675" lon="-1.23542">
        <ele>14.2</ele>
        <time>2022-06-02T08:42:39Z</time>
      </trkpt>
      <trkpt lat="49.42675" lon="-1.23542">
        <ele>14.2</ele>
        <time>2022-06-02T08:42:40Z</time>
      </trkpt>
      <trkpt lat="49.42675" lon="-1.23542">
        <ele>14.2</ele>
        <time>2022-06-02T08:42:41Z</time>
      </trkpt>
      <trkpt lat="49.42675" lon="-1.23542">
        <ele>14.2</ele>
        <time>2022-06-02T08:42:42Z</time>
      </trkpt>
      <trkpt lat="49.42676" lon="-1.23542">
        <ele>14.2</ele>
        <time>2022-06-02T08:42:43Z</time>
      </trkpt>
      <trkpt lat="49.42676" lon="-1.23543">
        <ele>14.2</ele>
        <time>2022-06-02T08:42:44Z</time>
      </trkpt>
      <trkpt lat="49.42677" lon="-1.23544">
        <ele>14.2</ele>
        <time>2022-06-02T08:42:45Z</time>
      </trkpt>
      <trkpt lat="49.42678" lon="-1.23545">
        <ele>14.2</ele>
        <time>2022-06-02T08:42:46Z</time>
      </trkpt>
      <trkpt lat="49.42678" lon="-1.23549">
        <ele>14.2</ele>
        <time>2022-06-02T08:42:48Z</time>
      </trkpt>
      <trkpt lat="49.42678" lon="-1.23551">
        <ele>14.2</ele>
        <time>2022-06-02T08:42:49Z</time>
      </trkpt>
      <trkpt lat="49.42678" lon="-1.23552">
        <ele>14.2</ele>
        <time>2022-06-02T08:42:50Z</time>
      </trkpt>
      <trkpt lat="49.42678" lon="-1.23555">
        <ele>14.2</ele>
        <time>2022-06-02T08:42:51Z</time>
      </trkpt>
      <trkpt lat="49.42678" lon="-1.23556">
        <ele>14.2</ele>
        <time>2022-06-02T08:42:52Z</time>
      </trkpt>
      <trkpt lat="49.42678" lon="-1.23557">
        <ele>14.2</ele>
        <time>2022-06-02T08:42:54Z</time>
      </trkpt>
      <trkpt lat="49.42678" lon="-1.23559">
        <ele>14.2</ele>
        <time>2022-06-02T08:42:55Z</time>
      </trkpt>
      <trkpt lat="49.42678" lon="-1.2356">
        <ele>14.2</ele>
        <time>2022-06-02T08:42:56Z</time>
      </trkpt>
      <trkpt lat="49.42678" lon="-1.23562">
        <ele>14.2</ele>
        <time>2022-06-02T08:42:57Z</time>
      </trkpt>
      <trkpt lat="49.42676" lon="-1.23565">
        <ele>14.3</ele>
        <time>2022-06-02T08:42:59Z</time>
      </trkpt>
      <trkpt lat="49.42675" lon="-1.23567">
        <ele>14.3</ele>
        <time>2022-06-02T08:43:00Z</time>
      </trkpt>
      <trkpt lat="49.42675" lon="-1.23568">
        <ele>14.3</ele>
        <time>2022-06-02T08:43:01Z</time>
      </trkpt>
      <trkpt lat="49.42675" lon="-1.2357">
        <ele>14.3</ele>
        <time>2022-06-02T08:43:02Z</time>
      </trkpt>
      <trkpt lat="49.42674" lon="-1.23572">
        <ele>14.3</ele>
        <time>2022-06-02T08:43:04Z</time>
      </trkpt>
      <trkpt lat="49.42674" lon="-1.23575">
        <ele>14.4</ele>
        <time>2022-06-02T08:43:05Z</time>
      </trkpt>
      <trkpt lat="49.42673" lon="-1.23577">
        <ele>14.4</ele>
        <time>2022-06-02T08:43:06Z</time>
      </trkpt>
      <trkpt lat="49.42672" lon="-1.23578">
        <ele>14.4</ele>
        <time>2022-06-02T08:43:07Z</time>
      </trkpt>
      <trkpt lat="49.42669" lon="-1.23579">
        <ele>14.5</ele>
        <time>2022-06-02T08:43:09Z</time>
      </trkpt>
      <trkpt lat="49.42668" lon="-1.23579">
        <ele>14.5</ele>
        <time>2022-06-02T08:43:10Z</time>
      </trkpt>
      <trkpt lat="49.42667" lon="-1.23579">
        <ele>14.5</ele>
        <time>2022-06-02T08:43:11Z</time>
      </trkpt>
      <trkpt lat="49.42666" lon="-1.2358">
        <ele>14.5</ele>
        <time>2022-06-02T08:43:12Z</time>
      </trkpt>
      <trkpt lat="49.42666" lon="-1.23582">
        <ele>14.5</ele>
        <time>2022-06-02T08:43:13Z</time>
      </trkpt>
      <trkpt lat="49.42666" lon="-1.23582">
        <ele>14.5</ele>
        <time>2022-06-02T08:43:14Z</time>
      </trkpt>
      <trkpt lat="49.42666" lon="-1.23582">
        <ele>14.5</ele>
        <time>2022-06-02T08:43:15Z</time>
      </trkpt>
      <trkpt lat="49.42666" lon="-1.23581">
        <ele>14.5</ele>
        <time>2022-06-02T08:43:16Z</time>
      </trkpt>
      <trkpt lat="49.42666" lon="-1.23581">
        <ele>14.5</ele>
        <time>2022-06-02T08:43:17Z</time>
      </trkpt>
      <trkpt lat="49.42667" lon="-1.2358">
        <ele>14.6</ele>
        <time>2022-06-02T08:43:18Z</time>
      </trkpt>
      <trkpt lat="49.42668" lon="-1.23578">
        <ele>14.6</ele>
        <time>2022-06-02T08:43:20Z</time>
      </trkpt>
      <trkpt lat="49.42669" lon="-1.23577">
        <ele>14.6</ele>
        <time>2022-06-02T08:43:21Z</time>
      </trkpt>
      <trkpt lat="49.4267" lon="-1.23577">
        <ele>14.6</ele>
        <time>2022-06-02T08:43:22Z</time>
      </trkpt>
      <trkpt lat="49.4267" lon="-1.23578">
        <ele>14.7</ele>
        <time>2022-06-02T08:43:23Z</time>
      </trkpt>
      <trkpt lat="49.4267" lon="-1.23579">
        <ele>14.7</ele>
        <time>2022-06-02T08:43:25Z</time>
      </trkpt>
      <trkpt lat="49.4267" lon="-1.23581">
        <ele>14.7</ele>
        <time>2022-06-02T08:43:26Z</time>
      </trkpt>
      <trkpt lat="49.42671" lon="-1.23584">
        <ele>14.8</ele>
        <time>2022-06-02T08:43:27Z</time>
      </trkpt>
      <trkpt lat="49.42671" lon="-1.23586">
        <ele>14.8</ele>
        <time>2022-06-02T08:43:28Z</time>
      </trkpt>
      <trkpt lat="49.42671" lon="-1.23588">
        <ele>14.8</ele>
        <time>2022-06-02T08:43:29Z</time>
      </trkpt>
      <trkpt lat="49.42671" lon="-1.2359">
        <ele>14.9</ele>
        <time>2022-06-02T08:43:30Z</time>
      </trkpt>
      <trkpt lat="49.42671" lon="-1.23591">
        <ele>14.9</ele>
        <time>2022-06-02T08:43:31Z</time>
      </trkpt>
      <trkpt lat="49.42671" lon="-1.23593">
        <ele>15</ele>
        <time>2022-06-02T08:43:32Z</time>
      </trkpt>
      <trkpt lat="49.42672" lon="-1.23595">
        <ele>15.1</ele>
        <time>2022-06-02T08:43:33Z</time>
      </trkpt>
      <trkpt lat="49.42672" lon="-1.23597">
        <ele>15.2</ele>
        <time>2022-06-02T08:43:35Z</time>
      </trkpt>
      <trkpt lat="49.42673" lon="-1.23598">
        <ele>15.3</ele>
        <time>2022-06-02T08:43:36Z</time>
      </trkpt>
      <trkpt lat="49.42674" lon="-1.236">
        <ele>15.4</ele>
        <time>2022-06-02T08:43:37Z</time>
      </trkpt>
      <trkpt lat="49.42675" lon="-1.236">
        <ele>15.5</ele>
        <time>2022-06-02T08:43:38Z</time>
      </trkpt>
      <trkpt lat="49.42676" lon="-1.236">
        <ele>15.6</ele>
        <time>2022-06-02T08:43:39Z</time>
      </trkpt>
      <trkpt lat="49.42678" lon="-1.23598">
        <ele>15.8</ele>
        <time>2022-06-02T08:43:40Z</time>
      </trkpt>
      <trkpt lat="49.42681" lon="-1.23596">
        <ele>17.1</ele>
        <time>2022-06-02T08:43:41Z</time>
      </trkpt>
      <trkpt lat="49.42681" lon="-1.23595">
        <ele>17</ele>
        <time>2022-06-02T08:43:42Z</time>
      </trkpt>
      <trkpt lat="49.42683" lon="-1.23593">
        <ele>16.8</ele>
        <time>2022-06-02T08:43:44Z</time>
      </trkpt>
      <trkpt lat="49.42684" lon="-1.23591">
        <ele>16.7</ele>
        <time>2022-06-02T08:43:45Z</time>
      </trkpt>
      <trkpt lat="49.42685" lon="-1.23589">
        <ele>16.4</ele>
        <time>2022-06-02T08:43:46Z</time>
      </trkpt>
      <trkpt lat="49.42686" lon="-1.23588">
        <ele>16.4</ele>
        <time>2022-06-02T08:43:47Z</time>
      </trkpt>
      <trkpt lat="49.42687" lon="-1.23587">
        <ele>16.3</ele>
        <time>2022-06-02T08:43:48Z</time>
      </trkpt>
      <trkpt lat="49.42688" lon="-1.23585">
        <ele>16.1</ele>
        <time>2022-06-02T08:43:49Z</time>
      </trkpt>
      <trkpt lat="49.42689" lon="-1.23584">
        <ele>16</ele>
        <time>2022-06-02T08:43:50Z</time>
      </trkpt>
      <trkpt lat="49.4269" lon="-1.23582">
        <ele>15.8</ele>
        <time>2022-06-02T08:43:51Z</time>
      </trkpt>
      <trkpt lat="49.42691" lon="-1.2358">
        <ele>15.7</ele>
        <time>2022-06-02T08:43:52Z</time>
      </trkpt>
      <trkpt lat="49.42693" lon="-1.23579">
        <ele>15.5</ele>
        <time>2022-06-02T08:43:54Z</time>
      </trkpt>
      <trkpt lat="49.42694" lon="-1.23578">
        <ele>15.3</ele>
        <time>2022-06-02T08:43:55Z</time>
      </trkpt>
      <trkpt lat="49.42695" lon="-1.23576">
        <ele>15.2</ele>
        <time>2022-06-02T08:43:56Z</time>
      </trkpt>
      <trkpt lat="49.42696" lon="-1.23574">
        <ele>15</ele>
        <time>2022-06-02T08:43:57Z</time>
      </trkpt>
      <trkpt lat="49.42698" lon="-1.23573">
        <ele>14.8</ele>
        <time>2022-06-02T08:43:58Z</time>
      </trkpt>
      <trkpt lat="49.42699" lon="-1.23571">
        <ele>14.7</ele>
        <time>2022-06-02T08:43:59Z</time>
      </trkpt>
      <trkpt lat="49.42701" lon="-1.23569">
        <ele>14.4</ele>
        <time>2022-06-02T08:44:00Z</time>
      </trkpt>
      <trkpt lat="49.42701" lon="-1.23568">
        <ele>14.4</ele>
        <time>2022-06-02T08:44:01Z</time>
      </trkpt>
      <trkpt lat="49.42702" lon="-1.23567">
        <ele>14.3</ele>
        <time>2022-06-02T08:44:02Z</time>
      </trkpt>
      <trkpt lat="49.42703" lon="-1.23566">
        <ele>14.1</ele>
        <time>2022-06-02T08:44:03Z</time>
      </trkpt>
      <trkpt lat="49.42704" lon="-1.23564">
        <ele>14</ele>
        <time>2022-06-02T08:44:04Z</time>
      </trkpt>
      <trkpt lat="49.42705" lon="-1.23563">
        <ele>13.8</ele>
        <time>2022-06-02T08:44:05Z</time>
      </trkpt>
      <trkpt lat="49.42706" lon="-1.23561">
        <ele>13.7</ele>
        <time>2022-06-02T08:44:06Z</time>
      </trkpt>
      <trkpt lat="49.42707" lon="-1.2356">
        <ele>13.5</ele>
        <time>2022-06-02T08:44:07Z</time>
      </trkpt>
      <trkpt lat="49.42708" lon="-1.23558">
        <ele>13.3</ele>
        <time>2022-06-02T08:44:08Z</time>
      </trkpt>
      <trkpt lat="49.42709" lon="-1.23557">
        <ele>13.3</ele>
        <time>2022-06-02T08:44:09Z</time>
      </trkpt>
      <trkpt lat="49.4271" lon="-1.23556">
        <ele>13.1</ele>
        <time>2022-06-02T08:44:11Z</time>
      </trkpt>
      <trkpt lat="49.4271" lon="-1.23554">
        <ele>13</ele>
        <time>2022-06-02T08:44:12Z</time>
      </trkpt>
      <trkpt lat="49.42712" lon="-1.23551">
        <ele>12.7</ele>
        <time>2022-06-02T08:44:13Z</time>
      </trkpt>
      <trkpt lat="49.42712" lon="-1.2355">
        <ele>12.6</ele>
        <time>2022-06-02T08:44:14Z</time>
      </trkpt>
      <trkpt lat="49.42713" lon="-1.23549">
        <ele>12.5</ele>
        <time>2022-06-02T08:44:15Z</time>
      </trkpt>
      <trkpt lat="49.42714" lon="-1.23547">
        <ele>12.4</ele>
        <time>2022-06-02T08:44:16Z</time>
      </trkpt>
      <trkpt lat="49.42715" lon="-1.23545">
        <ele>12.2</ele>
        <time>2022-06-02T08:44:18Z</time>
      </trkpt>
      <trkpt lat="49.42716" lon="-1.23542">
        <ele>12</ele>
        <time>2022-06-02T08:44:19Z</time>
      </trkpt>
      <trkpt lat="49.42716" lon="-1.2354">
        <ele>11.9</ele>
        <time>2022-06-02T08:44:20Z</time>
      </trkpt>
      <trkpt lat="49.42717" lon="-1.23538">
        <ele>11.7</ele>
        <time>2022-06-02T08:44:21Z</time>
      </trkpt>
      <trkpt lat="49.42717" lon="-1.23536">
        <ele>11.6</ele>
        <time>2022-06-02T08:44:22Z</time>
      </trkpt>
      <trkpt lat="49.42718" lon="-1.23533">
        <ele>11.4</ele>
        <time>2022-06-02T08:44:23Z</time>
      </trkpt>
      <trkpt lat="49.42718" lon="-1.23531">
        <ele>11.3</ele>
        <time>2022-06-02T08:44:24Z</time>
      </trkpt>
      <trkpt lat="49.42717" lon="-1.23529">
        <ele>11.1</ele>
        <time>2022-06-02T08:44:25Z</time>
      </trkpt>
      <trkpt lat="49.42717" lon="-1.23527">
        <ele>11</ele>
        <time>2022-06-02T08:44:26Z</time>
      </trkpt>
      <trkpt lat="49.42718" lon="-1.23523">
        <ele>10.8</ele>
        <time>2022-06-02T08:44:28Z</time>
      </trkpt>
      <trkpt lat="49.42718" lon="-1.23521">
        <ele>10.7</ele>
        <time>2022-06-02T08:44:30Z</time>
      </trkpt>
      <trkpt lat="49.42718" lon="-1.23519">
        <ele>10.6</ele>
        <time>2022-06-02T08:44:31Z</time>
      </trkpt>
      <trkpt lat="49.42717" lon="-1.23517">
        <ele>10.5</ele>
        <time>2022-06-02T08:44:32Z</time>
      </trkpt>
      <trkpt lat="49.42717" lon="-1.23515">
        <ele>10.4</ele>
        <time>2022-06-02T08:44:33Z</time>
      </trkpt>
      <trkpt lat="49.42716" lon="-1.23513">
        <ele>10.3</ele>
        <time>2022-06-02T08:44:34Z</time>
      </trkpt>
      <trkpt lat="49.42714" lon="-1.23511">
        <ele>10.2</ele>
        <time>2022-06-02T08:44:35Z</time>
      </trkpt>
      <trkpt lat="49.42713" lon="-1.23511">
        <ele>10.1</ele>
        <time>2022-06-02T08:44:37Z</time>
      </trkpt>
      <trkpt lat="49.42713" lon="-1.2351">
        <ele>10.1</ele>
        <time>2022-06-02T08:44:38Z</time>
      </trkpt>
      <trkpt lat="49.42711" lon="-1.23508">
        <ele>9.9</ele>
        <time>2022-06-02T08:44:39Z</time>
      </trkpt>
      <trkpt lat="49.4271" lon="-1.23507">
        <ele>9.9</ele>
        <time>2022-06-02T08:44:40Z</time>
      </trkpt>
      <trkpt lat="49.42709" lon="-1.23506">
        <ele>9.8</ele>
        <time>2022-06-02T08:44:41Z</time>
      </trkpt>
      <trkpt lat="49.42708" lon="-1.23505">
        <ele>9.7</ele>
        <time>2022-06-02T08:44:42Z</time>
      </trkpt>
      <trkpt lat="49.42707" lon="-1.23504">
        <ele>9.6</ele>
        <time>2022-06-02T08:44:44Z</time>
      </trkpt>
      <trkpt lat="49.42706" lon="-1.23503">
        <ele>9.5</ele>
        <time>2022-06-02T08:44:45Z</time>
      </trkpt>
      <trkpt lat="49.42704" lon="-1.23502">
        <ele>9.4</ele>
        <time>2022-06-02T08:44:46Z</time>
      </trkpt>
      <trkpt lat="49.42703" lon="-1.23501">
        <ele>9.3</ele>
        <time>2022-06-02T08:44:47Z</time>
      </trkpt>
      <trkpt lat="49.42702" lon="-1.235">
        <ele>9.3</ele>
        <time>2022-06-02T08:44:48Z</time>
      </trkpt>
      <trkpt lat="49.42701" lon="-1.23499">
        <ele>9.2</ele>
        <time>2022-06-02T08:44:49Z</time>
      </trkpt>
      <trkpt lat="49.427" lon="-1.23499">
        <ele>9.1</ele>
        <time>2022-06-02T08:44:50Z</time>
      </trkpt>
      <trkpt lat="49.42699" lon="-1.23498">
        <ele>9</ele>
        <time>2022-06-02T08:44:51Z</time>
      </trkpt>
      <trkpt lat="49.42698" lon="-1.23497">
        <ele>9</ele>
        <time>2022-06-02T08:44:52Z</time>
      </trkpt>
      <trkpt lat="49.42697" lon="-1.23496">
        <ele>8.9</ele>
        <time>2022-06-02T08:44:54Z</time>
      </trkpt>
      <trkpt lat="49.42695" lon="-1.23494">
        <ele>8.8</ele>
        <time>2022-06-02T08:44:55Z</time>
      </trkpt>
      <trkpt lat="49.42695" lon="-1.23494">
        <ele>8.7</ele>
        <time>2022-06-02T08:44:56Z</time>
      </trkpt>
      <trkpt lat="49.42694" lon="-1.23492">
        <ele>8.6</ele>
        <time>2022-06-02T08:44:57Z</time>
      </trkpt>
      <trkpt lat="49.42692" lon="-1.2349">
        <ele>8.5</ele>
        <time>2022-06-02T08:44:59Z</time>
      </trkpt>
      <trkpt lat="49.42691" lon="-1.23489">
        <ele>8.4</ele>
        <time>2022-06-02T08:45:00Z</time>
      </trkpt>
      <trkpt lat="49.4269" lon="-1.23488">
        <ele>8.4</ele>
        <time>2022-06-02T08:45:01Z</time>
      </trkpt>
      <trkpt lat="49.42689" lon="-1.23487">
        <ele>8.3</ele>
        <time>2022-06-02T08:45:02Z</time>
      </trkpt>
      <trkpt lat="49.42688" lon="-1.23486">
        <ele>8.2</ele>
        <time>2022-06-02T08:45:03Z</time>
      </trkpt>
      <trkpt lat="49.42687" lon="-1.23484">
        <ele>8.1</ele>
        <time>2022-06-02T08:45:04Z</time>
      </trkpt>
      <trkpt lat="49.42686" lon="-1.23482">
        <ele>8</ele>
        <time>2022-06-02T08:45:05Z</time>
      </trkpt>
      <trkpt lat="49.42686" lon="-1.23482">
        <ele>8</ele>
        <time>2022-06-02T08:45:06Z</time>
      </trkpt>
      <trkpt lat="49.42686" lon="-1.23481">
        <ele>8</ele>
        <time>2022-06-02T08:45:09Z</time>
      </trkpt>
      <trkpt lat="49.42686" lon="-1.23481">
        <ele>7.9</ele>
        <time>2022-06-02T08:45:10Z</time>
      </trkpt>
      <trkpt lat="49.42686" lon="-1.2348">
        <ele>7.9</ele>
        <time>2022-06-02T08:45:11Z</time>
      </trkpt>
      <trkpt lat="49.42686" lon="-1.2348">
        <ele>7.9</ele>
        <time>2022-06-02T08:45:13Z</time>
      </trkpt>
      <trkpt lat="49.42686" lon="-1.23479">
        <ele>7.9</ele>
        <time>2022-06-02T08:45:14Z</time>
      </trkpt>
      <trkpt lat="49.42686" lon="-1.23479">
        <ele>7.9</ele>
        <time>2022-06-02T08:45:15Z</time>
      </trkpt>
      <trkpt lat="49.42686" lon="-1.23478">
        <ele>7.9</ele>
        <time>2022-06-02T08:45:16Z</time>
      </trkpt>
      <trkpt lat="49.42686" lon="-1.23478">
        <ele>7.8</ele>
        <time>2022-06-02T08:45:17Z</time>
      </trkpt>
      <trkpt lat="49.42686" lon="-1.23477">
        <ele>7.8</ele>
        <time>2022-06-02T08:45:18Z</time>
      </trkpt>
      <trkpt lat="49.42686" lon="-1.23477">
        <ele>7.8</ele>
        <time>2022-06-02T08:45:19Z</time>
      </trkpt>
      <trkpt lat="49.42686" lon="-1.23476">
        <ele>7.8</ele>
        <time>2022-06-02T08:45:20Z</time>
      </trkpt>
      <trkpt lat="49.42686" lon="-1.23476">
        <ele>7.8</ele>
        <time>2022-06-02T08:45:21Z</time>
      </trkpt>
      <trkpt lat="49.42686" lon="-1.23475">
        <ele>7.7</ele>
        <time>2022-06-02T08:45:22Z</time>
      </trkpt>
      <trkpt lat="49.42686" lon="-1.23475">
        <ele>7.7</ele>
        <time>2022-06-02T08:45:23Z</time>
      </trkpt>
      <trkpt lat="49.42686" lon="-1.23474">
        <ele>7.7</ele>
        <time>2022-06-02T08:45:24Z</time>
      </trkpt>
      <trkpt lat="49.42686" lon="-1.23474">
        <ele>7.7</ele>
        <time>2022-06-02T08:45:25Z</time>
      </trkpt>
      <trkpt lat="49.42686" lon="-1.23474">
        <ele>7.7</ele>
        <time>2022-06-02T08:45:26Z</time>
      </trkpt>
      <trkpt lat="49.42686" lon="-1.23473">
        <ele>7.7</ele>
        <time>2022-06-02T08:45:27Z</time>
      </trkpt>
      <trkpt lat="49.42686" lon="-1.23473">
        <ele>7.7</ele>
        <time>2022-06-02T08:45:28Z</time>
      </trkpt>
      <trkpt lat="49.42686" lon="-1.23472">
        <ele>7.7</ele>
        <time>2022-06-02T08:45:29Z</time>
      </trkpt>
      <trkpt lat="49.42686" lon="-1.23472">
        <ele>7.6</ele>
        <time>2022-06-02T08:45:31Z</time>
      </trkpt>
      <trkpt lat="49.42686" lon="-1.23471">
        <ele>7.6</ele>
        <time>2022-06-02T08:45:32Z</time>
      </trkpt>
      <trkpt lat="49.42686" lon="-1.23471">
        <ele>7.6</ele>
        <time>2022-06-02T08:45:34Z</time>
      </trkpt>
      <trkpt lat="49.42686" lon="-1.2347">
        <ele>7.6</ele>
        <time>2022-06-02T08:45:35Z</time>
      </trkpt>
      <trkpt lat="49.42686" lon="-1.2347">
        <ele>7.6</ele>
        <time>2022-06-02T08:45:36Z</time>
      </trkpt>
      <trkpt lat="49.42687" lon="-1.23467">
        <ele>7.5</ele>
        <time>2022-06-02T08:45:38Z</time>
      </trkpt>
      <trkpt lat="49.42688" lon="-1.23466">
        <ele>7.5</ele>
        <time>2022-06-02T08:45:39Z</time>
      </trkpt>
      <trkpt lat="49.42688" lon="-1.23465">
        <ele>7.4</ele>
        <time>2022-06-02T08:45:40Z</time>
      </trkpt>
      <trkpt lat="49.42689" lon="-1.23464">
        <ele>7.4</ele>
        <time>2022-06-02T08:45:42Z</time>
      </trkpt>
      <trkpt lat="49.4269" lon="-1.23463">
        <ele>7.3</ele>
        <time>2022-06-02T08:45:43Z</time>
      </trkpt>
      <trkpt lat="49.42691" lon="-1.23462">
        <ele>7.3</ele>
        <time>2022-06-02T08:45:44Z</time>
      </trkpt>
      <trkpt lat="49.42691" lon="-1.23461">
        <ele>7.3</ele>
        <time>2022-06-02T08:45:45Z</time>
      </trkpt>
      <trkpt lat="49.42692" lon="-1.2346">
        <ele>7.2</ele>
        <time>2022-06-02T08:45:46Z</time>
      </trkpt>
      <trkpt lat="49.42692" lon="-1.23459">
        <ele>7.2</ele>
        <time>2022-06-02T08:45:47Z</time>
      </trkpt>
      <trkpt lat="49.42692" lon="-1.23459">
        <ele>7.2</ele>
        <time>2022-06-02T08:45:48Z</time>
      </trkpt>
      <trkpt lat="49.42693" lon="-1.23458">
        <ele>7.2</ele>
        <time>2022-06-02T08:45:49Z</time>
      </trkpt>
      <trkpt lat="49.42693" lon="-1.23458">
        <ele>7.1</ele>
        <time>2022-06-02T08:45:50Z</time>
      </trkpt>
      <trkpt lat="49.42694" lon="-1.23456">
        <ele>7.1</ele>
        <time>2022-06-02T08:45:52Z</time>
      </trkpt>
      <trkpt lat="49.42694" lon="-1.23455">
        <ele>7</ele>
        <time>2022-06-02T08:45:53Z</time>
      </trkpt>
      <trkpt lat="49.42695" lon="-1.23454">
        <ele>7</ele>
        <time>2022-06-02T08:45:54Z</time>
      </trkpt>
      <trkpt lat="49.42748" lon="-1.23295">
        <ele>4.5</ele>
        <time>2022-06-02T08:48:36Z</time>
      </trkpt>
      <trkpt lat="49.42748" lon="-1.23293">
        <ele>4.5</ele>
        <time>2022-06-02T08:48:37Z</time>
      </trkpt>
      <trkpt lat="49.42748" lon="-1.23293">
        <ele>4.5</ele>
        <time>2022-06-02T08:48:39Z</time>
      </trkpt>
      <trkpt lat="49.42748" lon="-1.23293">
        <ele>4.5</ele>
        <time>2022-06-02T08:48:40Z</time>
      </trkpt>
      <trkpt lat="49.42748" lon="-1.23293">
        <ele>4.5</ele>
        <time>2022-06-02T08:48:41Z</time>
      </trkpt>
      <trkpt lat="49.42748" lon="-1.23293">
        <ele>4.5</ele>
        <time>2022-06-02T08:48:42Z</time>
      </trkpt>
      <trkpt lat="49.42748" lon="-1.23293">
        <ele>4.5</ele>
        <time>2022-06-02T08:48:43Z</time>
      </trkpt>
      <trkpt lat="49.42748" lon="-1.23293">
        <ele>4.5</ele>
        <time>2022-06-02T08:48:44Z</time>
      </trkpt>
      <trkpt lat="49.42748" lon="-1.23293">
        <ele>4.5</ele>
        <time>2022-06-02T08:48:45Z</time>
      </trkpt>
      <trkpt lat="49.42748" lon="-1.23293">
        <ele>4.5</ele>
        <time>2022-06-02T08:48:46Z</time>
      </trkpt>
      <trkpt lat="49.42749" lon="-1.23293">
        <ele>4.5</ele>
        <time>2022-06-02T08:48:47Z</time>
      </trkpt>
      <trkpt lat="49.42749" lon="-1.23292">
        <ele>4.5</ele>
        <time>2022-06-02T08:48:48Z</time>
      </trkpt>
      <trkpt lat="49.42749" lon="-1.23292">
        <ele>4.5</ele>
        <time>2022-06-02T08:48:49Z</time>
      </trkpt>
      <trkpt lat="49.42749" lon="-1.23292">
        <ele>4.5</ele>
        <time>2022-06-02T08:48:50Z</time>
      </trkpt>
      <trkpt lat="49.42749" lon="-1.23292">
        <ele>4.5</ele>
        <time>2022-06-02T08:48:51Z</time>
      </trkpt>
      <trkpt lat="49.42749" lon="-1.23292">
        <ele>4.5</ele>
        <time>2022-06-02T08:48:52Z</time>
      </trkpt>
      <trkpt lat="49.42749" lon="-1.23292">
        <ele>4.5</ele>
        <time>2022-06-02T08:48:53Z</time>
      </trkpt>
      <trkpt lat="49.42749" lon="-1.23292">
        <ele>4.5</ele>
        <time>2022-06-02T08:48:54Z</time>
      </trkpt>
      <trkpt lat="49.42749" lon="-1.23292">
        <ele>4.5</ele>
        <time>2022-06-02T08:48:55Z</time>
      </trkpt>
      <trkpt lat="49.42749" lon="-1.23292">
        <ele>4.5</ele>
        <time>2022-06-02T08:48:56Z</time>
      </trkpt>
      <trkpt lat="49.42749" lon="-1.23292">
        <ele>4.5</ele>
        <time>2022-06-02T08:48:57Z</time>
      </trkpt>
      <trkpt lat="49.4275" lon="-1.23292">
        <ele>4.5</ele>
        <time>2022-06-02T08:48:58Z</time>
      </trkpt>
      <trkpt lat="49.4275" lon="-1.23292">
        <ele>4.5</ele>
        <time>2022-06-02T08:48:59Z</time>
      </trkpt>
      <trkpt lat="49.4275" lon="-1.23292">
        <ele>4.5</ele>
        <time>2022-06-02T08:49:00Z</time>
      </trkpt>
      <trkpt lat="49.4275" lon="-1.23292">
        <ele>4.5</ele>
        <time>2022-06-02T08:49:01Z</time>
      </trkpt>
      <trkpt lat="49.4275" lon="-1.23292">
        <ele>4.5</ele>
        <time>2022-06-02T08:49:02Z</time>
      </trkpt>
      <trkpt lat="49.4275" lon="-1.23292">
        <ele>4.5</ele>
        <time>2022-06-02T08:49:03Z</time>
      </trkpt>
      <trkpt lat="49.4275" lon="-1.23292">
        <ele>4.5</ele>
        <time>2022-06-02T08:49:04Z</time>
      </trkpt>
      <trkpt lat="49.4275" lon="-1.23292">
        <ele>4.5</ele>
        <time>2022-06-02T08:49:05Z</time>
      </trkpt>
      <trkpt lat="49.4275" lon="-1.23291">
        <ele>4.5</ele>
        <time>2022-06-02T08:49:07Z</time>
      </trkpt>
      <trkpt lat="49.4275" lon="-1.23291">
        <ele>4.5</ele>
        <time>2022-06-02T08:49:08Z</time>
      </trkpt>
      <trkpt lat="49.42752" lon="-1.23287">
        <ele>4.4</ele>
        <time>2022-06-02T08:49:09Z</time>
      </trkpt>
      <trkpt lat="49.42752" lon="-1.23285">
        <ele>4.4</ele>
        <time>2022-06-02T08:49:10Z</time>
      </trkpt>
      <trkpt lat="49.42753" lon="-1.23281">
        <ele>4.3</ele>
        <time>2022-06-02T08:49:11Z</time>
      </trkpt>
      <trkpt lat="49.42754" lon="-1.2328">
        <ele>4.3</ele>
        <time>2022-06-02T08:49:12Z</time>
      </trkpt>
      <trkpt lat="49.42755" lon="-1.23279">
        <ele>4.3</ele>
        <time>2022-06-02T08:49:13Z</time>
      </trkpt>
      <trkpt lat="49.42756" lon="-1.23277">
        <ele>4.3</ele>
        <time>2022-06-02T08:49:14Z</time>
      </trkpt>
      <trkpt lat="49.42757" lon="-1.23274">
        <ele>4.2</ele>
        <time>2022-06-02T08:49:15Z</time>
      </trkpt>
      <trkpt lat="49.42757" lon="-1.23273">
        <ele>4.2</ele>
        <time>2022-06-02T08:49:16Z</time>
      </trkpt>
      <trkpt lat="49.42758" lon="-1.23272">
        <ele>4.2</ele>
        <time>2022-06-02T08:49:17Z</time>
      </trkpt>
      <trkpt lat="49.42759" lon="-1.2327">
        <ele>4.2</ele>
        <time>2022-06-02T08:49:19Z</time>
      </trkpt>
      <trkpt lat="49.42759" lon="-1.23268">
        <ele>4.2</ele>
        <time>2022-06-02T08:49:20Z</time>
      </trkpt>
      <trkpt lat="49.4276" lon="-1.23265">
        <ele>4.2</ele>
        <time>2022-06-02T08:49:21Z</time>
      </trkpt>
      <trkpt lat="49.4276" lon="-1.23263">
        <ele>4.1</ele>
        <time>2022-06-02T08:49:22Z</time>
      </trkpt>
      <trkpt lat="49.4276" lon="-1.2326">
        <ele>4.1</ele>
        <time>2022-06-02T08:49:23Z</time>
      </trkpt>
      <trkpt lat="49.42761" lon="-1.23258">
        <ele>4.1</ele>
        <time>2022-06-02T08:49:24Z</time>
      </trkpt>
      <trkpt lat="49.42761" lon="-1.23256">
        <ele>4.1</ele>
        <time>2022-06-02T08:49:25Z</time>
      </trkpt>
      <trkpt lat="49.42761" lon="-1.23255">
        <ele>4.1</ele>
        <time>2022-06-02T08:49:26Z</time>
      </trkpt>
      <trkpt lat="49.42762" lon="-1.23253">
        <ele>4.1</ele>
        <time>2022-06-02T08:49:27Z</time>
      </trkpt>
      <trkpt lat="49.42762" lon="-1.23252">
        <ele>4</ele>
        <time>2022-06-02T08:49:28Z</time>
      </trkpt>
      <trkpt lat="49.42763" lon="-1.23251">
        <ele>4</ele>
        <time>2022-06-02T08:49:29Z</time>
      </trkpt>
      <trkpt lat="49.42764" lon="-1.23249">
        <ele>4</ele>
        <time>2022-06-02T08:49:30Z</time>
      </trkpt>
      <trkpt lat="49.42764" lon="-1.23247">
        <ele>4</ele>
        <time>2022-06-02T08:49:31Z</time>
      </trkpt>
      <trkpt lat="49.42765" lon="-1.23245">
        <ele>4</ele>
        <time>2022-06-02T08:49:32Z</time>
      </trkpt>
      <trkpt lat="49.42766" lon="-1.23242">
        <ele>4</ele>
        <time>2022-06-02T08:49:33Z</time>
      </trkpt>
      <trkpt lat="49.42766" lon="-1.23241">
        <ele>4</ele>
        <time>2022-06-02T08:49:34Z</time>
      </trkpt>
      <trkpt lat="49.42767" lon="-1.2324">
        <ele>3.9</ele>
        <time>2022-06-02T08:49:35Z</time>
      </trkpt>
      <trkpt lat="49.42768" lon="-1.23236">
        <ele>3.9</ele>
        <time>2022-06-02T08:49:36Z</time>
      </trkpt>
      <trkpt lat="49.42768" lon="-1.23234">
        <ele>3.9</ele>
        <time>2022-06-02T08:49:38Z</time>
      </trkpt>
      <trkpt lat="49.42769" lon="-1.23233">
        <ele>3.9</ele>
        <time>2022-06-02T08:49:39Z</time>
      </trkpt>
      <trkpt lat="49.42769" lon="-1.23231">
        <ele>3.9</ele>
        <time>2022-06-02T08:49:40Z</time>
      </trkpt>
      <trkpt lat="49.42769" lon="-1.2323">
        <ele>3.9</ele>
        <time>2022-06-02T08:49:41Z</time>
      </trkpt>
      <trkpt lat="49.42769" lon="-1.23228">
        <ele>3.9</ele>
        <time>2022-06-02T08:49:42Z</time>
      </trkpt>
      <trkpt lat="49.42769" lon="-1.23225">
        <ele>3.9</ele>
        <time>2022-06-02T08:49:44Z</time>
      </trkpt>
      <trkpt lat="49.42768" lon="-1.23224">
        <ele>3.9</ele>
        <time>2022-06-02T08:49:45Z</time>
      </trkpt>
      <trkpt lat="49.42767" lon="-1.23223">
        <ele>3.8</ele>
        <time>2022-06-02T08:49:46Z</time>
      </trkpt>
      <trkpt lat="49.42767" lon="-1.23223">
        <ele>3.8</ele>
        <time>2022-06-02T08:49:47Z</time>
      </trkpt>
      <trkpt lat="49.42767" lon="-1.23223">
        <ele>3.8</ele>
        <time>2022-06-02T08:49:48Z</time>
      </trkpt>
      <trkpt lat="49.42767" lon="-1.23222">
        <ele>3.8</ele>
        <time>2022-06-02T08:49:49Z</time>
      </trkpt>
      <trkpt lat="49.42767" lon="-1.23222">
        <ele>3.8</ele>
        <time>2022-06-02T08:49:50Z</time>
      </trkpt>
      <trkpt lat="49.42767" lon="-1.23223">
        <ele>3.8</ele>
        <time>2022-06-02T08:49:51Z</time>
      </trkpt>
      <trkpt lat="49.42767" lon="-1.23224">
        <ele>3.8</ele>
        <time>2022-06-02T08:49:52Z</time>
      </trkpt>
      <trkpt lat="49.42767" lon="-1.23223">
        <ele>3.8</ele>
        <time>2022-06-02T08:49:53Z</time>
      </trkpt>
      <trkpt lat="49.42768" lon="-1.23223">
        <ele>3.8</ele>
        <time>2022-06-02T08:49:54Z</time>
      </trkpt>
      <trkpt lat="49.42768" lon="-1.23222">
        <ele>3.8</ele>
        <time>2022-06-02T08:49:55Z</time>
      </trkpt>
      <trkpt lat="49.42769" lon="-1.23221">
        <ele>3.8</ele>
        <time>2022-06-02T08:49:56Z</time>
      </trkpt>
      <trkpt lat="49.42769" lon="-1.23221">
        <ele>3.8</ele>
        <time>2022-06-02T08:49:57Z</time>
      </trkpt>
      <trkpt lat="49.4277" lon="-1.23219">
        <ele>3.8</ele>
        <time>2022-06-02T08:49:59Z</time>
      </trkpt>
      <trkpt lat="49.42771" lon="-1.23218">
        <ele>3.8</ele>
        <time>2022-06-02T08:50:00Z</time>
      </trkpt>
      <trkpt lat="49.42773" lon="-1.23216">
        <ele>3.8</ele>
        <time>2022-06-02T08:50:01Z</time>
      </trkpt>
      <trkpt lat="49.42774" lon="-1.23215">
        <ele>3.8</ele>
        <time>2022-06-02T08:50:02Z</time>
      </trkpt>
      <trkpt lat="49.42774" lon="-1.23214">
        <ele>3.8</ele>
        <time>2022-06-02T08:50:03Z</time>
      </trkpt>
      <trkpt lat="49.42775" lon="-1.23213">
        <ele>3.7</ele>
        <time>2022-06-02T08:50:04Z</time>
      </trkpt>
      <trkpt lat="49.42776" lon="-1.23212">
        <ele>3.7</ele>
        <time>2022-06-02T08:50:05Z</time>
      </trkpt>
      <trkpt lat="49.42778" lon="-1.2321">
        <ele>3.7</ele>
        <time>2022-06-02T08:50:06Z</time>
      </trkpt>
      <trkpt lat="49.42779" lon="-1.23209">
        <ele>3.7</ele>
        <time>2022-06-02T08:50:07Z</time>
      </trkpt>
      <trkpt lat="49.4278" lon="-1.23208">
        <ele>3.7</ele>
        <time>2022-06-02T08:50:08Z</time>
      </trkpt>
      <trkpt lat="49.42781" lon="-1.23206">
        <ele>3.7</ele>
        <time>2022-06-02T08:50:09Z</time>
      </trkpt>
      <trkpt lat="49.42782" lon="-1.23204">
        <ele>3.7</ele>
        <time>2022-06-02T08:50:10Z</time>
      </trkpt>
      <trkpt lat="49.42783" lon="-1.23202">
        <ele>3.6</ele>
        <time>2022-06-02T08:50:11Z</time>
      </trkpt>
      <trkpt lat="49.42784" lon="-1.232">
        <ele>3.6</ele>
        <time>2022-06-02T08:50:13Z</time>
      </trkpt>
      <trkpt lat="49.42785" lon="-1.23198">
        <ele>3.6</ele>
        <time>2022-06-02T08:50:14Z</time>
      </trkpt>
      <trkpt lat="49.42786" lon="-1.23196">
        <ele>3.6</ele>
        <time>2022-06-02T08:50:15Z</time>
      </trkpt>
      <trkpt lat="49.42787" lon="-1.23195">
        <ele>3.6</ele>
        <time>2022-06-02T08:50:16Z</time>
      </trkpt>
      <trkpt lat="49.42788" lon="-1.23194">
        <ele>3.5</ele>
        <time>2022-06-02T08:50:17Z</time>
      </trkpt>
      <trkpt lat="49.42789" lon="-1.23192">
        <ele>3.5</ele>
        <time>2022-06-02T08:50:18Z</time>
      </trkpt>
      <trkpt lat="49.42791" lon="-1.2319">
        <ele>3.5</ele>
        <time>2022-06-02T08:50:19Z</time>
      </trkpt>
      <trkpt lat="49.42791" lon="-1.23189">
        <ele>3.5</ele>
        <time>2022-06-02T08:50:20Z</time>
      </trkpt>
      <trkpt lat="49.42792" lon="-1.23188">
        <ele>3.5</ele>
        <time>2022-06-02T08:50:21Z</time>
      </trkpt>
      <trkpt lat="49.42792" lon="-1.23186">
        <ele>3.5</ele>
        <time>2022-06-02T08:50:23Z</time>
      </trkpt>
      <trkpt lat="49.42791" lon="-1.23185">
        <ele>3.4</ele>
        <time>2022-06-02T08:50:24Z</time>
      </trkpt>
      <trkpt lat="49.42791" lon="-1.23183">
        <ele>3.4</ele>
        <time>2022-06-02T08:50:25Z</time>
      </trkpt>
      <trkpt lat="49.42791" lon="-1.23182">
        <ele>3.4</ele>
        <time>2022-06-02T08:50:26Z</time>
      </trkpt>
      <trkpt lat="49.42791" lon="-1.23181">
        <ele>3.4</ele>
        <time>2022-06-02T08:50:27Z</time>
      </trkpt>
      <trkpt lat="49.42791" lon="-1.23181">
        <ele>3.4</ele>
        <time>2022-06-02T08:50:28Z</time>
      </trkpt>
      <trkpt lat="49.42791" lon="-1.23181">
        <ele>3.4</ele>
        <time>2022-06-02T08:50:29Z</time>
      </trkpt>
      <trkpt lat="49.42791" lon="-1.23181">
        <ele>3.4</ele>
        <time>2022-06-02T08:50:30Z</time>
      </trkpt>
      <trkpt lat="49.4279" lon="-1.23181">
        <ele>3.4</ele>
        <time>2022-06-02T08:50:31Z</time>
      </trkpt>
      <trkpt lat="49.4279" lon="-1.23181">
        <ele>3.3</ele>
        <time>2022-06-02T08:50:33Z</time>
      </trkpt>
      <trkpt lat="49.42789" lon="-1.23181">
        <ele>3.3</ele>
        <time>2022-06-02T08:50:34Z</time>
      </trkpt>
      <trkpt lat="49.42789" lon="-1.23181">
        <ele>3.3</ele>
        <time>2022-06-02T08:50:35Z</time>
      </trkpt>
      <trkpt lat="49.42788" lon="-1.23182">
        <ele>3.3</ele>
        <time>2022-06-02T08:50:36Z</time>
      </trkpt>
      <trkpt lat="49.42788" lon="-1.23182">
        <ele>3.3</ele>
        <time>2022-06-02T08:50:38Z</time>
      </trkpt>
      <trkpt lat="49.42788" lon="-1.23183">
        <ele>3.3</ele>
        <time>2022-06-02T08:50:40Z</time>
      </trkpt>
      <trkpt lat="49.42789" lon="-1.23183">
        <ele>3.3</ele>
        <time>2022-06-02T08:50:41Z</time>
      </trkpt>
      <trkpt lat="49.42789" lon="-1.23183">
        <ele>3.3</ele>
        <time>2022-06-02T08:50:42Z</time>
      </trkpt>
      <trkpt lat="49.42789" lon="-1.23184">
        <ele>3.3</ele>
        <time>2022-06-02T08:50:43Z</time>
      </trkpt>
      <trkpt lat="49.42789" lon="-1.23185">
        <ele>3.2</ele>
        <time>2022-06-02T08:50:45Z</time>
      </trkpt>
      <trkpt lat="49.42789" lon="-1.23185">
        <ele>3.2</ele>
        <time>2022-06-02T08:50:46Z</time>
      </trkpt>
      <trkpt lat="49.42789" lon="-1.23187">
        <ele>3.2</ele>
        <time>2022-06-02T08:50:48Z</time>
      </trkpt>
      <trkpt lat="49.42789" lon="-1.23188">
        <ele>3.2</ele>
        <time>2022-06-02T08:50:49Z</time>
      </trkpt>
      <trkpt lat="49.42789" lon="-1.23189">
        <ele>3.2</ele>
        <time>2022-06-02T08:50:50Z</time>
      </trkpt>
      <trkpt lat="49.4279" lon="-1.23191">
        <ele>3.2</ele>
        <time>2022-06-02T08:50:51Z</time>
      </trkpt>
      <trkpt lat="49.4279" lon="-1.23193">
        <ele>3.1</ele>
        <time>2022-06-02T08:50:53Z</time>
      </trkpt>
      <trkpt lat="49.42789" lon="-1.23194">
        <ele>3.1</ele>
        <time>2022-06-02T08:50:54Z</time>
      </trkpt>
      <trkpt lat="49.42789" lon="-1.23195">
        <ele>3.1</ele>
        <time>2022-06-02T08:50:55Z</time>
      </trkpt>
      <trkpt lat="49.42789" lon="-1.23196">
        <ele>3.1</ele>
        <time>2022-06-02T08:50:56Z</time>
      </trkpt>
      <trkpt lat="49.42788" lon="-1.23197">
        <ele>3.1</ele>
        <time>2022-06-02T08:50:58Z</time>
      </trkpt>
      <trkpt lat="49.42788" lon="-1.23198">
        <ele>3.1</ele>
        <time>2022-06-02T08:50:59Z</time>
      </trkpt>
      <trkpt lat="49.42788" lon="-1.23199">
        <ele>3.1</ele>
        <time>2022-06-02T08:51:00Z</time>
      </trkpt>
      <trkpt lat="49.42789" lon="-1.232">
        <ele>3.1</ele>
        <time>2022-06-02T08:51:01Z</time>
      </trkpt>
      <trkpt lat="49.4279" lon="-1.232">
        <ele>3</ele>
        <time>2022-06-02T08:51:02Z</time>
      </trkpt>
      <trkpt lat="49.42791" lon="-1.23199">
        <ele>3</ele>
        <time>2022-06-02T08:51:04Z</time>
      </trkpt>
      <trkpt lat="49.42791" lon="-1.23199">
        <ele>3</ele>
        <time>2022-06-02T08:51:05Z</time>
      </trkpt>
      <trkpt lat="49.42792" lon="-1.232">
        <ele>3</ele>
        <time>2022-06-02T08:51:06Z</time>
      </trkpt>
      <trkpt lat="49.42792" lon="-1.232">
        <ele>3</ele>
        <time>2022-06-02T08:51:07Z</time>
      </trkpt>
      <trkpt lat="49.42793" lon="-1.23201">
        <ele>3</ele>
        <time>2022-06-02T08:51:08Z</time>
      </trkpt>
      <trkpt lat="49.42793" lon="-1.23201">
        <ele>3</ele>
        <time>2022-06-02T08:51:10Z</time>
      </trkpt>
      <trkpt lat="49.42793" lon="-1.23202">
        <ele>3</ele>
        <time>2022-06-02T08:51:11Z</time>
      </trkpt>
      <trkpt lat="49.42793" lon="-1.23203">
        <ele>3</ele>
        <time>2022-06-02T08:51:12Z</time>
      </trkpt>
      <trkpt lat="49.42793" lon="-1.23203">
        <ele>3</ele>
        <time>2022-06-02T08:51:13Z</time>
      </trkpt>
      <trkpt lat="49.42793" lon="-1.23203">
        <ele>3</ele>
        <time>2022-06-02T08:51:15Z</time>
      </trkpt>
      <trkpt lat="49.42793" lon="-1.23203">
        <ele>3</ele>
        <time>2022-06-02T08:51:16Z</time>
      </trkpt>
      <trkpt lat="49.42793" lon="-1.23204">
        <ele>3</ele>
        <time>2022-06-02T08:51:17Z</time>
      </trkpt>
      <trkpt lat="49.42793" lon="-1.23204">
        <ele>3</ele>
        <time>2022-06-02T08:51:18Z</time>
      </trkpt>
      <trkpt lat="49.42793" lon="-1.23203">
        <ele>3</ele>
        <time>2022-06-02T08:51:19Z</time>
      </trkpt>
      <trkpt lat="49.42793" lon="-1.23203">
        <ele>2.9</ele>
        <time>2022-06-02T08:51:20Z</time>
      </trkpt>
      <trkpt lat="49.42792" lon="-1.23203">
        <ele>2.9</ele>
        <time>2022-06-02T08:51:21Z</time>
      </trkpt>
      <trkpt lat="49.42792" lon="-1.23203">
        <ele>2.9</ele>
        <time>2022-06-02T08:51:23Z</time>
      </trkpt>
      <trkpt lat="49.42792" lon="-1.23203">
        <ele>2.9</ele>
        <time>2022-06-02T08:51:24Z</time>
      </trkpt>
      <trkpt lat="49.42792" lon="-1.23203">
        <ele>2.9</ele>
        <time>2022-06-02T08:51:25Z</time>
      </trkpt>
      <trkpt lat="49.42792" lon="-1.23203">
        <ele>2.9</ele>
        <time>2022-06-02T08:51:26Z</time>
      </trkpt>
      <trkpt lat="49.42792" lon="-1.23203">
        <ele>2.9</ele>
        <time>2022-06-02T08:51:27Z</time>
      </trkpt>
      <trkpt lat="49.42793" lon="-1.23203">
        <ele>2.9</ele>
        <time>2022-06-02T08:51:28Z</time>
      </trkpt>
      <trkpt lat="49.42793" lon="-1.23204">
        <ele>2.9</ele>
        <time>2022-06-02T08:51:30Z</time>
      </trkpt>
      <trkpt lat="49.42793" lon="-1.23204">
        <ele>2.9</ele>
        <time>2022-06-02T08:51:31Z</time>
      </trkpt>
      <trkpt lat="49.42793" lon="-1.23205">
        <ele>2.9</ele>
        <time>2022-06-02T08:51:32Z</time>
      </trkpt>
      <trkpt lat="49.42793" lon="-1.23205">
        <ele>2.9</ele>
        <time>2022-06-02T08:51:33Z</time>
      </trkpt>
      <trkpt lat="49.42793" lon="-1.23205">
        <ele>2.9</ele>
        <time>2022-06-02T08:51:35Z</time>
      </trkpt>
      <trkpt lat="49.42793" lon="-1.23205">
        <ele>2.9</ele>
        <time>2022-06-02T08:51:36Z</time>
      </trkpt>
      <trkpt lat="49.42792" lon="-1.23205">
        <ele>2.9</ele>
        <time>2022-06-02T08:51:37Z</time>
      </trkpt>
      <trkpt lat="49.42792" lon="-1.23205">
        <ele>2.9</ele>
        <time>2022-06-02T08:51:39Z</time>
      </trkpt>
      <trkpt lat="49.42792" lon="-1.23205">
        <ele>2.9</ele>
        <time>2022-06-02T08:51:40Z</time>
      </trkpt>
      <trkpt lat="49.42792" lon="-1.23205">
        <ele>2.9</ele>
        <time>2022-06-02T08:51:41Z</time>
      </trkpt>
      <trkpt lat="49.42792" lon="-1.23205">
        <ele>2.9</ele>
        <time>2022-06-02T08:51:42Z</time>
      </trkpt>
      <trkpt lat="49.42792" lon="-1.23205">
        <ele>2.9</ele>
        <time>2022-06-02T08:51:43Z</time>
      </trkpt>
      <trkpt lat="49.42792" lon="-1.23205">
        <ele>2.9</ele>
        <time>2022-06-02T08:51:45Z</time>
      </trkpt>
      <trkpt lat="49.42792" lon="-1.23205">
        <ele>2.9</ele>
        <time>2022-06-02T08:51:46Z</time>
      </trkpt>
      <trkpt lat="49.42792" lon="-1.23205">
        <ele>2.9</ele>
        <time>2022-06-02T08:51:47Z</time>
      </trkpt>
      <trkpt lat="49.42792" lon="-1.23205">
        <ele>2.9</ele>
        <time>2022-06-02T08:51:48Z</time>
      </trkpt>
      <trkpt lat="49.42792" lon="-1.23205">
        <ele>2.9</ele>
        <time>2022-06-02T08:51:49Z</time>
      </trkpt>
      <trkpt lat="49.42792" lon="-1.23205">
        <ele>2.9</ele>
        <time>2022-06-02T08:51:50Z</time>
      </trkpt>
      <trkpt lat="49.42792" lon="-1.23205">
        <ele>2.9</ele>
        <time>2022-06-02T08:51:51Z</time>
      </trkpt>
      <trkpt lat="49.42791" lon="-1.23204">
        <ele>2.9</ele>
        <time>2022-06-02T08:51:52Z</time>
      </trkpt>
      <trkpt lat="49.42791" lon="-1.23204">
        <ele>2.9</ele>
        <time>2022-06-02T08:51:53Z</time>
      </trkpt>
      <trkpt lat="49.42791" lon="-1.23204">
        <ele>2.9</ele>
        <time>2022-06-02T08:51:54Z</time>
      </trkpt>
      <trkpt lat="49.42791" lon="-1.23204">
        <ele>2.9</ele>
        <time>2022-06-02T08:51:55Z</time>
      </trkpt>
      <trkpt lat="49.42791" lon="-1.23204">
        <ele>2.9</ele>
        <time>2022-06-02T08:51:56Z</time>
      </trkpt>
      <trkpt lat="49.42791" lon="-1.23204">
        <ele>2.9</ele>
        <time>2022-06-02T08:51:57Z</time>
      </trkpt>
      <trkpt lat="49.42792" lon="-1.23205">
        <ele>2.9</ele>
        <time>2022-06-02T08:51:58Z</time>
      </trkpt>
      <trkpt lat="49.42792" lon="-1.23206">
        <ele>2.9</ele>
        <time>2022-06-02T08:51:59Z</time>
      </trkpt>
      <trkpt lat="49.42793" lon="-1.23207">
        <ele>2.8</ele>
        <time>2022-06-02T08:52:00Z</time>
      </trkpt>
      <trkpt lat="49.42793" lon="-1.23207">
        <ele>2.8</ele>
        <time>2022-06-02T08:52:01Z</time>
      </trkpt>
      <trkpt lat="49.42794" lon="-1.23208">
        <ele>2.8</ele>
        <time>2022-06-02T08:52:03Z</time>
      </trkpt>
      <trkpt lat="49.42795" lon="-1.23209">
        <ele>2.8</ele>
        <time>2022-06-02T08:52:04Z</time>
      </trkpt>
      <trkpt lat="49.42795" lon="-1.2321">
        <ele>2.8</ele>
        <time>2022-06-02T08:52:05Z</time>
      </trkpt>
      <trkpt lat="49.42796" lon="-1.2321">
        <ele>2.8</ele>
        <time>2022-06-02T08:52:06Z</time>
      </trkpt>
      <trkpt lat="49.42797" lon="-1.23211">
        <ele>2.8</ele>
        <time>2022-06-02T08:52:07Z</time>
      </trkpt>
      <trkpt lat="49.42798" lon="-1.23213">
        <ele>2.8</ele>
        <time>2022-06-02T08:52:08Z</time>
      </trkpt>
      <trkpt lat="49.42799" lon="-1.23214">
        <ele>2.7</ele>
        <time>2022-06-02T08:52:09Z</time>
      </trkpt>
      <trkpt lat="49.428" lon="-1.23215">
        <ele>2.7</ele>
        <time>2022-06-02T08:52:11Z</time>
      </trkpt>
      <trkpt lat="49.42801" lon="-1.23216">
        <ele>2.7</ele>
        <time>2022-06-02T08:52:12Z</time>
      </trkpt>
      <trkpt lat="49.42802" lon="-1.23217">
        <ele>2.7</ele>
        <time>2022-06-02T08:52:13Z</time>
      </trkpt>
      <trkpt lat="49.42803" lon="-1.23219">
        <ele>2.7</ele>
        <time>2022-06-02T08:52:14Z</time>
      </trkpt>
      <trkpt lat="49.42805" lon="-1.23222">
        <ele>2.7</ele>
        <time>2022-06-02T08:52:15Z</time>
      </trkpt>
      <trkpt lat="49.42806" lon="-1.23222">
        <ele>2.7</ele>
        <time>2022-06-02T08:52:16Z</time>
      </trkpt>
      <trkpt lat="49.42808" lon="-1.23224">
        <ele>2.6</ele>
        <time>2022-06-02T08:52:17Z</time>
      </trkpt>
      <trkpt lat="49.42808" lon="-1.23225">
        <ele>2.6</ele>
        <time>2022-06-02T08:52:19Z</time>
      </trkpt>
      <trkpt lat="49.42809" lon="-1.23226">
        <ele>2.6</ele>
        <time>2022-06-02T08:52:20Z</time>
      </trkpt>
      <trkpt lat="49.4281" lon="-1.23227">
        <ele>2.6</ele>
        <time>2022-06-02T08:52:22Z</time>
      </trkpt>
      <trkpt lat="49.4281" lon="-1.23228">
        <ele>2.6</ele>
        <time>2022-06-02T08:52:23Z</time>
      </trkpt>
      <trkpt lat="49.42811" lon="-1.23229">
        <ele>2.6</ele>
        <time>2022-06-02T08:52:24Z</time>
      </trkpt>
      <trkpt lat="49.42811" lon="-1.2323">
        <ele>2.6</ele>
        <time>2022-06-02T08:52:25Z</time>
      </trkpt>
      <trkpt lat="49.42812" lon="-1.23232">
        <ele>2.6</ele>
        <time>2022-06-02T08:52:26Z</time>
      </trkpt>
      <trkpt lat="49.42813" lon="-1.23233">
        <ele>2.6</ele>
        <time>2022-06-02T08:52:27Z</time>
      </trkpt>
      <trkpt lat="49.42814" lon="-1.23234">
        <ele>2.6</ele>
        <time>2022-06-02T08:52:28Z</time>
      </trkpt>
      <trkpt lat="49.42816" lon="-1.23236">
        <ele>2.6</ele>
        <time>2022-06-02T08:52:29Z</time>
      </trkpt>
      <trkpt lat="49.42817" lon="-1.23237">
        <ele>2.6</ele>
        <time>2022-06-02T08:52:30Z</time>
      </trkpt>
      <trkpt lat="49.42818" lon="-1.23239">
        <ele>2.6</ele>
        <time>2022-06-02T08:52:31Z</time>
      </trkpt>
      <trkpt lat="49.4282" lon="-1.23241">
        <ele>2.6</ele>
        <time>2022-06-02T08:52:32Z</time>
      </trkpt>
      <trkpt lat="49.42821" lon="-1.23241">
        <ele>2.6</ele>
        <time>2022-06-02T08:52:33Z</time>
      </trkpt>
      <trkpt lat="49.42822" lon="-1.23242">
        <ele>2.6</ele>
        <time>2022-06-02T08:52:34Z</time>
      </trkpt>
      <trkpt lat="49.42822" lon="-1.23243">
        <ele>2.6</ele>
        <time>2022-06-02T08:52:35Z</time>
      </trkpt>
      <trkpt lat="49.42823" lon="-1.23244">
        <ele>2.6</ele>
        <time>2022-06-02T08:52:36Z</time>
      </trkpt>
      <trkpt lat="49.42822" lon="-1.23243">
        <ele>2.6</ele>
        <time>2022-06-02T08:52:37Z</time>
      </trkpt>
      <trkpt lat="49.42822" lon="-1.23243">
        <ele>2.6</ele>
        <time>2022-06-02T08:52:38Z</time>
      </trkpt>
      <trkpt lat="49.42822" lon="-1.23242">
        <ele>2.6</ele>
        <time>2022-06-02T08:52:39Z</time>
      </trkpt>
      <trkpt lat="49.42822" lon="-1.23242">
        <ele>2.6</ele>
        <time>2022-06-02T08:52:40Z</time>
      </trkpt>
      <trkpt lat="49.42822" lon="-1.23242">
        <ele>2.6</ele>
        <time>2022-06-02T08:52:41Z</time>
      </trkpt>
      <trkpt lat="49.42821" lon="-1.23242">
        <ele>2.6</ele>
        <time>2022-06-02T08:52:42Z</time>
      </trkpt>
      <trkpt lat="49.42821" lon="-1.23242">
        <ele>2.6</ele>
        <time>2022-06-02T08:52:43Z</time>
      </trkpt>
      <trkpt lat="49.42821" lon="-1.23242">
        <ele>2.6</ele>
        <time>2022-06-02T08:52:44Z</time>
      </trkpt>
      <trkpt lat="49.42821" lon="-1.23242">
        <ele>2.6</ele>
        <time>2022-06-02T08:52:45Z</time>
      </trkpt>
      <trkpt lat="49.42821" lon="-1.23242">
        <ele>2.6</ele>
        <time>2022-06-02T08:52:46Z</time>
      </trkpt>
      <trkpt lat="49.42821" lon="-1.23242">
        <ele>2.6</ele>
        <time>2022-06-02T08:52:47Z</time>
      </trkpt>
      <trkpt lat="49.42821" lon="-1.23242">
        <ele>2.6</ele>
        <time>2022-06-02T08:52:48Z</time>
      </trkpt>
      <trkpt lat="49.42821" lon="-1.23242">
        <ele>2.6</ele>
        <time>2022-06-02T08:52:49Z</time>
      </trkpt>
      <trkpt lat="49.42821" lon="-1.23242">
        <ele>2.6</ele>
        <time>2022-06-02T08:52:50Z</time>
      </trkpt>
      <trkpt lat="49.42821" lon="-1.23243">
        <ele>2.6</ele>
        <time>2022-06-02T08:52:51Z</time>
      </trkpt>
      <trkpt lat="49.42821" lon="-1.23244">
        <ele>2.6</ele>
        <time>2022-06-02T08:52:52Z</time>
      </trkpt>
      <trkpt lat="49.42822" lon="-1.23245">
        <ele>2.6</ele>
        <time>2022-06-02T08:52:53Z</time>
      </trkpt>
      <trkpt lat="49.42823" lon="-1.23247">
        <ele>2.6</ele>
        <time>2022-06-02T08:52:54Z</time>
      </trkpt>
      <trkpt lat="49.42826" lon="-1.23249">
        <ele>2.5</ele>
        <time>2022-06-02T08:52:55Z</time>
      </trkpt>
      <trkpt lat="49.42826" lon="-1.23249">
        <ele>2.5</ele>
        <time>2022-06-02T08:52:56Z</time>
      </trkpt>
      <trkpt lat="49.42828" lon="-1.2325">
        <ele>2.5</ele>
        <time>2022-06-02T08:52:58Z</time>
      </trkpt>
      <trkpt lat="49.42829" lon="-1.23251">
        <ele>2.5</ele>
        <time>2022-06-02T08:52:59Z</time>
      </trkpt>
      <trkpt lat="49.42831" lon="-1.23251">
        <ele>2.5</ele>
        <time>2022-06-02T08:53:00Z</time>
      </trkpt>
      <trkpt lat="49.42832" lon="-1.23251">
        <ele>2.5</ele>
        <time>2022-06-02T08:53:01Z</time>
      </trkpt>
      <trkpt lat="49.42834" lon="-1.2325">
        <ele>2.5</ele>
        <time>2022-06-02T08:53:02Z</time>
      </trkpt>
      <trkpt lat="49.42835" lon="-1.2325">
        <ele>2.5</ele>
        <time>2022-06-02T08:53:03Z</time>
      </trkpt>
      <trkpt lat="49.42836" lon="-1.2325">
        <ele>2.5</ele>
        <time>2022-06-02T08:53:04Z</time>
      </trkpt>
      <trkpt lat="49.42837" lon="-1.2325">
        <ele>2.5</ele>
        <time>2022-06-02T08:53:05Z</time>
      </trkpt>
      <trkpt lat="49.42838" lon="-1.2325">
        <ele>2.5</ele>
        <time>2022-06-02T08:53:06Z</time>
      </trkpt>
      <trkpt lat="49.42839" lon="-1.23249">
        <ele>2.5</ele>
        <time>2022-06-02T08:53:07Z</time>
      </trkpt>
      <trkpt lat="49.4284" lon="-1.23248">
        <ele>2.5</ele>
        <time>2022-06-02T08:53:08Z</time>
      </trkpt>
      <trkpt lat="49.42841" lon="-1.23247">
        <ele>2.5</ele>
        <time>2022-06-02T08:53:09Z</time>
      </trkpt>
      <trkpt lat="49.42842" lon="-1.23246">
        <ele>2.5</ele>
        <time>2022-06-02T08:53:11Z</time>
      </trkpt>
      <trkpt lat="49.42844" lon="-1.23243">
        <ele>2.5</ele>
        <time>2022-06-02T08:53:12Z</time>
      </trkpt>
      <trkpt lat="49.42844" lon="-1.23242">
        <ele>2.5</ele>
        <time>2022-06-02T08:53:13Z</time>
      </trkpt>
      <trkpt lat="49.42845" lon="-1.23241">
        <ele>2.5</ele>
        <time>2022-06-02T08:53:14Z</time>
      </trkpt>
      <trkpt lat="49.42847" lon="-1.23238">
        <ele>2.4</ele>
        <time>2022-06-02T08:53:15Z</time>
      </trkpt>
      <trkpt lat="49.42847" lon="-1.23237">
        <ele>2.4</ele>
        <time>2022-06-02T08:53:16Z</time>
      </trkpt>
      <trkpt lat="49.42848" lon="-1.23235">
        <ele>2.4</ele>
        <time>2022-06-02T08:53:17Z</time>
      </trkpt>
      <trkpt lat="49.42849" lon="-1.23233">
        <ele>2.4</ele>
        <time>2022-06-02T08:53:18Z</time>
      </trkpt>
      <trkpt lat="49.4285" lon="-1.23231">
        <ele>2.4</ele>
        <time>2022-06-02T08:53:19Z</time>
      </trkpt>
      <trkpt lat="49.42851" lon="-1.23229">
        <ele>2.4</ele>
        <time>2022-06-02T08:53:20Z</time>
      </trkpt>
      <trkpt lat="49.42852" lon="-1.23227">
        <ele>2.4</ele>
        <time>2022-06-02T08:53:21Z</time>
      </trkpt>
      <trkpt lat="49.42852" lon="-1.23226">
        <ele>2.4</ele>
        <time>2022-06-02T08:53:22Z</time>
      </trkpt>
      <trkpt lat="49.42853" lon="-1.23224">
        <ele>2.4</ele>
        <time>2022-06-02T08:53:24Z</time>
      </trkpt>
      <trkpt lat="49.42854" lon="-1.23222">
        <ele>2.4</ele>
        <time>2022-06-02T08:53:25Z</time>
      </trkpt>
      <trkpt lat="49.42855" lon="-1.2322">
        <ele>2.3</ele>
        <time>2022-06-02T08:53:26Z</time>
      </trkpt>
      <trkpt lat="49.42856" lon="-1.23217">
        <ele>2.3</ele>
        <time>2022-06-02T08:53:27Z</time>
      </trkpt>
      <trkpt lat="49.42857" lon="-1.23216">
        <ele>2.3</ele>
        <time>2022-06-02T08:53:28Z</time>
      </trkpt>
      <trkpt lat="49.42857" lon="-1.23215">
        <ele>2.3</ele>
        <time>2022-06-02T08:53:29Z</time>
      </trkpt>
      <trkpt lat="49.42858" lon="-1.23212">
        <ele>2.3</ele>
        <time>2022-06-02T08:53:30Z</time>
      </trkpt>
      <trkpt lat="49.42859" lon="-1.23211">
        <ele>2.3</ele>
        <time>2022-06-02T08:53:32Z</time>
      </trkpt>
      <trkpt lat="49.42859" lon="-1.23209">
        <ele>2.3</ele>
        <time>2022-06-02T08:53:33Z</time>
      </trkpt>
      <trkpt lat="49.4286" lon="-1.23208">
        <ele>2.3</ele>
        <time>2022-06-02T08:53:34Z</time>
      </trkpt>
      <trkpt lat="49.42861" lon="-1.23207">
        <ele>2.3</ele>
        <time>2022-06-02T08:53:35Z</time>
      </trkpt>
      <trkpt lat="49.42862" lon="-1.23205">
        <ele>2.2</ele>
        <time>2022-06-02T08:53:36Z</time>
      </trkpt>
      <trkpt lat="49.42862" lon="-1.23204">
        <ele>2.2</ele>
        <time>2022-06-02T08:53:37Z</time>
      </trkpt>
      <trkpt lat="49.42863" lon="-1.23204">
        <ele>2.2</ele>
        <time>2022-06-02T08:53:38Z</time>
      </trkpt>
      <trkpt lat="49.42863" lon="-1.23202">
        <ele>2.2</ele>
        <time>2022-06-02T08:53:39Z</time>
      </trkpt>
      <trkpt lat="49.42864" lon="-1.232">
        <ele>2.2</ele>
        <time>2022-06-02T08:53:40Z</time>
      </trkpt>
      <trkpt lat="49.42865" lon="-1.23199">
        <ele>2.2</ele>
        <time>2022-06-02T08:53:42Z</time>
      </trkpt>
      <trkpt lat="49.42866" lon="-1.23197">
        <ele>2.2</ele>
        <time>2022-06-02T08:53:43Z</time>
      </trkpt>
      <trkpt lat="49.42867" lon="-1.23196">
        <ele>2.2</ele>
        <time>2022-06-02T08:53:44Z</time>
      </trkpt>
      <trkpt lat="49.42867" lon="-1.23194">
        <ele>2.2</ele>
        <time>2022-06-02T08:53:45Z</time>
      </trkpt>
      <trkpt lat="49.42868" lon="-1.23192">
        <ele>2.2</ele>
        <time>2022-06-02T08:53:46Z</time>
      </trkpt>
      <trkpt lat="49.42869" lon="-1.2319">
        <ele>2.1</ele>
        <time>2022-06-02T08:53:47Z</time>
      </trkpt>
      <trkpt lat="49.4287" lon="-1.23188">
        <ele>2.1</ele>
        <time>2022-06-02T08:53:48Z</time>
      </trkpt>
      <trkpt lat="49.4287" lon="-1.23186">
        <ele>2.1</ele>
        <time>2022-06-02T08:53:49Z</time>
      </trkpt>
      <trkpt lat="49.42871" lon="-1.23184">
        <ele>2.1</ele>
        <time>2022-06-02T08:53:51Z</time>
      </trkpt>
      <trkpt lat="49.42872" lon="-1.23182">
        <ele>2.1</ele>
        <time>2022-06-02T08:53:52Z</time>
      </trkpt>
      <trkpt lat="49.42873" lon="-1.23181">
        <ele>2.1</ele>
        <time>2022-06-02T08:53:53Z</time>
      </trkpt>
      <trkpt lat="49.42873" lon="-1.2318">
        <ele>2.1</ele>
        <time>2022-06-02T08:53:54Z</time>
      </trkpt>
      <trkpt lat="49.42874" lon="-1.23177">
        <ele>2.1</ele>
        <time>2022-06-02T08:53:55Z</time>
      </trkpt>
      <trkpt lat="49.42875" lon="-1.23176">
        <ele>2.1</ele>
        <time>2022-06-02T08:53:56Z</time>
      </trkpt>
      <trkpt lat="49.42876" lon="-1.23175">
        <ele>2.1</ele>
        <time>2022-06-02T08:53:57Z</time>
      </trkpt>
      <trkpt lat="49.42876" lon="-1.23173">
        <ele>2.1</ele>
        <time>2022-06-02T08:53:58Z</time>
      </trkpt>
      <trkpt lat="49.42877" lon="-1.23171">
        <ele>2.1</ele>
        <time>2022-06-02T08:53:59Z</time>
      </trkpt>
      <trkpt lat="49.42878" lon="-1.2317">
        <ele>2.1</ele>
        <time>2022-06-02T08:54:00Z</time>
      </trkpt>
      <trkpt lat="49.42878" lon="-1.23168">
        <ele>2.1</ele>
        <time>2022-06-02T08:54:01Z</time>
      </trkpt>
      <trkpt lat="49.4288" lon="-1.23165">
        <ele>2.1</ele>
        <time>2022-06-02T08:54:02Z</time>
      </trkpt>
      <trkpt lat="49.4288" lon="-1.23164">
        <ele>2.1</ele>
        <time>2022-06-02T08:54:03Z</time>
      </trkpt>
      <trkpt lat="49.42881" lon="-1.23163">
        <ele>2.1</ele>
        <time>2022-06-02T08:54:04Z</time>
      </trkpt>
      <trkpt lat="49.42882" lon="-1.2316">
        <ele>2.2</ele>
        <time>2022-06-02T08:54:05Z</time>
      </trkpt>
      <trkpt lat="49.42882" lon="-1.23159">
        <ele>2.2</ele>
        <time>2022-06-02T08:54:06Z</time>
      </trkpt>
      <trkpt lat="49.42883" lon="-1.23158">
        <ele>2.2</ele>
        <time>2022-06-02T08:54:07Z</time>
      </trkpt>
      <trkpt lat="49.42884" lon="-1.23155">
        <ele>2.2</ele>
        <time>2022-06-02T08:54:08Z</time>
      </trkpt>
      <trkpt lat="49.42884" lon="-1.23154">
        <ele>2.2</ele>
        <time>2022-06-02T08:54:10Z</time>
      </trkpt>
      <trkpt lat="49.42885" lon="-1.23152">
        <ele>2.2</ele>
        <time>2022-06-02T08:54:11Z</time>
      </trkpt>
      <trkpt lat="49.42885" lon="-1.23151">
        <ele>2.2</ele>
        <time>2022-06-02T08:54:12Z</time>
      </trkpt>
      <trkpt lat="49.42885" lon="-1.2315">
        <ele>2.2</ele>
        <time>2022-06-02T08:54:13Z</time>
      </trkpt>
      <trkpt lat="49.42886" lon="-1.23148">
        <ele>2.2</ele>
        <time>2022-06-02T08:54:14Z</time>
      </trkpt>
      <trkpt lat="49.42886" lon="-1.23146">
        <ele>2.2</ele>
        <time>2022-06-02T08:54:15Z</time>
      </trkpt>
      <trkpt lat="49.42887" lon="-1.23144">
        <ele>2.2</ele>
        <time>2022-06-02T08:54:16Z</time>
      </trkpt>
      <trkpt lat="49.42888" lon="-1.23144">
        <ele>2.2</ele>
        <time>2022-06-02T08:54:17Z</time>
      </trkpt>
      <trkpt lat="49.42888" lon="-1.23142">
        <ele>2.2</ele>
        <time>2022-06-02T08:54:18Z</time>
      </trkpt>
      <trkpt lat="49.42889" lon="-1.23141">
        <ele>2.2</ele>
        <time>2022-06-02T08:54:19Z</time>
      </trkpt>
      <trkpt lat="49.42889" lon="-1.23139">
        <ele>2.2</ele>
        <time>2022-06-02T08:54:20Z</time>
      </trkpt>
      <trkpt lat="49.4289" lon="-1.23137">
        <ele>2.2</ele>
        <time>2022-06-02T08:54:21Z</time>
      </trkpt>
      <trkpt lat="49.42891" lon="-1.23135">
        <ele>2.2</ele>
        <time>2022-06-02T08:54:22Z</time>
      </trkpt>
      <trkpt lat="49.42892" lon="-1.23133">
        <ele>2.1</ele>
        <time>2022-06-02T08:54:23Z</time>
      </trkpt>
      <trkpt lat="49.42892" lon="-1.23131">
        <ele>2.1</ele>
        <time>2022-06-02T08:54:24Z</time>
      </trkpt>
      <trkpt lat="49.42893" lon="-1.23128">
        <ele>2.1</ele>
        <time>2022-06-02T08:54:25Z</time>
      </trkpt>
      <trkpt lat="49.42894" lon="-1.23127">
        <ele>2.1</ele>
        <time>2022-06-02T08:54:26Z</time>
      </trkpt>
      <trkpt lat="49.42895" lon="-1.23125">
        <ele>2.1</ele>
        <time>2022-06-02T08:54:27Z</time>
      </trkpt>
      <trkpt lat="49.42896" lon="-1.23124">
        <ele>2.1</ele>
        <time>2022-06-02T08:54:28Z</time>
      </trkpt>
      <trkpt lat="49.42896" lon="-1.23122">
        <ele>2.1</ele>
        <time>2022-06-02T08:54:30Z</time>
      </trkpt>
      <trkpt lat="49.42897" lon="-1.2312">
        <ele>2.1</ele>
        <time>2022-06-02T08:54:31Z</time>
      </trkpt>
      <trkpt lat="49.42897" lon="-1.23119">
        <ele>2.1</ele>
        <time>2022-06-02T08:54:32Z</time>
      </trkpt>
      <trkpt lat="49.42898" lon="-1.23117">
        <ele>2</ele>
        <time>2022-06-02T08:54:33Z</time>
      </trkpt>
      <trkpt lat="49.42898" lon="-1.23115">
        <ele>2</ele>
        <time>2022-06-02T08:54:34Z</time>
      </trkpt>
      <trkpt lat="49.42899" lon="-1.23114">
        <ele>2</ele>
        <time>2022-06-02T08:54:35Z</time>
      </trkpt>
      <trkpt lat="49.429" lon="-1.23112">
        <ele>2</ele>
        <time>2022-06-02T08:54:36Z</time>
      </trkpt>
      <trkpt lat="49.429" lon="-1.23111">
        <ele>2</ele>
        <time>2022-06-02T08:54:37Z</time>
      </trkpt>
      <trkpt lat="49.429" lon="-1.2311">
        <ele>2</ele>
        <time>2022-06-02T08:54:38Z</time>
      </trkpt>
      <trkpt lat="49.42902" lon="-1.23107">
        <ele>1.9</ele>
        <time>2022-06-02T08:54:39Z</time>
      </trkpt>
      <trkpt lat="49.42902" lon="-1.23106">
        <ele>1.9</ele>
        <time>2022-06-02T08:54:40Z</time>
      </trkpt>
      <trkpt lat="49.42903" lon="-1.23105">
        <ele>1.9</ele>
        <time>2022-06-02T08:54:41Z</time>
      </trkpt>
      <trkpt lat="49.42904" lon="-1.23102">
        <ele>1.9</ele>
        <time>2022-06-02T08:54:42Z</time>
      </trkpt>
      <trkpt lat="49.42904" lon="-1.23101">
        <ele>1.9</ele>
        <time>2022-06-02T08:54:43Z</time>
      </trkpt>
      <trkpt lat="49.42905" lon="-1.231">
        <ele>1.9</ele>
        <time>2022-06-02T08:54:44Z</time>
      </trkpt>
      <trkpt lat="49.42906" lon="-1.23097">
        <ele>1.8</ele>
        <time>2022-06-02T08:54:45Z</time>
      </trkpt>
      <trkpt lat="49.42907" lon="-1.23096">
        <ele>1.8</ele>
        <time>2022-06-02T08:54:46Z</time>
      </trkpt>
      <trkpt lat="49.42908" lon="-1.23095">
        <ele>1.8</ele>
        <time>2022-06-02T08:54:47Z</time>
      </trkpt>
      <trkpt lat="49.42908" lon="-1.23094">
        <ele>1.8</ele>
        <time>2022-06-02T08:54:48Z</time>
      </trkpt>
      <trkpt lat="49.42909" lon="-1.23092">
        <ele>1.8</ele>
        <time>2022-06-02T08:54:49Z</time>
      </trkpt>
      <trkpt lat="49.4291" lon="-1.23089">
        <ele>1.8</ele>
        <time>2022-06-02T08:54:50Z</time>
      </trkpt>
      <trkpt lat="49.4291" lon="-1.23088">
        <ele>1.8</ele>
        <time>2022-06-02T08:54:51Z</time>
      </trkpt>
      <trkpt lat="49.42911" lon="-1.23086">
        <ele>1.8</ele>
        <time>2022-06-02T08:54:53Z</time>
      </trkpt>
      <trkpt lat="49.42912" lon="-1.23085">
        <ele>1.8</ele>
        <time>2022-06-02T08:54:54Z</time>
      </trkpt>
      <trkpt lat="49.42913" lon="-1.23084">
        <ele>1.8</ele>
        <time>2022-06-02T08:54:55Z</time>
      </trkpt>
      <trkpt lat="49.42914" lon="-1.23082">
        <ele>1.8</ele>
        <time>2022-06-02T08:54:56Z</time>
      </trkpt>
      <trkpt lat="49.42915" lon="-1.23084">
        <ele>1.8</ele>
        <time>2022-06-02T08:54:57Z</time>
      </trkpt>
      <trkpt lat="49.42917" lon="-1.23085">
        <ele>1.8</ele>
        <time>2022-06-02T08:54:59Z</time>
      </trkpt>
      <trkpt lat="49.42918" lon="-1.23088">
        <ele>1.8</ele>
        <time>2022-06-02T08:55:01Z</time>
      </trkpt>
      <trkpt lat="49.42918" lon="-1.23089">
        <ele>1.8</ele>
        <time>2022-06-02T08:55:02Z</time>
      </trkpt>
      <trkpt lat="49.42918" lon="-1.2309">
        <ele>1.8</ele>
        <time>2022-06-02T08:55:03Z</time>
      </trkpt>
      <trkpt lat="49.42918" lon="-1.23091">
        <ele>1.8</ele>
        <time>2022-06-02T08:55:04Z</time>
      </trkpt>
      <trkpt lat="49.42918" lon="-1.23091">
        <ele>1.8</ele>
        <time>2022-06-02T08:55:05Z</time>
      </trkpt>
      <trkpt lat="49.42918" lon="-1.23092">
        <ele>1.8</ele>
        <time>2022-06-02T08:55:06Z</time>
      </trkpt>
      <trkpt lat="49.42918" lon="-1.23092">
        <ele>1.8</ele>
        <time>2022-06-02T08:55:07Z</time>
      </trkpt>
      <trkpt lat="49.42918" lon="-1.23092">
        <ele>1.8</ele>
        <time>2022-06-02T08:55:08Z</time>
      </trkpt>
      <trkpt lat="49.42918" lon="-1.23092">
        <ele>1.8</ele>
        <time>2022-06-02T08:55:09Z</time>
      </trkpt>
      <trkpt lat="49.42918" lon="-1.23092">
        <ele>1.8</ele>
        <time>2022-06-02T08:55:10Z</time>
      </trkpt>
      <trkpt lat="49.42918" lon="-1.23092">
        <ele>1.8</ele>
        <time>2022-06-02T08:55:11Z</time>
      </trkpt>
      <trkpt lat="49.42918" lon="-1.23092">
        <ele>1.8</ele>
        <time>2022-06-02T08:55:12Z</time>
      </trkpt>
      <trkpt lat="49.42918" lon="-1.23092">
        <ele>1.8</ele>
        <time>2022-06-02T08:55:13Z</time>
      </trkpt>
      <trkpt lat="49.42918" lon="-1.23092">
        <ele>1.8</ele>
        <time>2022-06-02T08:55:14Z</time>
      </trkpt>
      <trkpt lat="49.42918" lon="-1.23092">
        <ele>1.8</ele>
        <time>2022-06-02T08:55:15Z</time>
      </trkpt>
      <trkpt lat="49.42917" lon="-1.23092">
        <ele>1.8</ele>
        <time>2022-06-02T08:55:16Z</time>
      </trkpt>
      <trkpt lat="49.42918" lon="-1.23092">
        <ele>1.8</ele>
        <time>2022-06-02T08:55:17Z</time>
      </trkpt>
      <trkpt lat="49.42918" lon="-1.23092">
        <ele>1.8</ele>
        <time>2022-06-02T08:55:18Z</time>
      </trkpt>
      <trkpt lat="49.42917" lon="-1.23092">
        <ele>1.8</ele>
        <time>2022-06-02T08:55:19Z</time>
      </trkpt>
      <trkpt lat="49.42917" lon="-1.23092">
        <ele>1.8</ele>
        <time>2022-06-02T08:55:20Z</time>
      </trkpt>
      <trkpt lat="49.42917" lon="-1.23092">
        <ele>1.8</ele>
        <time>2022-06-02T08:55:21Z</time>
      </trkpt>
      <trkpt lat="49.42917" lon="-1.23092">
        <ele>1.8</ele>
        <time>2022-06-02T08:55:22Z</time>
      </trkpt>
      <trkpt lat="49.42917" lon="-1.23092">
        <ele>1.8</ele>
        <time>2022-06-02T08:55:23Z</time>
      </trkpt>
      <trkpt lat="49.42917" lon="-1.23091">
        <ele>1.8</ele>
        <time>2022-06-02T08:55:24Z</time>
      </trkpt>
      <trkpt lat="49.42917" lon="-1.23091">
        <ele>1.8</ele>
        <time>2022-06-02T08:55:25Z</time>
      </trkpt>
      <trkpt lat="49.42917" lon="-1.23091">
        <ele>1.8</ele>
        <time>2022-06-02T08:55:26Z</time>
      </trkpt>
      <trkpt lat="49.42917" lon="-1.23091">
        <ele>1.8</ele>
        <time>2022-06-02T08:55:27Z</time>
      </trkpt>
      <trkpt lat="49.42917" lon="-1.23091">
        <ele>1.8</ele>
        <time>2022-06-02T08:55:28Z</time>
      </trkpt>
      <trkpt lat="49.42917" lon="-1.23091">
        <ele>1.8</ele>
        <time>2022-06-02T08:55:29Z</time>
      </trkpt>
      <trkpt lat="49.42917" lon="-1.23091">
        <ele>1.8</ele>
        <time>2022-06-02T08:55:30Z</time>
      </trkpt>
      <trkpt lat="49.42917" lon="-1.23091">
        <ele>1.8</ele>
        <time>2022-06-02T08:55:31Z</time>
      </trkpt>
      <trkpt lat="49.42917" lon="-1.23091">
        <ele>1.8</ele>
        <time>2022-06-02T08:55:32Z</time>
      </trkpt>
      <trkpt lat="49.42917" lon="-1.23091">
        <ele>1.8</ele>
        <time>2022-06-02T08:55:33Z</time>
      </trkpt>
      <trkpt lat="49.42915" lon="-1.23089">
        <ele>1.7</ele>
        <time>2022-06-02T08:55:34Z</time>
      </trkpt>
      <trkpt lat="49.42914" lon="-1.23086">
        <ele>1.7</ele>
        <time>2022-06-02T08:55:35Z</time>
      </trkpt>
      <trkpt lat="49.42914" lon="-1.23085">
        <ele>1.7</ele>
        <time>2022-06-02T08:55:36Z</time>
      </trkpt>
      <trkpt lat="49.42914" lon="-1.23084">
        <ele>1.7</ele>
        <time>2022-06-02T08:55:37Z</time>
      </trkpt>
      <trkpt lat="49.42914" lon="-1.23083">
        <ele>1.7</ele>
        <time>2022-06-02T08:55:38Z</time>
      </trkpt>
      <trkpt lat="49.42914" lon="-1.23082">
        <ele>1.7</ele>
        <time>2022-06-02T08:55:39Z</time>
      </trkpt>
      <trkpt lat="49.42915" lon="-1.23081">
        <ele>1.7</ele>
        <time>2022-06-02T08:55:40Z</time>
      </trkpt>
      <trkpt lat="49.42915" lon="-1.2308">
        <ele>1.7</ele>
        <time>2022-06-02T08:55:41Z</time>
      </trkpt>
      <trkpt lat="49.42916" lon="-1.23079">
        <ele>1.7</ele>
        <time>2022-06-02T08:55:42Z</time>
      </trkpt>
      <trkpt lat="49.42916" lon="-1.23078">
        <ele>1.7</ele>
        <time>2022-06-02T08:55:43Z</time>
      </trkpt>
      <trkpt lat="49.42917" lon="-1.23076">
        <ele>1.7</ele>
        <time>2022-06-02T08:55:44Z</time>
      </trkpt>
      <trkpt lat="49.42918" lon="-1.23073">
        <ele>1.7</ele>
        <time>2022-06-02T08:55:46Z</time>
      </trkpt>
      <trkpt lat="49.42919" lon="-1.23072">
        <ele>1.7</ele>
        <time>2022-06-02T08:55:47Z</time>
      </trkpt>
      <trkpt lat="49.42919" lon="-1.23071">
        <ele>1.7</ele>
        <time>2022-06-02T08:55:48Z</time>
      </trkpt>
      <trkpt lat="49.4292" lon="-1.2307">
        <ele>1.7</ele>
        <time>2022-06-02T08:55:49Z</time>
      </trkpt>
      <trkpt lat="49.42921" lon="-1.23068">
        <ele>1.7</ele>
        <time>2022-06-02T08:55:50Z</time>
      </trkpt>
      <trkpt lat="49.42922" lon="-1.23066">
        <ele>1.7</ele>
        <time>2022-06-02T08:55:52Z</time>
      </trkpt>
      <trkpt lat="49.42923" lon="-1.23063">
        <ele>1.7</ele>
        <time>2022-06-02T08:55:53Z</time>
      </trkpt>
      <trkpt lat="49.42923" lon="-1.23062">
        <ele>1.7</ele>
        <time>2022-06-02T08:55:54Z</time>
      </trkpt>
      <trkpt lat="49.42924" lon="-1.23061">
        <ele>1.7</ele>
        <time>2022-06-02T08:55:55Z</time>
      </trkpt>
      <trkpt lat="49.42925" lon="-1.23059">
        <ele>1.6</ele>
        <time>2022-06-02T08:55:56Z</time>
      </trkpt>
      <trkpt lat="49.42926" lon="-1.23057">
        <ele>1.6</ele>
        <time>2022-06-02T08:55:57Z</time>
      </trkpt>
      <trkpt lat="49.42926" lon="-1.23056">
        <ele>1.6</ele>
        <time>2022-06-02T08:55:58Z</time>
      </trkpt>
      <trkpt lat="49.42926" lon="-1.23054">
        <ele>1.6</ele>
        <time>2022-06-02T08:56:00Z</time>
      </trkpt>
      <trkpt lat="49.42926" lon="-1.23054">
        <ele>1.6</ele>
        <time>2022-06-02T08:56:01Z</time>
      </trkpt>
      <trkpt lat="49.42926" lon="-1.23054">
        <ele>1.6</ele>
        <time>2022-06-02T08:56:02Z</time>
      </trkpt>
      <trkpt lat="49.42925" lon="-1.23054">
        <ele>1.6</ele>
        <time>2022-06-02T08:56:03Z</time>
      </trkpt>
      <trkpt lat="49.42925" lon="-1.23054">
        <ele>1.6</ele>
        <time>2022-06-02T08:56:04Z</time>
      </trkpt>
      <trkpt lat="49.42925" lon="-1.23054">
        <ele>1.6</ele>
        <time>2022-06-02T08:56:05Z</time>
      </trkpt>
      <trkpt lat="49.42925" lon="-1.23054">
        <ele>1.6</ele>
        <time>2022-06-02T08:56:06Z</time>
      </trkpt>
      <trkpt lat="49.42925" lon="-1.23054">
        <ele>1.6</ele>
        <time>2022-06-02T08:56:07Z</time>
      </trkpt>
      <trkpt lat="49.42925" lon="-1.23054">
        <ele>1.6</ele>
        <time>2022-06-02T08:56:08Z</time>
      </trkpt>
      <trkpt lat="49.42925" lon="-1.23054">
        <ele>1.6</ele>
        <time>2022-06-02T08:56:09Z</time>
      </trkpt>
      <trkpt lat="49.42925" lon="-1.23054">
        <ele>1.6</ele>
        <time>2022-06-02T08:56:10Z</time>
      </trkpt>
      <trkpt lat="49.42925" lon="-1.23054">
        <ele>1.6</ele>
        <time>2022-06-02T08:56:11Z</time>
      </trkpt>
      <trkpt lat="49.42925" lon="-1.23054">
        <ele>1.6</ele>
        <time>2022-06-02T08:56:12Z</time>
      </trkpt>
      <trkpt lat="49.42925" lon="-1.23054">
        <ele>1.6</ele>
        <time>2022-06-02T08:56:13Z</time>
      </trkpt>
      <trkpt lat="49.42925" lon="-1.23054">
        <ele>1.6</ele>
        <time>2022-06-02T08:56:14Z</time>
      </trkpt>
      <trkpt lat="49.42925" lon="-1.23053">
        <ele>1.6</ele>
        <time>2022-06-02T08:56:15Z</time>
      </trkpt>
      <trkpt lat="49.42925" lon="-1.23053">
        <ele>1.6</ele>
        <time>2022-06-02T08:56:16Z</time>
      </trkpt>
      <trkpt lat="49.42925" lon="-1.23053">
        <ele>1.6</ele>
        <time>2022-06-02T08:56:17Z</time>
      </trkpt>
      <trkpt lat="49.42925" lon="-1.23053">
        <ele>1.6</ele>
        <time>2022-06-02T08:56:18Z</time>
      </trkpt>
      <trkpt lat="49.42925" lon="-1.23053">
        <ele>1.6</ele>
        <time>2022-06-02T08:56:19Z</time>
      </trkpt>
      <trkpt lat="49.42925" lon="-1.23053">
        <ele>1.6</ele>
        <time>2022-06-02T08:56:20Z</time>
      </trkpt>
      <trkpt lat="49.42925" lon="-1.23053">
        <ele>1.6</ele>
        <time>2022-06-02T08:56:22Z</time>
      </trkpt>
      <trkpt lat="49.42925" lon="-1.23053">
        <ele>1.6</ele>
        <time>2022-06-02T08:56:23Z</time>
      </trkpt>
      <trkpt lat="49.42925" lon="-1.23053">
        <ele>1.6</ele>
        <time>2022-06-02T08:56:24Z</time>
      </trkpt>
      <trkpt lat="49.42925" lon="-1.23053">
        <ele>1.6</ele>
        <time>2022-06-02T08:56:25Z</time>
      </trkpt>
      <trkpt lat="49.42925" lon="-1.23053">
        <ele>1.6</ele>
        <time>2022-06-02T08:56:26Z</time>
      </trkpt>
      <trkpt lat="49.42925" lon="-1.23053">
        <ele>1.6</ele>
        <time>2022-06-02T08:56:27Z</time>
      </trkpt>
      <trkpt lat="49.42925" lon="-1.23053">
        <ele>1.6</ele>
        <time>2022-06-02T08:56:28Z</time>
      </trkpt>
      <trkpt lat="49.42925" lon="-1.23053">
        <ele>1.6</ele>
        <time>2022-06-02T08:56:29Z</time>
      </trkpt>
      <trkpt lat="49.42925" lon="-1.23053">
        <ele>1.6</ele>
        <time>2022-06-02T08:56:30Z</time>
      </trkpt>
      <trkpt lat="49.42925" lon="-1.23053">
        <ele>1.6</ele>
        <time>2022-06-02T08:56:31Z</time>
      </trkpt>
      <trkpt lat="49.42925" lon="-1.23053">
        <ele>1.6</ele>
        <time>2022-06-02T08:56:32Z</time>
      </trkpt>
      <trkpt lat="49.42925" lon="-1.23053">
        <ele>1.6</ele>
        <time>2022-06-02T08:56:33Z</time>
      </trkpt>
      <trkpt lat="49.42925" lon="-1.23053">
        <ele>1.6</ele>
        <time>2022-06-02T08:56:34Z</time>
      </trkpt>
      <trkpt lat="49.42925" lon="-1.23053">
        <ele>1.6</ele>
        <time>2022-06-02T08:56:35Z</time>
      </trkpt>
      <trkpt lat="49.42925" lon="-1.23053">
        <ele>1.6</ele>
        <time>2022-06-02T08:56:36Z</time>
      </trkpt>
      <trkpt lat="49.42925" lon="-1.23053">
        <ele>1.6</ele>
        <time>2022-06-02T08:56:37Z</time>
      </trkpt>
      <trkpt lat="49.42925" lon="-1.23053">
        <ele>1.6</ele>
        <time>2022-06-02T08:56:38Z</time>
      </trkpt>
      <trkpt lat="49.42925" lon="-1.23053">
        <ele>1.6</ele>
        <time>2022-06-02T08:56:39Z</time>
      </trkpt>
      <trkpt lat="49.42925" lon="-1.23053">
        <ele>1.6</ele>
        <time>2022-06-02T08:56:40Z</time>
      </trkpt>
      <trkpt lat="49.42925" lon="-1.23053">
        <ele>1.6</ele>
        <time>2022-06-02T08:56:41Z</time>
      </trkpt>
      <trkpt lat="49.42925" lon="-1.23053">
        <ele>1.6</ele>
        <time>2022-06-02T08:56:42Z</time>
      </trkpt>
      <trkpt lat="49.42925" lon="-1.23053">
        <ele>1.6</ele>
        <time>2022-06-02T08:56:43Z</time>
      </trkpt>
      <trkpt lat="49.42925" lon="-1.23053">
        <ele>1.6</ele>
        <time>2022-06-02T08:56:44Z</time>
      </trkpt>
      <trkpt lat="49.42925" lon="-1.23053">
        <ele>1.6</ele>
        <time>2022-06-02T08:56:45Z</time>
      </trkpt>
      <trkpt lat="49.42925" lon="-1.23053">
        <ele>1.6</ele>
        <time>2022-06-02T08:56:46Z</time>
      </trkpt>
      <trkpt lat="49.42925" lon="-1.23053">
        <ele>1.6</ele>
        <time>2022-06-02T08:56:47Z</time>
      </trkpt>
      <trkpt lat="49.42925" lon="-1.23053">
        <ele>1.6</ele>
        <time>2022-06-02T08:56:48Z</time>
      </trkpt>
      <trkpt lat="49.42925" lon="-1.23053">
        <ele>1.6</ele>
        <time>2022-06-02T08:56:49Z</time>
      </trkpt>
      <trkpt lat="49.42925" lon="-1.23053">
        <ele>1.6</ele>
        <time>2022-06-02T08:56:50Z</time>
      </trkpt>
      <trkpt lat="49.42925" lon="-1.23053">
        <ele>1.6</ele>
        <time>2022-06-02T08:56:51Z</time>
      </trkpt>
      <trkpt lat="49.42925" lon="-1.23053">
        <ele>1.6</ele>
        <time>2022-06-02T08:56:52Z</time>
      </trkpt>
      <trkpt lat="49.42924" lon="-1.23052">
        <ele>1.6</ele>
        <time>2022-06-02T08:56:53Z</time>
      </trkpt>
      <trkpt lat="49.42923" lon="-1.2305">
        <ele>1.6</ele>
        <time>2022-06-02T08:56:54Z</time>
      </trkpt>
      <trkpt lat="49.42923" lon="-1.23048">
        <ele>1.6</ele>
        <time>2022-06-02T08:56:55Z</time>
      </trkpt>
      <trkpt lat="49.42923" lon="-1.23047">
        <ele>1.6</ele>
        <time>2022-06-02T08:56:56Z</time>
      </trkpt>
      <trkpt lat="49.42924" lon="-1.23047">
        <ele>1.6</ele>
        <time>2022-06-02T08:56:57Z</time>
      </trkpt>
      <trkpt lat="49.42924" lon="-1.23046">
        <ele>1.6</ele>
        <time>2022-06-02T08:56:58Z</time>
      </trkpt>
      <trkpt lat="49.42924" lon="-1.23046">
        <ele>1.6</ele>
        <time>2022-06-02T08:56:59Z</time>
      </trkpt>
      <trkpt lat="49.42924" lon="-1.23045">
        <ele>1.6</ele>
        <time>2022-06-02T08:57:01Z</time>
      </trkpt>
      <trkpt lat="49.42925" lon="-1.23045">
        <ele>1.6</ele>
        <time>2022-06-02T08:57:02Z</time>
      </trkpt>
      <trkpt lat="49.42925" lon="-1.23044">
        <ele>1.6</ele>
        <time>2022-06-02T08:57:03Z</time>
      </trkpt>
      <trkpt lat="49.42926" lon="-1.23042">
        <ele>1.6</ele>
        <time>2022-06-02T08:57:04Z</time>
      </trkpt>
      <trkpt lat="49.42927" lon="-1.23041">
        <ele>1.6</ele>
        <time>2022-06-02T08:57:05Z</time>
      </trkpt>
      <trkpt lat="49.42928" lon="-1.2304">
        <ele>1.6</ele>
        <time>2022-06-02T08:57:06Z</time>
      </trkpt>
      <trkpt lat="49.42929" lon="-1.23039">
        <ele>1.6</ele>
        <time>2022-06-02T08:57:07Z</time>
      </trkpt>
      <trkpt lat="49.4293" lon="-1.23037">
        <ele>1.6</ele>
        <time>2022-06-02T08:57:08Z</time>
      </trkpt>
      <trkpt lat="49.42931" lon="-1.23035">
        <ele>1.6</ele>
        <time>2022-06-02T08:57:09Z</time>
      </trkpt>
      <trkpt lat="49.42933" lon="-1.23032">
        <ele>1.6</ele>
        <time>2022-06-02T08:57:10Z</time>
      </trkpt>
      <trkpt lat="49.42933" lon="-1.2303">
        <ele>1.6</ele>
        <time>2022-06-02T08:57:12Z</time>
      </trkpt>
      <trkpt lat="49.42934" lon="-1.23029">
        <ele>1.6</ele>
        <time>2022-06-02T08:57:13Z</time>
      </trkpt>
      <trkpt lat="49.42935" lon="-1.23027">
        <ele>1.6</ele>
        <time>2022-06-02T08:57:14Z</time>
      </trkpt>
      <trkpt lat="49.42936" lon="-1.23026">
        <ele>1.6</ele>
        <time>2022-06-02T08:57:15Z</time>
      </trkpt>
      <trkpt lat="49.42937" lon="-1.23023">
        <ele>1.6</ele>
        <time>2022-06-02T08:57:16Z</time>
      </trkpt>
      <trkpt lat="49.42937" lon="-1.23022">
        <ele>1.6</ele>
        <time>2022-06-02T08:57:18Z</time>
      </trkpt>
      <trkpt lat="49.42937" lon="-1.23021">
        <ele>1.6</ele>
        <time>2022-06-02T08:57:19Z</time>
      </trkpt>
      <trkpt lat="49.42938" lon="-1.23019">
        <ele>1.5</ele>
        <time>2022-06-02T08:57:20Z</time>
      </trkpt>
      <trkpt lat="49.42939" lon="-1.23018">
        <ele>1.5</ele>
        <time>2022-06-02T08:57:21Z</time>
      </trkpt>
      <trkpt lat="49.42939" lon="-1.23017">
        <ele>1.5</ele>
        <time>2022-06-02T08:57:22Z</time>
      </trkpt>
      <trkpt lat="49.4294" lon="-1.23016">
        <ele>1.5</ele>
        <time>2022-06-02T08:57:23Z</time>
      </trkpt>
      <trkpt lat="49.4294" lon="-1.23015">
        <ele>1.5</ele>
        <time>2022-06-02T08:57:24Z</time>
      </trkpt>
      <trkpt lat="49.42941" lon="-1.23013">
        <ele>1.5</ele>
        <time>2022-06-02T08:57:25Z</time>
      </trkpt>
      <trkpt lat="49.42942" lon="-1.23012">
        <ele>1.5</ele>
        <time>2022-06-02T08:57:26Z</time>
      </trkpt>
      <trkpt lat="49.42942" lon="-1.23012">
        <ele>1.5</ele>
        <time>2022-06-02T08:57:27Z</time>
      </trkpt>
      <trkpt lat="49.42942" lon="-1.23011">
        <ele>1.5</ele>
        <time>2022-06-02T08:57:28Z</time>
      </trkpt>
      <trkpt lat="49.42942" lon="-1.23011">
        <ele>1.5</ele>
        <time>2022-06-02T08:57:29Z</time>
      </trkpt>
      <trkpt lat="49.42942" lon="-1.23011">
        <ele>1.5</ele>
        <time>2022-06-02T08:57:30Z</time>
      </trkpt>
      <trkpt lat="49.42943" lon="-1.23011">
        <ele>1.5</ele>
        <time>2022-06-02T08:57:31Z</time>
      </trkpt>
      <trkpt lat="49.42943" lon="-1.2301">
        <ele>1.5</ele>
        <time>2022-06-02T08:57:32Z</time>
      </trkpt>
      <trkpt lat="49.42943" lon="-1.2301">
        <ele>1.5</ele>
        <time>2022-06-02T08:57:33Z</time>
      </trkpt>
      <trkpt lat="49.42943" lon="-1.2301">
        <ele>1.5</ele>
        <time>2022-06-02T08:57:34Z</time>
      </trkpt>
      <trkpt lat="49.42943" lon="-1.2301">
        <ele>1.5</ele>
        <time>2022-06-02T08:57:35Z</time>
      </trkpt>
      <trkpt lat="49.42944" lon="-1.23009">
        <ele>1.5</ele>
        <time>2022-06-02T08:57:36Z</time>
      </trkpt>
      <trkpt lat="49.42944" lon="-1.23009">
        <ele>1.5</ele>
        <time>2022-06-02T08:57:37Z</time>
      </trkpt>
      <trkpt lat="49.42944" lon="-1.23009">
        <ele>1.5</ele>
        <time>2022-06-02T08:57:38Z</time>
      </trkpt>
      <trkpt lat="49.42944" lon="-1.23009">
        <ele>1.5</ele>
        <time>2022-06-02T08:57:39Z</time>
      </trkpt>
      <trkpt lat="49.42944" lon="-1.23008">
        <ele>1.5</ele>
        <time>2022-06-02T08:57:41Z</time>
      </trkpt>
      <trkpt lat="49.42945" lon="-1.23008">
        <ele>1.4</ele>
        <time>2022-06-02T08:57:42Z</time>
      </trkpt>
      <trkpt lat="49.42946" lon="-1.23006">
        <ele>1.4</ele>
        <time>2022-06-02T08:57:43Z</time>
      </trkpt>
      <trkpt lat="49.42947" lon="-1.23004">
        <ele>1.4</ele>
        <time>2022-06-02T08:57:44Z</time>
      </trkpt>
      <trkpt lat="49.42947" lon="-1.23003">
        <ele>1.4</ele>
        <time>2022-06-02T08:57:45Z</time>
      </trkpt>
      <trkpt lat="49.42948" lon="-1.23">
        <ele>1.4</ele>
        <time>2022-06-02T08:57:46Z</time>
      </trkpt>
      <trkpt lat="49.42949" lon="-1.22999">
        <ele>1.4</ele>
        <time>2022-06-02T08:57:47Z</time>
      </trkpt>
      <trkpt lat="49.4295" lon="-1.22996">
        <ele>1.4</ele>
        <time>2022-06-02T08:57:49Z</time>
      </trkpt>
      <trkpt lat="49.4295" lon="-1.22995">
        <ele>1.4</ele>
        <time>2022-06-02T08:57:50Z</time>
      </trkpt>
      <trkpt lat="49.42951" lon="-1.22994">
        <ele>1.4</ele>
        <time>2022-06-02T08:57:51Z</time>
      </trkpt>
      <trkpt lat="49.42951" lon="-1.22992">
        <ele>1.4</ele>
        <time>2022-06-02T08:57:52Z</time>
      </trkpt>
      <trkpt lat="49.42952" lon="-1.22991">
        <ele>1.4</ele>
        <time>2022-06-02T08:57:53Z</time>
      </trkpt>
      <trkpt lat="49.42952" lon="-1.2299">
        <ele>1.4</ele>
        <time>2022-06-02T08:57:54Z</time>
      </trkpt>
      <trkpt lat="49.42952" lon="-1.22989">
        <ele>1.4</ele>
        <time>2022-06-02T08:57:55Z</time>
      </trkpt>
      <trkpt lat="49.42952" lon="-1.22988">
        <ele>1.4</ele>
        <time>2022-06-02T08:57:56Z</time>
      </trkpt>
      <trkpt lat="49.42953" lon="-1.22987">
        <ele>1.4</ele>
        <time>2022-06-02T08:57:57Z</time>
      </trkpt>
      <trkpt lat="49.42954" lon="-1.22985">
        <ele>1.4</ele>
        <time>2022-06-02T08:57:58Z</time>
      </trkpt>
      <trkpt lat="49.42955" lon="-1.22982">
        <ele>1.4</ele>
        <time>2022-06-02T08:58:00Z</time>
      </trkpt>
      <trkpt lat="49.42956" lon="-1.2298">
        <ele>1.4</ele>
        <time>2022-06-02T08:58:01Z</time>
      </trkpt>
      <trkpt lat="49.42956" lon="-1.22978">
        <ele>1.4</ele>
        <time>2022-06-02T08:58:02Z</time>
      </trkpt>
      <trkpt lat="49.42957" lon="-1.22976">
        <ele>1.4</ele>
        <time>2022-06-02T08:58:03Z</time>
      </trkpt>
      <trkpt lat="49.42958" lon="-1.22974">
        <ele>1.4</ele>
        <time>2022-06-02T08:58:04Z</time>
      </trkpt>
      <trkpt lat="49.42958" lon="-1.22972">
        <ele>1.4</ele>
        <time>2022-06-02T08:58:05Z</time>
      </trkpt>
      <trkpt lat="49.4296" lon="-1.22969">
        <ele>1.4</ele>
        <time>2022-06-02T08:58:06Z</time>
      </trkpt>
      <trkpt lat="49.4296" lon="-1.22968">
        <ele>1.4</ele>
        <time>2022-06-02T08:58:07Z</time>
      </trkpt>
      <trkpt lat="49.4296" lon="-1.22967">
        <ele>1.4</ele>
        <time>2022-06-02T08:58:08Z</time>
      </trkpt>
      <trkpt lat="49.42961" lon="-1.22964">
        <ele>1.4</ele>
        <time>2022-06-02T08:58:09Z</time>
      </trkpt>
      <trkpt lat="49.42962" lon="-1.22963">
        <ele>1.4</ele>
        <time>2022-06-02T08:58:11Z</time>
      </trkpt>
      <trkpt lat="49.42962" lon="-1.22962">
        <ele>1.4</ele>
        <time>2022-06-02T08:58:12Z</time>
      </trkpt>
      <trkpt lat="49.42963" lon="-1.2296">
        <ele>1.4</ele>
        <time>2022-06-02T08:58:13Z</time>
      </trkpt>
      <trkpt lat="49.42963" lon="-1.22958">
        <ele>1.4</ele>
        <time>2022-06-02T08:58:14Z</time>
      </trkpt>
      <trkpt lat="49.42964" lon="-1.22955">
        <ele>1.5</ele>
        <time>2022-06-02T08:58:16Z</time>
      </trkpt>
      <trkpt lat="49.42964" lon="-1.22955">
        <ele>1.5</ele>
        <time>2022-06-02T08:58:17Z</time>
      </trkpt>
      <trkpt lat="49.42964" lon="-1.22955">
        <ele>1.5</ele>
        <time>2022-06-02T08:58:18Z</time>
      </trkpt>
      <trkpt lat="49.42964" lon="-1.22955">
        <ele>1.5</ele>
        <time>2022-06-02T08:58:20Z</time>
      </trkpt>
      <trkpt lat="49.42964" lon="-1.22955">
        <ele>1.5</ele>
        <time>2022-06-02T08:58:21Z</time>
      </trkpt>
      <trkpt lat="49.42964" lon="-1.22955">
        <ele>1.5</ele>
        <time>2022-06-02T08:58:22Z</time>
      </trkpt>
      <trkpt lat="49.42964" lon="-1.22954">
        <ele>1.5</ele>
        <time>2022-06-02T08:58:23Z</time>
      </trkpt>
      <trkpt lat="49.42964" lon="-1.22954">
        <ele>1.5</ele>
        <time>2022-06-02T08:58:24Z</time>
      </trkpt>
      <trkpt lat="49.42964" lon="-1.22954">
        <ele>1.5</ele>
        <time>2022-06-02T08:58:25Z</time>
      </trkpt>
      <trkpt lat="49.42964" lon="-1.22954">
        <ele>1.5</ele>
        <time>2022-06-02T08:58:27Z</time>
      </trkpt>
      <trkpt lat="49.42964" lon="-1.22954">
        <ele>1.5</ele>
        <time>2022-06-02T08:58:28Z</time>
      </trkpt>
      <trkpt lat="49.42964" lon="-1.22954">
        <ele>1.5</ele>
        <time>2022-06-02T08:58:29Z</time>
      </trkpt>
      <trkpt lat="49.42964" lon="-1.22954">
        <ele>1.5</ele>
        <time>2022-06-02T08:58:31Z</time>
      </trkpt>
      <trkpt lat="49.42964" lon="-1.22954">
        <ele>1.5</ele>
        <time>2022-06-02T08:58:32Z</time>
      </trkpt>
      <trkpt lat="49.42964" lon="-1.22954">
        <ele>1.5</ele>
        <time>2022-06-02T08:58:33Z</time>
      </trkpt>
      <trkpt lat="49.42964" lon="-1.22954">
        <ele>1.5</ele>
        <time>2022-06-02T08:58:34Z</time>
      </trkpt>
      <trkpt lat="49.42964" lon="-1.22954">
        <ele>1.5</ele>
        <time>2022-06-02T08:58:35Z</time>
      </trkpt>
      <trkpt lat="49.42964" lon="-1.22954">
        <ele>1.5</ele>
        <time>2022-06-02T08:58:36Z</time>
      </trkpt>
      <trkpt lat="49.42964" lon="-1.22954">
        <ele>1.5</ele>
        <time>2022-06-02T08:58:37Z</time>
      </trkpt>
      <trkpt lat="49.42964" lon="-1.22954">
        <ele>1.5</ele>
        <time>2022-06-02T08:58:38Z</time>
      </trkpt>
      <trkpt lat="49.42964" lon="-1.22954">
        <ele>1.5</ele>
        <time>2022-06-02T08:58:39Z</time>
      </trkpt>
      <trkpt lat="49.42964" lon="-1.22954">
        <ele>1.5</ele>
        <time>2022-06-02T08:58:40Z</time>
      </trkpt>
      <trkpt lat="49.42964" lon="-1.22954">
        <ele>1.5</ele>
        <time>2022-06-02T08:58:41Z</time>
      </trkpt>
      <trkpt lat="49.42964" lon="-1.22954">
        <ele>1.5</ele>
        <time>2022-06-02T08:58:42Z</time>
      </trkpt>
      <trkpt lat="49.42965" lon="-1.22954">
        <ele>1.5</ele>
        <time>2022-06-02T08:58:43Z</time>
      </trkpt>
      <trkpt lat="49.42965" lon="-1.22954">
        <ele>1.5</ele>
        <time>2022-06-02T08:58:44Z</time>
      </trkpt>
      <trkpt lat="49.42965" lon="-1.22954">
        <ele>1.5</ele>
        <time>2022-06-02T08:58:45Z</time>
      </trkpt>
      <trkpt lat="49.42965" lon="-1.22954">
        <ele>1.5</ele>
        <time>2022-06-02T08:58:46Z</time>
      </trkpt>
      <trkpt lat="49.42965" lon="-1.22954">
        <ele>1.5</ele>
        <time>2022-06-02T08:58:47Z</time>
      </trkpt>
      <trkpt lat="49.42965" lon="-1.22954">
        <ele>1.5</ele>
        <time>2022-06-02T08:58:48Z</time>
      </trkpt>
      <trkpt lat="49.42965" lon="-1.22954">
        <ele>1.5</ele>
        <time>2022-06-02T08:58:49Z</time>
      </trkpt>
      <trkpt lat="49.42965" lon="-1.22954">
        <ele>1.5</ele>
        <time>2022-06-02T08:58:50Z</time>
      </trkpt>
      <trkpt lat="49.42965" lon="-1.22954">
        <ele>1.5</ele>
        <time>2022-06-02T08:58:51Z</time>
      </trkpt>
      <trkpt lat="49.42965" lon="-1.22954">
        <ele>1.5</ele>
        <time>2022-06-02T08:58:52Z</time>
      </trkpt>
      <trkpt lat="49.42965" lon="-1.22954">
        <ele>1.5</ele>
        <time>2022-06-02T08:58:53Z</time>
      </trkpt>
      <trkpt lat="49.42965" lon="-1.22954">
        <ele>1.5</ele>
        <time>2022-06-02T08:58:54Z</time>
      </trkpt>
      <trkpt lat="49.42965" lon="-1.22954">
        <ele>1.5</ele>
        <time>2022-06-02T08:58:55Z</time>
      </trkpt>
      <trkpt lat="49.42965" lon="-1.22954">
        <ele>1.5</ele>
        <time>2022-06-02T08:58:56Z</time>
      </trkpt>
      <trkpt lat="49.42965" lon="-1.22954">
        <ele>1.5</ele>
        <time>2022-06-02T08:58:57Z</time>
      </trkpt>
      <trkpt lat="49.42965" lon="-1.22954">
        <ele>1.5</ele>
        <time>2022-06-02T08:58:58Z</time>
      </trkpt>
      <trkpt lat="49.42965" lon="-1.22954">
        <ele>1.5</ele>
        <time>2022-06-02T08:58:59Z</time>
      </trkpt>
      <trkpt lat="49.42965" lon="-1.22954">
        <ele>1.5</ele>
        <time>2022-06-02T08:59:00Z</time>
      </trkpt>
      <trkpt lat="49.42965" lon="-1.22954">
        <ele>1.5</ele>
        <time>2022-06-02T08:59:01Z</time>
      </trkpt>
      <trkpt lat="49.42965" lon="-1.22954">
        <ele>1.5</ele>
        <time>2022-06-02T08:59:02Z</time>
      </trkpt>
      <trkpt lat="49.42965" lon="-1.22954">
        <ele>1.5</ele>
        <time>2022-06-02T08:59:03Z</time>
      </trkpt>
      <trkpt lat="49.42965" lon="-1.22954">
        <ele>1.5</ele>
        <time>2022-06-02T08:59:04Z</time>
      </trkpt>
      <trkpt lat="49.42965" lon="-1.22954">
        <ele>1.5</ele>
        <time>2022-06-02T08:59:05Z</time>
      </trkpt>
      <trkpt lat="49.42965" lon="-1.22954">
        <ele>1.5</ele>
        <time>2022-06-02T08:59:06Z</time>
      </trkpt>
      <trkpt lat="49.42965" lon="-1.22954">
        <ele>1.5</ele>
        <time>2022-06-02T08:59:07Z</time>
      </trkpt>
      <trkpt lat="49.42965" lon="-1.22954">
        <ele>1.5</ele>
        <time>2022-06-02T08:59:08Z</time>
      </trkpt>
      <trkpt lat="49.42965" lon="-1.22954">
        <ele>1.5</ele>
        <time>2022-06-02T08:59:09Z</time>
      </trkpt>
      <trkpt lat="49.42965" lon="-1.22954">
        <ele>1.5</ele>
        <time>2022-06-02T08:59:10Z</time>
      </trkpt>
      <trkpt lat="49.42965" lon="-1.22954">
        <ele>1.5</ele>
        <time>2022-06-02T08:59:11Z</time>
      </trkpt>
      <trkpt lat="49.42965" lon="-1.22954">
        <ele>1.5</ele>
        <time>2022-06-02T08:59:12Z</time>
      </trkpt>
      <trkpt lat="49.42965" lon="-1.22954">
        <ele>1.5</ele>
        <time>2022-06-02T08:59:13Z</time>
      </trkpt>
      <trkpt lat="49.42966" lon="-1.22954">
        <ele>1.5</ele>
        <time>2022-06-02T08:59:14Z</time>
      </trkpt>
      <trkpt lat="49.42966" lon="-1.22954">
        <ele>1.5</ele>
        <time>2022-06-02T08:59:15Z</time>
      </trkpt>
      <trkpt lat="49.42966" lon="-1.22954">
        <ele>1.5</ele>
        <time>2022-06-02T08:59:16Z</time>
      </trkpt>
      <trkpt lat="49.42966" lon="-1.22954">
        <ele>1.5</ele>
        <time>2022-06-02T08:59:17Z</time>
      </trkpt>
      <trkpt lat="49.42966" lon="-1.22954">
        <ele>1.5</ele>
        <time>2022-06-02T08:59:18Z</time>
      </trkpt>
      <trkpt lat="49.42966" lon="-1.22954">
        <ele>1.5</ele>
        <time>2022-06-02T08:59:19Z</time>
      </trkpt>
      <trkpt lat="49.42966" lon="-1.22954">
        <ele>1.5</ele>
        <time>2022-06-02T08:59:20Z</time>
      </trkpt>
      <trkpt lat="49.42966" lon="-1.22954">
        <ele>1.5</ele>
        <time>2022-06-02T08:59:21Z</time>
      </trkpt>
      <trkpt lat="49.42966" lon="-1.22954">
        <ele>1.5</ele>
        <time>2022-06-02T08:59:22Z</time>
      </trkpt>
      <trkpt lat="49.42966" lon="-1.22954">
        <ele>1.5</ele>
        <time>2022-06-02T08:59:23Z</time>
      </trkpt>
      <trkpt lat="49.42966" lon="-1.22953">
        <ele>1.5</ele>
        <time>2022-06-02T08:59:24Z</time>
      </trkpt>
      <trkpt lat="49.42967" lon="-1.22953">
        <ele>1.5</ele>
        <time>2022-06-02T08:59:25Z</time>
      </trkpt>
      <trkpt lat="49.42967" lon="-1.22952">
        <ele>1.5</ele>
        <time>2022-06-02T08:59:26Z</time>
      </trkpt>
      <trkpt lat="49.42968" lon="-1.2295">
        <ele>1.5</ele>
        <time>2022-06-02T08:59:27Z</time>
      </trkpt>
      <trkpt lat="49.42969" lon="-1.22949">
        <ele>1.5</ele>
        <time>2022-06-02T08:59:28Z</time>
      </trkpt>
      <trkpt lat="49.4297" lon="-1.22947">
        <ele>1.5</ele>
        <time>2022-06-02T08:59:29Z</time>
      </trkpt>
      <trkpt lat="49.42971" lon="-1.22945">
        <ele>1.5</ele>
        <time>2022-06-02T08:59:31Z</time>
      </trkpt>
      <trkpt lat="49.42971" lon="-1.22944">
        <ele>1.5</ele>
        <time>2022-06-02T08:59:32Z</time>
      </trkpt>
      <trkpt lat="49.42972" lon="-1.22942">
        <ele>1.5</ele>
        <time>2022-06-02T08:59:33Z</time>
      </trkpt>
      <trkpt lat="49.42972" lon="-1.22941">
        <ele>1.5</ele>
        <time>2022-06-02T08:59:34Z</time>
      </trkpt>
      <trkpt lat="49.42973" lon="-1.22939">
        <ele>1.5</ele>
        <time>2022-06-02T08:59:35Z</time>
      </trkpt>
      <trkpt lat="49.42974" lon="-1.22938">
        <ele>1.5</ele>
        <time>2022-06-02T08:59:36Z</time>
      </trkpt>
      <trkpt lat="49.42974" lon="-1.22936">
        <ele>1.5</ele>
        <time>2022-06-02T08:59:37Z</time>
      </trkpt>
      <trkpt lat="49.42975" lon="-1.22935">
        <ele>1.5</ele>
        <time>2022-06-02T08:59:38Z</time>
      </trkpt>
      <trkpt lat="49.42976" lon="-1.22933">
        <ele>1.5</ele>
        <time>2022-06-02T08:59:39Z</time>
      </trkpt>
      <trkpt lat="49.42977" lon="-1.22931">
        <ele>1.5</ele>
        <time>2022-06-02T08:59:40Z</time>
      </trkpt>
      <trkpt lat="49.42977" lon="-1.22929">
        <ele>1.5</ele>
        <time>2022-06-02T08:59:41Z</time>
      </trkpt>
      <trkpt lat="49.42978" lon="-1.22928">
        <ele>1.5</ele>
        <time>2022-06-02T08:59:42Z</time>
      </trkpt>
      <trkpt lat="49.42979" lon="-1.22926">
        <ele>1.5</ele>
        <time>2022-06-02T08:59:43Z</time>
      </trkpt>
      <trkpt lat="49.42979" lon="-1.22925">
        <ele>1.5</ele>
        <time>2022-06-02T08:59:44Z</time>
      </trkpt>
      <trkpt lat="49.4298" lon="-1.22924">
        <ele>1.5</ele>
        <time>2022-06-02T08:59:45Z</time>
      </trkpt>
      <trkpt lat="49.42981" lon="-1.22922">
        <ele>1.5</ele>
        <time>2022-06-02T08:59:47Z</time>
      </trkpt>
      <trkpt lat="49.42981" lon="-1.22921">
        <ele>1.5</ele>
        <time>2022-06-02T08:59:48Z</time>
      </trkpt>
      <trkpt lat="49.42982" lon="-1.22919">
        <ele>1.5</ele>
        <time>2022-06-02T08:59:49Z</time>
      </trkpt>
      <trkpt lat="49.42983" lon="-1.22917">
        <ele>1.5</ele>
        <time>2022-06-02T08:59:50Z</time>
      </trkpt>
      <trkpt lat="49.42984" lon="-1.22916">
        <ele>1.5</ele>
        <time>2022-06-02T08:59:51Z</time>
      </trkpt>
      <trkpt lat="49.42985" lon="-1.22915">
        <ele>1.5</ele>
        <time>2022-06-02T08:59:52Z</time>
      </trkpt>
      <trkpt lat="49.42985" lon="-1.22914">
        <ele>1.5</ele>
        <time>2022-06-02T08:59:53Z</time>
      </trkpt>
      <trkpt lat="49.42986" lon="-1.22912">
        <ele>1.5</ele>
        <time>2022-06-02T08:59:54Z</time>
      </trkpt>
      <trkpt lat="49.42987" lon="-1.2291">
        <ele>1.5</ele>
        <time>2022-06-02T08:59:55Z</time>
      </trkpt>
      <trkpt lat="49.42988" lon="-1.22909">
        <ele>1.5</ele>
        <time>2022-06-02T08:59:56Z</time>
      </trkpt>
      <trkpt lat="49.42989" lon="-1.22907">
        <ele>1.5</ele>
        <time>2022-06-02T08:59:58Z</time>
      </trkpt>
      <trkpt lat="49.4299" lon="-1.22905">
        <ele>1.5</ele>
        <time>2022-06-02T08:59:59Z</time>
      </trkpt>
      <trkpt lat="49.42991" lon="-1.22904">
        <ele>1.5</ele>
        <time>2022-06-02T09:00:00Z</time>
      </trkpt>
      <trkpt lat="49.42991" lon="-1.22902">
        <ele>1.5</ele>
        <time>2022-06-02T09:00:01Z</time>
      </trkpt>
      <trkpt lat="49.42992" lon="-1.229">
        <ele>1.5</ele>
        <time>2022-06-02T09:00:02Z</time>
      </trkpt>
      <trkpt lat="49.42994" lon="-1.22897">
        <ele>1.6</ele>
        <time>2022-06-02T09:00:04Z</time>
      </trkpt>
      <trkpt lat="49.42994" lon="-1.22896">
        <ele>1.6</ele>
        <time>2022-06-02T09:00:05Z</time>
      </trkpt>
      <trkpt lat="49.42994" lon="-1.22895">
        <ele>1.6</ele>
        <time>2022-06-02T09:00:06Z</time>
      </trkpt>
      <trkpt lat="49.42995" lon="-1.22893">
        <ele>1.6</ele>
        <time>2022-06-02T09:00:07Z</time>
      </trkpt>
      <trkpt lat="49.42996" lon="-1.22891">
        <ele>1.6</ele>
        <time>2022-06-02T09:00:08Z</time>
      </trkpt>
      <trkpt lat="49.42997" lon="-1.22888">
        <ele>1.6</ele>
        <time>2022-06-02T09:00:09Z</time>
      </trkpt>
      <trkpt lat="49.42997" lon="-1.22887">
        <ele>1.6</ele>
        <time>2022-06-02T09:00:10Z</time>
      </trkpt>
      <trkpt lat="49.42997" lon="-1.22886">
        <ele>1.6</ele>
        <time>2022-06-02T09:00:11Z</time>
      </trkpt>
      <trkpt lat="49.42998" lon="-1.22883">
        <ele>1.6</ele>
        <time>2022-06-02T09:00:12Z</time>
      </trkpt>
      <trkpt lat="49.42999" lon="-1.22882">
        <ele>1.6</ele>
        <time>2022-06-02T09:00:13Z</time>
      </trkpt>
      <trkpt lat="49.42999" lon="-1.22881">
        <ele>1.6</ele>
        <time>2022-06-02T09:00:14Z</time>
      </trkpt>
      <trkpt lat="49.43" lon="-1.22879">
        <ele>1.6</ele>
        <time>2022-06-02T09:00:15Z</time>
      </trkpt>
      <trkpt lat="49.43" lon="-1.22878">
        <ele>1.6</ele>
        <time>2022-06-02T09:00:16Z</time>
      </trkpt>
      <trkpt lat="49.43001" lon="-1.22877">
        <ele>1.6</ele>
        <time>2022-06-02T09:00:17Z</time>
      </trkpt>
      <trkpt lat="49.43002" lon="-1.22875">
        <ele>1.6</ele>
        <time>2022-06-02T09:00:18Z</time>
      </trkpt>
      <trkpt lat="49.43003" lon="-1.22873">
        <ele>1.6</ele>
        <time>2022-06-02T09:00:19Z</time>
      </trkpt>
      <trkpt lat="49.43004" lon="-1.22871">
        <ele>1.6</ele>
        <time>2022-06-02T09:00:21Z</time>
      </trkpt>
      <trkpt lat="49.43004" lon="-1.2287">
        <ele>1.6</ele>
        <time>2022-06-02T09:00:22Z</time>
      </trkpt>
      <trkpt lat="49.43005" lon="-1.22869">
        <ele>1.6</ele>
        <time>2022-06-02T09:00:23Z</time>
      </trkpt>
      <trkpt lat="49.43006" lon="-1.22867">
        <ele>1.6</ele>
        <time>2022-06-02T09:00:24Z</time>
      </trkpt>
      <trkpt lat="49.43007" lon="-1.22865">
        <ele>1.5</ele>
        <time>2022-06-02T09:00:25Z</time>
      </trkpt>
      <trkpt lat="49.43008" lon="-1.22862">
        <ele>1.5</ele>
        <time>2022-06-02T09:00:26Z</time>
      </trkpt>
      <trkpt lat="49.43009" lon="-1.22861">
        <ele>1.5</ele>
        <time>2022-06-02T09:00:27Z</time>
      </trkpt>
      <trkpt lat="49.43009" lon="-1.22859">
        <ele>1.5</ele>
        <time>2022-06-02T09:00:28Z</time>
      </trkpt>
      <trkpt lat="49.43011" lon="-1.22857">
        <ele>1.5</ele>
        <time>2022-06-02T09:00:30Z</time>
      </trkpt>
      <trkpt lat="49.43011" lon="-1.22856">
        <ele>1.5</ele>
        <time>2022-06-02T09:00:31Z</time>
      </trkpt>
      <trkpt lat="49.43012" lon="-1.22855">
        <ele>1.5</ele>
        <time>2022-06-02T09:00:32Z</time>
      </trkpt>
      <trkpt lat="49.43013" lon="-1.22853">
        <ele>1.5</ele>
        <time>2022-06-02T09:00:33Z</time>
      </trkpt>
      <trkpt lat="49.43014" lon="-1.22851">
        <ele>1.5</ele>
        <time>2022-06-02T09:00:34Z</time>
      </trkpt>
      <trkpt lat="49.43014" lon="-1.2285">
        <ele>1.5</ele>
        <time>2022-06-02T09:00:35Z</time>
      </trkpt>
      <trkpt lat="49.43015" lon="-1.22849">
        <ele>1.5</ele>
        <time>2022-06-02T09:00:36Z</time>
      </trkpt>
      <trkpt lat="49.43016" lon="-1.22847">
        <ele>1.5</ele>
        <time>2022-06-02T09:00:37Z</time>
      </trkpt>
      <trkpt lat="49.43017" lon="-1.22845">
        <ele>1.5</ele>
        <time>2022-06-02T09:00:38Z</time>
      </trkpt>
      <trkpt lat="49.43017" lon="-1.22843">
        <ele>1.5</ele>
        <time>2022-06-02T09:00:39Z</time>
      </trkpt>
      <trkpt lat="49.43018" lon="-1.22842">
        <ele>1.5</ele>
        <time>2022-06-02T09:00:40Z</time>
      </trkpt>
      <trkpt lat="49.43019" lon="-1.22841">
        <ele>1.5</ele>
        <time>2022-06-02T09:00:42Z</time>
      </trkpt>
      <trkpt lat="49.43019" lon="-1.22839">
        <ele>1.5</ele>
        <time>2022-06-02T09:00:43Z</time>
      </trkpt>
      <trkpt lat="49.43019" lon="-1.22838">
        <ele>1.5</ele>
        <time>2022-06-02T09:00:44Z</time>
      </trkpt>
      <trkpt lat="49.43019" lon="-1.22838">
        <ele>1.5</ele>
        <time>2022-06-02T09:00:45Z</time>
      </trkpt>
      <trkpt lat="49.43019" lon="-1.22838">
        <ele>1.5</ele>
        <time>2022-06-02T09:00:46Z</time>
      </trkpt>
      <trkpt lat="49.43019" lon="-1.22839">
        <ele>1.5</ele>
        <time>2022-06-02T09:00:47Z</time>
      </trkpt>
      <trkpt lat="49.43019" lon="-1.22839">
        <ele>1.5</ele>
        <time>2022-06-02T09:00:48Z</time>
      </trkpt>
      <trkpt lat="49.43019" lon="-1.22839">
        <ele>1.5</ele>
        <time>2022-06-02T09:00:49Z</time>
      </trkpt>
      <trkpt lat="49.43019" lon="-1.22839">
        <ele>1.5</ele>
        <time>2022-06-02T09:00:50Z</time>
      </trkpt>
      <trkpt lat="49.43019" lon="-1.22839">
        <ele>1.5</ele>
        <time>2022-06-02T09:00:51Z</time>
      </trkpt>
      <trkpt lat="49.43019" lon="-1.22839">
        <ele>1.5</ele>
        <time>2022-06-02T09:00:52Z</time>
      </trkpt>
      <trkpt lat="49.43019" lon="-1.22839">
        <ele>1.5</ele>
        <time>2022-06-02T09:00:53Z</time>
      </trkpt>
      <trkpt lat="49.43019" lon="-1.22839">
        <ele>1.5</ele>
        <time>2022-06-02T09:00:54Z</time>
      </trkpt>
      <trkpt lat="49.43019" lon="-1.22839">
        <ele>1.5</ele>
        <time>2022-06-02T09:00:55Z</time>
      </trkpt>
      <trkpt lat="49.43018" lon="-1.22839">
        <ele>1.5</ele>
        <time>2022-06-02T09:00:56Z</time>
      </trkpt>
      <trkpt lat="49.43018" lon="-1.22839">
        <ele>1.5</ele>
        <time>2022-06-02T09:01:01Z</time>
      </trkpt>
      <trkpt lat="49.43018" lon="-1.2284">
        <ele>1.5</ele>
        <time>2022-06-02T09:01:02Z</time>
      </trkpt>
      <trkpt lat="49.43018" lon="-1.2284">
        <ele>1.5</ele>
        <time>2022-06-02T09:01:03Z</time>
      </trkpt>
      <trkpt lat="49.43018" lon="-1.2284">
        <ele>1.5</ele>
        <time>2022-06-02T09:01:04Z</time>
      </trkpt>
      <trkpt lat="49.43018" lon="-1.2284">
        <ele>1.5</ele>
        <time>2022-06-02T09:01:05Z</time>
      </trkpt>
      <trkpt lat="49.43018" lon="-1.2284">
        <ele>1.5</ele>
        <time>2022-06-02T09:01:06Z</time>
      </trkpt>
      <trkpt lat="49.43018" lon="-1.2284">
        <ele>1.5</ele>
        <time>2022-06-02T09:01:07Z</time>
      </trkpt>
      <trkpt lat="49.43018" lon="-1.2284">
        <ele>1.5</ele>
        <time>2022-06-02T09:01:08Z</time>
      </trkpt>
      <trkpt lat="49.43018" lon="-1.2284">
        <ele>1.5</ele>
        <time>2022-06-02T09:01:09Z</time>
      </trkpt>
      <trkpt lat="49.43018" lon="-1.2284">
        <ele>1.5</ele>
        <time>2022-06-02T09:01:10Z</time>
      </trkpt>
      <trkpt lat="49.43018" lon="-1.2284">
        <ele>1.5</ele>
        <time>2022-06-02T09:01:11Z</time>
      </trkpt>
      <trkpt lat="49.43018" lon="-1.2284">
        <ele>1.5</ele>
        <time>2022-06-02T09:01:12Z</time>
      </trkpt>
      <trkpt lat="49.43018" lon="-1.2284">
        <ele>1.5</ele>
        <time>2022-06-02T09:01:13Z</time>
      </trkpt>
      <trkpt lat="49.43018" lon="-1.22841">
        <ele>1.5</ele>
        <time>2022-06-02T09:01:14Z</time>
      </trkpt>
      <trkpt lat="49.43018" lon="-1.22841">
        <ele>1.5</ele>
        <time>2022-06-02T09:01:15Z</time>
      </trkpt>
      <trkpt lat="49.43018" lon="-1.22841">
        <ele>1.5</ele>
        <time>2022-06-02T09:01:16Z</time>
      </trkpt>
      <trkpt lat="49.43018" lon="-1.22841">
        <ele>1.5</ele>
        <time>2022-06-02T09:01:17Z</time>
      </trkpt>
      <trkpt lat="49.43018" lon="-1.22841">
        <ele>1.5</ele>
        <time>2022-06-02T09:01:18Z</time>
      </trkpt>
      <trkpt lat="49.43018" lon="-1.22841">
        <ele>1.5</ele>
        <time>2022-06-02T09:01:19Z</time>
      </trkpt>
      <trkpt lat="49.43018" lon="-1.22841">
        <ele>1.5</ele>
        <time>2022-06-02T09:01:20Z</time>
      </trkpt>
      <trkpt lat="49.43018" lon="-1.22841">
        <ele>1.5</ele>
        <time>2022-06-02T09:01:21Z</time>
      </trkpt>
      <trkpt lat="49.43018" lon="-1.22841">
        <ele>1.5</ele>
        <time>2022-06-02T09:01:22Z</time>
      </trkpt>
      <trkpt lat="49.43018" lon="-1.22841">
        <ele>1.5</ele>
        <time>2022-06-02T09:01:23Z</time>
      </trkpt>
      <trkpt lat="49.43018" lon="-1.22841">
        <ele>1.5</ele>
        <time>2022-06-02T09:01:24Z</time>
      </trkpt>
      <trkpt lat="49.43018" lon="-1.22842">
        <ele>1.5</ele>
        <time>2022-06-02T09:01:26Z</time>
      </trkpt>
      <trkpt lat="49.43018" lon="-1.22842">
        <ele>1.5</ele>
        <time>2022-06-02T09:01:26Z</time>
      </trkpt>
      <trkpt lat="49.43018" lon="-1.22842">
        <ele>1.5</ele>
        <time>2022-06-02T09:01:27Z</time>
      </trkpt>
      <trkpt lat="49.43018" lon="-1.22842">
        <ele>1.5</ele>
        <time>2022-06-02T09:01:28Z</time>
      </trkpt>
      <trkpt lat="49.43018" lon="-1.22842">
        <ele>1.5</ele>
        <time>2022-06-02T09:01:29Z</time>
      </trkpt>
      <trkpt lat="49.43018" lon="-1.22842">
        <ele>1.5</ele>
        <time>2022-06-02T09:01:30Z</time>
      </trkpt>
      <trkpt lat="49.43018" lon="-1.22842">
        <ele>1.5</ele>
        <time>2022-06-02T09:01:31Z</time>
      </trkpt>
      <trkpt lat="49.43018" lon="-1.22842">
        <ele>1.5</ele>
        <time>2022-06-02T09:01:32Z</time>
      </trkpt>
      <trkpt lat="49.43018" lon="-1.22842">
        <ele>1.5</ele>
        <time>2022-06-02T09:01:33Z</time>
      </trkpt>
      <trkpt lat="49.43018" lon="-1.22842">
        <ele>1.5</ele>
        <time>2022-06-02T09:01:34Z</time>
      </trkpt>
      <trkpt lat="49.43018" lon="-1.22842">
        <ele>1.5</ele>
        <time>2022-06-02T09:01:35Z</time>
      </trkpt>
      <trkpt lat="49.43018" lon="-1.22842">
        <ele>1.5</ele>
        <time>2022-06-02T09:01:36Z</time>
      </trkpt>
      <trkpt lat="49.43018" lon="-1.22842">
        <ele>1.5</ele>
        <time>2022-06-02T09:01:37Z</time>
      </trkpt>
      <trkpt lat="49.43018" lon="-1.22842">
        <ele>1.5</ele>
        <time>2022-06-02T09:01:38Z</time>
      </trkpt>
      <trkpt lat="49.43018" lon="-1.22842">
        <ele>1.5</ele>
        <time>2022-06-02T09:01:39Z</time>
      </trkpt>
      <trkpt lat="49.43018" lon="-1.22842">
        <ele>1.5</ele>
        <time>2022-06-02T09:01:40Z</time>
      </trkpt>
      <trkpt lat="49.43018" lon="-1.22842">
        <ele>1.5</ele>
        <time>2022-06-02T09:01:41Z</time>
      </trkpt>
      <trkpt lat="49.43018" lon="-1.22842">
        <ele>1.5</ele>
        <time>2022-06-02T09:01:42Z</time>
      </trkpt>
      <trkpt lat="49.43018" lon="-1.22842">
        <ele>1.5</ele>
        <time>2022-06-02T09:01:43Z</time>
      </trkpt>
      <trkpt lat="49.43018" lon="-1.22842">
        <ele>1.5</ele>
        <time>2022-06-02T09:01:44Z</time>
      </trkpt>
      <trkpt lat="49.43018" lon="-1.22842">
        <ele>1.5</ele>
        <time>2022-06-02T09:01:45Z</time>
      </trkpt>
      <trkpt lat="49.43018" lon="-1.22842">
        <ele>1.5</ele>
        <time>2022-06-02T09:01:46Z</time>
      </trkpt>
      <trkpt lat="49.43018" lon="-1.22842">
        <ele>1.5</ele>
        <time>2022-06-02T09:01:47Z</time>
      </trkpt>
      <trkpt lat="49.43018" lon="-1.22842">
        <ele>1.5</ele>
        <time>2022-06-02T09:01:48Z</time>
      </trkpt>
      <trkpt lat="49.43018" lon="-1.22842">
        <ele>1.5</ele>
        <time>2022-06-02T09:01:49Z</time>
      </trkpt>
      <trkpt lat="49.43018" lon="-1.22842">
        <ele>1.5</ele>
        <time>2022-06-02T09:01:50Z</time>
      </trkpt>
      <trkpt lat="49.43018" lon="-1.22842">
        <ele>1.5</ele>
        <time>2022-06-02T09:01:51Z</time>
      </trkpt>
      <trkpt lat="49.43018" lon="-1.22842">
        <ele>1.5</ele>
        <time>2022-06-02T09:01:52Z</time>
      </trkpt>
      <trkpt lat="49.43018" lon="-1.22842">
        <ele>1.5</ele>
        <time>2022-06-02T09:01:53Z</time>
      </trkpt>
      <trkpt lat="49.43018" lon="-1.22842">
        <ele>1.5</ele>
        <time>2022-06-02T09:01:54Z</time>
      </trkpt>
      <trkpt lat="49.43018" lon="-1.22842">
        <ele>1.5</ele>
        <time>2022-06-02T09:01:55Z</time>
      </trkpt>
      <trkpt lat="49.43018" lon="-1.22842">
        <ele>1.5</ele>
        <time>2022-06-02T09:01:56Z</time>
      </trkpt>
      <trkpt lat="49.43018" lon="-1.22842">
        <ele>1.5</ele>
        <time>2022-06-02T09:01:57Z</time>
      </trkpt>
      <trkpt lat="49.43018" lon="-1.22842">
        <ele>1.5</ele>
        <time>2022-06-02T09:01:58Z</time>
      </trkpt>
      <trkpt lat="49.43018" lon="-1.22842">
        <ele>1.5</ele>
        <time>2022-06-02T09:01:59Z</time>
      </trkpt>
      <trkpt lat="49.43018" lon="-1.22842">
        <ele>1.5</ele>
        <time>2022-06-02T09:02:00Z</time>
      </trkpt>
      <trkpt lat="49.43018" lon="-1.22842">
        <ele>1.5</ele>
        <time>2022-06-02T09:02:01Z</time>
      </trkpt>
      <trkpt lat="49.43018" lon="-1.22842">
        <ele>1.5</ele>
        <time>2022-06-02T09:02:02Z</time>
      </trkpt>
      <trkpt lat="49.43018" lon="-1.22842">
        <ele>1.5</ele>
        <time>2022-06-02T09:02:03Z</time>
      </trkpt>
      <trkpt lat="49.43018" lon="-1.22842">
        <ele>1.5</ele>
        <time>2022-06-02T09:02:04Z</time>
      </trkpt>
      <trkpt lat="49.43018" lon="-1.22842">
        <ele>1.5</ele>
        <time>2022-06-02T09:02:05Z</time>
      </trkpt>
      <trkpt lat="49.43018" lon="-1.22842">
        <ele>1.5</ele>
        <time>2022-06-02T09:02:06Z</time>
      </trkpt>
      <trkpt lat="49.43018" lon="-1.22842">
        <ele>1.5</ele>
        <time>2022-06-02T09:02:07Z</time>
      </trkpt>
      <trkpt lat="49.43018" lon="-1.22842">
        <ele>1.5</ele>
        <time>2022-06-02T09:02:08Z</time>
      </trkpt>
      <trkpt lat="49.43018" lon="-1.22842">
        <ele>1.5</ele>
        <time>2022-06-02T09:02:09Z</time>
      </trkpt>
      <trkpt lat="49.43018" lon="-1.22842">
        <ele>1.5</ele>
        <time>2022-06-02T09:02:10Z</time>
      </trkpt>
      <trkpt lat="49.43018" lon="-1.22842">
        <ele>1.5</ele>
        <time>2022-06-02T09:02:11Z</time>
      </trkpt>
      <trkpt lat="49.43018" lon="-1.22842">
        <ele>1.5</ele>
        <time>2022-06-02T09:02:12Z</time>
      </trkpt>
      <trkpt lat="49.43018" lon="-1.22842">
        <ele>1.5</ele>
        <time>2022-06-02T09:02:13Z</time>
      </trkpt>
      <trkpt lat="49.43018" lon="-1.22842">
        <ele>1.5</ele>
        <time>2022-06-02T09:02:14Z</time>
      </trkpt>
      <trkpt lat="49.43018" lon="-1.22842">
        <ele>1.5</ele>
        <time>2022-06-02T09:02:15Z</time>
      </trkpt>
      <trkpt lat="49.43018" lon="-1.22842">
        <ele>1.5</ele>
        <time>2022-06-02T09:02:16Z</time>
      </trkpt>
      <trkpt lat="49.43018" lon="-1.22842">
        <ele>1.5</ele>
        <time>2022-06-02T09:02:17Z</time>
      </trkpt>
      <trkpt lat="49.43018" lon="-1.22842">
        <ele>1.5</ele>
        <time>2022-06-02T09:02:18Z</time>
      </trkpt>
      <trkpt lat="49.43018" lon="-1.22842">
        <ele>1.5</ele>
        <time>2022-06-02T09:02:19Z</time>
      </trkpt>
      <trkpt lat="49.43018" lon="-1.22841">
        <ele>1.5</ele>
        <time>2022-06-02T09:02:20Z</time>
      </trkpt>
      <trkpt lat="49.43018" lon="-1.22841">
        <ele>1.5</ele>
        <time>2022-06-02T09:02:21Z</time>
      </trkpt>
      <trkpt lat="49.43018" lon="-1.2284">
        <ele>1.5</ele>
        <time>2022-06-02T09:02:22Z</time>
      </trkpt>
      <trkpt lat="49.43018" lon="-1.2284">
        <ele>1.5</ele>
        <time>2022-06-02T09:02:23Z</time>
      </trkpt>
      <trkpt lat="49.43018" lon="-1.2284">
        <ele>1.5</ele>
        <time>2022-06-02T09:02:24Z</time>
      </trkpt>
      <trkpt lat="49.43019" lon="-1.22839">
        <ele>1.5</ele>
        <time>2022-06-02T09:02:25Z</time>
      </trkpt>
      <trkpt lat="49.43018" lon="-1.2284">
        <ele>1.5</ele>
        <time>2022-06-02T09:02:26Z</time>
      </trkpt>
      <trkpt lat="49.43018" lon="-1.2284">
        <ele>1.5</ele>
        <time>2022-06-02T09:02:27Z</time>
      </trkpt>
      <trkpt lat="49.43018" lon="-1.2284">
        <ele>1.5</ele>
        <time>2022-06-02T09:02:28Z</time>
      </trkpt>
      <trkpt lat="49.43018" lon="-1.2284">
        <ele>1.5</ele>
        <time>2022-06-02T09:02:30Z</time>
      </trkpt>
      <trkpt lat="49.43018" lon="-1.2284">
        <ele>1.5</ele>
        <time>2022-06-02T09:02:31Z</time>
      </trkpt>
      <trkpt lat="49.43018" lon="-1.2284">
        <ele>1.5</ele>
        <time>2022-06-02T09:02:32Z</time>
      </trkpt>
      <trkpt lat="49.43018" lon="-1.2284">
        <ele>1.5</ele>
        <time>2022-06-02T09:02:33Z</time>
      </trkpt>
      <trkpt lat="49.43018" lon="-1.2284">
        <ele>1.5</ele>
        <time>2022-06-02T09:02:34Z</time>
      </trkpt>
      <trkpt lat="49.43018" lon="-1.2284">
        <ele>1.5</ele>
        <time>2022-06-02T09:02:35Z</time>
      </trkpt>
      <trkpt lat="49.43018" lon="-1.2284">
        <ele>1.5</ele>
        <time>2022-06-02T09:02:36Z</time>
      </trkpt>
      <trkpt lat="49.43018" lon="-1.2284">
        <ele>1.5</ele>
        <time>2022-06-02T09:02:37Z</time>
      </trkpt>
      <trkpt lat="49.43018" lon="-1.2284">
        <ele>1.5</ele>
        <time>2022-06-02T09:02:38Z</time>
      </trkpt>
      <trkpt lat="49.43018" lon="-1.2284">
        <ele>1.5</ele>
        <time>2022-06-02T09:02:39Z</time>
      </trkpt>
      <trkpt lat="49.43018" lon="-1.2284">
        <ele>1.5</ele>
        <time>2022-06-02T09:02:40Z</time>
      </trkpt>
      <trkpt lat="49.43018" lon="-1.2284">
        <ele>1.5</ele>
        <time>2022-06-02T09:02:41Z</time>
      </trkpt>
      <trkpt lat="49.43018" lon="-1.2284">
        <ele>1.5</ele>
        <time>2022-06-02T09:02:42Z</time>
      </trkpt>
      <trkpt lat="49.43018" lon="-1.2284">
        <ele>1.5</ele>
        <time>2022-06-02T09:02:43Z</time>
      </trkpt>
      <trkpt lat="49.43018" lon="-1.2284">
        <ele>1.5</ele>
        <time>2022-06-02T09:02:44Z</time>
      </trkpt>
      <trkpt lat="49.43018" lon="-1.2284">
        <ele>1.5</ele>
        <time>2022-06-02T09:02:45Z</time>
      </trkpt>
      <trkpt lat="49.43018" lon="-1.2284">
        <ele>1.5</ele>
        <time>2022-06-02T09:02:46Z</time>
      </trkpt>
      <trkpt lat="49.43018" lon="-1.2284">
        <ele>1.5</ele>
        <time>2022-06-02T09:02:47Z</time>
      </trkpt>
      <trkpt lat="49.43018" lon="-1.2284">
        <ele>1.5</ele>
        <time>2022-06-02T09:02:48Z</time>
      </trkpt>
      <trkpt lat="49.43018" lon="-1.2284">
        <ele>1.5</ele>
        <time>2022-06-02T09:02:49Z</time>
      </trkpt>
      <trkpt lat="49.43018" lon="-1.2284">
        <ele>1.5</ele>
        <time>2022-06-02T09:02:50Z</time>
      </trkpt>
      <trkpt lat="49.43018" lon="-1.2284">
        <ele>1.5</ele>
        <time>2022-06-02T09:02:51Z</time>
      </trkpt>
      <trkpt lat="49.43018" lon="-1.2284">
        <ele>1.5</ele>
        <time>2022-06-02T09:02:52Z</time>
      </trkpt>
      <trkpt lat="49.43018" lon="-1.2284">
        <ele>1.5</ele>
        <time>2022-06-02T09:02:53Z</time>
      </trkpt>
      <trkpt lat="49.43018" lon="-1.2284">
        <ele>1.5</ele>
        <time>2022-06-02T09:02:54Z</time>
      </trkpt>
      <trkpt lat="49.43018" lon="-1.2284">
        <ele>1.5</ele>
        <time>2022-06-02T09:02:55Z</time>
      </trkpt>
      <trkpt lat="49.43018" lon="-1.2284">
        <ele>1.5</ele>
        <time>2022-06-02T09:02:56Z</time>
      </trkpt>
      <trkpt lat="49.43018" lon="-1.2284">
        <ele>1.5</ele>
        <time>2022-06-02T09:02:57Z</time>
      </trkpt>
      <trkpt lat="49.43018" lon="-1.2284">
        <ele>1.5</ele>
        <time>2022-06-02T09:02:58Z</time>
      </trkpt>
      <trkpt lat="49.43018" lon="-1.2284">
        <ele>1.5</ele>
        <time>2022-06-02T09:02:59Z</time>
      </trkpt>
      <trkpt lat="49.43018" lon="-1.2284">
        <ele>1.5</ele>
        <time>2022-06-02T09:03:00Z</time>
      </trkpt>
      <trkpt lat="49.43018" lon="-1.2284">
        <ele>1.5</ele>
        <time>2022-06-02T09:03:01Z</time>
      </trkpt>
      <trkpt lat="49.43018" lon="-1.2284">
        <ele>1.5</ele>
        <time>2022-06-02T09:03:02Z</time>
      </trkpt>
      <trkpt lat="49.43018" lon="-1.2284">
        <ele>1.5</ele>
        <time>2022-06-02T09:03:03Z</time>
      </trkpt>
      <trkpt lat="49.43018" lon="-1.2284">
        <ele>1.5</ele>
        <time>2022-06-02T09:03:04Z</time>
      </trkpt>
      <trkpt lat="49.43018" lon="-1.2284">
        <ele>1.5</ele>
        <time>2022-06-02T09:03:05Z</time>
      </trkpt>
      <trkpt lat="49.43018" lon="-1.2284">
        <ele>1.5</ele>
        <time>2022-06-02T09:03:06Z</time>
      </trkpt>
      <trkpt lat="49.43018" lon="-1.2284">
        <ele>1.5</ele>
        <time>2022-06-02T09:03:07Z</time>
      </trkpt>
      <trkpt lat="49.43018" lon="-1.2284">
        <ele>1.5</ele>
        <time>2022-06-02T09:03:08Z</time>
      </trkpt>
      <trkpt lat="49.43018" lon="-1.2284">
        <ele>1.5</ele>
        <time>2022-06-02T09:03:09Z</time>
      </trkpt>
      <trkpt lat="49.43018" lon="-1.2284">
        <ele>1.5</ele>
        <time>2022-06-02T09:03:10Z</time>
      </trkpt>
      <trkpt lat="49.43018" lon="-1.2284">
        <ele>1.5</ele>
        <time>2022-06-02T09:03:11Z</time>
      </trkpt>
      <trkpt lat="49.43018" lon="-1.2284">
        <ele>1.5</ele>
        <time>2022-06-02T09:03:12Z</time>
      </trkpt>
      <trkpt lat="49.43018" lon="-1.2284">
        <ele>1.5</ele>
        <time>2022-06-02T09:03:13Z</time>
      </trkpt>
      <trkpt lat="49.43018" lon="-1.2284">
        <ele>1.5</ele>
        <time>2022-06-02T09:03:14Z</time>
      </trkpt>
      <trkpt lat="49.43018" lon="-1.2284">
        <ele>1.5</ele>
        <time>2022-06-02T09:03:15Z</time>
      </trkpt>
      <trkpt lat="49.43018" lon="-1.2284">
        <ele>1.5</ele>
        <time>2022-06-02T09:03:16Z</time>
      </trkpt>
      <trkpt lat="49.43018" lon="-1.2284">
        <ele>1.5</ele>
        <time>2022-06-02T09:03:17Z</time>
      </trkpt>
      <trkpt lat="49.43018" lon="-1.2284">
        <ele>1.5</ele>
        <time>2022-06-02T09:03:18Z</time>
      </trkpt>
      <trkpt lat="49.43018" lon="-1.2284">
        <ele>1.5</ele>
        <time>2022-06-02T09:03:19Z</time>
      </trkpt>
      <trkpt lat="49.43018" lon="-1.2284">
        <ele>1.5</ele>
        <time>2022-06-02T09:03:20Z</time>
      </trkpt>
      <trkpt lat="49.43018" lon="-1.2284">
        <ele>1.5</ele>
        <time>2022-06-02T09:03:21Z</time>
      </trkpt>
      <trkpt lat="49.43018" lon="-1.2284">
        <ele>1.5</ele>
        <time>2022-06-02T09:03:22Z</time>
      </trkpt>
      <trkpt lat="49.43018" lon="-1.2284">
        <ele>1.5</ele>
        <time>2022-06-02T09:03:23Z</time>
      </trkpt>
      <trkpt lat="49.43018" lon="-1.2284">
        <ele>1.5</ele>
        <time>2022-06-02T09:03:24Z</time>
      </trkpt>
      <trkpt lat="49.43018" lon="-1.2284">
        <ele>1.5</ele>
        <time>2022-06-02T09:03:25Z</time>
      </trkpt>
      <trkpt lat="49.43018" lon="-1.2284">
        <ele>1.5</ele>
        <time>2022-06-02T09:03:26Z</time>
      </trkpt>
      <trkpt lat="49.43018" lon="-1.2284">
        <ele>1.5</ele>
        <time>2022-06-02T09:03:27Z</time>
      </trkpt>
      <trkpt lat="49.43018" lon="-1.2284">
        <ele>1.5</ele>
        <time>2022-06-02T09:03:28Z</time>
      </trkpt>
      <trkpt lat="49.43018" lon="-1.2284">
        <ele>1.5</ele>
        <time>2022-06-02T09:03:29Z</time>
      </trkpt>
      <trkpt lat="49.43018" lon="-1.2284">
        <ele>1.5</ele>
        <time>2022-06-02T09:03:30Z</time>
      </trkpt>
      <trkpt lat="49.43018" lon="-1.2284">
        <ele>1.5</ele>
        <time>2022-06-02T09:03:31Z</time>
      </trkpt>
      <trkpt lat="49.43018" lon="-1.2284">
        <ele>1.5</ele>
        <time>2022-06-02T09:03:32Z</time>
      </trkpt>
      <trkpt lat="49.43018" lon="-1.2284">
        <ele>1.5</ele>
        <time>2022-06-02T09:03:33Z</time>
      </trkpt>
      <trkpt lat="49.43018" lon="-1.2284">
        <ele>1.5</ele>
        <time>2022-06-02T09:03:34Z</time>
      </trkpt>
      <trkpt lat="49.43018" lon="-1.2284">
        <ele>1.5</ele>
        <time>2022-06-02T09:03:35Z</time>
      </trkpt>
      <trkpt lat="49.43018" lon="-1.2284">
        <ele>1.5</ele>
        <time>2022-06-02T09:03:36Z</time>
      </trkpt>
      <trkpt lat="49.43018" lon="-1.2284">
        <ele>1.5</ele>
        <time>2022-06-02T09:03:37Z</time>
      </trkpt>
      <trkpt lat="49.43018" lon="-1.2284">
        <ele>1.5</ele>
        <time>2022-06-02T09:03:38Z</time>
      </trkpt>
      <trkpt lat="49.43018" lon="-1.2284">
        <ele>1.5</ele>
        <time>2022-06-02T09:03:39Z</time>
      </trkpt>
      <trkpt lat="49.43018" lon="-1.2284">
        <ele>1.5</ele>
        <time>2022-06-02T09:03:40Z</time>
      </trkpt>
      <trkpt lat="49.43018" lon="-1.2284">
        <ele>1.5</ele>
        <time>2022-06-02T09:03:41Z</time>
      </trkpt>
      <trkpt lat="49.43018" lon="-1.2284">
        <ele>1.5</ele>
        <time>2022-06-02T09:03:42Z</time>
      </trkpt>
      <trkpt lat="49.43018" lon="-1.2284">
        <ele>1.5</ele>
        <time>2022-06-02T09:03:43Z</time>
      </trkpt>
      <trkpt lat="49.43018" lon="-1.2284">
        <ele>1.5</ele>
        <time>2022-06-02T09:03:44Z</time>
      </trkpt>
      <trkpt lat="49.43018" lon="-1.2284">
        <ele>1.5</ele>
        <time>2022-06-02T09:03:45Z</time>
      </trkpt>
      <trkpt lat="49.43018" lon="-1.2284">
        <ele>1.5</ele>
        <time>2022-06-02T09:03:46Z</time>
      </trkpt>
      <trkpt lat="49.43018" lon="-1.2284">
        <ele>1.5</ele>
        <time>2022-06-02T09:03:47Z</time>
      </trkpt>
      <trkpt lat="49.43018" lon="-1.2284">
        <ele>1.5</ele>
        <time>2022-06-02T09:03:48Z</time>
      </trkpt>
      <trkpt lat="49.43018" lon="-1.2284">
        <ele>1.5</ele>
        <time>2022-06-02T09:03:49Z</time>
      </trkpt>
      <trkpt lat="49.43018" lon="-1.2284">
        <ele>1.5</ele>
        <time>2022-06-02T09:03:50Z</time>
      </trkpt>
      <trkpt lat="49.43018" lon="-1.2284">
        <ele>1.5</ele>
        <time>2022-06-02T09:03:51Z</time>
      </trkpt>
      <trkpt lat="49.43018" lon="-1.2284">
        <ele>1.5</ele>
        <time>2022-06-02T09:03:52Z</time>
      </trkpt>
      <trkpt lat="49.43018" lon="-1.2284">
        <ele>1.5</ele>
        <time>2022-06-02T09:03:53Z</time>
      </trkpt>
      <trkpt lat="49.43018" lon="-1.2284">
        <ele>1.5</ele>
        <time>2022-06-02T09:03:54Z</time>
      </trkpt>
      <trkpt lat="49.43018" lon="-1.2284">
        <ele>1.5</ele>
        <time>2022-06-02T09:03:55Z</time>
      </trkpt>
      <trkpt lat="49.43018" lon="-1.2284">
        <ele>1.5</ele>
        <time>2022-06-02T09:03:56Z</time>
      </trkpt>
      <trkpt lat="49.43018" lon="-1.2284">
        <ele>1.5</ele>
        <time>2022-06-02T09:03:57Z</time>
      </trkpt>
      <trkpt lat="49.43018" lon="-1.2284">
        <ele>1.5</ele>
        <time>2022-06-02T09:03:58Z</time>
      </trkpt>
      <trkpt lat="49.43018" lon="-1.2284">
        <ele>1.5</ele>
        <time>2022-06-02T09:03:59Z</time>
      </trkpt>
      <trkpt lat="49.43018" lon="-1.2284">
        <ele>1.5</ele>
        <time>2022-06-02T09:04:00Z</time>
      </trkpt>
      <trkpt lat="49.43018" lon="-1.2284">
        <ele>1.5</ele>
        <time>2022-06-02T09:04:01Z</time>
      </trkpt>
      <trkpt lat="49.43018" lon="-1.2284">
        <ele>1.5</ele>
        <time>2022-06-02T09:04:02Z</time>
      </trkpt>
      <trkpt lat="49.43018" lon="-1.2284">
        <ele>1.5</ele>
        <time>2022-06-02T09:04:03Z</time>
      </trkpt>
      <trkpt lat="49.43018" lon="-1.2284">
        <ele>1.5</ele>
        <time>2022-06-02T09:04:04Z</time>
      </trkpt>
      <trkpt lat="49.43018" lon="-1.2284">
        <ele>1.5</ele>
        <time>2022-06-02T09:04:05Z</time>
      </trkpt>
      <trkpt lat="49.43018" lon="-1.2284">
        <ele>1.5</ele>
        <time>2022-06-02T09:04:06Z</time>
      </trkpt>
      <trkpt lat="49.43018" lon="-1.2284">
        <ele>1.5</ele>
        <time>2022-06-02T09:04:07Z</time>
      </trkpt>
      <trkpt lat="49.43018" lon="-1.2284">
        <ele>1.5</ele>
        <time>2022-06-02T09:04:08Z</time>
      </trkpt>
      <trkpt lat="49.43018" lon="-1.2284">
        <ele>1.5</ele>
        <time>2022-06-02T09:04:09Z</time>
      </trkpt>
      <trkpt lat="49.43018" lon="-1.2284">
        <ele>1.5</ele>
        <time>2022-06-02T09:04:10Z</time>
      </trkpt>
      <trkpt lat="49.43018" lon="-1.2284">
        <ele>1.5</ele>
        <time>2022-06-02T09:04:11Z</time>
      </trkpt>
      <trkpt lat="49.43018" lon="-1.2284">
        <ele>1.5</ele>
        <time>2022-06-02T09:04:12Z</time>
      </trkpt>
      <trkpt lat="49.43018" lon="-1.2284">
        <ele>1.5</ele>
        <time>2022-06-02T09:04:13Z</time>
      </trkpt>
      <trkpt lat="49.43018" lon="-1.2284">
        <ele>1.5</ele>
        <time>2022-06-02T09:04:14Z</time>
      </trkpt>
      <trkpt lat="49.43018" lon="-1.2284">
        <ele>1.5</ele>
        <time>2022-06-02T09:04:15Z</time>
      </trkpt>
      <trkpt lat="49.43018" lon="-1.2284">
        <ele>1.5</ele>
        <time>2022-06-02T09:04:16Z</time>
      </trkpt>
      <trkpt lat="49.43018" lon="-1.2284">
        <ele>1.5</ele>
        <time>2022-06-02T09:04:17Z</time>
      </trkpt>
      <trkpt lat="49.43018" lon="-1.2284">
        <ele>1.5</ele>
        <time>2022-06-02T09:04:18Z</time>
      </trkpt>
      <trkpt lat="49.43018" lon="-1.2284">
        <ele>1.5</ele>
        <time>2022-06-02T09:04:19Z</time>
      </trkpt>
      <trkpt lat="49.43018" lon="-1.2284">
        <ele>1.5</ele>
        <time>2022-06-02T09:04:20Z</time>
      </trkpt>
      <trkpt lat="49.43018" lon="-1.2284">
        <ele>1.5</ele>
        <time>2022-06-02T09:04:21Z</time>
      </trkpt>
      <trkpt lat="49.43018" lon="-1.2284">
        <ele>1.5</ele>
        <time>2022-06-02T09:04:22Z</time>
      </trkpt>
      <trkpt lat="49.43018" lon="-1.2284">
        <ele>1.5</ele>
        <time>2022-06-02T09:04:23Z</time>
      </trkpt>
      <trkpt lat="49.43018" lon="-1.2284">
        <ele>1.5</ele>
        <time>2022-06-02T09:04:24Z</time>
      </trkpt>
      <trkpt lat="49.43018" lon="-1.2284">
        <ele>1.5</ele>
        <time>2022-06-02T09:04:25Z</time>
      </trkpt>
      <trkpt lat="49.43018" lon="-1.2284">
        <ele>1.5</ele>
        <time>2022-06-02T09:04:26Z</time>
      </trkpt>
      <trkpt lat="49.43018" lon="-1.2284">
        <ele>1.5</ele>
        <time>2022-06-02T09:04:27Z</time>
      </trkpt>
      <trkpt lat="49.43018" lon="-1.2284">
        <ele>1.5</ele>
        <time>2022-06-02T09:04:28Z</time>
      </trkpt>
      <trkpt lat="49.43019" lon="-1.2284">
        <ele>1.5</ele>
        <time>2022-06-02T09:04:29Z</time>
      </trkpt>
      <trkpt lat="49.43019" lon="-1.22839">
        <ele>1.5</ele>
        <time>2022-06-02T09:04:30Z</time>
      </trkpt>
      <trkpt lat="49.4302" lon="-1.22838">
        <ele>1.5</ele>
        <time>2022-06-02T09:04:31Z</time>
      </trkpt>
      <trkpt lat="49.4302" lon="-1.22837">
        <ele>1.5</ele>
        <time>2022-06-02T09:04:32Z</time>
      </trkpt>
      <trkpt lat="49.43021" lon="-1.22835">
        <ele>1.5</ele>
        <time>2022-06-02T09:04:33Z</time>
      </trkpt>
      <trkpt lat="49.4302" lon="-1.22835">
        <ele>1.5</ele>
        <time>2022-06-02T09:04:34Z</time>
      </trkpt>
      <trkpt lat="49.43021" lon="-1.22834">
        <ele>1.5</ele>
        <time>2022-06-02T09:04:35Z</time>
      </trkpt>
      <trkpt lat="49.43024" lon="-1.22831">
        <ele>1.5</ele>
        <time>2022-06-02T09:04:37Z</time>
      </trkpt>
      <trkpt lat="49.43025" lon="-1.22829">
        <ele>1.5</ele>
        <time>2022-06-02T09:04:38Z</time>
      </trkpt>
      <trkpt lat="49.43028" lon="-1.22824">
        <ele>1.5</ele>
        <time>2022-06-02T09:04:39Z</time>
      </trkpt>
      <trkpt lat="49.43029" lon="-1.22821">
        <ele>1.5</ele>
        <time>2022-06-02T09:04:40Z</time>
      </trkpt>
      <trkpt lat="49.43031" lon="-1.22815">
        <ele>1.5</ele>
        <time>2022-06-02T09:04:41Z</time>
      </trkpt>
      <trkpt lat="49.43033" lon="-1.22811">
        <ele>1.5</ele>
        <time>2022-06-02T09:04:43Z</time>
      </trkpt>
      <trkpt lat="49.43032" lon="-1.22809">
        <ele>1.5</ele>
        <time>2022-06-02T09:04:44Z</time>
      </trkpt>
      <trkpt lat="49.43032" lon="-1.22807">
        <ele>1.5</ele>
        <time>2022-06-02T09:04:45Z</time>
      </trkpt>
      <trkpt lat="49.43032" lon="-1.22806">
        <ele>1.5</ele>
        <time>2022-06-02T09:04:46Z</time>
      </trkpt>
      <trkpt lat="49.43032" lon="-1.22805">
        <ele>1.5</ele>
        <time>2022-06-02T09:04:47Z</time>
      </trkpt>
      <trkpt lat="49.43034" lon="-1.22806">
        <ele>1.5</ele>
        <time>2022-06-02T09:04:48Z</time>
      </trkpt>
      <trkpt lat="49.43034" lon="-1.22806">
        <ele>1.5</ele>
        <time>2022-06-02T09:04:49Z</time>
      </trkpt>
      <trkpt lat="49.43034" lon="-1.22806">
        <ele>1.5</ele>
        <time>2022-06-02T09:04:50Z</time>
      </trkpt>
      <trkpt lat="49.43034" lon="-1.22806">
        <ele>1.5</ele>
        <time>2022-06-02T09:04:52Z</time>
      </trkpt>
      <trkpt lat="49.43034" lon="-1.22806">
        <ele>1.5</ele>
        <time>2022-06-02T09:04:53Z</time>
      </trkpt>
      <trkpt lat="49.43034" lon="-1.22807">
        <ele>1.5</ele>
        <time>2022-06-02T09:04:54Z</time>
      </trkpt>
      <trkpt lat="49.43033" lon="-1.22807">
        <ele>1.5</ele>
        <time>2022-06-02T09:04:55Z</time>
      </trkpt>
      <trkpt lat="49.43034" lon="-1.22807">
        <ele>1.5</ele>
        <time>2022-06-02T09:04:56Z</time>
      </trkpt>
      <trkpt lat="49.43034" lon="-1.22806">
        <ele>1.5</ele>
        <time>2022-06-02T09:04:58Z</time>
      </trkpt>
      <trkpt lat="49.43034" lon="-1.22805">
        <ele>1.5</ele>
        <time>2022-06-02T09:04:59Z</time>
      </trkpt>
      <trkpt lat="49.43034" lon="-1.22804">
        <ele>1.5</ele>
        <time>2022-06-02T09:05:00Z</time>
      </trkpt>
      <trkpt lat="49.43034" lon="-1.22803">
        <ele>1.5</ele>
        <time>2022-06-02T09:05:01Z</time>
      </trkpt>
      <trkpt lat="49.43035" lon="-1.22801">
        <ele>1.4</ele>
        <time>2022-06-02T09:05:02Z</time>
      </trkpt>
      <trkpt lat="49.43036" lon="-1.22798">
        <ele>1.4</ele>
        <time>2022-06-02T09:05:03Z</time>
      </trkpt>
      <trkpt lat="49.43036" lon="-1.22797">
        <ele>1.4</ele>
        <time>2022-06-02T09:05:05Z</time>
      </trkpt>
      <trkpt lat="49.43037" lon="-1.22796">
        <ele>1.4</ele>
        <time>2022-06-02T09:05:06Z</time>
      </trkpt>
      <trkpt lat="49.43037" lon="-1.22795">
        <ele>1.4</ele>
        <time>2022-06-02T09:05:07Z</time>
      </trkpt>
      <trkpt lat="49.43038" lon="-1.22793">
        <ele>1.4</ele>
        <time>2022-06-02T09:05:08Z</time>
      </trkpt>
      <trkpt lat="49.43039" lon="-1.22791">
        <ele>1.4</ele>
        <time>2022-06-02T09:05:09Z</time>
      </trkpt>
      <trkpt lat="49.4304" lon="-1.22789">
        <ele>1.4</ele>
        <time>2022-06-02T09:05:11Z</time>
      </trkpt>
      <trkpt lat="49.4304" lon="-1.22788">
        <ele>1.4</ele>
        <time>2022-06-02T09:05:12Z</time>
      </trkpt>
      <trkpt lat="49.43041" lon="-1.22787">
        <ele>1.4</ele>
        <time>2022-06-02T09:05:13Z</time>
      </trkpt>
      <trkpt lat="49.43042" lon="-1.22785">
        <ele>1.4</ele>
        <time>2022-06-02T09:05:14Z</time>
      </trkpt>
      <trkpt lat="49.43042" lon="-1.22784">
        <ele>1.4</ele>
        <time>2022-06-02T09:05:15Z</time>
      </trkpt>
      <trkpt lat="49.43043" lon="-1.22783">
        <ele>1.4</ele>
        <time>2022-06-02T09:05:16Z</time>
      </trkpt>
      <trkpt lat="49.43043" lon="-1.22782">
        <ele>1.4</ele>
        <time>2022-06-02T09:05:18Z</time>
      </trkpt>
      <trkpt lat="49.43044" lon="-1.22781">
        <ele>1.4</ele>
        <time>2022-06-02T09:05:19Z</time>
      </trkpt>
      <trkpt lat="49.43044" lon="-1.2278">
        <ele>1.4</ele>
        <time>2022-06-02T09:05:20Z</time>
      </trkpt>
      <trkpt lat="49.43045" lon="-1.22779">
        <ele>1.4</ele>
        <time>2022-06-02T09:05:21Z</time>
      </trkpt>
      <trkpt lat="49.43045" lon="-1.22777">
        <ele>1.4</ele>
        <time>2022-06-02T09:05:22Z</time>
      </trkpt>
      <trkpt lat="49.43046" lon="-1.22776">
        <ele>1.3</ele>
        <time>2022-06-02T09:05:23Z</time>
      </trkpt>
      <trkpt lat="49.43046" lon="-1.22774">
        <ele>1.3</ele>
        <time>2022-06-02T09:05:25Z</time>
      </trkpt>
      <trkpt lat="49.43046" lon="-1.22773">
        <ele>1.3</ele>
        <time>2022-06-02T09:05:26Z</time>
      </trkpt>
      <trkpt lat="49.43046" lon="-1.22772">
        <ele>1.3</ele>
        <time>2022-06-02T09:05:27Z</time>
      </trkpt>
      <trkpt lat="49.43046" lon="-1.22771">
        <ele>1.3</ele>
        <time>2022-06-02T09:05:28Z</time>
      </trkpt>
      <trkpt lat="49.43045" lon="-1.2277">
        <ele>1.3</ele>
        <time>2022-06-02T09:05:30Z</time>
      </trkpt>
      <trkpt lat="49.43045" lon="-1.22769">
        <ele>1.3</ele>
        <time>2022-06-02T09:05:31Z</time>
      </trkpt>
      <trkpt lat="49.43046" lon="-1.2277">
        <ele>1.3</ele>
        <time>2022-06-02T09:05:32Z</time>
      </trkpt>
      <trkpt lat="49.43046" lon="-1.2277">
        <ele>1.3</ele>
        <time>2022-06-02T09:05:33Z</time>
      </trkpt>
      <trkpt lat="49.43046" lon="-1.2277">
        <ele>1.3</ele>
        <time>2022-06-02T09:05:34Z</time>
      </trkpt>
      <trkpt lat="49.43046" lon="-1.2277">
        <ele>1.3</ele>
        <time>2022-06-02T09:05:35Z</time>
      </trkpt>
      <trkpt lat="49.43047" lon="-1.2277">
        <ele>1.3</ele>
        <time>2022-06-02T09:05:36Z</time>
      </trkpt>
      <trkpt lat="49.43047" lon="-1.22771">
        <ele>1.3</ele>
        <time>2022-06-02T09:05:37Z</time>
      </trkpt>
      <trkpt lat="49.43047" lon="-1.22771">
        <ele>1.3</ele>
        <time>2022-06-02T09:05:38Z</time>
      </trkpt>
      <trkpt lat="49.43047" lon="-1.22771">
        <ele>1.3</ele>
        <time>2022-06-02T09:05:39Z</time>
      </trkpt>
      <trkpt lat="49.43047" lon="-1.22771">
        <ele>1.3</ele>
        <time>2022-06-02T09:05:40Z</time>
      </trkpt>
      <trkpt lat="49.43047" lon="-1.22771">
        <ele>1.3</ele>
        <time>2022-06-02T09:05:41Z</time>
      </trkpt>
      <trkpt lat="49.43047" lon="-1.22771">
        <ele>1.3</ele>
        <time>2022-06-02T09:05:42Z</time>
      </trkpt>
      <trkpt lat="49.43047" lon="-1.22771">
        <ele>1.3</ele>
        <time>2022-06-02T09:05:43Z</time>
      </trkpt>
      <trkpt lat="49.43047" lon="-1.22771">
        <ele>1.3</ele>
        <time>2022-06-02T09:05:44Z</time>
      </trkpt>
      <trkpt lat="49.43047" lon="-1.22771">
        <ele>1.3</ele>
        <time>2022-06-02T09:05:45Z</time>
      </trkpt>
      <trkpt lat="49.43047" lon="-1.22771">
        <ele>1.3</ele>
        <time>2022-06-02T09:05:46Z</time>
      </trkpt>
      <trkpt lat="49.43047" lon="-1.22772">
        <ele>1.3</ele>
        <time>2022-06-02T09:05:47Z</time>
      </trkpt>
      <trkpt lat="49.43047" lon="-1.22772">
        <ele>1.3</ele>
        <time>2022-06-02T09:05:48Z</time>
      </trkpt>
      <trkpt lat="49.43047" lon="-1.22772">
        <ele>1.3</ele>
        <time>2022-06-02T09:05:49Z</time>
      </trkpt>
      <trkpt lat="49.43047" lon="-1.22773">
        <ele>1.3</ele>
        <time>2022-06-02T09:05:50Z</time>
      </trkpt>
      <trkpt lat="49.43047" lon="-1.22773">
        <ele>1.3</ele>
        <time>2022-06-02T09:05:51Z</time>
      </trkpt>
      <trkpt lat="49.43047" lon="-1.22773">
        <ele>1.3</ele>
        <time>2022-06-02T09:05:52Z</time>
      </trkpt>
      <trkpt lat="49.43047" lon="-1.22773">
        <ele>1.3</ele>
        <time>2022-06-02T09:05:53Z</time>
      </trkpt>
      <trkpt lat="49.43047" lon="-1.22773">
        <ele>1.3</ele>
        <time>2022-06-02T09:05:54Z</time>
      </trkpt>
      <trkpt lat="49.43047" lon="-1.22773">
        <ele>1.3</ele>
        <time>2022-06-02T09:05:55Z</time>
      </trkpt>
      <trkpt lat="49.43047" lon="-1.22773">
        <ele>1.3</ele>
        <time>2022-06-02T09:05:56Z</time>
      </trkpt>
      <trkpt lat="49.43047" lon="-1.22773">
        <ele>1.3</ele>
        <time>2022-06-02T09:05:57Z</time>
      </trkpt>
      <trkpt lat="49.43047" lon="-1.22773">
        <ele>1.3</ele>
        <time>2022-06-02T09:05:58Z</time>
      </trkpt>
      <trkpt lat="49.43047" lon="-1.22773">
        <ele>1.3</ele>
        <time>2022-06-02T09:05:59Z</time>
      </trkpt>
      <trkpt lat="49.43047" lon="-1.22773">
        <ele>1.3</ele>
        <time>2022-06-02T09:06:00Z</time>
      </trkpt>
      <trkpt lat="49.43047" lon="-1.22773">
        <ele>1.3</ele>
        <time>2022-06-02T09:06:01Z</time>
      </trkpt>
      <trkpt lat="49.43047" lon="-1.22773">
        <ele>1.3</ele>
        <time>2022-06-02T09:06:02Z</time>
      </trkpt>
      <trkpt lat="49.43047" lon="-1.22773">
        <ele>1.3</ele>
        <time>2022-06-02T09:06:04Z</time>
      </trkpt>
      <trkpt lat="49.43048" lon="-1.22771">
        <ele>1.4</ele>
        <time>2022-06-02T09:06:05Z</time>
      </trkpt>
      <trkpt lat="49.43049" lon="-1.2277">
        <ele>1.4</ele>
        <time>2022-06-02T09:06:06Z</time>
      </trkpt>
      <trkpt lat="49.43049" lon="-1.22768">
        <ele>1.4</ele>
        <time>2022-06-02T09:06:07Z</time>
      </trkpt>
      <trkpt lat="49.4305" lon="-1.22767">
        <ele>1.4</ele>
        <time>2022-06-02T09:06:08Z</time>
      </trkpt>
      <trkpt lat="49.43051" lon="-1.22766">
        <ele>1.4</ele>
        <time>2022-06-02T09:06:09Z</time>
      </trkpt>
      <trkpt lat="49.43051" lon="-1.22766">
        <ele>1.4</ele>
        <time>2022-06-02T09:06:10Z</time>
      </trkpt>
      <trkpt lat="49.43052" lon="-1.22764">
        <ele>1.4</ele>
        <time>2022-06-02T09:06:11Z</time>
      </trkpt>
      <trkpt lat="49.43052" lon="-1.22763">
        <ele>1.4</ele>
        <time>2022-06-02T09:06:12Z</time>
      </trkpt>
      <trkpt lat="49.43053" lon="-1.22761">
        <ele>1.4</ele>
        <time>2022-06-02T09:06:13Z</time>
      </trkpt>
      <trkpt lat="49.43054" lon="-1.22759">
        <ele>1.4</ele>
        <time>2022-06-02T09:06:14Z</time>
      </trkpt>
      <trkpt lat="49.43054" lon="-1.22757">
        <ele>1.4</ele>
        <time>2022-06-02T09:06:15Z</time>
      </trkpt>
      <trkpt lat="49.43055" lon="-1.22756">
        <ele>1.4</ele>
        <time>2022-06-02T09:06:16Z</time>
      </trkpt>
      <trkpt lat="49.43055" lon="-1.22754">
        <ele>1.4</ele>
        <time>2022-06-02T09:06:18Z</time>
      </trkpt>
      <trkpt lat="49.43056" lon="-1.22752">
        <ele>1.4</ele>
        <time>2022-06-02T09:06:19Z</time>
      </trkpt>
      <trkpt lat="49.43057" lon="-1.2275">
        <ele>1.4</ele>
        <time>2022-06-02T09:06:20Z</time>
      </trkpt>
      <trkpt lat="49.43058" lon="-1.22749">
        <ele>1.4</ele>
        <time>2022-06-02T09:06:21Z</time>
      </trkpt>
      <trkpt lat="49.43059" lon="-1.22748">
        <ele>1.4</ele>
        <time>2022-06-02T09:06:22Z</time>
      </trkpt>
      <trkpt lat="49.43059" lon="-1.22746">
        <ele>1.4</ele>
        <time>2022-06-02T09:06:23Z</time>
      </trkpt>
      <trkpt lat="49.43061" lon="-1.22744">
        <ele>1.4</ele>
        <time>2022-06-02T09:06:24Z</time>
      </trkpt>
      <trkpt lat="49.43061" lon="-1.22744">
        <ele>1.4</ele>
        <time>2022-06-02T09:06:25Z</time>
      </trkpt>
      <trkpt lat="49.43062" lon="-1.22743">
        <ele>1.4</ele>
        <time>2022-06-02T09:06:26Z</time>
      </trkpt>
      <trkpt lat="49.43063" lon="-1.22742">
        <ele>1.4</ele>
        <time>2022-06-02T09:06:28Z</time>
      </trkpt>
      <trkpt lat="49.43063" lon="-1.22742">
        <ele>1.4</ele>
        <time>2022-06-02T09:06:29Z</time>
      </trkpt>
      <trkpt lat="49.43064" lon="-1.22741">
        <ele>1.4</ele>
        <time>2022-06-02T09:06:30Z</time>
      </trkpt>
      <trkpt lat="49.43065" lon="-1.2274">
        <ele>1.4</ele>
        <time>2022-06-02T09:06:31Z</time>
      </trkpt>
      <trkpt lat="49.43065" lon="-1.22739">
        <ele>1.4</ele>
        <time>2022-06-02T09:06:32Z</time>
      </trkpt>
      <trkpt lat="49.43066" lon="-1.22738">
        <ele>1.4</ele>
        <time>2022-06-02T09:06:33Z</time>
      </trkpt>
      <trkpt lat="49.43067" lon="-1.22737">
        <ele>1.4</ele>
        <time>2022-06-02T09:06:34Z</time>
      </trkpt>
      <trkpt lat="49.43068" lon="-1.22735">
        <ele>1.4</ele>
        <time>2022-06-02T09:06:35Z</time>
      </trkpt>
      <trkpt lat="49.43069" lon="-1.22733">
        <ele>1.4</ele>
        <time>2022-06-02T09:06:36Z</time>
      </trkpt>
      <trkpt lat="49.43072" lon="-1.2273">
        <ele>1.4</ele>
        <time>2022-06-02T09:06:37Z</time>
      </trkpt>
      <trkpt lat="49.43072" lon="-1.22729">
        <ele>1.4</ele>
        <time>2022-06-02T09:06:38Z</time>
      </trkpt>
      <trkpt lat="49.43074" lon="-1.22728">
        <ele>1.4</ele>
        <time>2022-06-02T09:06:40Z</time>
      </trkpt>
      <trkpt lat="49.43075" lon="-1.22726">
        <ele>1.4</ele>
        <time>2022-06-02T09:06:41Z</time>
      </trkpt>
      <trkpt lat="49.43076" lon="-1.22725">
        <ele>1.4</ele>
        <time>2022-06-02T09:06:42Z</time>
      </trkpt>
      <trkpt lat="49.43077" lon="-1.22723">
        <ele>1.4</ele>
        <time>2022-06-02T09:06:43Z</time>
      </trkpt>
      <trkpt lat="49.43079" lon="-1.22721">
        <ele>1.4</ele>
        <time>2022-06-02T09:06:44Z</time>
      </trkpt>
      <trkpt lat="49.43079" lon="-1.2272">
        <ele>1.4</ele>
        <time>2022-06-02T09:06:45Z</time>
      </trkpt>
      <trkpt lat="49.4308" lon="-1.22719">
        <ele>1.4</ele>
        <time>2022-06-02T09:06:46Z</time>
      </trkpt>
      <trkpt lat="49.43081" lon="-1.22717">
        <ele>1.4</ele>
        <time>2022-06-02T09:06:47Z</time>
      </trkpt>
      <trkpt lat="49.43082" lon="-1.22716">
        <ele>1.4</ele>
        <time>2022-06-02T09:06:48Z</time>
      </trkpt>
      <trkpt lat="49.43083" lon="-1.22714">
        <ele>1.4</ele>
        <time>2022-06-02T09:06:50Z</time>
      </trkpt>
      <trkpt lat="49.43083" lon="-1.22713">
        <ele>1.4</ele>
        <time>2022-06-02T09:06:51Z</time>
      </trkpt>
      <trkpt lat="49.43084" lon="-1.22711">
        <ele>1.4</ele>
        <time>2022-06-02T09:06:52Z</time>
      </trkpt>
      <trkpt lat="49.43084" lon="-1.2271">
        <ele>1.4</ele>
        <time>2022-06-02T09:06:53Z</time>
      </trkpt>
      <trkpt lat="49.43085" lon="-1.22708">
        <ele>1.4</ele>
        <time>2022-06-02T09:06:54Z</time>
      </trkpt>
      <trkpt lat="49.43086" lon="-1.22706">
        <ele>1.4</ele>
        <time>2022-06-02T09:06:55Z</time>
      </trkpt>
      <trkpt lat="49.43087" lon="-1.22704">
        <ele>1.4</ele>
        <time>2022-06-02T09:06:56Z</time>
      </trkpt>
      <trkpt lat="49.43087" lon="-1.22702">
        <ele>1.4</ele>
        <time>2022-06-02T09:06:57Z</time>
      </trkpt>
      <trkpt lat="49.43089" lon="-1.227">
        <ele>1.4</ele>
        <time>2022-06-02T09:06:58Z</time>
      </trkpt>
      <trkpt lat="49.43089" lon="-1.22699">
        <ele>1.4</ele>
        <time>2022-06-02T09:06:59Z</time>
      </trkpt>
      <trkpt lat="49.4309" lon="-1.22698">
        <ele>1.4</ele>
        <time>2022-06-02T09:07:00Z</time>
      </trkpt>
      <trkpt lat="49.43091" lon="-1.22696">
        <ele>1.4</ele>
        <time>2022-06-02T09:07:01Z</time>
      </trkpt>
      <trkpt lat="49.43092" lon="-1.22695">
        <ele>1.4</ele>
        <time>2022-06-02T09:07:03Z</time>
      </trkpt>
      <trkpt lat="49.43093" lon="-1.22694">
        <ele>1.4</ele>
        <time>2022-06-02T09:07:04Z</time>
      </trkpt>
      <trkpt lat="49.43093" lon="-1.22692">
        <ele>1.4</ele>
        <time>2022-06-02T09:07:05Z</time>
      </trkpt>
      <trkpt lat="49.43093" lon="-1.22692">
        <ele>1.4</ele>
        <time>2022-06-02T09:07:06Z</time>
      </trkpt>
      <trkpt lat="49.43093" lon="-1.22692">
        <ele>1.4</ele>
        <time>2022-06-02T09:07:08Z</time>
      </trkpt>
      <trkpt lat="49.43093" lon="-1.22692">
        <ele>1.4</ele>
        <time>2022-06-02T09:07:10Z</time>
      </trkpt>
      <trkpt lat="49.43092" lon="-1.22692">
        <ele>1.4</ele>
        <time>2022-06-02T09:07:11Z</time>
      </trkpt>
      <trkpt lat="49.43092" lon="-1.22692">
        <ele>1.4</ele>
        <time>2022-06-02T09:07:12Z</time>
      </trkpt>
      <trkpt lat="49.43092" lon="-1.22692">
        <ele>1.4</ele>
        <time>2022-06-02T09:07:13Z</time>
      </trkpt>
      <trkpt lat="49.43092" lon="-1.22692">
        <ele>1.4</ele>
        <time>2022-06-02T09:07:14Z</time>
      </trkpt>
      <trkpt lat="49.43092" lon="-1.22692">
        <ele>1.4</ele>
        <time>2022-06-02T09:07:15Z</time>
      </trkpt>
      <trkpt lat="49.43091" lon="-1.22692">
        <ele>1.4</ele>
        <time>2022-06-02T09:07:16Z</time>
      </trkpt>
      <trkpt lat="49.43091" lon="-1.22692">
        <ele>1.4</ele>
        <time>2022-06-02T09:07:17Z</time>
      </trkpt>
      <trkpt lat="49.43091" lon="-1.22692">
        <ele>1.4</ele>
        <time>2022-06-02T09:07:18Z</time>
      </trkpt>
      <trkpt lat="49.43091" lon="-1.22692">
        <ele>1.4</ele>
        <time>2022-06-02T09:07:19Z</time>
      </trkpt>
      <trkpt lat="49.43091" lon="-1.22692">
        <ele>1.4</ele>
        <time>2022-06-02T09:07:20Z</time>
      </trkpt>
      <trkpt lat="49.4309" lon="-1.22692">
        <ele>1.4</ele>
        <time>2022-06-02T09:07:21Z</time>
      </trkpt>
      <trkpt lat="49.4309" lon="-1.22692">
        <ele>1.4</ele>
        <time>2022-06-02T09:07:22Z</time>
      </trkpt>
      <trkpt lat="49.4309" lon="-1.22692">
        <ele>1.4</ele>
        <time>2022-06-02T09:07:30Z</time>
      </trkpt>
      <trkpt lat="49.4309" lon="-1.22692">
        <ele>1.4</ele>
        <time>2022-06-02T09:07:31Z</time>
      </trkpt>
      <trkpt lat="49.4309" lon="-1.22692">
        <ele>1.4</ele>
        <time>2022-06-02T09:07:32Z</time>
      </trkpt>
      <trkpt lat="49.4309" lon="-1.22692">
        <ele>1.4</ele>
        <time>2022-06-02T09:07:33Z</time>
      </trkpt>
      <trkpt lat="49.4309" lon="-1.22691">
        <ele>1.4</ele>
        <time>2022-06-02T09:07:34Z</time>
      </trkpt>
      <trkpt lat="49.43091" lon="-1.2269">
        <ele>1.4</ele>
        <time>2022-06-02T09:07:35Z</time>
      </trkpt>
      <trkpt lat="49.43091" lon="-1.22689">
        <ele>1.4</ele>
        <time>2022-06-02T09:07:36Z</time>
      </trkpt>
      <trkpt lat="49.43091" lon="-1.22689">
        <ele>1.4</ele>
        <time>2022-06-02T09:07:38Z</time>
      </trkpt>
      <trkpt lat="49.43092" lon="-1.22689">
        <ele>1.4</ele>
        <time>2022-06-02T09:07:39Z</time>
      </trkpt>
      <trkpt lat="49.43092" lon="-1.22688">
        <ele>1.4</ele>
        <time>2022-06-02T09:07:40Z</time>
      </trkpt>
      <trkpt lat="49.43092" lon="-1.22688">
        <ele>1.4</ele>
        <time>2022-06-02T09:07:41Z</time>
      </trkpt>
      <trkpt lat="49.43092" lon="-1.22688">
        <ele>1.4</ele>
        <time>2022-06-02T09:07:42Z</time>
      </trkpt>
      <trkpt lat="49.43092" lon="-1.22688">
        <ele>1.4</ele>
        <time>2022-06-02T09:07:43Z</time>
      </trkpt>
      <trkpt lat="49.43092" lon="-1.22688">
        <ele>1.4</ele>
        <time>2022-06-02T09:07:44Z</time>
      </trkpt>
      <trkpt lat="49.43092" lon="-1.22688">
        <ele>1.4</ele>
        <time>2022-06-02T09:07:45Z</time>
      </trkpt>
      <trkpt lat="49.43092" lon="-1.22688">
        <ele>1.4</ele>
        <time>2022-06-02T09:07:46Z</time>
      </trkpt>
      <trkpt lat="49.43092" lon="-1.22688">
        <ele>1.4</ele>
        <time>2022-06-02T09:07:47Z</time>
      </trkpt>
      <trkpt lat="49.43092" lon="-1.22688">
        <ele>1.4</ele>
        <time>2022-06-02T09:07:48Z</time>
      </trkpt>
      <trkpt lat="49.43092" lon="-1.22688">
        <ele>1.4</ele>
        <time>2022-06-02T09:07:49Z</time>
      </trkpt>
      <trkpt lat="49.43092" lon="-1.22688">
        <ele>1.4</ele>
        <time>2022-06-02T09:07:50Z</time>
      </trkpt>
      <trkpt lat="49.43092" lon="-1.22688">
        <ele>1.4</ele>
        <time>2022-06-02T09:07:51Z</time>
      </trkpt>
      <trkpt lat="49.43092" lon="-1.22688">
        <ele>1.4</ele>
        <time>2022-06-02T09:07:52Z</time>
      </trkpt>
      <trkpt lat="49.43092" lon="-1.22688">
        <ele>1.4</ele>
        <time>2022-06-02T09:07:53Z</time>
      </trkpt>
      <trkpt lat="49.43092" lon="-1.22688">
        <ele>1.4</ele>
        <time>2022-06-02T09:07:54Z</time>
      </trkpt>
      <trkpt lat="49.43092" lon="-1.22688">
        <ele>1.4</ele>
        <time>2022-06-02T09:07:55Z</time>
      </trkpt>
      <trkpt lat="49.43092" lon="-1.22688">
        <ele>1.4</ele>
        <time>2022-06-02T09:07:56Z</time>
      </trkpt>
      <trkpt lat="49.43092" lon="-1.22688">
        <ele>1.4</ele>
        <time>2022-06-02T09:07:57Z</time>
      </trkpt>
      <trkpt lat="49.43092" lon="-1.22688">
        <ele>1.4</ele>
        <time>2022-06-02T09:07:58Z</time>
      </trkpt>
      <trkpt lat="49.43092" lon="-1.22688">
        <ele>1.4</ele>
        <time>2022-06-02T09:07:59Z</time>
      </trkpt>
      <trkpt lat="49.43092" lon="-1.22688">
        <ele>1.4</ele>
        <time>2022-06-02T09:08:00Z</time>
      </trkpt>
      <trkpt lat="49.43092" lon="-1.22688">
        <ele>1.4</ele>
        <time>2022-06-02T09:08:01Z</time>
      </trkpt>
      <trkpt lat="49.43092" lon="-1.22688">
        <ele>1.4</ele>
        <time>2022-06-02T09:08:02Z</time>
      </trkpt>
      <trkpt lat="49.43092" lon="-1.22688">
        <ele>1.4</ele>
        <time>2022-06-02T09:08:03Z</time>
      </trkpt>
      <trkpt lat="49.43092" lon="-1.22688">
        <ele>1.4</ele>
        <time>2022-06-02T09:08:04Z</time>
      </trkpt>
      <trkpt lat="49.43092" lon="-1.22688">
        <ele>1.4</ele>
        <time>2022-06-02T09:08:05Z</time>
      </trkpt>
      <trkpt lat="49.43092" lon="-1.22688">
        <ele>1.4</ele>
        <time>2022-06-02T09:08:06Z</time>
      </trkpt>
      <trkpt lat="49.43092" lon="-1.22688">
        <ele>1.4</ele>
        <time>2022-06-02T09:08:07Z</time>
      </trkpt>
      <trkpt lat="49.43092" lon="-1.22688">
        <ele>1.4</ele>
        <time>2022-06-02T09:08:08Z</time>
      </trkpt>
      <trkpt lat="49.43092" lon="-1.22688">
        <ele>1.4</ele>
        <time>2022-06-02T09:08:09Z</time>
      </trkpt>
      <trkpt lat="49.43092" lon="-1.22688">
        <ele>1.4</ele>
        <time>2022-06-02T09:08:10Z</time>
      </trkpt>
      <trkpt lat="49.43092" lon="-1.22688">
        <ele>1.4</ele>
        <time>2022-06-02T09:08:11Z</time>
      </trkpt>
      <trkpt lat="49.43092" lon="-1.22688">
        <ele>1.4</ele>
        <time>2022-06-02T09:08:12Z</time>
      </trkpt>
      <trkpt lat="49.43095" lon="-1.22694">
        <ele>1.4</ele>
        <time>2022-06-02T09:08:29Z</time>
      </trkpt>
      <trkpt lat="49.43094" lon="-1.22696">
        <ele>1.4</ele>
        <time>2022-06-02T09:08:30Z</time>
      </trkpt>
      <trkpt lat="49.43092" lon="-1.22697">
        <ele>1.4</ele>
        <time>2022-06-02T09:08:32Z</time>
      </trkpt>
      <trkpt lat="49.43091" lon="-1.22697">
        <ele>1.4</ele>
        <time>2022-06-02T09:08:33Z</time>
      </trkpt>
      <trkpt lat="49.43091" lon="-1.22697">
        <ele>1.4</ele>
        <time>2022-06-02T09:08:34Z</time>
      </trkpt>
      <trkpt lat="49.43091" lon="-1.22697">
        <ele>1.4</ele>
        <time>2022-06-02T09:08:35Z</time>
      </trkpt>
      <trkpt lat="49.43091" lon="-1.22697">
        <ele>1.4</ele>
        <time>2022-06-02T09:08:36Z</time>
      </trkpt>
      <trkpt lat="49.43091" lon="-1.22697">
        <ele>1.4</ele>
        <time>2022-06-02T09:08:37Z</time>
      </trkpt>
      <trkpt lat="49.43091" lon="-1.22697">
        <ele>1.4</ele>
        <time>2022-06-02T09:08:38Z</time>
      </trkpt>
      <trkpt lat="49.43091" lon="-1.22697">
        <ele>1.4</ele>
        <time>2022-06-02T09:08:39Z</time>
      </trkpt>
      <trkpt lat="49.43091" lon="-1.22697">
        <ele>1.4</ele>
        <time>2022-06-02T09:08:40Z</time>
      </trkpt>
      <trkpt lat="49.43091" lon="-1.22697">
        <ele>1.4</ele>
        <time>2022-06-02T09:08:41Z</time>
      </trkpt>
      <trkpt lat="49.43091" lon="-1.22697">
        <ele>1.4</ele>
        <time>2022-06-02T09:08:42Z</time>
      </trkpt>
      <trkpt lat="49.43091" lon="-1.22697">
        <ele>1.4</ele>
        <time>2022-06-02T09:08:43Z</time>
      </trkpt>
      <trkpt lat="49.43091" lon="-1.22697">
        <ele>1.4</ele>
        <time>2022-06-02T09:08:44Z</time>
      </trkpt>
      <trkpt lat="49.43091" lon="-1.22697">
        <ele>1.4</ele>
        <time>2022-06-02T09:08:45Z</time>
      </trkpt>
      <trkpt lat="49.43091" lon="-1.22697">
        <ele>1.4</ele>
        <time>2022-06-02T09:08:46Z</time>
      </trkpt>
      <trkpt lat="49.43091" lon="-1.22697">
        <ele>1.4</ele>
        <time>2022-06-02T09:08:47Z</time>
      </trkpt>
      <trkpt lat="49.43091" lon="-1.22697">
        <ele>1.4</ele>
        <time>2022-06-02T09:08:48Z</time>
      </trkpt>
      <trkpt lat="49.43091" lon="-1.22697">
        <ele>1.4</ele>
        <time>2022-06-02T09:08:49Z</time>
      </trkpt>
      <trkpt lat="49.43091" lon="-1.22697">
        <ele>1.4</ele>
        <time>2022-06-02T09:08:50Z</time>
      </trkpt>
      <trkpt lat="49.43091" lon="-1.22697">
        <ele>1.4</ele>
        <time>2022-06-02T09:08:51Z</time>
      </trkpt>
      <trkpt lat="49.43091" lon="-1.22696">
        <ele>1.4</ele>
        <time>2022-06-02T09:08:52Z</time>
      </trkpt>
      <trkpt lat="49.43091" lon="-1.22695">
        <ele>1.4</ele>
        <time>2022-06-02T09:08:53Z</time>
      </trkpt>
      <trkpt lat="49.43091" lon="-1.22694">
        <ele>1.4</ele>
        <time>2022-06-02T09:08:54Z</time>
      </trkpt>
      <trkpt lat="49.43092" lon="-1.22692">
        <ele>1.4</ele>
        <time>2022-06-02T09:08:55Z</time>
      </trkpt>
      <trkpt lat="49.43094" lon="-1.22689">
        <ele>1.4</ele>
        <time>2022-06-02T09:08:56Z</time>
      </trkpt>
      <trkpt lat="49.43094" lon="-1.22687">
        <ele>1.4</ele>
        <time>2022-06-02T09:08:57Z</time>
      </trkpt>
      <trkpt lat="49.43095" lon="-1.22685">
        <ele>1.4</ele>
        <time>2022-06-02T09:08:58Z</time>
      </trkpt>
      <trkpt lat="49.43097" lon="-1.22683">
        <ele>1.4</ele>
        <time>2022-06-02T09:08:59Z</time>
      </trkpt>
      <trkpt lat="49.43098" lon="-1.22682">
        <ele>1.4</ele>
        <time>2022-06-02T09:09:00Z</time>
      </trkpt>
      <trkpt lat="49.43099" lon="-1.22679">
        <ele>1.4</ele>
        <time>2022-06-02T09:09:01Z</time>
      </trkpt>
      <trkpt lat="49.431" lon="-1.22677">
        <ele>1.4</ele>
        <time>2022-06-02T09:09:02Z</time>
      </trkpt>
      <trkpt lat="49.43101" lon="-1.22674">
        <ele>1.4</ele>
        <time>2022-06-02T09:09:04Z</time>
      </trkpt>
      <trkpt lat="49.43102" lon="-1.22671">
        <ele>1.4</ele>
        <time>2022-06-02T09:09:05Z</time>
      </trkpt>
      <trkpt lat="49.43102" lon="-1.2267">
        <ele>1.4</ele>
        <time>2022-06-02T09:09:06Z</time>
      </trkpt>
      <trkpt lat="49.43103" lon="-1.22669">
        <ele>1.4</ele>
        <time>2022-06-02T09:09:07Z</time>
      </trkpt>
      <trkpt lat="49.43104" lon="-1.22667">
        <ele>1.4</ele>
        <time>2022-06-02T09:09:08Z</time>
      </trkpt>
      <trkpt lat="49.43104" lon="-1.22666">
        <ele>1.4</ele>
        <time>2022-06-02T09:09:09Z</time>
      </trkpt>
      <trkpt lat="49.43105" lon="-1.22664">
        <ele>1.4</ele>
        <time>2022-06-02T09:09:10Z</time>
      </trkpt>
      <trkpt lat="49.43106" lon="-1.22662">
        <ele>1.4</ele>
        <time>2022-06-02T09:09:12Z</time>
      </trkpt>
      <trkpt lat="49.43107" lon="-1.2266">
        <ele>1.4</ele>
        <time>2022-06-02T09:09:13Z</time>
      </trkpt>
      <trkpt lat="49.43107" lon="-1.22659">
        <ele>1.4</ele>
        <time>2022-06-02T09:09:14Z</time>
      </trkpt>
      <trkpt lat="49.43108" lon="-1.22658">
        <ele>1.4</ele>
        <time>2022-06-02T09:09:15Z</time>
      </trkpt>
      <trkpt lat="49.43109" lon="-1.22657">
        <ele>1.4</ele>
        <time>2022-06-02T09:09:16Z</time>
      </trkpt>
      <trkpt lat="49.43109" lon="-1.22655">
        <ele>1.4</ele>
        <time>2022-06-02T09:09:17Z</time>
      </trkpt>
      <trkpt lat="49.4311" lon="-1.22653">
        <ele>1.4</ele>
        <time>2022-06-02T09:09:19Z</time>
      </trkpt>
      <trkpt lat="49.43111" lon="-1.22652">
        <ele>1.4</ele>
        <time>2022-06-02T09:09:20Z</time>
      </trkpt>
      <trkpt lat="49.43111" lon="-1.22651">
        <ele>1.4</ele>
        <time>2022-06-02T09:09:21Z</time>
      </trkpt>
      <trkpt lat="49.43112" lon="-1.2265">
        <ele>1.4</ele>
        <time>2022-06-02T09:09:22Z</time>
      </trkpt>
      <trkpt lat="49.43113" lon="-1.22648">
        <ele>1.4</ele>
        <time>2022-06-02T09:09:23Z</time>
      </trkpt>
      <trkpt lat="49.43114" lon="-1.22647">
        <ele>1.4</ele>
        <time>2022-06-02T09:09:24Z</time>
      </trkpt>
      <trkpt lat="49.43115" lon="-1.22646">
        <ele>1.4</ele>
        <time>2022-06-02T09:09:25Z</time>
      </trkpt>
      <trkpt lat="49.43116" lon="-1.22644">
        <ele>1.4</ele>
        <time>2022-06-02T09:09:26Z</time>
      </trkpt>
      <trkpt lat="49.43117" lon="-1.22642">
        <ele>1.4</ele>
        <time>2022-06-02T09:09:27Z</time>
      </trkpt>
      <trkpt lat="49.43118" lon="-1.2264">
        <ele>1.5</ele>
        <time>2022-06-02T09:09:29Z</time>
      </trkpt>
      <trkpt lat="49.43119" lon="-1.22639">
        <ele>1.5</ele>
        <time>2022-06-02T09:09:30Z</time>
      </trkpt>
      <trkpt lat="49.4312" lon="-1.22638">
        <ele>1.5</ele>
        <time>2022-06-02T09:09:31Z</time>
      </trkpt>
      <trkpt lat="49.43121" lon="-1.22637">
        <ele>1.5</ele>
        <time>2022-06-02T09:09:32Z</time>
      </trkpt>
      <trkpt lat="49.43122" lon="-1.22635">
        <ele>1.5</ele>
        <time>2022-06-02T09:09:33Z</time>
      </trkpt>
      <trkpt lat="49.43123" lon="-1.22633">
        <ele>1.5</ele>
        <time>2022-06-02T09:09:34Z</time>
      </trkpt>
      <trkpt lat="49.43124" lon="-1.22632">
        <ele>1.5</ele>
        <time>2022-06-02T09:09:35Z</time>
      </trkpt>
      <trkpt lat="49.43124" lon="-1.2263">
        <ele>1.5</ele>
        <time>2022-06-02T09:09:36Z</time>
      </trkpt>
      <trkpt lat="49.43125" lon="-1.22628">
        <ele>1.5</ele>
        <time>2022-06-02T09:09:37Z</time>
      </trkpt>
      <trkpt lat="49.43127" lon="-1.22624">
        <ele>1.5</ele>
        <time>2022-06-02T09:09:39Z</time>
      </trkpt>
      <trkpt lat="49.43128" lon="-1.22623">
        <ele>1.5</ele>
        <time>2022-06-02T09:09:40Z</time>
      </trkpt>
      <trkpt lat="49.43129" lon="-1.22621">
        <ele>1.5</ele>
        <time>2022-06-02T09:09:41Z</time>
      </trkpt>
      <trkpt lat="49.4313" lon="-1.2262">
        <ele>1.5</ele>
        <time>2022-06-02T09:09:42Z</time>
      </trkpt>
      <trkpt lat="49.4313" lon="-1.22618">
        <ele>1.5</ele>
        <time>2022-06-02T09:09:43Z</time>
      </trkpt>
      <trkpt lat="49.43131" lon="-1.22617">
        <ele>1.5</ele>
        <time>2022-06-02T09:09:44Z</time>
      </trkpt>
      <trkpt lat="49.43132" lon="-1.22615">
        <ele>1.5</ele>
        <time>2022-06-02T09:09:46Z</time>
      </trkpt>
      <trkpt lat="49.43133" lon="-1.22613">
        <ele>1.5</ele>
        <time>2022-06-02T09:09:47Z</time>
      </trkpt>
      <trkpt lat="49.43134" lon="-1.22611">
        <ele>1.5</ele>
        <time>2022-06-02T09:09:48Z</time>
      </trkpt>
      <trkpt lat="49.43135" lon="-1.2261">
        <ele>1.5</ele>
        <time>2022-06-02T09:09:49Z</time>
      </trkpt>
      <trkpt lat="49.43135" lon="-1.22608">
        <ele>1.5</ele>
        <time>2022-06-02T09:09:50Z</time>
      </trkpt>
      <trkpt lat="49.43136" lon="-1.22607">
        <ele>1.5</ele>
        <time>2022-06-02T09:09:51Z</time>
      </trkpt>
      <trkpt lat="49.43137" lon="-1.22604">
        <ele>1.5</ele>
        <time>2022-06-02T09:09:52Z</time>
      </trkpt>
      <trkpt lat="49.43137" lon="-1.22603">
        <ele>1.5</ele>
        <time>2022-06-02T09:09:53Z</time>
      </trkpt>
      <trkpt lat="49.43137" lon="-1.22601">
        <ele>1.5</ele>
        <time>2022-06-02T09:09:54Z</time>
      </trkpt>
      <trkpt lat="49.43138" lon="-1.22599">
        <ele>1.5</ele>
        <time>2022-06-02T09:09:55Z</time>
      </trkpt>
      <trkpt lat="49.43139" lon="-1.22597">
        <ele>1.5</ele>
        <time>2022-06-02T09:09:56Z</time>
      </trkpt>
      <trkpt lat="49.43139" lon="-1.22595">
        <ele>1.5</ele>
        <time>2022-06-02T09:09:58Z</time>
      </trkpt>
      <trkpt lat="49.4314" lon="-1.22593">
        <ele>1.5</ele>
        <time>2022-06-02T09:09:59Z</time>
      </trkpt>
      <trkpt lat="49.4314" lon="-1.22591">
        <ele>1.5</ele>
        <time>2022-06-02T09:10:00Z</time>
      </trkpt>
      <trkpt lat="49.43141" lon="-1.22589">
        <ele>1.5</ele>
        <time>2022-06-02T09:10:01Z</time>
      </trkpt>
      <trkpt lat="49.43142" lon="-1.22586">
        <ele>1.5</ele>
        <time>2022-06-02T09:10:02Z</time>
      </trkpt>
      <trkpt lat="49.43142" lon="-1.22584">
        <ele>1.5</ele>
        <time>2022-06-02T09:10:03Z</time>
      </trkpt>
      <trkpt lat="49.43143" lon="-1.22582">
        <ele>1.5</ele>
        <time>2022-06-02T09:10:04Z</time>
      </trkpt>
      <trkpt lat="49.43143" lon="-1.2258">
        <ele>1.5</ele>
        <time>2022-06-02T09:10:05Z</time>
      </trkpt>
      <trkpt lat="49.43144" lon="-1.22578">
        <ele>1.5</ele>
        <time>2022-06-02T09:10:07Z</time>
      </trkpt>
      <trkpt lat="49.43145" lon="-1.22577">
        <ele>1.5</ele>
        <time>2022-06-02T09:10:08Z</time>
      </trkpt>
      <trkpt lat="49.43145" lon="-1.22575">
        <ele>1.6</ele>
        <time>2022-06-02T09:10:09Z</time>
      </trkpt>
      <trkpt lat="49.43146" lon="-1.22573">
        <ele>1.6</ele>
        <time>2022-06-02T09:10:10Z</time>
      </trkpt>
      <trkpt lat="49.43146" lon="-1.22572">
        <ele>1.6</ele>
        <time>2022-06-02T09:10:11Z</time>
      </trkpt>
      <trkpt lat="49.43147" lon="-1.22571">
        <ele>1.6</ele>
        <time>2022-06-02T09:10:12Z</time>
      </trkpt>
      <trkpt lat="49.43147" lon="-1.2257">
        <ele>1.6</ele>
        <time>2022-06-02T09:10:13Z</time>
      </trkpt>
      <trkpt lat="49.43148" lon="-1.22568">
        <ele>1.6</ele>
        <time>2022-06-02T09:10:14Z</time>
      </trkpt>
      <trkpt lat="49.43149" lon="-1.22565">
        <ele>1.7</ele>
        <time>2022-06-02T09:10:15Z</time>
      </trkpt>
      <trkpt lat="49.4315" lon="-1.22564">
        <ele>1.7</ele>
        <time>2022-06-02T09:10:16Z</time>
      </trkpt>
      <trkpt lat="49.4315" lon="-1.22563">
        <ele>1.7</ele>
        <time>2022-06-02T09:10:17Z</time>
      </trkpt>
      <trkpt lat="49.43151" lon="-1.22561">
        <ele>1.7</ele>
        <time>2022-06-02T09:10:19Z</time>
      </trkpt>
      <trkpt lat="49.43151" lon="-1.22559">
        <ele>1.7</ele>
        <time>2022-06-02T09:10:20Z</time>
      </trkpt>
      <trkpt lat="49.43152" lon="-1.22557">
        <ele>1.7</ele>
        <time>2022-06-02T09:10:21Z</time>
      </trkpt>
      <trkpt lat="49.43153" lon="-1.22556">
        <ele>1.7</ele>
        <time>2022-06-02T09:10:22Z</time>
      </trkpt>
      <trkpt lat="49.43153" lon="-1.22554">
        <ele>1.7</ele>
        <time>2022-06-02T09:10:23Z</time>
      </trkpt>
      <trkpt lat="49.43154" lon="-1.22553">
        <ele>1.7</ele>
        <time>2022-06-02T09:10:24Z</time>
      </trkpt>
      <trkpt lat="49.43155" lon="-1.22551">
        <ele>1.7</ele>
        <time>2022-06-02T09:10:25Z</time>
      </trkpt>
      <trkpt lat="49.43156" lon="-1.22548">
        <ele>1.7</ele>
        <time>2022-06-02T09:10:27Z</time>
      </trkpt>
      <trkpt lat="49.43156" lon="-1.22547">
        <ele>1.7</ele>
        <time>2022-06-02T09:10:28Z</time>
      </trkpt>
      <trkpt lat="49.43157" lon="-1.22546">
        <ele>1.7</ele>
        <time>2022-06-02T09:10:29Z</time>
      </trkpt>
      <trkpt lat="49.43158" lon="-1.22544">
        <ele>1.7</ele>
        <time>2022-06-02T09:10:30Z</time>
      </trkpt>
      <trkpt lat="49.43159" lon="-1.22543">
        <ele>1.7</ele>
        <time>2022-06-02T09:10:31Z</time>
      </trkpt>
      <trkpt lat="49.4316" lon="-1.22542">
        <ele>1.7</ele>
        <time>2022-06-02T09:10:32Z</time>
      </trkpt>
      <trkpt lat="49.4316" lon="-1.22541">
        <ele>1.7</ele>
        <time>2022-06-02T09:10:33Z</time>
      </trkpt>
      <trkpt lat="49.43161" lon="-1.2254">
        <ele>1.7</ele>
        <time>2022-06-02T09:10:34Z</time>
      </trkpt>
      <trkpt lat="49.43162" lon="-1.22538">
        <ele>1.7</ele>
        <time>2022-06-02T09:10:36Z</time>
      </trkpt>
      <trkpt lat="49.43162" lon="-1.22537">
        <ele>1.6</ele>
        <time>2022-06-02T09:10:37Z</time>
      </trkpt>
      <trkpt lat="49.43163" lon="-1.22535">
        <ele>1.6</ele>
        <time>2022-06-02T09:10:38Z</time>
      </trkpt>
      <trkpt lat="49.43164" lon="-1.22534">
        <ele>1.6</ele>
        <time>2022-06-02T09:10:39Z</time>
      </trkpt>
      <trkpt lat="49.43165" lon="-1.22531">
        <ele>1.6</ele>
        <time>2022-06-02T09:10:40Z</time>
      </trkpt>
      <trkpt lat="49.43165" lon="-1.2253">
        <ele>1.6</ele>
        <time>2022-06-02T09:10:41Z</time>
      </trkpt>
      <trkpt lat="49.43166" lon="-1.22529">
        <ele>1.6</ele>
        <time>2022-06-02T09:10:42Z</time>
      </trkpt>
      <trkpt lat="49.43166" lon="-1.22528">
        <ele>1.6</ele>
        <time>2022-06-02T09:10:43Z</time>
      </trkpt>
      <trkpt lat="49.43166" lon="-1.22526">
        <ele>1.6</ele>
        <time>2022-06-02T09:10:44Z</time>
      </trkpt>
      <trkpt lat="49.43167" lon="-1.22525">
        <ele>1.6</ele>
        <time>2022-06-02T09:10:45Z</time>
      </trkpt>
      <trkpt lat="49.43168" lon="-1.22522">
        <ele>1.6</ele>
        <time>2022-06-02T09:10:46Z</time>
      </trkpt>
      <trkpt lat="49.43168" lon="-1.2252">
        <ele>1.6</ele>
        <time>2022-06-02T09:10:47Z</time>
      </trkpt>
      <trkpt lat="49.43169" lon="-1.22519">
        <ele>1.6</ele>
        <time>2022-06-02T09:10:48Z</time>
      </trkpt>
      <trkpt lat="49.4317" lon="-1.22517">
        <ele>1.6</ele>
        <time>2022-06-02T09:10:50Z</time>
      </trkpt>
      <trkpt lat="49.4317" lon="-1.22516">
        <ele>1.6</ele>
        <time>2022-06-02T09:10:51Z</time>
      </trkpt>
      <trkpt lat="49.43171" lon="-1.22513">
        <ele>1.6</ele>
        <time>2022-06-02T09:10:52Z</time>
      </trkpt>
      <trkpt lat="49.43172" lon="-1.22512">
        <ele>1.6</ele>
        <time>2022-06-02T09:10:53Z</time>
      </trkpt>
      <trkpt lat="49.43172" lon="-1.22511">
        <ele>1.6</ele>
        <time>2022-06-02T09:10:54Z</time>
      </trkpt>
      <trkpt lat="49.43173" lon="-1.22509">
        <ele>1.6</ele>
        <time>2022-06-02T09:10:56Z</time>
      </trkpt>
      <trkpt lat="49.43174" lon="-1.22507">
        <ele>1.6</ele>
        <time>2022-06-02T09:10:57Z</time>
      </trkpt>
      <trkpt lat="49.43175" lon="-1.22505">
        <ele>1.6</ele>
        <time>2022-06-02T09:10:58Z</time>
      </trkpt>
      <trkpt lat="49.43176" lon="-1.22504">
        <ele>1.6</ele>
        <time>2022-06-02T09:10:59Z</time>
      </trkpt>
      <trkpt lat="49.43176" lon="-1.22503">
        <ele>1.6</ele>
        <time>2022-06-02T09:11:00Z</time>
      </trkpt>
      <trkpt lat="49.43177" lon="-1.22501">
        <ele>1.6</ele>
        <time>2022-06-02T09:11:01Z</time>
      </trkpt>
      <trkpt lat="49.43178" lon="-1.22499">
        <ele>1.6</ele>
        <time>2022-06-02T09:11:02Z</time>
      </trkpt>
      <trkpt lat="49.43179" lon="-1.22498">
        <ele>1.6</ele>
        <time>2022-06-02T09:11:03Z</time>
      </trkpt>
      <trkpt lat="49.43181" lon="-1.22494">
        <ele>1.6</ele>
        <time>2022-06-02T09:11:05Z</time>
      </trkpt>
      <trkpt lat="49.43181" lon="-1.22491">
        <ele>1.6</ele>
        <time>2022-06-02T09:11:07Z</time>
      </trkpt>
      <trkpt lat="49.43182" lon="-1.2249">
        <ele>1.6</ele>
        <time>2022-06-02T09:11:08Z</time>
      </trkpt>
      <trkpt lat="49.43183" lon="-1.22488">
        <ele>1.6</ele>
        <time>2022-06-02T09:11:09Z</time>
      </trkpt>
      <trkpt lat="49.43184" lon="-1.22486">
        <ele>1.6</ele>
        <time>2022-06-02T09:11:10Z</time>
      </trkpt>
      <trkpt lat="49.43184" lon="-1.22484">
        <ele>1.6</ele>
        <time>2022-06-02T09:11:11Z</time>
      </trkpt>
      <trkpt lat="49.43185" lon="-1.22482">
        <ele>1.6</ele>
        <time>2022-06-02T09:11:12Z</time>
      </trkpt>
      <trkpt lat="49.43186" lon="-1.2248">
        <ele>1.6</ele>
        <time>2022-06-02T09:11:13Z</time>
      </trkpt>
      <trkpt lat="49.43187" lon="-1.22478">
        <ele>1.6</ele>
        <time>2022-06-02T09:11:15Z</time>
      </trkpt>
      <trkpt lat="49.43187" lon="-1.22476">
        <ele>1.6</ele>
        <time>2022-06-02T09:11:16Z</time>
      </trkpt>
      <trkpt lat="49.43188" lon="-1.22473">
        <ele>1.5</ele>
        <time>2022-06-02T09:11:18Z</time>
      </trkpt>
      <trkpt lat="49.43189" lon="-1.22471">
        <ele>1.5</ele>
        <time>2022-06-02T09:11:19Z</time>
      </trkpt>
      <trkpt lat="49.4319" lon="-1.2247">
        <ele>1.5</ele>
        <time>2022-06-02T09:11:20Z</time>
      </trkpt>
      <trkpt lat="49.4319" lon="-1.22468">
        <ele>1.5</ele>
        <time>2022-06-02T09:11:21Z</time>
      </trkpt>
      <trkpt lat="49.43191" lon="-1.22466">
        <ele>1.5</ele>
        <time>2022-06-02T09:11:22Z</time>
      </trkpt>
      <trkpt lat="49.43192" lon="-1.22464">
        <ele>1.5</ele>
        <time>2022-06-02T09:11:23Z</time>
      </trkpt>
      <trkpt lat="49.43192" lon="-1.22462">
        <ele>1.5</ele>
        <time>2022-06-02T09:11:24Z</time>
      </trkpt>
      <trkpt lat="49.43193" lon="-1.2246">
        <ele>1.5</ele>
        <time>2022-06-02T09:11:25Z</time>
      </trkpt>
      <trkpt lat="49.43194" lon="-1.22457">
        <ele>1.5</ele>
        <time>2022-06-02T09:11:26Z</time>
      </trkpt>
      <trkpt lat="49.43195" lon="-1.22456">
        <ele>1.5</ele>
        <time>2022-06-02T09:11:28Z</time>
      </trkpt>
      <trkpt lat="49.43196" lon="-1.22454">
        <ele>1.5</ele>
        <time>2022-06-02T09:11:29Z</time>
      </trkpt>
      <trkpt lat="49.43196" lon="-1.22453">
        <ele>1.5</ele>
        <time>2022-06-02T09:11:30Z</time>
      </trkpt>
      <trkpt lat="49.43197" lon="-1.22451">
        <ele>1.5</ele>
        <time>2022-06-02T09:11:31Z</time>
      </trkpt>
      <trkpt lat="49.43198" lon="-1.22449">
        <ele>1.5</ele>
        <time>2022-06-02T09:11:32Z</time>
      </trkpt>
      <trkpt lat="49.43198" lon="-1.22448">
        <ele>1.5</ele>
        <time>2022-06-02T09:11:33Z</time>
      </trkpt>
      <trkpt lat="49.43199" lon="-1.22447">
        <ele>1.5</ele>
        <time>2022-06-02T09:11:34Z</time>
      </trkpt>
      <trkpt lat="49.432" lon="-1.22443">
        <ele>1.5</ele>
        <time>2022-06-02T09:11:35Z</time>
      </trkpt>
      <trkpt lat="49.43201" lon="-1.22442">
        <ele>1.5</ele>
        <time>2022-06-02T09:11:37Z</time>
      </trkpt>
      <trkpt lat="49.43202" lon="-1.2244">
        <ele>1.5</ele>
        <time>2022-06-02T09:11:38Z</time>
      </trkpt>
      <trkpt lat="49.43202" lon="-1.22439">
        <ele>1.5</ele>
        <time>2022-06-02T09:11:39Z</time>
      </trkpt>
      <trkpt lat="49.43203" lon="-1.22437">
        <ele>1.5</ele>
        <time>2022-06-02T09:11:40Z</time>
      </trkpt>
      <trkpt lat="49.43204" lon="-1.22436">
        <ele>1.5</ele>
        <time>2022-06-02T09:11:41Z</time>
      </trkpt>
      <trkpt lat="49.43205" lon="-1.22434">
        <ele>1.5</ele>
        <time>2022-06-02T09:11:42Z</time>
      </trkpt>
      <trkpt lat="49.43205" lon="-1.22433">
        <ele>1.5</ele>
        <time>2022-06-02T09:11:43Z</time>
      </trkpt>
      <trkpt lat="49.43207" lon="-1.22431">
        <ele>1.5</ele>
        <time>2022-06-02T09:11:44Z</time>
      </trkpt>
      <trkpt lat="49.43208" lon="-1.22428">
        <ele>1.5</ele>
        <time>2022-06-02T09:11:46Z</time>
      </trkpt>
      <trkpt lat="49.43208" lon="-1.22427">
        <ele>1.5</ele>
        <time>2022-06-02T09:11:47Z</time>
      </trkpt>
      <trkpt lat="49.43209" lon="-1.22426">
        <ele>1.5</ele>
        <time>2022-06-02T09:11:48Z</time>
      </trkpt>
      <trkpt lat="49.4321" lon="-1.22424">
        <ele>1.5</ele>
        <time>2022-06-02T09:11:49Z</time>
      </trkpt>
      <trkpt lat="49.4321" lon="-1.22423">
        <ele>1.5</ele>
        <time>2022-06-02T09:11:50Z</time>
      </trkpt>
      <trkpt lat="49.43211" lon="-1.22421">
        <ele>1.5</ele>
        <time>2022-06-02T09:11:51Z</time>
      </trkpt>
      <trkpt lat="49.43211" lon="-1.2242">
        <ele>1.5</ele>
        <time>2022-06-02T09:11:52Z</time>
      </trkpt>
      <trkpt lat="49.43212" lon="-1.22418">
        <ele>1.5</ele>
        <time>2022-06-02T09:11:53Z</time>
      </trkpt>
      <trkpt lat="49.43214" lon="-1.22415">
        <ele>1.5</ele>
        <time>2022-06-02T09:11:54Z</time>
      </trkpt>
      <trkpt lat="49.43214" lon="-1.22413">
        <ele>1.4</ele>
        <time>2022-06-02T09:11:56Z</time>
      </trkpt>
      <trkpt lat="49.43215" lon="-1.22412">
        <ele>1.4</ele>
        <time>2022-06-02T09:11:57Z</time>
      </trkpt>
      <trkpt lat="49.43215" lon="-1.2241">
        <ele>1.4</ele>
        <time>2022-06-02T09:11:58Z</time>
      </trkpt>
      <trkpt lat="49.43216" lon="-1.22409">
        <ele>1.4</ele>
        <time>2022-06-02T09:11:59Z</time>
      </trkpt>
      <trkpt lat="49.43217" lon="-1.22405">
        <ele>1.4</ele>
        <time>2022-06-02T09:12:00Z</time>
      </trkpt>
      <trkpt lat="49.43218" lon="-1.22404">
        <ele>1.4</ele>
        <time>2022-06-02T09:12:01Z</time>
      </trkpt>
      <trkpt lat="49.43218" lon="-1.22403">
        <ele>1.4</ele>
        <time>2022-06-02T09:12:02Z</time>
      </trkpt>
      <trkpt lat="49.43219" lon="-1.22401">
        <ele>1.3</ele>
        <time>2022-06-02T09:12:04Z</time>
      </trkpt>
      <trkpt lat="49.43219" lon="-1.224">
        <ele>1.3</ele>
        <time>2022-06-02T09:12:05Z</time>
      </trkpt>
      <trkpt lat="49.4322" lon="-1.22398">
        <ele>1.3</ele>
        <time>2022-06-02T09:12:06Z</time>
      </trkpt>
      <trkpt lat="49.43221" lon="-1.22397">
        <ele>1.3</ele>
        <time>2022-06-02T09:12:07Z</time>
      </trkpt>
      <trkpt lat="49.43221" lon="-1.22395">
        <ele>1.3</ele>
        <time>2022-06-02T09:12:08Z</time>
      </trkpt>
      <trkpt lat="49.43221" lon="-1.22394">
        <ele>1.3</ele>
        <time>2022-06-02T09:12:09Z</time>
      </trkpt>
      <trkpt lat="49.43223" lon="-1.22391">
        <ele>1.2</ele>
        <time>2022-06-02T09:12:10Z</time>
      </trkpt>
      <trkpt lat="49.43223" lon="-1.2239">
        <ele>1.2</ele>
        <time>2022-06-02T09:12:11Z</time>
      </trkpt>
      <trkpt lat="49.43224" lon="-1.22388">
        <ele>1.2</ele>
        <time>2022-06-02T09:12:12Z</time>
      </trkpt>
      <trkpt lat="49.43225" lon="-1.22385">
        <ele>1.2</ele>
        <time>2022-06-02T09:12:14Z</time>
      </trkpt>
      <trkpt lat="49.43225" lon="-1.22384">
        <ele>1.2</ele>
        <time>2022-06-02T09:12:15Z</time>
      </trkpt>
      <trkpt lat="49.43226" lon="-1.22383">
        <ele>1.2</ele>
        <time>2022-06-02T09:12:16Z</time>
      </trkpt>
      <trkpt lat="49.43226" lon="-1.22381">
        <ele>1.2</ele>
        <time>2022-06-02T09:12:17Z</time>
      </trkpt>
      <trkpt lat="49.43227" lon="-1.2238">
        <ele>1.2</ele>
        <time>2022-06-02T09:12:18Z</time>
      </trkpt>
      <trkpt lat="49.43228" lon="-1.22378">
        <ele>1.2</ele>
        <time>2022-06-02T09:12:19Z</time>
      </trkpt>
      <trkpt lat="49.43229" lon="-1.22377">
        <ele>1.2</ele>
        <time>2022-06-02T09:12:20Z</time>
      </trkpt>
      <trkpt lat="49.43229" lon="-1.22375">
        <ele>1.2</ele>
        <time>2022-06-02T09:12:21Z</time>
      </trkpt>
      <trkpt lat="49.4323" lon="-1.22374">
        <ele>1.2</ele>
        <time>2022-06-02T09:12:22Z</time>
      </trkpt>
      <trkpt lat="49.43231" lon="-1.22373">
        <ele>1.2</ele>
        <time>2022-06-02T09:12:23Z</time>
      </trkpt>
      <trkpt lat="49.43231" lon="-1.22372">
        <ele>1.2</ele>
        <time>2022-06-02T09:12:24Z</time>
      </trkpt>
      <trkpt lat="49.43232" lon="-1.2237">
        <ele>1.3</ele>
        <time>2022-06-02T09:12:25Z</time>
      </trkpt>
      <trkpt lat="49.43233" lon="-1.22369">
        <ele>1.3</ele>
        <time>2022-06-02T09:12:26Z</time>
      </trkpt>
      <trkpt lat="49.43233" lon="-1.22367">
        <ele>1.3</ele>
        <time>2022-06-02T09:12:27Z</time>
      </trkpt>
      <trkpt lat="49.43234" lon="-1.22366">
        <ele>1.3</ele>
        <time>2022-06-02T09:12:28Z</time>
      </trkpt>
      <trkpt lat="49.43234" lon="-1.22364">
        <ele>1.3</ele>
        <time>2022-06-02T09:12:30Z</time>
      </trkpt>
      <trkpt lat="49.43235" lon="-1.22363">
        <ele>1.3</ele>
        <time>2022-06-02T09:12:31Z</time>
      </trkpt>
      <trkpt lat="49.43235" lon="-1.22361">
        <ele>1.4</ele>
        <time>2022-06-02T09:12:32Z</time>
      </trkpt>
      <trkpt lat="49.43237" lon="-1.22359">
        <ele>1.4</ele>
        <time>2022-06-02T09:12:33Z</time>
      </trkpt>
      <trkpt lat="49.43237" lon="-1.22358">
        <ele>1.4</ele>
        <time>2022-06-02T09:12:34Z</time>
      </trkpt>
      <trkpt lat="49.43238" lon="-1.22357">
        <ele>1.4</ele>
        <time>2022-06-02T09:12:35Z</time>
      </trkpt>
      <trkpt lat="49.4324" lon="-1.22354">
        <ele>1.4</ele>
        <time>2022-06-02T09:12:36Z</time>
      </trkpt>
      <trkpt lat="49.4324" lon="-1.22353">
        <ele>1.4</ele>
        <time>2022-06-02T09:12:38Z</time>
      </trkpt>
      <trkpt lat="49.43241" lon="-1.22352">
        <ele>1.4</ele>
        <time>2022-06-02T09:12:39Z</time>
      </trkpt>
      <trkpt lat="49.43242" lon="-1.22351">
        <ele>1.5</ele>
        <time>2022-06-02T09:12:40Z</time>
      </trkpt>
      <trkpt lat="49.43243" lon="-1.22349">
        <ele>1.5</ele>
        <time>2022-06-02T09:12:41Z</time>
      </trkpt>
      <trkpt lat="49.43244" lon="-1.22347">
        <ele>1.5</ele>
        <time>2022-06-02T09:12:42Z</time>
      </trkpt>
      <trkpt lat="49.43245" lon="-1.22346">
        <ele>1.5</ele>
        <time>2022-06-02T09:12:44Z</time>
      </trkpt>
      <trkpt lat="49.43246" lon="-1.22344">
        <ele>1.5</ele>
        <time>2022-06-02T09:12:45Z</time>
      </trkpt>
      <trkpt lat="49.43247" lon="-1.22343">
        <ele>1.5</ele>
        <time>2022-06-02T09:12:46Z</time>
      </trkpt>
      <trkpt lat="49.43248" lon="-1.22342">
        <ele>1.5</ele>
        <time>2022-06-02T09:12:47Z</time>
      </trkpt>
      <trkpt lat="49.43248" lon="-1.2234">
        <ele>1.5</ele>
        <time>2022-06-02T09:12:48Z</time>
      </trkpt>
      <trkpt lat="49.43249" lon="-1.22339">
        <ele>1.5</ele>
        <time>2022-06-02T09:12:49Z</time>
      </trkpt>
      <trkpt lat="49.4325" lon="-1.22337">
        <ele>1.5</ele>
        <time>2022-06-02T09:12:50Z</time>
      </trkpt>
      <trkpt lat="49.43251" lon="-1.22335">
        <ele>1.5</ele>
        <time>2022-06-02T09:12:51Z</time>
      </trkpt>
      <trkpt lat="49.43251" lon="-1.22334">
        <ele>1.5</ele>
        <time>2022-06-02T09:12:52Z</time>
      </trkpt>
      <trkpt lat="49.43252" lon="-1.22333">
        <ele>1.5</ele>
        <time>2022-06-02T09:12:53Z</time>
      </trkpt>
      <trkpt lat="49.43253" lon="-1.2233">
        <ele>1.5</ele>
        <time>2022-06-02T09:12:55Z</time>
      </trkpt>
      <trkpt lat="49.43254" lon="-1.22329">
        <ele>1.5</ele>
        <time>2022-06-02T09:12:56Z</time>
      </trkpt>
      <trkpt lat="49.43255" lon="-1.22328">
        <ele>1.5</ele>
        <time>2022-06-02T09:12:57Z</time>
      </trkpt>
      <trkpt lat="49.43255" lon="-1.22326">
        <ele>1.5</ele>
        <time>2022-06-02T09:12:58Z</time>
      </trkpt>
      <trkpt lat="49.43256" lon="-1.22325">
        <ele>1.5</ele>
        <time>2022-06-02T09:12:59Z</time>
      </trkpt>
      <trkpt lat="49.43256" lon="-1.22323">
        <ele>1.5</ele>
        <time>2022-06-02T09:13:00Z</time>
      </trkpt>
      <trkpt lat="49.43257" lon="-1.22322">
        <ele>1.5</ele>
        <time>2022-06-02T09:13:01Z</time>
      </trkpt>
      <trkpt lat="49.43258" lon="-1.22321">
        <ele>1.5</ele>
        <time>2022-06-02T09:13:02Z</time>
      </trkpt>
      <trkpt lat="49.43259" lon="-1.22319">
        <ele>1.5</ele>
        <time>2022-06-02T09:13:03Z</time>
      </trkpt>
      <trkpt lat="49.43259" lon="-1.22317">
        <ele>1.5</ele>
        <time>2022-06-02T09:13:04Z</time>
      </trkpt>
      <trkpt lat="49.4326" lon="-1.22316">
        <ele>1.5</ele>
        <time>2022-06-02T09:13:05Z</time>
      </trkpt>
      <trkpt lat="49.43261" lon="-1.22314">
        <ele>1.5</ele>
        <time>2022-06-02T09:13:06Z</time>
      </trkpt>
      <trkpt lat="49.43262" lon="-1.22311">
        <ele>1.5</ele>
        <time>2022-06-02T09:13:08Z</time>
      </trkpt>
      <trkpt lat="49.43263" lon="-1.22309">
        <ele>1.5</ele>
        <time>2022-06-02T09:13:09Z</time>
      </trkpt>
      <trkpt lat="49.43264" lon="-1.22307">
        <ele>1.5</ele>
        <time>2022-06-02T09:13:11Z</time>
      </trkpt>
      <trkpt lat="49.43265" lon="-1.22305">
        <ele>1.5</ele>
        <time>2022-06-02T09:13:12Z</time>
      </trkpt>
      <trkpt lat="49.43266" lon="-1.22302">
        <ele>1.5</ele>
        <time>2022-06-02T09:13:13Z</time>
      </trkpt>
      <trkpt lat="49.43266" lon="-1.22301">
        <ele>1.5</ele>
        <time>2022-06-02T09:13:14Z</time>
      </trkpt>
      <trkpt lat="49.43267" lon="-1.223">
        <ele>1.5</ele>
        <time>2022-06-02T09:13:15Z</time>
      </trkpt>
      <trkpt lat="49.43267" lon="-1.22298">
        <ele>1.5</ele>
        <time>2022-06-02T09:13:16Z</time>
      </trkpt>
      <trkpt lat="49.43268" lon="-1.22296">
        <ele>1.5</ele>
        <time>2022-06-02T09:13:17Z</time>
      </trkpt>
      <trkpt lat="49.4327" lon="-1.22294">
        <ele>1.5</ele>
        <time>2022-06-02T09:13:19Z</time>
      </trkpt>
      <trkpt lat="49.4327" lon="-1.22293">
        <ele>1.5</ele>
        <time>2022-06-02T09:13:20Z</time>
      </trkpt>
      <trkpt lat="49.43271" lon="-1.22292">
        <ele>1.5</ele>
        <time>2022-06-02T09:13:21Z</time>
      </trkpt>
      <trkpt lat="49.43272" lon="-1.2229">
        <ele>1.5</ele>
        <time>2022-06-02T09:13:22Z</time>
      </trkpt>
      <trkpt lat="49.43273" lon="-1.22289">
        <ele>1.5</ele>
        <time>2022-06-02T09:13:23Z</time>
      </trkpt>
      <trkpt lat="49.43273" lon="-1.22288">
        <ele>1.5</ele>
        <time>2022-06-02T09:13:24Z</time>
      </trkpt>
      <trkpt lat="49.43274" lon="-1.22285">
        <ele>1.5</ele>
        <time>2022-06-02T09:13:25Z</time>
      </trkpt>
      <trkpt lat="49.43275" lon="-1.22284">
        <ele>1.5</ele>
        <time>2022-06-02T09:13:26Z</time>
      </trkpt>
      <trkpt lat="49.43275" lon="-1.22283">
        <ele>1.5</ele>
        <time>2022-06-02T09:13:27Z</time>
      </trkpt>
      <trkpt lat="49.43276" lon="-1.22282">
        <ele>1.5</ele>
        <time>2022-06-02T09:13:28Z</time>
      </trkpt>
      <trkpt lat="49.43277" lon="-1.2228">
        <ele>1.5</ele>
        <time>2022-06-02T09:13:29Z</time>
      </trkpt>
      <trkpt lat="49.43278" lon="-1.22278">
        <ele>1.5</ele>
        <time>2022-06-02T09:13:31Z</time>
      </trkpt>
      <trkpt lat="49.43278" lon="-1.22276">
        <ele>1.5</ele>
        <time>2022-06-02T09:13:32Z</time>
      </trkpt>
      <trkpt lat="49.43279" lon="-1.22275">
        <ele>1.5</ele>
        <time>2022-06-02T09:13:33Z</time>
      </trkpt>
      <trkpt lat="49.43279" lon="-1.22273">
        <ele>1.5</ele>
        <time>2022-06-02T09:13:34Z</time>
      </trkpt>
      <trkpt lat="49.4328" lon="-1.22272">
        <ele>1.5</ele>
        <time>2022-06-02T09:13:35Z</time>
      </trkpt>
      <trkpt lat="49.43281" lon="-1.2227">
        <ele>1.5</ele>
        <time>2022-06-02T09:13:36Z</time>
      </trkpt>
      <trkpt lat="49.43281" lon="-1.22268">
        <ele>1.5</ele>
        <time>2022-06-02T09:13:38Z</time>
      </trkpt>
      <trkpt lat="49.43282" lon="-1.22265">
        <ele>1.5</ele>
        <time>2022-06-02T09:13:39Z</time>
      </trkpt>
      <trkpt lat="49.43282" lon="-1.22264">
        <ele>1.5</ele>
        <time>2022-06-02T09:13:40Z</time>
      </trkpt>
      <trkpt lat="49.43283" lon="-1.22263">
        <ele>1.5</ele>
        <time>2022-06-02T09:13:41Z</time>
      </trkpt>
      <trkpt lat="49.43283" lon="-1.22261">
        <ele>1.5</ele>
        <time>2022-06-02T09:13:42Z</time>
      </trkpt>
      <trkpt lat="49.43284" lon="-1.22259">
        <ele>1.5</ele>
        <time>2022-06-02T09:13:43Z</time>
      </trkpt>
      <trkpt lat="49.43284" lon="-1.22258">
        <ele>1.5</ele>
        <time>2022-06-02T09:13:44Z</time>
      </trkpt>
      <trkpt lat="49.43285" lon="-1.22257">
        <ele>1.5</ele>
        <time>2022-06-02T09:13:45Z</time>
      </trkpt>
      <trkpt lat="49.43286" lon="-1.22255">
        <ele>1.5</ele>
        <time>2022-06-02T09:13:46Z</time>
      </trkpt>
      <trkpt lat="49.43286" lon="-1.22254">
        <ele>1.5</ele>
        <time>2022-06-02T09:13:47Z</time>
      </trkpt>
      <trkpt lat="49.43287" lon="-1.22251">
        <ele>1.5</ele>
        <time>2022-06-02T09:13:48Z</time>
      </trkpt>
      <trkpt lat="49.43288" lon="-1.2225">
        <ele>1.5</ele>
        <time>2022-06-02T09:13:50Z</time>
      </trkpt>
      <trkpt lat="49.43289" lon="-1.22248">
        <ele>1.6</ele>
        <time>2022-06-02T09:13:51Z</time>
      </trkpt>
      <trkpt lat="49.43289" lon="-1.22247">
        <ele>1.6</ele>
        <time>2022-06-02T09:13:52Z</time>
      </trkpt>
      <trkpt lat="49.4329" lon="-1.22246">
        <ele>1.6</ele>
        <time>2022-06-02T09:13:53Z</time>
      </trkpt>
      <trkpt lat="49.43291" lon="-1.22244">
        <ele>1.6</ele>
        <time>2022-06-02T09:13:55Z</time>
      </trkpt>
      <trkpt lat="49.43291" lon="-1.22242">
        <ele>1.6</ele>
        <time>2022-06-02T09:13:56Z</time>
      </trkpt>
      <trkpt lat="49.43292" lon="-1.2224">
        <ele>1.6</ele>
        <time>2022-06-02T09:13:57Z</time>
      </trkpt>
      <trkpt lat="49.43293" lon="-1.22239">
        <ele>1.6</ele>
        <time>2022-06-02T09:13:58Z</time>
      </trkpt>
      <trkpt lat="49.43294" lon="-1.22235">
        <ele>1.6</ele>
        <time>2022-06-02T09:13:59Z</time>
      </trkpt>
      <trkpt lat="49.43295" lon="-1.22233">
        <ele>1.6</ele>
        <time>2022-06-02T09:14:01Z</time>
      </trkpt>
      <trkpt lat="49.43295" lon="-1.22232">
        <ele>1.6</ele>
        <time>2022-06-02T09:14:02Z</time>
      </trkpt>
      <trkpt lat="49.43296" lon="-1.2223">
        <ele>1.7</ele>
        <time>2022-06-02T09:14:03Z</time>
      </trkpt>
      <trkpt lat="49.43296" lon="-1.22229">
        <ele>1.7</ele>
        <time>2022-06-02T09:14:04Z</time>
      </trkpt>
      <trkpt lat="49.43297" lon="-1.22227">
        <ele>1.7</ele>
        <time>2022-06-02T09:14:05Z</time>
      </trkpt>
      <trkpt lat="49.43298" lon="-1.22225">
        <ele>1.7</ele>
        <time>2022-06-02T09:14:06Z</time>
      </trkpt>
      <trkpt lat="49.43298" lon="-1.22224">
        <ele>1.7</ele>
        <time>2022-06-02T09:14:07Z</time>
      </trkpt>
      <trkpt lat="49.43299" lon="-1.22221">
        <ele>1.7</ele>
        <time>2022-06-02T09:14:09Z</time>
      </trkpt>
      <trkpt lat="49.433" lon="-1.2222">
        <ele>1.7</ele>
        <time>2022-06-02T09:14:10Z</time>
      </trkpt>
      <trkpt lat="49.433" lon="-1.22219">
        <ele>1.7</ele>
        <time>2022-06-02T09:14:11Z</time>
      </trkpt>
      <trkpt lat="49.43301" lon="-1.22218">
        <ele>1.7</ele>
        <time>2022-06-02T09:14:12Z</time>
      </trkpt>
      <trkpt lat="49.43302" lon="-1.22216">
        <ele>1.7</ele>
        <time>2022-06-02T09:14:13Z</time>
      </trkpt>
      <trkpt lat="49.43302" lon="-1.22215">
        <ele>1.7</ele>
        <time>2022-06-02T09:14:14Z</time>
      </trkpt>
      <trkpt lat="49.43304" lon="-1.22215">
        <ele>1.7</ele>
        <time>2022-06-02T09:14:15Z</time>
      </trkpt>
      <trkpt lat="49.43305" lon="-1.22215">
        <ele>1.7</ele>
        <time>2022-06-02T09:14:16Z</time>
      </trkpt>
      <trkpt lat="49.43306" lon="-1.22216">
        <ele>1.7</ele>
        <time>2022-06-02T09:14:18Z</time>
      </trkpt>
      <trkpt lat="49.43307" lon="-1.22217">
        <ele>1.7</ele>
        <time>2022-06-02T09:14:19Z</time>
      </trkpt>
      <trkpt lat="49.43308" lon="-1.22217">
        <ele>1.7</ele>
        <time>2022-06-02T09:14:20Z</time>
      </trkpt>
      <trkpt lat="49.43309" lon="-1.22218">
        <ele>1.7</ele>
        <time>2022-06-02T09:14:21Z</time>
      </trkpt>
      <trkpt lat="49.4331" lon="-1.22219">
        <ele>1.7</ele>
        <time>2022-06-02T09:14:22Z</time>
      </trkpt>
      <trkpt lat="49.43311" lon="-1.22221">
        <ele>1.7</ele>
        <time>2022-06-02T09:14:23Z</time>
      </trkpt>
      <trkpt lat="49.43313" lon="-1.22225">
        <ele>1.7</ele>
        <time>2022-06-02T09:14:24Z</time>
      </trkpt>
      <trkpt lat="49.43313" lon="-1.22226">
        <ele>1.7</ele>
        <time>2022-06-02T09:14:25Z</time>
      </trkpt>
      <trkpt lat="49.43314" lon="-1.22228">
        <ele>1.7</ele>
        <time>2022-06-02T09:14:26Z</time>
      </trkpt>
      <trkpt lat="49.43316" lon="-1.2223">
        <ele>1.6</ele>
        <time>2022-06-02T09:14:27Z</time>
      </trkpt>
      <trkpt lat="49.43317" lon="-1.22232">
        <ele>1.6</ele>
        <time>2022-06-02T09:14:28Z</time>
      </trkpt>
      <trkpt lat="49.43317" lon="-1.22234">
        <ele>1.6</ele>
        <time>2022-06-02T09:14:29Z</time>
      </trkpt>
      <trkpt lat="49.43318" lon="-1.22236">
        <ele>1.6</ele>
        <time>2022-06-02T09:14:30Z</time>
      </trkpt>
      <trkpt lat="49.43319" lon="-1.22238">
        <ele>1.6</ele>
        <time>2022-06-02T09:14:31Z</time>
      </trkpt>
      <trkpt lat="49.4332" lon="-1.2224">
        <ele>1.6</ele>
        <time>2022-06-02T09:14:32Z</time>
      </trkpt>
      <trkpt lat="49.4332" lon="-1.22242">
        <ele>1.6</ele>
        <time>2022-06-02T09:14:33Z</time>
      </trkpt>
      <trkpt lat="49.43321" lon="-1.22244">
        <ele>1.6</ele>
        <time>2022-06-02T09:14:34Z</time>
      </trkpt>
      <trkpt lat="49.43321" lon="-1.22246">
        <ele>1.6</ele>
        <time>2022-06-02T09:14:36Z</time>
      </trkpt>
      <trkpt lat="49.43322" lon="-1.22248">
        <ele>1.6</ele>
        <time>2022-06-02T09:14:37Z</time>
      </trkpt>
      <trkpt lat="49.43323" lon="-1.2225">
        <ele>1.6</ele>
        <time>2022-06-02T09:14:38Z</time>
      </trkpt>
      <trkpt lat="49.43323" lon="-1.22252">
        <ele>1.6</ele>
        <time>2022-06-02T09:14:39Z</time>
      </trkpt>
      <trkpt lat="49.43324" lon="-1.22254">
        <ele>1.6</ele>
        <time>2022-06-02T09:14:40Z</time>
      </trkpt>
      <trkpt lat="49.43325" lon="-1.22257">
        <ele>1.6</ele>
        <time>2022-06-02T09:14:41Z</time>
      </trkpt>
      <trkpt lat="49.43325" lon="-1.22258">
        <ele>1.6</ele>
        <time>2022-06-02T09:14:42Z</time>
      </trkpt>
      <trkpt lat="49.43326" lon="-1.22259">
        <ele>1.6</ele>
        <time>2022-06-02T09:14:43Z</time>
      </trkpt>
      <trkpt lat="49.43326" lon="-1.22261">
        <ele>1.6</ele>
        <time>2022-06-02T09:14:44Z</time>
      </trkpt>
      <trkpt lat="49.43327" lon="-1.22263">
        <ele>1.6</ele>
        <time>2022-06-02T09:14:45Z</time>
      </trkpt>
      <trkpt lat="49.43328" lon="-1.22265">
        <ele>1.6</ele>
        <time>2022-06-02T09:14:46Z</time>
      </trkpt>
      <trkpt lat="49.43328" lon="-1.22267">
        <ele>1.6</ele>
        <time>2022-06-02T09:14:47Z</time>
      </trkpt>
      <trkpt lat="49.4333" lon="-1.2227">
        <ele>1.6</ele>
        <time>2022-06-02T09:14:48Z</time>
      </trkpt>
      <trkpt lat="49.4333" lon="-1.22271">
        <ele>1.6</ele>
        <time>2022-06-02T09:14:50Z</time>
      </trkpt>
      <trkpt lat="49.43331" lon="-1.22273">
        <ele>1.6</ele>
        <time>2022-06-02T09:14:51Z</time>
      </trkpt>
      <trkpt lat="49.43332" lon="-1.22274">
        <ele>1.6</ele>
        <time>2022-06-02T09:14:52Z</time>
      </trkpt>
      <trkpt lat="49.43332" lon="-1.22275">
        <ele>1.6</ele>
        <time>2022-06-02T09:14:53Z</time>
      </trkpt>
      <trkpt lat="49.43334" lon="-1.22276">
        <ele>1.6</ele>
        <time>2022-06-02T09:14:54Z</time>
      </trkpt>
      <trkpt lat="49.43335" lon="-1.22276">
        <ele>1.5</ele>
        <time>2022-06-02T09:14:55Z</time>
      </trkpt>
      <trkpt lat="49.43337" lon="-1.22276">
        <ele>1.5</ele>
        <time>2022-06-02T09:14:57Z</time>
      </trkpt>
      <trkpt lat="49.43338" lon="-1.22275">
        <ele>1.5</ele>
        <time>2022-06-02T09:14:58Z</time>
      </trkpt>
      <trkpt lat="49.4334" lon="-1.22274">
        <ele>1.4</ele>
        <time>2022-06-02T09:14:59Z</time>
      </trkpt>
      <trkpt lat="49.43341" lon="-1.22273">
        <ele>1.4</ele>
        <time>2022-06-02T09:15:00Z</time>
      </trkpt>
      <trkpt lat="49.43342" lon="-1.22271">
        <ele>1.4</ele>
        <time>2022-06-02T09:15:01Z</time>
      </trkpt>
      <trkpt lat="49.43343" lon="-1.22269">
        <ele>1.3</ele>
        <time>2022-06-02T09:15:02Z</time>
      </trkpt>
      <trkpt lat="49.43344" lon="-1.22267">
        <ele>1.3</ele>
        <time>2022-06-02T09:15:03Z</time>
      </trkpt>
      <trkpt lat="49.43345" lon="-1.22265">
        <ele>1.3</ele>
        <time>2022-06-02T09:15:05Z</time>
      </trkpt>
      <trkpt lat="49.43346" lon="-1.22262">
        <ele>1.3</ele>
        <time>2022-06-02T09:15:06Z</time>
      </trkpt>
      <trkpt lat="49.43346" lon="-1.2226">
        <ele>1.2</ele>
        <time>2022-06-02T09:15:07Z</time>
      </trkpt>
      <trkpt lat="49.43347" lon="-1.22258">
        <ele>1.2</ele>
        <time>2022-06-02T09:15:08Z</time>
      </trkpt>
      <trkpt lat="49.43348" lon="-1.22256">
        <ele>1.2</ele>
        <time>2022-06-02T09:15:09Z</time>
      </trkpt>
      <trkpt lat="49.43348" lon="-1.22254">
        <ele>1.2</ele>
        <time>2022-06-02T09:15:10Z</time>
      </trkpt>
      <trkpt lat="49.43349" lon="-1.22252">
        <ele>1.2</ele>
        <time>2022-06-02T09:15:11Z</time>
      </trkpt>
      <trkpt lat="49.4335" lon="-1.22248">
        <ele>1.3</ele>
        <time>2022-06-02T09:15:13Z</time>
      </trkpt>
      <trkpt lat="49.43351" lon="-1.22247">
        <ele>1.3</ele>
        <time>2022-06-02T09:15:14Z</time>
      </trkpt>
      <trkpt lat="49.43351" lon="-1.22244">
        <ele>1.3</ele>
        <time>2022-06-02T09:15:15Z</time>
      </trkpt>
      <trkpt lat="49.43352" lon="-1.22242">
        <ele>1.4</ele>
        <time>2022-06-02T09:15:16Z</time>
      </trkpt>
      <trkpt lat="49.43353" lon="-1.2224">
        <ele>1.4</ele>
        <time>2022-06-02T09:15:17Z</time>
      </trkpt>
      <trkpt lat="49.43354" lon="-1.22239">
        <ele>1.4</ele>
        <time>2022-06-02T09:15:18Z</time>
      </trkpt>
      <trkpt lat="49.43354" lon="-1.22237">
        <ele>1.4</ele>
        <time>2022-06-02T09:15:20Z</time>
      </trkpt>
      <trkpt lat="49.43355" lon="-1.22234">
        <ele>1.5</ele>
        <time>2022-06-02T09:15:21Z</time>
      </trkpt>
      <trkpt lat="49.43356" lon="-1.22233">
        <ele>1.5</ele>
        <time>2022-06-02T09:15:22Z</time>
      </trkpt>
      <trkpt lat="49.43356" lon="-1.22232">
        <ele>1.5</ele>
        <time>2022-06-02T09:15:23Z</time>
      </trkpt>
      <trkpt lat="49.43358" lon="-1.2223">
        <ele>1.6</ele>
        <time>2022-06-02T09:15:24Z</time>
      </trkpt>
      <trkpt lat="49.43358" lon="-1.22229">
        <ele>1.6</ele>
        <time>2022-06-02T09:15:25Z</time>
      </trkpt>
      <trkpt lat="49.43359" lon="-1.22228">
        <ele>1.6</ele>
        <time>2022-06-02T09:15:26Z</time>
      </trkpt>
      <trkpt lat="49.4336" lon="-1.22227">
        <ele>1.6</ele>
        <time>2022-06-02T09:15:27Z</time>
      </trkpt>
      <trkpt lat="49.4336" lon="-1.22225">
        <ele>1.6</ele>
        <time>2022-06-02T09:15:28Z</time>
      </trkpt>
      <trkpt lat="49.43361" lon="-1.22224">
        <ele>1.6</ele>
        <time>2022-06-02T09:15:29Z</time>
      </trkpt>
      <trkpt lat="49.43361" lon="-1.22223">
        <ele>1.6</ele>
        <time>2022-06-02T09:15:30Z</time>
      </trkpt>
      <trkpt lat="49.43362" lon="-1.22222">
        <ele>1.7</ele>
        <time>2022-06-02T09:15:31Z</time>
      </trkpt>
      <trkpt lat="49.43362" lon="-1.2222">
        <ele>1.7</ele>
        <time>2022-06-02T09:15:32Z</time>
      </trkpt>
      <trkpt lat="49.43363" lon="-1.22219">
        <ele>1.7</ele>
        <time>2022-06-02T09:15:33Z</time>
      </trkpt>
      <trkpt lat="49.43363" lon="-1.22217">
        <ele>1.7</ele>
        <time>2022-06-02T09:15:34Z</time>
      </trkpt>
      <trkpt lat="49.43364" lon="-1.22215">
        <ele>1.7</ele>
        <time>2022-06-02T09:15:35Z</time>
      </trkpt>
      <trkpt lat="49.43365" lon="-1.22213">
        <ele>1.7</ele>
        <time>2022-06-02T09:15:36Z</time>
      </trkpt>
      <trkpt lat="49.43365" lon="-1.22212">
        <ele>1.7</ele>
        <time>2022-06-02T09:15:37Z</time>
      </trkpt>
      <trkpt lat="49.43366" lon="-1.22211">
        <ele>1.7</ele>
        <time>2022-06-02T09:15:38Z</time>
      </trkpt>
      <trkpt lat="49.43367" lon="-1.22208">
        <ele>1.7</ele>
        <time>2022-06-02T09:15:39Z</time>
      </trkpt>
      <trkpt lat="49.43367" lon="-1.22207">
        <ele>1.7</ele>
        <time>2022-06-02T09:15:41Z</time>
      </trkpt>
      <trkpt lat="49.43368" lon="-1.22206">
        <ele>1.7</ele>
        <time>2022-06-02T09:15:42Z</time>
      </trkpt>
      <trkpt lat="49.43369" lon="-1.22204">
        <ele>1.7</ele>
        <time>2022-06-02T09:15:43Z</time>
      </trkpt>
      <trkpt lat="49.4337" lon="-1.22203">
        <ele>1.7</ele>
        <time>2022-06-02T09:15:44Z</time>
      </trkpt>
      <trkpt lat="49.4337" lon="-1.22202">
        <ele>1.7</ele>
        <time>2022-06-02T09:15:45Z</time>
      </trkpt>
      <trkpt lat="49.43371" lon="-1.222">
        <ele>1.7</ele>
        <time>2022-06-02T09:15:46Z</time>
      </trkpt>
      <trkpt lat="49.43371" lon="-1.22199">
        <ele>1.7</ele>
        <time>2022-06-02T09:15:47Z</time>
      </trkpt>
      <trkpt lat="49.43372" lon="-1.22197">
        <ele>1.7</ele>
        <time>2022-06-02T09:15:48Z</time>
      </trkpt>
      <trkpt lat="49.43372" lon="-1.22196">
        <ele>1.7</ele>
        <time>2022-06-02T09:15:49Z</time>
      </trkpt>
      <trkpt lat="49.43373" lon="-1.22194">
        <ele>1.7</ele>
        <time>2022-06-02T09:15:50Z</time>
      </trkpt>
      <trkpt lat="49.43373" lon="-1.22192">
        <ele>1.7</ele>
        <time>2022-06-02T09:15:52Z</time>
      </trkpt>
      <trkpt lat="49.43374" lon="-1.22189">
        <ele>1.7</ele>
        <time>2022-06-02T09:15:53Z</time>
      </trkpt>
      <trkpt lat="49.43375" lon="-1.22188">
        <ele>1.7</ele>
        <time>2022-06-02T09:15:54Z</time>
      </trkpt>
      <trkpt lat="49.43375" lon="-1.22187">
        <ele>1.7</ele>
        <time>2022-06-02T09:15:55Z</time>
      </trkpt>
      <trkpt lat="49.43376" lon="-1.22185">
        <ele>1.7</ele>
        <time>2022-06-02T09:15:56Z</time>
      </trkpt>
      <trkpt lat="49.43377" lon="-1.22183">
        <ele>1.7</ele>
        <time>2022-06-02T09:15:57Z</time>
      </trkpt>
      <trkpt lat="49.43378" lon="-1.2218">
        <ele>1.6</ele>
        <time>2022-06-02T09:15:58Z</time>
      </trkpt>
      <trkpt lat="49.43379" lon="-1.22179">
        <ele>1.6</ele>
        <time>2022-06-02T09:15:59Z</time>
      </trkpt>
      <trkpt lat="49.43379" lon="-1.22178">
        <ele>1.6</ele>
        <time>2022-06-02T09:16:00Z</time>
      </trkpt>
      <trkpt lat="49.4338" lon="-1.22176">
        <ele>1.6</ele>
        <time>2022-06-02T09:16:01Z</time>
      </trkpt>
      <trkpt lat="49.43381" lon="-1.22174">
        <ele>1.6</ele>
        <time>2022-06-02T09:16:02Z</time>
      </trkpt>
      <trkpt lat="49.43382" lon="-1.22173">
        <ele>1.6</ele>
        <time>2022-06-02T09:16:04Z</time>
      </trkpt>
      <trkpt lat="49.43382" lon="-1.22172">
        <ele>1.6</ele>
        <time>2022-06-02T09:16:05Z</time>
      </trkpt>
      <trkpt lat="49.43383" lon="-1.22171">
        <ele>1.6</ele>
        <time>2022-06-02T09:16:06Z</time>
      </trkpt>
      <trkpt lat="49.43384" lon="-1.22169">
        <ele>1.6</ele>
        <time>2022-06-02T09:16:07Z</time>
      </trkpt>
      <trkpt lat="49.43385" lon="-1.22168">
        <ele>1.6</ele>
        <time>2022-06-02T09:16:08Z</time>
      </trkpt>
      <trkpt lat="49.43386" lon="-1.22166">
        <ele>1.6</ele>
        <time>2022-06-02T09:16:09Z</time>
      </trkpt>
      <trkpt lat="49.43386" lon="-1.22165">
        <ele>1.6</ele>
        <time>2022-06-02T09:16:10Z</time>
      </trkpt>
      <trkpt lat="49.43387" lon="-1.22163">
        <ele>1.6</ele>
        <time>2022-06-02T09:16:12Z</time>
      </trkpt>
      <trkpt lat="49.43388" lon="-1.22162">
        <ele>1.6</ele>
        <time>2022-06-02T09:16:13Z</time>
      </trkpt>
      <trkpt lat="49.43389" lon="-1.2216">
        <ele>1.6</ele>
        <time>2022-06-02T09:16:14Z</time>
      </trkpt>
      <trkpt lat="49.4339" lon="-1.22158">
        <ele>1.6</ele>
        <time>2022-06-02T09:16:15Z</time>
      </trkpt>
      <trkpt lat="49.4339" lon="-1.22157">
        <ele>1.6</ele>
        <time>2022-06-02T09:16:16Z</time>
      </trkpt>
      <trkpt lat="49.43391" lon="-1.22155">
        <ele>1.5</ele>
        <time>2022-06-02T09:16:17Z</time>
      </trkpt>
      <trkpt lat="49.43392" lon="-1.22154">
        <ele>1.5</ele>
        <time>2022-06-02T09:16:18Z</time>
      </trkpt>
      <trkpt lat="49.43392" lon="-1.22152">
        <ele>1.5</ele>
        <time>2022-06-02T09:16:20Z</time>
      </trkpt>
      <trkpt lat="49.43393" lon="-1.2215">
        <ele>1.5</ele>
        <time>2022-06-02T09:16:21Z</time>
      </trkpt>
      <trkpt lat="49.43394" lon="-1.22147">
        <ele>1.4</ele>
        <time>2022-06-02T09:16:22Z</time>
      </trkpt>
      <trkpt lat="49.43394" lon="-1.22146">
        <ele>1.4</ele>
        <time>2022-06-02T09:16:23Z</time>
      </trkpt>
      <trkpt lat="49.43395" lon="-1.22145">
        <ele>1.4</ele>
        <time>2022-06-02T09:16:24Z</time>
      </trkpt>
      <trkpt lat="49.43395" lon="-1.22143">
        <ele>1.4</ele>
        <time>2022-06-02T09:16:25Z</time>
      </trkpt>
      <trkpt lat="49.43395" lon="-1.22142">
        <ele>1.4</ele>
        <time>2022-06-02T09:16:26Z</time>
      </trkpt>
      <trkpt lat="49.43396" lon="-1.2214">
        <ele>1.3</ele>
        <time>2022-06-02T09:16:27Z</time>
      </trkpt>
      <trkpt lat="49.43396" lon="-1.22138">
        <ele>1.3</ele>
        <time>2022-06-02T09:16:28Z</time>
      </trkpt>
      <trkpt lat="49.43397" lon="-1.22136">
        <ele>1.3</ele>
        <time>2022-06-02T09:16:29Z</time>
      </trkpt>
      <trkpt lat="49.43398" lon="-1.22133">
        <ele>1.2</ele>
        <time>2022-06-02T09:16:30Z</time>
      </trkpt>
      <trkpt lat="49.43398" lon="-1.22132">
        <ele>1.2</ele>
        <time>2022-06-02T09:16:31Z</time>
      </trkpt>
      <trkpt lat="49.43399" lon="-1.22131">
        <ele>1.2</ele>
        <time>2022-06-02T09:16:32Z</time>
      </trkpt>
      <trkpt lat="49.43399" lon="-1.2213">
        <ele>1.2</ele>
        <time>2022-06-02T09:16:33Z</time>
      </trkpt>
      <trkpt lat="49.434" lon="-1.22128">
        <ele>1.2</ele>
        <time>2022-06-02T09:16:34Z</time>
      </trkpt>
      <trkpt lat="49.43401" lon="-1.22126">
        <ele>1.1</ele>
        <time>2022-06-02T09:16:36Z</time>
      </trkpt>
      <trkpt lat="49.43402" lon="-1.22125">
        <ele>1.1</ele>
        <time>2022-06-02T09:16:37Z</time>
      </trkpt>
      <trkpt lat="49.43403" lon="-1.22122">
        <ele>1.1</ele>
        <time>2022-06-02T09:16:38Z</time>
      </trkpt>
      <trkpt lat="49.43403" lon="-1.2212">
        <ele>1</ele>
        <time>2022-06-02T09:16:39Z</time>
      </trkpt>
      <trkpt lat="49.43404" lon="-1.22119">
        <ele>1</ele>
        <time>2022-06-02T09:16:40Z</time>
      </trkpt>
      <trkpt lat="49.43405" lon="-1.22117">
        <ele>1</ele>
        <time>2022-06-02T09:16:41Z</time>
      </trkpt>
      <trkpt lat="49.43405" lon="-1.22115">
        <ele>1</ele>
        <time>2022-06-02T09:16:42Z</time>
      </trkpt>
      <trkpt lat="49.43406" lon="-1.22114">
        <ele>1</ele>
        <time>2022-06-02T09:16:43Z</time>
      </trkpt>
      <trkpt lat="49.43407" lon="-1.22113">
        <ele>1</ele>
        <time>2022-06-02T09:16:44Z</time>
      </trkpt>
      <trkpt lat="49.43408" lon="-1.22109">
        <ele>0.9</ele>
        <time>2022-06-02T09:16:46Z</time>
      </trkpt>
      <trkpt lat="49.43409" lon="-1.22107">
        <ele>0.9</ele>
        <time>2022-06-02T09:16:48Z</time>
      </trkpt>
      <trkpt lat="49.4341" lon="-1.22105">
        <ele>0.9</ele>
        <time>2022-06-02T09:16:49Z</time>
      </trkpt>
      <trkpt lat="49.4341" lon="-1.22104">
        <ele>0.9</ele>
        <time>2022-06-02T09:16:50Z</time>
      </trkpt>
      <trkpt lat="49.43411" lon="-1.22102">
        <ele>0.8</ele>
        <time>2022-06-02T09:16:51Z</time>
      </trkpt>
      <trkpt lat="49.43412" lon="-1.22101">
        <ele>0.8</ele>
        <time>2022-06-02T09:16:52Z</time>
      </trkpt>
      <trkpt lat="49.43412" lon="-1.221">
        <ele>0.8</ele>
        <time>2022-06-02T09:16:53Z</time>
      </trkpt>
      <trkpt lat="49.43413" lon="-1.22099">
        <ele>0.8</ele>
        <time>2022-06-02T09:16:54Z</time>
      </trkpt>
      <trkpt lat="49.43413" lon="-1.22098">
        <ele>0.8</ele>
        <time>2022-06-02T09:16:55Z</time>
      </trkpt>
      <trkpt lat="49.43414" lon="-1.22096">
        <ele>0.8</ele>
        <time>2022-06-02T09:16:56Z</time>
      </trkpt>
      <trkpt lat="49.43415" lon="-1.22094">
        <ele>0.7</ele>
        <time>2022-06-02T09:16:57Z</time>
      </trkpt>
      <trkpt lat="49.43416" lon="-1.22092">
        <ele>0.7</ele>
        <time>2022-06-02T09:16:58Z</time>
      </trkpt>
      <trkpt lat="49.43417" lon="-1.2209">
        <ele>0.7</ele>
        <time>2022-06-02T09:17:00Z</time>
      </trkpt>
      <trkpt lat="49.43418" lon="-1.22088">
        <ele>0.6</ele>
        <time>2022-06-02T09:17:01Z</time>
      </trkpt>
      <trkpt lat="49.43418" lon="-1.22087">
        <ele>0.6</ele>
        <time>2022-06-02T09:17:02Z</time>
      </trkpt>
      <trkpt lat="49.43419" lon="-1.22085">
        <ele>0.6</ele>
        <time>2022-06-02T09:17:03Z</time>
      </trkpt>
      <trkpt lat="49.4342" lon="-1.22083">
        <ele>0.5</ele>
        <time>2022-06-02T09:17:04Z</time>
      </trkpt>
      <trkpt lat="49.43421" lon="-1.2208">
        <ele>0.5</ele>
        <time>2022-06-02T09:17:05Z</time>
      </trkpt>
      <trkpt lat="49.43422" lon="-1.22079">
        <ele>0.5</ele>
        <time>2022-06-02T09:17:06Z</time>
      </trkpt>
      <trkpt lat="49.43422" lon="-1.22078">
        <ele>0.5</ele>
        <time>2022-06-02T09:17:07Z</time>
      </trkpt>
      <trkpt lat="49.43423" lon="-1.22077">
        <ele>0.5</ele>
        <time>2022-06-02T09:17:08Z</time>
      </trkpt>
      <trkpt lat="49.43424" lon="-1.22075">
        <ele>0.4</ele>
        <time>2022-06-02T09:17:09Z</time>
      </trkpt>
      <trkpt lat="49.43425" lon="-1.22073">
        <ele>0.4</ele>
        <time>2022-06-02T09:17:10Z</time>
      </trkpt>
      <trkpt lat="49.43426" lon="-1.22072">
        <ele>0.4</ele>
        <time>2022-06-02T09:17:11Z</time>
      </trkpt>
      <trkpt lat="49.43426" lon="-1.2207">
        <ele>0.4</ele>
        <time>2022-06-02T09:17:13Z</time>
      </trkpt>
      <trkpt lat="49.43427" lon="-1.22069">
        <ele>0.4</ele>
        <time>2022-06-02T09:17:14Z</time>
      </trkpt>
      <trkpt lat="49.43427" lon="-1.22068">
        <ele>0.4</ele>
        <time>2022-06-02T09:17:15Z</time>
      </trkpt>
      <trkpt lat="49.43428" lon="-1.22067">
        <ele>0.4</ele>
        <time>2022-06-02T09:17:16Z</time>
      </trkpt>
      <trkpt lat="49.43428" lon="-1.22065">
        <ele>0.4</ele>
        <time>2022-06-02T09:17:17Z</time>
      </trkpt>
      <trkpt lat="49.43429" lon="-1.22063">
        <ele>0.4</ele>
        <time>2022-06-02T09:17:18Z</time>
      </trkpt>
      <trkpt lat="49.4343" lon="-1.22061">
        <ele>0.4</ele>
        <time>2022-06-02T09:17:20Z</time>
      </trkpt>
      <trkpt lat="49.43431" lon="-1.22059">
        <ele>0.4</ele>
        <time>2022-06-02T09:17:21Z</time>
      </trkpt>
      <trkpt lat="49.43432" lon="-1.22058">
        <ele>0.4</ele>
        <time>2022-06-02T09:17:22Z</time>
      </trkpt>
      <trkpt lat="49.43433" lon="-1.22056">
        <ele>0.4</ele>
        <time>2022-06-02T09:17:23Z</time>
      </trkpt>
      <trkpt lat="49.43434" lon="-1.22056">
        <ele>0.5</ele>
        <time>2022-06-02T09:17:24Z</time>
      </trkpt>
      <trkpt lat="49.43435" lon="-1.22055">
        <ele>0.5</ele>
        <time>2022-06-02T09:17:25Z</time>
      </trkpt>
      <trkpt lat="49.43436" lon="-1.22055">
        <ele>0.5</ele>
        <time>2022-06-02T09:17:26Z</time>
      </trkpt>
      <trkpt lat="49.43437" lon="-1.22055">
        <ele>0.5</ele>
        <time>2022-06-02T09:17:27Z</time>
      </trkpt>
      <trkpt lat="49.43438" lon="-1.22059">
        <ele>0.6</ele>
        <time>2022-06-02T09:17:28Z</time>
      </trkpt>
      <trkpt lat="49.43438" lon="-1.2206">
        <ele>0.6</ele>
        <time>2022-06-02T09:17:29Z</time>
      </trkpt>
      <trkpt lat="49.43438" lon="-1.22061">
        <ele>0.6</ele>
        <time>2022-06-02T09:17:30Z</time>
      </trkpt>
      <trkpt lat="49.43438" lon="-1.22061">
        <ele>0.6</ele>
        <time>2022-06-02T09:17:31Z</time>
      </trkpt>
      <trkpt lat="49.43439" lon="-1.2206">
        <ele>0.6</ele>
        <time>2022-06-02T09:17:32Z</time>
      </trkpt>
      <trkpt lat="49.43439" lon="-1.2206">
        <ele>0.6</ele>
        <time>2022-06-02T09:17:33Z</time>
      </trkpt>
      <trkpt lat="49.4344" lon="-1.22058">
        <ele>0.6</ele>
        <time>2022-06-02T09:17:35Z</time>
      </trkpt>
      <trkpt lat="49.4344" lon="-1.22056">
        <ele>0.7</ele>
        <time>2022-06-02T09:17:36Z</time>
      </trkpt>
      <trkpt lat="49.43441" lon="-1.22054">
        <ele>0.7</ele>
        <time>2022-06-02T09:17:37Z</time>
      </trkpt>
      <trkpt lat="49.43442" lon="-1.22051">
        <ele>0.7</ele>
        <time>2022-06-02T09:17:38Z</time>
      </trkpt>
      <trkpt lat="49.43442" lon="-1.22049">
        <ele>0.7</ele>
        <time>2022-06-02T09:17:39Z</time>
      </trkpt>
      <trkpt lat="49.43443" lon="-1.22046">
        <ele>0.7</ele>
        <time>2022-06-02T09:17:41Z</time>
      </trkpt>
      <trkpt lat="49.43443" lon="-1.22044">
        <ele>0.7</ele>
        <time>2022-06-02T09:17:42Z</time>
      </trkpt>
      <trkpt lat="49.43444" lon="-1.22041">
        <ele>0.7</ele>
        <time>2022-06-02T09:17:43Z</time>
      </trkpt>
      <trkpt lat="49.43444" lon="-1.22039">
        <ele>0.7</ele>
        <time>2022-06-02T09:17:44Z</time>
      </trkpt>
      <trkpt lat="49.43445" lon="-1.22037">
        <ele>0.7</ele>
        <time>2022-06-02T09:17:45Z</time>
      </trkpt>
      <trkpt lat="49.43445" lon="-1.22034">
        <ele>0.6</ele>
        <time>2022-06-02T09:17:46Z</time>
      </trkpt>
      <trkpt lat="49.43446" lon="-1.22032">
        <ele>0.6</ele>
        <time>2022-06-02T09:17:47Z</time>
      </trkpt>
      <trkpt lat="49.43446" lon="-1.2203">
        <ele>0.6</ele>
        <time>2022-06-02T09:17:48Z</time>
      </trkpt>
      <trkpt lat="49.43447" lon="-1.22028">
        <ele>0.5</ele>
        <time>2022-06-02T09:17:49Z</time>
      </trkpt>
      <trkpt lat="49.43448" lon="-1.22026">
        <ele>0.5</ele>
        <time>2022-06-02T09:17:51Z</time>
      </trkpt>
      <trkpt lat="49.43448" lon="-1.22024">
        <ele>0.5</ele>
        <time>2022-06-02T09:17:52Z</time>
      </trkpt>
      <trkpt lat="49.43449" lon="-1.22022">
        <ele>0.4</ele>
        <time>2022-06-02T09:17:53Z</time>
      </trkpt>
      <trkpt lat="49.4345" lon="-1.22019">
        <ele>0.4</ele>
        <time>2022-06-02T09:17:54Z</time>
      </trkpt>
      <trkpt lat="49.43451" lon="-1.22018">
        <ele>0.4</ele>
        <time>2022-06-02T09:17:55Z</time>
      </trkpt>
      <trkpt lat="49.43451" lon="-1.22017">
        <ele>0.3</ele>
        <time>2022-06-02T09:17:56Z</time>
      </trkpt>
      <trkpt lat="49.43452" lon="-1.22015">
        <ele>0.3</ele>
        <time>2022-06-02T09:17:57Z</time>
      </trkpt>
      <trkpt lat="49.43453" lon="-1.22012">
        <ele>0.3</ele>
        <time>2022-06-02T09:17:58Z</time>
      </trkpt>
      <trkpt lat="49.43454" lon="-1.2201">
        <ele>0.3</ele>
        <time>2022-06-02T09:18:00Z</time>
      </trkpt>
      <trkpt lat="49.43455" lon="-1.22008">
        <ele>0.2</ele>
        <time>2022-06-02T09:18:01Z</time>
      </trkpt>
      <trkpt lat="49.43455" lon="-1.22006">
        <ele>0.2</ele>
        <time>2022-06-02T09:18:02Z</time>
      </trkpt>
      <trkpt lat="49.43456" lon="-1.22004">
        <ele>0.2</ele>
        <time>2022-06-02T09:18:03Z</time>
      </trkpt>
      <trkpt lat="49.43457" lon="-1.22002">
        <ele>0.2</ele>
        <time>2022-06-02T09:18:04Z</time>
      </trkpt>
      <trkpt lat="49.43458" lon="-1.22">
        <ele>0.2</ele>
        <time>2022-06-02T09:18:06Z</time>
      </trkpt>
      <trkpt lat="49.43458" lon="-1.21999">
        <ele>0.2</ele>
        <time>2022-06-02T09:18:07Z</time>
      </trkpt>
      <trkpt lat="49.43459" lon="-1.21998">
        <ele>0.3</ele>
        <time>2022-06-02T09:18:08Z</time>
      </trkpt>
      <trkpt lat="49.4346" lon="-1.21996">
        <ele>0.3</ele>
        <time>2022-06-02T09:18:09Z</time>
      </trkpt>
      <trkpt lat="49.43461" lon="-1.21995">
        <ele>0.3</ele>
        <time>2022-06-02T09:18:10Z</time>
      </trkpt>
      <trkpt lat="49.43462" lon="-1.21993">
        <ele>0.3</ele>
        <time>2022-06-02T09:18:11Z</time>
      </trkpt>
      <trkpt lat="49.43462" lon="-1.21991">
        <ele>0.3</ele>
        <time>2022-06-02T09:18:12Z</time>
      </trkpt>
      <trkpt lat="49.43463" lon="-1.21989">
        <ele>0.3</ele>
        <time>2022-06-02T09:18:13Z</time>
      </trkpt>
      <trkpt lat="49.43464" lon="-1.21986">
        <ele>0.3</ele>
        <time>2022-06-02T09:18:15Z</time>
      </trkpt>
      <trkpt lat="49.43464" lon="-1.21985">
        <ele>0.3</ele>
        <time>2022-06-02T09:18:16Z</time>
      </trkpt>
      <trkpt lat="49.43465" lon="-1.21983">
        <ele>0.3</ele>
        <time>2022-06-02T09:18:17Z</time>
      </trkpt>
      <trkpt lat="49.43466" lon="-1.21981">
        <ele>0.3</ele>
        <time>2022-06-02T09:18:18Z</time>
      </trkpt>
      <trkpt lat="49.43466" lon="-1.21978">
        <ele>0.3</ele>
        <time>2022-06-02T09:18:20Z</time>
      </trkpt>
      <trkpt lat="49.43467" lon="-1.21976">
        <ele>0.3</ele>
        <time>2022-06-02T09:18:21Z</time>
      </trkpt>
      <trkpt lat="49.43467" lon="-1.21975">
        <ele>0.3</ele>
        <time>2022-06-02T09:18:22Z</time>
      </trkpt>
      <trkpt lat="49.43468" lon="-1.21974">
        <ele>0.3</ele>
        <time>2022-06-02T09:18:23Z</time>
      </trkpt>
      <trkpt lat="49.43468" lon="-1.21972">
        <ele>0.3</ele>
        <time>2022-06-02T09:18:24Z</time>
      </trkpt>
      <trkpt lat="49.43469" lon="-1.21971">
        <ele>0.3</ele>
        <time>2022-06-02T09:18:25Z</time>
      </trkpt>
      <trkpt lat="49.43469" lon="-1.21968">
        <ele>0.3</ele>
        <time>2022-06-02T09:18:27Z</time>
      </trkpt>
      <trkpt lat="49.4347" lon="-1.21967">
        <ele>0.4</ele>
        <time>2022-06-02T09:18:28Z</time>
      </trkpt>
      <trkpt lat="49.4347" lon="-1.21966">
        <ele>0.4</ele>
        <time>2022-06-02T09:18:29Z</time>
      </trkpt>
      <trkpt lat="49.4347" lon="-1.21964">
        <ele>0.4</ele>
        <time>2022-06-02T09:18:30Z</time>
      </trkpt>
      <trkpt lat="49.43471" lon="-1.21961">
        <ele>0.4</ele>
        <time>2022-06-02T09:18:31Z</time>
      </trkpt>
      <trkpt lat="49.43471" lon="-1.2196">
        <ele>0.4</ele>
        <time>2022-06-02T09:18:32Z</time>
      </trkpt>
      <trkpt lat="49.43471" lon="-1.21959">
        <ele>0.4</ele>
        <time>2022-06-02T09:18:33Z</time>
      </trkpt>
      <trkpt lat="49.43472" lon="-1.21957">
        <ele>0.4</ele>
        <time>2022-06-02T09:18:34Z</time>
      </trkpt>
      <trkpt lat="49.43472" lon="-1.21955">
        <ele>0.4</ele>
        <time>2022-06-02T09:18:35Z</time>
      </trkpt>
      <trkpt lat="49.43472" lon="-1.21953">
        <ele>0.4</ele>
        <time>2022-06-02T09:18:36Z</time>
      </trkpt>
      <trkpt lat="49.43472" lon="-1.21951">
        <ele>0.4</ele>
        <time>2022-06-02T09:18:38Z</time>
      </trkpt>
      <trkpt lat="49.43473" lon="-1.2195">
        <ele>0.4</ele>
        <time>2022-06-02T09:18:39Z</time>
      </trkpt>
      <trkpt lat="49.43473" lon="-1.21948">
        <ele>0.4</ele>
        <time>2022-06-02T09:18:40Z</time>
      </trkpt>
      <trkpt lat="49.43473" lon="-1.21944">
        <ele>0.4</ele>
        <time>2022-06-02T09:18:41Z</time>
      </trkpt>
      <trkpt lat="49.43474" lon="-1.21943">
        <ele>0.4</ele>
        <time>2022-06-02T09:18:43Z</time>
      </trkpt>
      <trkpt lat="49.43474" lon="-1.21941">
        <ele>0.4</ele>
        <time>2022-06-02T09:18:44Z</time>
      </trkpt>
      <trkpt lat="49.43475" lon="-1.21939">
        <ele>0.4</ele>
        <time>2022-06-02T09:18:45Z</time>
      </trkpt>
      <trkpt lat="49.43475" lon="-1.21938">
        <ele>0.4</ele>
        <time>2022-06-02T09:18:46Z</time>
      </trkpt>
      <trkpt lat="49.43475" lon="-1.21936">
        <ele>0.4</ele>
        <time>2022-06-02T09:18:47Z</time>
      </trkpt>
      <trkpt lat="49.43476" lon="-1.21934">
        <ele>0.4</ele>
        <time>2022-06-02T09:18:48Z</time>
      </trkpt>
      <trkpt lat="49.43476" lon="-1.21932">
        <ele>0.3</ele>
        <time>2022-06-02T09:18:49Z</time>
      </trkpt>
      <trkpt lat="49.43477" lon="-1.2193">
        <ele>0.3</ele>
        <time>2022-06-02T09:18:50Z</time>
      </trkpt>
      <trkpt lat="49.43478" lon="-1.21927">
        <ele>0.3</ele>
        <time>2022-06-02T09:18:51Z</time>
      </trkpt>
      <trkpt lat="49.43478" lon="-1.21926">
        <ele>0.3</ele>
        <time>2022-06-02T09:18:52Z</time>
      </trkpt>
      <trkpt lat="49.43478" lon="-1.21925">
        <ele>0.3</ele>
        <time>2022-06-02T09:18:53Z</time>
      </trkpt>
      <trkpt lat="49.43479" lon="-1.21922">
        <ele>0.3</ele>
        <time>2022-06-02T09:18:54Z</time>
      </trkpt>
      <trkpt lat="49.4348" lon="-1.21921">
        <ele>0.3</ele>
        <time>2022-06-02T09:18:55Z</time>
      </trkpt>
      <trkpt lat="49.4348" lon="-1.21919">
        <ele>0.3</ele>
        <time>2022-06-02T09:18:57Z</time>
      </trkpt>
      <trkpt lat="49.43481" lon="-1.21918">
        <ele>0.3</ele>
        <time>2022-06-02T09:18:58Z</time>
      </trkpt>
      <trkpt lat="49.43481" lon="-1.21916">
        <ele>0.3</ele>
        <time>2022-06-02T09:18:59Z</time>
      </trkpt>
      <trkpt lat="49.43482" lon="-1.21915">
        <ele>0.3</ele>
        <time>2022-06-02T09:19:00Z</time>
      </trkpt>
      <trkpt lat="49.43482" lon="-1.21913">
        <ele>0.3</ele>
        <time>2022-06-02T09:19:01Z</time>
      </trkpt>
      <trkpt lat="49.43483" lon="-1.21911">
        <ele>0.3</ele>
        <time>2022-06-02T09:19:02Z</time>
      </trkpt>
      <trkpt lat="49.43484" lon="-1.21909">
        <ele>0.3</ele>
        <time>2022-06-02T09:19:03Z</time>
      </trkpt>
      <trkpt lat="49.43485" lon="-1.21906">
        <ele>0.3</ele>
        <time>2022-06-02T09:19:05Z</time>
      </trkpt>
      <trkpt lat="49.43486" lon="-1.21904">
        <ele>0.3</ele>
        <time>2022-06-02T09:19:06Z</time>
      </trkpt>
      <trkpt lat="49.43486" lon="-1.21903">
        <ele>0.3</ele>
        <time>2022-06-02T09:19:07Z</time>
      </trkpt>
      <trkpt lat="49.43487" lon="-1.21901">
        <ele>0.3</ele>
        <time>2022-06-02T09:19:08Z</time>
      </trkpt>
      <trkpt lat="49.43488" lon="-1.219">
        <ele>0.3</ele>
        <time>2022-06-02T09:19:09Z</time>
      </trkpt>
      <trkpt lat="49.43489" lon="-1.21899">
        <ele>0.3</ele>
        <time>2022-06-02T09:19:10Z</time>
      </trkpt>
      <trkpt lat="49.43491" lon="-1.21898">
        <ele>0.3</ele>
        <time>2022-06-02T09:19:11Z</time>
      </trkpt>
      <trkpt lat="49.43492" lon="-1.21898">
        <ele>0.3</ele>
        <time>2022-06-02T09:19:12Z</time>
      </trkpt>
      <trkpt lat="49.43493" lon="-1.21898">
        <ele>0.3</ele>
        <time>2022-06-02T09:19:13Z</time>
      </trkpt>
      <trkpt lat="49.43495" lon="-1.21897">
        <ele>0.3</ele>
        <time>2022-06-02T09:19:15Z</time>
      </trkpt>
      <trkpt lat="49.43496" lon="-1.21898">
        <ele>0.3</ele>
        <time>2022-06-02T09:19:16Z</time>
      </trkpt>
      <trkpt lat="49.43498" lon="-1.21898">
        <ele>0.3</ele>
        <time>2022-06-02T09:19:17Z</time>
      </trkpt>
      <trkpt lat="49.43499" lon="-1.219">
        <ele>0.3</ele>
        <time>2022-06-02T09:19:18Z</time>
      </trkpt>
      <trkpt lat="49.435" lon="-1.219">
        <ele>0.3</ele>
        <time>2022-06-02T09:19:19Z</time>
      </trkpt>
      <trkpt lat="49.43502" lon="-1.21902">
        <ele>0.3</ele>
        <time>2022-06-02T09:19:20Z</time>
      </trkpt>
      <trkpt lat="49.43504" lon="-1.21903">
        <ele>0.3</ele>
        <time>2022-06-02T09:19:22Z</time>
      </trkpt>
      <trkpt lat="49.43505" lon="-1.21904">
        <ele>0.3</ele>
        <time>2022-06-02T09:19:23Z</time>
      </trkpt>
      <trkpt lat="49.43507" lon="-1.21906">
        <ele>0.3</ele>
        <time>2022-06-02T09:19:24Z</time>
      </trkpt>
      <trkpt lat="49.43508" lon="-1.21907">
        <ele>0.3</ele>
        <time>2022-06-02T09:19:25Z</time>
      </trkpt>
      <trkpt lat="49.43509" lon="-1.21908">
        <ele>0.3</ele>
        <time>2022-06-02T09:19:26Z</time>
      </trkpt>
      <trkpt lat="49.43511" lon="-1.21909">
        <ele>0.3</ele>
        <time>2022-06-02T09:19:28Z</time>
      </trkpt>
      <trkpt lat="49.43512" lon="-1.2191">
        <ele>0.3</ele>
        <time>2022-06-02T09:19:29Z</time>
      </trkpt>
      <trkpt lat="49.43513" lon="-1.21911">
        <ele>0.3</ele>
        <time>2022-06-02T09:19:30Z</time>
      </trkpt>
      <trkpt lat="49.43515" lon="-1.21913">
        <ele>0.3</ele>
        <time>2022-06-02T09:19:31Z</time>
      </trkpt>
      <trkpt lat="49.43516" lon="-1.21914">
        <ele>0.3</ele>
        <time>2022-06-02T09:19:32Z</time>
      </trkpt>
      <trkpt lat="49.43517" lon="-1.21915">
        <ele>0.4</ele>
        <time>2022-06-02T09:19:33Z</time>
      </trkpt>
      <trkpt lat="49.43519" lon="-1.21917">
        <ele>0.4</ele>
        <time>2022-06-02T09:19:35Z</time>
      </trkpt>
      <trkpt lat="49.4352" lon="-1.21918">
        <ele>0.4</ele>
        <time>2022-06-02T09:19:36Z</time>
      </trkpt>
      <trkpt lat="49.43522" lon="-1.21919">
        <ele>0.4</ele>
        <time>2022-06-02T09:19:37Z</time>
      </trkpt>
      <trkpt lat="49.43523" lon="-1.21919">
        <ele>0.4</ele>
        <time>2022-06-02T09:19:38Z</time>
      </trkpt>
      <trkpt lat="49.43525" lon="-1.2192">
        <ele>0.4</ele>
        <time>2022-06-02T09:19:39Z</time>
      </trkpt>
      <trkpt lat="49.43526" lon="-1.2192">
        <ele>0.4</ele>
        <time>2022-06-02T09:19:41Z</time>
      </trkpt>
      <trkpt lat="49.43528" lon="-1.2192">
        <ele>0.4</ele>
        <time>2022-06-02T09:19:42Z</time>
      </trkpt>
      <trkpt lat="49.4353" lon="-1.2192">
        <ele>0.4</ele>
        <time>2022-06-02T09:19:43Z</time>
      </trkpt>
      <trkpt lat="49.43531" lon="-1.2192">
        <ele>0.4</ele>
        <time>2022-06-02T09:19:44Z</time>
      </trkpt>
      <trkpt lat="49.43532" lon="-1.2192">
        <ele>0.4</ele>
        <time>2022-06-02T09:19:45Z</time>
      </trkpt>
      <trkpt lat="49.43533" lon="-1.21918">
        <ele>0.4</ele>
        <time>2022-06-02T09:19:46Z</time>
      </trkpt>
      <trkpt lat="49.43535" lon="-1.21917">
        <ele>0.4</ele>
        <time>2022-06-02T09:19:48Z</time>
      </trkpt>
      <trkpt lat="49.43536" lon="-1.21916">
        <ele>0.4</ele>
        <time>2022-06-02T09:19:49Z</time>
      </trkpt>
      <trkpt lat="49.43537" lon="-1.21914">
        <ele>0.4</ele>
        <time>2022-06-02T09:19:50Z</time>
      </trkpt>
      <trkpt lat="49.43538" lon="-1.21913">
        <ele>0.3</ele>
        <time>2022-06-02T09:19:51Z</time>
      </trkpt>
      <trkpt lat="49.43539" lon="-1.21911">
        <ele>0.3</ele>
        <time>2022-06-02T09:19:52Z</time>
      </trkpt>
      <trkpt lat="49.43539" lon="-1.21909">
        <ele>0.3</ele>
        <time>2022-06-02T09:19:53Z</time>
      </trkpt>
      <trkpt lat="49.4354" lon="-1.21907">
        <ele>0.3</ele>
        <time>2022-06-02T09:19:54Z</time>
      </trkpt>
      <trkpt lat="49.43541" lon="-1.21906">
        <ele>0.3</ele>
        <time>2022-06-02T09:19:55Z</time>
      </trkpt>
      <trkpt lat="49.43542" lon="-1.21904">
        <ele>0.3</ele>
        <time>2022-06-02T09:19:57Z</time>
      </trkpt>
      <trkpt lat="49.43543" lon="-1.21903">
        <ele>0.3</ele>
        <time>2022-06-02T09:19:58Z</time>
      </trkpt>
      <trkpt lat="49.43544" lon="-1.21902">
        <ele>0.3</ele>
        <time>2022-06-02T09:19:59Z</time>
      </trkpt>
      <trkpt lat="49.43545" lon="-1.21901">
        <ele>0.3</ele>
        <time>2022-06-02T09:20:00Z</time>
      </trkpt>
      <trkpt lat="49.43546" lon="-1.219">
        <ele>0.3</ele>
        <time>2022-06-02T09:20:01Z</time>
      </trkpt>
      <trkpt lat="49.43547" lon="-1.21898">
        <ele>0.3</ele>
        <time>2022-06-02T09:20:02Z</time>
      </trkpt>
      <trkpt lat="49.43548" lon="-1.21897">
        <ele>0.3</ele>
        <time>2022-06-02T09:20:04Z</time>
      </trkpt>
      <trkpt lat="49.43549" lon="-1.21895">
        <ele>0.3</ele>
        <time>2022-06-02T09:20:05Z</time>
      </trkpt>
      <trkpt lat="49.4355" lon="-1.21894">
        <ele>0.3</ele>
        <time>2022-06-02T09:20:06Z</time>
      </trkpt>
      <trkpt lat="49.43552" lon="-1.21893">
        <ele>0.3</ele>
        <time>2022-06-02T09:20:07Z</time>
      </trkpt>
      <trkpt lat="49.43553" lon="-1.21892">
        <ele>0.3</ele>
        <time>2022-06-02T09:20:08Z</time>
      </trkpt>
      <trkpt lat="49.43554" lon="-1.2189">
        <ele>0.3</ele>
        <time>2022-06-02T09:20:09Z</time>
      </trkpt>
      <trkpt lat="49.43554" lon="-1.21889">
        <ele>0.3</ele>
        <time>2022-06-02T09:20:10Z</time>
      </trkpt>
      <trkpt lat="49.43555" lon="-1.21888">
        <ele>0.3</ele>
        <time>2022-06-02T09:20:11Z</time>
      </trkpt>
      <trkpt lat="49.43557" lon="-1.21886">
        <ele>0.3</ele>
        <time>2022-06-02T09:20:13Z</time>
      </trkpt>
      <trkpt lat="49.43558" lon="-1.21884">
        <ele>0.3</ele>
        <time>2022-06-02T09:20:14Z</time>
      </trkpt>
      <trkpt lat="49.43559" lon="-1.21883">
        <ele>0.3</ele>
        <time>2022-06-02T09:20:15Z</time>
      </trkpt>
      <trkpt lat="49.43559" lon="-1.21882">
        <ele>0.3</ele>
        <time>2022-06-02T09:20:16Z</time>
      </trkpt>
      <trkpt lat="49.43561" lon="-1.2188">
        <ele>0.4</ele>
        <time>2022-06-02T09:20:17Z</time>
      </trkpt>
      <trkpt lat="49.43562" lon="-1.21879">
        <ele>0.4</ele>
        <time>2022-06-02T09:20:18Z</time>
      </trkpt>
      <trkpt lat="49.43563" lon="-1.21879">
        <ele>0.4</ele>
        <time>2022-06-02T09:20:19Z</time>
      </trkpt>
      <trkpt lat="49.43564" lon="-1.21877">
        <ele>0.4</ele>
        <time>2022-06-02T09:20:20Z</time>
      </trkpt>
      <trkpt lat="49.43565" lon="-1.21876">
        <ele>0.4</ele>
        <time>2022-06-02T09:20:21Z</time>
      </trkpt>
      <trkpt lat="49.43567" lon="-1.21875">
        <ele>0.4</ele>
        <time>2022-06-02T09:20:23Z</time>
      </trkpt>
      <trkpt lat="49.43567" lon="-1.21875">
        <ele>0.4</ele>
        <time>2022-06-02T09:20:24Z</time>
      </trkpt>
      <trkpt lat="49.43568" lon="-1.21873">
        <ele>0.3</ele>
        <time>2022-06-02T09:20:25Z</time>
      </trkpt>
      <trkpt lat="49.4357" lon="-1.21871">
        <ele>0.3</ele>
        <time>2022-06-02T09:20:26Z</time>
      </trkpt>
      <trkpt lat="49.43571" lon="-1.2187">
        <ele>0.3</ele>
        <time>2022-06-02T09:20:27Z</time>
      </trkpt>
      <trkpt lat="49.43571" lon="-1.21869">
        <ele>0.3</ele>
        <time>2022-06-02T09:20:28Z</time>
      </trkpt>
      <trkpt lat="49.43572" lon="-1.21868">
        <ele>0.3</ele>
        <time>2022-06-02T09:20:29Z</time>
      </trkpt>
      <trkpt lat="49.43573" lon="-1.21867">
        <ele>0.3</ele>
        <time>2022-06-02T09:20:30Z</time>
      </trkpt>
      <trkpt lat="49.43574" lon="-1.21866">
        <ele>0.3</ele>
        <time>2022-06-02T09:20:31Z</time>
      </trkpt>
      <trkpt lat="49.43576" lon="-1.21864">
        <ele>0.3</ele>
        <time>2022-06-02T09:20:32Z</time>
      </trkpt>
      <trkpt lat="49.43576" lon="-1.21863">
        <ele>0.2</ele>
        <time>2022-06-02T09:20:33Z</time>
      </trkpt>
      <trkpt lat="49.43577" lon="-1.21862">
        <ele>0.2</ele>
        <time>2022-06-02T09:20:34Z</time>
      </trkpt>
      <trkpt lat="49.43578" lon="-1.21861">
        <ele>0.2</ele>
        <time>2022-06-02T09:20:35Z</time>
      </trkpt>
      <trkpt lat="49.43579" lon="-1.21861">
        <ele>0.2</ele>
        <time>2022-06-02T09:20:36Z</time>
      </trkpt>
      <trkpt lat="49.43581" lon="-1.2186">
        <ele>0.2</ele>
        <time>2022-06-02T09:20:37Z</time>
      </trkpt>
      <trkpt lat="49.43582" lon="-1.21859">
        <ele>0.2</ele>
        <time>2022-06-02T09:20:38Z</time>
      </trkpt>
      <trkpt lat="49.43583" lon="-1.21858">
        <ele>0.2</ele>
        <time>2022-06-02T09:20:39Z</time>
      </trkpt>
      <trkpt lat="49.43584" lon="-1.21858">
        <ele>0.2</ele>
        <time>2022-06-02T09:20:41Z</time>
      </trkpt>
      <trkpt lat="49.43586" lon="-1.21856">
        <ele>0.3</ele>
        <time>2022-06-02T09:20:43Z</time>
      </trkpt>
      <trkpt lat="49.43588" lon="-1.21855">
        <ele>0.3</ele>
        <time>2022-06-02T09:20:44Z</time>
      </trkpt>
      <trkpt lat="49.43589" lon="-1.21854">
        <ele>0.3</ele>
        <time>2022-06-02T09:20:45Z</time>
      </trkpt>
      <trkpt lat="49.4359" lon="-1.21853">
        <ele>0.3</ele>
        <time>2022-06-02T09:20:46Z</time>
      </trkpt>
      <trkpt lat="49.43591" lon="-1.21852">
        <ele>0.4</ele>
        <time>2022-06-02T09:20:47Z</time>
      </trkpt>
      <trkpt lat="49.43593" lon="-1.21851">
        <ele>0.4</ele>
        <time>2022-06-02T09:20:48Z</time>
      </trkpt>
      <trkpt lat="49.43594" lon="-1.2185">
        <ele>0.4</ele>
        <time>2022-06-02T09:20:49Z</time>
      </trkpt>
      <trkpt lat="49.43595" lon="-1.21849">
        <ele>0.4</ele>
        <time>2022-06-02T09:20:51Z</time>
      </trkpt>
      <trkpt lat="49.43596" lon="-1.21848">
        <ele>0.5</ele>
        <time>2022-06-02T09:20:52Z</time>
      </trkpt>
      <trkpt lat="49.43597" lon="-1.21847">
        <ele>0.5</ele>
        <time>2022-06-02T09:20:53Z</time>
      </trkpt>
      <trkpt lat="49.43598" lon="-1.21846">
        <ele>0.5</ele>
        <time>2022-06-02T09:20:54Z</time>
      </trkpt>
      <trkpt lat="49.43599" lon="-1.21845">
        <ele>0.5</ele>
        <time>2022-06-02T09:20:55Z</time>
      </trkpt>
      <trkpt lat="49.436" lon="-1.21843">
        <ele>0.5</ele>
        <time>2022-06-02T09:20:57Z</time>
      </trkpt>
      <trkpt lat="49.43601" lon="-1.21842">
        <ele>0.5</ele>
        <time>2022-06-02T09:20:58Z</time>
      </trkpt>
      <trkpt lat="49.43603" lon="-1.21841">
        <ele>0.5</ele>
        <time>2022-06-02T09:20:59Z</time>
      </trkpt>
      <trkpt lat="49.43604" lon="-1.2184">
        <ele>0.5</ele>
        <time>2022-06-02T09:21:00Z</time>
      </trkpt>
      <trkpt lat="49.43605" lon="-1.21838">
        <ele>0.5</ele>
        <time>2022-06-02T09:21:01Z</time>
      </trkpt>
      <trkpt lat="49.43607" lon="-1.21836">
        <ele>0.4</ele>
        <time>2022-06-02T09:21:02Z</time>
      </trkpt>
      <trkpt lat="49.43607" lon="-1.21836">
        <ele>0.4</ele>
        <time>2022-06-02T09:21:03Z</time>
      </trkpt>
      <trkpt lat="49.43608" lon="-1.21835">
        <ele>0.4</ele>
        <time>2022-06-02T09:21:04Z</time>
      </trkpt>
      <trkpt lat="49.4361" lon="-1.21833">
        <ele>0.4</ele>
        <time>2022-06-02T09:21:05Z</time>
      </trkpt>
      <trkpt lat="49.43611" lon="-1.21832">
        <ele>0.4</ele>
        <time>2022-06-02T09:21:06Z</time>
      </trkpt>
      <trkpt lat="49.43613" lon="-1.21831">
        <ele>0.4</ele>
        <time>2022-06-02T09:21:07Z</time>
      </trkpt>
      <trkpt lat="49.43613" lon="-1.2183">
        <ele>0.4</ele>
        <time>2022-06-02T09:21:08Z</time>
      </trkpt>
      <trkpt lat="49.43614" lon="-1.2183">
        <ele>0.4</ele>
        <time>2022-06-02T09:21:09Z</time>
      </trkpt>
      <trkpt lat="49.43616" lon="-1.21828">
        <ele>0.4</ele>
        <time>2022-06-02T09:21:10Z</time>
      </trkpt>
      <trkpt lat="49.43617" lon="-1.21827">
        <ele>0.4</ele>
        <time>2022-06-02T09:21:12Z</time>
      </trkpt>
      <trkpt lat="49.43617" lon="-1.21827">
        <ele>0.4</ele>
        <time>2022-06-02T09:21:13Z</time>
      </trkpt>
      <trkpt lat="49.43619" lon="-1.21825">
        <ele>0.4</ele>
        <time>2022-06-02T09:21:14Z</time>
      </trkpt>
      <trkpt lat="49.4362" lon="-1.21824">
        <ele>0.4</ele>
        <time>2022-06-02T09:21:15Z</time>
      </trkpt>
      <trkpt lat="49.43621" lon="-1.21824">
        <ele>0.4</ele>
        <time>2022-06-02T09:21:16Z</time>
      </trkpt>
      <trkpt lat="49.43622" lon="-1.21823">
        <ele>0.5</ele>
        <time>2022-06-02T09:21:17Z</time>
      </trkpt>
      <trkpt lat="49.43623" lon="-1.21822">
        <ele>0.5</ele>
        <time>2022-06-02T09:21:18Z</time>
      </trkpt>
      <trkpt lat="49.43625" lon="-1.21821">
        <ele>0.5</ele>
        <time>2022-06-02T09:21:19Z</time>
      </trkpt>
      <trkpt lat="49.43626" lon="-1.2182">
        <ele>0.5</ele>
        <time>2022-06-02T09:21:20Z</time>
      </trkpt>
      <trkpt lat="49.43627" lon="-1.21819">
        <ele>0.5</ele>
        <time>2022-06-02T09:21:21Z</time>
      </trkpt>
      <trkpt lat="49.43628" lon="-1.21818">
        <ele>0.5</ele>
        <time>2022-06-02T09:21:22Z</time>
      </trkpt>
      <trkpt lat="49.43629" lon="-1.21818">
        <ele>0.5</ele>
        <time>2022-06-02T09:21:23Z</time>
      </trkpt>
      <trkpt lat="49.43631" lon="-1.21817">
        <ele>0.5</ele>
        <time>2022-06-02T09:21:24Z</time>
      </trkpt>
      <trkpt lat="49.43632" lon="-1.21816">
        <ele>0.5</ele>
        <time>2022-06-02T09:21:26Z</time>
      </trkpt>
      <trkpt lat="49.43633" lon="-1.21816">
        <ele>0.5</ele>
        <time>2022-06-02T09:21:27Z</time>
      </trkpt>
      <trkpt lat="49.43634" lon="-1.21815">
        <ele>0.5</ele>
        <time>2022-06-02T09:21:28Z</time>
      </trkpt>
      <trkpt lat="49.43635" lon="-1.21813">
        <ele>0.5</ele>
        <time>2022-06-02T09:21:29Z</time>
      </trkpt>
      <trkpt lat="49.43636" lon="-1.21812">
        <ele>0.5</ele>
        <time>2022-06-02T09:21:30Z</time>
      </trkpt>
      <trkpt lat="49.43637" lon="-1.21812">
        <ele>0.5</ele>
        <time>2022-06-02T09:21:31Z</time>
      </trkpt>
      <trkpt lat="49.43638" lon="-1.21811">
        <ele>0.5</ele>
        <time>2022-06-02T09:21:32Z</time>
      </trkpt>
      <trkpt lat="49.43639" lon="-1.21809">
        <ele>0.5</ele>
        <time>2022-06-02T09:21:33Z</time>
      </trkpt>
      <trkpt lat="49.4364" lon="-1.21808">
        <ele>0.5</ele>
        <time>2022-06-02T09:21:34Z</time>
      </trkpt>
      <trkpt lat="49.43641" lon="-1.21808">
        <ele>0.5</ele>
        <time>2022-06-02T09:21:35Z</time>
      </trkpt>
      <trkpt lat="49.43643" lon="-1.21806">
        <ele>0.6</ele>
        <time>2022-06-02T09:21:36Z</time>
      </trkpt>
      <trkpt lat="49.43643" lon="-1.21805">
        <ele>0.6</ele>
        <time>2022-06-02T09:21:37Z</time>
      </trkpt>
      <trkpt lat="49.43644" lon="-1.21805">
        <ele>0.6</ele>
        <time>2022-06-02T09:21:38Z</time>
      </trkpt>
      <trkpt lat="49.43645" lon="-1.21804">
        <ele>0.6</ele>
        <time>2022-06-02T09:21:39Z</time>
      </trkpt>
      <trkpt lat="49.43646" lon="-1.21803">
        <ele>0.6</ele>
        <time>2022-06-02T09:21:41Z</time>
      </trkpt>
      <trkpt lat="49.43647" lon="-1.21802">
        <ele>0.6</ele>
        <time>2022-06-02T09:21:42Z</time>
      </trkpt>
      <trkpt lat="49.43648" lon="-1.21801">
        <ele>0.6</ele>
        <time>2022-06-02T09:21:43Z</time>
      </trkpt>
      <trkpt lat="49.4365" lon="-1.218">
        <ele>0.6</ele>
        <time>2022-06-02T09:21:44Z</time>
      </trkpt>
      <trkpt lat="49.43651" lon="-1.21799">
        <ele>0.6</ele>
        <time>2022-06-02T09:21:45Z</time>
      </trkpt>
      <trkpt lat="49.43652" lon="-1.21798">
        <ele>0.6</ele>
        <time>2022-06-02T09:21:46Z</time>
      </trkpt>
      <trkpt lat="49.43653" lon="-1.21797">
        <ele>0.6</ele>
        <time>2022-06-02T09:21:47Z</time>
      </trkpt>
      <trkpt lat="49.43654" lon="-1.21796">
        <ele>0.6</ele>
        <time>2022-06-02T09:21:48Z</time>
      </trkpt>
      <trkpt lat="49.43655" lon="-1.21796">
        <ele>0.6</ele>
        <time>2022-06-02T09:21:49Z</time>
      </trkpt>
      <trkpt lat="49.43656" lon="-1.21795">
        <ele>0.6</ele>
        <time>2022-06-02T09:21:51Z</time>
      </trkpt>
      <trkpt lat="49.43657" lon="-1.21794">
        <ele>0.6</ele>
        <time>2022-06-02T09:21:52Z</time>
      </trkpt>
      <trkpt lat="49.43658" lon="-1.21793">
        <ele>0.6</ele>
        <time>2022-06-02T09:21:53Z</time>
      </trkpt>
      <trkpt lat="49.4366" lon="-1.21792">
        <ele>0.6</ele>
        <time>2022-06-02T09:21:54Z</time>
      </trkpt>
      <trkpt lat="49.43662" lon="-1.21791">
        <ele>0.6</ele>
        <time>2022-06-02T09:21:55Z</time>
      </trkpt>
      <trkpt lat="49.43662" lon="-1.2179">
        <ele>0.6</ele>
        <time>2022-06-02T09:21:56Z</time>
      </trkpt>
      <trkpt lat="49.43663" lon="-1.21789">
        <ele>0.6</ele>
        <time>2022-06-02T09:21:57Z</time>
      </trkpt>
      <trkpt lat="49.43664" lon="-1.21788">
        <ele>0.6</ele>
        <time>2022-06-02T09:21:58Z</time>
      </trkpt>
      <trkpt lat="49.43665" lon="-1.21787">
        <ele>0.6</ele>
        <time>2022-06-02T09:21:59Z</time>
      </trkpt>
      <trkpt lat="49.43666" lon="-1.21785">
        <ele>0.6</ele>
        <time>2022-06-02T09:22:01Z</time>
      </trkpt>
      <trkpt lat="49.43668" lon="-1.21784">
        <ele>0.6</ele>
        <time>2022-06-02T09:22:02Z</time>
      </trkpt>
      <trkpt lat="49.4367" lon="-1.21783">
        <ele>0.6</ele>
        <time>2022-06-02T09:22:03Z</time>
      </trkpt>
      <trkpt lat="49.43671" lon="-1.21782">
        <ele>0.6</ele>
        <time>2022-06-02T09:22:05Z</time>
      </trkpt>
      <trkpt lat="49.43672" lon="-1.21782">
        <ele>0.6</ele>
        <time>2022-06-02T09:22:06Z</time>
      </trkpt>
      <trkpt lat="49.43673" lon="-1.21781">
        <ele>0.6</ele>
        <time>2022-06-02T09:22:07Z</time>
      </trkpt>
      <trkpt lat="49.43674" lon="-1.2178">
        <ele>0.6</ele>
        <time>2022-06-02T09:22:08Z</time>
      </trkpt>
      <trkpt lat="49.43676" lon="-1.21779">
        <ele>0.6</ele>
        <time>2022-06-02T09:22:09Z</time>
      </trkpt>
      <trkpt lat="49.43677" lon="-1.21779">
        <ele>0.6</ele>
        <time>2022-06-02T09:22:10Z</time>
      </trkpt>
      <trkpt lat="49.43678" lon="-1.21778">
        <ele>0.6</ele>
        <time>2022-06-02T09:22:11Z</time>
      </trkpt>
      <trkpt lat="49.4368" lon="-1.21777">
        <ele>0.5</ele>
        <time>2022-06-02T09:22:12Z</time>
      </trkpt>
      <trkpt lat="49.43681" lon="-1.21776">
        <ele>0.5</ele>
        <time>2022-06-02T09:22:13Z</time>
      </trkpt>
      <trkpt lat="49.43682" lon="-1.21776">
        <ele>0.5</ele>
        <time>2022-06-02T09:22:14Z</time>
      </trkpt>
      <trkpt lat="49.43682" lon="-1.21775">
        <ele>0.6</ele>
        <time>2022-06-02T09:22:15Z</time>
      </trkpt>
      <trkpt lat="49.43683" lon="-1.21774">
        <ele>0.6</ele>
        <time>2022-06-02T09:22:16Z</time>
      </trkpt>
      <trkpt lat="49.43685" lon="-1.21773">
        <ele>0.6</ele>
        <time>2022-06-02T09:22:18Z</time>
      </trkpt>
      <trkpt lat="49.43686" lon="-1.21773">
        <ele>0.6</ele>
        <time>2022-06-02T09:22:19Z</time>
      </trkpt>
      <trkpt lat="49.43687" lon="-1.21772">
        <ele>0.6</ele>
        <time>2022-06-02T09:22:20Z</time>
      </trkpt>
      <trkpt lat="49.43688" lon="-1.21772">
        <ele>0.6</ele>
        <time>2022-06-02T09:22:21Z</time>
      </trkpt>
      <trkpt lat="49.43689" lon="-1.21771">
        <ele>0.6</ele>
        <time>2022-06-02T09:22:22Z</time>
      </trkpt>
      <trkpt lat="49.43689" lon="-1.21771">
        <ele>0.6</ele>
        <time>2022-06-02T09:22:23Z</time>
      </trkpt>
      <trkpt lat="49.4369" lon="-1.2177">
        <ele>0.6</ele>
        <time>2022-06-02T09:22:24Z</time>
      </trkpt>
      <trkpt lat="49.43691" lon="-1.2177">
        <ele>0.7</ele>
        <time>2022-06-02T09:22:25Z</time>
      </trkpt>
      <trkpt lat="49.43692" lon="-1.21769">
        <ele>0.7</ele>
        <time>2022-06-02T09:22:26Z</time>
      </trkpt>
      <trkpt lat="49.43693" lon="-1.21768">
        <ele>0.7</ele>
        <time>2022-06-02T09:22:27Z</time>
      </trkpt>
      <trkpt lat="49.43694" lon="-1.21767">
        <ele>0.7</ele>
        <time>2022-06-02T09:22:28Z</time>
      </trkpt>
      <trkpt lat="49.43695" lon="-1.21767">
        <ele>0.7</ele>
        <time>2022-06-02T09:22:29Z</time>
      </trkpt>
      <trkpt lat="49.43696" lon="-1.21766">
        <ele>0.7</ele>
        <time>2022-06-02T09:22:30Z</time>
      </trkpt>
      <trkpt lat="49.43697" lon="-1.21766">
        <ele>0.7</ele>
        <time>2022-06-02T09:22:31Z</time>
      </trkpt>
      <trkpt lat="49.43699" lon="-1.21764">
        <ele>0.8</ele>
        <time>2022-06-02T09:22:32Z</time>
      </trkpt>
      <trkpt lat="49.43699" lon="-1.21764">
        <ele>0.8</ele>
        <time>2022-06-02T09:22:34Z</time>
      </trkpt>
      <trkpt lat="49.437" lon="-1.21763">
        <ele>0.8</ele>
        <time>2022-06-02T09:22:35Z</time>
      </trkpt>
      <trkpt lat="49.43701" lon="-1.21762">
        <ele>0.8</ele>
        <time>2022-06-02T09:22:36Z</time>
      </trkpt>
      <trkpt lat="49.43703" lon="-1.21761">
        <ele>0.8</ele>
        <time>2022-06-02T09:22:37Z</time>
      </trkpt>
      <trkpt lat="49.43703" lon="-1.21761">
        <ele>0.8</ele>
        <time>2022-06-02T09:22:38Z</time>
      </trkpt>
      <trkpt lat="49.43704" lon="-1.21761">
        <ele>0.8</ele>
        <time>2022-06-02T09:22:39Z</time>
      </trkpt>
      <trkpt lat="49.43705" lon="-1.2176">
        <ele>0.8</ele>
        <time>2022-06-02T09:22:40Z</time>
      </trkpt>
      <trkpt lat="49.43706" lon="-1.2176">
        <ele>0.9</ele>
        <time>2022-06-02T09:22:41Z</time>
      </trkpt>
      <trkpt lat="49.43707" lon="-1.21759">
        <ele>0.9</ele>
        <time>2022-06-02T09:22:42Z</time>
      </trkpt>
      <trkpt lat="49.43709" lon="-1.21759">
        <ele>0.9</ele>
        <time>2022-06-02T09:22:43Z</time>
      </trkpt>
      <trkpt lat="49.43711" lon="-1.21758">
        <ele>0.9</ele>
        <time>2022-06-02T09:22:45Z</time>
      </trkpt>
      <trkpt lat="49.43713" lon="-1.21757">
        <ele>1</ele>
        <time>2022-06-02T09:22:46Z</time>
      </trkpt>
      <trkpt lat="49.43713" lon="-1.21757">
        <ele>1</ele>
        <time>2022-06-02T09:22:47Z</time>
      </trkpt>
      <trkpt lat="49.43714" lon="-1.21756">
        <ele>1</ele>
        <time>2022-06-02T09:22:48Z</time>
      </trkpt>
      <trkpt lat="49.43716" lon="-1.21755">
        <ele>1</ele>
        <time>2022-06-02T09:22:49Z</time>
      </trkpt>
      <trkpt lat="49.43717" lon="-1.21754">
        <ele>1</ele>
        <time>2022-06-02T09:22:50Z</time>
      </trkpt>
      <trkpt lat="49.43717" lon="-1.21754">
        <ele>1.1</ele>
        <time>2022-06-02T09:22:51Z</time>
      </trkpt>
      <trkpt lat="49.43719" lon="-1.21753">
        <ele>1.1</ele>
        <time>2022-06-02T09:22:53Z</time>
      </trkpt>
      <trkpt lat="49.4372" lon="-1.21752">
        <ele>1.1</ele>
        <time>2022-06-02T09:22:54Z</time>
      </trkpt>
      <trkpt lat="49.43721" lon="-1.21752">
        <ele>1.1</ele>
        <time>2022-06-02T09:22:55Z</time>
      </trkpt>
      <trkpt lat="49.43723" lon="-1.21751">
        <ele>1.1</ele>
        <time>2022-06-02T09:22:56Z</time>
      </trkpt>
      <trkpt lat="49.43724" lon="-1.2175">
        <ele>1.1</ele>
        <time>2022-06-02T09:22:57Z</time>
      </trkpt>
      <trkpt lat="49.43725" lon="-1.2175">
        <ele>1.1</ele>
        <time>2022-06-02T09:22:58Z</time>
      </trkpt>
      <trkpt lat="49.43727" lon="-1.21749">
        <ele>1.1</ele>
        <time>2022-06-02T09:22:59Z</time>
      </trkpt>
      <trkpt lat="49.43728" lon="-1.21748">
        <ele>1.1</ele>
        <time>2022-06-02T09:23:00Z</time>
      </trkpt>
      <trkpt lat="49.43728" lon="-1.21747">
        <ele>1.1</ele>
        <time>2022-06-02T09:23:01Z</time>
      </trkpt>
      <trkpt lat="49.4373" lon="-1.21746">
        <ele>1.1</ele>
        <time>2022-06-02T09:23:03Z</time>
      </trkpt>
      <trkpt lat="49.43731" lon="-1.21745">
        <ele>1.1</ele>
        <time>2022-06-02T09:23:04Z</time>
      </trkpt>
      <trkpt lat="49.43733" lon="-1.21743">
        <ele>1.1</ele>
        <time>2022-06-02T09:23:05Z</time>
      </trkpt>
      <trkpt lat="49.43734" lon="-1.21743">
        <ele>1.1</ele>
        <time>2022-06-02T09:23:06Z</time>
      </trkpt>
      <trkpt lat="49.43735" lon="-1.21742">
        <ele>1.1</ele>
        <time>2022-06-02T09:23:07Z</time>
      </trkpt>
      <trkpt lat="49.43736" lon="-1.21741">
        <ele>1</ele>
        <time>2022-06-02T09:23:08Z</time>
      </trkpt>
      <trkpt lat="49.43737" lon="-1.2174">
        <ele>1</ele>
        <time>2022-06-02T09:23:09Z</time>
      </trkpt>
      <trkpt lat="49.43739" lon="-1.21739">
        <ele>1</ele>
        <time>2022-06-02T09:23:10Z</time>
      </trkpt>
      <trkpt lat="49.4374" lon="-1.21738">
        <ele>1</ele>
        <time>2022-06-02T09:23:11Z</time>
      </trkpt>
      <trkpt lat="49.43741" lon="-1.21737">
        <ele>1</ele>
        <time>2022-06-02T09:23:12Z</time>
      </trkpt>
      <trkpt lat="49.43742" lon="-1.21736">
        <ele>1</ele>
        <time>2022-06-02T09:23:14Z</time>
      </trkpt>
      <trkpt lat="49.43743" lon="-1.21736">
        <ele>1</ele>
        <time>2022-06-02T09:23:15Z</time>
      </trkpt>
      <trkpt lat="49.43745" lon="-1.21734">
        <ele>1</ele>
        <time>2022-06-02T09:23:16Z</time>
      </trkpt>
      <trkpt lat="49.43746" lon="-1.21734">
        <ele>1</ele>
        <time>2022-06-02T09:23:17Z</time>
      </trkpt>
      <trkpt lat="49.43747" lon="-1.21733">
        <ele>1</ele>
        <time>2022-06-02T09:23:18Z</time>
      </trkpt>
      <trkpt lat="49.43749" lon="-1.21732">
        <ele>1</ele>
        <time>2022-06-02T09:23:20Z</time>
      </trkpt>
      <trkpt lat="49.4375" lon="-1.21732">
        <ele>1</ele>
        <time>2022-06-02T09:23:21Z</time>
      </trkpt>
      <trkpt lat="49.43751" lon="-1.21731">
        <ele>1</ele>
        <time>2022-06-02T09:23:22Z</time>
      </trkpt>
      <trkpt lat="49.43752" lon="-1.21731">
        <ele>1</ele>
        <time>2022-06-02T09:23:23Z</time>
      </trkpt>
      <trkpt lat="49.43753" lon="-1.21731">
        <ele>1</ele>
        <time>2022-06-02T09:23:24Z</time>
      </trkpt>
      <trkpt lat="49.43754" lon="-1.2173">
        <ele>1</ele>
        <time>2022-06-02T09:23:25Z</time>
      </trkpt>
      <trkpt lat="49.43755" lon="-1.21729">
        <ele>1</ele>
        <time>2022-06-02T09:23:26Z</time>
      </trkpt>
      <trkpt lat="49.43756" lon="-1.21729">
        <ele>1</ele>
        <time>2022-06-02T09:23:27Z</time>
      </trkpt>
      <trkpt lat="49.43758" lon="-1.21728">
        <ele>1</ele>
        <time>2022-06-02T09:23:28Z</time>
      </trkpt>
      <trkpt lat="49.43759" lon="-1.21727">
        <ele>1</ele>
        <time>2022-06-02T09:23:30Z</time>
      </trkpt>
      <trkpt lat="49.4376" lon="-1.21727">
        <ele>1</ele>
        <time>2022-06-02T09:23:31Z</time>
      </trkpt>
      <trkpt lat="49.43761" lon="-1.21726">
        <ele>1</ele>
        <time>2022-06-02T09:23:32Z</time>
      </trkpt>
      <trkpt lat="49.43763" lon="-1.21725">
        <ele>1</ele>
        <time>2022-06-02T09:23:33Z</time>
      </trkpt>
      <trkpt lat="49.43764" lon="-1.21724">
        <ele>1</ele>
        <time>2022-06-02T09:23:34Z</time>
      </trkpt>
      <trkpt lat="49.43766" lon="-1.21723">
        <ele>1</ele>
        <time>2022-06-02T09:23:35Z</time>
      </trkpt>
      <trkpt lat="49.43767" lon="-1.21723">
        <ele>1</ele>
        <time>2022-06-02T09:23:36Z</time>
      </trkpt>
      <trkpt lat="49.43768" lon="-1.21722">
        <ele>1</ele>
        <time>2022-06-02T09:23:37Z</time>
      </trkpt>
      <trkpt lat="49.43769" lon="-1.21721">
        <ele>1</ele>
        <time>2022-06-02T09:23:39Z</time>
      </trkpt>
      <trkpt lat="49.43771" lon="-1.21721">
        <ele>1</ele>
        <time>2022-06-02T09:23:40Z</time>
      </trkpt>
      <trkpt lat="49.43772" lon="-1.2172">
        <ele>1</ele>
        <time>2022-06-02T09:23:41Z</time>
      </trkpt>
      <trkpt lat="49.43774" lon="-1.21719">
        <ele>1</ele>
        <time>2022-06-02T09:23:42Z</time>
      </trkpt>
      <trkpt lat="49.43775" lon="-1.21718">
        <ele>1</ele>
        <time>2022-06-02T09:23:43Z</time>
      </trkpt>
      <trkpt lat="49.43776" lon="-1.21718">
        <ele>1</ele>
        <time>2022-06-02T09:23:44Z</time>
      </trkpt>
      <trkpt lat="49.43777" lon="-1.21717">
        <ele>1</ele>
        <time>2022-06-02T09:23:46Z</time>
      </trkpt>
      <trkpt lat="49.43779" lon="-1.21716">
        <ele>1</ele>
        <time>2022-06-02T09:23:47Z</time>
      </trkpt>
      <trkpt lat="49.4378" lon="-1.21715">
        <ele>1</ele>
        <time>2022-06-02T09:23:48Z</time>
      </trkpt>
      <trkpt lat="49.43781" lon="-1.21714">
        <ele>1</ele>
        <time>2022-06-02T09:23:49Z</time>
      </trkpt>
      <trkpt lat="49.43782" lon="-1.21713">
        <ele>1</ele>
        <time>2022-06-02T09:23:50Z</time>
      </trkpt>
      <trkpt lat="49.43784" lon="-1.21712">
        <ele>1.1</ele>
        <time>2022-06-02T09:23:51Z</time>
      </trkpt>
      <trkpt lat="49.43786" lon="-1.21711">
        <ele>1.1</ele>
        <time>2022-06-02T09:23:52Z</time>
      </trkpt>
      <trkpt lat="49.43787" lon="-1.2171">
        <ele>1.1</ele>
        <time>2022-06-02T09:23:53Z</time>
      </trkpt>
      <trkpt lat="49.43787" lon="-1.2171">
        <ele>1.1</ele>
        <time>2022-06-02T09:23:54Z</time>
      </trkpt>
      <trkpt lat="49.43788" lon="-1.21709">
        <ele>1.1</ele>
        <time>2022-06-02T09:23:55Z</time>
      </trkpt>
      <trkpt lat="49.43789" lon="-1.21708">
        <ele>1.1</ele>
        <time>2022-06-02T09:23:56Z</time>
      </trkpt>
      <trkpt lat="49.4379" lon="-1.21707">
        <ele>1.2</ele>
        <time>2022-06-02T09:23:57Z</time>
      </trkpt>
      <trkpt lat="49.43792" lon="-1.21706">
        <ele>1.2</ele>
        <time>2022-06-02T09:23:58Z</time>
      </trkpt>
      <trkpt lat="49.43793" lon="-1.21705">
        <ele>1.2</ele>
        <time>2022-06-02T09:24:00Z</time>
      </trkpt>
      <trkpt lat="49.43794" lon="-1.21704">
        <ele>1.2</ele>
        <time>2022-06-02T09:24:01Z</time>
      </trkpt>
      <trkpt lat="49.43795" lon="-1.21704">
        <ele>1.3</ele>
        <time>2022-06-02T09:24:02Z</time>
      </trkpt>
      <trkpt lat="49.43796" lon="-1.21703">
        <ele>1.3</ele>
        <time>2022-06-02T09:24:03Z</time>
      </trkpt>
      <trkpt lat="49.43797" lon="-1.21702">
        <ele>1.3</ele>
        <time>2022-06-02T09:24:04Z</time>
      </trkpt>
      <trkpt lat="49.43799" lon="-1.21701">
        <ele>1.3</ele>
        <time>2022-06-02T09:24:05Z</time>
      </trkpt>
      <trkpt lat="49.43799" lon="-1.217">
        <ele>1.3</ele>
        <time>2022-06-02T09:24:06Z</time>
      </trkpt>
      <trkpt lat="49.438" lon="-1.217">
        <ele>1.3</ele>
        <time>2022-06-02T09:24:07Z</time>
      </trkpt>
      <trkpt lat="49.43801" lon="-1.21699">
        <ele>1.3</ele>
        <time>2022-06-02T09:24:08Z</time>
      </trkpt>
      <trkpt lat="49.43802" lon="-1.21698">
        <ele>1.3</ele>
        <time>2022-06-02T09:24:09Z</time>
      </trkpt>
      <trkpt lat="49.43802" lon="-1.21697">
        <ele>1.3</ele>
        <time>2022-06-02T09:24:10Z</time>
      </trkpt>
      <trkpt lat="49.43803" lon="-1.21696">
        <ele>1.4</ele>
        <time>2022-06-02T09:24:11Z</time>
      </trkpt>
      <trkpt lat="49.43804" lon="-1.21695">
        <ele>1.4</ele>
        <time>2022-06-02T09:24:12Z</time>
      </trkpt>
      <trkpt lat="49.43804" lon="-1.21694">
        <ele>1.4</ele>
        <time>2022-06-02T09:24:13Z</time>
      </trkpt>
      <trkpt lat="49.43805" lon="-1.21692">
        <ele>1.4</ele>
        <time>2022-06-02T09:24:14Z</time>
      </trkpt>
      <trkpt lat="49.43806" lon="-1.21691">
        <ele>1.4</ele>
        <time>2022-06-02T09:24:15Z</time>
      </trkpt>
      <trkpt lat="49.43807" lon="-1.21689">
        <ele>1.4</ele>
        <time>2022-06-02T09:24:17Z</time>
      </trkpt>
      <trkpt lat="49.43808" lon="-1.21686">
        <ele>1.4</ele>
        <time>2022-06-02T09:24:18Z</time>
      </trkpt>
      <trkpt lat="49.43809" lon="-1.21685">
        <ele>1.4</ele>
        <time>2022-06-02T09:24:19Z</time>
      </trkpt>
      <trkpt lat="49.43809" lon="-1.21684">
        <ele>1.4</ele>
        <time>2022-06-02T09:24:20Z</time>
      </trkpt>
      <trkpt lat="49.4381" lon="-1.21682">
        <ele>1.4</ele>
        <time>2022-06-02T09:24:21Z</time>
      </trkpt>
      <trkpt lat="49.43811" lon="-1.2168">
        <ele>1.4</ele>
        <time>2022-06-02T09:24:22Z</time>
      </trkpt>
      <trkpt lat="49.43812" lon="-1.21678">
        <ele>1.4</ele>
        <time>2022-06-02T09:24:23Z</time>
      </trkpt>
      <trkpt lat="49.43813" lon="-1.21677">
        <ele>1.4</ele>
        <time>2022-06-02T09:24:24Z</time>
      </trkpt>
      <trkpt lat="49.43813" lon="-1.21676">
        <ele>1.4</ele>
        <time>2022-06-02T09:24:25Z</time>
      </trkpt>
      <trkpt lat="49.43815" lon="-1.21674">
        <ele>1.4</ele>
        <time>2022-06-02T09:24:27Z</time>
      </trkpt>
      <trkpt lat="49.43816" lon="-1.21673">
        <ele>1.4</ele>
        <time>2022-06-02T09:24:28Z</time>
      </trkpt>
      <trkpt lat="49.43816" lon="-1.21672">
        <ele>1.5</ele>
        <time>2022-06-02T09:24:29Z</time>
      </trkpt>
      <trkpt lat="49.43818" lon="-1.2167">
        <ele>1.5</ele>
        <time>2022-06-02T09:24:30Z</time>
      </trkpt>
      <trkpt lat="49.43819" lon="-1.21669">
        <ele>1.5</ele>
        <time>2022-06-02T09:24:31Z</time>
      </trkpt>
      <trkpt lat="49.43819" lon="-1.21668">
        <ele>1.5</ele>
        <time>2022-06-02T09:24:32Z</time>
      </trkpt>
      <trkpt lat="49.43821" lon="-1.21667">
        <ele>1.5</ele>
        <time>2022-06-02T09:24:33Z</time>
      </trkpt>
      <trkpt lat="49.43822" lon="-1.21666">
        <ele>1.5</ele>
        <time>2022-06-02T09:24:34Z</time>
      </trkpt>
      <trkpt lat="49.43823" lon="-1.21666">
        <ele>1.5</ele>
        <time>2022-06-02T09:24:35Z</time>
      </trkpt>
      <trkpt lat="49.43825" lon="-1.21664">
        <ele>1.4</ele>
        <time>2022-06-02T09:24:36Z</time>
      </trkpt>
      <trkpt lat="49.43825" lon="-1.21664">
        <ele>1.4</ele>
        <time>2022-06-02T09:24:38Z</time>
      </trkpt>
      <trkpt lat="49.43826" lon="-1.21663">
        <ele>1.4</ele>
        <time>2022-06-02T09:24:39Z</time>
      </trkpt>
      <trkpt lat="49.43828" lon="-1.21662">
        <ele>1.4</ele>
        <time>2022-06-02T09:24:40Z</time>
      </trkpt>
      <trkpt lat="49.43828" lon="-1.21661">
        <ele>1.4</ele>
        <time>2022-06-02T09:24:41Z</time>
      </trkpt>
      <trkpt lat="49.43829" lon="-1.21661">
        <ele>1.4</ele>
        <time>2022-06-02T09:24:42Z</time>
      </trkpt>
      <trkpt lat="49.4383" lon="-1.21659">
        <ele>1.4</ele>
        <time>2022-06-02T09:24:43Z</time>
      </trkpt>
      <trkpt lat="49.43832" lon="-1.21658">
        <ele>1.4</ele>
        <time>2022-06-02T09:24:45Z</time>
      </trkpt>
      <trkpt lat="49.43833" lon="-1.21656">
        <ele>1.4</ele>
        <time>2022-06-02T09:24:46Z</time>
      </trkpt>
      <trkpt lat="49.43834" lon="-1.21655">
        <ele>1.4</ele>
        <time>2022-06-02T09:24:47Z</time>
      </trkpt>
      <trkpt lat="49.43835" lon="-1.21653">
        <ele>1.4</ele>
        <time>2022-06-02T09:24:48Z</time>
      </trkpt>
      <trkpt lat="49.43836" lon="-1.21651">
        <ele>1.4</ele>
        <time>2022-06-02T09:24:49Z</time>
      </trkpt>
      <trkpt lat="49.43837" lon="-1.2165">
        <ele>1.4</ele>
        <time>2022-06-02T09:24:50Z</time>
      </trkpt>
      <trkpt lat="49.43838" lon="-1.21648">
        <ele>1.4</ele>
        <time>2022-06-02T09:24:52Z</time>
      </trkpt>
      <trkpt lat="49.43839" lon="-1.21647">
        <ele>1.4</ele>
        <time>2022-06-02T09:24:53Z</time>
      </trkpt>
      <trkpt lat="49.4384" lon="-1.21646">
        <ele>1.4</ele>
        <time>2022-06-02T09:24:54Z</time>
      </trkpt>
      <trkpt lat="49.43841" lon="-1.21645">
        <ele>1.4</ele>
        <time>2022-06-02T09:24:55Z</time>
      </trkpt>
      <trkpt lat="49.43842" lon="-1.21643">
        <ele>1.5</ele>
        <time>2022-06-02T09:24:57Z</time>
      </trkpt>
      <trkpt lat="49.43843" lon="-1.21642">
        <ele>1.5</ele>
        <time>2022-06-02T09:24:58Z</time>
      </trkpt>
      <trkpt lat="49.43844" lon="-1.2164">
        <ele>1.5</ele>
        <time>2022-06-02T09:24:59Z</time>
      </trkpt>
      <trkpt lat="49.43845" lon="-1.21638">
        <ele>1.5</ele>
        <time>2022-06-02T09:25:00Z</time>
      </trkpt>
      <trkpt lat="49.43845" lon="-1.21636">
        <ele>1.5</ele>
        <time>2022-06-02T09:25:01Z</time>
      </trkpt>
      <trkpt lat="49.43846" lon="-1.21635">
        <ele>1.5</ele>
        <time>2022-06-02T09:25:02Z</time>
      </trkpt>
      <trkpt lat="49.43847" lon="-1.21632">
        <ele>1.6</ele>
        <time>2022-06-02T09:25:04Z</time>
      </trkpt>
      <trkpt lat="49.43848" lon="-1.21631">
        <ele>1.6</ele>
        <time>2022-06-02T09:25:05Z</time>
      </trkpt>
      <trkpt lat="49.43848" lon="-1.21629">
        <ele>1.6</ele>
        <time>2022-06-02T09:25:06Z</time>
      </trkpt>
      <trkpt lat="49.43849" lon="-1.21628">
        <ele>1.6</ele>
        <time>2022-06-02T09:25:07Z</time>
      </trkpt>
      <trkpt lat="49.43849" lon="-1.21626">
        <ele>1.6</ele>
        <time>2022-06-02T09:25:08Z</time>
      </trkpt>
      <trkpt lat="49.4385" lon="-1.21625">
        <ele>1.7</ele>
        <time>2022-06-02T09:25:09Z</time>
      </trkpt>
      <trkpt lat="49.4385" lon="-1.21623">
        <ele>1.7</ele>
        <time>2022-06-02T09:25:10Z</time>
      </trkpt>
      <trkpt lat="49.43851" lon="-1.21622">
        <ele>1.7</ele>
        <time>2022-06-02T09:25:11Z</time>
      </trkpt>
      <trkpt lat="49.43852" lon="-1.21619">
        <ele>1.7</ele>
        <time>2022-06-02T09:25:12Z</time>
      </trkpt>
      <trkpt lat="49.43852" lon="-1.21618">
        <ele>1.7</ele>
        <time>2022-06-02T09:25:13Z</time>
      </trkpt>
      <trkpt lat="49.43853" lon="-1.21616">
        <ele>1.7</ele>
        <time>2022-06-02T09:25:14Z</time>
      </trkpt>
      <trkpt lat="49.43854" lon="-1.21613">
        <ele>1.7</ele>
        <time>2022-06-02T09:25:15Z</time>
      </trkpt>
      <trkpt lat="49.43854" lon="-1.21612">
        <ele>1.7</ele>
        <time>2022-06-02T09:25:17Z</time>
      </trkpt>
      <trkpt lat="49.43855" lon="-1.21611">
        <ele>1.7</ele>
        <time>2022-06-02T09:25:18Z</time>
      </trkpt>
      <trkpt lat="49.43855" lon="-1.21608">
        <ele>1.6</ele>
        <time>2022-06-02T09:25:19Z</time>
      </trkpt>
      <trkpt lat="49.43855" lon="-1.21606">
        <ele>1.6</ele>
        <time>2022-06-02T09:25:20Z</time>
      </trkpt>
      <trkpt lat="49.43856" lon="-1.21604">
        <ele>1.6</ele>
        <time>2022-06-02T09:25:21Z</time>
      </trkpt>
      <trkpt lat="49.43856" lon="-1.21603">
        <ele>1.6</ele>
        <time>2022-06-02T09:25:23Z</time>
      </trkpt>
      <trkpt lat="49.43856" lon="-1.21601">
        <ele>1.6</ele>
        <time>2022-06-02T09:25:24Z</time>
      </trkpt>
      <trkpt lat="49.43856" lon="-1.21599">
        <ele>1.6</ele>
        <time>2022-06-02T09:25:25Z</time>
      </trkpt>
      <trkpt lat="49.43856" lon="-1.21597">
        <ele>1.6</ele>
        <time>2022-06-02T09:25:26Z</time>
      </trkpt>
      <trkpt lat="49.43857" lon="-1.21596">
        <ele>1.6</ele>
        <time>2022-06-02T09:25:27Z</time>
      </trkpt>
      <trkpt lat="49.43857" lon="-1.21593">
        <ele>1.5</ele>
        <time>2022-06-02T09:25:28Z</time>
      </trkpt>
      <trkpt lat="49.43858" lon="-1.21592">
        <ele>1.5</ele>
        <time>2022-06-02T09:25:29Z</time>
      </trkpt>
      <trkpt lat="49.43858" lon="-1.2159">
        <ele>1.5</ele>
        <time>2022-06-02T09:25:30Z</time>
      </trkpt>
      <trkpt lat="49.43858" lon="-1.21589">
        <ele>1.5</ele>
        <time>2022-06-02T09:25:31Z</time>
      </trkpt>
      <trkpt lat="49.43859" lon="-1.21587">
        <ele>1.5</ele>
        <time>2022-06-02T09:25:32Z</time>
      </trkpt>
      <trkpt lat="49.43859" lon="-1.21586">
        <ele>1.5</ele>
        <time>2022-06-02T09:25:33Z</time>
      </trkpt>
      <trkpt lat="49.43859" lon="-1.21584">
        <ele>1.5</ele>
        <time>2022-06-02T09:25:34Z</time>
      </trkpt>
      <trkpt lat="49.4386" lon="-1.21583">
        <ele>1.5</ele>
        <time>2022-06-02T09:25:36Z</time>
      </trkpt>
      <trkpt lat="49.4386" lon="-1.21581">
        <ele>1.5</ele>
        <time>2022-06-02T09:25:37Z</time>
      </trkpt>
      <trkpt lat="49.43861" lon="-1.21579">
        <ele>1.5</ele>
        <time>2022-06-02T09:25:38Z</time>
      </trkpt>
      <trkpt lat="49.43862" lon="-1.21577">
        <ele>1.5</ele>
        <time>2022-06-02T09:25:39Z</time>
      </trkpt>
      <trkpt lat="49.43863" lon="-1.21575">
        <ele>1.5</ele>
        <time>2022-06-02T09:25:40Z</time>
      </trkpt>
      <trkpt lat="49.43863" lon="-1.21573">
        <ele>1.5</ele>
        <time>2022-06-02T09:25:41Z</time>
      </trkpt>
      <trkpt lat="49.43863" lon="-1.21572">
        <ele>1.4</ele>
        <time>2022-06-02T09:25:42Z</time>
      </trkpt>
      <trkpt lat="49.43864" lon="-1.2157">
        <ele>1.4</ele>
        <time>2022-06-02T09:25:43Z</time>
      </trkpt>
      <trkpt lat="49.43864" lon="-1.21568">
        <ele>1.4</ele>
        <time>2022-06-02T09:25:44Z</time>
      </trkpt>
      <trkpt lat="49.43864" lon="-1.21566">
        <ele>1.4</ele>
        <time>2022-06-02T09:25:45Z</time>
      </trkpt>
      <trkpt lat="49.43865" lon="-1.21563">
        <ele>1.4</ele>
        <time>2022-06-02T09:25:46Z</time>
      </trkpt>
      <trkpt lat="49.43865" lon="-1.21561">
        <ele>1.4</ele>
        <time>2022-06-02T09:25:48Z</time>
      </trkpt>
      <trkpt lat="49.43865" lon="-1.21559">
        <ele>1.4</ele>
        <time>2022-06-02T09:25:49Z</time>
      </trkpt>
      <trkpt lat="49.43866" lon="-1.21557">
        <ele>1.4</ele>
        <time>2022-06-02T09:25:50Z</time>
      </trkpt>
      <trkpt lat="49.43867" lon="-1.21555">
        <ele>1.4</ele>
        <time>2022-06-02T09:25:51Z</time>
      </trkpt>
      <trkpt lat="49.43867" lon="-1.21553">
        <ele>1.5</ele>
        <time>2022-06-02T09:25:52Z</time>
      </trkpt>
      <trkpt lat="49.43868" lon="-1.21551">
        <ele>1.5</ele>
        <time>2022-06-02T09:25:53Z</time>
      </trkpt>
      <trkpt lat="49.43869" lon="-1.21549">
        <ele>1.5</ele>
        <time>2022-06-02T09:25:54Z</time>
      </trkpt>
      <trkpt lat="49.43869" lon="-1.21547">
        <ele>1.5</ele>
        <time>2022-06-02T09:25:55Z</time>
      </trkpt>
      <trkpt lat="49.4387" lon="-1.21545">
        <ele>1.5</ele>
        <time>2022-06-02T09:25:56Z</time>
      </trkpt>
      <trkpt lat="49.43871" lon="-1.21543">
        <ele>1.5</ele>
        <time>2022-06-02T09:25:57Z</time>
      </trkpt>
      <trkpt lat="49.43871" lon="-1.21541">
        <ele>1.5</ele>
        <time>2022-06-02T09:25:58Z</time>
      </trkpt>
      <trkpt lat="49.43871" lon="-1.2154">
        <ele>1.5</ele>
        <time>2022-06-02T09:25:59Z</time>
      </trkpt>
      <trkpt lat="49.43872" lon="-1.21538">
        <ele>1.5</ele>
        <time>2022-06-02T09:26:00Z</time>
      </trkpt>
      <trkpt lat="49.43873" lon="-1.21535">
        <ele>1.5</ele>
        <time>2022-06-02T09:26:02Z</time>
      </trkpt>
      <trkpt lat="49.43873" lon="-1.21534">
        <ele>1.5</ele>
        <time>2022-06-02T09:26:03Z</time>
      </trkpt>
      <trkpt lat="49.43873" lon="-1.21533">
        <ele>1.5</ele>
        <time>2022-06-02T09:26:04Z</time>
      </trkpt>
      <trkpt lat="49.43874" lon="-1.21531">
        <ele>1.5</ele>
        <time>2022-06-02T09:26:05Z</time>
      </trkpt>
      <trkpt lat="49.43874" lon="-1.21529">
        <ele>1.5</ele>
        <time>2022-06-02T09:26:06Z</time>
      </trkpt>
      <trkpt lat="49.43874" lon="-1.21528">
        <ele>1.6</ele>
        <time>2022-06-02T09:26:07Z</time>
      </trkpt>
      <trkpt lat="49.43875" lon="-1.21525">
        <ele>1.6</ele>
        <time>2022-06-02T09:26:08Z</time>
      </trkpt>
      <trkpt lat="49.43876" lon="-1.21524">
        <ele>1.6</ele>
        <time>2022-06-02T09:26:09Z</time>
      </trkpt>
      <trkpt lat="49.43876" lon="-1.21523">
        <ele>1.6</ele>
        <time>2022-06-02T09:26:10Z</time>
      </trkpt>
      <trkpt lat="49.43877" lon="-1.21521">
        <ele>1.6</ele>
        <time>2022-06-02T09:26:11Z</time>
      </trkpt>
      <trkpt lat="49.43877" lon="-1.2152">
        <ele>1.6</ele>
        <time>2022-06-02T09:26:12Z</time>
      </trkpt>
      <trkpt lat="49.43878" lon="-1.21518">
        <ele>1.6</ele>
        <time>2022-06-02T09:26:13Z</time>
      </trkpt>
      <trkpt lat="49.43878" lon="-1.21517">
        <ele>1.6</ele>
        <time>2022-06-02T09:26:14Z</time>
      </trkpt>
      <trkpt lat="49.43879" lon="-1.21515">
        <ele>1.6</ele>
        <time>2022-06-02T09:26:16Z</time>
      </trkpt>
      <trkpt lat="49.43879" lon="-1.21513">
        <ele>1.7</ele>
        <time>2022-06-02T09:26:17Z</time>
      </trkpt>
      <trkpt lat="49.4388" lon="-1.2151">
        <ele>1.7</ele>
        <time>2022-06-02T09:26:18Z</time>
      </trkpt>
      <trkpt lat="49.4388" lon="-1.21509">
        <ele>1.7</ele>
        <time>2022-06-02T09:26:19Z</time>
      </trkpt>
      <trkpt lat="49.43881" lon="-1.21508">
        <ele>1.7</ele>
        <time>2022-06-02T09:26:20Z</time>
      </trkpt>
      <trkpt lat="49.43881" lon="-1.21507">
        <ele>1.7</ele>
        <time>2022-06-02T09:26:21Z</time>
      </trkpt>
      <trkpt lat="49.43882" lon="-1.21505">
        <ele>1.7</ele>
        <time>2022-06-02T09:26:22Z</time>
      </trkpt>
      <trkpt lat="49.43882" lon="-1.21503">
        <ele>1.7</ele>
        <time>2022-06-02T09:26:23Z</time>
      </trkpt>
      <trkpt lat="49.43883" lon="-1.21501">
        <ele>1.7</ele>
        <time>2022-06-02T09:26:24Z</time>
      </trkpt>
      <trkpt lat="49.43884" lon="-1.21499">
        <ele>1.7</ele>
        <time>2022-06-02T09:26:25Z</time>
      </trkpt>
      <trkpt lat="49.43884" lon="-1.21497">
        <ele>1.7</ele>
        <time>2022-06-02T09:26:27Z</time>
      </trkpt>
      <trkpt lat="49.43885" lon="-1.21496">
        <ele>1.7</ele>
        <time>2022-06-02T09:26:28Z</time>
      </trkpt>
      <trkpt lat="49.43885" lon="-1.21494">
        <ele>1.7</ele>
        <time>2022-06-02T09:26:29Z</time>
      </trkpt>
      <trkpt lat="49.43886" lon="-1.21493">
        <ele>1.7</ele>
        <time>2022-06-02T09:26:30Z</time>
      </trkpt>
      <trkpt lat="49.43887" lon="-1.21492">
        <ele>1.7</ele>
        <time>2022-06-02T09:26:31Z</time>
      </trkpt>
      <trkpt lat="49.43887" lon="-1.2149">
        <ele>1.7</ele>
        <time>2022-06-02T09:26:32Z</time>
      </trkpt>
      <trkpt lat="49.43888" lon="-1.21488">
        <ele>1.7</ele>
        <time>2022-06-02T09:26:33Z</time>
      </trkpt>
      <trkpt lat="49.43889" lon="-1.21487">
        <ele>1.7</ele>
        <time>2022-06-02T09:26:34Z</time>
      </trkpt>
      <trkpt lat="49.4389" lon="-1.21485">
        <ele>1.7</ele>
        <time>2022-06-02T09:26:35Z</time>
      </trkpt>
      <trkpt lat="49.43891" lon="-1.21483">
        <ele>1.7</ele>
        <time>2022-06-02T09:26:36Z</time>
      </trkpt>
      <trkpt lat="49.43891" lon="-1.21481">
        <ele>1.6</ele>
        <time>2022-06-02T09:26:37Z</time>
      </trkpt>
      <trkpt lat="49.43892" lon="-1.21479">
        <ele>1.6</ele>
        <time>2022-06-02T09:26:39Z</time>
      </trkpt>
      <trkpt lat="49.43892" lon="-1.21477">
        <ele>1.6</ele>
        <time>2022-06-02T09:26:40Z</time>
      </trkpt>
      <trkpt lat="49.43893" lon="-1.21475">
        <ele>1.6</ele>
        <time>2022-06-02T09:26:41Z</time>
      </trkpt>
      <trkpt lat="49.43894" lon="-1.21472">
        <ele>1.6</ele>
        <time>2022-06-02T09:26:42Z</time>
      </trkpt>
      <trkpt lat="49.43894" lon="-1.21471">
        <ele>1.6</ele>
        <time>2022-06-02T09:26:43Z</time>
      </trkpt>
      <trkpt lat="49.43895" lon="-1.2147">
        <ele>1.6</ele>
        <time>2022-06-02T09:26:44Z</time>
      </trkpt>
      <trkpt lat="49.43896" lon="-1.21467">
        <ele>1.6</ele>
        <time>2022-06-02T09:26:45Z</time>
      </trkpt>
      <trkpt lat="49.43896" lon="-1.21465">
        <ele>1.6</ele>
        <time>2022-06-02T09:26:47Z</time>
      </trkpt>
      <trkpt lat="49.43897" lon="-1.21464">
        <ele>1.6</ele>
        <time>2022-06-02T09:26:48Z</time>
      </trkpt>
      <trkpt lat="49.43897" lon="-1.21463">
        <ele>1.6</ele>
        <time>2022-06-02T09:26:49Z</time>
      </trkpt>
      <trkpt lat="49.43898" lon="-1.21461">
        <ele>1.6</ele>
        <time>2022-06-02T09:26:50Z</time>
      </trkpt>
      <trkpt lat="49.43899" lon="-1.21458">
        <ele>1.6</ele>
        <time>2022-06-02T09:26:51Z</time>
      </trkpt>
      <trkpt lat="49.43899" lon="-1.21457">
        <ele>1.6</ele>
        <time>2022-06-02T09:26:52Z</time>
      </trkpt>
      <trkpt lat="49.439" lon="-1.21456">
        <ele>1.6</ele>
        <time>2022-06-02T09:26:53Z</time>
      </trkpt>
      <trkpt lat="49.43901" lon="-1.21454">
        <ele>1.5</ele>
        <time>2022-06-02T09:26:55Z</time>
      </trkpt>
      <trkpt lat="49.43902" lon="-1.21452">
        <ele>1.5</ele>
        <time>2022-06-02T09:26:56Z</time>
      </trkpt>
      <trkpt lat="49.43903" lon="-1.2145">
        <ele>1.5</ele>
        <time>2022-06-02T09:26:57Z</time>
      </trkpt>
      <trkpt lat="49.43904" lon="-1.21449">
        <ele>1.5</ele>
        <time>2022-06-02T09:26:58Z</time>
      </trkpt>
      <trkpt lat="49.43904" lon="-1.21448">
        <ele>1.5</ele>
        <time>2022-06-02T09:26:59Z</time>
      </trkpt>
      <trkpt lat="49.43905" lon="-1.21447">
        <ele>1.5</ele>
        <time>2022-06-02T09:27:00Z</time>
      </trkpt>
      <trkpt lat="49.43906" lon="-1.21445">
        <ele>1.5</ele>
        <time>2022-06-02T09:27:01Z</time>
      </trkpt>
      <trkpt lat="49.43907" lon="-1.21444">
        <ele>1.4</ele>
        <time>2022-06-02T09:27:02Z</time>
      </trkpt>
      <trkpt lat="49.43908" lon="-1.21442">
        <ele>1.4</ele>
        <time>2022-06-02T09:27:03Z</time>
      </trkpt>
      <trkpt lat="49.43909" lon="-1.2144">
        <ele>1.4</ele>
        <time>2022-06-02T09:27:05Z</time>
      </trkpt>
      <trkpt lat="49.4391" lon="-1.21439">
        <ele>1.4</ele>
        <time>2022-06-02T09:27:06Z</time>
      </trkpt>
      <trkpt lat="49.43911" lon="-1.21437">
        <ele>1.4</ele>
        <time>2022-06-02T09:27:07Z</time>
      </trkpt>
      <trkpt lat="49.43912" lon="-1.21436">
        <ele>1.4</ele>
        <time>2022-06-02T09:27:08Z</time>
      </trkpt>
      <trkpt lat="49.43913" lon="-1.21434">
        <ele>1.4</ele>
        <time>2022-06-02T09:27:09Z</time>
      </trkpt>
      <trkpt lat="49.43914" lon="-1.21432">
        <ele>1.4</ele>
        <time>2022-06-02T09:27:10Z</time>
      </trkpt>
      <trkpt lat="49.43915" lon="-1.21431">
        <ele>1.4</ele>
        <time>2022-06-02T09:27:11Z</time>
      </trkpt>
      <trkpt lat="49.43916" lon="-1.21429">
        <ele>1.4</ele>
        <time>2022-06-02T09:27:12Z</time>
      </trkpt>
      <trkpt lat="49.43916" lon="-1.21428">
        <ele>1.4</ele>
        <time>2022-06-02T09:27:14Z</time>
      </trkpt>
      <trkpt lat="49.43917" lon="-1.21427">
        <ele>1.4</ele>
        <time>2022-06-02T09:27:15Z</time>
      </trkpt>
      <trkpt lat="49.43918" lon="-1.21426">
        <ele>1.4</ele>
        <time>2022-06-02T09:27:16Z</time>
      </trkpt>
      <trkpt lat="49.43919" lon="-1.21424">
        <ele>1.4</ele>
        <time>2022-06-02T09:27:17Z</time>
      </trkpt>
      <trkpt lat="49.43921" lon="-1.21422">
        <ele>1.4</ele>
        <time>2022-06-02T09:27:18Z</time>
      </trkpt>
      <trkpt lat="49.43921" lon="-1.21421">
        <ele>1.4</ele>
        <time>2022-06-02T09:27:19Z</time>
      </trkpt>
      <trkpt lat="49.43922" lon="-1.2142">
        <ele>1.4</ele>
        <time>2022-06-02T09:27:20Z</time>
      </trkpt>
      <trkpt lat="49.43923" lon="-1.21418">
        <ele>1.5</ele>
        <time>2022-06-02T09:27:21Z</time>
      </trkpt>
      <trkpt lat="49.43924" lon="-1.21417">
        <ele>1.5</ele>
        <time>2022-06-02T09:27:22Z</time>
      </trkpt>
      <trkpt lat="49.43924" lon="-1.21416">
        <ele>1.5</ele>
        <time>2022-06-02T09:27:23Z</time>
      </trkpt>
      <trkpt lat="49.43925" lon="-1.21415">
        <ele>1.5</ele>
        <time>2022-06-02T09:27:24Z</time>
      </trkpt>
      <trkpt lat="49.43926" lon="-1.21414">
        <ele>1.5</ele>
        <time>2022-06-02T09:27:25Z</time>
      </trkpt>
      <trkpt lat="49.43927" lon="-1.21413">
        <ele>1.5</ele>
        <time>2022-06-02T09:27:27Z</time>
      </trkpt>
      <trkpt lat="49.43928" lon="-1.21412">
        <ele>1.5</ele>
        <time>2022-06-02T09:27:28Z</time>
      </trkpt>
      <trkpt lat="49.43929" lon="-1.21411">
        <ele>1.5</ele>
        <time>2022-06-02T09:27:29Z</time>
      </trkpt>
      <trkpt lat="49.4393" lon="-1.2141">
        <ele>1.5</ele>
        <time>2022-06-02T09:27:30Z</time>
      </trkpt>
      <trkpt lat="49.4393" lon="-1.21408">
        <ele>1.5</ele>
        <time>2022-06-02T09:27:31Z</time>
      </trkpt>
      <trkpt lat="49.43931" lon="-1.21407">
        <ele>1.5</ele>
        <time>2022-06-02T09:27:32Z</time>
      </trkpt>
      <trkpt lat="49.43932" lon="-1.21405">
        <ele>1.5</ele>
        <time>2022-06-02T09:27:33Z</time>
      </trkpt>
      <trkpt lat="49.43933" lon="-1.21403">
        <ele>1.5</ele>
        <time>2022-06-02T09:27:34Z</time>
      </trkpt>
      <trkpt lat="49.43934" lon="-1.21401">
        <ele>1.5</ele>
        <time>2022-06-02T09:27:35Z</time>
      </trkpt>
      <trkpt lat="49.43934" lon="-1.21399">
        <ele>1.6</ele>
        <time>2022-06-02T09:27:36Z</time>
      </trkpt>
      <trkpt lat="49.43935" lon="-1.21396">
        <ele>1.6</ele>
        <time>2022-06-02T09:27:37Z</time>
      </trkpt>
      <trkpt lat="49.43936" lon="-1.21395">
        <ele>1.6</ele>
        <time>2022-06-02T09:27:38Z</time>
      </trkpt>
      <trkpt lat="49.43936" lon="-1.21394">
        <ele>1.6</ele>
        <time>2022-06-02T09:27:39Z</time>
      </trkpt>
      <trkpt lat="49.43937" lon="-1.21392">
        <ele>1.6</ele>
        <time>2022-06-02T09:27:40Z</time>
      </trkpt>
      <trkpt lat="49.43937" lon="-1.2139">
        <ele>1.6</ele>
        <time>2022-06-02T09:27:41Z</time>
      </trkpt>
      <trkpt lat="49.43938" lon="-1.21389">
        <ele>1.6</ele>
        <time>2022-06-02T09:27:43Z</time>
      </trkpt>
      <trkpt lat="49.43939" lon="-1.21387">
        <ele>1.7</ele>
        <time>2022-06-02T09:27:44Z</time>
      </trkpt>
      <trkpt lat="49.43939" lon="-1.21386">
        <ele>1.7</ele>
        <time>2022-06-02T09:27:45Z</time>
      </trkpt>
      <trkpt lat="49.4394" lon="-1.21384">
        <ele>1.7</ele>
        <time>2022-06-02T09:27:46Z</time>
      </trkpt>
      <trkpt lat="49.43941" lon="-1.21382">
        <ele>1.7</ele>
        <time>2022-06-02T09:27:47Z</time>
      </trkpt>
      <trkpt lat="49.43941" lon="-1.21381">
        <ele>1.7</ele>
        <time>2022-06-02T09:27:48Z</time>
      </trkpt>
      <trkpt lat="49.43942" lon="-1.2138">
        <ele>1.7</ele>
        <time>2022-06-02T09:27:49Z</time>
      </trkpt>
      <trkpt lat="49.43943" lon="-1.21378">
        <ele>1.7</ele>
        <time>2022-06-02T09:27:50Z</time>
      </trkpt>
      <trkpt lat="49.43943" lon="-1.21377">
        <ele>1.7</ele>
        <time>2022-06-02T09:27:51Z</time>
      </trkpt>
      <trkpt lat="49.43944" lon="-1.21376">
        <ele>1.7</ele>
        <time>2022-06-02T09:27:52Z</time>
      </trkpt>
      <trkpt lat="49.43945" lon="-1.21374">
        <ele>1.7</ele>
        <time>2022-06-02T09:27:53Z</time>
      </trkpt>
      <trkpt lat="49.43945" lon="-1.21373">
        <ele>1.8</ele>
        <time>2022-06-02T09:27:54Z</time>
      </trkpt>
      <trkpt lat="49.43946" lon="-1.21372">
        <ele>1.8</ele>
        <time>2022-06-02T09:27:55Z</time>
      </trkpt>
      <trkpt lat="49.43948" lon="-1.21369">
        <ele>1.8</ele>
        <time>2022-06-02T09:27:56Z</time>
      </trkpt>
      <trkpt lat="49.43948" lon="-1.21368">
        <ele>1.8</ele>
        <time>2022-06-02T09:27:58Z</time>
      </trkpt>
      <trkpt lat="49.43949" lon="-1.21367">
        <ele>1.8</ele>
        <time>2022-06-02T09:27:59Z</time>
      </trkpt>
      <trkpt lat="49.4395" lon="-1.21365">
        <ele>1.8</ele>
        <time>2022-06-02T09:28:00Z</time>
      </trkpt>
      <trkpt lat="49.4395" lon="-1.21364">
        <ele>1.8</ele>
        <time>2022-06-02T09:28:01Z</time>
      </trkpt>
      <trkpt lat="49.43951" lon="-1.21362">
        <ele>1.8</ele>
        <time>2022-06-02T09:28:02Z</time>
      </trkpt>
      <trkpt lat="49.43952" lon="-1.21361">
        <ele>1.8</ele>
        <time>2022-06-02T09:28:03Z</time>
      </trkpt>
      <trkpt lat="49.43953" lon="-1.21358">
        <ele>1.8</ele>
        <time>2022-06-02T09:28:05Z</time>
      </trkpt>
      <trkpt lat="49.43954" lon="-1.21356">
        <ele>1.8</ele>
        <time>2022-06-02T09:28:06Z</time>
      </trkpt>
      <trkpt lat="49.43955" lon="-1.21355">
        <ele>1.8</ele>
        <time>2022-06-02T09:28:07Z</time>
      </trkpt>
      <trkpt lat="49.43955" lon="-1.21354">
        <ele>1.8</ele>
        <time>2022-06-02T09:28:08Z</time>
      </trkpt>
      <trkpt lat="49.43957" lon="-1.21351">
        <ele>1.8</ele>
        <time>2022-06-02T09:28:09Z</time>
      </trkpt>
      <trkpt lat="49.43957" lon="-1.21351">
        <ele>1.8</ele>
        <time>2022-06-02T09:28:10Z</time>
      </trkpt>
      <trkpt lat="49.43958" lon="-1.2135">
        <ele>1.8</ele>
        <time>2022-06-02T09:28:11Z</time>
      </trkpt>
      <trkpt lat="49.43959" lon="-1.21348">
        <ele>1.8</ele>
        <time>2022-06-02T09:28:13Z</time>
      </trkpt>
      <trkpt lat="49.4396" lon="-1.21347">
        <ele>1.8</ele>
        <time>2022-06-02T09:28:14Z</time>
      </trkpt>
      <trkpt lat="49.43961" lon="-1.21344">
        <ele>1.8</ele>
        <time>2022-06-02T09:28:15Z</time>
      </trkpt>
      <trkpt lat="49.43962" lon="-1.21343">
        <ele>1.8</ele>
        <time>2022-06-02T09:28:16Z</time>
      </trkpt>
      <trkpt lat="49.43962" lon="-1.21342">
        <ele>1.8</ele>
        <time>2022-06-02T09:28:17Z</time>
      </trkpt>
      <trkpt lat="49.43963" lon="-1.2134">
        <ele>1.9</ele>
        <time>2022-06-02T09:28:18Z</time>
      </trkpt>
      <trkpt lat="49.43964" lon="-1.21338">
        <ele>1.9</ele>
        <time>2022-06-02T09:28:19Z</time>
      </trkpt>
      <trkpt lat="49.43964" lon="-1.21337">
        <ele>1.9</ele>
        <time>2022-06-02T09:28:20Z</time>
      </trkpt>
      <trkpt lat="49.43965" lon="-1.21336">
        <ele>1.9</ele>
        <time>2022-06-02T09:28:21Z</time>
      </trkpt>
      <trkpt lat="49.43965" lon="-1.21334">
        <ele>1.9</ele>
        <time>2022-06-02T09:28:22Z</time>
      </trkpt>
      <trkpt lat="49.43966" lon="-1.21333">
        <ele>1.9</ele>
        <time>2022-06-02T09:28:23Z</time>
      </trkpt>
      <trkpt lat="49.43967" lon="-1.21332">
        <ele>1.9</ele>
        <time>2022-06-02T09:28:24Z</time>
      </trkpt>
      <trkpt lat="49.43967" lon="-1.21331">
        <ele>1.9</ele>
        <time>2022-06-02T09:28:26Z</time>
      </trkpt>
      <trkpt lat="49.43968" lon="-1.21329">
        <ele>1.9</ele>
        <time>2022-06-02T09:28:27Z</time>
      </trkpt>
      <trkpt lat="49.43969" lon="-1.21327">
        <ele>2</ele>
        <time>2022-06-02T09:28:28Z</time>
      </trkpt>
      <trkpt lat="49.4397" lon="-1.21325">
        <ele>2</ele>
        <time>2022-06-02T09:28:29Z</time>
      </trkpt>
      <trkpt lat="49.4397" lon="-1.21324">
        <ele>2</ele>
        <time>2022-06-02T09:28:30Z</time>
      </trkpt>
      <trkpt lat="49.43971" lon="-1.21322">
        <ele>2</ele>
        <time>2022-06-02T09:28:32Z</time>
      </trkpt>
      <trkpt lat="49.43971" lon="-1.2132">
        <ele>2</ele>
        <time>2022-06-02T09:28:33Z</time>
      </trkpt>
      <trkpt lat="49.43972" lon="-1.21318">
        <ele>2</ele>
        <time>2022-06-02T09:28:34Z</time>
      </trkpt>
      <trkpt lat="49.43972" lon="-1.21316">
        <ele>2</ele>
        <time>2022-06-02T09:28:35Z</time>
      </trkpt>
      <trkpt lat="49.43972" lon="-1.21315">
        <ele>2</ele>
        <time>2022-06-02T09:28:36Z</time>
      </trkpt>
      <trkpt lat="49.43973" lon="-1.21312">
        <ele>2.1</ele>
        <time>2022-06-02T09:28:37Z</time>
      </trkpt>
      <trkpt lat="49.43973" lon="-1.2131">
        <ele>2.1</ele>
        <time>2022-06-02T09:28:38Z</time>
      </trkpt>
      <trkpt lat="49.43973" lon="-1.21309">
        <ele>2.1</ele>
        <time>2022-06-02T09:28:39Z</time>
      </trkpt>
      <trkpt lat="49.43974" lon="-1.21307">
        <ele>2.1</ele>
        <time>2022-06-02T09:28:40Z</time>
      </trkpt>
      <trkpt lat="49.43974" lon="-1.21305">
        <ele>2.1</ele>
        <time>2022-06-02T09:28:41Z</time>
      </trkpt>
      <trkpt lat="49.43974" lon="-1.21303">
        <ele>2.1</ele>
        <time>2022-06-02T09:28:43Z</time>
      </trkpt>
      <trkpt lat="49.43975" lon="-1.21301">
        <ele>2.1</ele>
        <time>2022-06-02T09:28:44Z</time>
      </trkpt>
      <trkpt lat="49.43975" lon="-1.21297">
        <ele>2.1</ele>
        <time>2022-06-02T09:28:45Z</time>
      </trkpt>
      <trkpt lat="49.43976" lon="-1.21296">
        <ele>2.1</ele>
        <time>2022-06-02T09:28:46Z</time>
      </trkpt>
      <trkpt lat="49.43976" lon="-1.21295">
        <ele>2.1</ele>
        <time>2022-06-02T09:28:47Z</time>
      </trkpt>
      <trkpt lat="49.43976" lon="-1.21293">
        <ele>2.1</ele>
        <time>2022-06-02T09:28:48Z</time>
      </trkpt>
      <trkpt lat="49.43977" lon="-1.21291">
        <ele>2.1</ele>
        <time>2022-06-02T09:28:49Z</time>
      </trkpt>
      <trkpt lat="49.43977" lon="-1.21288">
        <ele>2.1</ele>
        <time>2022-06-02T09:28:51Z</time>
      </trkpt>
      <trkpt lat="49.43977" lon="-1.21287">
        <ele>2.1</ele>
        <time>2022-06-02T09:28:52Z</time>
      </trkpt>
      <trkpt lat="49.43978" lon="-1.21285">
        <ele>2.1</ele>
        <time>2022-06-02T09:28:53Z</time>
      </trkpt>
      <trkpt lat="49.43978" lon="-1.21283">
        <ele>2.1</ele>
        <time>2022-06-02T09:28:54Z</time>
      </trkpt>
      <trkpt lat="49.43979" lon="-1.2128">
        <ele>2.1</ele>
        <time>2022-06-02T09:28:55Z</time>
      </trkpt>
      <trkpt lat="49.4398" lon="-1.21279">
        <ele>2.2</ele>
        <time>2022-06-02T09:28:56Z</time>
      </trkpt>
      <trkpt lat="49.4398" lon="-1.21278">
        <ele>2.2</ele>
        <time>2022-06-02T09:28:57Z</time>
      </trkpt>
      <trkpt lat="49.43981" lon="-1.21275">
        <ele>2.2</ele>
        <time>2022-06-02T09:28:58Z</time>
      </trkpt>
      <trkpt lat="49.43982" lon="-1.21274">
        <ele>2.2</ele>
        <time>2022-06-02T09:29:00Z</time>
      </trkpt>
      <trkpt lat="49.43983" lon="-1.21273">
        <ele>2.2</ele>
        <time>2022-06-02T09:29:01Z</time>
      </trkpt>
      <trkpt lat="49.43984" lon="-1.21271">
        <ele>2.2</ele>
        <time>2022-06-02T09:29:02Z</time>
      </trkpt>
      <trkpt lat="49.43984" lon="-1.2127">
        <ele>2.2</ele>
        <time>2022-06-02T09:29:03Z</time>
      </trkpt>
      <trkpt lat="49.43985" lon="-1.21269">
        <ele>2.2</ele>
        <time>2022-06-02T09:29:04Z</time>
      </trkpt>
      <trkpt lat="49.43986" lon="-1.21267">
        <ele>2.2</ele>
        <time>2022-06-02T09:29:05Z</time>
      </trkpt>
      <trkpt lat="49.43986" lon="-1.21266">
        <ele>2.1</ele>
        <time>2022-06-02T09:29:06Z</time>
      </trkpt>
      <trkpt lat="49.43987" lon="-1.21264">
        <ele>2.1</ele>
        <time>2022-06-02T09:29:07Z</time>
      </trkpt>
      <trkpt lat="49.43987" lon="-1.21263">
        <ele>2.1</ele>
        <time>2022-06-02T09:29:09Z</time>
      </trkpt>
      <trkpt lat="49.43987" lon="-1.21261">
        <ele>2.1</ele>
        <time>2022-06-02T09:29:10Z</time>
      </trkpt>
      <trkpt lat="49.43987" lon="-1.21259">
        <ele>2.1</ele>
        <time>2022-06-02T09:29:11Z</time>
      </trkpt>
      <trkpt lat="49.43986" lon="-1.21258">
        <ele>2.1</ele>
        <time>2022-06-02T09:29:12Z</time>
      </trkpt>
      <trkpt lat="49.43986" lon="-1.21256">
        <ele>2.1</ele>
        <time>2022-06-02T09:29:13Z</time>
      </trkpt>
      <trkpt lat="49.43985" lon="-1.21254">
        <ele>2.1</ele>
        <time>2022-06-02T09:29:15Z</time>
      </trkpt>
      <trkpt lat="49.43984" lon="-1.21253">
        <ele>2.1</ele>
        <time>2022-06-02T09:29:16Z</time>
      </trkpt>
      <trkpt lat="49.43984" lon="-1.21252">
        <ele>2.1</ele>
        <time>2022-06-02T09:29:17Z</time>
      </trkpt>
      <trkpt lat="49.43982" lon="-1.21251">
        <ele>2.1</ele>
        <time>2022-06-02T09:29:18Z</time>
      </trkpt>
      <trkpt lat="49.43981" lon="-1.21251">
        <ele>2</ele>
        <time>2022-06-02T09:29:19Z</time>
      </trkpt>
      <trkpt lat="49.43979" lon="-1.2125">
        <ele>2</ele>
        <time>2022-06-02T09:29:20Z</time>
      </trkpt>
      <trkpt lat="49.43978" lon="-1.21249">
        <ele>2</ele>
        <time>2022-06-02T09:29:21Z</time>
      </trkpt>
      <trkpt lat="49.43978" lon="-1.21247">
        <ele>2</ele>
        <time>2022-06-02T09:29:22Z</time>
      </trkpt>
      <trkpt lat="49.43977" lon="-1.21246">
        <ele>2</ele>
        <time>2022-06-02T09:29:23Z</time>
      </trkpt>
      <trkpt lat="49.43978" lon="-1.21243">
        <ele>2</ele>
        <time>2022-06-02T09:29:25Z</time>
      </trkpt>
      <trkpt lat="49.43978" lon="-1.21241">
        <ele>2</ele>
        <time>2022-06-02T09:29:26Z</time>
      </trkpt>
      <trkpt lat="49.43978" lon="-1.2124">
        <ele>2</ele>
        <time>2022-06-02T09:29:27Z</time>
      </trkpt>
      <trkpt lat="49.43979" lon="-1.21238">
        <ele>2</ele>
        <time>2022-06-02T09:29:28Z</time>
      </trkpt>
      <trkpt lat="49.4398" lon="-1.21235">
        <ele>2</ele>
        <time>2022-06-02T09:29:30Z</time>
      </trkpt>
      <trkpt lat="49.43981" lon="-1.21233">
        <ele>2</ele>
        <time>2022-06-02T09:29:31Z</time>
      </trkpt>
      <trkpt lat="49.43981" lon="-1.21231">
        <ele>2</ele>
        <time>2022-06-02T09:29:32Z</time>
      </trkpt>
      <trkpt lat="49.43981" lon="-1.21228">
        <ele>2</ele>
        <time>2022-06-02T09:29:33Z</time>
      </trkpt>
      <trkpt lat="49.43981" lon="-1.21227">
        <ele>2</ele>
        <time>2022-06-02T09:29:34Z</time>
      </trkpt>
      <trkpt lat="49.43981" lon="-1.21225">
        <ele>2</ele>
        <time>2022-06-02T09:29:35Z</time>
      </trkpt>
      <trkpt lat="49.43981" lon="-1.21223">
        <ele>2</ele>
        <time>2022-06-02T09:29:36Z</time>
      </trkpt>
      <trkpt lat="49.4398" lon="-1.21221">
        <ele>2</ele>
        <time>2022-06-02T09:29:37Z</time>
      </trkpt>
      <trkpt lat="49.43981" lon="-1.21217">
        <ele>2</ele>
        <time>2022-06-02T09:29:38Z</time>
      </trkpt>
      <trkpt lat="49.43981" lon="-1.21215">
        <ele>2</ele>
        <time>2022-06-02T09:29:39Z</time>
      </trkpt>
      <trkpt lat="49.43981" lon="-1.21214">
        <ele>2</ele>
        <time>2022-06-02T09:29:41Z</time>
      </trkpt>
      <trkpt lat="49.43981" lon="-1.21213">
        <ele>2.1</ele>
        <time>2022-06-02T09:29:42Z</time>
      </trkpt>
      <trkpt lat="49.43981" lon="-1.21211">
        <ele>2.1</ele>
        <time>2022-06-02T09:29:43Z</time>
      </trkpt>
      <trkpt lat="49.43981" lon="-1.21208">
        <ele>2.1</ele>
        <time>2022-06-02T09:29:44Z</time>
      </trkpt>
      <trkpt lat="49.43982" lon="-1.21207">
        <ele>2.1</ele>
        <time>2022-06-02T09:29:45Z</time>
      </trkpt>
      <trkpt lat="49.43982" lon="-1.21206">
        <ele>2.1</ele>
        <time>2022-06-02T09:29:46Z</time>
      </trkpt>
      <trkpt lat="49.43983" lon="-1.21204">
        <ele>2.1</ele>
        <time>2022-06-02T09:29:48Z</time>
      </trkpt>
      <trkpt lat="49.43984" lon="-1.21202">
        <ele>2.1</ele>
        <time>2022-06-02T09:29:49Z</time>
      </trkpt>
      <trkpt lat="49.43984" lon="-1.21199">
        <ele>2.1</ele>
        <time>2022-06-02T09:29:50Z</time>
      </trkpt>
      <trkpt lat="49.43985" lon="-1.21197">
        <ele>2.1</ele>
        <time>2022-06-02T09:29:51Z</time>
      </trkpt>
      <trkpt lat="49.43985" lon="-1.21196">
        <ele>2.1</ele>
        <time>2022-06-02T09:29:52Z</time>
      </trkpt>
      <trkpt lat="49.43986" lon="-1.21193">
        <ele>2.1</ele>
        <time>2022-06-02T09:29:53Z</time>
      </trkpt>
      <trkpt lat="49.43986" lon="-1.21192">
        <ele>2.1</ele>
        <time>2022-06-02T09:29:54Z</time>
      </trkpt>
      <trkpt lat="49.43987" lon="-1.21191">
        <ele>2.1</ele>
        <time>2022-06-02T09:29:55Z</time>
      </trkpt>
      <trkpt lat="49.43988" lon="-1.21189">
        <ele>2.1</ele>
        <time>2022-06-02T09:29:56Z</time>
      </trkpt>
      <trkpt lat="49.43988" lon="-1.21187">
        <ele>2.1</ele>
        <time>2022-06-02T09:29:58Z</time>
      </trkpt>
      <trkpt lat="49.43989" lon="-1.21186">
        <ele>2.1</ele>
        <time>2022-06-02T09:29:59Z</time>
      </trkpt>
      <trkpt lat="49.43989" lon="-1.21184">
        <ele>2.1</ele>
        <time>2022-06-02T09:30:00Z</time>
      </trkpt>
      <trkpt lat="49.4399" lon="-1.21182">
        <ele>2.1</ele>
        <time>2022-06-02T09:30:01Z</time>
      </trkpt>
      <trkpt lat="49.43991" lon="-1.2118">
        <ele>2.1</ele>
        <time>2022-06-02T09:30:02Z</time>
      </trkpt>
      <trkpt lat="49.43991" lon="-1.21178">
        <ele>2.1</ele>
        <time>2022-06-02T09:30:03Z</time>
      </trkpt>
      <trkpt lat="49.43992" lon="-1.21177">
        <ele>2.1</ele>
        <time>2022-06-02T09:30:05Z</time>
      </trkpt>
      <trkpt lat="49.43993" lon="-1.21175">
        <ele>2.1</ele>
        <time>2022-06-02T09:30:06Z</time>
      </trkpt>
      <trkpt lat="49.43994" lon="-1.21173">
        <ele>2.1</ele>
        <time>2022-06-02T09:30:07Z</time>
      </trkpt>
      <trkpt lat="49.43994" lon="-1.21172">
        <ele>2.1</ele>
        <time>2022-06-02T09:30:08Z</time>
      </trkpt>
      <trkpt lat="49.43995" lon="-1.21171">
        <ele>2.1</ele>
        <time>2022-06-02T09:30:09Z</time>
      </trkpt>
      <trkpt lat="49.43995" lon="-1.21169">
        <ele>2.1</ele>
        <time>2022-06-02T09:30:10Z</time>
      </trkpt>
      <trkpt lat="49.43996" lon="-1.21168">
        <ele>2.1</ele>
        <time>2022-06-02T09:30:11Z</time>
      </trkpt>
      <trkpt lat="49.43997" lon="-1.21166">
        <ele>2.1</ele>
        <time>2022-06-02T09:30:12Z</time>
      </trkpt>
      <trkpt lat="49.43998" lon="-1.21163">
        <ele>2</ele>
        <time>2022-06-02T09:30:13Z</time>
      </trkpt>
      <trkpt lat="49.43998" lon="-1.21162">
        <ele>2</ele>
        <time>2022-06-02T09:30:14Z</time>
      </trkpt>
      <trkpt lat="49.43998" lon="-1.21161">
        <ele>2</ele>
        <time>2022-06-02T09:30:15Z</time>
      </trkpt>
      <trkpt lat="49.43998" lon="-1.21159">
        <ele>2</ele>
        <time>2022-06-02T09:30:17Z</time>
      </trkpt>
      <trkpt lat="49.43999" lon="-1.21156">
        <ele>2</ele>
        <time>2022-06-02T09:30:18Z</time>
      </trkpt>
      <trkpt lat="49.43999" lon="-1.21155">
        <ele>2</ele>
        <time>2022-06-02T09:30:19Z</time>
      </trkpt>
      <trkpt lat="49.43999" lon="-1.21153">
        <ele>2</ele>
        <time>2022-06-02T09:30:20Z</time>
      </trkpt>
      <trkpt lat="49.44" lon="-1.21151">
        <ele>2</ele>
        <time>2022-06-02T09:30:22Z</time>
      </trkpt>
      <trkpt lat="49.44" lon="-1.21148">
        <ele>2</ele>
        <time>2022-06-02T09:30:23Z</time>
      </trkpt>
      <trkpt lat="49.44" lon="-1.21147">
        <ele>2</ele>
        <time>2022-06-02T09:30:24Z</time>
      </trkpt>
      <trkpt lat="49.44" lon="-1.21146">
        <ele>2</ele>
        <time>2022-06-02T09:30:25Z</time>
      </trkpt>
      <trkpt lat="49.44001" lon="-1.21143">
        <ele>2</ele>
        <time>2022-06-02T09:30:26Z</time>
      </trkpt>
      <trkpt lat="49.44001" lon="-1.21141">
        <ele>2</ele>
        <time>2022-06-02T09:30:27Z</time>
      </trkpt>
      <trkpt lat="49.44001" lon="-1.21138">
        <ele>2</ele>
        <time>2022-06-02T09:30:29Z</time>
      </trkpt>
      <trkpt lat="49.44001" lon="-1.21136">
        <ele>2</ele>
        <time>2022-06-02T09:30:30Z</time>
      </trkpt>
      <trkpt lat="49.44002" lon="-1.21133">
        <ele>2</ele>
        <time>2022-06-02T09:30:31Z</time>
      </trkpt>
      <trkpt lat="49.44003" lon="-1.21132">
        <ele>2</ele>
        <time>2022-06-02T09:30:32Z</time>
      </trkpt>
      <trkpt lat="49.44003" lon="-1.21131">
        <ele>2</ele>
        <time>2022-06-02T09:30:33Z</time>
      </trkpt>
      <trkpt lat="49.44004" lon="-1.21129">
        <ele>2</ele>
        <time>2022-06-02T09:30:34Z</time>
      </trkpt>
      <trkpt lat="49.44004" lon="-1.21127">
        <ele>2</ele>
        <time>2022-06-02T09:30:35Z</time>
      </trkpt>
      <trkpt lat="49.44005" lon="-1.21125">
        <ele>2</ele>
        <time>2022-06-02T09:30:36Z</time>
      </trkpt>
      <trkpt lat="49.44006" lon="-1.21124">
        <ele>2</ele>
        <time>2022-06-02T09:30:37Z</time>
      </trkpt>
      <trkpt lat="49.44006" lon="-1.21122">
        <ele>2</ele>
        <time>2022-06-02T09:30:39Z</time>
      </trkpt>
      <trkpt lat="49.44007" lon="-1.21119">
        <ele>2</ele>
        <time>2022-06-02T09:30:40Z</time>
      </trkpt>
      <trkpt lat="49.44007" lon="-1.21118">
        <ele>2</ele>
        <time>2022-06-02T09:30:41Z</time>
      </trkpt>
      <trkpt lat="49.44008" lon="-1.21117">
        <ele>2</ele>
        <time>2022-06-02T09:30:42Z</time>
      </trkpt>
      <trkpt lat="49.44009" lon="-1.21114">
        <ele>2</ele>
        <time>2022-06-02T09:30:43Z</time>
      </trkpt>
      <trkpt lat="49.44009" lon="-1.21113">
        <ele>2</ele>
        <time>2022-06-02T09:30:44Z</time>
      </trkpt>
      <trkpt lat="49.44009" lon="-1.21112">
        <ele>2</ele>
        <time>2022-06-02T09:30:45Z</time>
      </trkpt>
      <trkpt lat="49.4401" lon="-1.2111">
        <ele>2</ele>
        <time>2022-06-02T09:30:46Z</time>
      </trkpt>
      <trkpt lat="49.4401" lon="-1.21108">
        <ele>2</ele>
        <time>2022-06-02T09:30:47Z</time>
      </trkpt>
      <trkpt lat="49.44011" lon="-1.21106">
        <ele>2</ele>
        <time>2022-06-02T09:30:49Z</time>
      </trkpt>
      <trkpt lat="49.44012" lon="-1.21104">
        <ele>2</ele>
        <time>2022-06-02T09:30:50Z</time>
      </trkpt>
      <trkpt lat="49.44012" lon="-1.21103">
        <ele>2</ele>
        <time>2022-06-02T09:30:51Z</time>
      </trkpt>
      <trkpt lat="49.44013" lon="-1.21102">
        <ele>2</ele>
        <time>2022-06-02T09:30:52Z</time>
      </trkpt>
      <trkpt lat="49.44014" lon="-1.211">
        <ele>2</ele>
        <time>2022-06-02T09:30:53Z</time>
      </trkpt>
      <trkpt lat="49.44014" lon="-1.21098">
        <ele>2</ele>
        <time>2022-06-02T09:30:54Z</time>
      </trkpt>
      <trkpt lat="49.44015" lon="-1.21096">
        <ele>2</ele>
        <time>2022-06-02T09:30:55Z</time>
      </trkpt>
      <trkpt lat="49.44015" lon="-1.21094">
        <ele>2</ele>
        <time>2022-06-02T09:30:56Z</time>
      </trkpt>
      <trkpt lat="49.44016" lon="-1.21092">
        <ele>2</ele>
        <time>2022-06-02T09:30:58Z</time>
      </trkpt>
      <trkpt lat="49.44016" lon="-1.2109">
        <ele>2.1</ele>
        <time>2022-06-02T09:30:59Z</time>
      </trkpt>
      <trkpt lat="49.44016" lon="-1.21088">
        <ele>2.1</ele>
        <time>2022-06-02T09:31:00Z</time>
      </trkpt>
      <trkpt lat="49.44017" lon="-1.21087">
        <ele>2.1</ele>
        <time>2022-06-02T09:31:01Z</time>
      </trkpt>
      <trkpt lat="49.44017" lon="-1.21085">
        <ele>2.1</ele>
        <time>2022-06-02T09:31:02Z</time>
      </trkpt>
      <trkpt lat="49.44017" lon="-1.21084">
        <ele>2.1</ele>
        <time>2022-06-02T09:31:03Z</time>
      </trkpt>
      <trkpt lat="49.44018" lon="-1.21082">
        <ele>2.1</ele>
        <time>2022-06-02T09:31:04Z</time>
      </trkpt>
      <trkpt lat="49.44019" lon="-1.21079">
        <ele>2.1</ele>
        <time>2022-06-02T09:31:05Z</time>
      </trkpt>
      <trkpt lat="49.44019" lon="-1.21078">
        <ele>2.1</ele>
        <time>2022-06-02T09:31:06Z</time>
      </trkpt>
      <trkpt lat="49.44019" lon="-1.21077">
        <ele>2.1</ele>
        <time>2022-06-02T09:31:07Z</time>
      </trkpt>
      <trkpt lat="49.44019" lon="-1.21075">
        <ele>2.1</ele>
        <time>2022-06-02T09:31:09Z</time>
      </trkpt>
      <trkpt lat="49.44019" lon="-1.21074">
        <ele>2.1</ele>
        <time>2022-06-02T09:31:10Z</time>
      </trkpt>
      <trkpt lat="49.44019" lon="-1.21072">
        <ele>2.1</ele>
        <time>2022-06-02T09:31:11Z</time>
      </trkpt>
      <trkpt lat="49.44019" lon="-1.21071">
        <ele>2.1</ele>
        <time>2022-06-02T09:31:12Z</time>
      </trkpt>
      <trkpt lat="49.44019" lon="-1.21069">
        <ele>2.1</ele>
        <time>2022-06-02T09:31:13Z</time>
      </trkpt>
      <trkpt lat="49.4402" lon="-1.21068">
        <ele>2.1</ele>
        <time>2022-06-02T09:31:14Z</time>
      </trkpt>
      <trkpt lat="49.44021" lon="-1.21064">
        <ele>2.1</ele>
        <time>2022-06-02T09:31:15Z</time>
      </trkpt>
      <trkpt lat="49.44021" lon="-1.21063">
        <ele>2.1</ele>
        <time>2022-06-02T09:31:16Z</time>
      </trkpt>
      <trkpt lat="49.44022" lon="-1.21062">
        <ele>2</ele>
        <time>2022-06-02T09:31:17Z</time>
      </trkpt>
      <trkpt lat="49.44022" lon="-1.21059">
        <ele>2</ele>
        <time>2022-06-02T09:31:18Z</time>
      </trkpt>
      <trkpt lat="49.44022" lon="-1.21058">
        <ele>2</ele>
        <time>2022-06-02T09:31:20Z</time>
      </trkpt>
      <trkpt lat="49.44023" lon="-1.21056">
        <ele>2</ele>
        <time>2022-06-02T09:31:21Z</time>
      </trkpt>
      <trkpt lat="49.44024" lon="-1.21054">
        <ele>2</ele>
        <time>2022-06-02T09:31:22Z</time>
      </trkpt>
      <trkpt lat="49.44024" lon="-1.21052">
        <ele>2</ele>
        <time>2022-06-02T09:31:23Z</time>
      </trkpt>
      <trkpt lat="49.44024" lon="-1.21051">
        <ele>2</ele>
        <time>2022-06-02T09:31:24Z</time>
      </trkpt>
      <trkpt lat="49.44025" lon="-1.21051">
        <ele>2</ele>
        <time>2022-06-02T09:31:25Z</time>
      </trkpt>
      <trkpt lat="49.44026" lon="-1.21048">
        <ele>2</ele>
        <time>2022-06-02T09:31:27Z</time>
      </trkpt>
      <trkpt lat="49.44026" lon="-1.21047">
        <ele>2</ele>
        <time>2022-06-02T09:31:28Z</time>
      </trkpt>
      <trkpt lat="49.44027" lon="-1.21045">
        <ele>2</ele>
        <time>2022-06-02T09:31:29Z</time>
      </trkpt>
      <trkpt lat="49.44028" lon="-1.21044">
        <ele>2</ele>
        <time>2022-06-02T09:31:30Z</time>
      </trkpt>
      <trkpt lat="49.44029" lon="-1.21042">
        <ele>2</ele>
        <time>2022-06-02T09:31:31Z</time>
      </trkpt>
      <trkpt lat="49.4403" lon="-1.2104">
        <ele>2</ele>
        <time>2022-06-02T09:31:32Z</time>
      </trkpt>
      <trkpt lat="49.44031" lon="-1.21038">
        <ele>2</ele>
        <time>2022-06-02T09:31:33Z</time>
      </trkpt>
      <trkpt lat="49.44032" lon="-1.21037">
        <ele>2</ele>
        <time>2022-06-02T09:31:34Z</time>
      </trkpt>
      <trkpt lat="49.44034" lon="-1.21035">
        <ele>2</ele>
        <time>2022-06-02T09:31:35Z</time>
      </trkpt>
      <trkpt lat="49.44034" lon="-1.21034">
        <ele>2</ele>
        <time>2022-06-02T09:31:36Z</time>
      </trkpt>
      <trkpt lat="49.44035" lon="-1.21033">
        <ele>2</ele>
        <time>2022-06-02T09:31:37Z</time>
      </trkpt>
      <trkpt lat="49.44036" lon="-1.21032">
        <ele>2</ele>
        <time>2022-06-02T09:31:39Z</time>
      </trkpt>
      <trkpt lat="49.44037" lon="-1.2103">
        <ele>2</ele>
        <time>2022-06-02T09:31:40Z</time>
      </trkpt>
      <trkpt lat="49.44038" lon="-1.21029">
        <ele>2</ele>
        <time>2022-06-02T09:31:41Z</time>
      </trkpt>
      <trkpt lat="49.44039" lon="-1.21028">
        <ele>2</ele>
        <time>2022-06-02T09:31:42Z</time>
      </trkpt>
      <trkpt lat="49.4404" lon="-1.21027">
        <ele>2</ele>
        <time>2022-06-02T09:31:44Z</time>
      </trkpt>
      <trkpt lat="49.44041" lon="-1.21026">
        <ele>2</ele>
        <time>2022-06-02T09:31:45Z</time>
      </trkpt>
      <trkpt lat="49.44042" lon="-1.21025">
        <ele>2</ele>
        <time>2022-06-02T09:31:46Z</time>
      </trkpt>
      <trkpt lat="49.44044" lon="-1.21024">
        <ele>2</ele>
        <time>2022-06-02T09:31:47Z</time>
      </trkpt>
      <trkpt lat="49.44045" lon="-1.21023">
        <ele>2</ele>
        <time>2022-06-02T09:31:48Z</time>
      </trkpt>
      <trkpt lat="49.44045" lon="-1.21022">
        <ele>2</ele>
        <time>2022-06-02T09:31:49Z</time>
      </trkpt>
      <trkpt lat="49.44046" lon="-1.21021">
        <ele>2</ele>
        <time>2022-06-02T09:31:50Z</time>
      </trkpt>
      <trkpt lat="49.44047" lon="-1.2102">
        <ele>2</ele>
        <time>2022-06-02T09:31:51Z</time>
      </trkpt>
      <trkpt lat="49.44048" lon="-1.21018">
        <ele>2</ele>
        <time>2022-06-02T09:31:52Z</time>
      </trkpt>
      <trkpt lat="49.4405" lon="-1.21017">
        <ele>2</ele>
        <time>2022-06-02T09:31:53Z</time>
      </trkpt>
      <trkpt lat="49.44051" lon="-1.21017">
        <ele>1.9</ele>
        <time>2022-06-02T09:31:55Z</time>
      </trkpt>
      <trkpt lat="49.44052" lon="-1.21016">
        <ele>1.9</ele>
        <time>2022-06-02T09:31:56Z</time>
      </trkpt>
      <trkpt lat="49.44054" lon="-1.21015">
        <ele>1.9</ele>
        <time>2022-06-02T09:31:57Z</time>
      </trkpt>
      <trkpt lat="49.44055" lon="-1.21015">
        <ele>1.9</ele>
        <time>2022-06-02T09:31:58Z</time>
      </trkpt>
      <trkpt lat="49.44055" lon="-1.21015">
        <ele>1.9</ele>
        <time>2022-06-02T09:31:59Z</time>
      </trkpt>
      <trkpt lat="49.44057" lon="-1.21014">
        <ele>1.9</ele>
        <time>2022-06-02T09:32:00Z</time>
      </trkpt>
      <trkpt lat="49.44058" lon="-1.21013">
        <ele>1.9</ele>
        <time>2022-06-02T09:32:01Z</time>
      </trkpt>
      <trkpt lat="49.44059" lon="-1.21013">
        <ele>1.9</ele>
        <time>2022-06-02T09:32:03Z</time>
      </trkpt>
      <trkpt lat="49.4406" lon="-1.21012">
        <ele>1.9</ele>
        <time>2022-06-02T09:32:04Z</time>
      </trkpt>
      <trkpt lat="49.44061" lon="-1.21011">
        <ele>1.9</ele>
        <time>2022-06-02T09:32:05Z</time>
      </trkpt>
      <trkpt lat="49.44062" lon="-1.2101">
        <ele>1.9</ele>
        <time>2022-06-02T09:32:06Z</time>
      </trkpt>
      <trkpt lat="49.44064" lon="-1.21007">
        <ele>1.9</ele>
        <time>2022-06-02T09:32:07Z</time>
      </trkpt>
      <trkpt lat="49.44064" lon="-1.21006">
        <ele>1.9</ele>
        <time>2022-06-02T09:32:08Z</time>
      </trkpt>
      <trkpt lat="49.44065" lon="-1.21006">
        <ele>1.9</ele>
        <time>2022-06-02T09:32:09Z</time>
      </trkpt>
      <trkpt lat="49.44065" lon="-1.21003">
        <ele>1.9</ele>
        <time>2022-06-02T09:32:11Z</time>
      </trkpt>
      <trkpt lat="49.44066" lon="-1.21001">
        <ele>1.9</ele>
        <time>2022-06-02T09:32:12Z</time>
      </trkpt>
      <trkpt lat="49.44066" lon="-1.21">
        <ele>1.9</ele>
        <time>2022-06-02T09:32:13Z</time>
      </trkpt>
      <trkpt lat="49.44068" lon="-1.20998">
        <ele>1.9</ele>
        <time>2022-06-02T09:32:14Z</time>
      </trkpt>
      <trkpt lat="49.44068" lon="-1.20997">
        <ele>1.9</ele>
        <time>2022-06-02T09:32:15Z</time>
      </trkpt>
      <trkpt lat="49.44068" lon="-1.20995">
        <ele>1.9</ele>
        <time>2022-06-02T09:32:16Z</time>
      </trkpt>
      <trkpt lat="49.44069" lon="-1.20993">
        <ele>1.9</ele>
        <time>2022-06-02T09:32:17Z</time>
      </trkpt>
      <trkpt lat="49.44069" lon="-1.20991">
        <ele>1.9</ele>
        <time>2022-06-02T09:32:18Z</time>
      </trkpt>
      <trkpt lat="49.4407" lon="-1.20988">
        <ele>1.9</ele>
        <time>2022-06-02T09:32:19Z</time>
      </trkpt>
      <trkpt lat="49.4407" lon="-1.20986">
        <ele>1.9</ele>
        <time>2022-06-02T09:32:20Z</time>
      </trkpt>
      <trkpt lat="49.4407" lon="-1.20985">
        <ele>1.9</ele>
        <time>2022-06-02T09:32:21Z</time>
      </trkpt>
      <trkpt lat="49.44071" lon="-1.20983">
        <ele>1.9</ele>
        <time>2022-06-02T09:32:23Z</time>
      </trkpt>
      <trkpt lat="49.44072" lon="-1.20982">
        <ele>1.9</ele>
        <time>2022-06-02T09:32:24Z</time>
      </trkpt>
      <trkpt lat="49.44073" lon="-1.20979">
        <ele>1.9</ele>
        <time>2022-06-02T09:32:25Z</time>
      </trkpt>
      <trkpt lat="49.44073" lon="-1.20978">
        <ele>1.9</ele>
        <time>2022-06-02T09:32:26Z</time>
      </trkpt>
      <trkpt lat="49.44074" lon="-1.20976">
        <ele>1.9</ele>
        <time>2022-06-02T09:32:27Z</time>
      </trkpt>
      <trkpt lat="49.44075" lon="-1.20975">
        <ele>1.9</ele>
        <time>2022-06-02T09:32:28Z</time>
      </trkpt>
      <trkpt lat="49.44076" lon="-1.20973">
        <ele>1.9</ele>
        <time>2022-06-02T09:32:29Z</time>
      </trkpt>
      <trkpt lat="49.44077" lon="-1.20972">
        <ele>1.9</ele>
        <time>2022-06-02T09:32:31Z</time>
      </trkpt>
      <trkpt lat="49.44078" lon="-1.20969">
        <ele>1.9</ele>
        <time>2022-06-02T09:32:32Z</time>
      </trkpt>
      <trkpt lat="49.44078" lon="-1.20968">
        <ele>1.9</ele>
        <time>2022-06-02T09:32:33Z</time>
      </trkpt>
      <trkpt lat="49.44079" lon="-1.20967">
        <ele>1.9</ele>
        <time>2022-06-02T09:32:34Z</time>
      </trkpt>
      <trkpt lat="49.44079" lon="-1.20966">
        <ele>1.9</ele>
        <time>2022-06-02T09:32:35Z</time>
      </trkpt>
      <trkpt lat="49.4408" lon="-1.20965">
        <ele>1.9</ele>
        <time>2022-06-02T09:32:36Z</time>
      </trkpt>
      <trkpt lat="49.44081" lon="-1.20963">
        <ele>1.9</ele>
        <time>2022-06-02T09:32:38Z</time>
      </trkpt>
      <trkpt lat="49.44082" lon="-1.2096">
        <ele>1.9</ele>
        <time>2022-06-02T09:32:39Z</time>
      </trkpt>
      <trkpt lat="49.44083" lon="-1.20959">
        <ele>1.9</ele>
        <time>2022-06-02T09:32:40Z</time>
      </trkpt>
      <trkpt lat="49.44083" lon="-1.20958">
        <ele>1.9</ele>
        <time>2022-06-02T09:32:41Z</time>
      </trkpt>
      <trkpt lat="49.44085" lon="-1.20955">
        <ele>1.9</ele>
        <time>2022-06-02T09:32:42Z</time>
      </trkpt>
      <trkpt lat="49.44086" lon="-1.20954">
        <ele>1.9</ele>
        <time>2022-06-02T09:32:43Z</time>
      </trkpt>
      <trkpt lat="49.44086" lon="-1.20953">
        <ele>1.9</ele>
        <time>2022-06-02T09:32:44Z</time>
      </trkpt>
      <trkpt lat="49.44087" lon="-1.20952">
        <ele>1.9</ele>
        <time>2022-06-02T09:32:46Z</time>
      </trkpt>
      <trkpt lat="49.44088" lon="-1.2095">
        <ele>1.9</ele>
        <time>2022-06-02T09:32:47Z</time>
      </trkpt>
      <trkpt lat="49.44089" lon="-1.20949">
        <ele>1.9</ele>
        <time>2022-06-02T09:32:48Z</time>
      </trkpt>
      <trkpt lat="49.4409" lon="-1.20947">
        <ele>1.9</ele>
        <time>2022-06-02T09:32:49Z</time>
      </trkpt>
      <trkpt lat="49.4409" lon="-1.20947">
        <ele>1.9</ele>
        <time>2022-06-02T09:32:50Z</time>
      </trkpt>
      <trkpt lat="49.44091" lon="-1.20946">
        <ele>1.9</ele>
        <time>2022-06-02T09:32:51Z</time>
      </trkpt>
      <trkpt lat="49.44092" lon="-1.20943">
        <ele>1.9</ele>
        <time>2022-06-02T09:32:53Z</time>
      </trkpt>
      <trkpt lat="49.44093" lon="-1.20942">
        <ele>1.9</ele>
        <time>2022-06-02T09:32:54Z</time>
      </trkpt>
      <trkpt lat="49.44093" lon="-1.20941">
        <ele>1.9</ele>
        <time>2022-06-02T09:32:55Z</time>
      </trkpt>
      <trkpt lat="49.44094" lon="-1.2094">
        <ele>1.9</ele>
        <time>2022-06-02T09:32:56Z</time>
      </trkpt>
      <trkpt lat="49.44095" lon="-1.20939">
        <ele>1.9</ele>
        <time>2022-06-02T09:32:57Z</time>
      </trkpt>
      <trkpt lat="49.44095" lon="-1.20937">
        <ele>1.9</ele>
        <time>2022-06-02T09:32:58Z</time>
      </trkpt>
      <trkpt lat="49.44096" lon="-1.20936">
        <ele>1.9</ele>
        <time>2022-06-02T09:32:59Z</time>
      </trkpt>
      <trkpt lat="49.44097" lon="-1.20935">
        <ele>1.9</ele>
        <time>2022-06-02T09:33:00Z</time>
      </trkpt>
      <trkpt lat="49.44098" lon="-1.20934">
        <ele>1.9</ele>
        <time>2022-06-02T09:33:01Z</time>
      </trkpt>
      <trkpt lat="49.44099" lon="-1.20934">
        <ele>1.9</ele>
        <time>2022-06-02T09:33:03Z</time>
      </trkpt>
      <trkpt lat="49.44099" lon="-1.20933">
        <ele>1.9</ele>
        <time>2022-06-02T09:33:04Z</time>
      </trkpt>
      <trkpt lat="49.441" lon="-1.20932">
        <ele>1.9</ele>
        <time>2022-06-02T09:33:05Z</time>
      </trkpt>
      <trkpt lat="49.44101" lon="-1.2093">
        <ele>1.9</ele>
        <time>2022-06-02T09:33:06Z</time>
      </trkpt>
      <trkpt lat="49.44101" lon="-1.20929">
        <ele>1.9</ele>
        <time>2022-06-02T09:33:07Z</time>
      </trkpt>
      <trkpt lat="49.44102" lon="-1.20927">
        <ele>1.9</ele>
        <time>2022-06-02T09:33:08Z</time>
      </trkpt>
      <trkpt lat="49.44103" lon="-1.20926">
        <ele>1.9</ele>
        <time>2022-06-02T09:33:09Z</time>
      </trkpt>
      <trkpt lat="49.44103" lon="-1.20925">
        <ele>1.9</ele>
        <time>2022-06-02T09:33:10Z</time>
      </trkpt>
      <trkpt lat="49.44104" lon="-1.20923">
        <ele>1.9</ele>
        <time>2022-06-02T09:33:11Z</time>
      </trkpt>
      <trkpt lat="49.44105" lon="-1.2092">
        <ele>1.9</ele>
        <time>2022-06-02T09:33:13Z</time>
      </trkpt>
      <trkpt lat="49.44105" lon="-1.20919">
        <ele>1.9</ele>
        <time>2022-06-02T09:33:14Z</time>
      </trkpt>
      <trkpt lat="49.44106" lon="-1.20918">
        <ele>1.9</ele>
        <time>2022-06-02T09:33:15Z</time>
      </trkpt>
      <trkpt lat="49.44106" lon="-1.20917">
        <ele>1.9</ele>
        <time>2022-06-02T09:33:16Z</time>
      </trkpt>
      <trkpt lat="49.44106" lon="-1.20915">
        <ele>1.9</ele>
        <time>2022-06-02T09:33:17Z</time>
      </trkpt>
      <trkpt lat="49.44107" lon="-1.20914">
        <ele>1.9</ele>
        <time>2022-06-02T09:33:18Z</time>
      </trkpt>
      <trkpt lat="49.44108" lon="-1.20912">
        <ele>1.9</ele>
        <time>2022-06-02T09:33:19Z</time>
      </trkpt>
      <trkpt lat="49.44109" lon="-1.2091">
        <ele>1.9</ele>
        <time>2022-06-02T09:33:20Z</time>
      </trkpt>
      <trkpt lat="49.4411" lon="-1.20908">
        <ele>2</ele>
        <time>2022-06-02T09:33:21Z</time>
      </trkpt>
      <trkpt lat="49.4411" lon="-1.20906">
        <ele>2</ele>
        <time>2022-06-02T09:33:22Z</time>
      </trkpt>
      <trkpt lat="49.44111" lon="-1.20905">
        <ele>2</ele>
        <time>2022-06-02T09:33:24Z</time>
      </trkpt>
      <trkpt lat="49.44112" lon="-1.20903">
        <ele>2</ele>
        <time>2022-06-02T09:33:25Z</time>
      </trkpt>
      <trkpt lat="49.44113" lon="-1.209">
        <ele>2</ele>
        <time>2022-06-02T09:33:26Z</time>
      </trkpt>
      <trkpt lat="49.44114" lon="-1.20899">
        <ele>2</ele>
        <time>2022-06-02T09:33:27Z</time>
      </trkpt>
      <trkpt lat="49.44114" lon="-1.20898">
        <ele>2</ele>
        <time>2022-06-02T09:33:28Z</time>
      </trkpt>
      <trkpt lat="49.44115" lon="-1.20897">
        <ele>2.1</ele>
        <time>2022-06-02T09:33:29Z</time>
      </trkpt>
      <trkpt lat="49.44115" lon="-1.20896">
        <ele>2.1</ele>
        <time>2022-06-02T09:33:30Z</time>
      </trkpt>
      <trkpt lat="49.44116" lon="-1.20895">
        <ele>2.1</ele>
        <time>2022-06-02T09:33:31Z</time>
      </trkpt>
      <trkpt lat="49.44117" lon="-1.20892">
        <ele>2.1</ele>
        <time>2022-06-02T09:33:32Z</time>
      </trkpt>
      <trkpt lat="49.44117" lon="-1.20891">
        <ele>2.1</ele>
        <time>2022-06-02T09:33:33Z</time>
      </trkpt>
      <trkpt lat="49.44118" lon="-1.2089">
        <ele>2.1</ele>
        <time>2022-06-02T09:33:34Z</time>
      </trkpt>
      <trkpt lat="49.44119" lon="-1.20888">
        <ele>2.1</ele>
        <time>2022-06-02T09:33:35Z</time>
      </trkpt>
      <trkpt lat="49.4412" lon="-1.20886">
        <ele>2.1</ele>
        <time>2022-06-02T09:33:37Z</time>
      </trkpt>
      <trkpt lat="49.4412" lon="-1.20885">
        <ele>2.2</ele>
        <time>2022-06-02T09:33:38Z</time>
      </trkpt>
      <trkpt lat="49.44121" lon="-1.20883">
        <ele>2.2</ele>
        <time>2022-06-02T09:33:39Z</time>
      </trkpt>
      <trkpt lat="49.44122" lon="-1.20882">
        <ele>2.2</ele>
        <time>2022-06-02T09:33:40Z</time>
      </trkpt>
      <trkpt lat="49.44123" lon="-1.20881">
        <ele>2.2</ele>
        <time>2022-06-02T09:33:41Z</time>
      </trkpt>
      <trkpt lat="49.44124" lon="-1.20879">
        <ele>2.2</ele>
        <time>2022-06-02T09:33:42Z</time>
      </trkpt>
      <trkpt lat="49.44125" lon="-1.20878">
        <ele>2.2</ele>
        <time>2022-06-02T09:33:43Z</time>
      </trkpt>
      <trkpt lat="49.44126" lon="-1.20877">
        <ele>2.2</ele>
        <time>2022-06-02T09:33:44Z</time>
      </trkpt>
      <trkpt lat="49.44127" lon="-1.20876">
        <ele>2.3</ele>
        <time>2022-06-02T09:33:45Z</time>
      </trkpt>
      <trkpt lat="49.44128" lon="-1.20874">
        <ele>2.3</ele>
        <time>2022-06-02T09:33:46Z</time>
      </trkpt>
      <trkpt lat="49.44129" lon="-1.20873">
        <ele>2.3</ele>
        <time>2022-06-02T09:33:48Z</time>
      </trkpt>
      <trkpt lat="49.4413" lon="-1.20872">
        <ele>2.3</ele>
        <time>2022-06-02T09:33:49Z</time>
      </trkpt>
      <trkpt lat="49.44131" lon="-1.2087">
        <ele>2.3</ele>
        <time>2022-06-02T09:33:50Z</time>
      </trkpt>
      <trkpt lat="49.44131" lon="-1.20869">
        <ele>2.3</ele>
        <time>2022-06-02T09:33:51Z</time>
      </trkpt>
      <trkpt lat="49.44132" lon="-1.20868">
        <ele>2.4</ele>
        <time>2022-06-02T09:33:52Z</time>
      </trkpt>
      <trkpt lat="49.44133" lon="-1.20867">
        <ele>2.4</ele>
        <time>2022-06-02T09:33:53Z</time>
      </trkpt>
      <trkpt lat="49.44134" lon="-1.20866">
        <ele>2.4</ele>
        <time>2022-06-02T09:33:54Z</time>
      </trkpt>
      <trkpt lat="49.44135" lon="-1.20863">
        <ele>2.4</ele>
        <time>2022-06-02T09:33:55Z</time>
      </trkpt>
      <trkpt lat="49.44136" lon="-1.20862">
        <ele>2.4</ele>
        <time>2022-06-02T09:33:56Z</time>
      </trkpt>
      <trkpt lat="49.44137" lon="-1.20861">
        <ele>2.5</ele>
        <time>2022-06-02T09:33:58Z</time>
      </trkpt>
      <trkpt lat="49.44137" lon="-1.2086">
        <ele>2.5</ele>
        <time>2022-06-02T09:33:59Z</time>
      </trkpt>
      <trkpt lat="49.44138" lon="-1.20858">
        <ele>2.5</ele>
        <time>2022-06-02T09:34:00Z</time>
      </trkpt>
      <trkpt lat="49.44139" lon="-1.20857">
        <ele>2.5</ele>
        <time>2022-06-02T09:34:01Z</time>
      </trkpt>
      <trkpt lat="49.4414" lon="-1.20855">
        <ele>2.5</ele>
        <time>2022-06-02T09:34:02Z</time>
      </trkpt>
      <trkpt lat="49.4414" lon="-1.20854">
        <ele>2.5</ele>
        <time>2022-06-02T09:34:03Z</time>
      </trkpt>
      <trkpt lat="49.44141" lon="-1.20853">
        <ele>2.5</ele>
        <time>2022-06-02T09:34:04Z</time>
      </trkpt>
      <trkpt lat="49.44142" lon="-1.20851">
        <ele>2.5</ele>
        <time>2022-06-02T09:34:05Z</time>
      </trkpt>
      <trkpt lat="49.44142" lon="-1.2085">
        <ele>2.5</ele>
        <time>2022-06-02T09:34:06Z</time>
      </trkpt>
      <trkpt lat="49.44143" lon="-1.20848">
        <ele>2.5</ele>
        <time>2022-06-02T09:34:08Z</time>
      </trkpt>
      <trkpt lat="49.44145" lon="-1.20846">
        <ele>2.5</ele>
        <time>2022-06-02T09:34:09Z</time>
      </trkpt>
      <trkpt lat="49.44145" lon="-1.20845">
        <ele>2.5</ele>
        <time>2022-06-02T09:34:10Z</time>
      </trkpt>
      <trkpt lat="49.44146" lon="-1.20844">
        <ele>2.6</ele>
        <time>2022-06-02T09:34:11Z</time>
      </trkpt>
      <trkpt lat="49.44147" lon="-1.20843">
        <ele>2.6</ele>
        <time>2022-06-02T09:34:12Z</time>
      </trkpt>
      <trkpt lat="49.44147" lon="-1.20841">
        <ele>2.6</ele>
        <time>2022-06-02T09:34:13Z</time>
      </trkpt>
      <trkpt lat="49.44148" lon="-1.2084">
        <ele>2.6</ele>
        <time>2022-06-02T09:34:14Z</time>
      </trkpt>
      <trkpt lat="49.44149" lon="-1.20838">
        <ele>2.6</ele>
        <time>2022-06-02T09:34:15Z</time>
      </trkpt>
      <trkpt lat="49.44149" lon="-1.20837">
        <ele>2.6</ele>
        <time>2022-06-02T09:34:17Z</time>
      </trkpt>
      <trkpt lat="49.4415" lon="-1.20835">
        <ele>2.6</ele>
        <time>2022-06-02T09:34:18Z</time>
      </trkpt>
      <trkpt lat="49.4415" lon="-1.20834">
        <ele>2.6</ele>
        <time>2022-06-02T09:34:19Z</time>
      </trkpt>
      <trkpt lat="49.44151" lon="-1.20833">
        <ele>2.6</ele>
        <time>2022-06-02T09:34:20Z</time>
      </trkpt>
      <trkpt lat="49.44151" lon="-1.20832">
        <ele>2.6</ele>
        <time>2022-06-02T09:34:21Z</time>
      </trkpt>
      <trkpt lat="49.44152" lon="-1.20831">
        <ele>2.7</ele>
        <time>2022-06-02T09:34:23Z</time>
      </trkpt>
      <trkpt lat="49.44152" lon="-1.2083">
        <ele>2.7</ele>
        <time>2022-06-02T09:34:24Z</time>
      </trkpt>
      <trkpt lat="49.44153" lon="-1.20829">
        <ele>2.7</ele>
        <time>2022-06-02T09:34:25Z</time>
      </trkpt>
      <trkpt lat="49.44153" lon="-1.20828">
        <ele>2.7</ele>
        <time>2022-06-02T09:34:26Z</time>
      </trkpt>
      <trkpt lat="49.44153" lon="-1.20828">
        <ele>2.7</ele>
        <time>2022-06-02T09:34:27Z</time>
      </trkpt>
      <trkpt lat="49.44153" lon="-1.20828">
        <ele>2.7</ele>
        <time>2022-06-02T09:34:28Z</time>
      </trkpt>
      <trkpt lat="49.44153" lon="-1.20828">
        <ele>2.7</ele>
        <time>2022-06-02T09:34:29Z</time>
      </trkpt>
      <trkpt lat="49.44153" lon="-1.20828">
        <ele>2.7</ele>
        <time>2022-06-02T09:34:30Z</time>
      </trkpt>
      <trkpt lat="49.44153" lon="-1.20829">
        <ele>2.7</ele>
        <time>2022-06-02T09:34:31Z</time>
      </trkpt>
      <trkpt lat="49.44153" lon="-1.20829">
        <ele>2.7</ele>
        <time>2022-06-02T09:34:32Z</time>
      </trkpt>
      <trkpt lat="49.44153" lon="-1.20829">
        <ele>2.7</ele>
        <time>2022-06-02T09:34:33Z</time>
      </trkpt>
      <trkpt lat="49.44153" lon="-1.2083">
        <ele>2.7</ele>
        <time>2022-06-02T09:34:35Z</time>
      </trkpt>
      <trkpt lat="49.44153" lon="-1.2083">
        <ele>2.7</ele>
        <time>2022-06-02T09:34:36Z</time>
      </trkpt>
      <trkpt lat="49.44153" lon="-1.2083">
        <ele>2.7</ele>
        <time>2022-06-02T09:34:37Z</time>
      </trkpt>
      <trkpt lat="49.44153" lon="-1.20831">
        <ele>2.7</ele>
        <time>2022-06-02T09:34:38Z</time>
      </trkpt>
      <trkpt lat="49.44153" lon="-1.20831">
        <ele>2.7</ele>
        <time>2022-06-02T09:34:39Z</time>
      </trkpt>
      <trkpt lat="49.44153" lon="-1.20831">
        <ele>2.7</ele>
        <time>2022-06-02T09:34:40Z</time>
      </trkpt>
      <trkpt lat="49.44153" lon="-1.20831">
        <ele>2.7</ele>
        <time>2022-06-02T09:34:41Z</time>
      </trkpt>
      <trkpt lat="49.44153" lon="-1.20831">
        <ele>2.7</ele>
        <time>2022-06-02T09:34:42Z</time>
      </trkpt>
      <trkpt lat="49.44153" lon="-1.20831">
        <ele>2.7</ele>
        <time>2022-06-02T09:34:43Z</time>
      </trkpt>
      <trkpt lat="49.44153" lon="-1.20832">
        <ele>2.7</ele>
        <time>2022-06-02T09:34:44Z</time>
      </trkpt>
      <trkpt lat="49.44153" lon="-1.20832">
        <ele>2.7</ele>
        <time>2022-06-02T09:34:45Z</time>
      </trkpt>
      <trkpt lat="49.44153" lon="-1.20833">
        <ele>2.7</ele>
        <time>2022-06-02T09:34:46Z</time>
      </trkpt>
      <trkpt lat="49.44153" lon="-1.20833">
        <ele>2.7</ele>
        <time>2022-06-02T09:34:47Z</time>
      </trkpt>
      <trkpt lat="49.44153" lon="-1.20833">
        <ele>2.7</ele>
        <time>2022-06-02T09:34:48Z</time>
      </trkpt>
      <trkpt lat="49.44153" lon="-1.20833">
        <ele>2.7</ele>
        <time>2022-06-02T09:34:49Z</time>
      </trkpt>
      <trkpt lat="49.44153" lon="-1.20833">
        <ele>2.7</ele>
        <time>2022-06-02T09:34:50Z</time>
      </trkpt>
      <trkpt lat="49.44153" lon="-1.20833">
        <ele>2.7</ele>
        <time>2022-06-02T09:34:51Z</time>
      </trkpt>
      <trkpt lat="49.44153" lon="-1.20833">
        <ele>2.7</ele>
        <time>2022-06-02T09:34:52Z</time>
      </trkpt>
      <trkpt lat="49.44153" lon="-1.20833">
        <ele>2.7</ele>
        <time>2022-06-02T09:34:53Z</time>
      </trkpt>
      <trkpt lat="49.44153" lon="-1.20833">
        <ele>2.7</ele>
        <time>2022-06-02T09:34:54Z</time>
      </trkpt>
      <trkpt lat="49.44153" lon="-1.20833">
        <ele>2.7</ele>
        <time>2022-06-02T09:34:55Z</time>
      </trkpt>
      <trkpt lat="49.44153" lon="-1.20833">
        <ele>2.7</ele>
        <time>2022-06-02T09:34:56Z</time>
      </trkpt>
      <trkpt lat="49.44153" lon="-1.20833">
        <ele>2.7</ele>
        <time>2022-06-02T09:34:57Z</time>
      </trkpt>
      <trkpt lat="49.44153" lon="-1.20833">
        <ele>2.7</ele>
        <time>2022-06-02T09:34:58Z</time>
      </trkpt>
      <trkpt lat="49.44153" lon="-1.20833">
        <ele>2.7</ele>
        <time>2022-06-02T09:34:59Z</time>
      </trkpt>
      <trkpt lat="49.44153" lon="-1.20833">
        <ele>2.7</ele>
        <time>2022-06-02T09:35:00Z</time>
      </trkpt>
      <trkpt lat="49.44153" lon="-1.20833">
        <ele>2.7</ele>
        <time>2022-06-02T09:35:01Z</time>
      </trkpt>
      <trkpt lat="49.44153" lon="-1.20833">
        <ele>2.7</ele>
        <time>2022-06-02T09:35:02Z</time>
      </trkpt>
      <trkpt lat="49.44153" lon="-1.20833">
        <ele>2.7</ele>
        <time>2022-06-02T09:35:03Z</time>
      </trkpt>
      <trkpt lat="49.44153" lon="-1.20833">
        <ele>2.7</ele>
        <time>2022-06-02T09:35:04Z</time>
      </trkpt>
      <trkpt lat="49.44153" lon="-1.20833">
        <ele>2.7</ele>
        <time>2022-06-02T09:35:05Z</time>
      </trkpt>
      <trkpt lat="49.44153" lon="-1.20833">
        <ele>2.7</ele>
        <time>2022-06-02T09:35:06Z</time>
      </trkpt>
      <trkpt lat="49.44153" lon="-1.20833">
        <ele>2.7</ele>
        <time>2022-06-02T09:35:07Z</time>
      </trkpt>
      <trkpt lat="49.44153" lon="-1.20833">
        <ele>2.7</ele>
        <time>2022-06-02T09:35:08Z</time>
      </trkpt>
      <trkpt lat="49.44153" lon="-1.20833">
        <ele>2.7</ele>
        <time>2022-06-02T09:35:09Z</time>
      </trkpt>
      <trkpt lat="49.44153" lon="-1.20833">
        <ele>2.7</ele>
        <time>2022-06-02T09:35:10Z</time>
      </trkpt>
      <trkpt lat="49.44153" lon="-1.20833">
        <ele>2.7</ele>
        <time>2022-06-02T09:35:11Z</time>
      </trkpt>
      <trkpt lat="49.44153" lon="-1.20834">
        <ele>2.7</ele>
        <time>2022-06-02T09:35:12Z</time>
      </trkpt>
      <trkpt lat="49.44153" lon="-1.20835">
        <ele>2.7</ele>
        <time>2022-06-02T09:35:13Z</time>
      </trkpt>
      <trkpt lat="49.44153" lon="-1.20836">
        <ele>2.7</ele>
        <time>2022-06-02T09:35:14Z</time>
      </trkpt>
      <trkpt lat="49.44154" lon="-1.20836">
        <ele>2.7</ele>
        <time>2022-06-02T09:35:15Z</time>
      </trkpt>
      <trkpt lat="49.44155" lon="-1.20837">
        <ele>2.7</ele>
        <time>2022-06-02T09:35:16Z</time>
      </trkpt>
      <trkpt lat="49.44156" lon="-1.20837">
        <ele>2.7</ele>
        <time>2022-06-02T09:35:17Z</time>
      </trkpt>
      <trkpt lat="49.44157" lon="-1.20839">
        <ele>2.7</ele>
        <time>2022-06-02T09:35:18Z</time>
      </trkpt>
      <trkpt lat="49.44159" lon="-1.2084">
        <ele>2.7</ele>
        <time>2022-06-02T09:35:21Z</time>
      </trkpt>
      <trkpt lat="49.4416" lon="-1.20842">
        <ele>2.7</ele>
        <time>2022-06-02T09:35:22Z</time>
      </trkpt>
      <trkpt lat="49.44161" lon="-1.20843">
        <ele>2.7</ele>
        <time>2022-06-02T09:35:23Z</time>
      </trkpt>
      <trkpt lat="49.44161" lon="-1.20844">
        <ele>2.7</ele>
        <time>2022-06-02T09:35:24Z</time>
      </trkpt>
      <trkpt lat="49.44162" lon="-1.20845">
        <ele>2.7</ele>
        <time>2022-06-02T09:35:26Z</time>
      </trkpt>
      <trkpt lat="49.44163" lon="-1.20846">
        <ele>2.7</ele>
        <time>2022-06-02T09:35:27Z</time>
      </trkpt>
      <trkpt lat="49.44164" lon="-1.20846">
        <ele>2.7</ele>
        <time>2022-06-02T09:35:28Z</time>
      </trkpt>
      <trkpt lat="49.44165" lon="-1.20846">
        <ele>2.7</ele>
        <time>2022-06-02T09:35:29Z</time>
      </trkpt>
      <trkpt lat="49.44166" lon="-1.20847">
        <ele>2.7</ele>
        <time>2022-06-02T09:35:30Z</time>
      </trkpt>
      <trkpt lat="49.44167" lon="-1.20848">
        <ele>2.7</ele>
        <time>2022-06-02T09:35:31Z</time>
      </trkpt>
      <trkpt lat="49.44168" lon="-1.20848">
        <ele>2.7</ele>
        <time>2022-06-02T09:35:32Z</time>
      </trkpt>
      <trkpt lat="49.4417" lon="-1.20848">
        <ele>2.7</ele>
        <time>2022-06-02T09:35:33Z</time>
      </trkpt>
      <trkpt lat="49.4417" lon="-1.20849">
        <ele>2.7</ele>
        <time>2022-06-02T09:35:34Z</time>
      </trkpt>
      <trkpt lat="49.44171" lon="-1.2085">
        <ele>2.7</ele>
        <time>2022-06-02T09:35:35Z</time>
      </trkpt>
      <trkpt lat="49.44174" lon="-1.20852">
        <ele>2.8</ele>
        <time>2022-06-02T09:35:37Z</time>
      </trkpt>
      <trkpt lat="49.44175" lon="-1.20853">
        <ele>2.8</ele>
        <time>2022-06-02T09:35:39Z</time>
      </trkpt>
      <trkpt lat="49.44176" lon="-1.20854">
        <ele>2.8</ele>
        <time>2022-06-02T09:35:40Z</time>
      </trkpt>
      <trkpt lat="49.44177" lon="-1.20855">
        <ele>2.8</ele>
        <time>2022-06-02T09:35:41Z</time>
      </trkpt>
      <trkpt lat="49.44179" lon="-1.20857">
        <ele>2.8</ele>
        <time>2022-06-02T09:35:42Z</time>
      </trkpt>
      <trkpt lat="49.4418" lon="-1.20858">
        <ele>2.8</ele>
        <time>2022-06-02T09:35:43Z</time>
      </trkpt>
      <trkpt lat="49.44181" lon="-1.20859">
        <ele>2.8</ele>
        <time>2022-06-02T09:35:44Z</time>
      </trkpt>
      <trkpt lat="49.44182" lon="-1.2086">
        <ele>2.8</ele>
        <time>2022-06-02T09:35:46Z</time>
      </trkpt>
      <trkpt lat="49.44183" lon="-1.20861">
        <ele>2.8</ele>
        <time>2022-06-02T09:35:47Z</time>
      </trkpt>
      <trkpt lat="49.44185" lon="-1.20863">
        <ele>2.8</ele>
        <time>2022-06-02T09:35:48Z</time>
      </trkpt>
      <trkpt lat="49.44186" lon="-1.20864">
        <ele>2.8</ele>
        <time>2022-06-02T09:35:49Z</time>
      </trkpt>
      <trkpt lat="49.44189" lon="-1.20866">
        <ele>2.9</ele>
        <time>2022-06-02T09:35:50Z</time>
      </trkpt>
      <trkpt lat="49.4419" lon="-1.20867">
        <ele>2.9</ele>
        <time>2022-06-02T09:35:51Z</time>
      </trkpt>
      <trkpt lat="49.44191" lon="-1.20868">
        <ele>2.9</ele>
        <time>2022-06-02T09:35:52Z</time>
      </trkpt>
      <trkpt lat="49.44193" lon="-1.20869">
        <ele>2.9</ele>
        <time>2022-06-02T09:35:53Z</time>
      </trkpt>
      <trkpt lat="49.44195" lon="-1.20871">
        <ele>2.9</ele>
        <time>2022-06-02T09:35:54Z</time>
      </trkpt>
      <trkpt lat="49.44196" lon="-1.20872">
        <ele>2.9</ele>
        <time>2022-06-02T09:35:55Z</time>
      </trkpt>
      <trkpt lat="49.44197" lon="-1.20872">
        <ele>2.9</ele>
        <time>2022-06-02T09:35:56Z</time>
      </trkpt>
      <trkpt lat="49.44198" lon="-1.20873">
        <ele>2.9</ele>
        <time>2022-06-02T09:35:57Z</time>
      </trkpt>
      <trkpt lat="49.44199" lon="-1.20874">
        <ele>2.9</ele>
        <time>2022-06-02T09:35:58Z</time>
      </trkpt>
      <trkpt lat="49.44201" lon="-1.20875">
        <ele>2.9</ele>
        <time>2022-06-02T09:36:00Z</time>
      </trkpt>
      <trkpt lat="49.44202" lon="-1.20875">
        <ele>2.9</ele>
        <time>2022-06-02T09:36:01Z</time>
      </trkpt>
      <trkpt lat="49.44203" lon="-1.20876">
        <ele>3</ele>
        <time>2022-06-02T09:36:02Z</time>
      </trkpt>
      <trkpt lat="49.44204" lon="-1.20876">
        <ele>3</ele>
        <time>2022-06-02T09:36:03Z</time>
      </trkpt>
      <trkpt lat="49.44205" lon="-1.20877">
        <ele>3</ele>
        <time>2022-06-02T09:36:04Z</time>
      </trkpt>
      <trkpt lat="49.44206" lon="-1.20877">
        <ele>3</ele>
        <time>2022-06-02T09:36:05Z</time>
      </trkpt>
      <trkpt lat="49.44207" lon="-1.20878">
        <ele>3</ele>
        <time>2022-06-02T09:36:06Z</time>
      </trkpt>
      <trkpt lat="49.44208" lon="-1.20879">
        <ele>3</ele>
        <time>2022-06-02T09:36:08Z</time>
      </trkpt>
      <trkpt lat="49.44211" lon="-1.20881">
        <ele>3</ele>
        <time>2022-06-02T09:36:09Z</time>
      </trkpt>
      <trkpt lat="49.44212" lon="-1.20881">
        <ele>3</ele>
        <time>2022-06-02T09:36:10Z</time>
      </trkpt>
      <trkpt lat="49.44213" lon="-1.20882">
        <ele>3</ele>
        <time>2022-06-02T09:36:11Z</time>
      </trkpt>
      <trkpt lat="49.44214" lon="-1.20883">
        <ele>3</ele>
        <time>2022-06-02T09:36:12Z</time>
      </trkpt>
      <trkpt lat="49.44215" lon="-1.20884">
        <ele>3</ele>
        <time>2022-06-02T09:36:13Z</time>
      </trkpt>
      <trkpt lat="49.44217" lon="-1.20885">
        <ele>3</ele>
        <time>2022-06-02T09:36:14Z</time>
      </trkpt>
      <trkpt lat="49.44218" lon="-1.20886">
        <ele>3</ele>
        <time>2022-06-02T09:36:16Z</time>
      </trkpt>
      <trkpt lat="49.44219" lon="-1.20887">
        <ele>3.1</ele>
        <time>2022-06-02T09:36:17Z</time>
      </trkpt>
      <trkpt lat="49.4422" lon="-1.20888">
        <ele>3.1</ele>
        <time>2022-06-02T09:36:18Z</time>
      </trkpt>
      <trkpt lat="49.44221" lon="-1.20889">
        <ele>3.1</ele>
        <time>2022-06-02T09:36:19Z</time>
      </trkpt>
      <trkpt lat="49.44223" lon="-1.2089">
        <ele>3.1</ele>
        <time>2022-06-02T09:36:20Z</time>
      </trkpt>
      <trkpt lat="49.44224" lon="-1.20891">
        <ele>3.1</ele>
        <time>2022-06-02T09:36:21Z</time>
      </trkpt>
      <trkpt lat="49.44226" lon="-1.20892">
        <ele>3.1</ele>
        <time>2022-06-02T09:36:23Z</time>
      </trkpt>
      <trkpt lat="49.44227" lon="-1.20893">
        <ele>3.1</ele>
        <time>2022-06-02T09:36:24Z</time>
      </trkpt>
      <trkpt lat="49.44227" lon="-1.20894">
        <ele>3.1</ele>
        <time>2022-06-02T09:36:25Z</time>
      </trkpt>
      <trkpt lat="49.44229" lon="-1.20895">
        <ele>3.1</ele>
        <time>2022-06-02T09:36:26Z</time>
      </trkpt>
      <trkpt lat="49.4423" lon="-1.20896">
        <ele>3.1</ele>
        <time>2022-06-02T09:36:27Z</time>
      </trkpt>
      <trkpt lat="49.44232" lon="-1.20896">
        <ele>3.1</ele>
        <time>2022-06-02T09:36:28Z</time>
      </trkpt>
      <trkpt lat="49.44233" lon="-1.20897">
        <ele>3.1</ele>
        <time>2022-06-02T09:36:29Z</time>
      </trkpt>
      <trkpt lat="49.44234" lon="-1.20899">
        <ele>3.1</ele>
        <time>2022-06-02T09:36:31Z</time>
      </trkpt>
      <trkpt lat="49.44236" lon="-1.209">
        <ele>3.1</ele>
        <time>2022-06-02T09:36:32Z</time>
      </trkpt>
      <trkpt lat="49.44237" lon="-1.209">
        <ele>3.1</ele>
        <time>2022-06-02T09:36:33Z</time>
      </trkpt>
      <trkpt lat="49.44238" lon="-1.20901">
        <ele>3.1</ele>
        <time>2022-06-02T09:36:34Z</time>
      </trkpt>
      <trkpt lat="49.44239" lon="-1.20902">
        <ele>3.1</ele>
        <time>2022-06-02T09:36:35Z</time>
      </trkpt>
      <trkpt lat="49.44241" lon="-1.20903">
        <ele>3.1</ele>
        <time>2022-06-02T09:36:36Z</time>
      </trkpt>
      <trkpt lat="49.44242" lon="-1.20904">
        <ele>3.1</ele>
        <time>2022-06-02T09:36:37Z</time>
      </trkpt>
      <trkpt lat="49.44243" lon="-1.20905">
        <ele>3.1</ele>
        <time>2022-06-02T09:36:38Z</time>
      </trkpt>
      <trkpt lat="49.44244" lon="-1.20905">
        <ele>3.1</ele>
        <time>2022-06-02T09:36:40Z</time>
      </trkpt>
      <trkpt lat="49.44246" lon="-1.20906">
        <ele>3.1</ele>
        <time>2022-06-02T09:36:41Z</time>
      </trkpt>
      <trkpt lat="49.44247" lon="-1.20907">
        <ele>3.1</ele>
        <time>2022-06-02T09:36:42Z</time>
      </trkpt>
      <trkpt lat="49.44249" lon="-1.20908">
        <ele>3.1</ele>
        <time>2022-06-02T09:36:43Z</time>
      </trkpt>
      <trkpt lat="49.4425" lon="-1.20908">
        <ele>3.1</ele>
        <time>2022-06-02T09:36:44Z</time>
      </trkpt>
      <trkpt lat="49.44251" lon="-1.20909">
        <ele>3.1</ele>
        <time>2022-06-02T09:36:45Z</time>
      </trkpt>
      <trkpt lat="49.44253" lon="-1.2091">
        <ele>3.1</ele>
        <time>2022-06-02T09:36:47Z</time>
      </trkpt>
      <trkpt lat="49.44254" lon="-1.20911">
        <ele>3.1</ele>
        <time>2022-06-02T09:36:48Z</time>
      </trkpt>
      <trkpt lat="49.44254" lon="-1.20911">
        <ele>3.1</ele>
        <time>2022-06-02T09:36:49Z</time>
      </trkpt>
      <trkpt lat="49.44256" lon="-1.20912">
        <ele>3.1</ele>
        <time>2022-06-02T09:36:50Z</time>
      </trkpt>
      <trkpt lat="49.44257" lon="-1.20913">
        <ele>3.1</ele>
        <time>2022-06-02T09:36:51Z</time>
      </trkpt>
      <trkpt lat="49.44258" lon="-1.20914">
        <ele>3.1</ele>
        <time>2022-06-02T09:36:52Z</time>
      </trkpt>
      <trkpt lat="49.4426" lon="-1.20915">
        <ele>3.1</ele>
        <time>2022-06-02T09:36:53Z</time>
      </trkpt>
      <trkpt lat="49.44261" lon="-1.20916">
        <ele>3.1</ele>
        <time>2022-06-02T09:36:54Z</time>
      </trkpt>
      <trkpt lat="49.44262" lon="-1.20917">
        <ele>3.1</ele>
        <time>2022-06-02T09:36:55Z</time>
      </trkpt>
      <trkpt lat="49.44265" lon="-1.20918">
        <ele>3.1</ele>
        <time>2022-06-02T09:36:56Z</time>
      </trkpt>
      <trkpt lat="49.44266" lon="-1.20918">
        <ele>3.1</ele>
        <time>2022-06-02T09:36:57Z</time>
      </trkpt>
      <trkpt lat="49.44266" lon="-1.20918">
        <ele>3.1</ele>
        <time>2022-06-02T09:36:58Z</time>
      </trkpt>
      <trkpt lat="49.44269" lon="-1.20919">
        <ele>3.1</ele>
        <time>2022-06-02T09:37:00Z</time>
      </trkpt>
      <trkpt lat="49.4427" lon="-1.20919">
        <ele>3.1</ele>
        <time>2022-06-02T09:37:01Z</time>
      </trkpt>
      <trkpt lat="49.44271" lon="-1.20919">
        <ele>3.1</ele>
        <time>2022-06-02T09:37:02Z</time>
      </trkpt>
      <trkpt lat="49.44272" lon="-1.2092">
        <ele>3.1</ele>
        <time>2022-06-02T09:37:03Z</time>
      </trkpt>
      <trkpt lat="49.44273" lon="-1.2092">
        <ele>3.1</ele>
        <time>2022-06-02T09:37:04Z</time>
      </trkpt>
      <trkpt lat="49.44274" lon="-1.20921">
        <ele>3.1</ele>
        <time>2022-06-02T09:37:05Z</time>
      </trkpt>
      <trkpt lat="49.44276" lon="-1.20922">
        <ele>3.1</ele>
        <time>2022-06-02T09:37:07Z</time>
      </trkpt>
      <trkpt lat="49.44276" lon="-1.20923">
        <ele>3.1</ele>
        <time>2022-06-02T09:37:08Z</time>
      </trkpt>
      <trkpt lat="49.44278" lon="-1.20924">
        <ele>3.1</ele>
        <time>2022-06-02T09:37:09Z</time>
      </trkpt>
      <trkpt lat="49.44279" lon="-1.20925">
        <ele>3.1</ele>
        <time>2022-06-02T09:37:10Z</time>
      </trkpt>
      <trkpt lat="49.4428" lon="-1.20926">
        <ele>3.1</ele>
        <time>2022-06-02T09:37:11Z</time>
      </trkpt>
      <trkpt lat="49.44281" lon="-1.20927">
        <ele>3.1</ele>
        <time>2022-06-02T09:37:12Z</time>
      </trkpt>
      <trkpt lat="49.44282" lon="-1.20928">
        <ele>3.1</ele>
        <time>2022-06-02T09:37:13Z</time>
      </trkpt>
      <trkpt lat="49.44283" lon="-1.20929">
        <ele>3.1</ele>
        <time>2022-06-02T09:37:15Z</time>
      </trkpt>
      <trkpt lat="49.44284" lon="-1.20929">
        <ele>3.1</ele>
        <time>2022-06-02T09:37:16Z</time>
      </trkpt>
      <trkpt lat="49.44285" lon="-1.20931">
        <ele>3.1</ele>
        <time>2022-06-02T09:37:17Z</time>
      </trkpt>
      <trkpt lat="49.44286" lon="-1.20931">
        <ele>3.1</ele>
        <time>2022-06-02T09:37:18Z</time>
      </trkpt>
      <trkpt lat="49.44287" lon="-1.20933">
        <ele>3.1</ele>
        <time>2022-06-02T09:37:19Z</time>
      </trkpt>
      <trkpt lat="49.44288" lon="-1.20934">
        <ele>3.1</ele>
        <time>2022-06-02T09:37:20Z</time>
      </trkpt>
      <trkpt lat="49.44289" lon="-1.20934">
        <ele>3.1</ele>
        <time>2022-06-02T09:37:21Z</time>
      </trkpt>
      <trkpt lat="49.4429" lon="-1.20935">
        <ele>3.1</ele>
        <time>2022-06-02T09:37:22Z</time>
      </trkpt>
      <trkpt lat="49.44291" lon="-1.20936">
        <ele>3.1</ele>
        <time>2022-06-02T09:37:23Z</time>
      </trkpt>
      <trkpt lat="49.44292" lon="-1.20936">
        <ele>3.1</ele>
        <time>2022-06-02T09:37:24Z</time>
      </trkpt>
      <trkpt lat="49.44293" lon="-1.20937">
        <ele>3.1</ele>
        <time>2022-06-02T09:37:25Z</time>
      </trkpt>
      <trkpt lat="49.44294" lon="-1.20938">
        <ele>3.1</ele>
        <time>2022-06-02T09:37:26Z</time>
      </trkpt>
      <trkpt lat="49.44296" lon="-1.20939">
        <ele>3.1</ele>
        <time>2022-06-02T09:37:28Z</time>
      </trkpt>
      <trkpt lat="49.44297" lon="-1.20939">
        <ele>3.1</ele>
        <time>2022-06-02T09:37:29Z</time>
      </trkpt>
      <trkpt lat="49.44298" lon="-1.2094">
        <ele>3.1</ele>
        <time>2022-06-02T09:37:30Z</time>
      </trkpt>
      <trkpt lat="49.44299" lon="-1.20941">
        <ele>3.1</ele>
        <time>2022-06-02T09:37:31Z</time>
      </trkpt>
      <trkpt lat="49.443" lon="-1.20942">
        <ele>3.1</ele>
        <time>2022-06-02T09:37:32Z</time>
      </trkpt>
      <trkpt lat="49.44301" lon="-1.20943">
        <ele>3.1</ele>
        <time>2022-06-02T09:37:33Z</time>
      </trkpt>
      <trkpt lat="49.44302" lon="-1.20944">
        <ele>3.1</ele>
        <time>2022-06-02T09:37:34Z</time>
      </trkpt>
      <trkpt lat="49.44303" lon="-1.20945">
        <ele>3.1</ele>
        <time>2022-06-02T09:37:36Z</time>
      </trkpt>
      <trkpt lat="49.44304" lon="-1.20946">
        <ele>3.1</ele>
        <time>2022-06-02T09:37:37Z</time>
      </trkpt>
      <trkpt lat="49.44306" lon="-1.20947">
        <ele>3.1</ele>
        <time>2022-06-02T09:37:38Z</time>
      </trkpt>
      <trkpt lat="49.44307" lon="-1.20948">
        <ele>3.1</ele>
        <time>2022-06-02T09:37:39Z</time>
      </trkpt>
      <trkpt lat="49.44308" lon="-1.20949">
        <ele>3.1</ele>
        <time>2022-06-02T09:37:40Z</time>
      </trkpt>
      <trkpt lat="49.44309" lon="-1.2095">
        <ele>3.1</ele>
        <time>2022-06-02T09:37:41Z</time>
      </trkpt>
      <trkpt lat="49.4431" lon="-1.20952">
        <ele>3.1</ele>
        <time>2022-06-02T09:37:42Z</time>
      </trkpt>
      <trkpt lat="49.44311" lon="-1.20953">
        <ele>3.1</ele>
        <time>2022-06-02T09:37:44Z</time>
      </trkpt>
      <trkpt lat="49.44312" lon="-1.20954">
        <ele>3.1</ele>
        <time>2022-06-02T09:37:45Z</time>
      </trkpt>
      <trkpt lat="49.44313" lon="-1.20955">
        <ele>3.1</ele>
        <time>2022-06-02T09:37:46Z</time>
      </trkpt>
      <trkpt lat="49.44315" lon="-1.20956">
        <ele>3.1</ele>
        <time>2022-06-02T09:37:47Z</time>
      </trkpt>
      <trkpt lat="49.44315" lon="-1.20957">
        <ele>3.1</ele>
        <time>2022-06-02T09:37:48Z</time>
      </trkpt>
      <trkpt lat="49.44316" lon="-1.20958">
        <ele>3.1</ele>
        <time>2022-06-02T09:37:49Z</time>
      </trkpt>
      <trkpt lat="49.44317" lon="-1.20959">
        <ele>3.1</ele>
        <time>2022-06-02T09:37:50Z</time>
      </trkpt>
      <trkpt lat="49.44319" lon="-1.20961">
        <ele>3.1</ele>
        <time>2022-06-02T09:37:51Z</time>
      </trkpt>
      <trkpt lat="49.4432" lon="-1.20962">
        <ele>3.1</ele>
        <time>2022-06-02T09:37:53Z</time>
      </trkpt>
      <trkpt lat="49.44321" lon="-1.20963">
        <ele>3.1</ele>
        <time>2022-06-02T09:37:54Z</time>
      </trkpt>
      <trkpt lat="49.44322" lon="-1.20964">
        <ele>3.1</ele>
        <time>2022-06-02T09:37:55Z</time>
      </trkpt>
      <trkpt lat="49.44323" lon="-1.20965">
        <ele>3</ele>
        <time>2022-06-02T09:37:56Z</time>
      </trkpt>
      <trkpt lat="49.44325" lon="-1.20967">
        <ele>3</ele>
        <time>2022-06-02T09:37:57Z</time>
      </trkpt>
      <trkpt lat="49.44326" lon="-1.20967">
        <ele>3</ele>
        <time>2022-06-02T09:37:58Z</time>
      </trkpt>
      <trkpt lat="49.44327" lon="-1.20968">
        <ele>3</ele>
        <time>2022-06-02T09:37:59Z</time>
      </trkpt>
      <trkpt lat="49.44328" lon="-1.20969">
        <ele>3</ele>
        <time>2022-06-02T09:38:00Z</time>
      </trkpt>
      <trkpt lat="49.4433" lon="-1.20972">
        <ele>3</ele>
        <time>2022-06-02T09:38:02Z</time>
      </trkpt>
      <trkpt lat="49.44331" lon="-1.20973">
        <ele>3</ele>
        <time>2022-06-02T09:38:03Z</time>
      </trkpt>
      <trkpt lat="49.44332" lon="-1.20973">
        <ele>3</ele>
        <time>2022-06-02T09:38:04Z</time>
      </trkpt>
      <trkpt lat="49.44333" lon="-1.20974">
        <ele>3</ele>
        <time>2022-06-02T09:38:05Z</time>
      </trkpt>
      <trkpt lat="49.44334" lon="-1.20975">
        <ele>3</ele>
        <time>2022-06-02T09:38:06Z</time>
      </trkpt>
      <trkpt lat="49.44335" lon="-1.20976">
        <ele>3</ele>
        <time>2022-06-02T09:38:07Z</time>
      </trkpt>
      <trkpt lat="49.44336" lon="-1.20977">
        <ele>3</ele>
        <time>2022-06-02T09:38:09Z</time>
      </trkpt>
      <trkpt lat="49.44337" lon="-1.20978">
        <ele>3</ele>
        <time>2022-06-02T09:38:10Z</time>
      </trkpt>
      <trkpt lat="49.44337" lon="-1.20979">
        <ele>3</ele>
        <time>2022-06-02T09:38:11Z</time>
      </trkpt>
      <trkpt lat="49.44337" lon="-1.20981">
        <ele>3</ele>
        <time>2022-06-02T09:38:12Z</time>
      </trkpt>
      <trkpt lat="49.44337" lon="-1.20981">
        <ele>3</ele>
        <time>2022-06-02T09:38:13Z</time>
      </trkpt>
      <trkpt lat="49.44337" lon="-1.20981">
        <ele>3</ele>
        <time>2022-06-02T09:38:14Z</time>
      </trkpt>
      <trkpt lat="49.44337" lon="-1.20981">
        <ele>3</ele>
        <time>2022-06-02T09:38:15Z</time>
      </trkpt>
      <trkpt lat="49.44336" lon="-1.20981">
        <ele>3</ele>
        <time>2022-06-02T09:38:16Z</time>
      </trkpt>
      <trkpt lat="49.44336" lon="-1.2098">
        <ele>3</ele>
        <time>2022-06-02T09:38:17Z</time>
      </trkpt>
      <trkpt lat="49.44336" lon="-1.20981">
        <ele>3</ele>
        <time>2022-06-02T09:38:18Z</time>
      </trkpt>
      <trkpt lat="49.44336" lon="-1.20981">
        <ele>3</ele>
        <time>2022-06-02T09:38:19Z</time>
      </trkpt>
      <trkpt lat="49.44337" lon="-1.20981">
        <ele>3</ele>
        <time>2022-06-02T09:38:20Z</time>
      </trkpt>
      <trkpt lat="49.44337" lon="-1.20981">
        <ele>3</ele>
        <time>2022-06-02T09:38:21Z</time>
      </trkpt>
      <trkpt lat="49.44337" lon="-1.20981">
        <ele>3</ele>
        <time>2022-06-02T09:38:22Z</time>
      </trkpt>
      <trkpt lat="49.44337" lon="-1.2098">
        <ele>3</ele>
        <time>2022-06-02T09:38:23Z</time>
      </trkpt>
      <trkpt lat="49.44338" lon="-1.2098">
        <ele>3</ele>
        <time>2022-06-02T09:38:24Z</time>
      </trkpt>
      <trkpt lat="49.44338" lon="-1.2098">
        <ele>3</ele>
        <time>2022-06-02T09:38:25Z</time>
      </trkpt>
      <trkpt lat="49.44339" lon="-1.2098">
        <ele>3</ele>
        <time>2022-06-02T09:38:27Z</time>
      </trkpt>
      <trkpt lat="49.44339" lon="-1.2098">
        <ele>3</ele>
        <time>2022-06-02T09:38:28Z</time>
      </trkpt>
      <trkpt lat="49.4434" lon="-1.20979">
        <ele>3</ele>
        <time>2022-06-02T09:38:29Z</time>
      </trkpt>
      <trkpt lat="49.44341" lon="-1.20976">
        <ele>3</ele>
        <time>2022-06-02T09:38:30Z</time>
      </trkpt>
      <trkpt lat="49.44342" lon="-1.20975">
        <ele>3</ele>
        <time>2022-06-02T09:38:31Z</time>
      </trkpt>
      <trkpt lat="49.44343" lon="-1.20974">
        <ele>3</ele>
        <time>2022-06-02T09:38:33Z</time>
      </trkpt>
      <trkpt lat="49.44343" lon="-1.20973">
        <ele>3</ele>
        <time>2022-06-02T09:38:34Z</time>
      </trkpt>
      <trkpt lat="49.44344" lon="-1.20972">
        <ele>3</ele>
        <time>2022-06-02T09:38:35Z</time>
      </trkpt>
      <trkpt lat="49.44345" lon="-1.20971">
        <ele>3</ele>
        <time>2022-06-02T09:38:36Z</time>
      </trkpt>
      <trkpt lat="49.44346" lon="-1.2097">
        <ele>3</ele>
        <time>2022-06-02T09:38:37Z</time>
      </trkpt>
      <trkpt lat="49.44347" lon="-1.20969">
        <ele>3</ele>
        <time>2022-06-02T09:38:39Z</time>
      </trkpt>
      <trkpt lat="49.44348" lon="-1.20969">
        <ele>3</ele>
        <time>2022-06-02T09:38:40Z</time>
      </trkpt>
      <trkpt lat="49.4435" lon="-1.20969">
        <ele>3</ele>
        <time>2022-06-02T09:38:41Z</time>
      </trkpt>
      <trkpt lat="49.44351" lon="-1.20969">
        <ele>3</ele>
        <time>2022-06-02T09:38:42Z</time>
      </trkpt>
      <trkpt lat="49.44353" lon="-1.2097">
        <ele>3</ele>
        <time>2022-06-02T09:38:43Z</time>
      </trkpt>
      <trkpt lat="49.44354" lon="-1.2097">
        <ele>3</ele>
        <time>2022-06-02T09:38:45Z</time>
      </trkpt>
      <trkpt lat="49.44355" lon="-1.2097">
        <ele>3</ele>
        <time>2022-06-02T09:38:46Z</time>
      </trkpt>
      <trkpt lat="49.44356" lon="-1.2097">
        <ele>3</ele>
        <time>2022-06-02T09:38:47Z</time>
      </trkpt>
      <trkpt lat="49.44357" lon="-1.2097">
        <ele>3</ele>
        <time>2022-06-02T09:38:48Z</time>
      </trkpt>
      <trkpt lat="49.44358" lon="-1.20971">
        <ele>3</ele>
        <time>2022-06-02T09:38:49Z</time>
      </trkpt>
      <trkpt lat="49.44359" lon="-1.20971">
        <ele>3</ele>
        <time>2022-06-02T09:38:50Z</time>
      </trkpt>
      <trkpt lat="49.4436" lon="-1.20972">
        <ele>3</ele>
        <time>2022-06-02T09:38:52Z</time>
      </trkpt>
      <trkpt lat="49.44361" lon="-1.20973">
        <ele>3</ele>
        <time>2022-06-02T09:38:53Z</time>
      </trkpt>
      <trkpt lat="49.44362" lon="-1.20975">
        <ele>3</ele>
        <time>2022-06-02T09:38:54Z</time>
      </trkpt>
      <trkpt lat="49.44363" lon="-1.20976">
        <ele>3.1</ele>
        <time>2022-06-02T09:38:55Z</time>
      </trkpt>
      <trkpt lat="49.44363" lon="-1.20978">
        <ele>3.1</ele>
        <time>2022-06-02T09:38:57Z</time>
      </trkpt>
      <trkpt lat="49.44364" lon="-1.20979">
        <ele>3.1</ele>
        <time>2022-06-02T09:38:58Z</time>
      </trkpt>
      <trkpt lat="49.44365" lon="-1.2098">
        <ele>3.1</ele>
        <time>2022-06-02T09:38:59Z</time>
      </trkpt>
      <trkpt lat="49.44365" lon="-1.20982">
        <ele>3.1</ele>
        <time>2022-06-02T09:39:00Z</time>
      </trkpt>
      <trkpt lat="49.44365" lon="-1.20984">
        <ele>3.1</ele>
        <time>2022-06-02T09:39:01Z</time>
      </trkpt>
      <trkpt lat="49.44364" lon="-1.20985">
        <ele>3.1</ele>
        <time>2022-06-02T09:39:02Z</time>
      </trkpt>
      <trkpt lat="49.44364" lon="-1.20986">
        <ele>3.1</ele>
        <time>2022-06-02T09:39:03Z</time>
      </trkpt>
      <trkpt lat="49.44363" lon="-1.20987">
        <ele>3.1</ele>
        <time>2022-06-02T09:39:04Z</time>
      </trkpt>
      <trkpt lat="49.44362" lon="-1.20987">
        <ele>3.1</ele>
        <time>2022-06-02T09:39:05Z</time>
      </trkpt>
      <trkpt lat="49.44362" lon="-1.20987">
        <ele>3.1</ele>
        <time>2022-06-02T09:39:06Z</time>
      </trkpt>
      <trkpt lat="49.44361" lon="-1.20988">
        <ele>3.1</ele>
        <time>2022-06-02T09:39:07Z</time>
      </trkpt>
      <trkpt lat="49.44361" lon="-1.20988">
        <ele>3.1</ele>
        <time>2022-06-02T09:39:08Z</time>
      </trkpt>
      <trkpt lat="49.44361" lon="-1.20988">
        <ele>3.1</ele>
        <time>2022-06-02T09:39:09Z</time>
      </trkpt>
      <trkpt lat="49.4436" lon="-1.20988">
        <ele>3.1</ele>
        <time>2022-06-02T09:39:10Z</time>
      </trkpt>
      <trkpt lat="49.4436" lon="-1.20989">
        <ele>3.1</ele>
        <time>2022-06-02T09:39:11Z</time>
      </trkpt>
      <trkpt lat="49.4436" lon="-1.20989">
        <ele>3.1</ele>
        <time>2022-06-02T09:39:12Z</time>
      </trkpt>
      <trkpt lat="49.4436" lon="-1.20989">
        <ele>3.1</ele>
        <time>2022-06-02T09:39:13Z</time>
      </trkpt>
      <trkpt lat="49.4436" lon="-1.20989">
        <ele>3.1</ele>
        <time>2022-06-02T09:39:14Z</time>
      </trkpt>
      <trkpt lat="49.4436" lon="-1.20989">
        <ele>3.1</ele>
        <time>2022-06-02T09:39:15Z</time>
      </trkpt>
      <trkpt lat="49.4436" lon="-1.20989">
        <ele>3.1</ele>
        <time>2022-06-02T09:39:16Z</time>
      </trkpt>
      <trkpt lat="49.4436" lon="-1.20989">
        <ele>3.1</ele>
        <time>2022-06-02T09:39:17Z</time>
      </trkpt>
      <trkpt lat="49.4436" lon="-1.20989">
        <ele>3.1</ele>
        <time>2022-06-02T09:39:18Z</time>
      </trkpt>
      <trkpt lat="49.4436" lon="-1.20989">
        <ele>3.1</ele>
        <time>2022-06-02T09:39:19Z</time>
      </trkpt>
      <trkpt lat="49.4436" lon="-1.20989">
        <ele>3.1</ele>
        <time>2022-06-02T09:39:20Z</time>
      </trkpt>
      <trkpt lat="49.4436" lon="-1.20989">
        <ele>3.1</ele>
        <time>2022-06-02T09:39:21Z</time>
      </trkpt>
      <trkpt lat="49.4436" lon="-1.20988">
        <ele>3.1</ele>
        <time>2022-06-02T09:39:22Z</time>
      </trkpt>
      <trkpt lat="49.4436" lon="-1.20988">
        <ele>3.1</ele>
        <time>2022-06-02T09:39:23Z</time>
      </trkpt>
      <trkpt lat="49.4436" lon="-1.20988">
        <ele>3.1</ele>
        <time>2022-06-02T09:39:24Z</time>
      </trkpt>
      <trkpt lat="49.4436" lon="-1.20988">
        <ele>3.1</ele>
        <time>2022-06-02T09:39:25Z</time>
      </trkpt>
      <trkpt lat="49.4436" lon="-1.20988">
        <ele>3.1</ele>
        <time>2022-06-02T09:39:26Z</time>
      </trkpt>
      <trkpt lat="49.4436" lon="-1.20988">
        <ele>3.1</ele>
        <time>2022-06-02T09:39:27Z</time>
      </trkpt>
      <trkpt lat="49.4436" lon="-1.20988">
        <ele>3.1</ele>
        <time>2022-06-02T09:39:28Z</time>
      </trkpt>
      <trkpt lat="49.4436" lon="-1.20988">
        <ele>3.1</ele>
        <time>2022-06-02T09:39:29Z</time>
      </trkpt>
      <trkpt lat="49.4436" lon="-1.20988">
        <ele>3.1</ele>
        <time>2022-06-02T09:39:30Z</time>
      </trkpt>
      <trkpt lat="49.4436" lon="-1.20988">
        <ele>3.1</ele>
        <time>2022-06-02T09:39:31Z</time>
      </trkpt>
      <trkpt lat="49.4436" lon="-1.20988">
        <ele>3.1</ele>
        <time>2022-06-02T09:39:32Z</time>
      </trkpt>
      <trkpt lat="49.4436" lon="-1.20988">
        <ele>3.1</ele>
        <time>2022-06-02T09:39:33Z</time>
      </trkpt>
      <trkpt lat="49.4436" lon="-1.20988">
        <ele>3.1</ele>
        <time>2022-06-02T09:39:34Z</time>
      </trkpt>
      <trkpt lat="49.4436" lon="-1.20988">
        <ele>3.1</ele>
        <time>2022-06-02T09:39:35Z</time>
      </trkpt>
      <trkpt lat="49.4436" lon="-1.20988">
        <ele>3.1</ele>
        <time>2022-06-02T09:39:36Z</time>
      </trkpt>
      <trkpt lat="49.4436" lon="-1.20988">
        <ele>3.1</ele>
        <time>2022-06-02T09:39:37Z</time>
      </trkpt>
      <trkpt lat="49.4436" lon="-1.20988">
        <ele>3.1</ele>
        <time>2022-06-02T09:39:38Z</time>
      </trkpt>
      <trkpt lat="49.4436" lon="-1.20988">
        <ele>3.1</ele>
        <time>2022-06-02T09:39:39Z</time>
      </trkpt>
      <trkpt lat="49.4436" lon="-1.20988">
        <ele>3.1</ele>
        <time>2022-06-02T09:39:40Z</time>
      </trkpt>
      <trkpt lat="49.4436" lon="-1.20988">
        <ele>3.1</ele>
        <time>2022-06-02T09:39:41Z</time>
      </trkpt>
      <trkpt lat="49.4436" lon="-1.20988">
        <ele>3.1</ele>
        <time>2022-06-02T09:39:42Z</time>
      </trkpt>
      <trkpt lat="49.4436" lon="-1.20988">
        <ele>3.1</ele>
        <time>2022-06-02T09:39:43Z</time>
      </trkpt>
      <trkpt lat="49.4436" lon="-1.20988">
        <ele>3.1</ele>
        <time>2022-06-02T09:39:44Z</time>
      </trkpt>
      <trkpt lat="49.4436" lon="-1.20988">
        <ele>3.1</ele>
        <time>2022-06-02T09:39:45Z</time>
      </trkpt>
      <trkpt lat="49.4436" lon="-1.20988">
        <ele>3.1</ele>
        <time>2022-06-02T09:39:46Z</time>
      </trkpt>
      <trkpt lat="49.4436" lon="-1.20988">
        <ele>3.1</ele>
        <time>2022-06-02T09:39:47Z</time>
      </trkpt>
      <trkpt lat="49.4436" lon="-1.20988">
        <ele>3.1</ele>
        <time>2022-06-02T09:39:48Z</time>
      </trkpt>
      <trkpt lat="49.4436" lon="-1.20988">
        <ele>3.1</ele>
        <time>2022-06-02T09:39:49Z</time>
      </trkpt>
      <trkpt lat="49.4436" lon="-1.20988">
        <ele>3.1</ele>
        <time>2022-06-02T09:39:50Z</time>
      </trkpt>
      <trkpt lat="49.4436" lon="-1.20988">
        <ele>3.1</ele>
        <time>2022-06-02T09:39:51Z</time>
      </trkpt>
      <trkpt lat="49.4436" lon="-1.20988">
        <ele>3.1</ele>
        <time>2022-06-02T09:39:52Z</time>
      </trkpt>
      <trkpt lat="49.4436" lon="-1.20988">
        <ele>3.1</ele>
        <time>2022-06-02T09:39:53Z</time>
      </trkpt>
      <trkpt lat="49.4436" lon="-1.20988">
        <ele>3.1</ele>
        <time>2022-06-02T09:39:54Z</time>
      </trkpt>
      <trkpt lat="49.4436" lon="-1.20988">
        <ele>3.1</ele>
        <time>2022-06-02T09:39:55Z</time>
      </trkpt>
      <trkpt lat="49.4436" lon="-1.20988">
        <ele>3.1</ele>
        <time>2022-06-02T09:39:56Z</time>
      </trkpt>
      <trkpt lat="49.4436" lon="-1.20988">
        <ele>3.1</ele>
        <time>2022-06-02T09:39:57Z</time>
      </trkpt>
      <trkpt lat="49.4436" lon="-1.20988">
        <ele>3.1</ele>
        <time>2022-06-02T09:39:58Z</time>
      </trkpt>
      <trkpt lat="49.4436" lon="-1.20988">
        <ele>3.1</ele>
        <time>2022-06-02T09:39:59Z</time>
      </trkpt>
      <trkpt lat="49.4436" lon="-1.20988">
        <ele>3.1</ele>
        <time>2022-06-02T09:40:00Z</time>
      </trkpt>
      <trkpt lat="49.4436" lon="-1.20988">
        <ele>3.1</ele>
        <time>2022-06-02T09:40:01Z</time>
      </trkpt>
      <trkpt lat="49.4436" lon="-1.20988">
        <ele>3.1</ele>
        <time>2022-06-02T09:40:02Z</time>
      </trkpt>
      <trkpt lat="49.4436" lon="-1.20988">
        <ele>3.1</ele>
        <time>2022-06-02T09:40:03Z</time>
      </trkpt>
      <trkpt lat="49.4436" lon="-1.20988">
        <ele>3.1</ele>
        <time>2022-06-02T09:40:04Z</time>
      </trkpt>
      <trkpt lat="49.4436" lon="-1.20988">
        <ele>3.1</ele>
        <time>2022-06-02T09:40:05Z</time>
      </trkpt>
      <trkpt lat="49.4436" lon="-1.20988">
        <ele>3.1</ele>
        <time>2022-06-02T09:40:06Z</time>
      </trkpt>
      <trkpt lat="49.4436" lon="-1.20988">
        <ele>3.1</ele>
        <time>2022-06-02T09:40:07Z</time>
      </trkpt>
      <trkpt lat="49.4436" lon="-1.20988">
        <ele>3.1</ele>
        <time>2022-06-02T09:40:08Z</time>
      </trkpt>
      <trkpt lat="49.4436" lon="-1.20988">
        <ele>3.1</ele>
        <time>2022-06-02T09:40:09Z</time>
      </trkpt>
      <trkpt lat="49.4436" lon="-1.20988">
        <ele>3.1</ele>
        <time>2022-06-02T09:40:10Z</time>
      </trkpt>
      <trkpt lat="49.4436" lon="-1.20988">
        <ele>3.1</ele>
        <time>2022-06-02T09:40:11Z</time>
      </trkpt>
      <trkpt lat="49.4436" lon="-1.20988">
        <ele>3.1</ele>
        <time>2022-06-02T09:40:12Z</time>
      </trkpt>
      <trkpt lat="49.4436" lon="-1.20988">
        <ele>3.1</ele>
        <time>2022-06-02T09:40:13Z</time>
      </trkpt>
      <trkpt lat="49.4436" lon="-1.20988">
        <ele>3.1</ele>
        <time>2022-06-02T09:40:14Z</time>
      </trkpt>
      <trkpt lat="49.4436" lon="-1.20988">
        <ele>3.1</ele>
        <time>2022-06-02T09:40:15Z</time>
      </trkpt>
      <trkpt lat="49.4436" lon="-1.20988">
        <ele>3.1</ele>
        <time>2022-06-02T09:40:16Z</time>
      </trkpt>
      <trkpt lat="49.4436" lon="-1.20988">
        <ele>3.1</ele>
        <time>2022-06-02T09:40:17Z</time>
      </trkpt>
      <trkpt lat="49.4436" lon="-1.20988">
        <ele>3.1</ele>
        <time>2022-06-02T09:40:18Z</time>
      </trkpt>
      <trkpt lat="49.4436" lon="-1.20988">
        <ele>3.1</ele>
        <time>2022-06-02T09:40:19Z</time>
      </trkpt>
      <trkpt lat="49.4436" lon="-1.20988">
        <ele>3.1</ele>
        <time>2022-06-02T09:40:20Z</time>
      </trkpt>
      <trkpt lat="49.4436" lon="-1.20988">
        <ele>3.1</ele>
        <time>2022-06-02T09:40:21Z</time>
      </trkpt>
      <trkpt lat="49.4436" lon="-1.20988">
        <ele>3.1</ele>
        <time>2022-06-02T09:40:22Z</time>
      </trkpt>
      <trkpt lat="49.4436" lon="-1.20988">
        <ele>3.1</ele>
        <time>2022-06-02T09:40:23Z</time>
      </trkpt>
      <trkpt lat="49.4436" lon="-1.20988">
        <ele>3.1</ele>
        <time>2022-06-02T09:40:24Z</time>
      </trkpt>
      <trkpt lat="49.4436" lon="-1.20988">
        <ele>3.1</ele>
        <time>2022-06-02T09:40:25Z</time>
      </trkpt>
      <trkpt lat="49.4436" lon="-1.20988">
        <ele>3.1</ele>
        <time>2022-06-02T09:40:26Z</time>
      </trkpt>
      <trkpt lat="49.4436" lon="-1.20988">
        <ele>3.1</ele>
        <time>2022-06-02T09:40:27Z</time>
      </trkpt>
      <trkpt lat="49.4436" lon="-1.20988">
        <ele>3.1</ele>
        <time>2022-06-02T09:40:28Z</time>
      </trkpt>
      <trkpt lat="49.4436" lon="-1.20988">
        <ele>3.1</ele>
        <time>2022-06-02T09:40:29Z</time>
      </trkpt>
      <trkpt lat="49.4436" lon="-1.20988">
        <ele>3.1</ele>
        <time>2022-06-02T09:40:30Z</time>
      </trkpt>
      <trkpt lat="49.4436" lon="-1.20988">
        <ele>3.1</ele>
        <time>2022-06-02T09:40:31Z</time>
      </trkpt>
      <trkpt lat="49.4436" lon="-1.20988">
        <ele>3.1</ele>
        <time>2022-06-02T09:40:32Z</time>
      </trkpt>
      <trkpt lat="49.4436" lon="-1.20988">
        <ele>3.1</ele>
        <time>2022-06-02T09:40:33Z</time>
      </trkpt>
      <trkpt lat="49.4436" lon="-1.20988">
        <ele>3.1</ele>
        <time>2022-06-02T09:40:34Z</time>
      </trkpt>
      <trkpt lat="49.4436" lon="-1.20988">
        <ele>3.1</ele>
        <time>2022-06-02T09:40:35Z</time>
      </trkpt>
      <trkpt lat="49.4436" lon="-1.20988">
        <ele>3.1</ele>
        <time>2022-06-02T09:40:36Z</time>
      </trkpt>
      <trkpt lat="49.4436" lon="-1.20988">
        <ele>3.1</ele>
        <time>2022-06-02T09:40:37Z</time>
      </trkpt>
      <trkpt lat="49.4436" lon="-1.20988">
        <ele>3.1</ele>
        <time>2022-06-02T09:40:38Z</time>
      </trkpt>
      <trkpt lat="49.4436" lon="-1.20988">
        <ele>3.1</ele>
        <time>2022-06-02T09:40:39Z</time>
      </trkpt>
      <trkpt lat="49.4436" lon="-1.20988">
        <ele>3.1</ele>
        <time>2022-06-02T09:40:40Z</time>
      </trkpt>
      <trkpt lat="49.4436" lon="-1.20988">
        <ele>3.1</ele>
        <time>2022-06-02T09:40:41Z</time>
      </trkpt>
      <trkpt lat="49.4436" lon="-1.20988">
        <ele>3.1</ele>
        <time>2022-06-02T09:40:42Z</time>
      </trkpt>
      <trkpt lat="49.4436" lon="-1.20988">
        <ele>3.1</ele>
        <time>2022-06-02T09:40:43Z</time>
      </trkpt>
      <trkpt lat="49.4436" lon="-1.20988">
        <ele>3.1</ele>
        <time>2022-06-02T09:40:44Z</time>
      </trkpt>
      <trkpt lat="49.4436" lon="-1.20988">
        <ele>3.1</ele>
        <time>2022-06-02T09:40:45Z</time>
      </trkpt>
      <trkpt lat="49.4436" lon="-1.20988">
        <ele>3.1</ele>
        <time>2022-06-02T09:40:46Z</time>
      </trkpt>
      <trkpt lat="49.4436" lon="-1.20988">
        <ele>3.1</ele>
        <time>2022-06-02T09:40:47Z</time>
      </trkpt>
      <trkpt lat="49.4436" lon="-1.20988">
        <ele>3.1</ele>
        <time>2022-06-02T09:40:48Z</time>
      </trkpt>
      <trkpt lat="49.4436" lon="-1.20988">
        <ele>3.1</ele>
        <time>2022-06-02T09:40:49Z</time>
      </trkpt>
      <trkpt lat="49.44361" lon="-1.20986">
        <ele>3.1</ele>
        <time>2022-06-02T09:40:50Z</time>
      </trkpt>
      <trkpt lat="49.44362" lon="-1.20985">
        <ele>3.1</ele>
        <time>2022-06-02T09:40:51Z</time>
      </trkpt>
      <trkpt lat="49.44363" lon="-1.20984">
        <ele>3.1</ele>
        <time>2022-06-02T09:40:52Z</time>
      </trkpt>
      <trkpt lat="49.44363" lon="-1.20983">
        <ele>3.1</ele>
        <time>2022-06-02T09:40:53Z</time>
      </trkpt>
      <trkpt lat="49.44363" lon="-1.20983">
        <ele>3.1</ele>
        <time>2022-06-02T09:40:54Z</time>
      </trkpt>
      <trkpt lat="49.44363" lon="-1.20983">
        <ele>3.1</ele>
        <time>2022-06-02T09:40:55Z</time>
      </trkpt>
      <trkpt lat="49.44363" lon="-1.20983">
        <ele>3.1</ele>
        <time>2022-06-02T09:40:56Z</time>
      </trkpt>
      <trkpt lat="49.44363" lon="-1.20983">
        <ele>3.1</ele>
        <time>2022-06-02T09:40:57Z</time>
      </trkpt>
      <trkpt lat="49.44363" lon="-1.20983">
        <ele>3.1</ele>
        <time>2022-06-02T09:40:58Z</time>
      </trkpt>
      <trkpt lat="49.44363" lon="-1.20983">
        <ele>3.1</ele>
        <time>2022-06-02T09:40:59Z</time>
      </trkpt>
      <trkpt lat="49.44363" lon="-1.20983">
        <ele>3.1</ele>
        <time>2022-06-02T09:41:00Z</time>
      </trkpt>
      <trkpt lat="49.44363" lon="-1.20983">
        <ele>3.1</ele>
        <time>2022-06-02T09:41:01Z</time>
      </trkpt>
      <trkpt lat="49.44363" lon="-1.20983">
        <ele>3.1</ele>
        <time>2022-06-02T09:41:02Z</time>
      </trkpt>
      <trkpt lat="49.44363" lon="-1.20983">
        <ele>3.1</ele>
        <time>2022-06-02T09:41:03Z</time>
      </trkpt>
      <trkpt lat="49.44363" lon="-1.20983">
        <ele>3.1</ele>
        <time>2022-06-02T09:41:04Z</time>
      </trkpt>
      <trkpt lat="49.44363" lon="-1.20983">
        <ele>3.1</ele>
        <time>2022-06-02T09:41:05Z</time>
      </trkpt>
      <trkpt lat="49.44363" lon="-1.20983">
        <ele>3.1</ele>
        <time>2022-06-02T09:41:06Z</time>
      </trkpt>
      <trkpt lat="49.44363" lon="-1.20983">
        <ele>3.1</ele>
        <time>2022-06-02T09:41:07Z</time>
      </trkpt>
      <trkpt lat="49.44363" lon="-1.20983">
        <ele>3.1</ele>
        <time>2022-06-02T09:41:08Z</time>
      </trkpt>
      <trkpt lat="49.44363" lon="-1.20983">
        <ele>3.1</ele>
        <time>2022-06-02T09:41:09Z</time>
      </trkpt>
      <trkpt lat="49.44363" lon="-1.20983">
        <ele>3.1</ele>
        <time>2022-06-02T09:41:10Z</time>
      </trkpt>
      <trkpt lat="49.44363" lon="-1.20983">
        <ele>3.1</ele>
        <time>2022-06-02T09:41:11Z</time>
      </trkpt>
      <trkpt lat="49.44363" lon="-1.20983">
        <ele>3.1</ele>
        <time>2022-06-02T09:41:12Z</time>
      </trkpt>
      <trkpt lat="49.44363" lon="-1.20983">
        <ele>3.1</ele>
        <time>2022-06-02T09:41:13Z</time>
      </trkpt>
      <trkpt lat="49.44363" lon="-1.20983">
        <ele>3.1</ele>
        <time>2022-06-02T09:41:14Z</time>
      </trkpt>
      <trkpt lat="49.44363" lon="-1.20983">
        <ele>3.1</ele>
        <time>2022-06-02T09:41:15Z</time>
      </trkpt>
      <trkpt lat="49.44363" lon="-1.20983">
        <ele>3.1</ele>
        <time>2022-06-02T09:41:16Z</time>
      </trkpt>
      <trkpt lat="49.44363" lon="-1.20983">
        <ele>3.1</ele>
        <time>2022-06-02T09:41:17Z</time>
      </trkpt>
      <trkpt lat="49.44363" lon="-1.20983">
        <ele>3.1</ele>
        <time>2022-06-02T09:41:18Z</time>
      </trkpt>
      <trkpt lat="49.44363" lon="-1.20983">
        <ele>3.1</ele>
        <time>2022-06-02T09:41:19Z</time>
      </trkpt>
      <trkpt lat="49.44363" lon="-1.20983">
        <ele>3.1</ele>
        <time>2022-06-02T09:41:20Z</time>
      </trkpt>
      <trkpt lat="49.44363" lon="-1.20983">
        <ele>3.1</ele>
        <time>2022-06-02T09:41:21Z</time>
      </trkpt>
      <trkpt lat="49.44363" lon="-1.20983">
        <ele>3.1</ele>
        <time>2022-06-02T09:41:22Z</time>
      </trkpt>
      <trkpt lat="49.44363" lon="-1.20983">
        <ele>3.1</ele>
        <time>2022-06-02T09:41:23Z</time>
      </trkpt>
      <trkpt lat="49.44363" lon="-1.20983">
        <ele>3.1</ele>
        <time>2022-06-02T09:41:24Z</time>
      </trkpt>
      <trkpt lat="49.44363" lon="-1.20983">
        <ele>3.1</ele>
        <time>2022-06-02T09:41:25Z</time>
      </trkpt>
      <trkpt lat="49.44363" lon="-1.20983">
        <ele>3.1</ele>
        <time>2022-06-02T09:41:26Z</time>
      </trkpt>
      <trkpt lat="49.44363" lon="-1.20983">
        <ele>3.1</ele>
        <time>2022-06-02T09:41:27Z</time>
      </trkpt>
      <trkpt lat="49.44363" lon="-1.20983">
        <ele>3.1</ele>
        <time>2022-06-02T09:41:28Z</time>
      </trkpt>
      <trkpt lat="49.44363" lon="-1.20983">
        <ele>3.1</ele>
        <time>2022-06-02T09:41:29Z</time>
      </trkpt>
      <trkpt lat="49.44363" lon="-1.20983">
        <ele>3.1</ele>
        <time>2022-06-02T09:41:30Z</time>
      </trkpt>
      <trkpt lat="49.44363" lon="-1.20983">
        <ele>3.1</ele>
        <time>2022-06-02T09:41:31Z</time>
      </trkpt>
      <trkpt lat="49.44363" lon="-1.20983">
        <ele>3.1</ele>
        <time>2022-06-02T09:41:32Z</time>
      </trkpt>
      <trkpt lat="49.44363" lon="-1.20983">
        <ele>3.1</ele>
        <time>2022-06-02T09:41:33Z</time>
      </trkpt>
      <trkpt lat="49.44363" lon="-1.20983">
        <ele>3.1</ele>
        <time>2022-06-02T09:41:34Z</time>
      </trkpt>
      <trkpt lat="49.44363" lon="-1.20983">
        <ele>3.1</ele>
        <time>2022-06-02T09:41:35Z</time>
      </trkpt>
      <trkpt lat="49.44363" lon="-1.20983">
        <ele>3.1</ele>
        <time>2022-06-02T09:41:36Z</time>
      </trkpt>
      <trkpt lat="49.44363" lon="-1.20983">
        <ele>3.1</ele>
        <time>2022-06-02T09:41:37Z</time>
      </trkpt>
      <trkpt lat="49.44363" lon="-1.20983">
        <ele>3.1</ele>
        <time>2022-06-02T09:41:38Z</time>
      </trkpt>
      <trkpt lat="49.44363" lon="-1.20983">
        <ele>3.1</ele>
        <time>2022-06-02T09:41:39Z</time>
      </trkpt>
      <trkpt lat="49.44363" lon="-1.20983">
        <ele>3.1</ele>
        <time>2022-06-02T09:41:40Z</time>
      </trkpt>
      <trkpt lat="49.44363" lon="-1.20983">
        <ele>3.1</ele>
        <time>2022-06-02T09:41:41Z</time>
      </trkpt>
      <trkpt lat="49.44363" lon="-1.20983">
        <ele>3.1</ele>
        <time>2022-06-02T09:41:42Z</time>
      </trkpt>
      <trkpt lat="49.44363" lon="-1.20983">
        <ele>3.1</ele>
        <time>2022-06-02T09:41:43Z</time>
      </trkpt>
      <trkpt lat="49.44363" lon="-1.20983">
        <ele>3.1</ele>
        <time>2022-06-02T09:41:44Z</time>
      </trkpt>
      <trkpt lat="49.44363" lon="-1.20983">
        <ele>3.1</ele>
        <time>2022-06-02T09:41:45Z</time>
      </trkpt>
      <trkpt lat="49.44363" lon="-1.20983">
        <ele>3.1</ele>
        <time>2022-06-02T09:41:46Z</time>
      </trkpt>
      <trkpt lat="49.44363" lon="-1.20983">
        <ele>3.1</ele>
        <time>2022-06-02T09:41:47Z</time>
      </trkpt>
      <trkpt lat="49.44363" lon="-1.20983">
        <ele>3.1</ele>
        <time>2022-06-02T09:41:48Z</time>
      </trkpt>
      <trkpt lat="49.44363" lon="-1.20983">
        <ele>3.1</ele>
        <time>2022-06-02T09:41:49Z</time>
      </trkpt>
      <trkpt lat="49.44363" lon="-1.20983">
        <ele>3.1</ele>
        <time>2022-06-02T09:41:50Z</time>
      </trkpt>
      <trkpt lat="49.44363" lon="-1.20983">
        <ele>3.1</ele>
        <time>2022-06-02T09:41:51Z</time>
      </trkpt>
      <trkpt lat="49.44363" lon="-1.20983">
        <ele>3.1</ele>
        <time>2022-06-02T09:41:52Z</time>
      </trkpt>
      <trkpt lat="49.44363" lon="-1.20983">
        <ele>3.1</ele>
        <time>2022-06-02T09:41:53Z</time>
      </trkpt>
      <trkpt lat="49.44363" lon="-1.20983">
        <ele>3.1</ele>
        <time>2022-06-02T09:41:54Z</time>
      </trkpt>
      <trkpt lat="49.44363" lon="-1.20983">
        <ele>3.1</ele>
        <time>2022-06-02T09:41:55Z</time>
      </trkpt>
      <trkpt lat="49.44363" lon="-1.20983">
        <ele>3.1</ele>
        <time>2022-06-02T09:41:56Z</time>
      </trkpt>
      <trkpt lat="49.44363" lon="-1.20983">
        <ele>3.1</ele>
        <time>2022-06-02T09:41:57Z</time>
      </trkpt>
      <trkpt lat="49.44363" lon="-1.20983">
        <ele>3.1</ele>
        <time>2022-06-02T09:41:58Z</time>
      </trkpt>
      <trkpt lat="49.44363" lon="-1.20983">
        <ele>3.1</ele>
        <time>2022-06-02T09:41:59Z</time>
      </trkpt>
      <trkpt lat="49.44363" lon="-1.20983">
        <ele>3.1</ele>
        <time>2022-06-02T09:42:00Z</time>
      </trkpt>
      <trkpt lat="49.44363" lon="-1.20983">
        <ele>3.1</ele>
        <time>2022-06-02T09:42:01Z</time>
      </trkpt>
      <trkpt lat="49.44363" lon="-1.20983">
        <ele>3.1</ele>
        <time>2022-06-02T09:42:02Z</time>
      </trkpt>
      <trkpt lat="49.44363" lon="-1.20983">
        <ele>3.1</ele>
        <time>2022-06-02T09:42:03Z</time>
      </trkpt>
      <trkpt lat="49.44363" lon="-1.20983">
        <ele>3.1</ele>
        <time>2022-06-02T09:42:04Z</time>
      </trkpt>
      <trkpt lat="49.44363" lon="-1.20983">
        <ele>3.1</ele>
        <time>2022-06-02T09:42:05Z</time>
      </trkpt>
      <trkpt lat="49.44363" lon="-1.20983">
        <ele>3.1</ele>
        <time>2022-06-02T09:42:06Z</time>
      </trkpt>
      <trkpt lat="49.44363" lon="-1.20983">
        <ele>3.1</ele>
        <time>2022-06-02T09:42:07Z</time>
      </trkpt>
      <trkpt lat="49.44363" lon="-1.20983">
        <ele>3.1</ele>
        <time>2022-06-02T09:42:08Z</time>
      </trkpt>
      <trkpt lat="49.44363" lon="-1.20983">
        <ele>3.1</ele>
        <time>2022-06-02T09:42:09Z</time>
      </trkpt>
      <trkpt lat="49.44363" lon="-1.20983">
        <ele>3.1</ele>
        <time>2022-06-02T09:42:10Z</time>
      </trkpt>
      <trkpt lat="49.44363" lon="-1.20983">
        <ele>3.1</ele>
        <time>2022-06-02T09:42:11Z</time>
      </trkpt>
      <trkpt lat="49.44363" lon="-1.20983">
        <ele>3.1</ele>
        <time>2022-06-02T09:42:12Z</time>
      </trkpt>
      <trkpt lat="49.44363" lon="-1.20983">
        <ele>3.1</ele>
        <time>2022-06-02T09:42:13Z</time>
      </trkpt>
      <trkpt lat="49.44363" lon="-1.20983">
        <ele>3.1</ele>
        <time>2022-06-02T09:42:14Z</time>
      </trkpt>
      <trkpt lat="49.44363" lon="-1.20983">
        <ele>3.1</ele>
        <time>2022-06-02T09:42:15Z</time>
      </trkpt>
      <trkpt lat="49.44363" lon="-1.20983">
        <ele>3.1</ele>
        <time>2022-06-02T09:42:16Z</time>
      </trkpt>
      <trkpt lat="49.44363" lon="-1.20983">
        <ele>3.1</ele>
        <time>2022-06-02T09:42:17Z</time>
      </trkpt>
      <trkpt lat="49.44363" lon="-1.20983">
        <ele>3.1</ele>
        <time>2022-06-02T09:42:18Z</time>
      </trkpt>
      <trkpt lat="49.44363" lon="-1.20983">
        <ele>3.1</ele>
        <time>2022-06-02T09:42:19Z</time>
      </trkpt>
      <trkpt lat="49.44363" lon="-1.20983">
        <ele>3.1</ele>
        <time>2022-06-02T09:42:20Z</time>
      </trkpt>
      <trkpt lat="49.44363" lon="-1.20983">
        <ele>3.1</ele>
        <time>2022-06-02T09:42:21Z</time>
      </trkpt>
      <trkpt lat="49.44363" lon="-1.20983">
        <ele>3.1</ele>
        <time>2022-06-02T09:42:22Z</time>
      </trkpt>
      <trkpt lat="49.44363" lon="-1.20983">
        <ele>3.1</ele>
        <time>2022-06-02T09:42:23Z</time>
      </trkpt>
      <trkpt lat="49.44363" lon="-1.20983">
        <ele>3.1</ele>
        <time>2022-06-02T09:42:24Z</time>
      </trkpt>
      <trkpt lat="49.44363" lon="-1.20983">
        <ele>3.1</ele>
        <time>2022-06-02T09:42:25Z</time>
      </trkpt>
      <trkpt lat="49.44363" lon="-1.20983">
        <ele>3.1</ele>
        <time>2022-06-02T09:42:26Z</time>
      </trkpt>
      <trkpt lat="49.44363" lon="-1.20983">
        <ele>3.1</ele>
        <time>2022-06-02T09:42:27Z</time>
      </trkpt>
      <trkpt lat="49.44363" lon="-1.20983">
        <ele>3.1</ele>
        <time>2022-06-02T09:42:28Z</time>
      </trkpt>
      <trkpt lat="49.44363" lon="-1.20983">
        <ele>3.1</ele>
        <time>2022-06-02T09:42:29Z</time>
      </trkpt>
      <trkpt lat="49.44363" lon="-1.20983">
        <ele>3.1</ele>
        <time>2022-06-02T09:42:30Z</time>
      </trkpt>
      <trkpt lat="49.44363" lon="-1.20983">
        <ele>3.1</ele>
        <time>2022-06-02T09:42:31Z</time>
      </trkpt>
      <trkpt lat="49.44363" lon="-1.20983">
        <ele>3.1</ele>
        <time>2022-06-02T09:42:32Z</time>
      </trkpt>
      <trkpt lat="49.44363" lon="-1.20983">
        <ele>3.1</ele>
        <time>2022-06-02T09:42:33Z</time>
      </trkpt>
      <trkpt lat="49.44363" lon="-1.20983">
        <ele>3.1</ele>
        <time>2022-06-02T09:42:34Z</time>
      </trkpt>
      <trkpt lat="49.44363" lon="-1.20983">
        <ele>3.1</ele>
        <time>2022-06-02T09:42:35Z</time>
      </trkpt>
      <trkpt lat="49.44363" lon="-1.20983">
        <ele>3.1</ele>
        <time>2022-06-02T09:42:36Z</time>
      </trkpt>
      <trkpt lat="49.44363" lon="-1.20983">
        <ele>3.1</ele>
        <time>2022-06-02T09:42:37Z</time>
      </trkpt>
      <trkpt lat="49.44363" lon="-1.20983">
        <ele>3.1</ele>
        <time>2022-06-02T09:42:38Z</time>
      </trkpt>
      <trkpt lat="49.44363" lon="-1.20983">
        <ele>3.1</ele>
        <time>2022-06-02T09:42:39Z</time>
      </trkpt>
      <trkpt lat="49.44363" lon="-1.20983">
        <ele>3.1</ele>
        <time>2022-06-02T09:42:40Z</time>
      </trkpt>
      <trkpt lat="49.44363" lon="-1.20983">
        <ele>3.1</ele>
        <time>2022-06-02T09:42:41Z</time>
      </trkpt>
      <trkpt lat="49.44363" lon="-1.20983">
        <ele>3.1</ele>
        <time>2022-06-02T09:42:42Z</time>
      </trkpt>
      <trkpt lat="49.44363" lon="-1.20983">
        <ele>3.1</ele>
        <time>2022-06-02T09:42:43Z</time>
      </trkpt>
      <trkpt lat="49.44363" lon="-1.20983">
        <ele>3.1</ele>
        <time>2022-06-02T09:42:44Z</time>
      </trkpt>
      <trkpt lat="49.44363" lon="-1.20983">
        <ele>3.1</ele>
        <time>2022-06-02T09:42:45Z</time>
      </trkpt>
      <trkpt lat="49.44363" lon="-1.20983">
        <ele>3.1</ele>
        <time>2022-06-02T09:42:46Z</time>
      </trkpt>
      <trkpt lat="49.44363" lon="-1.20983">
        <ele>3.1</ele>
        <time>2022-06-02T09:42:47Z</time>
      </trkpt>
      <trkpt lat="49.44363" lon="-1.20983">
        <ele>3.1</ele>
        <time>2022-06-02T09:42:48Z</time>
      </trkpt>
      <trkpt lat="49.44363" lon="-1.20983">
        <ele>3.1</ele>
        <time>2022-06-02T09:42:49Z</time>
      </trkpt>
      <trkpt lat="49.44363" lon="-1.20983">
        <ele>3.1</ele>
        <time>2022-06-02T09:42:50Z</time>
      </trkpt>
      <trkpt lat="49.44363" lon="-1.20983">
        <ele>3.1</ele>
        <time>2022-06-02T09:42:51Z</time>
      </trkpt>
      <trkpt lat="49.44363" lon="-1.20983">
        <ele>3.1</ele>
        <time>2022-06-02T09:42:52Z</time>
      </trkpt>
      <trkpt lat="49.44363" lon="-1.20983">
        <ele>3.1</ele>
        <time>2022-06-02T09:42:53Z</time>
      </trkpt>
      <trkpt lat="49.44363" lon="-1.20983">
        <ele>3.1</ele>
        <time>2022-06-02T09:42:54Z</time>
      </trkpt>
      <trkpt lat="49.44363" lon="-1.20983">
        <ele>3.1</ele>
        <time>2022-06-02T09:42:55Z</time>
      </trkpt>
      <trkpt lat="49.44363" lon="-1.20983">
        <ele>3.1</ele>
        <time>2022-06-02T09:42:56Z</time>
      </trkpt>
      <trkpt lat="49.44363" lon="-1.20983">
        <ele>3.1</ele>
        <time>2022-06-02T09:42:57Z</time>
      </trkpt>
      <trkpt lat="49.44363" lon="-1.20983">
        <ele>3.1</ele>
        <time>2022-06-02T09:42:58Z</time>
      </trkpt>
      <trkpt lat="49.44363" lon="-1.20983">
        <ele>3.1</ele>
        <time>2022-06-02T09:42:59Z</time>
      </trkpt>
      <trkpt lat="49.44363" lon="-1.20983">
        <ele>3.1</ele>
        <time>2022-06-02T09:43:00Z</time>
      </trkpt>
      <trkpt lat="49.44363" lon="-1.20983">
        <ele>3.1</ele>
        <time>2022-06-02T09:43:01Z</time>
      </trkpt>
      <trkpt lat="49.44363" lon="-1.20983">
        <ele>3.1</ele>
        <time>2022-06-02T09:43:02Z</time>
      </trkpt>
      <trkpt lat="49.44363" lon="-1.20983">
        <ele>3.1</ele>
        <time>2022-06-02T09:43:03Z</time>
      </trkpt>
      <trkpt lat="49.44363" lon="-1.20983">
        <ele>3.1</ele>
        <time>2022-06-02T09:43:04Z</time>
      </trkpt>
      <trkpt lat="49.44363" lon="-1.20983">
        <ele>3.1</ele>
        <time>2022-06-02T09:43:05Z</time>
      </trkpt>
      <trkpt lat="49.44363" lon="-1.20983">
        <ele>3.1</ele>
        <time>2022-06-02T09:43:06Z</time>
      </trkpt>
      <trkpt lat="49.44363" lon="-1.20983">
        <ele>3.1</ele>
        <time>2022-06-02T09:43:07Z</time>
      </trkpt>
      <trkpt lat="49.44363" lon="-1.20983">
        <ele>3.1</ele>
        <time>2022-06-02T09:43:08Z</time>
      </trkpt>
      <trkpt lat="49.44363" lon="-1.20983">
        <ele>3.1</ele>
        <time>2022-06-02T09:43:09Z</time>
      </trkpt>
      <trkpt lat="49.44363" lon="-1.20983">
        <ele>3.1</ele>
        <time>2022-06-02T09:43:10Z</time>
      </trkpt>
      <trkpt lat="49.44363" lon="-1.20983">
        <ele>3.1</ele>
        <time>2022-06-02T09:43:11Z</time>
      </trkpt>
      <trkpt lat="49.44363" lon="-1.20983">
        <ele>3.1</ele>
        <time>2022-06-02T09:43:12Z</time>
      </trkpt>
      <trkpt lat="49.44363" lon="-1.20983">
        <ele>3.1</ele>
        <time>2022-06-02T09:43:13Z</time>
      </trkpt>
      <trkpt lat="49.44363" lon="-1.20983">
        <ele>3.1</ele>
        <time>2022-06-02T09:43:14Z</time>
      </trkpt>
      <trkpt lat="49.44363" lon="-1.20983">
        <ele>3.1</ele>
        <time>2022-06-02T09:43:15Z</time>
      </trkpt>
      <trkpt lat="49.44363" lon="-1.20983">
        <ele>3.1</ele>
        <time>2022-06-02T09:43:16Z</time>
      </trkpt>
      <trkpt lat="49.44363" lon="-1.20983">
        <ele>3.1</ele>
        <time>2022-06-02T09:43:17Z</time>
      </trkpt>
      <trkpt lat="49.44363" lon="-1.20983">
        <ele>3.1</ele>
        <time>2022-06-02T09:43:18Z</time>
      </trkpt>
      <trkpt lat="49.44363" lon="-1.20983">
        <ele>3.1</ele>
        <time>2022-06-02T09:43:19Z</time>
      </trkpt>
      <trkpt lat="49.44363" lon="-1.20983">
        <ele>3.1</ele>
        <time>2022-06-02T09:43:20Z</time>
      </trkpt>
      <trkpt lat="49.44363" lon="-1.20983">
        <ele>3.1</ele>
        <time>2022-06-02T09:43:21Z</time>
      </trkpt>
      <trkpt lat="49.44363" lon="-1.20983">
        <ele>3.1</ele>
        <time>2022-06-02T09:43:22Z</time>
      </trkpt>
      <trkpt lat="49.44363" lon="-1.20983">
        <ele>3.1</ele>
        <time>2022-06-02T09:43:23Z</time>
      </trkpt>
      <trkpt lat="49.44363" lon="-1.20983">
        <ele>3.1</ele>
        <time>2022-06-02T09:43:24Z</time>
      </trkpt>
      <trkpt lat="49.44363" lon="-1.20983">
        <ele>3.1</ele>
        <time>2022-06-02T09:43:25Z</time>
      </trkpt>
      <trkpt lat="49.44363" lon="-1.20983">
        <ele>3.1</ele>
        <time>2022-06-02T09:43:26Z</time>
      </trkpt>
      <trkpt lat="49.44363" lon="-1.20983">
        <ele>3.1</ele>
        <time>2022-06-02T09:43:27Z</time>
      </trkpt>
      <trkpt lat="49.44363" lon="-1.20983">
        <ele>3.1</ele>
        <time>2022-06-02T09:43:28Z</time>
      </trkpt>
      <trkpt lat="49.44363" lon="-1.20983">
        <ele>3.1</ele>
        <time>2022-06-02T09:43:29Z</time>
      </trkpt>
      <trkpt lat="49.44363" lon="-1.20983">
        <ele>3.1</ele>
        <time>2022-06-02T09:43:30Z</time>
      </trkpt>
      <trkpt lat="49.44363" lon="-1.20983">
        <ele>3.1</ele>
        <time>2022-06-02T09:43:31Z</time>
      </trkpt>
      <trkpt lat="49.44363" lon="-1.20983">
        <ele>3.1</ele>
        <time>2022-06-02T09:43:32Z</time>
      </trkpt>
      <trkpt lat="49.44363" lon="-1.20983">
        <ele>3.1</ele>
        <time>2022-06-02T09:43:33Z</time>
      </trkpt>
      <trkpt lat="49.44363" lon="-1.20983">
        <ele>3.1</ele>
        <time>2022-06-02T09:43:34Z</time>
      </trkpt>
      <trkpt lat="49.44363" lon="-1.20983">
        <ele>3.1</ele>
        <time>2022-06-02T09:43:35Z</time>
      </trkpt>
      <trkpt lat="49.44363" lon="-1.20983">
        <ele>3.1</ele>
        <time>2022-06-02T09:43:36Z</time>
      </trkpt>
      <trkpt lat="49.44363" lon="-1.20983">
        <ele>3.1</ele>
        <time>2022-06-02T09:43:37Z</time>
      </trkpt>
      <trkpt lat="49.44363" lon="-1.20983">
        <ele>3.1</ele>
        <time>2022-06-02T09:43:38Z</time>
      </trkpt>
      <trkpt lat="49.44363" lon="-1.20983">
        <ele>3.1</ele>
        <time>2022-06-02T09:43:39Z</time>
      </trkpt>
      <trkpt lat="49.44363" lon="-1.20983">
        <ele>3.1</ele>
        <time>2022-06-02T09:43:40Z</time>
      </trkpt>
      <trkpt lat="49.44363" lon="-1.20983">
        <ele>3.1</ele>
        <time>2022-06-02T09:43:41Z</time>
      </trkpt>
      <trkpt lat="49.44363" lon="-1.20983">
        <ele>3.1</ele>
        <time>2022-06-02T09:43:42Z</time>
      </trkpt>
      <trkpt lat="49.44363" lon="-1.20983">
        <ele>3.1</ele>
        <time>2022-06-02T09:43:43Z</time>
      </trkpt>
      <trkpt lat="49.44363" lon="-1.20983">
        <ele>3.1</ele>
        <time>2022-06-02T09:43:44Z</time>
      </trkpt>
      <trkpt lat="49.44363" lon="-1.20983">
        <ele>3.1</ele>
        <time>2022-06-02T09:43:45Z</time>
      </trkpt>
      <trkpt lat="49.44363" lon="-1.20983">
        <ele>3.1</ele>
        <time>2022-06-02T09:43:46Z</time>
      </trkpt>
      <trkpt lat="49.44363" lon="-1.20983">
        <ele>3.1</ele>
        <time>2022-06-02T09:43:47Z</time>
      </trkpt>
      <trkpt lat="49.44363" lon="-1.20983">
        <ele>3.1</ele>
        <time>2022-06-02T09:43:48Z</time>
      </trkpt>
      <trkpt lat="49.44363" lon="-1.20983">
        <ele>3.1</ele>
        <time>2022-06-02T09:43:49Z</time>
      </trkpt>
      <trkpt lat="49.44363" lon="-1.20983">
        <ele>3.1</ele>
        <time>2022-06-02T09:43:50Z</time>
      </trkpt>
      <trkpt lat="49.44363" lon="-1.20983">
        <ele>3.1</ele>
        <time>2022-06-02T09:43:51Z</time>
      </trkpt>
      <trkpt lat="49.44363" lon="-1.20983">
        <ele>3.1</ele>
        <time>2022-06-02T09:43:52Z</time>
      </trkpt>
      <trkpt lat="49.44363" lon="-1.20983">
        <ele>3.1</ele>
        <time>2022-06-02T09:43:53Z</time>
      </trkpt>
      <trkpt lat="49.44363" lon="-1.20983">
        <ele>3.1</ele>
        <time>2022-06-02T09:43:54Z</time>
      </trkpt>
      <trkpt lat="49.44363" lon="-1.20983">
        <ele>3.1</ele>
        <time>2022-06-02T09:43:55Z</time>
      </trkpt>
      <trkpt lat="49.44363" lon="-1.20983">
        <ele>3.1</ele>
        <time>2022-06-02T09:43:56Z</time>
      </trkpt>
      <trkpt lat="49.44363" lon="-1.20983">
        <ele>3.1</ele>
        <time>2022-06-02T09:43:57Z</time>
      </trkpt>
      <trkpt lat="49.44363" lon="-1.20983">
        <ele>3.1</ele>
        <time>2022-06-02T09:43:58Z</time>
      </trkpt>
      <trkpt lat="49.44363" lon="-1.20983">
        <ele>3.1</ele>
        <time>2022-06-02T09:43:59Z</time>
      </trkpt>
      <trkpt lat="49.44363" lon="-1.20983">
        <ele>3.1</ele>
        <time>2022-06-02T09:44:00Z</time>
      </trkpt>
      <trkpt lat="49.44363" lon="-1.20983">
        <ele>3.1</ele>
        <time>2022-06-02T09:44:01Z</time>
      </trkpt>
      <trkpt lat="49.44363" lon="-1.20983">
        <ele>3.1</ele>
        <time>2022-06-02T09:44:02Z</time>
      </trkpt>
      <trkpt lat="49.44363" lon="-1.20983">
        <ele>3.1</ele>
        <time>2022-06-02T09:44:03Z</time>
      </trkpt>
      <trkpt lat="49.44363" lon="-1.20983">
        <ele>3.1</ele>
        <time>2022-06-02T09:44:04Z</time>
      </trkpt>
      <trkpt lat="49.44363" lon="-1.20983">
        <ele>3.1</ele>
        <time>2022-06-02T09:44:05Z</time>
      </trkpt>
      <trkpt lat="49.44363" lon="-1.20983">
        <ele>3.1</ele>
        <time>2022-06-02T09:44:06Z</time>
      </trkpt>
      <trkpt lat="49.44363" lon="-1.20983">
        <ele>3.1</ele>
        <time>2022-06-02T09:44:07Z</time>
      </trkpt>
      <trkpt lat="49.44363" lon="-1.20983">
        <ele>3.1</ele>
        <time>2022-06-02T09:44:08Z</time>
      </trkpt>
      <trkpt lat="49.44363" lon="-1.20983">
        <ele>3.1</ele>
        <time>2022-06-02T09:44:09Z</time>
      </trkpt>
      <trkpt lat="49.44363" lon="-1.20983">
        <ele>3.1</ele>
        <time>2022-06-02T09:44:10Z</time>
      </trkpt>
      <trkpt lat="49.44363" lon="-1.20983">
        <ele>3.1</ele>
        <time>2022-06-02T09:44:11Z</time>
      </trkpt>
      <trkpt lat="49.44363" lon="-1.20983">
        <ele>3.1</ele>
        <time>2022-06-02T09:44:12Z</time>
      </trkpt>
      <trkpt lat="49.44363" lon="-1.20983">
        <ele>3.1</ele>
        <time>2022-06-02T09:44:13Z</time>
      </trkpt>
      <trkpt lat="49.44363" lon="-1.20983">
        <ele>3.1</ele>
        <time>2022-06-02T09:44:14Z</time>
      </trkpt>
      <trkpt lat="49.44363" lon="-1.20983">
        <ele>3.1</ele>
        <time>2022-06-02T09:44:15Z</time>
      </trkpt>
      <trkpt lat="49.44363" lon="-1.20983">
        <ele>3.1</ele>
        <time>2022-06-02T09:44:16Z</time>
      </trkpt>
      <trkpt lat="49.44363" lon="-1.20983">
        <ele>3.1</ele>
        <time>2022-06-02T09:44:17Z</time>
      </trkpt>
      <trkpt lat="49.44363" lon="-1.20983">
        <ele>3.1</ele>
        <time>2022-06-02T09:44:18Z</time>
      </trkpt>
      <trkpt lat="49.44363" lon="-1.20983">
        <ele>3.1</ele>
        <time>2022-06-02T09:44:19Z</time>
      </trkpt>
      <trkpt lat="49.44363" lon="-1.20983">
        <ele>3.1</ele>
        <time>2022-06-02T09:44:20Z</time>
      </trkpt>
      <trkpt lat="49.44363" lon="-1.20983">
        <ele>3.1</ele>
        <time>2022-06-02T09:44:21Z</time>
      </trkpt>
      <trkpt lat="49.44363" lon="-1.20983">
        <ele>3.1</ele>
        <time>2022-06-02T09:44:22Z</time>
      </trkpt>
      <trkpt lat="49.44363" lon="-1.20983">
        <ele>3.1</ele>
        <time>2022-06-02T09:44:23Z</time>
      </trkpt>
      <trkpt lat="49.44363" lon="-1.20983">
        <ele>3.1</ele>
        <time>2022-06-02T09:44:24Z</time>
      </trkpt>
      <trkpt lat="49.44363" lon="-1.20983">
        <ele>3.1</ele>
        <time>2022-06-02T09:44:25Z</time>
      </trkpt>
      <trkpt lat="49.44363" lon="-1.20983">
        <ele>3.1</ele>
        <time>2022-06-02T09:44:26Z</time>
      </trkpt>
      <trkpt lat="49.44363" lon="-1.20983">
        <ele>3.1</ele>
        <time>2022-06-02T09:44:27Z</time>
      </trkpt>
      <trkpt lat="49.44363" lon="-1.20983">
        <ele>3.1</ele>
        <time>2022-06-02T09:44:28Z</time>
      </trkpt>
      <trkpt lat="49.44363" lon="-1.20983">
        <ele>3.1</ele>
        <time>2022-06-02T09:44:29Z</time>
      </trkpt>
      <trkpt lat="49.44363" lon="-1.20983">
        <ele>3.1</ele>
        <time>2022-06-02T09:44:30Z</time>
      </trkpt>
      <trkpt lat="49.44363" lon="-1.20983">
        <ele>3.1</ele>
        <time>2022-06-02T09:44:31Z</time>
      </trkpt>
      <trkpt lat="49.44363" lon="-1.20983">
        <ele>3.1</ele>
        <time>2022-06-02T09:44:32Z</time>
      </trkpt>
      <trkpt lat="49.44363" lon="-1.20983">
        <ele>3.1</ele>
        <time>2022-06-02T09:44:33Z</time>
      </trkpt>
      <trkpt lat="49.44363" lon="-1.20983">
        <ele>3.1</ele>
        <time>2022-06-02T09:44:34Z</time>
      </trkpt>
      <trkpt lat="49.44363" lon="-1.20983">
        <ele>3.1</ele>
        <time>2022-06-02T09:44:35Z</time>
      </trkpt>
      <trkpt lat="49.44363" lon="-1.20983">
        <ele>3.1</ele>
        <time>2022-06-02T09:44:36Z</time>
      </trkpt>
      <trkpt lat="49.44363" lon="-1.20983">
        <ele>3.1</ele>
        <time>2022-06-02T09:44:37Z</time>
      </trkpt>
      <trkpt lat="49.44363" lon="-1.20983">
        <ele>3.1</ele>
        <time>2022-06-02T09:44:38Z</time>
      </trkpt>
      <trkpt lat="49.44363" lon="-1.20983">
        <ele>3.1</ele>
        <time>2022-06-02T09:44:39Z</time>
      </trkpt>
      <trkpt lat="49.44363" lon="-1.20983">
        <ele>3.1</ele>
        <time>2022-06-02T09:44:40Z</time>
      </trkpt>
      <trkpt lat="49.44363" lon="-1.20982">
        <ele>3.1</ele>
        <time>2022-06-02T09:44:41Z</time>
      </trkpt>
      <trkpt lat="49.44364" lon="-1.20982">
        <ele>3.1</ele>
        <time>2022-06-02T09:44:42Z</time>
      </trkpt>
      <trkpt lat="49.44364" lon="-1.20983">
        <ele>3.1</ele>
        <time>2022-06-02T09:44:43Z</time>
      </trkpt>
      <trkpt lat="49.44364" lon="-1.20983">
        <ele>3.1</ele>
        <time>2022-06-02T09:44:44Z</time>
      </trkpt>
      <trkpt lat="49.44364" lon="-1.20983">
        <ele>3.1</ele>
        <time>2022-06-02T09:44:45Z</time>
      </trkpt>
      <trkpt lat="49.44364" lon="-1.20983">
        <ele>3.1</ele>
        <time>2022-06-02T09:44:46Z</time>
      </trkpt>
      <trkpt lat="49.44364" lon="-1.20983">
        <ele>3.1</ele>
        <time>2022-06-02T09:44:47Z</time>
      </trkpt>
      <trkpt lat="49.44364" lon="-1.20983">
        <ele>3.1</ele>
        <time>2022-06-02T09:44:48Z</time>
      </trkpt>
      <trkpt lat="49.44364" lon="-1.20983">
        <ele>3.1</ele>
        <time>2022-06-02T09:44:49Z</time>
      </trkpt>
      <trkpt lat="49.44364" lon="-1.20983">
        <ele>3.1</ele>
        <time>2022-06-02T09:44:50Z</time>
      </trkpt>
      <trkpt lat="49.44364" lon="-1.20983">
        <ele>3.1</ele>
        <time>2022-06-02T09:44:51Z</time>
      </trkpt>
      <trkpt lat="49.44364" lon="-1.20983">
        <ele>3.1</ele>
        <time>2022-06-02T09:44:52Z</time>
      </trkpt>
      <trkpt lat="49.44364" lon="-1.20983">
        <ele>3.1</ele>
        <time>2022-06-02T09:44:53Z</time>
      </trkpt>
      <trkpt lat="49.44364" lon="-1.20983">
        <ele>3.1</ele>
        <time>2022-06-02T09:44:54Z</time>
      </trkpt>
      <trkpt lat="49.44364" lon="-1.20983">
        <ele>3.1</ele>
        <time>2022-06-02T09:44:55Z</time>
      </trkpt>
      <trkpt lat="49.44364" lon="-1.20983">
        <ele>3.1</ele>
        <time>2022-06-02T09:44:56Z</time>
      </trkpt>
      <trkpt lat="49.44364" lon="-1.20983">
        <ele>3.1</ele>
        <time>2022-06-02T09:44:57Z</time>
      </trkpt>
      <trkpt lat="49.44364" lon="-1.20983">
        <ele>3.1</ele>
        <time>2022-06-02T09:44:58Z</time>
      </trkpt>
      <trkpt lat="49.44364" lon="-1.20983">
        <ele>3.1</ele>
        <time>2022-06-02T09:44:59Z</time>
      </trkpt>
      <trkpt lat="49.44364" lon="-1.20983">
        <ele>3.1</ele>
        <time>2022-06-02T09:45:00Z</time>
      </trkpt>
      <trkpt lat="49.44364" lon="-1.20983">
        <ele>3.1</ele>
        <time>2022-06-02T09:45:01Z</time>
      </trkpt>
      <trkpt lat="49.44364" lon="-1.20983">
        <ele>3.1</ele>
        <time>2022-06-02T09:45:02Z</time>
      </trkpt>
      <trkpt lat="49.44364" lon="-1.20983">
        <ele>3.1</ele>
        <time>2022-06-02T09:45:03Z</time>
      </trkpt>
      <trkpt lat="49.44364" lon="-1.20983">
        <ele>3.1</ele>
        <time>2022-06-02T09:45:04Z</time>
      </trkpt>
      <trkpt lat="49.44364" lon="-1.20983">
        <ele>3.1</ele>
        <time>2022-06-02T09:45:05Z</time>
      </trkpt>
      <trkpt lat="49.44364" lon="-1.20983">
        <ele>3.1</ele>
        <time>2022-06-02T09:45:06Z</time>
      </trkpt>
      <trkpt lat="49.44364" lon="-1.20983">
        <ele>3.1</ele>
        <time>2022-06-02T09:45:07Z</time>
      </trkpt>
      <trkpt lat="49.44364" lon="-1.20983">
        <ele>3.1</ele>
        <time>2022-06-02T09:45:08Z</time>
      </trkpt>
      <trkpt lat="49.44364" lon="-1.20983">
        <ele>3.1</ele>
        <time>2022-06-02T09:45:09Z</time>
      </trkpt>
      <trkpt lat="49.44364" lon="-1.20983">
        <ele>3.1</ele>
        <time>2022-06-02T09:45:10Z</time>
      </trkpt>
      <trkpt lat="49.44364" lon="-1.20983">
        <ele>3.1</ele>
        <time>2022-06-02T09:45:11Z</time>
      </trkpt>
      <trkpt lat="49.44364" lon="-1.20983">
        <ele>3.1</ele>
        <time>2022-06-02T09:45:12Z</time>
      </trkpt>
      <trkpt lat="49.44364" lon="-1.20983">
        <ele>3.1</ele>
        <time>2022-06-02T09:45:13Z</time>
      </trkpt>
      <trkpt lat="49.44364" lon="-1.20983">
        <ele>3.1</ele>
        <time>2022-06-02T09:45:14Z</time>
      </trkpt>
      <trkpt lat="49.44364" lon="-1.20983">
        <ele>3.1</ele>
        <time>2022-06-02T09:45:15Z</time>
      </trkpt>
      <trkpt lat="49.44364" lon="-1.20983">
        <ele>3.1</ele>
        <time>2022-06-02T09:45:16Z</time>
      </trkpt>
      <trkpt lat="49.44364" lon="-1.20983">
        <ele>3.1</ele>
        <time>2022-06-02T09:45:17Z</time>
      </trkpt>
      <trkpt lat="49.44364" lon="-1.20983">
        <ele>3.1</ele>
        <time>2022-06-02T09:45:18Z</time>
      </trkpt>
      <trkpt lat="49.44364" lon="-1.20983">
        <ele>3.1</ele>
        <time>2022-06-02T09:45:19Z</time>
      </trkpt>
      <trkpt lat="49.44364" lon="-1.20983">
        <ele>3.1</ele>
        <time>2022-06-02T09:45:20Z</time>
      </trkpt>
      <trkpt lat="49.44364" lon="-1.20983">
        <ele>3.1</ele>
        <time>2022-06-02T09:45:21Z</time>
      </trkpt>
      <trkpt lat="49.44364" lon="-1.20983">
        <ele>3.1</ele>
        <time>2022-06-02T09:45:22Z</time>
      </trkpt>
      <trkpt lat="49.44364" lon="-1.20983">
        <ele>3.1</ele>
        <time>2022-06-02T09:45:23Z</time>
      </trkpt>
      <trkpt lat="49.44364" lon="-1.20983">
        <ele>3.1</ele>
        <time>2022-06-02T09:45:24Z</time>
      </trkpt>
      <trkpt lat="49.44364" lon="-1.20983">
        <ele>3.1</ele>
        <time>2022-06-02T09:45:25Z</time>
      </trkpt>
      <trkpt lat="49.44364" lon="-1.20983">
        <ele>3.1</ele>
        <time>2022-06-02T09:45:26Z</time>
      </trkpt>
      <trkpt lat="49.44364" lon="-1.20983">
        <ele>3.1</ele>
        <time>2022-06-02T09:45:27Z</time>
      </trkpt>
      <trkpt lat="49.44364" lon="-1.20983">
        <ele>3.1</ele>
        <time>2022-06-02T09:45:28Z</time>
      </trkpt>
      <trkpt lat="49.44364" lon="-1.20983">
        <ele>3.1</ele>
        <time>2022-06-02T09:45:29Z</time>
      </trkpt>
      <trkpt lat="49.44364" lon="-1.20983">
        <ele>3.1</ele>
        <time>2022-06-02T09:45:30Z</time>
      </trkpt>
      <trkpt lat="49.44364" lon="-1.20983">
        <ele>3.1</ele>
        <time>2022-06-02T09:45:31Z</time>
      </trkpt>
      <trkpt lat="49.44364" lon="-1.20983">
        <ele>3.1</ele>
        <time>2022-06-02T09:45:32Z</time>
      </trkpt>
      <trkpt lat="49.44364" lon="-1.20983">
        <ele>3.1</ele>
        <time>2022-06-02T09:45:33Z</time>
      </trkpt>
      <trkpt lat="49.44364" lon="-1.20983">
        <ele>3.1</ele>
        <time>2022-06-02T09:45:34Z</time>
      </trkpt>
      <trkpt lat="49.44364" lon="-1.20983">
        <ele>3.1</ele>
        <time>2022-06-02T09:45:35Z</time>
      </trkpt>
      <trkpt lat="49.44364" lon="-1.20983">
        <ele>3.1</ele>
        <time>2022-06-02T09:45:36Z</time>
      </trkpt>
      <trkpt lat="49.44364" lon="-1.20983">
        <ele>3.1</ele>
        <time>2022-06-02T09:45:37Z</time>
      </trkpt>
      <trkpt lat="49.44364" lon="-1.20983">
        <ele>3.1</ele>
        <time>2022-06-02T09:45:38Z</time>
      </trkpt>
      <trkpt lat="49.44364" lon="-1.20983">
        <ele>3.1</ele>
        <time>2022-06-02T09:45:39Z</time>
      </trkpt>
      <trkpt lat="49.44364" lon="-1.20982">
        <ele>3.1</ele>
        <time>2022-06-02T09:45:40Z</time>
      </trkpt>
      <trkpt lat="49.44364" lon="-1.20981">
        <ele>3.1</ele>
        <time>2022-06-02T09:45:41Z</time>
      </trkpt>
      <trkpt lat="49.44365" lon="-1.2098">
        <ele>3.1</ele>
        <time>2022-06-02T09:45:42Z</time>
      </trkpt>
      <trkpt lat="49.44365" lon="-1.20979">
        <ele>3.2</ele>
        <time>2022-06-02T09:45:43Z</time>
      </trkpt>
      <trkpt lat="49.44366" lon="-1.20978">
        <ele>3.2</ele>
        <time>2022-06-02T09:45:44Z</time>
      </trkpt>
      <trkpt lat="49.44366" lon="-1.20977">
        <ele>3.2</ele>
        <time>2022-06-02T09:45:45Z</time>
      </trkpt>
      <trkpt lat="49.44367" lon="-1.20976">
        <ele>3.2</ele>
        <time>2022-06-02T09:45:46Z</time>
      </trkpt>
      <trkpt lat="49.44367" lon="-1.20976">
        <ele>3.2</ele>
        <time>2022-06-02T09:45:47Z</time>
      </trkpt>
      <trkpt lat="49.44367" lon="-1.20975">
        <ele>3.2</ele>
        <time>2022-06-02T09:45:49Z</time>
      </trkpt>
      <trkpt lat="49.44368" lon="-1.20974">
        <ele>3.2</ele>
        <time>2022-06-02T09:45:50Z</time>
      </trkpt>
      <trkpt lat="49.44368" lon="-1.20973">
        <ele>3.2</ele>
        <time>2022-06-02T09:45:51Z</time>
      </trkpt>
      <trkpt lat="49.44368" lon="-1.20973">
        <ele>3.2</ele>
        <time>2022-06-02T09:45:52Z</time>
      </trkpt>
      <trkpt lat="49.44369" lon="-1.20972">
        <ele>3.2</ele>
        <time>2022-06-02T09:45:53Z</time>
      </trkpt>
      <trkpt lat="49.44369" lon="-1.20972">
        <ele>3.2</ele>
        <time>2022-06-02T09:45:54Z</time>
      </trkpt>
      <trkpt lat="49.44368" lon="-1.20971">
        <ele>3.2</ele>
        <time>2022-06-02T09:45:55Z</time>
      </trkpt>
      <trkpt lat="49.44368" lon="-1.20972">
        <ele>3.2</ele>
        <time>2022-06-02T09:45:56Z</time>
      </trkpt>
      <trkpt lat="49.44368" lon="-1.20972">
        <ele>3.2</ele>
        <time>2022-06-02T09:45:57Z</time>
      </trkpt>
      <trkpt lat="49.44368" lon="-1.20972">
        <ele>3.2</ele>
        <time>2022-06-02T09:45:58Z</time>
      </trkpt>
      <trkpt lat="49.44368" lon="-1.20972">
        <ele>3.2</ele>
        <time>2022-06-02T09:45:59Z</time>
      </trkpt>
      <trkpt lat="49.44367" lon="-1.20972">
        <ele>3.2</ele>
        <time>2022-06-02T09:46:00Z</time>
      </trkpt>
      <trkpt lat="49.44367" lon="-1.20972">
        <ele>3.2</ele>
        <time>2022-06-02T09:46:01Z</time>
      </trkpt>
      <trkpt lat="49.44366" lon="-1.20973">
        <ele>3.2</ele>
        <time>2022-06-02T09:46:02Z</time>
      </trkpt>
      <trkpt lat="49.44366" lon="-1.20975">
        <ele>3.2</ele>
        <time>2022-06-02T09:46:03Z</time>
      </trkpt>
      <trkpt lat="49.44366" lon="-1.20976">
        <ele>3.2</ele>
        <time>2022-06-02T09:46:05Z</time>
      </trkpt>
      <trkpt lat="49.44366" lon="-1.20978">
        <ele>3.2</ele>
        <time>2022-06-02T09:46:06Z</time>
      </trkpt>
      <trkpt lat="49.44366" lon="-1.20979">
        <ele>3.2</ele>
        <time>2022-06-02T09:46:07Z</time>
      </trkpt>
      <trkpt lat="49.44366" lon="-1.2098">
        <ele>3.2</ele>
        <time>2022-06-02T09:46:08Z</time>
      </trkpt>
      <trkpt lat="49.44365" lon="-1.20981">
        <ele>3.2</ele>
        <time>2022-06-02T09:46:09Z</time>
      </trkpt>
      <trkpt lat="49.44365" lon="-1.20981">
        <ele>3.2</ele>
        <time>2022-06-02T09:46:10Z</time>
      </trkpt>
      <trkpt lat="49.44364" lon="-1.20981">
        <ele>3.2</ele>
        <time>2022-06-02T09:46:11Z</time>
      </trkpt>
      <trkpt lat="49.44364" lon="-1.20981">
        <ele>3.2</ele>
        <time>2022-06-02T09:46:12Z</time>
      </trkpt>
      <trkpt lat="49.44364" lon="-1.2098">
        <ele>3.2</ele>
        <time>2022-06-02T09:46:13Z</time>
      </trkpt>
      <trkpt lat="49.44363" lon="-1.20981">
        <ele>3.2</ele>
        <time>2022-06-02T09:46:14Z</time>
      </trkpt>
      <trkpt lat="49.44363" lon="-1.20981">
        <ele>3.2</ele>
        <time>2022-06-02T09:46:15Z</time>
      </trkpt>
      <trkpt lat="49.44363" lon="-1.20981">
        <ele>3.2</ele>
        <time>2022-06-02T09:46:16Z</time>
      </trkpt>
      <trkpt lat="49.44363" lon="-1.20981">
        <ele>3.2</ele>
        <time>2022-06-02T09:46:18Z</time>
      </trkpt>
      <trkpt lat="49.44363" lon="-1.20981">
        <ele>3.2</ele>
        <time>2022-06-02T09:46:19Z</time>
      </trkpt>
      <trkpt lat="49.44363" lon="-1.20981">
        <ele>3.2</ele>
        <time>2022-06-02T09:46:20Z</time>
      </trkpt>
      <trkpt lat="49.44363" lon="-1.20981">
        <ele>3.2</ele>
        <time>2022-06-02T09:46:22Z</time>
      </trkpt>
      <trkpt lat="49.44363" lon="-1.20982">
        <ele>3.2</ele>
        <time>2022-06-02T09:46:23Z</time>
      </trkpt>
      <trkpt lat="49.44364" lon="-1.20983">
        <ele>3.2</ele>
        <time>2022-06-02T09:46:24Z</time>
      </trkpt>
      <trkpt lat="49.44364" lon="-1.20983">
        <ele>3.2</ele>
        <time>2022-06-02T09:46:25Z</time>
      </trkpt>
      <trkpt lat="49.44364" lon="-1.20984">
        <ele>3.2</ele>
        <time>2022-06-02T09:46:26Z</time>
      </trkpt>
      <trkpt lat="49.44364" lon="-1.20985">
        <ele>3.2</ele>
        <time>2022-06-02T09:46:27Z</time>
      </trkpt>
      <trkpt lat="49.44365" lon="-1.20985">
        <ele>3.2</ele>
        <time>2022-06-02T09:46:28Z</time>
      </trkpt>
      <trkpt lat="49.44365" lon="-1.20985">
        <ele>3.2</ele>
        <time>2022-06-02T09:46:29Z</time>
      </trkpt>
      <trkpt lat="49.44365" lon="-1.20985">
        <ele>3.2</ele>
        <time>2022-06-02T09:46:30Z</time>
      </trkpt>
      <trkpt lat="49.44364" lon="-1.20985">
        <ele>3.2</ele>
        <time>2022-06-02T09:46:31Z</time>
      </trkpt>
      <trkpt lat="49.44365" lon="-1.20985">
        <ele>3.2</ele>
        <time>2022-06-02T09:46:32Z</time>
      </trkpt>
      <trkpt lat="49.44365" lon="-1.20985">
        <ele>3.2</ele>
        <time>2022-06-02T09:46:33Z</time>
      </trkpt>
      <trkpt lat="49.44365" lon="-1.20985">
        <ele>3.2</ele>
        <time>2022-06-02T09:46:34Z</time>
      </trkpt>
      <trkpt lat="49.44365" lon="-1.20985">
        <ele>3.2</ele>
        <time>2022-06-02T09:46:35Z</time>
      </trkpt>
      <trkpt lat="49.44365" lon="-1.20985">
        <ele>3.2</ele>
        <time>2022-06-02T09:46:36Z</time>
      </trkpt>
      <trkpt lat="49.44365" lon="-1.20984">
        <ele>3.2</ele>
        <time>2022-06-02T09:46:37Z</time>
      </trkpt>
      <trkpt lat="49.44365" lon="-1.20982">
        <ele>3.3</ele>
        <time>2022-06-02T09:46:38Z</time>
      </trkpt>
      <trkpt lat="49.44366" lon="-1.20982">
        <ele>3.3</ele>
        <time>2022-06-02T09:46:40Z</time>
      </trkpt>
      <trkpt lat="49.44366" lon="-1.20981">
        <ele>3.3</ele>
        <time>2022-06-02T09:46:41Z</time>
      </trkpt>
      <trkpt lat="49.44366" lon="-1.2098">
        <ele>3.3</ele>
        <time>2022-06-02T09:46:42Z</time>
      </trkpt>
      <trkpt lat="49.44367" lon="-1.20978">
        <ele>3.3</ele>
        <time>2022-06-02T09:46:43Z</time>
      </trkpt>
      <trkpt lat="49.44368" lon="-1.20977">
        <ele>3.3</ele>
        <time>2022-06-02T09:46:45Z</time>
      </trkpt>
      <trkpt lat="49.4437" lon="-1.20974">
        <ele>3.3</ele>
        <time>2022-06-02T09:46:46Z</time>
      </trkpt>
      <trkpt lat="49.44371" lon="-1.20974">
        <ele>3.3</ele>
        <time>2022-06-02T09:46:47Z</time>
      </trkpt>
      <trkpt lat="49.44372" lon="-1.20973">
        <ele>3.3</ele>
        <time>2022-06-02T09:46:48Z</time>
      </trkpt>
      <trkpt lat="49.44373" lon="-1.2097">
        <ele>3.3</ele>
        <time>2022-06-02T09:46:50Z</time>
      </trkpt>
      <trkpt lat="49.44374" lon="-1.20968">
        <ele>3.3</ele>
        <time>2022-06-02T09:46:51Z</time>
      </trkpt>
      <trkpt lat="49.44375" lon="-1.20967">
        <ele>3.3</ele>
        <time>2022-06-02T09:46:52Z</time>
      </trkpt>
      <trkpt lat="49.44375" lon="-1.20965">
        <ele>3.3</ele>
        <time>2022-06-02T09:46:53Z</time>
      </trkpt>
      <trkpt lat="49.44375" lon="-1.20963">
        <ele>3.3</ele>
        <time>2022-06-02T09:46:54Z</time>
      </trkpt>
      <trkpt lat="49.44375" lon="-1.20961">
        <ele>3.3</ele>
        <time>2022-06-02T09:46:55Z</time>
      </trkpt>
      <trkpt lat="49.44375" lon="-1.20958">
        <ele>3.3</ele>
        <time>2022-06-02T09:46:57Z</time>
      </trkpt>
      <trkpt lat="49.44374" lon="-1.20957">
        <ele>3.3</ele>
        <time>2022-06-02T09:46:58Z</time>
      </trkpt>
      <trkpt lat="49.44374" lon="-1.20956">
        <ele>3.3</ele>
        <time>2022-06-02T09:46:59Z</time>
      </trkpt>
      <trkpt lat="49.44374" lon="-1.20952">
        <ele>3.3</ele>
        <time>2022-06-02T09:47:00Z</time>
      </trkpt>
      <trkpt lat="49.44374" lon="-1.2095">
        <ele>3.2</ele>
        <time>2022-06-02T09:47:02Z</time>
      </trkpt>
      <trkpt lat="49.44374" lon="-1.20949">
        <ele>3.2</ele>
        <time>2022-06-02T09:47:03Z</time>
      </trkpt>
      <trkpt lat="49.44374" lon="-1.20947">
        <ele>3.2</ele>
        <time>2022-06-02T09:47:04Z</time>
      </trkpt>
      <trkpt lat="49.44375" lon="-1.20945">
        <ele>3.2</ele>
        <time>2022-06-02T09:47:05Z</time>
      </trkpt>
      <trkpt lat="49.44375" lon="-1.20943">
        <ele>3.2</ele>
        <time>2022-06-02T09:47:06Z</time>
      </trkpt>
      <trkpt lat="49.44376" lon="-1.20941">
        <ele>3.2</ele>
        <time>2022-06-02T09:47:07Z</time>
      </trkpt>
      <trkpt lat="49.44376" lon="-1.2094">
        <ele>3.1</ele>
        <time>2022-06-02T09:47:08Z</time>
      </trkpt>
      <trkpt lat="49.44377" lon="-1.20938">
        <ele>3.1</ele>
        <time>2022-06-02T09:47:10Z</time>
      </trkpt>
      <trkpt lat="49.44378" lon="-1.20937">
        <ele>3.1</ele>
        <time>2022-06-02T09:47:11Z</time>
      </trkpt>
      <trkpt lat="49.44379" lon="-1.20934">
        <ele>3.1</ele>
        <time>2022-06-02T09:47:12Z</time>
      </trkpt>
      <trkpt lat="49.4438" lon="-1.20933">
        <ele>3.1</ele>
        <time>2022-06-02T09:47:13Z</time>
      </trkpt>
      <trkpt lat="49.4438" lon="-1.20932">
        <ele>3.1</ele>
        <time>2022-06-02T09:47:14Z</time>
      </trkpt>
      <trkpt lat="49.44381" lon="-1.20929">
        <ele>3</ele>
        <time>2022-06-02T09:47:15Z</time>
      </trkpt>
      <trkpt lat="49.44382" lon="-1.20928">
        <ele>3</ele>
        <time>2022-06-02T09:47:16Z</time>
      </trkpt>
      <trkpt lat="49.44383" lon="-1.20927">
        <ele>3</ele>
        <time>2022-06-02T09:47:17Z</time>
      </trkpt>
      <trkpt lat="49.44383" lon="-1.20925">
        <ele>3</ele>
        <time>2022-06-02T09:47:19Z</time>
      </trkpt>
      <trkpt lat="49.44384" lon="-1.20923">
        <ele>3</ele>
        <time>2022-06-02T09:47:20Z</time>
      </trkpt>
      <trkpt lat="49.44385" lon="-1.20921">
        <ele>3</ele>
        <time>2022-06-02T09:47:21Z</time>
      </trkpt>
      <trkpt lat="49.44386" lon="-1.20919">
        <ele>3</ele>
        <time>2022-06-02T09:47:22Z</time>
      </trkpt>
      <trkpt lat="49.44387" lon="-1.20917">
        <ele>2.9</ele>
        <time>2022-06-02T09:47:23Z</time>
      </trkpt>
      <trkpt lat="49.44388" lon="-1.20916">
        <ele>2.9</ele>
        <time>2022-06-02T09:47:24Z</time>
      </trkpt>
      <trkpt lat="49.44388" lon="-1.20914">
        <ele>2.9</ele>
        <time>2022-06-02T09:47:25Z</time>
      </trkpt>
      <trkpt lat="49.44389" lon="-1.20913">
        <ele>2.9</ele>
        <time>2022-06-02T09:47:27Z</time>
      </trkpt>
      <trkpt lat="49.4439" lon="-1.20912">
        <ele>2.9</ele>
        <time>2022-06-02T09:47:28Z</time>
      </trkpt>
      <trkpt lat="49.44391" lon="-1.20909">
        <ele>2.9</ele>
        <time>2022-06-02T09:47:29Z</time>
      </trkpt>
      <trkpt lat="49.44392" lon="-1.20908">
        <ele>2.9</ele>
        <time>2022-06-02T09:47:30Z</time>
      </trkpt>
      <trkpt lat="49.44392" lon="-1.20907">
        <ele>2.9</ele>
        <time>2022-06-02T09:47:31Z</time>
      </trkpt>
      <trkpt lat="49.44393" lon="-1.20906">
        <ele>2.9</ele>
        <time>2022-06-02T09:47:32Z</time>
      </trkpt>
      <trkpt lat="49.44394" lon="-1.20905">
        <ele>2.9</ele>
        <time>2022-06-02T09:47:33Z</time>
      </trkpt>
      <trkpt lat="49.44394" lon="-1.20903">
        <ele>2.9</ele>
        <time>2022-06-02T09:47:35Z</time>
      </trkpt>
      <trkpt lat="49.44396" lon="-1.20902">
        <ele>2.9</ele>
        <time>2022-06-02T09:47:36Z</time>
      </trkpt>
      <trkpt lat="49.44396" lon="-1.20901">
        <ele>2.9</ele>
        <time>2022-06-02T09:47:37Z</time>
      </trkpt>
      <trkpt lat="49.44397" lon="-1.209">
        <ele>2.9</ele>
        <time>2022-06-02T09:47:38Z</time>
      </trkpt>
      <trkpt lat="49.44398" lon="-1.20899">
        <ele>2.9</ele>
        <time>2022-06-02T09:47:39Z</time>
      </trkpt>
      <trkpt lat="49.44399" lon="-1.20897">
        <ele>2.9</ele>
        <time>2022-06-02T09:47:40Z</time>
      </trkpt>
      <trkpt lat="49.444" lon="-1.20896">
        <ele>2.9</ele>
        <time>2022-06-02T09:47:42Z</time>
      </trkpt>
      <trkpt lat="49.444" lon="-1.20895">
        <ele>2.9</ele>
        <time>2022-06-02T09:47:43Z</time>
      </trkpt>
      <trkpt lat="49.44401" lon="-1.20894">
        <ele>2.9</ele>
        <time>2022-06-02T09:47:44Z</time>
      </trkpt>
      <trkpt lat="49.44402" lon="-1.20894">
        <ele>2.9</ele>
        <time>2022-06-02T09:47:45Z</time>
      </trkpt>
      <trkpt lat="49.44402" lon="-1.20895">
        <ele>2.9</ele>
        <time>2022-06-02T09:47:46Z</time>
      </trkpt>
      <trkpt lat="49.44402" lon="-1.20896">
        <ele>2.9</ele>
        <time>2022-06-02T09:47:47Z</time>
      </trkpt>
      <trkpt lat="49.44402" lon="-1.20898">
        <ele>2.9</ele>
        <time>2022-06-02T09:47:49Z</time>
      </trkpt>
      <trkpt lat="49.44402" lon="-1.20899">
        <ele>2.9</ele>
        <time>2022-06-02T09:47:50Z</time>
      </trkpt>
      <trkpt lat="49.44402" lon="-1.209">
        <ele>2.9</ele>
        <time>2022-06-02T09:47:51Z</time>
      </trkpt>
      <trkpt lat="49.44402" lon="-1.209">
        <ele>2.9</ele>
        <time>2022-06-02T09:47:52Z</time>
      </trkpt>
      <trkpt lat="49.44402" lon="-1.20901">
        <ele>2.9</ele>
        <time>2022-06-02T09:47:54Z</time>
      </trkpt>
      <trkpt lat="49.44402" lon="-1.20901">
        <ele>2.9</ele>
        <time>2022-06-02T09:47:55Z</time>
      </trkpt>
      <trkpt lat="49.44402" lon="-1.20901">
        <ele>2.9</ele>
        <time>2022-06-02T09:47:57Z</time>
      </trkpt>
      <trkpt lat="49.44402" lon="-1.209">
        <ele>2.9</ele>
        <time>2022-06-02T09:47:59Z</time>
      </trkpt>
      <trkpt lat="49.44401" lon="-1.209">
        <ele>2.9</ele>
        <time>2022-06-02T09:48:00Z</time>
      </trkpt>
      <trkpt lat="49.44401" lon="-1.209">
        <ele>2.9</ele>
        <time>2022-06-02T09:48:01Z</time>
      </trkpt>
      <trkpt lat="49.44401" lon="-1.209">
        <ele>2.9</ele>
        <time>2022-06-02T09:48:02Z</time>
      </trkpt>
      <trkpt lat="49.44401" lon="-1.20901">
        <ele>2.9</ele>
        <time>2022-06-02T09:48:03Z</time>
      </trkpt>
      <trkpt lat="49.44401" lon="-1.20901">
        <ele>2.9</ele>
        <time>2022-06-02T09:48:04Z</time>
      </trkpt>
      <trkpt lat="49.44401" lon="-1.20901">
        <ele>2.9</ele>
        <time>2022-06-02T09:48:05Z</time>
      </trkpt>
      <trkpt lat="49.44401" lon="-1.20901">
        <ele>2.9</ele>
        <time>2022-06-02T09:48:06Z</time>
      </trkpt>
      <trkpt lat="49.44401" lon="-1.20901">
        <ele>2.9</ele>
        <time>2022-06-02T09:48:07Z</time>
      </trkpt>
      <trkpt lat="49.44401" lon="-1.20901">
        <ele>2.9</ele>
        <time>2022-06-02T09:48:08Z</time>
      </trkpt>
      <trkpt lat="49.44401" lon="-1.20901">
        <ele>2.9</ele>
        <time>2022-06-02T09:48:09Z</time>
      </trkpt>
      <trkpt lat="49.444" lon="-1.209">
        <ele>2.9</ele>
        <time>2022-06-02T09:48:10Z</time>
      </trkpt>
      <trkpt lat="49.444" lon="-1.209">
        <ele>2.9</ele>
        <time>2022-06-02T09:48:11Z</time>
      </trkpt>
      <trkpt lat="49.444" lon="-1.209">
        <ele>2.9</ele>
        <time>2022-06-02T09:48:12Z</time>
      </trkpt>
      <trkpt lat="49.444" lon="-1.209">
        <ele>2.9</ele>
        <time>2022-06-02T09:48:13Z</time>
      </trkpt>
      <trkpt lat="49.444" lon="-1.209">
        <ele>2.9</ele>
        <time>2022-06-02T09:48:14Z</time>
      </trkpt>
      <trkpt lat="49.444" lon="-1.209">
        <ele>2.9</ele>
        <time>2022-06-02T09:48:15Z</time>
      </trkpt>
      <trkpt lat="49.444" lon="-1.209">
        <ele>2.9</ele>
        <time>2022-06-02T09:48:16Z</time>
      </trkpt>
      <trkpt lat="49.444" lon="-1.209">
        <ele>2.9</ele>
        <time>2022-06-02T09:48:17Z</time>
      </trkpt>
      <trkpt lat="49.444" lon="-1.209">
        <ele>2.9</ele>
        <time>2022-06-02T09:48:18Z</time>
      </trkpt>
      <trkpt lat="49.444" lon="-1.209">
        <ele>2.9</ele>
        <time>2022-06-02T09:48:19Z</time>
      </trkpt>
      <trkpt lat="49.444" lon="-1.209">
        <ele>2.9</ele>
        <time>2022-06-02T09:48:20Z</time>
      </trkpt>
      <trkpt lat="49.444" lon="-1.209">
        <ele>2.9</ele>
        <time>2022-06-02T09:48:21Z</time>
      </trkpt>
      <trkpt lat="49.444" lon="-1.209">
        <ele>2.9</ele>
        <time>2022-06-02T09:48:22Z</time>
      </trkpt>
      <trkpt lat="49.444" lon="-1.209">
        <ele>2.9</ele>
        <time>2022-06-02T09:48:23Z</time>
      </trkpt>
      <trkpt lat="49.444" lon="-1.209">
        <ele>2.9</ele>
        <time>2022-06-02T09:48:24Z</time>
      </trkpt>
      <trkpt lat="49.444" lon="-1.209">
        <ele>2.9</ele>
        <time>2022-06-02T09:48:25Z</time>
      </trkpt>
      <trkpt lat="49.444" lon="-1.209">
        <ele>2.9</ele>
        <time>2022-06-02T09:48:26Z</time>
      </trkpt>
      <trkpt lat="49.444" lon="-1.209">
        <ele>2.9</ele>
        <time>2022-06-02T09:48:27Z</time>
      </trkpt>
      <trkpt lat="49.444" lon="-1.209">
        <ele>2.9</ele>
        <time>2022-06-02T09:48:28Z</time>
      </trkpt>
      <trkpt lat="49.444" lon="-1.209">
        <ele>2.9</ele>
        <time>2022-06-02T09:48:29Z</time>
      </trkpt>
      <trkpt lat="49.444" lon="-1.209">
        <ele>2.9</ele>
        <time>2022-06-02T09:48:30Z</time>
      </trkpt>
      <trkpt lat="49.444" lon="-1.209">
        <ele>2.9</ele>
        <time>2022-06-02T09:48:31Z</time>
      </trkpt>
      <trkpt lat="49.444" lon="-1.209">
        <ele>2.9</ele>
        <time>2022-06-02T09:48:32Z</time>
      </trkpt>
      <trkpt lat="49.444" lon="-1.209">
        <ele>2.9</ele>
        <time>2022-06-02T09:48:33Z</time>
      </trkpt>
      <trkpt lat="49.444" lon="-1.209">
        <ele>2.9</ele>
        <time>2022-06-02T09:48:34Z</time>
      </trkpt>
      <trkpt lat="49.444" lon="-1.209">
        <ele>2.9</ele>
        <time>2022-06-02T09:48:35Z</time>
      </trkpt>
      <trkpt lat="49.444" lon="-1.209">
        <ele>2.9</ele>
        <time>2022-06-02T09:48:36Z</time>
      </trkpt>
      <trkpt lat="49.444" lon="-1.209">
        <ele>2.9</ele>
        <time>2022-06-02T09:48:37Z</time>
      </trkpt>
      <trkpt lat="49.444" lon="-1.209">
        <ele>2.9</ele>
        <time>2022-06-02T09:48:38Z</time>
      </trkpt>
      <trkpt lat="49.444" lon="-1.209">
        <ele>2.9</ele>
        <time>2022-06-02T09:48:39Z</time>
      </trkpt>
      <trkpt lat="49.444" lon="-1.209">
        <ele>2.9</ele>
        <time>2022-06-02T09:48:40Z</time>
      </trkpt>
      <trkpt lat="49.444" lon="-1.209">
        <ele>2.9</ele>
        <time>2022-06-02T09:48:41Z</time>
      </trkpt>
      <trkpt lat="49.444" lon="-1.209">
        <ele>2.9</ele>
        <time>2022-06-02T09:48:42Z</time>
      </trkpt>
      <trkpt lat="49.444" lon="-1.209">
        <ele>2.9</ele>
        <time>2022-06-02T09:48:43Z</time>
      </trkpt>
      <trkpt lat="49.444" lon="-1.209">
        <ele>2.9</ele>
        <time>2022-06-02T09:48:44Z</time>
      </trkpt>
      <trkpt lat="49.444" lon="-1.209">
        <ele>2.9</ele>
        <time>2022-06-02T09:48:46Z</time>
      </trkpt>
      <trkpt lat="49.444" lon="-1.209">
        <ele>2.9</ele>
        <time>2022-06-02T09:48:47Z</time>
      </trkpt>
      <trkpt lat="49.444" lon="-1.209">
        <ele>2.9</ele>
        <time>2022-06-02T09:48:48Z</time>
      </trkpt>
      <trkpt lat="49.444" lon="-1.209">
        <ele>2.9</ele>
        <time>2022-06-02T09:48:49Z</time>
      </trkpt>
      <trkpt lat="49.444" lon="-1.209">
        <ele>2.9</ele>
        <time>2022-06-02T09:48:50Z</time>
      </trkpt>
      <trkpt lat="49.444" lon="-1.209">
        <ele>2.9</ele>
        <time>2022-06-02T09:48:51Z</time>
      </trkpt>
      <trkpt lat="49.444" lon="-1.209">
        <ele>2.9</ele>
        <time>2022-06-02T09:48:52Z</time>
      </trkpt>
      <trkpt lat="49.444" lon="-1.209">
        <ele>2.9</ele>
        <time>2022-06-02T09:48:53Z</time>
      </trkpt>
      <trkpt lat="49.444" lon="-1.209">
        <ele>2.9</ele>
        <time>2022-06-02T09:48:54Z</time>
      </trkpt>
      <trkpt lat="49.444" lon="-1.209">
        <ele>2.9</ele>
        <time>2022-06-02T09:48:55Z</time>
      </trkpt>
      <trkpt lat="49.444" lon="-1.209">
        <ele>2.9</ele>
        <time>2022-06-02T09:48:56Z</time>
      </trkpt>
      <trkpt lat="49.444" lon="-1.209">
        <ele>2.9</ele>
        <time>2022-06-02T09:48:57Z</time>
      </trkpt>
      <trkpt lat="49.444" lon="-1.209">
        <ele>2.9</ele>
        <time>2022-06-02T09:48:58Z</time>
      </trkpt>
      <trkpt lat="49.444" lon="-1.209">
        <ele>2.9</ele>
        <time>2022-06-02T09:48:59Z</time>
      </trkpt>
      <trkpt lat="49.444" lon="-1.209">
        <ele>2.9</ele>
        <time>2022-06-02T09:49:00Z</time>
      </trkpt>
      <trkpt lat="49.444" lon="-1.209">
        <ele>2.9</ele>
        <time>2022-06-02T09:49:01Z</time>
      </trkpt>
      <trkpt lat="49.444" lon="-1.209">
        <ele>2.9</ele>
        <time>2022-06-02T09:49:02Z</time>
      </trkpt>
      <trkpt lat="49.444" lon="-1.209">
        <ele>2.9</ele>
        <time>2022-06-02T09:49:03Z</time>
      </trkpt>
      <trkpt lat="49.444" lon="-1.209">
        <ele>2.9</ele>
        <time>2022-06-02T09:49:04Z</time>
      </trkpt>
      <trkpt lat="49.444" lon="-1.209">
        <ele>2.9</ele>
        <time>2022-06-02T09:49:05Z</time>
      </trkpt>
      <trkpt lat="49.444" lon="-1.209">
        <ele>2.9</ele>
        <time>2022-06-02T09:49:06Z</time>
      </trkpt>
      <trkpt lat="49.444" lon="-1.209">
        <ele>2.9</ele>
        <time>2022-06-02T09:49:07Z</time>
      </trkpt>
      <trkpt lat="49.444" lon="-1.209">
        <ele>2.9</ele>
        <time>2022-06-02T09:49:08Z</time>
      </trkpt>
      <trkpt lat="49.444" lon="-1.209">
        <ele>2.9</ele>
        <time>2022-06-02T09:49:09Z</time>
      </trkpt>
      <trkpt lat="49.444" lon="-1.209">
        <ele>2.9</ele>
        <time>2022-06-02T09:49:10Z</time>
      </trkpt>
      <trkpt lat="49.444" lon="-1.209">
        <ele>2.9</ele>
        <time>2022-06-02T09:49:11Z</time>
      </trkpt>
      <trkpt lat="49.444" lon="-1.209">
        <ele>2.9</ele>
        <time>2022-06-02T09:49:12Z</time>
      </trkpt>
      <trkpt lat="49.444" lon="-1.209">
        <ele>2.9</ele>
        <time>2022-06-02T09:49:13Z</time>
      </trkpt>
      <trkpt lat="49.444" lon="-1.209">
        <ele>2.9</ele>
        <time>2022-06-02T09:49:14Z</time>
      </trkpt>
      <trkpt lat="49.444" lon="-1.209">
        <ele>2.9</ele>
        <time>2022-06-02T09:49:15Z</time>
      </trkpt>
      <trkpt lat="49.444" lon="-1.209">
        <ele>2.9</ele>
        <time>2022-06-02T09:49:16Z</time>
      </trkpt>
      <trkpt lat="49.444" lon="-1.209">
        <ele>2.9</ele>
        <time>2022-06-02T09:49:17Z</time>
      </trkpt>
      <trkpt lat="49.444" lon="-1.209">
        <ele>2.9</ele>
        <time>2022-06-02T09:49:18Z</time>
      </trkpt>
      <trkpt lat="49.444" lon="-1.209">
        <ele>2.9</ele>
        <time>2022-06-02T09:49:19Z</time>
      </trkpt>
      <trkpt lat="49.444" lon="-1.209">
        <ele>2.9</ele>
        <time>2022-06-02T09:49:20Z</time>
      </trkpt>
      <trkpt lat="49.444" lon="-1.209">
        <ele>2.9</ele>
        <time>2022-06-02T09:49:21Z</time>
      </trkpt>
      <trkpt lat="49.444" lon="-1.209">
        <ele>2.9</ele>
        <time>2022-06-02T09:49:22Z</time>
      </trkpt>
      <trkpt lat="49.444" lon="-1.209">
        <ele>2.9</ele>
        <time>2022-06-02T09:49:23Z</time>
      </trkpt>
      <trkpt lat="49.444" lon="-1.209">
        <ele>2.9</ele>
        <time>2022-06-02T09:49:24Z</time>
      </trkpt>
      <trkpt lat="49.444" lon="-1.209">
        <ele>2.9</ele>
        <time>2022-06-02T09:49:25Z</time>
      </trkpt>
      <trkpt lat="49.444" lon="-1.209">
        <ele>2.9</ele>
        <time>2022-06-02T09:49:26Z</time>
      </trkpt>
      <trkpt lat="49.444" lon="-1.209">
        <ele>2.9</ele>
        <time>2022-06-02T09:49:27Z</time>
      </trkpt>
      <trkpt lat="49.444" lon="-1.209">
        <ele>2.9</ele>
        <time>2022-06-02T09:49:28Z</time>
      </trkpt>
      <trkpt lat="49.444" lon="-1.209">
        <ele>2.9</ele>
        <time>2022-06-02T09:49:29Z</time>
      </trkpt>
      <trkpt lat="49.444" lon="-1.209">
        <ele>2.9</ele>
        <time>2022-06-02T09:49:30Z</time>
      </trkpt>
      <trkpt lat="49.444" lon="-1.209">
        <ele>2.9</ele>
        <time>2022-06-02T09:49:31Z</time>
      </trkpt>
      <trkpt lat="49.444" lon="-1.209">
        <ele>2.9</ele>
        <time>2022-06-02T09:49:32Z</time>
      </trkpt>
      <trkpt lat="49.444" lon="-1.209">
        <ele>2.9</ele>
        <time>2022-06-02T09:49:33Z</time>
      </trkpt>
      <trkpt lat="49.444" lon="-1.209">
        <ele>2.9</ele>
        <time>2022-06-02T09:49:34Z</time>
      </trkpt>
      <trkpt lat="49.444" lon="-1.209">
        <ele>2.9</ele>
        <time>2022-06-02T09:49:35Z</time>
      </trkpt>
      <trkpt lat="49.444" lon="-1.209">
        <ele>2.9</ele>
        <time>2022-06-02T09:49:36Z</time>
      </trkpt>
      <trkpt lat="49.444" lon="-1.209">
        <ele>2.9</ele>
        <time>2022-06-02T09:49:37Z</time>
      </trkpt>
      <trkpt lat="49.444" lon="-1.209">
        <ele>2.9</ele>
        <time>2022-06-02T09:49:38Z</time>
      </trkpt>
      <trkpt lat="49.444" lon="-1.209">
        <ele>2.9</ele>
        <time>2022-06-02T09:49:39Z</time>
      </trkpt>
      <trkpt lat="49.444" lon="-1.209">
        <ele>2.9</ele>
        <time>2022-06-02T09:49:40Z</time>
      </trkpt>
      <trkpt lat="49.444" lon="-1.209">
        <ele>2.9</ele>
        <time>2022-06-02T09:49:41Z</time>
      </trkpt>
      <trkpt lat="49.444" lon="-1.209">
        <ele>2.9</ele>
        <time>2022-06-02T09:49:42Z</time>
      </trkpt>
      <trkpt lat="49.444" lon="-1.209">
        <ele>2.9</ele>
        <time>2022-06-02T09:49:43Z</time>
      </trkpt>
      <trkpt lat="49.444" lon="-1.209">
        <ele>2.9</ele>
        <time>2022-06-02T09:49:44Z</time>
      </trkpt>
      <trkpt lat="49.444" lon="-1.209">
        <ele>2.9</ele>
        <time>2022-06-02T09:49:45Z</time>
      </trkpt>
      <trkpt lat="49.444" lon="-1.209">
        <ele>2.9</ele>
        <time>2022-06-02T09:49:46Z</time>
      </trkpt>
      <trkpt lat="49.44399" lon="-1.20899">
        <ele>2.9</ele>
        <time>2022-06-02T09:49:47Z</time>
      </trkpt>
      <trkpt lat="49.44399" lon="-1.20898">
        <ele>2.9</ele>
        <time>2022-06-02T09:49:48Z</time>
      </trkpt>
      <trkpt lat="49.44399" lon="-1.20898">
        <ele>2.9</ele>
        <time>2022-06-02T09:49:49Z</time>
      </trkpt>
      <trkpt lat="49.444" lon="-1.20897">
        <ele>2.9</ele>
        <time>2022-06-02T09:49:50Z</time>
      </trkpt>
      <trkpt lat="49.444" lon="-1.20897">
        <ele>2.9</ele>
        <time>2022-06-02T09:49:51Z</time>
      </trkpt>
      <trkpt lat="49.444" lon="-1.20897">
        <ele>2.9</ele>
        <time>2022-06-02T09:49:52Z</time>
      </trkpt>
      <trkpt lat="49.444" lon="-1.20897">
        <ele>2.9</ele>
        <time>2022-06-02T09:49:53Z</time>
      </trkpt>
      <trkpt lat="49.444" lon="-1.20897">
        <ele>2.9</ele>
        <time>2022-06-02T09:49:54Z</time>
      </trkpt>
      <trkpt lat="49.444" lon="-1.20897">
        <ele>2.9</ele>
        <time>2022-06-02T09:49:55Z</time>
      </trkpt>
      <trkpt lat="49.444" lon="-1.20897">
        <ele>2.9</ele>
        <time>2022-06-02T09:49:56Z</time>
      </trkpt>
      <trkpt lat="49.444" lon="-1.20897">
        <ele>2.9</ele>
        <time>2022-06-02T09:49:57Z</time>
      </trkpt>
      <trkpt lat="49.444" lon="-1.20897">
        <ele>2.9</ele>
        <time>2022-06-02T09:49:58Z</time>
      </trkpt>
      <trkpt lat="49.444" lon="-1.20897">
        <ele>2.9</ele>
        <time>2022-06-02T09:49:59Z</time>
      </trkpt>
      <trkpt lat="49.444" lon="-1.20896">
        <ele>2.9</ele>
        <time>2022-06-02T09:50:00Z</time>
      </trkpt>
      <trkpt lat="49.444" lon="-1.20896">
        <ele>2.9</ele>
        <time>2022-06-02T09:50:01Z</time>
      </trkpt>
      <trkpt lat="49.444" lon="-1.20896">
        <ele>2.9</ele>
        <time>2022-06-02T09:50:02Z</time>
      </trkpt>
      <trkpt lat="49.444" lon="-1.20896">
        <ele>2.9</ele>
        <time>2022-06-02T09:50:03Z</time>
      </trkpt>
      <trkpt lat="49.444" lon="-1.20896">
        <ele>2.9</ele>
        <time>2022-06-02T09:50:04Z</time>
      </trkpt>
      <trkpt lat="49.444" lon="-1.20896">
        <ele>2.9</ele>
        <time>2022-06-02T09:50:05Z</time>
      </trkpt>
      <trkpt lat="49.444" lon="-1.20896">
        <ele>2.9</ele>
        <time>2022-06-02T09:50:06Z</time>
      </trkpt>
      <trkpt lat="49.444" lon="-1.20896">
        <ele>2.9</ele>
        <time>2022-06-02T09:50:07Z</time>
      </trkpt>
      <trkpt lat="49.444" lon="-1.20896">
        <ele>2.9</ele>
        <time>2022-06-02T09:50:08Z</time>
      </trkpt>
      <trkpt lat="49.444" lon="-1.20896">
        <ele>2.9</ele>
        <time>2022-06-02T09:50:09Z</time>
      </trkpt>
      <trkpt lat="49.444" lon="-1.20896">
        <ele>2.9</ele>
        <time>2022-06-02T09:50:10Z</time>
      </trkpt>
      <trkpt lat="49.444" lon="-1.20896">
        <ele>2.9</ele>
        <time>2022-06-02T09:50:11Z</time>
      </trkpt>
      <trkpt lat="49.444" lon="-1.20896">
        <ele>2.9</ele>
        <time>2022-06-02T09:50:12Z</time>
      </trkpt>
      <trkpt lat="49.444" lon="-1.20896">
        <ele>2.9</ele>
        <time>2022-06-02T09:50:13Z</time>
      </trkpt>
      <trkpt lat="49.444" lon="-1.20896">
        <ele>2.9</ele>
        <time>2022-06-02T09:50:14Z</time>
      </trkpt>
      <trkpt lat="49.444" lon="-1.20896">
        <ele>2.9</ele>
        <time>2022-06-02T09:50:15Z</time>
      </trkpt>
      <trkpt lat="49.444" lon="-1.20896">
        <ele>2.9</ele>
        <time>2022-06-02T09:50:16Z</time>
      </trkpt>
      <trkpt lat="49.444" lon="-1.20896">
        <ele>2.9</ele>
        <time>2022-06-02T09:50:17Z</time>
      </trkpt>
      <trkpt lat="49.444" lon="-1.20896">
        <ele>2.9</ele>
        <time>2022-06-02T09:50:18Z</time>
      </trkpt>
      <trkpt lat="49.444" lon="-1.20896">
        <ele>2.9</ele>
        <time>2022-06-02T09:50:19Z</time>
      </trkpt>
      <trkpt lat="49.444" lon="-1.20896">
        <ele>2.9</ele>
        <time>2022-06-02T09:50:20Z</time>
      </trkpt>
      <trkpt lat="49.444" lon="-1.20896">
        <ele>2.9</ele>
        <time>2022-06-02T09:50:21Z</time>
      </trkpt>
      <trkpt lat="49.444" lon="-1.20896">
        <ele>2.9</ele>
        <time>2022-06-02T09:50:22Z</time>
      </trkpt>
      <trkpt lat="49.444" lon="-1.20896">
        <ele>2.9</ele>
        <time>2022-06-02T09:50:23Z</time>
      </trkpt>
      <trkpt lat="49.444" lon="-1.20896">
        <ele>2.9</ele>
        <time>2022-06-02T09:50:24Z</time>
      </trkpt>
      <trkpt lat="49.444" lon="-1.20896">
        <ele>2.9</ele>
        <time>2022-06-02T09:50:25Z</time>
      </trkpt>
      <trkpt lat="49.444" lon="-1.20896">
        <ele>2.9</ele>
        <time>2022-06-02T09:50:26Z</time>
      </trkpt>
      <trkpt lat="49.444" lon="-1.20896">
        <ele>2.9</ele>
        <time>2022-06-02T09:50:27Z</time>
      </trkpt>
      <trkpt lat="49.444" lon="-1.20896">
        <ele>2.9</ele>
        <time>2022-06-02T09:50:28Z</time>
      </trkpt>
      <trkpt lat="49.444" lon="-1.20896">
        <ele>2.9</ele>
        <time>2022-06-02T09:50:29Z</time>
      </trkpt>
      <trkpt lat="49.444" lon="-1.20896">
        <ele>2.9</ele>
        <time>2022-06-02T09:50:30Z</time>
      </trkpt>
      <trkpt lat="49.444" lon="-1.20896">
        <ele>2.9</ele>
        <time>2022-06-02T09:50:31Z</time>
      </trkpt>
      <trkpt lat="49.444" lon="-1.20896">
        <ele>2.9</ele>
        <time>2022-06-02T09:50:32Z</time>
      </trkpt>
      <trkpt lat="49.444" lon="-1.20896">
        <ele>2.9</ele>
        <time>2022-06-02T09:50:33Z</time>
      </trkpt>
      <trkpt lat="49.444" lon="-1.20896">
        <ele>2.9</ele>
        <time>2022-06-02T09:50:34Z</time>
      </trkpt>
      <trkpt lat="49.444" lon="-1.20896">
        <ele>2.9</ele>
        <time>2022-06-02T09:50:35Z</time>
      </trkpt>
      <trkpt lat="49.444" lon="-1.20896">
        <ele>2.9</ele>
        <time>2022-06-02T09:50:36Z</time>
      </trkpt>
      <trkpt lat="49.444" lon="-1.20896">
        <ele>2.9</ele>
        <time>2022-06-02T09:50:37Z</time>
      </trkpt>
      <trkpt lat="49.44401" lon="-1.20896">
        <ele>2.9</ele>
        <time>2022-06-02T09:50:38Z</time>
      </trkpt>
      <trkpt lat="49.44402" lon="-1.20895">
        <ele>2.9</ele>
        <time>2022-06-02T09:50:39Z</time>
      </trkpt>
      <trkpt lat="49.44402" lon="-1.20893">
        <ele>2.9</ele>
        <time>2022-06-02T09:50:41Z</time>
      </trkpt>
      <trkpt lat="49.44402" lon="-1.20892">
        <ele>2.9</ele>
        <time>2022-06-02T09:50:42Z</time>
      </trkpt>
      <trkpt lat="49.44402" lon="-1.20891">
        <ele>2.9</ele>
        <time>2022-06-02T09:50:43Z</time>
      </trkpt>
      <trkpt lat="49.44402" lon="-1.2089">
        <ele>2.9</ele>
        <time>2022-06-02T09:50:45Z</time>
      </trkpt>
      <trkpt lat="49.44402" lon="-1.20889">
        <ele>2.9</ele>
        <time>2022-06-02T09:50:46Z</time>
      </trkpt>
      <trkpt lat="49.44402" lon="-1.20887">
        <ele>2.9</ele>
        <time>2022-06-02T09:50:47Z</time>
      </trkpt>
      <trkpt lat="49.44402" lon="-1.20886">
        <ele>2.9</ele>
        <time>2022-06-02T09:50:49Z</time>
      </trkpt>
      <trkpt lat="49.44402" lon="-1.20885">
        <ele>2.9</ele>
        <time>2022-06-02T09:50:50Z</time>
      </trkpt>
      <trkpt lat="49.44402" lon="-1.20884">
        <ele>2.9</ele>
        <time>2022-06-02T09:50:51Z</time>
      </trkpt>
      <trkpt lat="49.44402" lon="-1.20883">
        <ele>2.9</ele>
        <time>2022-06-02T09:50:53Z</time>
      </trkpt>
      <trkpt lat="49.44402" lon="-1.20882">
        <ele>2.9</ele>
        <time>2022-06-02T09:50:54Z</time>
      </trkpt>
      <trkpt lat="49.44402" lon="-1.20881">
        <ele>2.9</ele>
        <time>2022-06-02T09:50:55Z</time>
      </trkpt>
      <trkpt lat="49.44401" lon="-1.2088">
        <ele>2.9</ele>
        <time>2022-06-02T09:50:56Z</time>
      </trkpt>
      <trkpt lat="49.44402" lon="-1.20879">
        <ele>2.9</ele>
        <time>2022-06-02T09:50:57Z</time>
      </trkpt>
      <trkpt lat="49.44402" lon="-1.20877">
        <ele>2.9</ele>
        <time>2022-06-02T09:50:59Z</time>
      </trkpt>
      <trkpt lat="49.44402" lon="-1.20876">
        <ele>2.9</ele>
        <time>2022-06-02T09:51:00Z</time>
      </trkpt>
      <trkpt lat="49.44402" lon="-1.20875">
        <ele>2.9</ele>
        <time>2022-06-02T09:51:01Z</time>
      </trkpt>
      <trkpt lat="49.44402" lon="-1.20874">
        <ele>2.9</ele>
        <time>2022-06-02T09:51:02Z</time>
      </trkpt>
      <trkpt lat="49.44403" lon="-1.20872">
        <ele>2.9</ele>
        <time>2022-06-02T09:51:03Z</time>
      </trkpt>
      <trkpt lat="49.44403" lon="-1.20871">
        <ele>2.9</ele>
        <time>2022-06-02T09:51:04Z</time>
      </trkpt>
      <trkpt lat="49.44403" lon="-1.2087">
        <ele>2.9</ele>
        <time>2022-06-02T09:51:06Z</time>
      </trkpt>
      <trkpt lat="49.44404" lon="-1.20868">
        <ele>2.9</ele>
        <time>2022-06-02T09:51:07Z</time>
      </trkpt>
      <trkpt lat="49.44405" lon="-1.20865">
        <ele>3.1</ele>
        <time>2022-06-02T09:51:08Z</time>
      </trkpt>
      <trkpt lat="49.44405" lon="-1.20863">
        <ele>3.2</ele>
        <time>2022-06-02T09:51:10Z</time>
      </trkpt>
      <trkpt lat="49.44406" lon="-1.20862">
        <ele>3.2</ele>
        <time>2022-06-02T09:51:11Z</time>
      </trkpt>
      <trkpt lat="49.44406" lon="-1.20861">
        <ele>3.3</ele>
        <time>2022-06-02T09:51:12Z</time>
      </trkpt>
      <trkpt lat="49.44407" lon="-1.2086">
        <ele>3.4</ele>
        <time>2022-06-02T09:51:13Z</time>
      </trkpt>
      <trkpt lat="49.44408" lon="-1.20859">
        <ele>3.5</ele>
        <time>2022-06-02T09:51:15Z</time>
      </trkpt>
      <trkpt lat="49.44409" lon="-1.20859">
        <ele>3.6</ele>
        <time>2022-06-02T09:51:16Z</time>
      </trkpt>
      <trkpt lat="49.4441" lon="-1.20857">
        <ele>3.6</ele>
        <time>2022-06-02T09:51:17Z</time>
      </trkpt>
      <trkpt lat="49.44411" lon="-1.20857">
        <ele>3.7</ele>
        <time>2022-06-02T09:51:19Z</time>
      </trkpt>
      <trkpt lat="49.44411" lon="-1.20856">
        <ele>3.7</ele>
        <time>2022-06-02T09:51:20Z</time>
      </trkpt>
      <trkpt lat="49.44412" lon="-1.20856">
        <ele>3.8</ele>
        <time>2022-06-02T09:51:21Z</time>
      </trkpt>
      <trkpt lat="49.44411" lon="-1.20857">
        <ele>3.9</ele>
        <time>2022-06-02T09:51:22Z</time>
      </trkpt>
      <trkpt lat="49.44411" lon="-1.20856">
        <ele>3.9</ele>
        <time>2022-06-02T09:51:23Z</time>
      </trkpt>
      <trkpt lat="49.44412" lon="-1.20856">
        <ele>4</ele>
        <time>2022-06-02T09:51:25Z</time>
      </trkpt>
      <trkpt lat="49.44412" lon="-1.20855">
        <ele>4</ele>
        <time>2022-06-02T09:51:26Z</time>
      </trkpt>
      <trkpt lat="49.44413" lon="-1.20855">
        <ele>4.1</ele>
        <time>2022-06-02T09:51:27Z</time>
      </trkpt>
      <trkpt lat="49.44414" lon="-1.20854">
        <ele>4.1</ele>
        <time>2022-06-02T09:51:28Z</time>
      </trkpt>
      <trkpt lat="49.44414" lon="-1.20853">
        <ele>4.2</ele>
        <time>2022-06-02T09:51:29Z</time>
      </trkpt>
      <trkpt lat="49.44415" lon="-1.20853">
        <ele>4.2</ele>
        <time>2022-06-02T09:51:30Z</time>
      </trkpt>
      <trkpt lat="49.44416" lon="-1.20852">
        <ele>4.3</ele>
        <time>2022-06-02T09:51:32Z</time>
      </trkpt>
      <trkpt lat="49.44416" lon="-1.2085">
        <ele>4.4</ele>
        <time>2022-06-02T09:51:33Z</time>
      </trkpt>
      <trkpt lat="49.44417" lon="-1.20849">
        <ele>4.4</ele>
        <time>2022-06-02T09:51:34Z</time>
      </trkpt>
      <trkpt lat="49.44417" lon="-1.20849">
        <ele>4.5</ele>
        <time>2022-06-02T09:51:35Z</time>
      </trkpt>
      <trkpt lat="49.44418" lon="-1.20847">
        <ele>4.5</ele>
        <time>2022-06-02T09:51:36Z</time>
      </trkpt>
      <trkpt lat="49.44419" lon="-1.20846">
        <ele>4.5</ele>
        <time>2022-06-02T09:51:37Z</time>
      </trkpt>
      <trkpt lat="49.4442" lon="-1.20843">
        <ele>4.5</ele>
        <time>2022-06-02T09:51:38Z</time>
      </trkpt>
      <trkpt lat="49.44421" lon="-1.20842">
        <ele>4.4</ele>
        <time>2022-06-02T09:51:40Z</time>
      </trkpt>
      <trkpt lat="49.44421" lon="-1.20841">
        <ele>4.4</ele>
        <time>2022-06-02T09:51:41Z</time>
      </trkpt>
      <trkpt lat="49.44422" lon="-1.20839">
        <ele>4.4</ele>
        <time>2022-06-02T09:51:42Z</time>
      </trkpt>
      <trkpt lat="49.44423" lon="-1.20837">
        <ele>4.4</ele>
        <time>2022-06-02T09:51:43Z</time>
      </trkpt>
      <trkpt lat="49.44424" lon="-1.20836">
        <ele>4.4</ele>
        <time>2022-06-02T09:51:45Z</time>
      </trkpt>
      <trkpt lat="49.44424" lon="-1.20834">
        <ele>4.4</ele>
        <time>2022-06-02T09:51:46Z</time>
      </trkpt>
      <trkpt lat="49.44425" lon="-1.20833">
        <ele>4.3</ele>
        <time>2022-06-02T09:51:47Z</time>
      </trkpt>
      <trkpt lat="49.44425" lon="-1.20831">
        <ele>4.3</ele>
        <time>2022-06-02T09:51:48Z</time>
      </trkpt>
      <trkpt lat="49.44426" lon="-1.2083">
        <ele>4.3</ele>
        <time>2022-06-02T09:51:49Z</time>
      </trkpt>
      <trkpt lat="49.44426" lon="-1.20829">
        <ele>4.3</ele>
        <time>2022-06-02T09:51:50Z</time>
      </trkpt>
      <trkpt lat="49.44426" lon="-1.20828">
        <ele>4.3</ele>
        <time>2022-06-02T09:51:51Z</time>
      </trkpt>
      <trkpt lat="49.44426" lon="-1.20826">
        <ele>4.3</ele>
        <time>2022-06-02T09:51:52Z</time>
      </trkpt>
      <trkpt lat="49.44426" lon="-1.20824">
        <ele>4.3</ele>
        <time>2022-06-02T09:51:53Z</time>
      </trkpt>
      <trkpt lat="49.44426" lon="-1.20823">
        <ele>4.2</ele>
        <time>2022-06-02T09:51:54Z</time>
      </trkpt>
      <trkpt lat="49.44425" lon="-1.20821">
        <ele>4.2</ele>
        <time>2022-06-02T09:51:55Z</time>
      </trkpt>
      <trkpt lat="49.44424" lon="-1.20819">
        <ele>4.2</ele>
        <time>2022-06-02T09:51:57Z</time>
      </trkpt>
      <trkpt lat="49.44423" lon="-1.20818">
        <ele>4.2</ele>
        <time>2022-06-02T09:51:58Z</time>
      </trkpt>
      <trkpt lat="49.44422" lon="-1.20818">
        <ele>4.2</ele>
        <time>2022-06-02T09:51:59Z</time>
      </trkpt>
      <trkpt lat="49.44421" lon="-1.20819">
        <ele>4.2</ele>
        <time>2022-06-02T09:52:00Z</time>
      </trkpt>
      <trkpt lat="49.44421" lon="-1.20819">
        <ele>4.1</ele>
        <time>2022-06-02T09:52:01Z</time>
      </trkpt>
      <trkpt lat="49.44421" lon="-1.2082">
        <ele>4.1</ele>
        <time>2022-06-02T09:52:02Z</time>
      </trkpt>
      <trkpt lat="49.4442" lon="-1.20821">
        <ele>4.1</ele>
        <time>2022-06-02T09:52:04Z</time>
      </trkpt>
      <trkpt lat="49.4442" lon="-1.20821">
        <ele>4.1</ele>
        <time>2022-06-02T09:52:05Z</time>
      </trkpt>
      <trkpt lat="49.4442" lon="-1.20821">
        <ele>4.1</ele>
        <time>2022-06-02T09:52:06Z</time>
      </trkpt>
      <trkpt lat="49.4442" lon="-1.20822">
        <ele>4.1</ele>
        <time>2022-06-02T09:52:07Z</time>
      </trkpt>
      <trkpt lat="49.4442" lon="-1.20822">
        <ele>4.1</ele>
        <time>2022-06-02T09:52:08Z</time>
      </trkpt>
      <trkpt lat="49.4442" lon="-1.20822">
        <ele>4.1</ele>
        <time>2022-06-02T09:52:09Z</time>
      </trkpt>
      <trkpt lat="49.4442" lon="-1.20822">
        <ele>4.1</ele>
        <time>2022-06-02T09:52:10Z</time>
      </trkpt>
      <trkpt lat="49.4442" lon="-1.20823">
        <ele>4.1</ele>
        <time>2022-06-02T09:52:11Z</time>
      </trkpt>
      <trkpt lat="49.4442" lon="-1.20823">
        <ele>4.1</ele>
        <time>2022-06-02T09:52:12Z</time>
      </trkpt>
      <trkpt lat="49.4442" lon="-1.20823">
        <ele>4.1</ele>
        <time>2022-06-02T09:52:14Z</time>
      </trkpt>
      <trkpt lat="49.4442" lon="-1.20823">
        <ele>4.1</ele>
        <time>2022-06-02T09:52:15Z</time>
      </trkpt>
      <trkpt lat="49.4442" lon="-1.20822">
        <ele>4.1</ele>
        <time>2022-06-02T09:52:17Z</time>
      </trkpt>
      <trkpt lat="49.4442" lon="-1.20822">
        <ele>4.1</ele>
        <time>2022-06-02T09:52:18Z</time>
      </trkpt>
      <trkpt lat="49.44421" lon="-1.20822">
        <ele>4.1</ele>
        <time>2022-06-02T09:52:19Z</time>
      </trkpt>
      <trkpt lat="49.44422" lon="-1.20822">
        <ele>4.1</ele>
        <time>2022-06-02T09:52:20Z</time>
      </trkpt>
      <trkpt lat="49.44422" lon="-1.20822">
        <ele>4.1</ele>
        <time>2022-06-02T09:52:21Z</time>
      </trkpt>
      <trkpt lat="49.44422" lon="-1.20822">
        <ele>4.1</ele>
        <time>2022-06-02T09:52:22Z</time>
      </trkpt>
      <trkpt lat="49.44423" lon="-1.20822">
        <ele>4.1</ele>
        <time>2022-06-02T09:52:23Z</time>
      </trkpt>
      <trkpt lat="49.44423" lon="-1.20822">
        <ele>4.1</ele>
        <time>2022-06-02T09:52:24Z</time>
      </trkpt>
      <trkpt lat="49.44423" lon="-1.20822">
        <ele>4.1</ele>
        <time>2022-06-02T09:52:25Z</time>
      </trkpt>
      <trkpt lat="49.44423" lon="-1.20822">
        <ele>4.1</ele>
        <time>2022-06-02T09:52:26Z</time>
      </trkpt>
      <trkpt lat="49.44423" lon="-1.20822">
        <ele>4.1</ele>
        <time>2022-06-02T09:52:27Z</time>
      </trkpt>
      <trkpt lat="49.44423" lon="-1.20822">
        <ele>4.1</ele>
        <time>2022-06-02T09:52:28Z</time>
      </trkpt>
      <trkpt lat="49.44423" lon="-1.20822">
        <ele>4.1</ele>
        <time>2022-06-02T09:52:29Z</time>
      </trkpt>
      <trkpt lat="49.44423" lon="-1.20822">
        <ele>4</ele>
        <time>2022-06-02T09:52:30Z</time>
      </trkpt>
      <trkpt lat="49.44423" lon="-1.20822">
        <ele>4</ele>
        <time>2022-06-02T09:52:31Z</time>
      </trkpt>
      <trkpt lat="49.44423" lon="-1.20822">
        <ele>4</ele>
        <time>2022-06-02T09:52:32Z</time>
      </trkpt>
      <trkpt lat="49.44423" lon="-1.20822">
        <ele>4</ele>
        <time>2022-06-02T09:52:33Z</time>
      </trkpt>
      <trkpt lat="49.44423" lon="-1.20822">
        <ele>4</ele>
        <time>2022-06-02T09:52:34Z</time>
      </trkpt>
      <trkpt lat="49.44423" lon="-1.20822">
        <ele>4</ele>
        <time>2022-06-02T09:52:35Z</time>
      </trkpt>
      <trkpt lat="49.44423" lon="-1.20822">
        <ele>4</ele>
        <time>2022-06-02T09:52:36Z</time>
      </trkpt>
      <trkpt lat="49.44423" lon="-1.20822">
        <ele>4</ele>
        <time>2022-06-02T09:52:37Z</time>
      </trkpt>
      <trkpt lat="49.44423" lon="-1.20822">
        <ele>4</ele>
        <time>2022-06-02T09:52:38Z</time>
      </trkpt>
      <trkpt lat="49.44423" lon="-1.20822">
        <ele>4</ele>
        <time>2022-06-02T09:52:39Z</time>
      </trkpt>
      <trkpt lat="49.44423" lon="-1.20822">
        <ele>4</ele>
        <time>2022-06-02T09:52:40Z</time>
      </trkpt>
      <trkpt lat="49.44423" lon="-1.20821">
        <ele>4</ele>
        <time>2022-06-02T09:52:41Z</time>
      </trkpt>
      <trkpt lat="49.44423" lon="-1.2082">
        <ele>4</ele>
        <time>2022-06-02T09:52:42Z</time>
      </trkpt>
      <trkpt lat="49.44424" lon="-1.2082">
        <ele>4</ele>
        <time>2022-06-02T09:52:44Z</time>
      </trkpt>
      <trkpt lat="49.44424" lon="-1.2082">
        <ele>4</ele>
        <time>2022-06-02T09:52:45Z</time>
      </trkpt>
      <trkpt lat="49.44424" lon="-1.2082">
        <ele>4</ele>
        <time>2022-06-02T09:52:46Z</time>
      </trkpt>
      <trkpt lat="49.44424" lon="-1.2082">
        <ele>4</ele>
        <time>2022-06-02T09:52:47Z</time>
      </trkpt>
      <trkpt lat="49.44424" lon="-1.20819">
        <ele>4</ele>
        <time>2022-06-02T09:52:49Z</time>
      </trkpt>
      <trkpt lat="49.44424" lon="-1.20819">
        <ele>4</ele>
        <time>2022-06-02T09:52:50Z</time>
      </trkpt>
      <trkpt lat="49.44424" lon="-1.20818">
        <ele>4</ele>
        <time>2022-06-02T09:52:51Z</time>
      </trkpt>
      <trkpt lat="49.44423" lon="-1.20815">
        <ele>4</ele>
        <time>2022-06-02T09:52:52Z</time>
      </trkpt>
      <trkpt lat="49.44423" lon="-1.20814">
        <ele>3.9</ele>
        <time>2022-06-02T09:52:53Z</time>
      </trkpt>
      <trkpt lat="49.44422" lon="-1.20812">
        <ele>3.9</ele>
        <time>2022-06-02T09:52:55Z</time>
      </trkpt>
      <trkpt lat="49.44422" lon="-1.20811">
        <ele>3.9</ele>
        <time>2022-06-02T09:52:56Z</time>
      </trkpt>
      <trkpt lat="49.44421" lon="-1.20809">
        <ele>3.9</ele>
        <time>2022-06-02T09:52:57Z</time>
      </trkpt>
      <trkpt lat="49.44421" lon="-1.20808">
        <ele>3.9</ele>
        <time>2022-06-02T09:52:58Z</time>
      </trkpt>
      <trkpt lat="49.4442" lon="-1.20807">
        <ele>3.9</ele>
        <time>2022-06-02T09:52:59Z</time>
      </trkpt>
      <trkpt lat="49.44419" lon="-1.20806">
        <ele>3.9</ele>
        <time>2022-06-02T09:53:00Z</time>
      </trkpt>
      <trkpt lat="49.44418" lon="-1.20804">
        <ele>3.8</ele>
        <time>2022-06-02T09:53:01Z</time>
      </trkpt>
      <trkpt lat="49.44418" lon="-1.20803">
        <ele>3.8</ele>
        <time>2022-06-02T09:53:03Z</time>
      </trkpt>
      <trkpt lat="49.44417" lon="-1.20802">
        <ele>3.8</ele>
        <time>2022-06-02T09:53:04Z</time>
      </trkpt>
      <trkpt lat="49.44416" lon="-1.20802">
        <ele>3.8</ele>
        <time>2022-06-02T09:53:05Z</time>
      </trkpt>
      <trkpt lat="49.44415" lon="-1.20801">
        <ele>3.8</ele>
        <time>2022-06-02T09:53:06Z</time>
      </trkpt>
      <trkpt lat="49.44415" lon="-1.208">
        <ele>3.8</ele>
        <time>2022-06-02T09:53:07Z</time>
      </trkpt>
      <trkpt lat="49.44414" lon="-1.20799">
        <ele>3.8</ele>
        <time>2022-06-02T09:53:08Z</time>
      </trkpt>
      <trkpt lat="49.44413" lon="-1.20798">
        <ele>3.8</ele>
        <time>2022-06-02T09:53:09Z</time>
      </trkpt>
      <trkpt lat="49.44412" lon="-1.20797">
        <ele>3.7</ele>
        <time>2022-06-02T09:53:11Z</time>
      </trkpt>
      <trkpt lat="49.44411" lon="-1.20796">
        <ele>3.7</ele>
        <time>2022-06-02T09:53:12Z</time>
      </trkpt>
      <trkpt lat="49.44409" lon="-1.20795">
        <ele>3.7</ele>
        <time>2022-06-02T09:53:13Z</time>
      </trkpt>
      <trkpt lat="49.44408" lon="-1.20794">
        <ele>3.7</ele>
        <time>2022-06-02T09:53:14Z</time>
      </trkpt>
      <trkpt lat="49.44407" lon="-1.20793">
        <ele>3.7</ele>
        <time>2022-06-02T09:53:15Z</time>
      </trkpt>
      <trkpt lat="49.44406" lon="-1.20791">
        <ele>3.7</ele>
        <time>2022-06-02T09:53:16Z</time>
      </trkpt>
      <trkpt lat="49.44405" lon="-1.2079">
        <ele>3.6</ele>
        <time>2022-06-02T09:53:18Z</time>
      </trkpt>
      <trkpt lat="49.44404" lon="-1.20788">
        <ele>3.6</ele>
        <time>2022-06-02T09:53:19Z</time>
      </trkpt>
      <trkpt lat="49.44403" lon="-1.20786">
        <ele>3.6</ele>
        <time>2022-06-02T09:53:20Z</time>
      </trkpt>
      <trkpt lat="49.44401" lon="-1.20784">
        <ele>3.6</ele>
        <time>2022-06-02T09:53:21Z</time>
      </trkpt>
      <trkpt lat="49.44401" lon="-1.20783">
        <ele>3.6</ele>
        <time>2022-06-02T09:53:22Z</time>
      </trkpt>
      <trkpt lat="49.444" lon="-1.20781">
        <ele>3.6</ele>
        <time>2022-06-02T09:53:23Z</time>
      </trkpt>
      <trkpt lat="49.44399" lon="-1.20779">
        <ele>3.6</ele>
        <time>2022-06-02T09:53:24Z</time>
      </trkpt>
      <trkpt lat="49.44398" lon="-1.20778">
        <ele>3.5</ele>
        <time>2022-06-02T09:53:26Z</time>
      </trkpt>
      <trkpt lat="49.44398" lon="-1.20777">
        <ele>3.5</ele>
        <time>2022-06-02T09:53:27Z</time>
      </trkpt>
      <trkpt lat="49.44397" lon="-1.20776">
        <ele>3.5</ele>
        <time>2022-06-02T09:53:28Z</time>
      </trkpt>
      <trkpt lat="49.44396" lon="-1.20775">
        <ele>3.5</ele>
        <time>2022-06-02T09:53:29Z</time>
      </trkpt>
      <trkpt lat="49.44395" lon="-1.20773">
        <ele>3.5</ele>
        <time>2022-06-02T09:53:30Z</time>
      </trkpt>
      <trkpt lat="49.44394" lon="-1.20772">
        <ele>3.5</ele>
        <time>2022-06-02T09:53:31Z</time>
      </trkpt>
      <trkpt lat="49.44393" lon="-1.20771">
        <ele>3.5</ele>
        <time>2022-06-02T09:53:33Z</time>
      </trkpt>
      <trkpt lat="49.44393" lon="-1.2077">
        <ele>3.5</ele>
        <time>2022-06-02T09:53:34Z</time>
      </trkpt>
      <trkpt lat="49.44392" lon="-1.20768">
        <ele>3.4</ele>
        <time>2022-06-02T09:53:35Z</time>
      </trkpt>
      <trkpt lat="49.44392" lon="-1.20767">
        <ele>3.4</ele>
        <time>2022-06-02T09:53:36Z</time>
      </trkpt>
      <trkpt lat="49.44391" lon="-1.20766">
        <ele>3.4</ele>
        <time>2022-06-02T09:53:37Z</time>
      </trkpt>
      <trkpt lat="49.44391" lon="-1.20764">
        <ele>3.4</ele>
        <time>2022-06-02T09:53:38Z</time>
      </trkpt>
      <trkpt lat="49.4439" lon="-1.20762">
        <ele>3.4</ele>
        <time>2022-06-02T09:53:40Z</time>
      </trkpt>
      <trkpt lat="49.4439" lon="-1.20761">
        <ele>3.4</ele>
        <time>2022-06-02T09:53:41Z</time>
      </trkpt>
      <trkpt lat="49.44389" lon="-1.20761">
        <ele>3.4</ele>
        <time>2022-06-02T09:53:42Z</time>
      </trkpt>
      <trkpt lat="49.44388" lon="-1.2076">
        <ele>3.4</ele>
        <time>2022-06-02T09:53:43Z</time>
      </trkpt>
      <trkpt lat="49.44387" lon="-1.20759">
        <ele>3.4</ele>
        <time>2022-06-02T09:53:44Z</time>
      </trkpt>
      <trkpt lat="49.44386" lon="-1.20759">
        <ele>3.4</ele>
        <time>2022-06-02T09:53:46Z</time>
      </trkpt>
      <trkpt lat="49.44386" lon="-1.20758">
        <ele>3.4</ele>
        <time>2022-06-02T09:53:47Z</time>
      </trkpt>
      <trkpt lat="49.44385" lon="-1.20757">
        <ele>3.4</ele>
        <time>2022-06-02T09:53:48Z</time>
      </trkpt>
      <trkpt lat="49.44385" lon="-1.20756">
        <ele>3.4</ele>
        <time>2022-06-02T09:53:49Z</time>
      </trkpt>
      <trkpt lat="49.44384" lon="-1.20754">
        <ele>3.4</ele>
        <time>2022-06-02T09:53:50Z</time>
      </trkpt>
      <trkpt lat="49.44383" lon="-1.20753">
        <ele>3.4</ele>
        <time>2022-06-02T09:53:51Z</time>
      </trkpt>
      <trkpt lat="49.44383" lon="-1.20752">
        <ele>3.4</ele>
        <time>2022-06-02T09:53:53Z</time>
      </trkpt>
      <trkpt lat="49.44382" lon="-1.20751">
        <ele>3.4</ele>
        <time>2022-06-02T09:53:54Z</time>
      </trkpt>
      <trkpt lat="49.44381" lon="-1.2075">
        <ele>3.4</ele>
        <time>2022-06-02T09:53:55Z</time>
      </trkpt>
      <trkpt lat="49.4438" lon="-1.20749">
        <ele>3.3</ele>
        <time>2022-06-02T09:53:56Z</time>
      </trkpt>
      <trkpt lat="49.44379" lon="-1.20748">
        <ele>3.3</ele>
        <time>2022-06-02T09:53:57Z</time>
      </trkpt>
      <trkpt lat="49.44378" lon="-1.20747">
        <ele>3.3</ele>
        <time>2022-06-02T09:53:58Z</time>
      </trkpt>
      <trkpt lat="49.44377" lon="-1.20746">
        <ele>3.3</ele>
        <time>2022-06-02T09:54:00Z</time>
      </trkpt>
      <trkpt lat="49.44376" lon="-1.20745">
        <ele>3.3</ele>
        <time>2022-06-02T09:54:01Z</time>
      </trkpt>
      <trkpt lat="49.44375" lon="-1.20744">
        <ele>3.3</ele>
        <time>2022-06-02T09:54:02Z</time>
      </trkpt>
      <trkpt lat="49.44374" lon="-1.20743">
        <ele>3.3</ele>
        <time>2022-06-02T09:54:03Z</time>
      </trkpt>
      <trkpt lat="49.44373" lon="-1.2074">
        <ele>3.3</ele>
        <time>2022-06-02T09:54:05Z</time>
      </trkpt>
      <trkpt lat="49.44372" lon="-1.20739">
        <ele>3.3</ele>
        <time>2022-06-02T09:54:06Z</time>
      </trkpt>
      <trkpt lat="49.44372" lon="-1.20739">
        <ele>3.3</ele>
        <time>2022-06-02T09:54:07Z</time>
      </trkpt>
      <trkpt lat="49.44371" lon="-1.20738">
        <ele>3.3</ele>
        <time>2022-06-02T09:54:08Z</time>
      </trkpt>
      <trkpt lat="49.4437" lon="-1.20737">
        <ele>3.3</ele>
        <time>2022-06-02T09:54:10Z</time>
      </trkpt>
      <trkpt lat="49.44369" lon="-1.20736">
        <ele>3.3</ele>
        <time>2022-06-02T09:54:11Z</time>
      </trkpt>
      <trkpt lat="49.44368" lon="-1.20735">
        <ele>3.3</ele>
        <time>2022-06-02T09:54:12Z</time>
      </trkpt>
      <trkpt lat="49.44367" lon="-1.20735">
        <ele>3.3</ele>
        <time>2022-06-02T09:54:14Z</time>
      </trkpt>
      <trkpt lat="49.44366" lon="-1.20733">
        <ele>3.3</ele>
        <time>2022-06-02T09:54:15Z</time>
      </trkpt>
      <trkpt lat="49.44365" lon="-1.20733">
        <ele>3.3</ele>
        <time>2022-06-02T09:54:16Z</time>
      </trkpt>
      <trkpt lat="49.44364" lon="-1.20733">
        <ele>3.3</ele>
        <time>2022-06-02T09:54:17Z</time>
      </trkpt>
      <trkpt lat="49.44362" lon="-1.20731">
        <ele>3.2</ele>
        <time>2022-06-02T09:54:18Z</time>
      </trkpt>
      <trkpt lat="49.44362" lon="-1.20731">
        <ele>3.2</ele>
        <time>2022-06-02T09:54:20Z</time>
      </trkpt>
      <trkpt lat="49.44361" lon="-1.2073">
        <ele>3.2</ele>
        <time>2022-06-02T09:54:21Z</time>
      </trkpt>
      <trkpt lat="49.44359" lon="-1.20728">
        <ele>3.2</ele>
        <time>2022-06-02T09:54:22Z</time>
      </trkpt>
      <trkpt lat="49.44358" lon="-1.20727">
        <ele>3.2</ele>
        <time>2022-06-02T09:54:24Z</time>
      </trkpt>
      <trkpt lat="49.44358" lon="-1.20726">
        <ele>3.2</ele>
        <time>2022-06-02T09:54:25Z</time>
      </trkpt>
      <trkpt lat="49.44357" lon="-1.20726">
        <ele>3.2</ele>
        <time>2022-06-02T09:54:26Z</time>
      </trkpt>
      <trkpt lat="49.44356" lon="-1.20725">
        <ele>3.2</ele>
        <time>2022-06-02T09:54:27Z</time>
      </trkpt>
      <trkpt lat="49.44355" lon="-1.20724">
        <ele>3.2</ele>
        <time>2022-06-02T09:54:28Z</time>
      </trkpt>
      <trkpt lat="49.44354" lon="-1.20723">
        <ele>3.2</ele>
        <time>2022-06-02T09:54:30Z</time>
      </trkpt>
      <trkpt lat="49.44353" lon="-1.20722">
        <ele>3.2</ele>
        <time>2022-06-02T09:54:31Z</time>
      </trkpt>
      <trkpt lat="49.44352" lon="-1.20721">
        <ele>3.2</ele>
        <time>2022-06-02T09:54:33Z</time>
      </trkpt>
      <trkpt lat="49.44352" lon="-1.2072">
        <ele>3.2</ele>
        <time>2022-06-02T09:54:34Z</time>
      </trkpt>
      <trkpt lat="49.44351" lon="-1.20718">
        <ele>3.1</ele>
        <time>2022-06-02T09:54:35Z</time>
      </trkpt>
      <trkpt lat="49.4435" lon="-1.20718">
        <ele>3.1</ele>
        <time>2022-06-02T09:54:36Z</time>
      </trkpt>
      <trkpt lat="49.4435" lon="-1.20717">
        <ele>3.1</ele>
        <time>2022-06-02T09:54:37Z</time>
      </trkpt>
      <trkpt lat="49.44349" lon="-1.20716">
        <ele>3.1</ele>
        <time>2022-06-02T09:54:38Z</time>
      </trkpt>
      <trkpt lat="49.44349" lon="-1.20715">
        <ele>3.1</ele>
        <time>2022-06-02T09:54:39Z</time>
      </trkpt>
      <trkpt lat="49.44348" lon="-1.20714">
        <ele>3.1</ele>
        <time>2022-06-02T09:54:40Z</time>
      </trkpt>
      <trkpt lat="49.44347" lon="-1.20712">
        <ele>3.1</ele>
        <time>2022-06-02T09:54:42Z</time>
      </trkpt>
      <trkpt lat="49.44346" lon="-1.20711">
        <ele>3.1</ele>
        <time>2022-06-02T09:54:43Z</time>
      </trkpt>
      <trkpt lat="49.44346" lon="-1.2071">
        <ele>3.1</ele>
        <time>2022-06-02T09:54:44Z</time>
      </trkpt>
      <trkpt lat="49.44345" lon="-1.20709">
        <ele>3.1</ele>
        <time>2022-06-02T09:54:45Z</time>
      </trkpt>
      <trkpt lat="49.44345" lon="-1.20708">
        <ele>3.1</ele>
        <time>2022-06-02T09:54:46Z</time>
      </trkpt>
      <trkpt lat="49.44344" lon="-1.20707">
        <ele>3.1</ele>
        <time>2022-06-02T09:54:47Z</time>
      </trkpt>
      <trkpt lat="49.44344" lon="-1.20706">
        <ele>3.1</ele>
        <time>2022-06-02T09:54:48Z</time>
      </trkpt>
      <trkpt lat="49.44343" lon="-1.20704">
        <ele>3.1</ele>
        <time>2022-06-02T09:54:49Z</time>
      </trkpt>
      <trkpt lat="49.44343" lon="-1.20703">
        <ele>3.1</ele>
        <time>2022-06-02T09:54:50Z</time>
      </trkpt>
      <trkpt lat="49.44342" lon="-1.20702">
        <ele>3.1</ele>
        <time>2022-06-02T09:54:51Z</time>
      </trkpt>
      <trkpt lat="49.44342" lon="-1.20701">
        <ele>3.1</ele>
        <time>2022-06-02T09:54:52Z</time>
      </trkpt>
      <trkpt lat="49.44341" lon="-1.20699">
        <ele>3.1</ele>
        <time>2022-06-02T09:54:53Z</time>
      </trkpt>
      <trkpt lat="49.4434" lon="-1.20698">
        <ele>3</ele>
        <time>2022-06-02T09:54:54Z</time>
      </trkpt>
      <trkpt lat="49.44339" lon="-1.20697">
        <ele>3</ele>
        <time>2022-06-02T09:54:56Z</time>
      </trkpt>
      <trkpt lat="49.44338" lon="-1.20696">
        <ele>3</ele>
        <time>2022-06-02T09:54:57Z</time>
      </trkpt>
      <trkpt lat="49.44337" lon="-1.20695">
        <ele>3</ele>
        <time>2022-06-02T09:54:58Z</time>
      </trkpt>
      <trkpt lat="49.44336" lon="-1.20694">
        <ele>3</ele>
        <time>2022-06-02T09:54:59Z</time>
      </trkpt>
      <trkpt lat="49.44335" lon="-1.20693">
        <ele>3</ele>
        <time>2022-06-02T09:55:00Z</time>
      </trkpt>
      <trkpt lat="49.44334" lon="-1.20692">
        <ele>3</ele>
        <time>2022-06-02T09:55:01Z</time>
      </trkpt>
      <trkpt lat="49.44333" lon="-1.20691">
        <ele>3</ele>
        <time>2022-06-02T09:55:03Z</time>
      </trkpt>
      <trkpt lat="49.44333" lon="-1.20689">
        <ele>3</ele>
        <time>2022-06-02T09:55:04Z</time>
      </trkpt>
      <trkpt lat="49.44332" lon="-1.20688">
        <ele>3</ele>
        <time>2022-06-02T09:55:05Z</time>
      </trkpt>
      <trkpt lat="49.44331" lon="-1.20687">
        <ele>3</ele>
        <time>2022-06-02T09:55:06Z</time>
      </trkpt>
      <trkpt lat="49.4433" lon="-1.20686">
        <ele>3</ele>
        <time>2022-06-02T09:55:07Z</time>
      </trkpt>
      <trkpt lat="49.4433" lon="-1.20684">
        <ele>3</ele>
        <time>2022-06-02T09:55:09Z</time>
      </trkpt>
      <trkpt lat="49.44329" lon="-1.20683">
        <ele>2.9</ele>
        <time>2022-06-02T09:55:10Z</time>
      </trkpt>
      <trkpt lat="49.44328" lon="-1.20681">
        <ele>2.9</ele>
        <time>2022-06-02T09:55:11Z</time>
      </trkpt>
      <trkpt lat="49.44327" lon="-1.2068">
        <ele>2.9</ele>
        <time>2022-06-02T09:55:12Z</time>
      </trkpt>
      <trkpt lat="49.44326" lon="-1.20679">
        <ele>2.9</ele>
        <time>2022-06-02T09:55:13Z</time>
      </trkpt>
      <trkpt lat="49.44324" lon="-1.20678">
        <ele>2.9</ele>
        <time>2022-06-02T09:55:14Z</time>
      </trkpt>
      <trkpt lat="49.44324" lon="-1.20676">
        <ele>2.9</ele>
        <time>2022-06-02T09:55:15Z</time>
      </trkpt>
      <trkpt lat="49.44323" lon="-1.20675">
        <ele>2.9</ele>
        <time>2022-06-02T09:55:17Z</time>
      </trkpt>
      <trkpt lat="49.44322" lon="-1.20675">
        <ele>2.9</ele>
        <time>2022-06-02T09:55:18Z</time>
      </trkpt>
      <trkpt lat="49.44321" lon="-1.20674">
        <ele>2.9</ele>
        <time>2022-06-02T09:55:19Z</time>
      </trkpt>
      <trkpt lat="49.4432" lon="-1.20673">
        <ele>2.9</ele>
        <time>2022-06-02T09:55:20Z</time>
      </trkpt>
      <trkpt lat="49.44319" lon="-1.20672">
        <ele>2.9</ele>
        <time>2022-06-02T09:55:21Z</time>
      </trkpt>
      <trkpt lat="49.44317" lon="-1.20672">
        <ele>2.9</ele>
        <time>2022-06-02T09:55:22Z</time>
      </trkpt>
      <trkpt lat="49.44316" lon="-1.20671">
        <ele>2.9</ele>
        <time>2022-06-02T09:55:24Z</time>
      </trkpt>
      <trkpt lat="49.44315" lon="-1.20671">
        <ele>2.9</ele>
        <time>2022-06-02T09:55:25Z</time>
      </trkpt>
      <trkpt lat="49.44314" lon="-1.2067">
        <ele>2.9</ele>
        <time>2022-06-02T09:55:26Z</time>
      </trkpt>
      <trkpt lat="49.44313" lon="-1.20669">
        <ele>2.9</ele>
        <time>2022-06-02T09:55:27Z</time>
      </trkpt>
      <trkpt lat="49.44312" lon="-1.20668">
        <ele>2.9</ele>
        <time>2022-06-02T09:55:28Z</time>
      </trkpt>
      <trkpt lat="49.44312" lon="-1.20667">
        <ele>2.8</ele>
        <time>2022-06-02T09:55:29Z</time>
      </trkpt>
      <trkpt lat="49.44311" lon="-1.20665">
        <ele>2.8</ele>
        <time>2022-06-02T09:55:30Z</time>
      </trkpt>
      <trkpt lat="49.4431" lon="-1.20664">
        <ele>2.8</ele>
        <time>2022-06-02T09:55:32Z</time>
      </trkpt>
      <trkpt lat="49.44309" lon="-1.20663">
        <ele>2.8</ele>
        <time>2022-06-02T09:55:33Z</time>
      </trkpt>
      <trkpt lat="49.44309" lon="-1.20662">
        <ele>2.8</ele>
        <time>2022-06-02T09:55:34Z</time>
      </trkpt>
      <trkpt lat="49.44307" lon="-1.20659">
        <ele>2.8</ele>
        <time>2022-06-02T09:55:36Z</time>
      </trkpt>
      <trkpt lat="49.44306" lon="-1.20658">
        <ele>2.8</ele>
        <time>2022-06-02T09:55:37Z</time>
      </trkpt>
      <trkpt lat="49.44305" lon="-1.20656">
        <ele>2.8</ele>
        <time>2022-06-02T09:55:38Z</time>
      </trkpt>
      <trkpt lat="49.44304" lon="-1.20656">
        <ele>2.7</ele>
        <time>2022-06-02T09:55:39Z</time>
      </trkpt>
      <trkpt lat="49.44303" lon="-1.20655">
        <ele>2.7</ele>
        <time>2022-06-02T09:55:40Z</time>
      </trkpt>
      <trkpt lat="49.44303" lon="-1.20654">
        <ele>2.7</ele>
        <time>2022-06-02T09:55:42Z</time>
      </trkpt>
      <trkpt lat="49.44302" lon="-1.20653">
        <ele>2.7</ele>
        <time>2022-06-02T09:55:43Z</time>
      </trkpt>
      <trkpt lat="49.44301" lon="-1.20653">
        <ele>2.7</ele>
        <time>2022-06-02T09:55:44Z</time>
      </trkpt>
      <trkpt lat="49.443" lon="-1.20652">
        <ele>2.7</ele>
        <time>2022-06-02T09:55:45Z</time>
      </trkpt>
      <trkpt lat="49.44299" lon="-1.2065">
        <ele>2.7</ele>
        <time>2022-06-02T09:55:46Z</time>
      </trkpt>
      <trkpt lat="49.44298" lon="-1.20649">
        <ele>2.7</ele>
        <time>2022-06-02T09:55:47Z</time>
      </trkpt>
      <trkpt lat="49.44298" lon="-1.20648">
        <ele>2.7</ele>
        <time>2022-06-02T09:55:48Z</time>
      </trkpt>
      <trkpt lat="49.44297" lon="-1.20647">
        <ele>2.7</ele>
        <time>2022-06-02T09:55:50Z</time>
      </trkpt>
      <trkpt lat="49.44296" lon="-1.20645">
        <ele>2.7</ele>
        <time>2022-06-02T09:55:51Z</time>
      </trkpt>
      <trkpt lat="49.44296" lon="-1.20645">
        <ele>2.6</ele>
        <time>2022-06-02T09:55:52Z</time>
      </trkpt>
      <trkpt lat="49.44295" lon="-1.20644">
        <ele>2.6</ele>
        <time>2022-06-02T09:55:53Z</time>
      </trkpt>
      <trkpt lat="49.44295" lon="-1.20642">
        <ele>2.6</ele>
        <time>2022-06-02T09:55:54Z</time>
      </trkpt>
      <trkpt lat="49.44294" lon="-1.20641">
        <ele>2.6</ele>
        <time>2022-06-02T09:55:55Z</time>
      </trkpt>
      <trkpt lat="49.44293" lon="-1.20639">
        <ele>2.6</ele>
        <time>2022-06-02T09:55:57Z</time>
      </trkpt>
      <trkpt lat="49.44292" lon="-1.20639">
        <ele>2.6</ele>
        <time>2022-06-02T09:55:58Z</time>
      </trkpt>
      <trkpt lat="49.44292" lon="-1.20638">
        <ele>2.6</ele>
        <time>2022-06-02T09:55:59Z</time>
      </trkpt>
      <trkpt lat="49.44291" lon="-1.20637">
        <ele>2.6</ele>
        <time>2022-06-02T09:56:00Z</time>
      </trkpt>
      <trkpt lat="49.4429" lon="-1.20636">
        <ele>2.6</ele>
        <time>2022-06-02T09:56:01Z</time>
      </trkpt>
      <trkpt lat="49.44289" lon="-1.20635">
        <ele>2.6</ele>
        <time>2022-06-02T09:56:02Z</time>
      </trkpt>
      <trkpt lat="49.44288" lon="-1.20634">
        <ele>2.6</ele>
        <time>2022-06-02T09:56:04Z</time>
      </trkpt>
      <trkpt lat="49.44288" lon="-1.20633">
        <ele>2.6</ele>
        <time>2022-06-02T09:56:05Z</time>
      </trkpt>
      <trkpt lat="49.44287" lon="-1.20631">
        <ele>2.6</ele>
        <time>2022-06-02T09:56:06Z</time>
      </trkpt>
      <trkpt lat="49.44286" lon="-1.2063">
        <ele>2.6</ele>
        <time>2022-06-02T09:56:07Z</time>
      </trkpt>
      <trkpt lat="49.44285" lon="-1.20629">
        <ele>2.6</ele>
        <time>2022-06-02T09:56:08Z</time>
      </trkpt>
      <trkpt lat="49.44285" lon="-1.20628">
        <ele>2.6</ele>
        <time>2022-06-02T09:56:09Z</time>
      </trkpt>
      <trkpt lat="49.44284" lon="-1.20627">
        <ele>2.6</ele>
        <time>2022-06-02T09:56:11Z</time>
      </trkpt>
      <trkpt lat="49.44283" lon="-1.20626">
        <ele>2.6</ele>
        <time>2022-06-02T09:56:12Z</time>
      </trkpt>
      <trkpt lat="49.44282" lon="-1.20625">
        <ele>2.6</ele>
        <time>2022-06-02T09:56:13Z</time>
      </trkpt>
      <trkpt lat="49.4428" lon="-1.20623">
        <ele>2.6</ele>
        <time>2022-06-02T09:56:14Z</time>
      </trkpt>
      <trkpt lat="49.44279" lon="-1.20622">
        <ele>2.6</ele>
        <time>2022-06-02T09:56:15Z</time>
      </trkpt>
      <trkpt lat="49.44278" lon="-1.20621">
        <ele>2.6</ele>
        <time>2022-06-02T09:56:16Z</time>
      </trkpt>
      <trkpt lat="49.44278" lon="-1.20621">
        <ele>2.6</ele>
        <time>2022-06-02T09:56:17Z</time>
      </trkpt>
      <trkpt lat="49.44277" lon="-1.2062">
        <ele>2.6</ele>
        <time>2022-06-02T09:56:19Z</time>
      </trkpt>
      <trkpt lat="49.44276" lon="-1.20619">
        <ele>2.6</ele>
        <time>2022-06-02T09:56:20Z</time>
      </trkpt>
      <trkpt lat="49.44274" lon="-1.20618">
        <ele>2.6</ele>
        <time>2022-06-02T09:56:21Z</time>
      </trkpt>
      <trkpt lat="49.44273" lon="-1.20617">
        <ele>2.6</ele>
        <time>2022-06-02T09:56:22Z</time>
      </trkpt>
      <trkpt lat="49.44273" lon="-1.20616">
        <ele>2.6</ele>
        <time>2022-06-02T09:56:23Z</time>
      </trkpt>
      <trkpt lat="49.44271" lon="-1.20614">
        <ele>2.6</ele>
        <time>2022-06-02T09:56:25Z</time>
      </trkpt>
      <trkpt lat="49.4427" lon="-1.20613">
        <ele>2.6</ele>
        <time>2022-06-02T09:56:26Z</time>
      </trkpt>
      <trkpt lat="49.4427" lon="-1.20612">
        <ele>2.6</ele>
        <time>2022-06-02T09:56:27Z</time>
      </trkpt>
      <trkpt lat="49.44269" lon="-1.20611">
        <ele>2.6</ele>
        <time>2022-06-02T09:56:28Z</time>
      </trkpt>
      <trkpt lat="49.44268" lon="-1.2061">
        <ele>2.6</ele>
        <time>2022-06-02T09:56:29Z</time>
      </trkpt>
      <trkpt lat="49.44267" lon="-1.20608">
        <ele>2.6</ele>
        <time>2022-06-02T09:56:30Z</time>
      </trkpt>
      <trkpt lat="49.44266" lon="-1.20607">
        <ele>2.6</ele>
        <time>2022-06-02T09:56:31Z</time>
      </trkpt>
      <trkpt lat="49.44266" lon="-1.20606">
        <ele>2.6</ele>
        <time>2022-06-02T09:56:33Z</time>
      </trkpt>
      <trkpt lat="49.44265" lon="-1.20605">
        <ele>2.6</ele>
        <time>2022-06-02T09:56:34Z</time>
      </trkpt>
      <trkpt lat="49.44264" lon="-1.20603">
        <ele>2.6</ele>
        <time>2022-06-02T09:56:35Z</time>
      </trkpt>
      <trkpt lat="49.44264" lon="-1.20601">
        <ele>2.6</ele>
        <time>2022-06-02T09:56:36Z</time>
      </trkpt>
      <trkpt lat="49.44262" lon="-1.20599">
        <ele>2.6</ele>
        <time>2022-06-02T09:56:37Z</time>
      </trkpt>
      <trkpt lat="49.44261" lon="-1.20598">
        <ele>2.6</ele>
        <time>2022-06-02T09:56:38Z</time>
      </trkpt>
      <trkpt lat="49.44261" lon="-1.20597">
        <ele>2.6</ele>
        <time>2022-06-02T09:56:39Z</time>
      </trkpt>
      <trkpt lat="49.44259" lon="-1.20596">
        <ele>2.6</ele>
        <time>2022-06-02T09:56:41Z</time>
      </trkpt>
      <trkpt lat="49.44258" lon="-1.20595">
        <ele>2.6</ele>
        <time>2022-06-02T09:56:42Z</time>
      </trkpt>
      <trkpt lat="49.44257" lon="-1.20595">
        <ele>2.6</ele>
        <time>2022-06-02T09:56:43Z</time>
      </trkpt>
      <trkpt lat="49.44256" lon="-1.20594">
        <ele>2.6</ele>
        <time>2022-06-02T09:56:44Z</time>
      </trkpt>
      <trkpt lat="49.44255" lon="-1.20592">
        <ele>2.6</ele>
        <time>2022-06-02T09:56:45Z</time>
      </trkpt>
      <trkpt lat="49.44254" lon="-1.20591">
        <ele>2.6</ele>
        <time>2022-06-02T09:56:47Z</time>
      </trkpt>
      <trkpt lat="49.44254" lon="-1.2059">
        <ele>2.6</ele>
        <time>2022-06-02T09:56:48Z</time>
      </trkpt>
      <trkpt lat="49.44253" lon="-1.20589">
        <ele>2.6</ele>
        <time>2022-06-02T09:56:49Z</time>
      </trkpt>
      <trkpt lat="49.44252" lon="-1.20588">
        <ele>2.6</ele>
        <time>2022-06-02T09:56:50Z</time>
      </trkpt>
      <trkpt lat="49.44252" lon="-1.20587">
        <ele>2.6</ele>
        <time>2022-06-02T09:56:51Z</time>
      </trkpt>
      <trkpt lat="49.44251" lon="-1.20586">
        <ele>2.6</ele>
        <time>2022-06-02T09:56:52Z</time>
      </trkpt>
      <trkpt lat="49.44251" lon="-1.20585">
        <ele>2.6</ele>
        <time>2022-06-02T09:56:54Z</time>
      </trkpt>
      <trkpt lat="49.44251" lon="-1.20583">
        <ele>2.6</ele>
        <time>2022-06-02T09:56:55Z</time>
      </trkpt>
      <trkpt lat="49.44251" lon="-1.20582">
        <ele>2.6</ele>
        <time>2022-06-02T09:56:56Z</time>
      </trkpt>
      <trkpt lat="49.4425" lon="-1.2058">
        <ele>2.5</ele>
        <time>2022-06-02T09:56:57Z</time>
      </trkpt>
      <trkpt lat="49.44249" lon="-1.20579">
        <ele>2.5</ele>
        <time>2022-06-02T09:56:58Z</time>
      </trkpt>
      <trkpt lat="49.44249" lon="-1.20579">
        <ele>2.5</ele>
        <time>2022-06-02T09:56:59Z</time>
      </trkpt>
      <trkpt lat="49.44248" lon="-1.20578">
        <ele>2.5</ele>
        <time>2022-06-02T09:57:00Z</time>
      </trkpt>
      <trkpt lat="49.44246" lon="-1.20576">
        <ele>2.5</ele>
        <time>2022-06-02T09:57:02Z</time>
      </trkpt>
      <trkpt lat="49.44246" lon="-1.20576">
        <ele>2.5</ele>
        <time>2022-06-02T09:57:03Z</time>
      </trkpt>
      <trkpt lat="49.44245" lon="-1.20575">
        <ele>2.5</ele>
        <time>2022-06-02T09:57:04Z</time>
      </trkpt>
      <trkpt lat="49.44245" lon="-1.20574">
        <ele>2.5</ele>
        <time>2022-06-02T09:57:05Z</time>
      </trkpt>
      <trkpt lat="49.44243" lon="-1.20573">
        <ele>2.4</ele>
        <time>2022-06-02T09:57:06Z</time>
      </trkpt>
      <trkpt lat="49.44243" lon="-1.20572">
        <ele>2.4</ele>
        <time>2022-06-02T09:57:07Z</time>
      </trkpt>
      <trkpt lat="49.44242" lon="-1.20571">
        <ele>2.4</ele>
        <time>2022-06-02T09:57:09Z</time>
      </trkpt>
      <trkpt lat="49.44241" lon="-1.2057">
        <ele>2.4</ele>
        <time>2022-06-02T09:57:10Z</time>
      </trkpt>
      <trkpt lat="49.4424" lon="-1.20569">
        <ele>2.4</ele>
        <time>2022-06-02T09:57:11Z</time>
      </trkpt>
      <trkpt lat="49.44239" lon="-1.20568">
        <ele>2.4</ele>
        <time>2022-06-02T09:57:12Z</time>
      </trkpt>
      <trkpt lat="49.44238" lon="-1.20567">
        <ele>2.3</ele>
        <time>2022-06-02T09:57:13Z</time>
      </trkpt>
      <trkpt lat="49.44237" lon="-1.20566">
        <ele>2.3</ele>
        <time>2022-06-02T09:57:14Z</time>
      </trkpt>
      <trkpt lat="49.44236" lon="-1.20565">
        <ele>2.3</ele>
        <time>2022-06-02T09:57:15Z</time>
      </trkpt>
      <trkpt lat="49.44235" lon="-1.20563">
        <ele>2.3</ele>
        <time>2022-06-02T09:57:16Z</time>
      </trkpt>
      <trkpt lat="49.44234" lon="-1.20562">
        <ele>2.3</ele>
        <time>2022-06-02T09:57:18Z</time>
      </trkpt>
      <trkpt lat="49.44233" lon="-1.20561">
        <ele>2.3</ele>
        <time>2022-06-02T09:57:19Z</time>
      </trkpt>
      <trkpt lat="49.44233" lon="-1.2056">
        <ele>2.2</ele>
        <time>2022-06-02T09:57:20Z</time>
      </trkpt>
      <trkpt lat="49.44231" lon="-1.20557">
        <ele>2.2</ele>
        <time>2022-06-02T09:57:21Z</time>
      </trkpt>
      <trkpt lat="49.4423" lon="-1.20556">
        <ele>2.2</ele>
        <time>2022-06-02T09:57:22Z</time>
      </trkpt>
      <trkpt lat="49.4423" lon="-1.20556">
        <ele>2.2</ele>
        <time>2022-06-02T09:57:23Z</time>
      </trkpt>
      <trkpt lat="49.44228" lon="-1.20554">
        <ele>2.2</ele>
        <time>2022-06-02T09:57:24Z</time>
      </trkpt>
      <trkpt lat="49.44228" lon="-1.20553">
        <ele>2.2</ele>
        <time>2022-06-02T09:57:26Z</time>
      </trkpt>
      <trkpt lat="49.44227" lon="-1.20552">
        <ele>2.2</ele>
        <time>2022-06-02T09:57:27Z</time>
      </trkpt>
      <trkpt lat="49.44227" lon="-1.20552">
        <ele>2.1</ele>
        <time>2022-06-02T09:57:28Z</time>
      </trkpt>
      <trkpt lat="49.44226" lon="-1.20551">
        <ele>2.1</ele>
        <time>2022-06-02T09:57:29Z</time>
      </trkpt>
      <trkpt lat="49.44225" lon="-1.20549">
        <ele>2.1</ele>
        <time>2022-06-02T09:57:30Z</time>
      </trkpt>
      <trkpt lat="49.44223" lon="-1.20547">
        <ele>2.1</ele>
        <time>2022-06-02T09:57:31Z</time>
      </trkpt>
      <trkpt lat="49.44223" lon="-1.20546">
        <ele>2.1</ele>
        <time>2022-06-02T09:57:33Z</time>
      </trkpt>
      <trkpt lat="49.44222" lon="-1.20545">
        <ele>2.1</ele>
        <time>2022-06-02T09:57:34Z</time>
      </trkpt>
      <trkpt lat="49.44221" lon="-1.20544">
        <ele>2.1</ele>
        <time>2022-06-02T09:57:35Z</time>
      </trkpt>
      <trkpt lat="49.44221" lon="-1.20543">
        <ele>2.1</ele>
        <time>2022-06-02T09:57:36Z</time>
      </trkpt>
      <trkpt lat="49.4422" lon="-1.20542">
        <ele>2.1</ele>
        <time>2022-06-02T09:57:37Z</time>
      </trkpt>
      <trkpt lat="49.44219" lon="-1.2054">
        <ele>2</ele>
        <time>2022-06-02T09:57:38Z</time>
      </trkpt>
      <trkpt lat="49.44219" lon="-1.20539">
        <ele>2</ele>
        <time>2022-06-02T09:57:39Z</time>
      </trkpt>
      <trkpt lat="49.44218" lon="-1.20538">
        <ele>2</ele>
        <time>2022-06-02T09:57:41Z</time>
      </trkpt>
      <trkpt lat="49.44217" lon="-1.20536">
        <ele>2</ele>
        <time>2022-06-02T09:57:42Z</time>
      </trkpt>
      <trkpt lat="49.44217" lon="-1.20535">
        <ele>2</ele>
        <time>2022-06-02T09:57:43Z</time>
      </trkpt>
      <trkpt lat="49.44216" lon="-1.20534">
        <ele>2</ele>
        <time>2022-06-02T09:57:44Z</time>
      </trkpt>
      <trkpt lat="49.44215" lon="-1.20533">
        <ele>2</ele>
        <time>2022-06-02T09:57:45Z</time>
      </trkpt>
      <trkpt lat="49.44214" lon="-1.20531">
        <ele>2</ele>
        <time>2022-06-02T09:57:46Z</time>
      </trkpt>
      <trkpt lat="49.44214" lon="-1.20531">
        <ele>2</ele>
        <time>2022-06-02T09:57:48Z</time>
      </trkpt>
      <trkpt lat="49.44213" lon="-1.2053">
        <ele>2</ele>
        <time>2022-06-02T09:57:49Z</time>
      </trkpt>
      <trkpt lat="49.44212" lon="-1.20529">
        <ele>1.9</ele>
        <time>2022-06-02T09:57:50Z</time>
      </trkpt>
      <trkpt lat="49.44211" lon="-1.20527">
        <ele>1.9</ele>
        <time>2022-06-02T09:57:51Z</time>
      </trkpt>
      <trkpt lat="49.4421" lon="-1.20525">
        <ele>1.9</ele>
        <time>2022-06-02T09:57:53Z</time>
      </trkpt>
      <trkpt lat="49.44211" lon="-1.20525">
        <ele>1.9</ele>
        <time>2022-06-02T09:57:54Z</time>
      </trkpt>
      <trkpt lat="49.44211" lon="-1.20524">
        <ele>1.9</ele>
        <time>2022-06-02T09:57:55Z</time>
      </trkpt>
      <trkpt lat="49.44212" lon="-1.20524">
        <ele>1.9</ele>
        <time>2022-06-02T09:57:56Z</time>
      </trkpt>
      <trkpt lat="49.44213" lon="-1.20524">
        <ele>1.9</ele>
        <time>2022-06-02T09:57:57Z</time>
      </trkpt>
      <trkpt lat="49.44212" lon="-1.20523">
        <ele>1.9</ele>
        <time>2022-06-02T09:57:58Z</time>
      </trkpt>
      <trkpt lat="49.44211" lon="-1.20522">
        <ele>1.9</ele>
        <time>2022-06-02T09:57:59Z</time>
      </trkpt>
      <trkpt lat="49.4421" lon="-1.20521">
        <ele>1.9</ele>
        <time>2022-06-02T09:58:01Z</time>
      </trkpt>
      <trkpt lat="49.4421" lon="-1.20521">
        <ele>1.9</ele>
        <time>2022-06-02T09:58:02Z</time>
      </trkpt>
      <trkpt lat="49.44209" lon="-1.2052">
        <ele>1.8</ele>
        <time>2022-06-02T09:58:03Z</time>
      </trkpt>
      <trkpt lat="49.44208" lon="-1.2052">
        <ele>1.8</ele>
        <time>2022-06-02T09:58:04Z</time>
      </trkpt>
      <trkpt lat="49.44207" lon="-1.20519">
        <ele>1.8</ele>
        <time>2022-06-02T09:58:05Z</time>
      </trkpt>
      <trkpt lat="49.44206" lon="-1.20518">
        <ele>1.8</ele>
        <time>2022-06-02T09:58:06Z</time>
      </trkpt>
      <trkpt lat="49.44204" lon="-1.20517">
        <ele>1.8</ele>
        <time>2022-06-02T09:58:07Z</time>
      </trkpt>
      <trkpt lat="49.44202" lon="-1.20515">
        <ele>1.8</ele>
        <time>2022-06-02T09:58:09Z</time>
      </trkpt>
      <trkpt lat="49.44201" lon="-1.20515">
        <ele>1.8</ele>
        <time>2022-06-02T09:58:10Z</time>
      </trkpt>
      <trkpt lat="49.442" lon="-1.20514">
        <ele>1.7</ele>
        <time>2022-06-02T09:58:11Z</time>
      </trkpt>
      <trkpt lat="49.44198" lon="-1.20513">
        <ele>1.7</ele>
        <time>2022-06-02T09:58:12Z</time>
      </trkpt>
      <trkpt lat="49.44198" lon="-1.20512">
        <ele>1.7</ele>
        <time>2022-06-02T09:58:13Z</time>
      </trkpt>
      <trkpt lat="49.44197" lon="-1.20512">
        <ele>1.7</ele>
        <time>2022-06-02T09:58:14Z</time>
      </trkpt>
      <trkpt lat="49.44196" lon="-1.20511">
        <ele>1.7</ele>
        <time>2022-06-02T09:58:15Z</time>
      </trkpt>
      <trkpt lat="49.44195" lon="-1.2051">
        <ele>1.7</ele>
        <time>2022-06-02T09:58:16Z</time>
      </trkpt>
      <trkpt lat="49.44194" lon="-1.2051">
        <ele>1.7</ele>
        <time>2022-06-02T09:58:17Z</time>
      </trkpt>
      <trkpt lat="49.44193" lon="-1.20509">
        <ele>1.7</ele>
        <time>2022-06-02T09:58:19Z</time>
      </trkpt>
      <trkpt lat="49.44192" lon="-1.20508">
        <ele>1.7</ele>
        <time>2022-06-02T09:58:20Z</time>
      </trkpt>
      <trkpt lat="49.44191" lon="-1.20506">
        <ele>1.7</ele>
        <time>2022-06-02T09:58:21Z</time>
      </trkpt>
      <trkpt lat="49.4419" lon="-1.20505">
        <ele>1.7</ele>
        <time>2022-06-02T09:58:22Z</time>
      </trkpt>
      <trkpt lat="49.44189" lon="-1.20504">
        <ele>1.7</ele>
        <time>2022-06-02T09:58:23Z</time>
      </trkpt>
      <trkpt lat="49.44188" lon="-1.20503">
        <ele>1.7</ele>
        <time>2022-06-02T09:58:24Z</time>
      </trkpt>
      <trkpt lat="49.44187" lon="-1.20502">
        <ele>1.7</ele>
        <time>2022-06-02T09:58:25Z</time>
      </trkpt>
      <trkpt lat="49.44186" lon="-1.205">
        <ele>1.6</ele>
        <time>2022-06-02T09:58:26Z</time>
      </trkpt>
      <trkpt lat="49.44186" lon="-1.20498">
        <ele>1.6</ele>
        <time>2022-06-02T09:58:28Z</time>
      </trkpt>
      <trkpt lat="49.44185" lon="-1.20497">
        <ele>1.6</ele>
        <time>2022-06-02T09:58:29Z</time>
      </trkpt>
      <trkpt lat="49.44183" lon="-1.20495">
        <ele>1.6</ele>
        <time>2022-06-02T09:58:30Z</time>
      </trkpt>
      <trkpt lat="49.44183" lon="-1.20494">
        <ele>1.6</ele>
        <time>2022-06-02T09:58:31Z</time>
      </trkpt>
      <trkpt lat="49.44182" lon="-1.20494">
        <ele>1.6</ele>
        <time>2022-06-02T09:58:32Z</time>
      </trkpt>
      <trkpt lat="49.44181" lon="-1.20492">
        <ele>1.6</ele>
        <time>2022-06-02T09:58:33Z</time>
      </trkpt>
      <trkpt lat="49.4418" lon="-1.20491">
        <ele>1.6</ele>
        <time>2022-06-02T09:58:34Z</time>
      </trkpt>
      <trkpt lat="49.44179" lon="-1.2049">
        <ele>1.6</ele>
        <time>2022-06-02T09:58:35Z</time>
      </trkpt>
      <trkpt lat="49.44178" lon="-1.20488">
        <ele>1.6</ele>
        <time>2022-06-02T09:58:36Z</time>
      </trkpt>
      <trkpt lat="49.44177" lon="-1.20487">
        <ele>1.6</ele>
        <time>2022-06-02T09:58:38Z</time>
      </trkpt>
      <trkpt lat="49.44176" lon="-1.20486">
        <ele>1.6</ele>
        <time>2022-06-02T09:58:39Z</time>
      </trkpt>
      <trkpt lat="49.44175" lon="-1.20485">
        <ele>1.6</ele>
        <time>2022-06-02T09:58:40Z</time>
      </trkpt>
      <trkpt lat="49.44175" lon="-1.20484">
        <ele>1.6</ele>
        <time>2022-06-02T09:58:41Z</time>
      </trkpt>
      <trkpt lat="49.44174" lon="-1.20483">
        <ele>1.5</ele>
        <time>2022-06-02T09:58:42Z</time>
      </trkpt>
      <trkpt lat="49.44173" lon="-1.20481">
        <ele>1.5</ele>
        <time>2022-06-02T09:58:43Z</time>
      </trkpt>
      <trkpt lat="49.44172" lon="-1.2048">
        <ele>1.5</ele>
        <time>2022-06-02T09:58:44Z</time>
      </trkpt>
      <trkpt lat="49.44171" lon="-1.20479">
        <ele>1.5</ele>
        <time>2022-06-02T09:58:46Z</time>
      </trkpt>
      <trkpt lat="49.4417" lon="-1.20477">
        <ele>1.5</ele>
        <time>2022-06-02T09:58:47Z</time>
      </trkpt>
      <trkpt lat="49.44169" lon="-1.20476">
        <ele>1.5</ele>
        <time>2022-06-02T09:58:48Z</time>
      </trkpt>
      <trkpt lat="49.44168" lon="-1.20474">
        <ele>1.5</ele>
        <time>2022-06-02T09:58:49Z</time>
      </trkpt>
      <trkpt lat="49.44168" lon="-1.20473">
        <ele>1.5</ele>
        <time>2022-06-02T09:58:50Z</time>
      </trkpt>
      <trkpt lat="49.44167" lon="-1.20472">
        <ele>1.5</ele>
        <time>2022-06-02T09:58:51Z</time>
      </trkpt>
      <trkpt lat="49.44165" lon="-1.2047">
        <ele>1.5</ele>
        <time>2022-06-02T09:58:52Z</time>
      </trkpt>
      <trkpt lat="49.44165" lon="-1.2047">
        <ele>1.4</ele>
        <time>2022-06-02T09:58:54Z</time>
      </trkpt>
      <trkpt lat="49.44164" lon="-1.20469">
        <ele>1.4</ele>
        <time>2022-06-02T09:58:55Z</time>
      </trkpt>
      <trkpt lat="49.44163" lon="-1.20468">
        <ele>1.4</ele>
        <time>2022-06-02T09:58:56Z</time>
      </trkpt>
      <trkpt lat="49.44162" lon="-1.20467">
        <ele>1.4</ele>
        <time>2022-06-02T09:58:57Z</time>
      </trkpt>
      <trkpt lat="49.44161" lon="-1.20466">
        <ele>1.4</ele>
        <time>2022-06-02T09:58:58Z</time>
      </trkpt>
      <trkpt lat="49.4416" lon="-1.20464">
        <ele>1.4</ele>
        <time>2022-06-02T09:58:59Z</time>
      </trkpt>
      <trkpt lat="49.4416" lon="-1.20463">
        <ele>1.4</ele>
        <time>2022-06-02T09:59:00Z</time>
      </trkpt>
      <trkpt lat="49.44158" lon="-1.20461">
        <ele>1.4</ele>
        <time>2022-06-02T09:59:02Z</time>
      </trkpt>
      <trkpt lat="49.44157" lon="-1.20459">
        <ele>1.4</ele>
        <time>2022-06-02T09:59:03Z</time>
      </trkpt>
      <trkpt lat="49.44157" lon="-1.20458">
        <ele>1.3</ele>
        <time>2022-06-02T09:59:04Z</time>
      </trkpt>
      <trkpt lat="49.44156" lon="-1.20458">
        <ele>1.3</ele>
        <time>2022-06-02T09:59:05Z</time>
      </trkpt>
      <trkpt lat="49.44156" lon="-1.20457">
        <ele>1.3</ele>
        <time>2022-06-02T09:59:06Z</time>
      </trkpt>
      <trkpt lat="49.44155" lon="-1.20455">
        <ele>1.3</ele>
        <time>2022-06-02T09:59:07Z</time>
      </trkpt>
      <trkpt lat="49.44154" lon="-1.20454">
        <ele>1.3</ele>
        <time>2022-06-02T09:59:08Z</time>
      </trkpt>
      <trkpt lat="49.44153" lon="-1.20453">
        <ele>1.3</ele>
        <time>2022-06-02T09:59:10Z</time>
      </trkpt>
      <trkpt lat="49.44152" lon="-1.20452">
        <ele>1.3</ele>
        <time>2022-06-02T09:59:11Z</time>
      </trkpt>
      <trkpt lat="49.44151" lon="-1.2045">
        <ele>1.3</ele>
        <time>2022-06-02T09:59:12Z</time>
      </trkpt>
      <trkpt lat="49.4415" lon="-1.20449">
        <ele>1.3</ele>
        <time>2022-06-02T09:59:13Z</time>
      </trkpt>
      <trkpt lat="49.44149" lon="-1.20448">
        <ele>1.3</ele>
        <time>2022-06-02T09:59:14Z</time>
      </trkpt>
      <trkpt lat="49.44148" lon="-1.20448">
        <ele>1.2</ele>
        <time>2022-06-02T09:59:15Z</time>
      </trkpt>
      <trkpt lat="49.44148" lon="-1.20447">
        <ele>1.2</ele>
        <time>2022-06-02T09:59:16Z</time>
      </trkpt>
      <trkpt lat="49.44147" lon="-1.20446">
        <ele>1.2</ele>
        <time>2022-06-02T09:59:17Z</time>
      </trkpt>
      <trkpt lat="49.44146" lon="-1.20445">
        <ele>1.2</ele>
        <time>2022-06-02T09:59:19Z</time>
      </trkpt>
      <trkpt lat="49.44145" lon="-1.20444">
        <ele>1.2</ele>
        <time>2022-06-02T09:59:20Z</time>
      </trkpt>
      <trkpt lat="49.44144" lon="-1.20442">
        <ele>1.2</ele>
        <time>2022-06-02T09:59:21Z</time>
      </trkpt>
      <trkpt lat="49.44143" lon="-1.20441">
        <ele>1.2</ele>
        <time>2022-06-02T09:59:22Z</time>
      </trkpt>
      <trkpt lat="49.44142" lon="-1.2044">
        <ele>1.2</ele>
        <time>2022-06-02T09:59:23Z</time>
      </trkpt>
      <trkpt lat="49.44141" lon="-1.20439">
        <ele>1.2</ele>
        <time>2022-06-02T09:59:24Z</time>
      </trkpt>
      <trkpt lat="49.4414" lon="-1.20438">
        <ele>1.2</ele>
        <time>2022-06-02T09:59:25Z</time>
      </trkpt>
      <trkpt lat="49.44139" lon="-1.20436">
        <ele>1.1</ele>
        <time>2022-06-02T09:59:27Z</time>
      </trkpt>
      <trkpt lat="49.44137" lon="-1.20434">
        <ele>1.1</ele>
        <time>2022-06-02T09:59:28Z</time>
      </trkpt>
      <trkpt lat="49.44137" lon="-1.20433">
        <ele>1.1</ele>
        <time>2022-06-02T09:59:29Z</time>
      </trkpt>
      <trkpt lat="49.44136" lon="-1.20432">
        <ele>1.1</ele>
        <time>2022-06-02T09:59:30Z</time>
      </trkpt>
      <trkpt lat="49.44134" lon="-1.2043">
        <ele>1.1</ele>
        <time>2022-06-02T09:59:31Z</time>
      </trkpt>
      <trkpt lat="49.44134" lon="-1.20429">
        <ele>1.1</ele>
        <time>2022-06-02T09:59:32Z</time>
      </trkpt>
      <trkpt lat="49.44133" lon="-1.20428">
        <ele>1.1</ele>
        <time>2022-06-02T09:59:33Z</time>
      </trkpt>
      <trkpt lat="49.44132" lon="-1.20427">
        <ele>1.1</ele>
        <time>2022-06-02T09:59:35Z</time>
      </trkpt>
      <trkpt lat="49.44131" lon="-1.20426">
        <ele>1.1</ele>
        <time>2022-06-02T09:59:36Z</time>
      </trkpt>
      <trkpt lat="49.44131" lon="-1.20426">
        <ele>1.1</ele>
        <time>2022-06-02T09:59:37Z</time>
      </trkpt>
      <trkpt lat="49.4413" lon="-1.20425">
        <ele>1.1</ele>
        <time>2022-06-02T09:59:38Z</time>
      </trkpt>
      <trkpt lat="49.44128" lon="-1.20423">
        <ele>1</ele>
        <time>2022-06-02T09:59:39Z</time>
      </trkpt>
      <trkpt lat="49.44128" lon="-1.20422">
        <ele>1</ele>
        <time>2022-06-02T09:59:40Z</time>
      </trkpt>
      <trkpt lat="49.44127" lon="-1.20421">
        <ele>1</ele>
        <time>2022-06-02T09:59:42Z</time>
      </trkpt>
      <trkpt lat="49.44126" lon="-1.20419">
        <ele>1</ele>
        <time>2022-06-02T09:59:43Z</time>
      </trkpt>
      <trkpt lat="49.44126" lon="-1.20418">
        <ele>1</ele>
        <time>2022-06-02T09:59:44Z</time>
      </trkpt>
      <trkpt lat="49.44125" lon="-1.20417">
        <ele>1</ele>
        <time>2022-06-02T09:59:45Z</time>
      </trkpt>
      <trkpt lat="49.44124" lon="-1.20416">
        <ele>1</ele>
        <time>2022-06-02T09:59:46Z</time>
      </trkpt>
      <trkpt lat="49.44123" lon="-1.20414">
        <ele>1</ele>
        <time>2022-06-02T09:59:47Z</time>
      </trkpt>
      <trkpt lat="49.44123" lon="-1.20412">
        <ele>1</ele>
        <time>2022-06-02T09:59:49Z</time>
      </trkpt>
      <trkpt lat="49.44122" lon="-1.2041">
        <ele>0.9</ele>
        <time>2022-06-02T09:59:50Z</time>
      </trkpt>
      <trkpt lat="49.44121" lon="-1.20409">
        <ele>0.9</ele>
        <time>2022-06-02T09:59:51Z</time>
      </trkpt>
      <trkpt lat="49.44121" lon="-1.20408">
        <ele>0.9</ele>
        <time>2022-06-02T09:59:52Z</time>
      </trkpt>
      <trkpt lat="49.4412" lon="-1.20407">
        <ele>0.9</ele>
        <time>2022-06-02T09:59:53Z</time>
      </trkpt>
      <trkpt lat="49.44119" lon="-1.20407">
        <ele>0.9</ele>
        <time>2022-06-02T09:59:54Z</time>
      </trkpt>
      <trkpt lat="49.44118" lon="-1.20406">
        <ele>0.9</ele>
        <time>2022-06-02T09:59:55Z</time>
      </trkpt>
      <trkpt lat="49.44117" lon="-1.20406">
        <ele>0.8</ele>
        <time>2022-06-02T09:59:57Z</time>
      </trkpt>
      <trkpt lat="49.44116" lon="-1.20405">
        <ele>0.8</ele>
        <time>2022-06-02T09:59:58Z</time>
      </trkpt>
      <trkpt lat="49.44115" lon="-1.20405">
        <ele>0.8</ele>
        <time>2022-06-02T09:59:59Z</time>
      </trkpt>
      <trkpt lat="49.44115" lon="-1.20404">
        <ele>0.8</ele>
        <time>2022-06-02T10:00:00Z</time>
      </trkpt>
      <trkpt lat="49.44114" lon="-1.20403">
        <ele>0.8</ele>
        <time>2022-06-02T10:00:02Z</time>
      </trkpt>
      <trkpt lat="49.44113" lon="-1.20402">
        <ele>0.8</ele>
        <time>2022-06-02T10:00:03Z</time>
      </trkpt>
      <trkpt lat="49.44113" lon="-1.20401">
        <ele>0.8</ele>
        <time>2022-06-02T10:00:04Z</time>
      </trkpt>
      <trkpt lat="49.44112" lon="-1.20401">
        <ele>0.7</ele>
        <time>2022-06-02T10:00:05Z</time>
      </trkpt>
      <trkpt lat="49.44112" lon="-1.204">
        <ele>0.7</ele>
        <time>2022-06-02T10:00:06Z</time>
      </trkpt>
      <trkpt lat="49.44111" lon="-1.20399">
        <ele>0.7</ele>
        <time>2022-06-02T10:00:07Z</time>
      </trkpt>
      <trkpt lat="49.4411" lon="-1.20398">
        <ele>0.7</ele>
        <time>2022-06-02T10:00:09Z</time>
      </trkpt>
      <trkpt lat="49.4411" lon="-1.20398">
        <ele>0.7</ele>
        <time>2022-06-02T10:00:10Z</time>
      </trkpt>
      <trkpt lat="49.44109" lon="-1.20396">
        <ele>0.7</ele>
        <time>2022-06-02T10:00:11Z</time>
      </trkpt>
      <trkpt lat="49.44108" lon="-1.20396">
        <ele>0.7</ele>
        <time>2022-06-02T10:00:12Z</time>
      </trkpt>
      <trkpt lat="49.44108" lon="-1.20395">
        <ele>0.6</ele>
        <time>2022-06-02T10:00:13Z</time>
      </trkpt>
      <trkpt lat="49.44107" lon="-1.20394">
        <ele>0.6</ele>
        <time>2022-06-02T10:00:15Z</time>
      </trkpt>
      <trkpt lat="49.44106" lon="-1.20395">
        <ele>0.6</ele>
        <time>2022-06-02T10:00:16Z</time>
      </trkpt>
      <trkpt lat="49.44106" lon="-1.20397">
        <ele>0.6</ele>
        <time>2022-06-02T10:00:17Z</time>
      </trkpt>
      <trkpt lat="49.44106" lon="-1.20397">
        <ele>0.6</ele>
        <time>2022-06-02T10:00:18Z</time>
      </trkpt>
      <trkpt lat="49.44106" lon="-1.20397">
        <ele>0.6</ele>
        <time>2022-06-02T10:00:20Z</time>
      </trkpt>
      <trkpt lat="49.44106" lon="-1.20397">
        <ele>0.6</ele>
        <time>2022-06-02T10:00:21Z</time>
      </trkpt>
      <trkpt lat="49.44106" lon="-1.20397">
        <ele>0.6</ele>
        <time>2022-06-02T10:00:22Z</time>
      </trkpt>
      <trkpt lat="49.44106" lon="-1.20397">
        <ele>0.6</ele>
        <time>2022-06-02T10:00:23Z</time>
      </trkpt>
      <trkpt lat="49.44107" lon="-1.20397">
        <ele>0.6</ele>
        <time>2022-06-02T10:00:24Z</time>
      </trkpt>
      <trkpt lat="49.44107" lon="-1.20397">
        <ele>0.6</ele>
        <time>2022-06-02T10:00:26Z</time>
      </trkpt>
      <trkpt lat="49.44107" lon="-1.20397">
        <ele>0.6</ele>
        <time>2022-06-02T10:00:27Z</time>
      </trkpt>
      <trkpt lat="49.44107" lon="-1.20397">
        <ele>0.6</ele>
        <time>2022-06-02T10:00:28Z</time>
      </trkpt>
      <trkpt lat="49.44107" lon="-1.20397">
        <ele>0.6</ele>
        <time>2022-06-02T10:00:29Z</time>
      </trkpt>
      <trkpt lat="49.44107" lon="-1.20397">
        <ele>0.6</ele>
        <time>2022-06-02T10:00:30Z</time>
      </trkpt>
      <trkpt lat="49.44107" lon="-1.20397">
        <ele>0.6</ele>
        <time>2022-06-02T10:00:31Z</time>
      </trkpt>
      <trkpt lat="49.44107" lon="-1.20397">
        <ele>0.6</ele>
        <time>2022-06-02T10:00:32Z</time>
      </trkpt>
      <trkpt lat="49.44107" lon="-1.20397">
        <ele>0.6</ele>
        <time>2022-06-02T10:00:33Z</time>
      </trkpt>
      <trkpt lat="49.44107" lon="-1.20397">
        <ele>0.6</ele>
        <time>2022-06-02T10:00:34Z</time>
      </trkpt>
      <trkpt lat="49.44107" lon="-1.20397">
        <ele>0.6</ele>
        <time>2022-06-02T10:00:35Z</time>
      </trkpt>
      <trkpt lat="49.44108" lon="-1.20397">
        <ele>0.6</ele>
        <time>2022-06-02T10:00:36Z</time>
      </trkpt>
      <trkpt lat="49.44108" lon="-1.20397">
        <ele>0.6</ele>
        <time>2022-06-02T10:00:37Z</time>
      </trkpt>
      <trkpt lat="49.44108" lon="-1.20397">
        <ele>0.6</ele>
        <time>2022-06-02T10:00:38Z</time>
      </trkpt>
      <trkpt lat="49.44108" lon="-1.20397">
        <ele>0.6</ele>
        <time>2022-06-02T10:00:39Z</time>
      </trkpt>
      <trkpt lat="49.44108" lon="-1.20397">
        <ele>0.6</ele>
        <time>2022-06-02T10:00:40Z</time>
      </trkpt>
      <trkpt lat="49.44108" lon="-1.20397">
        <ele>0.6</ele>
        <time>2022-06-02T10:00:41Z</time>
      </trkpt>
      <trkpt lat="49.44108" lon="-1.20397">
        <ele>0.6</ele>
        <time>2022-06-02T10:00:42Z</time>
      </trkpt>
      <trkpt lat="49.44108" lon="-1.20397">
        <ele>0.6</ele>
        <time>2022-06-02T10:00:43Z</time>
      </trkpt>
      <trkpt lat="49.44108" lon="-1.20397">
        <ele>0.6</ele>
        <time>2022-06-02T10:00:44Z</time>
      </trkpt>
      <trkpt lat="49.44108" lon="-1.20397">
        <ele>0.6</ele>
        <time>2022-06-02T10:00:45Z</time>
      </trkpt>
      <trkpt lat="49.44108" lon="-1.20397">
        <ele>0.6</ele>
        <time>2022-06-02T10:00:46Z</time>
      </trkpt>
      <trkpt lat="49.44108" lon="-1.20397">
        <ele>0.6</ele>
        <time>2022-06-02T10:00:47Z</time>
      </trkpt>
      <trkpt lat="49.44108" lon="-1.20397">
        <ele>0.6</ele>
        <time>2022-06-02T10:00:48Z</time>
      </trkpt>
      <trkpt lat="49.44108" lon="-1.20397">
        <ele>0.6</ele>
        <time>2022-06-02T10:00:49Z</time>
      </trkpt>
      <trkpt lat="49.44108" lon="-1.20397">
        <ele>0.6</ele>
        <time>2022-06-02T10:00:50Z</time>
      </trkpt>
      <trkpt lat="49.44108" lon="-1.20397">
        <ele>0.6</ele>
        <time>2022-06-02T10:00:51Z</time>
      </trkpt>
      <trkpt lat="49.44108" lon="-1.20397">
        <ele>0.6</ele>
        <time>2022-06-02T10:00:52Z</time>
      </trkpt>
      <trkpt lat="49.44108" lon="-1.20397">
        <ele>0.6</ele>
        <time>2022-06-02T10:00:53Z</time>
      </trkpt>
      <trkpt lat="49.44108" lon="-1.20397">
        <ele>0.6</ele>
        <time>2022-06-02T10:00:54Z</time>
      </trkpt>
      <trkpt lat="49.44108" lon="-1.20397">
        <ele>0.6</ele>
        <time>2022-06-02T10:00:55Z</time>
      </trkpt>
      <trkpt lat="49.44108" lon="-1.20397">
        <ele>0.6</ele>
        <time>2022-06-02T10:00:56Z</time>
      </trkpt>
      <trkpt lat="49.44108" lon="-1.20397">
        <ele>0.6</ele>
        <time>2022-06-02T10:00:57Z</time>
      </trkpt>
      <trkpt lat="49.44108" lon="-1.20397">
        <ele>0.6</ele>
        <time>2022-06-02T10:00:58Z</time>
      </trkpt>
      <trkpt lat="49.44108" lon="-1.20397">
        <ele>0.6</ele>
        <time>2022-06-02T10:00:59Z</time>
      </trkpt>
      <trkpt lat="49.44108" lon="-1.20397">
        <ele>0.6</ele>
        <time>2022-06-02T10:01:00Z</time>
      </trkpt>
      <trkpt lat="49.44108" lon="-1.20397">
        <ele>0.6</ele>
        <time>2022-06-02T10:01:01Z</time>
      </trkpt>
      <trkpt lat="49.44108" lon="-1.20397">
        <ele>0.6</ele>
        <time>2022-06-02T10:01:02Z</time>
      </trkpt>
      <trkpt lat="49.44108" lon="-1.20397">
        <ele>0.6</ele>
        <time>2022-06-02T10:01:03Z</time>
      </trkpt>
      <trkpt lat="49.44108" lon="-1.20397">
        <ele>0.6</ele>
        <time>2022-06-02T10:01:04Z</time>
      </trkpt>
      <trkpt lat="49.44108" lon="-1.20397">
        <ele>0.6</ele>
        <time>2022-06-02T10:01:05Z</time>
      </trkpt>
      <trkpt lat="49.44108" lon="-1.20397">
        <ele>0.6</ele>
        <time>2022-06-02T10:01:06Z</time>
      </trkpt>
      <trkpt lat="49.44108" lon="-1.20397">
        <ele>0.6</ele>
        <time>2022-06-02T10:01:07Z</time>
      </trkpt>
      <trkpt lat="49.44108" lon="-1.20397">
        <ele>0.6</ele>
        <time>2022-06-02T10:01:08Z</time>
      </trkpt>
      <trkpt lat="49.44108" lon="-1.20397">
        <ele>0.6</ele>
        <time>2022-06-02T10:01:09Z</time>
      </trkpt>
      <trkpt lat="49.44108" lon="-1.20397">
        <ele>0.6</ele>
        <time>2022-06-02T10:01:10Z</time>
      </trkpt>
      <trkpt lat="49.44108" lon="-1.20397">
        <ele>0.6</ele>
        <time>2022-06-02T10:01:11Z</time>
      </trkpt>
      <trkpt lat="49.44108" lon="-1.20397">
        <ele>0.6</ele>
        <time>2022-06-02T10:01:12Z</time>
      </trkpt>
      <trkpt lat="49.44108" lon="-1.20397">
        <ele>0.6</ele>
        <time>2022-06-02T10:01:13Z</time>
      </trkpt>
      <trkpt lat="49.44108" lon="-1.20397">
        <ele>0.6</ele>
        <time>2022-06-02T10:01:14Z</time>
      </trkpt>
      <trkpt lat="49.44108" lon="-1.20397">
        <ele>0.6</ele>
        <time>2022-06-02T10:01:15Z</time>
      </trkpt>
      <trkpt lat="49.44108" lon="-1.20397">
        <ele>0.6</ele>
        <time>2022-06-02T10:01:16Z</time>
      </trkpt>
      <trkpt lat="49.44108" lon="-1.20397">
        <ele>0.6</ele>
        <time>2022-06-02T10:01:17Z</time>
      </trkpt>
      <trkpt lat="49.44108" lon="-1.20397">
        <ele>0.6</ele>
        <time>2022-06-02T10:01:18Z</time>
      </trkpt>
      <trkpt lat="49.44108" lon="-1.20397">
        <ele>0.6</ele>
        <time>2022-06-02T10:01:19Z</time>
      </trkpt>
      <trkpt lat="49.44108" lon="-1.20397">
        <ele>0.6</ele>
        <time>2022-06-02T10:01:20Z</time>
      </trkpt>
      <trkpt lat="49.44108" lon="-1.20397">
        <ele>0.6</ele>
        <time>2022-06-02T10:01:21Z</time>
      </trkpt>
      <trkpt lat="49.44108" lon="-1.20397">
        <ele>0.6</ele>
        <time>2022-06-02T10:01:22Z</time>
      </trkpt>
      <trkpt lat="49.44108" lon="-1.20397">
        <ele>0.6</ele>
        <time>2022-06-02T10:01:23Z</time>
      </trkpt>
      <trkpt lat="49.44108" lon="-1.20397">
        <ele>0.6</ele>
        <time>2022-06-02T10:01:24Z</time>
      </trkpt>
      <trkpt lat="49.44108" lon="-1.20397">
        <ele>0.6</ele>
        <time>2022-06-02T10:01:25Z</time>
      </trkpt>
      <trkpt lat="49.44108" lon="-1.20397">
        <ele>0.6</ele>
        <time>2022-06-02T10:01:26Z</time>
      </trkpt>
      <trkpt lat="49.44108" lon="-1.20397">
        <ele>0.6</ele>
        <time>2022-06-02T10:01:27Z</time>
      </trkpt>
      <trkpt lat="49.44108" lon="-1.20397">
        <ele>0.6</ele>
        <time>2022-06-02T10:01:28Z</time>
      </trkpt>
      <trkpt lat="49.44108" lon="-1.20397">
        <ele>0.6</ele>
        <time>2022-06-02T10:01:29Z</time>
      </trkpt>
      <trkpt lat="49.44108" lon="-1.20397">
        <ele>0.6</ele>
        <time>2022-06-02T10:01:30Z</time>
      </trkpt>
      <trkpt lat="49.44108" lon="-1.20397">
        <ele>0.6</ele>
        <time>2022-06-02T10:01:31Z</time>
      </trkpt>
      <trkpt lat="49.44108" lon="-1.20397">
        <ele>0.6</ele>
        <time>2022-06-02T10:01:32Z</time>
      </trkpt>
      <trkpt lat="49.44109" lon="-1.20397">
        <ele>0.5</ele>
        <time>2022-06-02T10:01:35Z</time>
      </trkpt>
      <trkpt lat="49.44109" lon="-1.20397">
        <ele>0.5</ele>
        <time>2022-06-02T10:01:36Z</time>
      </trkpt>
      <trkpt lat="49.44109" lon="-1.20397">
        <ele>0.5</ele>
        <time>2022-06-02T10:01:37Z</time>
      </trkpt>
      <trkpt lat="49.44109" lon="-1.20397">
        <ele>0.5</ele>
        <time>2022-06-02T10:01:38Z</time>
      </trkpt>
      <trkpt lat="49.44109" lon="-1.20397">
        <ele>0.5</ele>
        <time>2022-06-02T10:01:39Z</time>
      </trkpt>
      <trkpt lat="49.44109" lon="-1.20397">
        <ele>0.5</ele>
        <time>2022-06-02T10:01:40Z</time>
      </trkpt>
      <trkpt lat="49.44109" lon="-1.20397">
        <ele>0.5</ele>
        <time>2022-06-02T10:01:41Z</time>
      </trkpt>
      <trkpt lat="49.44109" lon="-1.20397">
        <ele>0.5</ele>
        <time>2022-06-02T10:01:42Z</time>
      </trkpt>
      <trkpt lat="49.44109" lon="-1.20397">
        <ele>0.5</ele>
        <time>2022-06-02T10:01:43Z</time>
      </trkpt>
      <trkpt lat="49.44109" lon="-1.20397">
        <ele>0.5</ele>
        <time>2022-06-02T10:01:44Z</time>
      </trkpt>
      <trkpt lat="49.44109" lon="-1.20397">
        <ele>0.5</ele>
        <time>2022-06-02T10:01:45Z</time>
      </trkpt>
      <trkpt lat="49.44109" lon="-1.20397">
        <ele>0.5</ele>
        <time>2022-06-02T10:01:46Z</time>
      </trkpt>
      <trkpt lat="49.44109" lon="-1.20397">
        <ele>0.5</ele>
        <time>2022-06-02T10:01:47Z</time>
      </trkpt>
      <trkpt lat="49.44109" lon="-1.20397">
        <ele>0.5</ele>
        <time>2022-06-02T10:01:48Z</time>
      </trkpt>
      <trkpt lat="49.44109" lon="-1.20397">
        <ele>0.5</ele>
        <time>2022-06-02T10:01:49Z</time>
      </trkpt>
      <trkpt lat="49.44109" lon="-1.20397">
        <ele>0.5</ele>
        <time>2022-06-02T10:01:50Z</time>
      </trkpt>
      <trkpt lat="49.44109" lon="-1.20397">
        <ele>0.5</ele>
        <time>2022-06-02T10:01:51Z</time>
      </trkpt>
      <trkpt lat="49.44109" lon="-1.20397">
        <ele>0.5</ele>
        <time>2022-06-02T10:01:52Z</time>
      </trkpt>
      <trkpt lat="49.44109" lon="-1.20397">
        <ele>0.5</ele>
        <time>2022-06-02T10:01:53Z</time>
      </trkpt>
      <trkpt lat="49.44109" lon="-1.20397">
        <ele>0.5</ele>
        <time>2022-06-02T10:01:54Z</time>
      </trkpt>
      <trkpt lat="49.44109" lon="-1.20397">
        <ele>0.5</ele>
        <time>2022-06-02T10:01:55Z</time>
      </trkpt>
      <trkpt lat="49.44109" lon="-1.20397">
        <ele>0.5</ele>
        <time>2022-06-02T10:01:56Z</time>
      </trkpt>
      <trkpt lat="49.44109" lon="-1.20397">
        <ele>0.5</ele>
        <time>2022-06-02T10:01:57Z</time>
      </trkpt>
      <trkpt lat="49.44109" lon="-1.20397">
        <ele>0.5</ele>
        <time>2022-06-02T10:01:58Z</time>
      </trkpt>
      <trkpt lat="49.44109" lon="-1.20397">
        <ele>0.5</ele>
        <time>2022-06-02T10:01:59Z</time>
      </trkpt>
      <trkpt lat="49.44109" lon="-1.20397">
        <ele>0.5</ele>
        <time>2022-06-02T10:02:00Z</time>
      </trkpt>
      <trkpt lat="49.44109" lon="-1.20397">
        <ele>0.5</ele>
        <time>2022-06-02T10:02:01Z</time>
      </trkpt>
      <trkpt lat="49.44109" lon="-1.20397">
        <ele>0.5</ele>
        <time>2022-06-02T10:02:02Z</time>
      </trkpt>
      <trkpt lat="49.44109" lon="-1.20397">
        <ele>0.5</ele>
        <time>2022-06-02T10:02:03Z</time>
      </trkpt>
      <trkpt lat="49.44109" lon="-1.20397">
        <ele>0.5</ele>
        <time>2022-06-02T10:02:04Z</time>
      </trkpt>
      <trkpt lat="49.44109" lon="-1.20397">
        <ele>0.5</ele>
        <time>2022-06-02T10:02:05Z</time>
      </trkpt>
      <trkpt lat="49.44109" lon="-1.20397">
        <ele>0.5</ele>
        <time>2022-06-02T10:02:06Z</time>
      </trkpt>
      <trkpt lat="49.44109" lon="-1.20397">
        <ele>0.5</ele>
        <time>2022-06-02T10:02:07Z</time>
      </trkpt>
      <trkpt lat="49.44109" lon="-1.20397">
        <ele>0.5</ele>
        <time>2022-06-02T10:02:08Z</time>
      </trkpt>
      <trkpt lat="49.44109" lon="-1.20397">
        <ele>0.5</ele>
        <time>2022-06-02T10:02:09Z</time>
      </trkpt>
      <trkpt lat="49.44109" lon="-1.20397">
        <ele>0.5</ele>
        <time>2022-06-02T10:02:10Z</time>
      </trkpt>
      <trkpt lat="49.44109" lon="-1.20397">
        <ele>0.5</ele>
        <time>2022-06-02T10:02:11Z</time>
      </trkpt>
      <trkpt lat="49.44109" lon="-1.20397">
        <ele>0.5</ele>
        <time>2022-06-02T10:02:12Z</time>
      </trkpt>
      <trkpt lat="49.44109" lon="-1.20397">
        <ele>0.5</ele>
        <time>2022-06-02T10:02:13Z</time>
      </trkpt>
      <trkpt lat="49.44109" lon="-1.20397">
        <ele>0.5</ele>
        <time>2022-06-02T10:02:14Z</time>
      </trkpt>
      <trkpt lat="49.44109" lon="-1.20397">
        <ele>0.5</ele>
        <time>2022-06-02T10:02:15Z</time>
      </trkpt>
      <trkpt lat="49.44109" lon="-1.20397">
        <ele>0.5</ele>
        <time>2022-06-02T10:02:16Z</time>
      </trkpt>
      <trkpt lat="49.44109" lon="-1.20397">
        <ele>0.5</ele>
        <time>2022-06-02T10:02:17Z</time>
      </trkpt>
      <trkpt lat="49.44109" lon="-1.20397">
        <ele>0.5</ele>
        <time>2022-06-02T10:02:18Z</time>
      </trkpt>
      <trkpt lat="49.44109" lon="-1.20397">
        <ele>0.5</ele>
        <time>2022-06-02T10:02:19Z</time>
      </trkpt>
      <trkpt lat="49.44109" lon="-1.20397">
        <ele>0.5</ele>
        <time>2022-06-02T10:02:20Z</time>
      </trkpt>
      <trkpt lat="49.44109" lon="-1.20397">
        <ele>0.5</ele>
        <time>2022-06-02T10:02:21Z</time>
      </trkpt>
      <trkpt lat="49.44109" lon="-1.20397">
        <ele>0.5</ele>
        <time>2022-06-02T10:02:22Z</time>
      </trkpt>
      <trkpt lat="49.44109" lon="-1.20397">
        <ele>0.5</ele>
        <time>2022-06-02T10:02:23Z</time>
      </trkpt>
      <trkpt lat="49.44109" lon="-1.20397">
        <ele>0.5</ele>
        <time>2022-06-02T10:02:24Z</time>
      </trkpt>
      <trkpt lat="49.44109" lon="-1.20397">
        <ele>0.5</ele>
        <time>2022-06-02T10:02:25Z</time>
      </trkpt>
      <trkpt lat="49.44109" lon="-1.20397">
        <ele>0.5</ele>
        <time>2022-06-02T10:02:26Z</time>
      </trkpt>
      <trkpt lat="49.44109" lon="-1.20397">
        <ele>0.5</ele>
        <time>2022-06-02T10:02:27Z</time>
      </trkpt>
      <trkpt lat="49.44109" lon="-1.20397">
        <ele>0.5</ele>
        <time>2022-06-02T10:02:28Z</time>
      </trkpt>
      <trkpt lat="49.44109" lon="-1.20397">
        <ele>0.5</ele>
        <time>2022-06-02T10:02:29Z</time>
      </trkpt>
      <trkpt lat="49.44109" lon="-1.20397">
        <ele>0.5</ele>
        <time>2022-06-02T10:02:30Z</time>
      </trkpt>
      <trkpt lat="49.44109" lon="-1.20397">
        <ele>0.5</ele>
        <time>2022-06-02T10:02:31Z</time>
      </trkpt>
      <trkpt lat="49.44109" lon="-1.20397">
        <ele>0.5</ele>
        <time>2022-06-02T10:02:32Z</time>
      </trkpt>
      <trkpt lat="49.44109" lon="-1.20397">
        <ele>0.5</ele>
        <time>2022-06-02T10:02:33Z</time>
      </trkpt>
      <trkpt lat="49.44109" lon="-1.20397">
        <ele>0.5</ele>
        <time>2022-06-02T10:02:34Z</time>
      </trkpt>
      <trkpt lat="49.44109" lon="-1.20397">
        <ele>0.5</ele>
        <time>2022-06-02T10:02:35Z</time>
      </trkpt>
      <trkpt lat="49.44109" lon="-1.20397">
        <ele>0.5</ele>
        <time>2022-06-02T10:02:36Z</time>
      </trkpt>
      <trkpt lat="49.44109" lon="-1.20397">
        <ele>0.5</ele>
        <time>2022-06-02T10:02:37Z</time>
      </trkpt>
      <trkpt lat="49.44109" lon="-1.20397">
        <ele>0.5</ele>
        <time>2022-06-02T10:02:38Z</time>
      </trkpt>
      <trkpt lat="49.44109" lon="-1.20397">
        <ele>0.5</ele>
        <time>2022-06-02T10:02:39Z</time>
      </trkpt>
      <trkpt lat="49.44109" lon="-1.20397">
        <ele>0.5</ele>
        <time>2022-06-02T10:02:40Z</time>
      </trkpt>
      <trkpt lat="49.44109" lon="-1.20397">
        <ele>0.5</ele>
        <time>2022-06-02T10:02:41Z</time>
      </trkpt>
      <trkpt lat="49.44109" lon="-1.20397">
        <ele>0.5</ele>
        <time>2022-06-02T10:02:42Z</time>
      </trkpt>
      <trkpt lat="49.44109" lon="-1.20397">
        <ele>0.5</ele>
        <time>2022-06-02T10:02:43Z</time>
      </trkpt>
      <trkpt lat="49.44109" lon="-1.20397">
        <ele>0.5</ele>
        <time>2022-06-02T10:02:44Z</time>
      </trkpt>
      <trkpt lat="49.44109" lon="-1.20397">
        <ele>0.5</ele>
        <time>2022-06-02T10:02:45Z</time>
      </trkpt>
      <trkpt lat="49.44109" lon="-1.20396">
        <ele>0.5</ele>
        <time>2022-06-02T10:02:46Z</time>
      </trkpt>
      <trkpt lat="49.44109" lon="-1.20395">
        <ele>0.5</ele>
        <time>2022-06-02T10:02:47Z</time>
      </trkpt>
      <trkpt lat="49.44108" lon="-1.20394">
        <ele>0.5</ele>
        <time>2022-06-02T10:02:48Z</time>
      </trkpt>
      <trkpt lat="49.44107" lon="-1.20393">
        <ele>0.5</ele>
        <time>2022-06-02T10:02:49Z</time>
      </trkpt>
      <trkpt lat="49.44107" lon="-1.20392">
        <ele>0.5</ele>
        <time>2022-06-02T10:02:50Z</time>
      </trkpt>
      <trkpt lat="49.44106" lon="-1.20391">
        <ele>0.5</ele>
        <time>2022-06-02T10:02:51Z</time>
      </trkpt>
      <trkpt lat="49.44106" lon="-1.20391">
        <ele>0.5</ele>
        <time>2022-06-02T10:02:52Z</time>
      </trkpt>
      <trkpt lat="49.44106" lon="-1.20391">
        <ele>0.5</ele>
        <time>2022-06-02T10:02:53Z</time>
      </trkpt>
      <trkpt lat="49.44106" lon="-1.2039">
        <ele>0.5</ele>
        <time>2022-06-02T10:02:54Z</time>
      </trkpt>
      <trkpt lat="49.44106" lon="-1.2039">
        <ele>0.5</ele>
        <time>2022-06-02T10:02:55Z</time>
      </trkpt>
      <trkpt lat="49.44106" lon="-1.20389">
        <ele>0.5</ele>
        <time>2022-06-02T10:02:56Z</time>
      </trkpt>
      <trkpt lat="49.44105" lon="-1.20389">
        <ele>0.5</ele>
        <time>2022-06-02T10:02:57Z</time>
      </trkpt>
      <trkpt lat="49.44104" lon="-1.20389">
        <ele>0.4</ele>
        <time>2022-06-02T10:02:58Z</time>
      </trkpt>
      <trkpt lat="49.44103" lon="-1.20388">
        <ele>0.4</ele>
        <time>2022-06-02T10:02:59Z</time>
      </trkpt>
      <trkpt lat="49.441" lon="-1.20386">
        <ele>0.5</ele>
        <time>2022-06-02T10:03:01Z</time>
      </trkpt>
      <trkpt lat="49.44099" lon="-1.20386">
        <ele>0.5</ele>
        <time>2022-06-02T10:03:02Z</time>
      </trkpt>
      <trkpt lat="49.44098" lon="-1.20385">
        <ele>0.6</ele>
        <time>2022-06-02T10:03:03Z</time>
      </trkpt>
      <trkpt lat="49.44096" lon="-1.20384">
        <ele>0.6</ele>
        <time>2022-06-02T10:03:04Z</time>
      </trkpt>
      <trkpt lat="49.44095" lon="-1.20383">
        <ele>0.6</ele>
        <time>2022-06-02T10:03:05Z</time>
      </trkpt>
      <trkpt lat="49.44093" lon="-1.20381">
        <ele>0.7</ele>
        <time>2022-06-02T10:03:06Z</time>
      </trkpt>
      <trkpt lat="49.44092" lon="-1.2038">
        <ele>0.7</ele>
        <time>2022-06-02T10:03:08Z</time>
      </trkpt>
      <trkpt lat="49.44091" lon="-1.20379">
        <ele>0.7</ele>
        <time>2022-06-02T10:03:09Z</time>
      </trkpt>
      <trkpt lat="49.4409" lon="-1.20378">
        <ele>0.8</ele>
        <time>2022-06-02T10:03:10Z</time>
      </trkpt>
      <trkpt lat="49.44089" lon="-1.20376">
        <ele>0.8</ele>
        <time>2022-06-02T10:03:11Z</time>
      </trkpt>
      <trkpt lat="49.44088" lon="-1.20375">
        <ele>0.8</ele>
        <time>2022-06-02T10:03:12Z</time>
      </trkpt>
      <trkpt lat="49.44087" lon="-1.20375">
        <ele>0.8</ele>
        <time>2022-06-02T10:03:13Z</time>
      </trkpt>
      <trkpt lat="49.44086" lon="-1.20374">
        <ele>0.8</ele>
        <time>2022-06-02T10:03:15Z</time>
      </trkpt>
      <trkpt lat="49.44085" lon="-1.20374">
        <ele>0.9</ele>
        <time>2022-06-02T10:03:16Z</time>
      </trkpt>
      <trkpt lat="49.44084" lon="-1.20375">
        <ele>0.9</ele>
        <time>2022-06-02T10:03:17Z</time>
      </trkpt>
      <trkpt lat="49.44083" lon="-1.20376">
        <ele>0.9</ele>
        <time>2022-06-02T10:03:18Z</time>
      </trkpt>
      <trkpt lat="49.44082" lon="-1.20375">
        <ele>0.9</ele>
        <time>2022-06-02T10:03:19Z</time>
      </trkpt>
      <trkpt lat="49.44082" lon="-1.20374">
        <ele>0.9</ele>
        <time>2022-06-02T10:03:20Z</time>
      </trkpt>
      <trkpt lat="49.44081" lon="-1.20374">
        <ele>0.9</ele>
        <time>2022-06-02T10:03:21Z</time>
      </trkpt>
      <trkpt lat="49.4408" lon="-1.20373">
        <ele>0.9</ele>
        <time>2022-06-02T10:03:22Z</time>
      </trkpt>
      <trkpt lat="49.44081" lon="-1.20373">
        <ele>0.9</ele>
        <time>2022-06-02T10:03:24Z</time>
      </trkpt>
      <trkpt lat="49.4408" lon="-1.20373">
        <ele>0.9</ele>
        <time>2022-06-02T10:03:25Z</time>
      </trkpt>
      <trkpt lat="49.4408" lon="-1.20372">
        <ele>0.9</ele>
        <time>2022-06-02T10:03:26Z</time>
      </trkpt>
      <trkpt lat="49.44079" lon="-1.20371">
        <ele>0.9</ele>
        <time>2022-06-02T10:03:27Z</time>
      </trkpt>
      <trkpt lat="49.44078" lon="-1.2037">
        <ele>0.9</ele>
        <time>2022-06-02T10:03:28Z</time>
      </trkpt>
      <trkpt lat="49.44078" lon="-1.20369">
        <ele>0.9</ele>
        <time>2022-06-02T10:03:29Z</time>
      </trkpt>
      <trkpt lat="49.44078" lon="-1.20368">
        <ele>0.9</ele>
        <time>2022-06-02T10:03:30Z</time>
      </trkpt>
      <trkpt lat="49.44077" lon="-1.20366">
        <ele>0.9</ele>
        <time>2022-06-02T10:03:31Z</time>
      </trkpt>
      <trkpt lat="49.44077" lon="-1.20365">
        <ele>0.9</ele>
        <time>2022-06-02T10:03:33Z</time>
      </trkpt>
      <trkpt lat="49.44077" lon="-1.20363">
        <ele>1</ele>
        <time>2022-06-02T10:03:34Z</time>
      </trkpt>
      <trkpt lat="49.44076" lon="-1.20362">
        <ele>1</ele>
        <time>2022-06-02T10:03:35Z</time>
      </trkpt>
      <trkpt lat="49.44076" lon="-1.2036">
        <ele>1</ele>
        <time>2022-06-02T10:03:36Z</time>
      </trkpt>
      <trkpt lat="49.44075" lon="-1.20359">
        <ele>1</ele>
        <time>2022-06-02T10:03:37Z</time>
      </trkpt>
      <trkpt lat="49.44074" lon="-1.20358">
        <ele>1</ele>
        <time>2022-06-02T10:03:38Z</time>
      </trkpt>
      <trkpt lat="49.44074" lon="-1.20357">
        <ele>1</ele>
        <time>2022-06-02T10:03:39Z</time>
      </trkpt>
      <trkpt lat="49.44073" lon="-1.20356">
        <ele>1</ele>
        <time>2022-06-02T10:03:40Z</time>
      </trkpt>
      <trkpt lat="49.44072" lon="-1.20355">
        <ele>1</ele>
        <time>2022-06-02T10:03:42Z</time>
      </trkpt>
      <trkpt lat="49.44071" lon="-1.20354">
        <ele>1</ele>
        <time>2022-06-02T10:03:43Z</time>
      </trkpt>
      <trkpt lat="49.4407" lon="-1.20353">
        <ele>1</ele>
        <time>2022-06-02T10:03:44Z</time>
      </trkpt>
      <trkpt lat="49.44069" lon="-1.20352">
        <ele>1</ele>
        <time>2022-06-02T10:03:45Z</time>
      </trkpt>
      <trkpt lat="49.44068" lon="-1.2035">
        <ele>1</ele>
        <time>2022-06-02T10:03:46Z</time>
      </trkpt>
      <trkpt lat="49.44067" lon="-1.20349">
        <ele>1</ele>
        <time>2022-06-02T10:03:47Z</time>
      </trkpt>
      <trkpt lat="49.44065" lon="-1.20348">
        <ele>1</ele>
        <time>2022-06-02T10:03:48Z</time>
      </trkpt>
      <trkpt lat="49.44064" lon="-1.20347">
        <ele>1.1</ele>
        <time>2022-06-02T10:03:50Z</time>
      </trkpt>
      <trkpt lat="49.44063" lon="-1.20347">
        <ele>1.1</ele>
        <time>2022-06-02T10:03:51Z</time>
      </trkpt>
      <trkpt lat="49.44062" lon="-1.20345">
        <ele>1.1</ele>
        <time>2022-06-02T10:03:52Z</time>
      </trkpt>
      <trkpt lat="49.44061" lon="-1.20344">
        <ele>1.1</ele>
        <time>2022-06-02T10:03:53Z</time>
      </trkpt>
      <trkpt lat="49.44059" lon="-1.20341">
        <ele>1.1</ele>
        <time>2022-06-02T10:03:54Z</time>
      </trkpt>
      <trkpt lat="49.44059" lon="-1.2034">
        <ele>1.1</ele>
        <time>2022-06-02T10:03:55Z</time>
      </trkpt>
      <trkpt lat="49.44058" lon="-1.20337">
        <ele>1.1</ele>
        <time>2022-06-02T10:03:57Z</time>
      </trkpt>
      <trkpt lat="49.44057" lon="-1.20336">
        <ele>1.1</ele>
        <time>2022-06-02T10:03:58Z</time>
      </trkpt>
      <trkpt lat="49.44057" lon="-1.20335">
        <ele>1.1</ele>
        <time>2022-06-02T10:03:59Z</time>
      </trkpt>
      <trkpt lat="49.44055" lon="-1.20333">
        <ele>1.1</ele>
        <time>2022-06-02T10:04:00Z</time>
      </trkpt>
      <trkpt lat="49.44055" lon="-1.20332">
        <ele>1.1</ele>
        <time>2022-06-02T10:04:01Z</time>
      </trkpt>
      <trkpt lat="49.44053" lon="-1.2033">
        <ele>1.1</ele>
        <time>2022-06-02T10:04:02Z</time>
      </trkpt>
      <trkpt lat="49.44052" lon="-1.20329">
        <ele>1.1</ele>
        <time>2022-06-02T10:04:03Z</time>
      </trkpt>
      <trkpt lat="49.44052" lon="-1.20328">
        <ele>1.1</ele>
        <time>2022-06-02T10:04:04Z</time>
      </trkpt>
      <trkpt lat="49.44051" lon="-1.20327">
        <ele>1.1</ele>
        <time>2022-06-02T10:04:05Z</time>
      </trkpt>
      <trkpt lat="49.4405" lon="-1.20326">
        <ele>1.1</ele>
        <time>2022-06-02T10:04:07Z</time>
      </trkpt>
      <trkpt lat="49.44049" lon="-1.20325">
        <ele>1.1</ele>
        <time>2022-06-02T10:04:08Z</time>
      </trkpt>
      <trkpt lat="49.44048" lon="-1.20324">
        <ele>1.1</ele>
        <time>2022-06-02T10:04:09Z</time>
      </trkpt>
      <trkpt lat="49.44046" lon="-1.20323">
        <ele>1.1</ele>
        <time>2022-06-02T10:04:10Z</time>
      </trkpt>
      <trkpt lat="49.44045" lon="-1.20323">
        <ele>1.1</ele>
        <time>2022-06-02T10:04:11Z</time>
      </trkpt>
      <trkpt lat="49.44044" lon="-1.20322">
        <ele>1.1</ele>
        <time>2022-06-02T10:04:12Z</time>
      </trkpt>
      <trkpt lat="49.44043" lon="-1.20321">
        <ele>1.1</ele>
        <time>2022-06-02T10:04:13Z</time>
      </trkpt>
      <trkpt lat="49.44042" lon="-1.20319">
        <ele>1.1</ele>
        <time>2022-06-02T10:04:15Z</time>
      </trkpt>
      <trkpt lat="49.44041" lon="-1.20319">
        <ele>1.1</ele>
        <time>2022-06-02T10:04:16Z</time>
      </trkpt>
      <trkpt lat="49.4404" lon="-1.20319">
        <ele>1.1</ele>
        <time>2022-06-02T10:04:17Z</time>
      </trkpt>
      <trkpt lat="49.44038" lon="-1.20317">
        <ele>1.1</ele>
        <time>2022-06-02T10:04:18Z</time>
      </trkpt>
      <trkpt lat="49.44037" lon="-1.20317">
        <ele>1.1</ele>
        <time>2022-06-02T10:04:19Z</time>
      </trkpt>
      <trkpt lat="49.44036" lon="-1.20316">
        <ele>1.1</ele>
        <time>2022-06-02T10:04:20Z</time>
      </trkpt>
      <trkpt lat="49.44036" lon="-1.20316">
        <ele>1.1</ele>
        <time>2022-06-02T10:04:21Z</time>
      </trkpt>
      <trkpt lat="49.44035" lon="-1.20314">
        <ele>1.1</ele>
        <time>2022-06-02T10:04:23Z</time>
      </trkpt>
      <trkpt lat="49.44034" lon="-1.20313">
        <ele>1.1</ele>
        <time>2022-06-02T10:04:24Z</time>
      </trkpt>
      <trkpt lat="49.44033" lon="-1.20311">
        <ele>1.1</ele>
        <time>2022-06-02T10:04:25Z</time>
      </trkpt>
      <trkpt lat="49.44033" lon="-1.2031">
        <ele>1.1</ele>
        <time>2022-06-02T10:04:26Z</time>
      </trkpt>
      <trkpt lat="49.44032" lon="-1.20309">
        <ele>1.1</ele>
        <time>2022-06-02T10:04:27Z</time>
      </trkpt>
      <trkpt lat="49.44031" lon="-1.20309">
        <ele>1.1</ele>
        <time>2022-06-02T10:04:28Z</time>
      </trkpt>
      <trkpt lat="49.44029" lon="-1.20308">
        <ele>1.1</ele>
        <time>2022-06-02T10:04:29Z</time>
      </trkpt>
      <trkpt lat="49.44029" lon="-1.20307">
        <ele>1.1</ele>
        <time>2022-06-02T10:04:31Z</time>
      </trkpt>
      <trkpt lat="49.44028" lon="-1.20307">
        <ele>1.1</ele>
        <time>2022-06-02T10:04:32Z</time>
      </trkpt>
      <trkpt lat="49.44027" lon="-1.20306">
        <ele>1.1</ele>
        <time>2022-06-02T10:04:33Z</time>
      </trkpt>
      <trkpt lat="49.44026" lon="-1.20305">
        <ele>1.1</ele>
        <time>2022-06-02T10:04:34Z</time>
      </trkpt>
      <trkpt lat="49.44025" lon="-1.20303">
        <ele>1.1</ele>
        <time>2022-06-02T10:04:35Z</time>
      </trkpt>
      <trkpt lat="49.44024" lon="-1.20303">
        <ele>1.1</ele>
        <time>2022-06-02T10:04:36Z</time>
      </trkpt>
      <trkpt lat="49.44023" lon="-1.20302">
        <ele>1.1</ele>
        <time>2022-06-02T10:04:37Z</time>
      </trkpt>
      <trkpt lat="49.44022" lon="-1.203">
        <ele>1.1</ele>
        <time>2022-06-02T10:04:39Z</time>
      </trkpt>
      <trkpt lat="49.44021" lon="-1.20298">
        <ele>1.2</ele>
        <time>2022-06-02T10:04:40Z</time>
      </trkpt>
      <trkpt lat="49.44021" lon="-1.20297">
        <ele>1.2</ele>
        <time>2022-06-02T10:04:41Z</time>
      </trkpt>
      <trkpt lat="49.44021" lon="-1.20296">
        <ele>1.2</ele>
        <time>2022-06-02T10:04:42Z</time>
      </trkpt>
      <trkpt lat="49.4402" lon="-1.20294">
        <ele>1.2</ele>
        <time>2022-06-02T10:04:43Z</time>
      </trkpt>
      <trkpt lat="49.44019" lon="-1.20291">
        <ele>1.2</ele>
        <time>2022-06-02T10:04:44Z</time>
      </trkpt>
      <trkpt lat="49.44018" lon="-1.2029">
        <ele>1.2</ele>
        <time>2022-06-02T10:04:45Z</time>
      </trkpt>
      <trkpt lat="49.44018" lon="-1.20289">
        <ele>1.2</ele>
        <time>2022-06-02T10:04:47Z</time>
      </trkpt>
      <trkpt lat="49.44017" lon="-1.20287">
        <ele>1.2</ele>
        <time>2022-06-02T10:04:48Z</time>
      </trkpt>
      <trkpt lat="49.44017" lon="-1.20286">
        <ele>1.2</ele>
        <time>2022-06-02T10:04:49Z</time>
      </trkpt>
      <trkpt lat="49.44016" lon="-1.20285">
        <ele>1.2</ele>
        <time>2022-06-02T10:04:50Z</time>
      </trkpt>
      <trkpt lat="49.44016" lon="-1.20283">
        <ele>1.2</ele>
        <time>2022-06-02T10:04:51Z</time>
      </trkpt>
      <trkpt lat="49.44015" lon="-1.20282">
        <ele>1.2</ele>
        <time>2022-06-02T10:04:52Z</time>
      </trkpt>
      <trkpt lat="49.44014" lon="-1.20281">
        <ele>1.2</ele>
        <time>2022-06-02T10:04:54Z</time>
      </trkpt>
      <trkpt lat="49.44013" lon="-1.20279">
        <ele>1.2</ele>
        <time>2022-06-02T10:04:55Z</time>
      </trkpt>
      <trkpt lat="49.44012" lon="-1.20278">
        <ele>1.2</ele>
        <time>2022-06-02T10:04:56Z</time>
      </trkpt>
      <trkpt lat="49.44012" lon="-1.20277">
        <ele>1.2</ele>
        <time>2022-06-02T10:04:57Z</time>
      </trkpt>
      <trkpt lat="49.4401" lon="-1.20274">
        <ele>1.2</ele>
        <time>2022-06-02T10:04:58Z</time>
      </trkpt>
      <trkpt lat="49.4401" lon="-1.20273">
        <ele>1.2</ele>
        <time>2022-06-02T10:04:59Z</time>
      </trkpt>
      <trkpt lat="49.44009" lon="-1.20272">
        <ele>1.2</ele>
        <time>2022-06-02T10:05:00Z</time>
      </trkpt>
      <trkpt lat="49.44009" lon="-1.20271">
        <ele>1.2</ele>
        <time>2022-06-02T10:05:02Z</time>
      </trkpt>
      <trkpt lat="49.44008" lon="-1.2027">
        <ele>1.2</ele>
        <time>2022-06-02T10:05:03Z</time>
      </trkpt>
      <trkpt lat="49.44007" lon="-1.20269">
        <ele>1.2</ele>
        <time>2022-06-02T10:05:04Z</time>
      </trkpt>
      <trkpt lat="49.44006" lon="-1.20268">
        <ele>1.2</ele>
        <time>2022-06-02T10:05:05Z</time>
      </trkpt>
      <trkpt lat="49.44005" lon="-1.20268">
        <ele>1.2</ele>
        <time>2022-06-02T10:05:06Z</time>
      </trkpt>
      <trkpt lat="49.44004" lon="-1.20267">
        <ele>1.2</ele>
        <time>2022-06-02T10:05:07Z</time>
      </trkpt>
      <trkpt lat="49.44003" lon="-1.20266">
        <ele>1.2</ele>
        <time>2022-06-02T10:05:08Z</time>
      </trkpt>
      <trkpt lat="49.44002" lon="-1.20265">
        <ele>1.2</ele>
        <time>2022-06-02T10:05:10Z</time>
      </trkpt>
      <trkpt lat="49.44001" lon="-1.20264">
        <ele>1.3</ele>
        <time>2022-06-02T10:05:11Z</time>
      </trkpt>
      <trkpt lat="49.44" lon="-1.20264">
        <ele>1.3</ele>
        <time>2022-06-02T10:05:12Z</time>
      </trkpt>
      <trkpt lat="49.43999" lon="-1.20263">
        <ele>1.3</ele>
        <time>2022-06-02T10:05:13Z</time>
      </trkpt>
      <trkpt lat="49.43999" lon="-1.20262">
        <ele>1.3</ele>
        <time>2022-06-02T10:05:14Z</time>
      </trkpt>
      <trkpt lat="49.43998" lon="-1.2026">
        <ele>1.3</ele>
        <time>2022-06-02T10:05:15Z</time>
      </trkpt>
      <trkpt lat="49.43997" lon="-1.20259">
        <ele>1.4</ele>
        <time>2022-06-02T10:05:17Z</time>
      </trkpt>
      <trkpt lat="49.43996" lon="-1.20258">
        <ele>1.4</ele>
        <time>2022-06-02T10:05:18Z</time>
      </trkpt>
      <trkpt lat="49.43996" lon="-1.20257">
        <ele>1.4</ele>
        <time>2022-06-02T10:05:19Z</time>
      </trkpt>
      <trkpt lat="49.43995" lon="-1.20256">
        <ele>1.4</ele>
        <time>2022-06-02T10:05:20Z</time>
      </trkpt>
      <trkpt lat="49.43994" lon="-1.20255">
        <ele>1.4</ele>
        <time>2022-06-02T10:05:22Z</time>
      </trkpt>
      <trkpt lat="49.43993" lon="-1.20254">
        <ele>1.4</ele>
        <time>2022-06-02T10:05:23Z</time>
      </trkpt>
      <trkpt lat="49.43992" lon="-1.20253">
        <ele>1.4</ele>
        <time>2022-06-02T10:05:24Z</time>
      </trkpt>
      <trkpt lat="49.43992" lon="-1.20252">
        <ele>1.4</ele>
        <time>2022-06-02T10:05:25Z</time>
      </trkpt>
      <trkpt lat="49.43991" lon="-1.20251">
        <ele>1.4</ele>
        <time>2022-06-02T10:05:27Z</time>
      </trkpt>
      <trkpt lat="49.4399" lon="-1.2025">
        <ele>1.4</ele>
        <time>2022-06-02T10:05:28Z</time>
      </trkpt>
      <trkpt lat="49.4399" lon="-1.20249">
        <ele>1.4</ele>
        <time>2022-06-02T10:05:29Z</time>
      </trkpt>
      <trkpt lat="49.43989" lon="-1.20248">
        <ele>1.4</ele>
        <time>2022-06-02T10:05:30Z</time>
      </trkpt>
      <trkpt lat="49.43989" lon="-1.20247">
        <ele>1.4</ele>
        <time>2022-06-02T10:05:31Z</time>
      </trkpt>
      <trkpt lat="49.43988" lon="-1.20245">
        <ele>1.4</ele>
        <time>2022-06-02T10:05:32Z</time>
      </trkpt>
      <trkpt lat="49.43987" lon="-1.20244">
        <ele>1.4</ele>
        <time>2022-06-02T10:05:34Z</time>
      </trkpt>
      <trkpt lat="49.43987" lon="-1.20243">
        <ele>1.4</ele>
        <time>2022-06-02T10:05:35Z</time>
      </trkpt>
      <trkpt lat="49.43986" lon="-1.20242">
        <ele>1.4</ele>
        <time>2022-06-02T10:05:36Z</time>
      </trkpt>
      <trkpt lat="49.43985" lon="-1.20241">
        <ele>1.4</ele>
        <time>2022-06-02T10:05:37Z</time>
      </trkpt>
      <trkpt lat="49.43985" lon="-1.20239">
        <ele>1.4</ele>
        <time>2022-06-02T10:05:38Z</time>
      </trkpt>
      <trkpt lat="49.43983" lon="-1.20237">
        <ele>1.4</ele>
        <time>2022-06-02T10:05:39Z</time>
      </trkpt>
      <trkpt lat="49.43983" lon="-1.20236">
        <ele>1.4</ele>
        <time>2022-06-02T10:05:41Z</time>
      </trkpt>
      <trkpt lat="49.43982" lon="-1.20235">
        <ele>1.4</ele>
        <time>2022-06-02T10:05:42Z</time>
      </trkpt>
      <trkpt lat="49.43981" lon="-1.20234">
        <ele>1.4</ele>
        <time>2022-06-02T10:05:43Z</time>
      </trkpt>
      <trkpt lat="49.4398" lon="-1.20233">
        <ele>1.4</ele>
        <time>2022-06-02T10:05:44Z</time>
      </trkpt>
      <trkpt lat="49.43979" lon="-1.20232">
        <ele>1.4</ele>
        <time>2022-06-02T10:05:45Z</time>
      </trkpt>
      <trkpt lat="49.43978" lon="-1.2023">
        <ele>1.4</ele>
        <time>2022-06-02T10:05:46Z</time>
      </trkpt>
      <trkpt lat="49.43977" lon="-1.20229">
        <ele>1.4</ele>
        <time>2022-06-02T10:05:47Z</time>
      </trkpt>
      <trkpt lat="49.43976" lon="-1.20228">
        <ele>1.4</ele>
        <time>2022-06-02T10:05:49Z</time>
      </trkpt>
      <trkpt lat="49.43975" lon="-1.20227">
        <ele>1.4</ele>
        <time>2022-06-02T10:05:50Z</time>
      </trkpt>
      <trkpt lat="49.43974" lon="-1.20226">
        <ele>1.4</ele>
        <time>2022-06-02T10:05:51Z</time>
      </trkpt>
      <trkpt lat="49.43973" lon="-1.20225">
        <ele>1.4</ele>
        <time>2022-06-02T10:05:52Z</time>
      </trkpt>
      <trkpt lat="49.43973" lon="-1.20224">
        <ele>1.4</ele>
        <time>2022-06-02T10:05:53Z</time>
      </trkpt>
      <trkpt lat="49.43971" lon="-1.20223">
        <ele>1.4</ele>
        <time>2022-06-02T10:05:54Z</time>
      </trkpt>
      <trkpt lat="49.4397" lon="-1.20222">
        <ele>1.4</ele>
        <time>2022-06-02T10:05:56Z</time>
      </trkpt>
      <trkpt lat="49.43969" lon="-1.2022">
        <ele>1.4</ele>
        <time>2022-06-02T10:05:57Z</time>
      </trkpt>
      <trkpt lat="49.43968" lon="-1.20219">
        <ele>1.4</ele>
        <time>2022-06-02T10:05:58Z</time>
      </trkpt>
      <trkpt lat="49.43967" lon="-1.20217">
        <ele>1.4</ele>
        <time>2022-06-02T10:05:59Z</time>
      </trkpt>
      <trkpt lat="49.43966" lon="-1.20216">
        <ele>1.4</ele>
        <time>2022-06-02T10:06:00Z</time>
      </trkpt>
      <trkpt lat="49.43964" lon="-1.20215">
        <ele>1.4</ele>
        <time>2022-06-02T10:06:01Z</time>
      </trkpt>
      <trkpt lat="49.43963" lon="-1.20214">
        <ele>1.4</ele>
        <time>2022-06-02T10:06:02Z</time>
      </trkpt>
      <trkpt lat="49.43962" lon="-1.20213">
        <ele>1.4</ele>
        <time>2022-06-02T10:06:04Z</time>
      </trkpt>
      <trkpt lat="49.43961" lon="-1.20212">
        <ele>1.4</ele>
        <time>2022-06-02T10:06:05Z</time>
      </trkpt>
      <trkpt lat="49.43961" lon="-1.20212">
        <ele>1.5</ele>
        <time>2022-06-02T10:06:06Z</time>
      </trkpt>
      <trkpt lat="49.4396" lon="-1.20211">
        <ele>1.5</ele>
        <time>2022-06-02T10:06:07Z</time>
      </trkpt>
      <trkpt lat="49.43959" lon="-1.2021">
        <ele>1.5</ele>
        <time>2022-06-02T10:06:08Z</time>
      </trkpt>
      <trkpt lat="49.43958" lon="-1.20209">
        <ele>1.5</ele>
        <time>2022-06-02T10:06:09Z</time>
      </trkpt>
      <trkpt lat="49.43956" lon="-1.20208">
        <ele>1.5</ele>
        <time>2022-06-02T10:06:11Z</time>
      </trkpt>
      <trkpt lat="49.43956" lon="-1.20207">
        <ele>1.5</ele>
        <time>2022-06-02T10:06:12Z</time>
      </trkpt>
      <trkpt lat="49.43955" lon="-1.20206">
        <ele>1.5</ele>
        <time>2022-06-02T10:06:13Z</time>
      </trkpt>
      <trkpt lat="49.43954" lon="-1.20205">
        <ele>1.5</ele>
        <time>2022-06-02T10:06:14Z</time>
      </trkpt>
      <trkpt lat="49.43953" lon="-1.20204">
        <ele>1.5</ele>
        <time>2022-06-02T10:06:15Z</time>
      </trkpt>
      <trkpt lat="49.43952" lon="-1.20203">
        <ele>1.6</ele>
        <time>2022-06-02T10:06:16Z</time>
      </trkpt>
      <trkpt lat="49.43952" lon="-1.20201">
        <ele>1.6</ele>
        <time>2022-06-02T10:06:17Z</time>
      </trkpt>
      <trkpt lat="49.43951" lon="-1.202">
        <ele>1.6</ele>
        <time>2022-06-02T10:06:19Z</time>
      </trkpt>
      <trkpt lat="49.43951" lon="-1.20199">
        <ele>1.6</ele>
        <time>2022-06-02T10:06:20Z</time>
      </trkpt>
      <trkpt lat="49.43951" lon="-1.20198">
        <ele>1.6</ele>
        <time>2022-06-02T10:06:21Z</time>
      </trkpt>
      <trkpt lat="49.4395" lon="-1.20197">
        <ele>1.6</ele>
        <time>2022-06-02T10:06:22Z</time>
      </trkpt>
      <trkpt lat="49.43949" lon="-1.20195">
        <ele>1.6</ele>
        <time>2022-06-02T10:06:23Z</time>
      </trkpt>
      <trkpt lat="49.43949" lon="-1.20194">
        <ele>1.6</ele>
        <time>2022-06-02T10:06:24Z</time>
      </trkpt>
      <trkpt lat="49.43947" lon="-1.20192">
        <ele>1.6</ele>
        <time>2022-06-02T10:06:26Z</time>
      </trkpt>
      <trkpt lat="49.43947" lon="-1.20191">
        <ele>1.6</ele>
        <time>2022-06-02T10:06:27Z</time>
      </trkpt>
      <trkpt lat="49.43946" lon="-1.2019">
        <ele>1.7</ele>
        <time>2022-06-02T10:06:28Z</time>
      </trkpt>
      <trkpt lat="49.43945" lon="-1.20189">
        <ele>1.7</ele>
        <time>2022-06-02T10:06:29Z</time>
      </trkpt>
      <trkpt lat="49.43944" lon="-1.20188">
        <ele>1.7</ele>
        <time>2022-06-02T10:06:30Z</time>
      </trkpt>
      <trkpt lat="49.43943" lon="-1.20186">
        <ele>1.7</ele>
        <time>2022-06-02T10:06:31Z</time>
      </trkpt>
      <trkpt lat="49.43942" lon="-1.20185">
        <ele>1.7</ele>
        <time>2022-06-02T10:06:33Z</time>
      </trkpt>
      <trkpt lat="49.43942" lon="-1.20184">
        <ele>1.7</ele>
        <time>2022-06-02T10:06:34Z</time>
      </trkpt>
      <trkpt lat="49.43941" lon="-1.20183">
        <ele>1.7</ele>
        <time>2022-06-02T10:06:35Z</time>
      </trkpt>
      <trkpt lat="49.43941" lon="-1.20181">
        <ele>1.8</ele>
        <time>2022-06-02T10:06:36Z</time>
      </trkpt>
      <trkpt lat="49.4394" lon="-1.2018">
        <ele>1.8</ele>
        <time>2022-06-02T10:06:37Z</time>
      </trkpt>
      <trkpt lat="49.4394" lon="-1.20179">
        <ele>1.8</ele>
        <time>2022-06-02T10:06:38Z</time>
      </trkpt>
      <trkpt lat="49.43939" lon="-1.20177">
        <ele>1.8</ele>
        <time>2022-06-02T10:06:39Z</time>
      </trkpt>
      <trkpt lat="49.43938" lon="-1.20175">
        <ele>1.8</ele>
        <time>2022-06-02T10:06:41Z</time>
      </trkpt>
      <trkpt lat="49.43938" lon="-1.20174">
        <ele>1.8</ele>
        <time>2022-06-02T10:06:42Z</time>
      </trkpt>
      <trkpt lat="49.43936" lon="-1.20172">
        <ele>1.9</ele>
        <time>2022-06-02T10:06:43Z</time>
      </trkpt>
      <trkpt lat="49.43936" lon="-1.20171">
        <ele>1.9</ele>
        <time>2022-06-02T10:06:44Z</time>
      </trkpt>
      <trkpt lat="49.43935" lon="-1.2017">
        <ele>1.9</ele>
        <time>2022-06-02T10:06:45Z</time>
      </trkpt>
      <trkpt lat="49.43933" lon="-1.20168">
        <ele>1.9</ele>
        <time>2022-06-02T10:06:46Z</time>
      </trkpt>
      <trkpt lat="49.43933" lon="-1.20167">
        <ele>1.9</ele>
        <time>2022-06-02T10:06:48Z</time>
      </trkpt>
      <trkpt lat="49.43932" lon="-1.20166">
        <ele>2</ele>
        <time>2022-06-02T10:06:49Z</time>
      </trkpt>
      <trkpt lat="49.43931" lon="-1.20165">
        <ele>2</ele>
        <time>2022-06-02T10:06:50Z</time>
      </trkpt>
      <trkpt lat="49.4393" lon="-1.20166">
        <ele>2</ele>
        <time>2022-06-02T10:06:51Z</time>
      </trkpt>
      <trkpt lat="49.43928" lon="-1.20165">
        <ele>2.1</ele>
        <time>2022-06-02T10:06:53Z</time>
      </trkpt>
      <trkpt lat="49.43927" lon="-1.20165">
        <ele>2.1</ele>
        <time>2022-06-02T10:06:54Z</time>
      </trkpt>
      <trkpt lat="49.43927" lon="-1.20164">
        <ele>2.1</ele>
        <time>2022-06-02T10:06:55Z</time>
      </trkpt>
      <trkpt lat="49.43926" lon="-1.20163">
        <ele>2.1</ele>
        <time>2022-06-02T10:06:56Z</time>
      </trkpt>
      <trkpt lat="49.43926" lon="-1.20161">
        <ele>2.1</ele>
        <time>2022-06-02T10:06:58Z</time>
      </trkpt>
      <trkpt lat="49.43927" lon="-1.20161">
        <ele>2.2</ele>
        <time>2022-06-02T10:06:59Z</time>
      </trkpt>
      <trkpt lat="49.43928" lon="-1.20161">
        <ele>2.2</ele>
        <time>2022-06-02T10:07:00Z</time>
      </trkpt>
      <trkpt lat="49.43929" lon="-1.20161">
        <ele>2.2</ele>
        <time>2022-06-02T10:07:01Z</time>
      </trkpt>
      <trkpt lat="49.4393" lon="-1.20161">
        <ele>2.2</ele>
        <time>2022-06-02T10:07:02Z</time>
      </trkpt>
      <trkpt lat="49.4393" lon="-1.20161">
        <ele>2.2</ele>
        <time>2022-06-02T10:07:03Z</time>
      </trkpt>
      <trkpt lat="49.4393" lon="-1.20161">
        <ele>2.2</ele>
        <time>2022-06-02T10:07:04Z</time>
      </trkpt>
      <trkpt lat="49.43931" lon="-1.20161">
        <ele>2.2</ele>
        <time>2022-06-02T10:07:05Z</time>
      </trkpt>
      <trkpt lat="49.43931" lon="-1.20161">
        <ele>2.3</ele>
        <time>2022-06-02T10:07:06Z</time>
      </trkpt>
      <trkpt lat="49.43931" lon="-1.20161">
        <ele>2.3</ele>
        <time>2022-06-02T10:07:07Z</time>
      </trkpt>
      <trkpt lat="49.43931" lon="-1.20161">
        <ele>2.3</ele>
        <time>2022-06-02T10:07:08Z</time>
      </trkpt>
      <trkpt lat="49.43931" lon="-1.20161">
        <ele>2.3</ele>
        <time>2022-06-02T10:07:09Z</time>
      </trkpt>
      <trkpt lat="49.4393" lon="-1.2016">
        <ele>2.3</ele>
        <time>2022-06-02T10:07:11Z</time>
      </trkpt>
      <trkpt lat="49.4393" lon="-1.2016">
        <ele>2.3</ele>
        <time>2022-06-02T10:07:12Z</time>
      </trkpt>
      <trkpt lat="49.43929" lon="-1.20159">
        <ele>2.3</ele>
        <time>2022-06-02T10:07:13Z</time>
      </trkpt>
      <trkpt lat="49.43928" lon="-1.20159">
        <ele>2.3</ele>
        <time>2022-06-02T10:07:14Z</time>
      </trkpt>
      <trkpt lat="49.43927" lon="-1.20158">
        <ele>2.4</ele>
        <time>2022-06-02T10:07:15Z</time>
      </trkpt>
      <trkpt lat="49.43926" lon="-1.20157">
        <ele>2.4</ele>
        <time>2022-06-02T10:07:16Z</time>
      </trkpt>
      <trkpt lat="49.43924" lon="-1.20155">
        <ele>2.4</ele>
        <time>2022-06-02T10:07:18Z</time>
      </trkpt>
      <trkpt lat="49.43922" lon="-1.20154">
        <ele>2.5</ele>
        <time>2022-06-02T10:07:19Z</time>
      </trkpt>
      <trkpt lat="49.43921" lon="-1.20154">
        <ele>2.5</ele>
        <time>2022-06-02T10:07:20Z</time>
      </trkpt>
      <trkpt lat="49.43919" lon="-1.20153">
        <ele>2.5</ele>
        <time>2022-06-02T10:07:21Z</time>
      </trkpt>
      <trkpt lat="49.43918" lon="-1.20152">
        <ele>2.5</ele>
        <time>2022-06-02T10:07:22Z</time>
      </trkpt>
      <trkpt lat="49.43917" lon="-1.20151">
        <ele>2.5</ele>
        <time>2022-06-02T10:07:23Z</time>
      </trkpt>
      <trkpt lat="49.43915" lon="-1.2015">
        <ele>2.5</ele>
        <time>2022-06-02T10:07:24Z</time>
      </trkpt>
      <trkpt lat="49.43914" lon="-1.20149">
        <ele>2.5</ele>
        <time>2022-06-02T10:07:26Z</time>
      </trkpt>
      <trkpt lat="49.43913" lon="-1.20148">
        <ele>2.5</ele>
        <time>2022-06-02T10:07:27Z</time>
      </trkpt>
      <trkpt lat="49.43912" lon="-1.20147">
        <ele>2.5</ele>
        <time>2022-06-02T10:07:28Z</time>
      </trkpt>
      <trkpt lat="49.43911" lon="-1.20145">
        <ele>2.5</ele>
        <time>2022-06-02T10:07:29Z</time>
      </trkpt>
      <trkpt lat="49.4391" lon="-1.20145">
        <ele>2.5</ele>
        <time>2022-06-02T10:07:30Z</time>
      </trkpt>
      <trkpt lat="49.43909" lon="-1.20144">
        <ele>2.5</ele>
        <time>2022-06-02T10:07:31Z</time>
      </trkpt>
      <trkpt lat="49.43909" lon="-1.20143">
        <ele>2.5</ele>
        <time>2022-06-02T10:07:33Z</time>
      </trkpt>
      <trkpt lat="49.43908" lon="-1.20142">
        <ele>2.5</ele>
        <time>2022-06-02T10:07:34Z</time>
      </trkpt>
      <trkpt lat="49.43907" lon="-1.20141">
        <ele>2.5</ele>
        <time>2022-06-02T10:07:35Z</time>
      </trkpt>
      <trkpt lat="49.43906" lon="-1.2014">
        <ele>2.5</ele>
        <time>2022-06-02T10:07:36Z</time>
      </trkpt>
      <trkpt lat="49.43906" lon="-1.20139">
        <ele>2.4</ele>
        <time>2022-06-02T10:07:37Z</time>
      </trkpt>
      <trkpt lat="49.43905" lon="-1.20137">
        <ele>2.4</ele>
        <time>2022-06-02T10:07:38Z</time>
      </trkpt>
      <trkpt lat="49.43904" lon="-1.20135">
        <ele>2.4</ele>
        <time>2022-06-02T10:07:40Z</time>
      </trkpt>
      <trkpt lat="49.43904" lon="-1.20134">
        <ele>2.4</ele>
        <time>2022-06-02T10:07:41Z</time>
      </trkpt>
      <trkpt lat="49.43903" lon="-1.20133">
        <ele>2.4</ele>
        <time>2022-06-02T10:07:42Z</time>
      </trkpt>
      <trkpt lat="49.43903" lon="-1.20132">
        <ele>2.4</ele>
        <time>2022-06-02T10:07:43Z</time>
      </trkpt>
      <trkpt lat="49.43901" lon="-1.2013">
        <ele>2.4</ele>
        <time>2022-06-02T10:07:45Z</time>
      </trkpt>
      <trkpt lat="49.439" lon="-1.20129">
        <ele>2.4</ele>
        <time>2022-06-02T10:07:46Z</time>
      </trkpt>
      <trkpt lat="49.439" lon="-1.20128">
        <ele>2.4</ele>
        <time>2022-06-02T10:07:47Z</time>
      </trkpt>
      <trkpt lat="49.43899" lon="-1.20127">
        <ele>2.3</ele>
        <time>2022-06-02T10:07:48Z</time>
      </trkpt>
      <trkpt lat="49.43898" lon="-1.20126">
        <ele>2.3</ele>
        <time>2022-06-02T10:07:49Z</time>
      </trkpt>
      <trkpt lat="49.43897" lon="-1.20124">
        <ele>2.3</ele>
        <time>2022-06-02T10:07:51Z</time>
      </trkpt>
      <trkpt lat="49.43896" lon="-1.20123">
        <ele>2.3</ele>
        <time>2022-06-02T10:07:52Z</time>
      </trkpt>
      <trkpt lat="49.43896" lon="-1.20122">
        <ele>2.3</ele>
        <time>2022-06-02T10:07:53Z</time>
      </trkpt>
      <trkpt lat="49.43895" lon="-1.20121">
        <ele>2.3</ele>
        <time>2022-06-02T10:07:54Z</time>
      </trkpt>
      <trkpt lat="49.43894" lon="-1.2012">
        <ele>2.3</ele>
        <time>2022-06-02T10:07:55Z</time>
      </trkpt>
      <trkpt lat="49.43893" lon="-1.20118">
        <ele>2.3</ele>
        <time>2022-06-02T10:07:56Z</time>
      </trkpt>
      <trkpt lat="49.43893" lon="-1.20116">
        <ele>2.3</ele>
        <time>2022-06-02T10:07:57Z</time>
      </trkpt>
      <trkpt lat="49.43892" lon="-1.20115">
        <ele>2.3</ele>
        <time>2022-06-02T10:07:59Z</time>
      </trkpt>
      <trkpt lat="49.43892" lon="-1.20113">
        <ele>2.2</ele>
        <time>2022-06-02T10:08:00Z</time>
      </trkpt>
      <trkpt lat="49.43891" lon="-1.20111">
        <ele>2.2</ele>
        <time>2022-06-02T10:08:01Z</time>
      </trkpt>
      <trkpt lat="49.43891" lon="-1.2011">
        <ele>2.2</ele>
        <time>2022-06-02T10:08:02Z</time>
      </trkpt>
      <trkpt lat="49.4389" lon="-1.20108">
        <ele>2.2</ele>
        <time>2022-06-02T10:08:03Z</time>
      </trkpt>
      <trkpt lat="49.4389" lon="-1.20107">
        <ele>2.3</ele>
        <time>2022-06-02T10:08:04Z</time>
      </trkpt>
      <trkpt lat="49.43889" lon="-1.20105">
        <ele>2.3</ele>
        <time>2022-06-02T10:08:06Z</time>
      </trkpt>
      <trkpt lat="49.43888" lon="-1.20104">
        <ele>2.3</ele>
        <time>2022-06-02T10:08:07Z</time>
      </trkpt>
      <trkpt lat="49.43887" lon="-1.20103">
        <ele>2.3</ele>
        <time>2022-06-02T10:08:08Z</time>
      </trkpt>
      <trkpt lat="49.43886" lon="-1.20102">
        <ele>2.3</ele>
        <time>2022-06-02T10:08:09Z</time>
      </trkpt>
      <trkpt lat="49.43885" lon="-1.201">
        <ele>2.3</ele>
        <time>2022-06-02T10:08:10Z</time>
      </trkpt>
      <trkpt lat="49.43885" lon="-1.20099">
        <ele>2.3</ele>
        <time>2022-06-02T10:08:11Z</time>
      </trkpt>
      <trkpt lat="49.43884" lon="-1.20098">
        <ele>2.3</ele>
        <time>2022-06-02T10:08:13Z</time>
      </trkpt>
      <trkpt lat="49.43883" lon="-1.20097">
        <ele>2.3</ele>
        <time>2022-06-02T10:08:14Z</time>
      </trkpt>
      <trkpt lat="49.43883" lon="-1.20097">
        <ele>2.3</ele>
        <time>2022-06-02T10:08:15Z</time>
      </trkpt>
      <trkpt lat="49.43882" lon="-1.20095">
        <ele>2.3</ele>
        <time>2022-06-02T10:08:16Z</time>
      </trkpt>
      <trkpt lat="49.43881" lon="-1.20094">
        <ele>2.3</ele>
        <time>2022-06-02T10:08:17Z</time>
      </trkpt>
      <trkpt lat="49.4388" lon="-1.20093">
        <ele>2.3</ele>
        <time>2022-06-02T10:08:19Z</time>
      </trkpt>
      <trkpt lat="49.43879" lon="-1.20092">
        <ele>2.3</ele>
        <time>2022-06-02T10:08:20Z</time>
      </trkpt>
      <trkpt lat="49.43878" lon="-1.20091">
        <ele>2.3</ele>
        <time>2022-06-02T10:08:21Z</time>
      </trkpt>
      <trkpt lat="49.43877" lon="-1.20091">
        <ele>2.3</ele>
        <time>2022-06-02T10:08:22Z</time>
      </trkpt>
      <trkpt lat="49.43877" lon="-1.2009">
        <ele>2.3</ele>
        <time>2022-06-02T10:08:23Z</time>
      </trkpt>
      <trkpt lat="49.43875" lon="-1.20089">
        <ele>2.3</ele>
        <time>2022-06-02T10:08:24Z</time>
      </trkpt>
      <trkpt lat="49.43874" lon="-1.20088">
        <ele>2.3</ele>
        <time>2022-06-02T10:08:26Z</time>
      </trkpt>
      <trkpt lat="49.43873" lon="-1.20087">
        <ele>2.3</ele>
        <time>2022-06-02T10:08:27Z</time>
      </trkpt>
      <trkpt lat="49.43872" lon="-1.20086">
        <ele>2.3</ele>
        <time>2022-06-02T10:08:29Z</time>
      </trkpt>
      <trkpt lat="49.43872" lon="-1.20085">
        <ele>2.2</ele>
        <time>2022-06-02T10:08:30Z</time>
      </trkpt>
      <trkpt lat="49.4387" lon="-1.20083">
        <ele>2.2</ele>
        <time>2022-06-02T10:08:31Z</time>
      </trkpt>
      <trkpt lat="49.4387" lon="-1.20082">
        <ele>2.2</ele>
        <time>2022-06-02T10:08:32Z</time>
      </trkpt>
      <trkpt lat="49.43869" lon="-1.20081">
        <ele>2.2</ele>
        <time>2022-06-02T10:08:33Z</time>
      </trkpt>
      <trkpt lat="49.43867" lon="-1.20079">
        <ele>2.2</ele>
        <time>2022-06-02T10:08:34Z</time>
      </trkpt>
      <trkpt lat="49.43867" lon="-1.20078">
        <ele>2.2</ele>
        <time>2022-06-02T10:08:36Z</time>
      </trkpt>
      <trkpt lat="49.43866" lon="-1.20077">
        <ele>2.2</ele>
        <time>2022-06-02T10:08:37Z</time>
      </trkpt>
      <trkpt lat="49.43865" lon="-1.20076">
        <ele>2.2</ele>
        <time>2022-06-02T10:08:38Z</time>
      </trkpt>
      <trkpt lat="49.43865" lon="-1.20075">
        <ele>2.3</ele>
        <time>2022-06-02T10:08:39Z</time>
      </trkpt>
      <trkpt lat="49.43864" lon="-1.20074">
        <ele>2.3</ele>
        <time>2022-06-02T10:08:40Z</time>
      </trkpt>
      <trkpt lat="49.43863" lon="-1.20071">
        <ele>2.3</ele>
        <time>2022-06-02T10:08:42Z</time>
      </trkpt>
      <trkpt lat="49.43862" lon="-1.2007">
        <ele>2.3</ele>
        <time>2022-06-02T10:08:43Z</time>
      </trkpt>
      <trkpt lat="49.43861" lon="-1.20069">
        <ele>2.3</ele>
        <time>2022-06-02T10:08:44Z</time>
      </trkpt>
      <trkpt lat="49.4386" lon="-1.20067">
        <ele>2.3</ele>
        <time>2022-06-02T10:08:45Z</time>
      </trkpt>
      <trkpt lat="49.43859" lon="-1.20066">
        <ele>2.3</ele>
        <time>2022-06-02T10:08:47Z</time>
      </trkpt>
      <trkpt lat="49.43858" lon="-1.20064">
        <ele>2.3</ele>
        <time>2022-06-02T10:08:48Z</time>
      </trkpt>
      <trkpt lat="49.43858" lon="-1.20064">
        <ele>2.3</ele>
        <time>2022-06-02T10:08:49Z</time>
      </trkpt>
      <trkpt lat="49.43857" lon="-1.20063">
        <ele>2.3</ele>
        <time>2022-06-02T10:08:50Z</time>
      </trkpt>
      <trkpt lat="49.43856" lon="-1.20062">
        <ele>2.3</ele>
        <time>2022-06-02T10:08:51Z</time>
      </trkpt>
      <trkpt lat="49.43855" lon="-1.2006">
        <ele>2.3</ele>
        <time>2022-06-02T10:08:52Z</time>
      </trkpt>
      <trkpt lat="49.43854" lon="-1.20059">
        <ele>2.3</ele>
        <time>2022-06-02T10:08:54Z</time>
      </trkpt>
      <trkpt lat="49.43853" lon="-1.20059">
        <ele>2.3</ele>
        <time>2022-06-02T10:08:55Z</time>
      </trkpt>
      <trkpt lat="49.43852" lon="-1.20058">
        <ele>2.3</ele>
        <time>2022-06-02T10:08:56Z</time>
      </trkpt>
      <trkpt lat="49.43851" lon="-1.20057">
        <ele>2.3</ele>
        <time>2022-06-02T10:08:57Z</time>
      </trkpt>
      <trkpt lat="49.4385" lon="-1.20055">
        <ele>2.3</ele>
        <time>2022-06-02T10:08:58Z</time>
      </trkpt>
      <trkpt lat="49.43849" lon="-1.20054">
        <ele>2.3</ele>
        <time>2022-06-02T10:08:59Z</time>
      </trkpt>
      <trkpt lat="49.43849" lon="-1.20053">
        <ele>2.4</ele>
        <time>2022-06-02T10:09:01Z</time>
      </trkpt>
      <trkpt lat="49.43848" lon="-1.20052">
        <ele>2.4</ele>
        <time>2022-06-02T10:09:02Z</time>
      </trkpt>
      <trkpt lat="49.43848" lon="-1.2005">
        <ele>2.4</ele>
        <time>2022-06-02T10:09:03Z</time>
      </trkpt>
      <trkpt lat="49.43847" lon="-1.20049">
        <ele>2.4</ele>
        <time>2022-06-02T10:09:04Z</time>
      </trkpt>
      <trkpt lat="49.43846" lon="-1.20048">
        <ele>2.4</ele>
        <time>2022-06-02T10:09:05Z</time>
      </trkpt>
      <trkpt lat="49.43846" lon="-1.20047">
        <ele>2.4</ele>
        <time>2022-06-02T10:09:06Z</time>
      </trkpt>
      <trkpt lat="49.43845" lon="-1.20045">
        <ele>2.5</ele>
        <time>2022-06-02T10:09:08Z</time>
      </trkpt>
      <trkpt lat="49.43845" lon="-1.20043">
        <ele>2.5</ele>
        <time>2022-06-02T10:09:09Z</time>
      </trkpt>
      <trkpt lat="49.43844" lon="-1.20042">
        <ele>2.5</ele>
        <time>2022-06-02T10:09:10Z</time>
      </trkpt>
      <trkpt lat="49.43844" lon="-1.20041">
        <ele>2.5</ele>
        <time>2022-06-02T10:09:11Z</time>
      </trkpt>
      <trkpt lat="49.43843" lon="-1.20039">
        <ele>2.5</ele>
        <time>2022-06-02T10:09:12Z</time>
      </trkpt>
      <trkpt lat="49.43842" lon="-1.20038">
        <ele>2.6</ele>
        <time>2022-06-02T10:09:14Z</time>
      </trkpt>
      <trkpt lat="49.43841" lon="-1.20038">
        <ele>2.6</ele>
        <time>2022-06-02T10:09:15Z</time>
      </trkpt>
      <trkpt lat="49.4384" lon="-1.20037">
        <ele>2.6</ele>
        <time>2022-06-02T10:09:16Z</time>
      </trkpt>
      <trkpt lat="49.43839" lon="-1.20036">
        <ele>2.6</ele>
        <time>2022-06-02T10:09:17Z</time>
      </trkpt>
      <trkpt lat="49.43838" lon="-1.20035">
        <ele>2.7</ele>
        <time>2022-06-02T10:09:18Z</time>
      </trkpt>
      <trkpt lat="49.43838" lon="-1.20034">
        <ele>2.7</ele>
        <time>2022-06-02T10:09:20Z</time>
      </trkpt>
      <trkpt lat="49.43837" lon="-1.20033">
        <ele>2.7</ele>
        <time>2022-06-02T10:09:21Z</time>
      </trkpt>
      <trkpt lat="49.43837" lon="-1.20032">
        <ele>2.7</ele>
        <time>2022-06-02T10:09:22Z</time>
      </trkpt>
      <trkpt lat="49.43836" lon="-1.20032">
        <ele>2.7</ele>
        <time>2022-06-02T10:09:23Z</time>
      </trkpt>
      <trkpt lat="49.43836" lon="-1.20031">
        <ele>2.7</ele>
        <time>2022-06-02T10:09:24Z</time>
      </trkpt>
      <trkpt lat="49.43835" lon="-1.2003">
        <ele>2.8</ele>
        <time>2022-06-02T10:09:25Z</time>
      </trkpt>
      <trkpt lat="49.43834" lon="-1.20029">
        <ele>2.8</ele>
        <time>2022-06-02T10:09:26Z</time>
      </trkpt>
      <trkpt lat="49.43833" lon="-1.20028">
        <ele>2.8</ele>
        <time>2022-06-02T10:09:27Z</time>
      </trkpt>
      <trkpt lat="49.43833" lon="-1.20028">
        <ele>2.8</ele>
        <time>2022-06-02T10:09:29Z</time>
      </trkpt>
      <trkpt lat="49.43832" lon="-1.20027">
        <ele>2.8</ele>
        <time>2022-06-02T10:09:30Z</time>
      </trkpt>
      <trkpt lat="49.43832" lon="-1.20026">
        <ele>2.8</ele>
        <time>2022-06-02T10:09:31Z</time>
      </trkpt>
      <trkpt lat="49.43831" lon="-1.20025">
        <ele>2.9</ele>
        <time>2022-06-02T10:09:32Z</time>
      </trkpt>
      <trkpt lat="49.4383" lon="-1.20024">
        <ele>2.9</ele>
        <time>2022-06-02T10:09:33Z</time>
      </trkpt>
      <trkpt lat="49.43829" lon="-1.20023">
        <ele>2.9</ele>
        <time>2022-06-02T10:09:34Z</time>
      </trkpt>
      <trkpt lat="49.43829" lon="-1.20022">
        <ele>2.9</ele>
        <time>2022-06-02T10:09:36Z</time>
      </trkpt>
      <trkpt lat="49.43828" lon="-1.20021">
        <ele>2.9</ele>
        <time>2022-06-02T10:09:37Z</time>
      </trkpt>
      <trkpt lat="49.43827" lon="-1.2002">
        <ele>2.9</ele>
        <time>2022-06-02T10:09:38Z</time>
      </trkpt>
      <trkpt lat="49.43826" lon="-1.20019">
        <ele>2.9</ele>
        <time>2022-06-02T10:09:39Z</time>
      </trkpt>
      <trkpt lat="49.43825" lon="-1.20019">
        <ele>2.9</ele>
        <time>2022-06-02T10:09:40Z</time>
      </trkpt>
      <trkpt lat="49.43824" lon="-1.20018">
        <ele>2.9</ele>
        <time>2022-06-02T10:09:41Z</time>
      </trkpt>
      <trkpt lat="49.43823" lon="-1.20018">
        <ele>2.9</ele>
        <time>2022-06-02T10:09:43Z</time>
      </trkpt>
      <trkpt lat="49.43822" lon="-1.20017">
        <ele>2.9</ele>
        <time>2022-06-02T10:09:44Z</time>
      </trkpt>
      <trkpt lat="49.43821" lon="-1.20017">
        <ele>2.9</ele>
        <time>2022-06-02T10:09:45Z</time>
      </trkpt>
      <trkpt lat="49.4382" lon="-1.20016">
        <ele>2.9</ele>
        <time>2022-06-02T10:09:46Z</time>
      </trkpt>
      <trkpt lat="49.43819" lon="-1.20015">
        <ele>2.9</ele>
        <time>2022-06-02T10:09:47Z</time>
      </trkpt>
      <trkpt lat="49.43818" lon="-1.20015">
        <ele>2.9</ele>
        <time>2022-06-02T10:09:49Z</time>
      </trkpt>
      <trkpt lat="49.43817" lon="-1.20014">
        <ele>2.9</ele>
        <time>2022-06-02T10:09:50Z</time>
      </trkpt>
      <trkpt lat="49.43816" lon="-1.20013">
        <ele>2.9</ele>
        <time>2022-06-02T10:09:51Z</time>
      </trkpt>
      <trkpt lat="49.43816" lon="-1.20012">
        <ele>2.9</ele>
        <time>2022-06-02T10:09:52Z</time>
      </trkpt>
      <trkpt lat="49.43815" lon="-1.20011">
        <ele>2.9</ele>
        <time>2022-06-02T10:09:53Z</time>
      </trkpt>
      <trkpt lat="49.43814" lon="-1.2001">
        <ele>2.9</ele>
        <time>2022-06-02T10:09:55Z</time>
      </trkpt>
      <trkpt lat="49.43813" lon="-1.20008">
        <ele>2.9</ele>
        <time>2022-06-02T10:09:56Z</time>
      </trkpt>
      <trkpt lat="49.43812" lon="-1.20008">
        <ele>2.9</ele>
        <time>2022-06-02T10:09:57Z</time>
      </trkpt>
      <trkpt lat="49.4381" lon="-1.20006">
        <ele>2.9</ele>
        <time>2022-06-02T10:09:58Z</time>
      </trkpt>
      <trkpt lat="49.43809" lon="-1.20005">
        <ele>2.9</ele>
        <time>2022-06-02T10:09:59Z</time>
      </trkpt>
      <trkpt lat="49.43808" lon="-1.20004">
        <ele>2.9</ele>
        <time>2022-06-02T10:10:00Z</time>
      </trkpt>
      <trkpt lat="49.43808" lon="-1.20003">
        <ele>2.9</ele>
        <time>2022-06-02T10:10:02Z</time>
      </trkpt>
      <trkpt lat="49.43807" lon="-1.20002">
        <ele>2.9</ele>
        <time>2022-06-02T10:10:03Z</time>
      </trkpt>
      <trkpt lat="49.43807" lon="-1.20001">
        <ele>2.9</ele>
        <time>2022-06-02T10:10:04Z</time>
      </trkpt>
      <trkpt lat="49.43806" lon="-1.19998">
        <ele>2.9</ele>
        <time>2022-06-02T10:10:06Z</time>
      </trkpt>
      <trkpt lat="49.43806" lon="-1.19997">
        <ele>2.9</ele>
        <time>2022-06-02T10:10:07Z</time>
      </trkpt>
      <trkpt lat="49.43805" lon="-1.19996">
        <ele>3</ele>
        <time>2022-06-02T10:10:08Z</time>
      </trkpt>
      <trkpt lat="49.43804" lon="-1.19995">
        <ele>3</ele>
        <time>2022-06-02T10:10:09Z</time>
      </trkpt>
      <trkpt lat="49.43804" lon="-1.19993">
        <ele>3</ele>
        <time>2022-06-02T10:10:11Z</time>
      </trkpt>
      <trkpt lat="49.43803" lon="-1.19993">
        <ele>3</ele>
        <time>2022-06-02T10:10:12Z</time>
      </trkpt>
      <trkpt lat="49.43803" lon="-1.19991">
        <ele>3</ele>
        <time>2022-06-02T10:10:13Z</time>
      </trkpt>
      <trkpt lat="49.43802" lon="-1.19991">
        <ele>3</ele>
        <time>2022-06-02T10:10:14Z</time>
      </trkpt>
      <trkpt lat="49.43801" lon="-1.19989">
        <ele>3</ele>
        <time>2022-06-02T10:10:16Z</time>
      </trkpt>
      <trkpt lat="49.438" lon="-1.19988">
        <ele>3</ele>
        <time>2022-06-02T10:10:17Z</time>
      </trkpt>
      <trkpt lat="49.43799" lon="-1.19987">
        <ele>3.1</ele>
        <time>2022-06-02T10:10:18Z</time>
      </trkpt>
      <trkpt lat="49.43798" lon="-1.19985">
        <ele>3.1</ele>
        <time>2022-06-02T10:10:19Z</time>
      </trkpt>
      <trkpt lat="49.43797" lon="-1.19984">
        <ele>3.1</ele>
        <time>2022-06-02T10:10:21Z</time>
      </trkpt>
      <trkpt lat="49.43797" lon="-1.19983">
        <ele>3.1</ele>
        <time>2022-06-02T10:10:22Z</time>
      </trkpt>
      <trkpt lat="49.43796" lon="-1.19983">
        <ele>3.1</ele>
        <time>2022-06-02T10:10:23Z</time>
      </trkpt>
      <trkpt lat="49.43796" lon="-1.19982">
        <ele>3.1</ele>
        <time>2022-06-02T10:10:24Z</time>
      </trkpt>
      <trkpt lat="49.43795" lon="-1.19981">
        <ele>3.1</ele>
        <time>2022-06-02T10:10:25Z</time>
      </trkpt>
      <trkpt lat="49.43794" lon="-1.19979">
        <ele>3.1</ele>
        <time>2022-06-02T10:10:26Z</time>
      </trkpt>
      <trkpt lat="49.43794" lon="-1.19978">
        <ele>3.1</ele>
        <time>2022-06-02T10:10:27Z</time>
      </trkpt>
      <trkpt lat="49.43793" lon="-1.19977">
        <ele>3.1</ele>
        <time>2022-06-02T10:10:28Z</time>
      </trkpt>
      <trkpt lat="49.43792" lon="-1.19976">
        <ele>3.1</ele>
        <time>2022-06-02T10:10:29Z</time>
      </trkpt>
      <trkpt lat="49.43792" lon="-1.19975">
        <ele>3.1</ele>
        <time>2022-06-02T10:10:30Z</time>
      </trkpt>
      <trkpt lat="49.43791" lon="-1.19974">
        <ele>3.1</ele>
        <time>2022-06-02T10:10:31Z</time>
      </trkpt>
      <trkpt lat="49.4379" lon="-1.19974">
        <ele>3.1</ele>
        <time>2022-06-02T10:10:32Z</time>
      </trkpt>
      <trkpt lat="49.43789" lon="-1.19972">
        <ele>3.1</ele>
        <time>2022-06-02T10:10:33Z</time>
      </trkpt>
      <trkpt lat="49.43789" lon="-1.19971">
        <ele>3.1</ele>
        <time>2022-06-02T10:10:34Z</time>
      </trkpt>
      <trkpt lat="49.43788" lon="-1.1997">
        <ele>3.1</ele>
        <time>2022-06-02T10:10:35Z</time>
      </trkpt>
      <trkpt lat="49.43787" lon="-1.19968">
        <ele>3.1</ele>
        <time>2022-06-02T10:10:36Z</time>
      </trkpt>
      <trkpt lat="49.43786" lon="-1.19967">
        <ele>3.1</ele>
        <time>2022-06-02T10:10:37Z</time>
      </trkpt>
      <trkpt lat="49.43784" lon="-1.19965">
        <ele>3.1</ele>
        <time>2022-06-02T10:10:39Z</time>
      </trkpt>
      <trkpt lat="49.43784" lon="-1.19965">
        <ele>3.1</ele>
        <time>2022-06-02T10:10:40Z</time>
      </trkpt>
      <trkpt lat="49.43783" lon="-1.19964">
        <ele>3.1</ele>
        <time>2022-06-02T10:10:41Z</time>
      </trkpt>
      <trkpt lat="49.43782" lon="-1.19963">
        <ele>3.1</ele>
        <time>2022-06-02T10:10:42Z</time>
      </trkpt>
      <trkpt lat="49.43781" lon="-1.19962">
        <ele>3.1</ele>
        <time>2022-06-02T10:10:44Z</time>
      </trkpt>
      <trkpt lat="49.4378" lon="-1.19961">
        <ele>3.1</ele>
        <time>2022-06-02T10:10:45Z</time>
      </trkpt>
      <trkpt lat="49.43779" lon="-1.1996">
        <ele>3.1</ele>
        <time>2022-06-02T10:10:46Z</time>
      </trkpt>
      <trkpt lat="49.43779" lon="-1.1996">
        <ele>3.1</ele>
        <time>2022-06-02T10:10:47Z</time>
      </trkpt>
      <trkpt lat="49.43778" lon="-1.19959">
        <ele>3.1</ele>
        <time>2022-06-02T10:10:49Z</time>
      </trkpt>
      <trkpt lat="49.43777" lon="-1.19959">
        <ele>3.1</ele>
        <time>2022-06-02T10:10:50Z</time>
      </trkpt>
      <trkpt lat="49.43776" lon="-1.19958">
        <ele>3.1</ele>
        <time>2022-06-02T10:10:52Z</time>
      </trkpt>
      <trkpt lat="49.43776" lon="-1.19959">
        <ele>3.1</ele>
        <time>2022-06-02T10:10:53Z</time>
      </trkpt>
      <trkpt lat="49.43776" lon="-1.19959">
        <ele>3.1</ele>
        <time>2022-06-02T10:10:54Z</time>
      </trkpt>
      <trkpt lat="49.43776" lon="-1.1996">
        <ele>3.1</ele>
        <time>2022-06-02T10:10:55Z</time>
      </trkpt>
      <trkpt lat="49.43775" lon="-1.1996">
        <ele>3.1</ele>
        <time>2022-06-02T10:10:56Z</time>
      </trkpt>
      <trkpt lat="49.43775" lon="-1.19961">
        <ele>3.1</ele>
        <time>2022-06-02T10:10:57Z</time>
      </trkpt>
      <trkpt lat="49.43775" lon="-1.19961">
        <ele>3.1</ele>
        <time>2022-06-02T10:10:59Z</time>
      </trkpt>
      <trkpt lat="49.43775" lon="-1.19961">
        <ele>3.1</ele>
        <time>2022-06-02T10:11:00Z</time>
      </trkpt>
      <trkpt lat="49.43775" lon="-1.19961">
        <ele>3.1</ele>
        <time>2022-06-02T10:11:01Z</time>
      </trkpt>
      <trkpt lat="49.43775" lon="-1.19961">
        <ele>3.1</ele>
        <time>2022-06-02T10:11:02Z</time>
      </trkpt>
      <trkpt lat="49.43775" lon="-1.19961">
        <ele>3.1</ele>
        <time>2022-06-02T10:11:03Z</time>
      </trkpt>
      <trkpt lat="49.43775" lon="-1.19961">
        <ele>3.1</ele>
        <time>2022-06-02T10:11:04Z</time>
      </trkpt>
      <trkpt lat="49.43775" lon="-1.19961">
        <ele>3.1</ele>
        <time>2022-06-02T10:11:05Z</time>
      </trkpt>
      <trkpt lat="49.43775" lon="-1.19961">
        <ele>3.1</ele>
        <time>2022-06-02T10:11:06Z</time>
      </trkpt>
      <trkpt lat="49.43774" lon="-1.1996">
        <ele>3.1</ele>
        <time>2022-06-02T10:11:08Z</time>
      </trkpt>
      <trkpt lat="49.43774" lon="-1.19959">
        <ele>3.1</ele>
        <time>2022-06-02T10:11:10Z</time>
      </trkpt>
      <trkpt lat="49.43774" lon="-1.19959">
        <ele>3.1</ele>
        <time>2022-06-02T10:11:11Z</time>
      </trkpt>
      <trkpt lat="49.43773" lon="-1.19958">
        <ele>3.1</ele>
        <time>2022-06-02T10:11:12Z</time>
      </trkpt>
      <trkpt lat="49.43773" lon="-1.19957">
        <ele>3.1</ele>
        <time>2022-06-02T10:11:13Z</time>
      </trkpt>
      <trkpt lat="49.43772" lon="-1.19957">
        <ele>3.1</ele>
        <time>2022-06-02T10:11:14Z</time>
      </trkpt>
      <trkpt lat="49.43771" lon="-1.19957">
        <ele>3.1</ele>
        <time>2022-06-02T10:11:16Z</time>
      </trkpt>
      <trkpt lat="49.43771" lon="-1.19956">
        <ele>3.1</ele>
        <time>2022-06-02T10:11:17Z</time>
      </trkpt>
      <trkpt lat="49.4377" lon="-1.19954">
        <ele>3.1</ele>
        <time>2022-06-02T10:11:18Z</time>
      </trkpt>
      <trkpt lat="49.43769" lon="-1.19953">
        <ele>3.1</ele>
        <time>2022-06-02T10:11:19Z</time>
      </trkpt>
      <trkpt lat="49.43768" lon="-1.19951">
        <ele>3.1</ele>
        <time>2022-06-02T10:11:21Z</time>
      </trkpt>
      <trkpt lat="49.43767" lon="-1.1995">
        <ele>3.1</ele>
        <time>2022-06-02T10:11:22Z</time>
      </trkpt>
      <trkpt lat="49.43767" lon="-1.19948">
        <ele>3.1</ele>
        <time>2022-06-02T10:11:23Z</time>
      </trkpt>
      <trkpt lat="49.43766" lon="-1.19947">
        <ele>3.1</ele>
        <time>2022-06-02T10:11:24Z</time>
      </trkpt>
      <trkpt lat="49.43764" lon="-1.19944">
        <ele>3.1</ele>
        <time>2022-06-02T10:11:25Z</time>
      </trkpt>
      <trkpt lat="49.43764" lon="-1.19943">
        <ele>3.1</ele>
        <time>2022-06-02T10:11:27Z</time>
      </trkpt>
      <trkpt lat="49.43763" lon="-1.19942">
        <ele>3.1</ele>
        <time>2022-06-02T10:11:28Z</time>
      </trkpt>
      <trkpt lat="49.43763" lon="-1.19941">
        <ele>3.1</ele>
        <time>2022-06-02T10:11:29Z</time>
      </trkpt>
      <trkpt lat="49.43762" lon="-1.1994">
        <ele>3.1</ele>
        <time>2022-06-02T10:11:30Z</time>
      </trkpt>
      <trkpt lat="49.43761" lon="-1.1994">
        <ele>3.1</ele>
        <time>2022-06-02T10:11:31Z</time>
      </trkpt>
      <trkpt lat="49.43759" lon="-1.19937">
        <ele>3.1</ele>
        <time>2022-06-02T10:11:32Z</time>
      </trkpt>
      <trkpt lat="49.43759" lon="-1.19936">
        <ele>3.1</ele>
        <time>2022-06-02T10:11:33Z</time>
      </trkpt>
      <trkpt lat="49.43758" lon="-1.19936">
        <ele>3.1</ele>
        <time>2022-06-02T10:11:34Z</time>
      </trkpt>
      <trkpt lat="49.43757" lon="-1.19934">
        <ele>3.1</ele>
        <time>2022-06-02T10:11:36Z</time>
      </trkpt>
      <trkpt lat="49.43756" lon="-1.19933">
        <ele>3</ele>
        <time>2022-06-02T10:11:37Z</time>
      </trkpt>
      <trkpt lat="49.43755" lon="-1.19932">
        <ele>3</ele>
        <time>2022-06-02T10:11:38Z</time>
      </trkpt>
      <trkpt lat="49.43754" lon="-1.1993">
        <ele>3</ele>
        <time>2022-06-02T10:11:39Z</time>
      </trkpt>
      <trkpt lat="49.43753" lon="-1.19928">
        <ele>3</ele>
        <time>2022-06-02T10:11:41Z</time>
      </trkpt>
      <trkpt lat="49.43752" lon="-1.19925">
        <ele>3</ele>
        <time>2022-06-02T10:11:42Z</time>
      </trkpt>
      <trkpt lat="49.43752" lon="-1.19924">
        <ele>3</ele>
        <time>2022-06-02T10:11:43Z</time>
      </trkpt>
      <trkpt lat="49.43751" lon="-1.19923">
        <ele>3</ele>
        <time>2022-06-02T10:11:44Z</time>
      </trkpt>
      <trkpt lat="49.43749" lon="-1.1992">
        <ele>3</ele>
        <time>2022-06-02T10:11:45Z</time>
      </trkpt>
      <trkpt lat="49.43749" lon="-1.19919">
        <ele>3</ele>
        <time>2022-06-02T10:11:47Z</time>
      </trkpt>
      <trkpt lat="49.43748" lon="-1.19919">
        <ele>3</ele>
        <time>2022-06-02T10:11:48Z</time>
      </trkpt>
      <trkpt lat="49.43748" lon="-1.19918">
        <ele>3</ele>
        <time>2022-06-02T10:11:49Z</time>
      </trkpt>
      <trkpt lat="49.43747" lon="-1.19917">
        <ele>3</ele>
        <time>2022-06-02T10:11:50Z</time>
      </trkpt>
      <trkpt lat="49.43745" lon="-1.19916">
        <ele>3</ele>
        <time>2022-06-02T10:11:51Z</time>
      </trkpt>
      <trkpt lat="49.43745" lon="-1.19916">
        <ele>3</ele>
        <time>2022-06-02T10:11:52Z</time>
      </trkpt>
      <trkpt lat="49.43744" lon="-1.19915">
        <ele>3</ele>
        <time>2022-06-02T10:11:54Z</time>
      </trkpt>
      <trkpt lat="49.43743" lon="-1.19914">
        <ele>3</ele>
        <time>2022-06-02T10:11:55Z</time>
      </trkpt>
      <trkpt lat="49.43742" lon="-1.19913">
        <ele>3</ele>
        <time>2022-06-02T10:11:56Z</time>
      </trkpt>
      <trkpt lat="49.43742" lon="-1.19912">
        <ele>3</ele>
        <time>2022-06-02T10:11:57Z</time>
      </trkpt>
      <trkpt lat="49.43741" lon="-1.19911">
        <ele>3</ele>
        <time>2022-06-02T10:11:58Z</time>
      </trkpt>
      <trkpt lat="49.4374" lon="-1.1991">
        <ele>3</ele>
        <time>2022-06-02T10:12:00Z</time>
      </trkpt>
      <trkpt lat="49.43739" lon="-1.19909">
        <ele>3</ele>
        <time>2022-06-02T10:12:01Z</time>
      </trkpt>
      <trkpt lat="49.43738" lon="-1.19908">
        <ele>3</ele>
        <time>2022-06-02T10:12:02Z</time>
      </trkpt>
      <trkpt lat="49.43737" lon="-1.19907">
        <ele>3</ele>
        <time>2022-06-02T10:12:03Z</time>
      </trkpt>
      <trkpt lat="49.43737" lon="-1.19906">
        <ele>3.1</ele>
        <time>2022-06-02T10:12:04Z</time>
      </trkpt>
      <trkpt lat="49.43736" lon="-1.19905">
        <ele>3.1</ele>
        <time>2022-06-02T10:12:05Z</time>
      </trkpt>
      <trkpt lat="49.43735" lon="-1.19904">
        <ele>3.1</ele>
        <time>2022-06-02T10:12:07Z</time>
      </trkpt>
      <trkpt lat="49.43735" lon="-1.19903">
        <ele>3.1</ele>
        <time>2022-06-02T10:12:08Z</time>
      </trkpt>
      <trkpt lat="49.43734" lon="-1.19902">
        <ele>3.1</ele>
        <time>2022-06-02T10:12:09Z</time>
      </trkpt>
      <trkpt lat="49.43733" lon="-1.19901">
        <ele>3.1</ele>
        <time>2022-06-02T10:12:10Z</time>
      </trkpt>
      <trkpt lat="49.43732" lon="-1.199">
        <ele>3.1</ele>
        <time>2022-06-02T10:12:12Z</time>
      </trkpt>
      <trkpt lat="49.43732" lon="-1.19899">
        <ele>3.1</ele>
        <time>2022-06-02T10:12:13Z</time>
      </trkpt>
      <trkpt lat="49.43731" lon="-1.19898">
        <ele>3.1</ele>
        <time>2022-06-02T10:12:14Z</time>
      </trkpt>
      <trkpt lat="49.43731" lon="-1.19896">
        <ele>3.1</ele>
        <time>2022-06-02T10:12:15Z</time>
      </trkpt>
      <trkpt lat="49.4373" lon="-1.19895">
        <ele>3.1</ele>
        <time>2022-06-02T10:12:16Z</time>
      </trkpt>
      <trkpt lat="49.43729" lon="-1.19894">
        <ele>3.1</ele>
        <time>2022-06-02T10:12:18Z</time>
      </trkpt>
      <trkpt lat="49.43729" lon="-1.19893">
        <ele>3.1</ele>
        <time>2022-06-02T10:12:19Z</time>
      </trkpt>
      <trkpt lat="49.43728" lon="-1.19891">
        <ele>3.1</ele>
        <time>2022-06-02T10:12:20Z</time>
      </trkpt>
      <trkpt lat="49.43728" lon="-1.1989">
        <ele>3.1</ele>
        <time>2022-06-02T10:12:21Z</time>
      </trkpt>
      <trkpt lat="49.43727" lon="-1.19889">
        <ele>3.1</ele>
        <time>2022-06-02T10:12:22Z</time>
      </trkpt>
      <trkpt lat="49.43727" lon="-1.19888">
        <ele>3.1</ele>
        <time>2022-06-02T10:12:23Z</time>
      </trkpt>
      <trkpt lat="49.43726" lon="-1.19887">
        <ele>3.2</ele>
        <time>2022-06-02T10:12:24Z</time>
      </trkpt>
      <trkpt lat="49.43725" lon="-1.19886">
        <ele>3.2</ele>
        <time>2022-06-02T10:12:25Z</time>
      </trkpt>
      <trkpt lat="49.43724" lon="-1.19885">
        <ele>3.2</ele>
        <time>2022-06-02T10:12:26Z</time>
      </trkpt>
      <trkpt lat="49.43724" lon="-1.19884">
        <ele>3.2</ele>
        <time>2022-06-02T10:12:28Z</time>
      </trkpt>
      <trkpt lat="49.43723" lon="-1.19883">
        <ele>3.2</ele>
        <time>2022-06-02T10:12:29Z</time>
      </trkpt>
      <trkpt lat="49.43722" lon="-1.19882">
        <ele>3.2</ele>
        <time>2022-06-02T10:12:30Z</time>
      </trkpt>
      <trkpt lat="49.43721" lon="-1.19881">
        <ele>3.2</ele>
        <time>2022-06-02T10:12:31Z</time>
      </trkpt>
      <trkpt lat="49.43721" lon="-1.1988">
        <ele>3.2</ele>
        <time>2022-06-02T10:12:32Z</time>
      </trkpt>
      <trkpt lat="49.4372" lon="-1.19879">
        <ele>3.1</ele>
        <time>2022-06-02T10:12:33Z</time>
      </trkpt>
      <trkpt lat="49.43719" lon="-1.19878">
        <ele>3.1</ele>
        <time>2022-06-02T10:12:34Z</time>
      </trkpt>
      <trkpt lat="49.43718" lon="-1.19877">
        <ele>3.1</ele>
        <time>2022-06-02T10:12:35Z</time>
      </trkpt>
      <trkpt lat="49.43717" lon="-1.19876">
        <ele>3.1</ele>
        <time>2022-06-02T10:12:36Z</time>
      </trkpt>
      <trkpt lat="49.43716" lon="-1.19876">
        <ele>3.1</ele>
        <time>2022-06-02T10:12:37Z</time>
      </trkpt>
      <trkpt lat="49.43715" lon="-1.19875">
        <ele>3.1</ele>
        <time>2022-06-02T10:12:38Z</time>
      </trkpt>
      <trkpt lat="49.43714" lon="-1.19876">
        <ele>3.1</ele>
        <time>2022-06-02T10:12:39Z</time>
      </trkpt>
      <trkpt lat="49.43713" lon="-1.19875">
        <ele>3.1</ele>
        <time>2022-06-02T10:12:40Z</time>
      </trkpt>
      <trkpt lat="49.43712" lon="-1.19875">
        <ele>3.1</ele>
        <time>2022-06-02T10:12:41Z</time>
      </trkpt>
      <trkpt lat="49.43711" lon="-1.19874">
        <ele>3.1</ele>
        <time>2022-06-02T10:12:42Z</time>
      </trkpt>
      <trkpt lat="49.4371" lon="-1.19872">
        <ele>3.1</ele>
        <time>2022-06-02T10:12:44Z</time>
      </trkpt>
      <trkpt lat="49.43709" lon="-1.19872">
        <ele>3.1</ele>
        <time>2022-06-02T10:12:45Z</time>
      </trkpt>
      <trkpt lat="49.43709" lon="-1.19871">
        <ele>3.1</ele>
        <time>2022-06-02T10:12:46Z</time>
      </trkpt>
      <trkpt lat="49.43708" lon="-1.19871">
        <ele>3</ele>
        <time>2022-06-02T10:12:47Z</time>
      </trkpt>
      <trkpt lat="49.43707" lon="-1.19869">
        <ele>3</ele>
        <time>2022-06-02T10:12:49Z</time>
      </trkpt>
      <trkpt lat="49.43706" lon="-1.19869">
        <ele>3</ele>
        <time>2022-06-02T10:12:50Z</time>
      </trkpt>
      <trkpt lat="49.43705" lon="-1.19868">
        <ele>3</ele>
        <time>2022-06-02T10:12:51Z</time>
      </trkpt>
      <trkpt lat="49.43704" lon="-1.19867">
        <ele>3</ele>
        <time>2022-06-02T10:12:53Z</time>
      </trkpt>
      <trkpt lat="49.43702" lon="-1.19866">
        <ele>3</ele>
        <time>2022-06-02T10:12:54Z</time>
      </trkpt>
      <trkpt lat="49.43701" lon="-1.19865">
        <ele>3</ele>
        <time>2022-06-02T10:12:55Z</time>
      </trkpt>
      <trkpt lat="49.43699" lon="-1.19864">
        <ele>3</ele>
        <time>2022-06-02T10:12:56Z</time>
      </trkpt>
      <trkpt lat="49.43698" lon="-1.19864">
        <ele>3</ele>
        <time>2022-06-02T10:12:57Z</time>
      </trkpt>
      <trkpt lat="49.43698" lon="-1.19863">
        <ele>3</ele>
        <time>2022-06-02T10:12:58Z</time>
      </trkpt>
      <trkpt lat="49.43697" lon="-1.19863">
        <ele>3</ele>
        <time>2022-06-02T10:12:59Z</time>
      </trkpt>
      <trkpt lat="49.43696" lon="-1.19864">
        <ele>3.1</ele>
        <time>2022-06-02T10:13:01Z</time>
      </trkpt>
      <trkpt lat="49.43695" lon="-1.19864">
        <ele>3.1</ele>
        <time>2022-06-02T10:13:02Z</time>
      </trkpt>
      <trkpt lat="49.43694" lon="-1.19865">
        <ele>3.1</ele>
        <time>2022-06-02T10:13:03Z</time>
      </trkpt>
      <trkpt lat="49.43694" lon="-1.19865">
        <ele>3.1</ele>
        <time>2022-06-02T10:13:04Z</time>
      </trkpt>
      <trkpt lat="49.43693" lon="-1.19865">
        <ele>3.1</ele>
        <time>2022-06-02T10:13:06Z</time>
      </trkpt>
      <trkpt lat="49.43693" lon="-1.19865">
        <ele>3.1</ele>
        <time>2022-06-02T10:13:07Z</time>
      </trkpt>
      <trkpt lat="49.43692" lon="-1.19864">
        <ele>3.1</ele>
        <time>2022-06-02T10:13:08Z</time>
      </trkpt>
      <trkpt lat="49.43692" lon="-1.19863">
        <ele>3.1</ele>
        <time>2022-06-02T10:13:09Z</time>
      </trkpt>
      <trkpt lat="49.43691" lon="-1.19862">
        <ele>3.1</ele>
        <time>2022-06-02T10:13:11Z</time>
      </trkpt>
      <trkpt lat="49.43691" lon="-1.19861">
        <ele>3.1</ele>
        <time>2022-06-02T10:13:12Z</time>
      </trkpt>
      <trkpt lat="49.43691" lon="-1.1986">
        <ele>3.1</ele>
        <time>2022-06-02T10:13:13Z</time>
      </trkpt>
      <trkpt lat="49.4369" lon="-1.19859">
        <ele>3.1</ele>
        <time>2022-06-02T10:13:14Z</time>
      </trkpt>
      <trkpt lat="49.43689" lon="-1.19858">
        <ele>3.1</ele>
        <time>2022-06-02T10:13:15Z</time>
      </trkpt>
      <trkpt lat="49.43689" lon="-1.19857">
        <ele>3.1</ele>
        <time>2022-06-02T10:13:16Z</time>
      </trkpt>
      <trkpt lat="49.43689" lon="-1.19856">
        <ele>3.1</ele>
        <time>2022-06-02T10:13:18Z</time>
      </trkpt>
      <trkpt lat="49.43688" lon="-1.19854">
        <ele>3.1</ele>
        <time>2022-06-02T10:13:19Z</time>
      </trkpt>
      <trkpt lat="49.43688" lon="-1.19853">
        <ele>3.1</ele>
        <time>2022-06-02T10:13:20Z</time>
      </trkpt>
      <trkpt lat="49.43687" lon="-1.19851">
        <ele>3.1</ele>
        <time>2022-06-02T10:13:21Z</time>
      </trkpt>
      <trkpt lat="49.43686" lon="-1.19849">
        <ele>3.1</ele>
        <time>2022-06-02T10:13:22Z</time>
      </trkpt>
      <trkpt lat="49.43685" lon="-1.19847">
        <ele>3.1</ele>
        <time>2022-06-02T10:13:24Z</time>
      </trkpt>
      <trkpt lat="49.43684" lon="-1.19847">
        <ele>3.1</ele>
        <time>2022-06-02T10:13:25Z</time>
      </trkpt>
      <trkpt lat="49.43683" lon="-1.19846">
        <ele>3.1</ele>
        <time>2022-06-02T10:13:26Z</time>
      </trkpt>
      <trkpt lat="49.43683" lon="-1.19845">
        <ele>3.1</ele>
        <time>2022-06-02T10:13:27Z</time>
      </trkpt>
      <trkpt lat="49.43682" lon="-1.19845">
        <ele>3.1</ele>
        <time>2022-06-02T10:13:28Z</time>
      </trkpt>
      <trkpt lat="49.43681" lon="-1.19844">
        <ele>3.1</ele>
        <time>2022-06-02T10:13:29Z</time>
      </trkpt>
      <trkpt lat="49.43681" lon="-1.19844">
        <ele>3.1</ele>
        <time>2022-06-02T10:13:30Z</time>
      </trkpt>
      <trkpt lat="49.4368" lon="-1.19845">
        <ele>3.1</ele>
        <time>2022-06-02T10:13:31Z</time>
      </trkpt>
      <trkpt lat="49.43679" lon="-1.19845">
        <ele>3.1</ele>
        <time>2022-06-02T10:13:32Z</time>
      </trkpt>
      <trkpt lat="49.43679" lon="-1.19846">
        <ele>3.1</ele>
        <time>2022-06-02T10:13:33Z</time>
      </trkpt>
      <trkpt lat="49.4368" lon="-1.19846">
        <ele>3.1</ele>
        <time>2022-06-02T10:13:34Z</time>
      </trkpt>
      <trkpt lat="49.4368" lon="-1.19846">
        <ele>3.1</ele>
        <time>2022-06-02T10:13:35Z</time>
      </trkpt>
      <trkpt lat="49.4368" lon="-1.19846">
        <ele>3.1</ele>
        <time>2022-06-02T10:13:36Z</time>
      </trkpt>
      <trkpt lat="49.4368" lon="-1.19846">
        <ele>3.1</ele>
        <time>2022-06-02T10:13:37Z</time>
      </trkpt>
      <trkpt lat="49.4368" lon="-1.19845">
        <ele>3.1</ele>
        <time>2022-06-02T10:13:39Z</time>
      </trkpt>
      <trkpt lat="49.43679" lon="-1.19844">
        <ele>3.1</ele>
        <time>2022-06-02T10:13:40Z</time>
      </trkpt>
      <trkpt lat="49.43679" lon="-1.19843">
        <ele>3.1</ele>
        <time>2022-06-02T10:13:42Z</time>
      </trkpt>
      <trkpt lat="49.43679" lon="-1.19843">
        <ele>3.1</ele>
        <time>2022-06-02T10:13:43Z</time>
      </trkpt>
      <trkpt lat="49.43679" lon="-1.19843">
        <ele>3.1</ele>
        <time>2022-06-02T10:13:44Z</time>
      </trkpt>
      <trkpt lat="49.43678" lon="-1.19843">
        <ele>3.1</ele>
        <time>2022-06-02T10:13:45Z</time>
      </trkpt>
      <trkpt lat="49.43678" lon="-1.19843">
        <ele>3.1</ele>
        <time>2022-06-02T10:13:46Z</time>
      </trkpt>
      <trkpt lat="49.43678" lon="-1.19843">
        <ele>3.1</ele>
        <time>2022-06-02T10:13:47Z</time>
      </trkpt>
      <trkpt lat="49.43678" lon="-1.19843">
        <ele>3.1</ele>
        <time>2022-06-02T10:13:48Z</time>
      </trkpt>
      <trkpt lat="49.43678" lon="-1.19843">
        <ele>3.1</ele>
        <time>2022-06-02T10:13:49Z</time>
      </trkpt>
      <trkpt lat="49.43678" lon="-1.19843">
        <ele>3.1</ele>
        <time>2022-06-02T10:13:50Z</time>
      </trkpt>
      <trkpt lat="49.43678" lon="-1.19843">
        <ele>3.1</ele>
        <time>2022-06-02T10:13:51Z</time>
      </trkpt>
      <trkpt lat="49.43679" lon="-1.19843">
        <ele>3.1</ele>
        <time>2022-06-02T10:13:52Z</time>
      </trkpt>
      <trkpt lat="49.43679" lon="-1.19842">
        <ele>3.1</ele>
        <time>2022-06-02T10:13:53Z</time>
      </trkpt>
      <trkpt lat="49.43679" lon="-1.19842">
        <ele>3.1</ele>
        <time>2022-06-02T10:13:54Z</time>
      </trkpt>
      <trkpt lat="49.43679" lon="-1.19842">
        <ele>3.1</ele>
        <time>2022-06-02T10:13:55Z</time>
      </trkpt>
      <trkpt lat="49.43679" lon="-1.19841">
        <ele>3.1</ele>
        <time>2022-06-02T10:13:56Z</time>
      </trkpt>
      <trkpt lat="49.43679" lon="-1.19841">
        <ele>3.1</ele>
        <time>2022-06-02T10:13:57Z</time>
      </trkpt>
      <trkpt lat="49.43678" lon="-1.1984">
        <ele>3.1</ele>
        <time>2022-06-02T10:13:59Z</time>
      </trkpt>
      <trkpt lat="49.43678" lon="-1.19839">
        <ele>3.1</ele>
        <time>2022-06-02T10:14:00Z</time>
      </trkpt>
      <trkpt lat="49.43677" lon="-1.19839">
        <ele>3.1</ele>
        <time>2022-06-02T10:14:01Z</time>
      </trkpt>
      <trkpt lat="49.43677" lon="-1.19839">
        <ele>3.1</ele>
        <time>2022-06-02T10:14:02Z</time>
      </trkpt>
      <trkpt lat="49.43677" lon="-1.1984">
        <ele>3.1</ele>
        <time>2022-06-02T10:14:03Z</time>
      </trkpt>
      <trkpt lat="49.43676" lon="-1.1984">
        <ele>3.1</ele>
        <time>2022-06-02T10:14:04Z</time>
      </trkpt>
      <trkpt lat="49.43676" lon="-1.1984">
        <ele>3.1</ele>
        <time>2022-06-02T10:14:05Z</time>
      </trkpt>
      <trkpt lat="49.43676" lon="-1.1984">
        <ele>3.1</ele>
        <time>2022-06-02T10:14:06Z</time>
      </trkpt>
      <trkpt lat="49.43676" lon="-1.1984">
        <ele>3.1</ele>
        <time>2022-06-02T10:14:07Z</time>
      </trkpt>
      <trkpt lat="49.43676" lon="-1.1984">
        <ele>3.1</ele>
        <time>2022-06-02T10:14:08Z</time>
      </trkpt>
      <trkpt lat="49.43676" lon="-1.1984">
        <ele>3.1</ele>
        <time>2022-06-02T10:14:09Z</time>
      </trkpt>
      <trkpt lat="49.43676" lon="-1.1984">
        <ele>3.1</ele>
        <time>2022-06-02T10:14:10Z</time>
      </trkpt>
      <trkpt lat="49.43676" lon="-1.1984">
        <ele>3.1</ele>
        <time>2022-06-02T10:14:11Z</time>
      </trkpt>
      <trkpt lat="49.43676" lon="-1.1984">
        <ele>3.1</ele>
        <time>2022-06-02T10:14:12Z</time>
      </trkpt>
      <trkpt lat="49.43676" lon="-1.1984">
        <ele>3.1</ele>
        <time>2022-06-02T10:14:13Z</time>
      </trkpt>
      <trkpt lat="49.43676" lon="-1.1984">
        <ele>3.1</ele>
        <time>2022-06-02T10:14:14Z</time>
      </trkpt>
      <trkpt lat="49.43676" lon="-1.1984">
        <ele>3.1</ele>
        <time>2022-06-02T10:14:15Z</time>
      </trkpt>
      <trkpt lat="49.43677" lon="-1.1984">
        <ele>3.1</ele>
        <time>2022-06-02T10:14:16Z</time>
      </trkpt>
      <trkpt lat="49.43677" lon="-1.1984">
        <ele>3.1</ele>
        <time>2022-06-02T10:14:17Z</time>
      </trkpt>
      <trkpt lat="49.43677" lon="-1.1984">
        <ele>3.1</ele>
        <time>2022-06-02T10:14:19Z</time>
      </trkpt>
      <trkpt lat="49.43677" lon="-1.1984">
        <ele>3.1</ele>
        <time>2022-06-02T10:14:20Z</time>
      </trkpt>
      <trkpt lat="49.43677" lon="-1.1984">
        <ele>3.1</ele>
        <time>2022-06-02T10:14:22Z</time>
      </trkpt>
      <trkpt lat="49.43677" lon="-1.1984">
        <ele>3.1</ele>
        <time>2022-06-02T10:14:23Z</time>
      </trkpt>
      <trkpt lat="49.43677" lon="-1.1984">
        <ele>3.1</ele>
        <time>2022-06-02T10:14:24Z</time>
      </trkpt>
      <trkpt lat="49.43677" lon="-1.1984">
        <ele>3.1</ele>
        <time>2022-06-02T10:14:25Z</time>
      </trkpt>
      <trkpt lat="49.43677" lon="-1.1984">
        <ele>3.1</ele>
        <time>2022-06-02T10:14:26Z</time>
      </trkpt>
      <trkpt lat="49.43678" lon="-1.1984">
        <ele>3.2</ele>
        <time>2022-06-02T10:14:27Z</time>
      </trkpt>
      <trkpt lat="49.43678" lon="-1.1984">
        <ele>3.2</ele>
        <time>2022-06-02T10:14:28Z</time>
      </trkpt>
      <trkpt lat="49.43678" lon="-1.1984">
        <ele>3.2</ele>
        <time>2022-06-02T10:14:29Z</time>
      </trkpt>
      <trkpt lat="49.43678" lon="-1.1984">
        <ele>3.2</ele>
        <time>2022-06-02T10:14:30Z</time>
      </trkpt>
      <trkpt lat="49.43678" lon="-1.1984">
        <ele>3.2</ele>
        <time>2022-06-02T10:14:31Z</time>
      </trkpt>
      <trkpt lat="49.43678" lon="-1.1984">
        <ele>3.2</ele>
        <time>2022-06-02T10:14:32Z</time>
      </trkpt>
      <trkpt lat="49.43678" lon="-1.1984">
        <ele>3.2</ele>
        <time>2022-06-02T10:14:33Z</time>
      </trkpt>
      <trkpt lat="49.43678" lon="-1.1984">
        <ele>3.2</ele>
        <time>2022-06-02T10:14:34Z</time>
      </trkpt>
      <trkpt lat="49.43678" lon="-1.1984">
        <ele>3.2</ele>
        <time>2022-06-02T10:14:35Z</time>
      </trkpt>
      <trkpt lat="49.43679" lon="-1.1984">
        <ele>3.2</ele>
        <time>2022-06-02T10:14:36Z</time>
      </trkpt>
      <trkpt lat="49.43679" lon="-1.1984">
        <ele>3.2</ele>
        <time>2022-06-02T10:14:37Z</time>
      </trkpt>
      <trkpt lat="49.43679" lon="-1.1984">
        <ele>3.2</ele>
        <time>2022-06-02T10:14:38Z</time>
      </trkpt>
      <trkpt lat="49.43679" lon="-1.1984">
        <ele>3.2</ele>
        <time>2022-06-02T10:14:39Z</time>
      </trkpt>
      <trkpt lat="49.43679" lon="-1.1984">
        <ele>3.2</ele>
        <time>2022-06-02T10:14:40Z</time>
      </trkpt>
      <trkpt lat="49.43679" lon="-1.1984">
        <ele>3.2</ele>
        <time>2022-06-02T10:14:41Z</time>
      </trkpt>
      <trkpt lat="49.43679" lon="-1.1984">
        <ele>3.2</ele>
        <time>2022-06-02T10:14:42Z</time>
      </trkpt>
      <trkpt lat="49.43679" lon="-1.1984">
        <ele>3.2</ele>
        <time>2022-06-02T10:14:43Z</time>
      </trkpt>
      <trkpt lat="49.43679" lon="-1.1984">
        <ele>3.2</ele>
        <time>2022-06-02T10:14:44Z</time>
      </trkpt>
      <trkpt lat="49.4368" lon="-1.1984">
        <ele>3.2</ele>
        <time>2022-06-02T10:14:45Z</time>
      </trkpt>
      <trkpt lat="49.4368" lon="-1.1984">
        <ele>3.2</ele>
        <time>2022-06-02T10:14:46Z</time>
      </trkpt>
      <trkpt lat="49.4368" lon="-1.1984">
        <ele>3.2</ele>
        <time>2022-06-02T10:14:47Z</time>
      </trkpt>
      <trkpt lat="49.4368" lon="-1.1984">
        <ele>3.2</ele>
        <time>2022-06-02T10:14:48Z</time>
      </trkpt>
      <trkpt lat="49.4368" lon="-1.1984">
        <ele>3.2</ele>
        <time>2022-06-02T10:14:49Z</time>
      </trkpt>
      <trkpt lat="49.4368" lon="-1.1984">
        <ele>3.2</ele>
        <time>2022-06-02T10:14:50Z</time>
      </trkpt>
      <trkpt lat="49.4368" lon="-1.19839">
        <ele>3.2</ele>
        <time>2022-06-02T10:14:51Z</time>
      </trkpt>
      <trkpt lat="49.4368" lon="-1.19839">
        <ele>3.2</ele>
        <time>2022-06-02T10:14:52Z</time>
      </trkpt>
      <trkpt lat="49.4368" lon="-1.19839">
        <ele>3.2</ele>
        <time>2022-06-02T10:14:53Z</time>
      </trkpt>
      <trkpt lat="49.43681" lon="-1.19839">
        <ele>3.2</ele>
        <time>2022-06-02T10:14:54Z</time>
      </trkpt>
      <trkpt lat="49.43682" lon="-1.19839">
        <ele>3.2</ele>
        <time>2022-06-02T10:14:55Z</time>
      </trkpt>
      <trkpt lat="49.43681" lon="-1.19839">
        <ele>3.2</ele>
        <time>2022-06-02T10:14:56Z</time>
      </trkpt>
      <trkpt lat="49.43682" lon="-1.19839">
        <ele>3.3</ele>
        <time>2022-06-02T10:14:57Z</time>
      </trkpt>
      <trkpt lat="49.43682" lon="-1.19838">
        <ele>3.3</ele>
        <time>2022-06-02T10:14:59Z</time>
      </trkpt>
      <trkpt lat="49.43681" lon="-1.19838">
        <ele>3.3</ele>
        <time>2022-06-02T10:15:00Z</time>
      </trkpt>
      <trkpt lat="49.43681" lon="-1.19837">
        <ele>3.3</ele>
        <time>2022-06-02T10:15:01Z</time>
      </trkpt>
      <trkpt lat="49.43681" lon="-1.19836">
        <ele>3.3</ele>
        <time>2022-06-02T10:15:02Z</time>
      </trkpt>
      <trkpt lat="49.43682" lon="-1.19836">
        <ele>3.3</ele>
        <time>2022-06-02T10:15:03Z</time>
      </trkpt>
      <trkpt lat="49.43682" lon="-1.19835">
        <ele>3.3</ele>
        <time>2022-06-02T10:15:04Z</time>
      </trkpt>
      <trkpt lat="49.43681" lon="-1.19834">
        <ele>3.4</ele>
        <time>2022-06-02T10:15:05Z</time>
      </trkpt>
      <trkpt lat="49.43681" lon="-1.19833">
        <ele>3.4</ele>
        <time>2022-06-02T10:15:07Z</time>
      </trkpt>
      <trkpt lat="49.4368" lon="-1.19832">
        <ele>3.4</ele>
        <time>2022-06-02T10:15:08Z</time>
      </trkpt>
      <trkpt lat="49.4368" lon="-1.19831">
        <ele>3.4</ele>
        <time>2022-06-02T10:15:09Z</time>
      </trkpt>
      <trkpt lat="49.43679" lon="-1.19829">
        <ele>3.5</ele>
        <time>2022-06-02T10:15:10Z</time>
      </trkpt>
      <trkpt lat="49.43678" lon="-1.19828">
        <ele>3.5</ele>
        <time>2022-06-02T10:15:11Z</time>
      </trkpt>
      <trkpt lat="49.43675" lon="-1.19825">
        <ele>3.6</ele>
        <time>2022-06-02T10:15:12Z</time>
      </trkpt>
      <trkpt lat="49.43675" lon="-1.19824">
        <ele>3.6</ele>
        <time>2022-06-02T10:15:14Z</time>
      </trkpt>
      <trkpt lat="49.43674" lon="-1.19823">
        <ele>3.6</ele>
        <time>2022-06-02T10:15:15Z</time>
      </trkpt>
      <trkpt lat="49.43673" lon="-1.19822">
        <ele>3.7</ele>
        <time>2022-06-02T10:15:16Z</time>
      </trkpt>
      <trkpt lat="49.43672" lon="-1.19821">
        <ele>3.7</ele>
        <time>2022-06-02T10:15:17Z</time>
      </trkpt>
      <trkpt lat="49.43671" lon="-1.1982">
        <ele>3.7</ele>
        <time>2022-06-02T10:15:18Z</time>
      </trkpt>
      <trkpt lat="49.4367" lon="-1.19818">
        <ele>3.8</ele>
        <time>2022-06-02T10:15:20Z</time>
      </trkpt>
      <trkpt lat="49.43671" lon="-1.19818">
        <ele>3.2</ele>
        <time>2022-06-02T10:15:21Z</time>
      </trkpt>
      <trkpt lat="49.43671" lon="-1.19818">
        <ele>3.2</ele>
        <time>2022-06-02T10:15:22Z</time>
      </trkpt>
      <trkpt lat="49.43671" lon="-1.19818">
        <ele>3.2</ele>
        <time>2022-06-02T10:15:23Z</time>
      </trkpt>
      <trkpt lat="49.43671" lon="-1.19818">
        <ele>3.2</ele>
        <time>2022-06-02T10:15:24Z</time>
      </trkpt>
      <trkpt lat="49.43671" lon="-1.19817">
        <ele>3.2</ele>
        <time>2022-06-02T10:15:25Z</time>
      </trkpt>
      <trkpt lat="49.4367" lon="-1.19817">
        <ele>3.2</ele>
        <time>2022-06-02T10:15:26Z</time>
      </trkpt>
      <trkpt lat="49.4367" lon="-1.19816">
        <ele>3.2</ele>
        <time>2022-06-02T10:15:28Z</time>
      </trkpt>
      <trkpt lat="49.43669" lon="-1.19815">
        <ele>3.2</ele>
        <time>2022-06-02T10:15:29Z</time>
      </trkpt>
      <trkpt lat="49.43668" lon="-1.19814">
        <ele>3.2</ele>
        <time>2022-06-02T10:15:30Z</time>
      </trkpt>
      <trkpt lat="49.43666" lon="-1.19811">
        <ele>3.2</ele>
        <time>2022-06-02T10:15:31Z</time>
      </trkpt>
      <trkpt lat="49.43665" lon="-1.1981">
        <ele>3.2</ele>
        <time>2022-06-02T10:15:32Z</time>
      </trkpt>
      <trkpt lat="49.43663" lon="-1.19807">
        <ele>3.2</ele>
        <time>2022-06-02T10:15:34Z</time>
      </trkpt>
      <trkpt lat="49.43662" lon="-1.19806">
        <ele>3.2</ele>
        <time>2022-06-02T10:15:35Z</time>
      </trkpt>
      <trkpt lat="49.43661" lon="-1.19805">
        <ele>3.2</ele>
        <time>2022-06-02T10:15:36Z</time>
      </trkpt>
      <trkpt lat="49.4366" lon="-1.19804">
        <ele>3.2</ele>
        <time>2022-06-02T10:15:37Z</time>
      </trkpt>
      <trkpt lat="49.43658" lon="-1.19802">
        <ele>3.2</ele>
        <time>2022-06-02T10:15:39Z</time>
      </trkpt>
      <trkpt lat="49.43658" lon="-1.198">
        <ele>3.2</ele>
        <time>2022-06-02T10:15:40Z</time>
      </trkpt>
      <trkpt lat="49.43657" lon="-1.19798">
        <ele>3.2</ele>
        <time>2022-06-02T10:15:41Z</time>
      </trkpt>
      <trkpt lat="49.43656" lon="-1.19796">
        <ele>3.2</ele>
        <time>2022-06-02T10:15:42Z</time>
      </trkpt>
      <trkpt lat="49.43655" lon="-1.19795">
        <ele>3.2</ele>
        <time>2022-06-02T10:15:43Z</time>
      </trkpt>
      <trkpt lat="49.43654" lon="-1.19794">
        <ele>3.2</ele>
        <time>2022-06-02T10:15:45Z</time>
      </trkpt>
      <trkpt lat="49.43652" lon="-1.19792">
        <ele>3.3</ele>
        <time>2022-06-02T10:15:46Z</time>
      </trkpt>
      <trkpt lat="49.43651" lon="-1.19791">
        <ele>3.3</ele>
        <time>2022-06-02T10:15:47Z</time>
      </trkpt>
      <trkpt lat="49.4365" lon="-1.1979">
        <ele>3.3</ele>
        <time>2022-06-02T10:15:48Z</time>
      </trkpt>
      <trkpt lat="49.43649" lon="-1.19789">
        <ele>3.3</ele>
        <time>2022-06-02T10:15:49Z</time>
      </trkpt>
      <trkpt lat="49.43648" lon="-1.19788">
        <ele>3.3</ele>
        <time>2022-06-02T10:15:51Z</time>
      </trkpt>
      <trkpt lat="49.43647" lon="-1.19788">
        <ele>3.3</ele>
        <time>2022-06-02T10:15:52Z</time>
      </trkpt>
      <trkpt lat="49.43646" lon="-1.19788">
        <ele>3.3</ele>
        <time>2022-06-02T10:15:53Z</time>
      </trkpt>
      <trkpt lat="49.43645" lon="-1.19787">
        <ele>3.3</ele>
        <time>2022-06-02T10:15:54Z</time>
      </trkpt>
      <trkpt lat="49.43644" lon="-1.19786">
        <ele>3.4</ele>
        <time>2022-06-02T10:15:55Z</time>
      </trkpt>
      <trkpt lat="49.43643" lon="-1.19785">
        <ele>3.4</ele>
        <time>2022-06-02T10:15:57Z</time>
      </trkpt>
      <trkpt lat="49.43642" lon="-1.19786">
        <ele>3.4</ele>
        <time>2022-06-02T10:15:58Z</time>
      </trkpt>
      <trkpt lat="49.43642" lon="-1.19787">
        <ele>3.4</ele>
        <time>2022-06-02T10:15:59Z</time>
      </trkpt>
      <trkpt lat="49.43641" lon="-1.19788">
        <ele>3.4</ele>
        <time>2022-06-02T10:16:00Z</time>
      </trkpt>
      <trkpt lat="49.43642" lon="-1.19788">
        <ele>3.4</ele>
        <time>2022-06-02T10:16:01Z</time>
      </trkpt>
      <trkpt lat="49.43642" lon="-1.19788">
        <ele>3.4</ele>
        <time>2022-06-02T10:16:02Z</time>
      </trkpt>
      <trkpt lat="49.43642" lon="-1.19788">
        <ele>3.4</ele>
        <time>2022-06-02T10:16:03Z</time>
      </trkpt>
      <trkpt lat="49.43642" lon="-1.19787">
        <ele>3.4</ele>
        <time>2022-06-02T10:16:05Z</time>
      </trkpt>
      <trkpt lat="49.43642" lon="-1.19787">
        <ele>3.4</ele>
        <time>2022-06-02T10:16:06Z</time>
      </trkpt>
      <trkpt lat="49.43641" lon="-1.19786">
        <ele>3.4</ele>
        <time>2022-06-02T10:16:07Z</time>
      </trkpt>
      <trkpt lat="49.43641" lon="-1.19786">
        <ele>3.4</ele>
        <time>2022-06-02T10:16:08Z</time>
      </trkpt>
      <trkpt lat="49.4364" lon="-1.19785">
        <ele>3.4</ele>
        <time>2022-06-02T10:16:09Z</time>
      </trkpt>
      <trkpt lat="49.4364" lon="-1.19783">
        <ele>3.4</ele>
        <time>2022-06-02T10:16:10Z</time>
      </trkpt>
      <trkpt lat="49.4364" lon="-1.19782">
        <ele>3.4</ele>
        <time>2022-06-02T10:16:11Z</time>
      </trkpt>
      <trkpt lat="49.43639" lon="-1.19781">
        <ele>3.4</ele>
        <time>2022-06-02T10:16:13Z</time>
      </trkpt>
      <trkpt lat="49.43638" lon="-1.19779">
        <ele>3.4</ele>
        <time>2022-06-02T10:16:14Z</time>
      </trkpt>
      <trkpt lat="49.43637" lon="-1.19778">
        <ele>3.4</ele>
        <time>2022-06-02T10:16:15Z</time>
      </trkpt>
      <trkpt lat="49.43636" lon="-1.19776">
        <ele>3.4</ele>
        <time>2022-06-02T10:16:16Z</time>
      </trkpt>
      <trkpt lat="49.43636" lon="-1.19774">
        <ele>3.4</ele>
        <time>2022-06-02T10:16:17Z</time>
      </trkpt>
      <trkpt lat="49.43635" lon="-1.19773">
        <ele>3.4</ele>
        <time>2022-06-02T10:16:18Z</time>
      </trkpt>
      <trkpt lat="49.43634" lon="-1.19771">
        <ele>3.4</ele>
        <time>2022-06-02T10:16:20Z</time>
      </trkpt>
      <trkpt lat="49.43633" lon="-1.19768">
        <ele>3.4</ele>
        <time>2022-06-02T10:16:21Z</time>
      </trkpt>
      <trkpt lat="49.43633" lon="-1.19767">
        <ele>3.4</ele>
        <time>2022-06-02T10:16:22Z</time>
      </trkpt>
      <trkpt lat="49.43632" lon="-1.19766">
        <ele>3.3</ele>
        <time>2022-06-02T10:16:23Z</time>
      </trkpt>
      <trkpt lat="49.43632" lon="-1.19764">
        <ele>3.3</ele>
        <time>2022-06-02T10:16:24Z</time>
      </trkpt>
      <trkpt lat="49.4363" lon="-1.19762">
        <ele>3.3</ele>
        <time>2022-06-02T10:16:25Z</time>
      </trkpt>
      <trkpt lat="49.43629" lon="-1.1976">
        <ele>3.3</ele>
        <time>2022-06-02T10:16:26Z</time>
      </trkpt>
      <trkpt lat="49.43628" lon="-1.19759">
        <ele>3.3</ele>
        <time>2022-06-02T10:16:28Z</time>
      </trkpt>
      <trkpt lat="49.43628" lon="-1.19758">
        <ele>3.3</ele>
        <time>2022-06-02T10:16:29Z</time>
      </trkpt>
      <trkpt lat="49.43626" lon="-1.19756">
        <ele>3.3</ele>
        <time>2022-06-02T10:16:30Z</time>
      </trkpt>
      <trkpt lat="49.43625" lon="-1.19755">
        <ele>3.3</ele>
        <time>2022-06-02T10:16:31Z</time>
      </trkpt>
      <trkpt lat="49.43625" lon="-1.19754">
        <ele>3.2</ele>
        <time>2022-06-02T10:16:32Z</time>
      </trkpt>
      <trkpt lat="49.43624" lon="-1.19754">
        <ele>3.2</ele>
        <time>2022-06-02T10:16:34Z</time>
      </trkpt>
      <trkpt lat="49.43623" lon="-1.19754">
        <ele>3.2</ele>
        <time>2022-06-02T10:16:35Z</time>
      </trkpt>
      <trkpt lat="49.43623" lon="-1.19754">
        <ele>3.2</ele>
        <time>2022-06-02T10:16:36Z</time>
      </trkpt>
      <trkpt lat="49.43623" lon="-1.19754">
        <ele>3.2</ele>
        <time>2022-06-02T10:16:37Z</time>
      </trkpt>
      <trkpt lat="49.43623" lon="-1.19753">
        <ele>3.2</ele>
        <time>2022-06-02T10:16:38Z</time>
      </trkpt>
      <trkpt lat="49.43622" lon="-1.19754">
        <ele>3.2</ele>
        <time>2022-06-02T10:16:39Z</time>
      </trkpt>
      <trkpt lat="49.43622" lon="-1.19755">
        <ele>3.2</ele>
        <time>2022-06-02T10:16:40Z</time>
      </trkpt>
      <trkpt lat="49.43623" lon="-1.19756">
        <ele>3.2</ele>
        <time>2022-06-02T10:16:42Z</time>
      </trkpt>
      <trkpt lat="49.43623" lon="-1.19756">
        <ele>3.2</ele>
        <time>2022-06-02T10:16:43Z</time>
      </trkpt>
      <trkpt lat="49.43623" lon="-1.19756">
        <ele>3.2</ele>
        <time>2022-06-02T10:16:44Z</time>
      </trkpt>
      <trkpt lat="49.43623" lon="-1.19756">
        <ele>3.2</ele>
        <time>2022-06-02T10:16:45Z</time>
      </trkpt>
      <trkpt lat="49.43624" lon="-1.19756">
        <ele>3.2</ele>
        <time>2022-06-02T10:16:46Z</time>
      </trkpt>
      <trkpt lat="49.43624" lon="-1.19756">
        <ele>3.2</ele>
        <time>2022-06-02T10:16:47Z</time>
      </trkpt>
      <trkpt lat="49.43624" lon="-1.19756">
        <ele>3.2</ele>
        <time>2022-06-02T10:16:48Z</time>
      </trkpt>
      <trkpt lat="49.43624" lon="-1.19756">
        <ele>3.2</ele>
        <time>2022-06-02T10:16:49Z</time>
      </trkpt>
      <trkpt lat="49.43624" lon="-1.19757">
        <ele>3.2</ele>
        <time>2022-06-02T10:16:50Z</time>
      </trkpt>
      <trkpt lat="49.43624" lon="-1.19757">
        <ele>3.2</ele>
        <time>2022-06-02T10:16:51Z</time>
      </trkpt>
      <trkpt lat="49.43624" lon="-1.19757">
        <ele>3.2</ele>
        <time>2022-06-02T10:16:52Z</time>
      </trkpt>
      <trkpt lat="49.43624" lon="-1.19757">
        <ele>3.2</ele>
        <time>2022-06-02T10:16:53Z</time>
      </trkpt>
      <trkpt lat="49.43624" lon="-1.19757">
        <ele>3.2</ele>
        <time>2022-06-02T10:16:54Z</time>
      </trkpt>
      <trkpt lat="49.43624" lon="-1.19757">
        <ele>3.2</ele>
        <time>2022-06-02T10:16:55Z</time>
      </trkpt>
      <trkpt lat="49.43624" lon="-1.19757">
        <ele>3.2</ele>
        <time>2022-06-02T10:16:56Z</time>
      </trkpt>
      <trkpt lat="49.43624" lon="-1.19757">
        <ele>3.2</ele>
        <time>2022-06-02T10:16:57Z</time>
      </trkpt>
      <trkpt lat="49.43624" lon="-1.19757">
        <ele>3.2</ele>
        <time>2022-06-02T10:16:58Z</time>
      </trkpt>
      <trkpt lat="49.43624" lon="-1.19757">
        <ele>3.2</ele>
        <time>2022-06-02T10:16:59Z</time>
      </trkpt>
      <trkpt lat="49.43624" lon="-1.19757">
        <ele>3.2</ele>
        <time>2022-06-02T10:17:00Z</time>
      </trkpt>
      <trkpt lat="49.43624" lon="-1.19757">
        <ele>3.2</ele>
        <time>2022-06-02T10:17:01Z</time>
      </trkpt>
      <trkpt lat="49.43624" lon="-1.19757">
        <ele>3.2</ele>
        <time>2022-06-02T10:17:02Z</time>
      </trkpt>
      <trkpt lat="49.43624" lon="-1.19757">
        <ele>3.2</ele>
        <time>2022-06-02T10:17:03Z</time>
      </trkpt>
      <trkpt lat="49.43624" lon="-1.19757">
        <ele>3.2</ele>
        <time>2022-06-02T10:17:04Z</time>
      </trkpt>
      <trkpt lat="49.43624" lon="-1.19757">
        <ele>3.2</ele>
        <time>2022-06-02T10:17:05Z</time>
      </trkpt>
      <trkpt lat="49.43624" lon="-1.19757">
        <ele>3.2</ele>
        <time>2022-06-02T10:17:06Z</time>
      </trkpt>
      <trkpt lat="49.43624" lon="-1.19757">
        <ele>3.2</ele>
        <time>2022-06-02T10:17:07Z</time>
      </trkpt>
      <trkpt lat="49.43624" lon="-1.19757">
        <ele>3.2</ele>
        <time>2022-06-02T10:17:08Z</time>
      </trkpt>
      <trkpt lat="49.43624" lon="-1.19757">
        <ele>3.2</ele>
        <time>2022-06-02T10:17:09Z</time>
      </trkpt>
      <trkpt lat="49.43624" lon="-1.19757">
        <ele>3.2</ele>
        <time>2022-06-02T10:17:10Z</time>
      </trkpt>
      <trkpt lat="49.43624" lon="-1.19757">
        <ele>3.2</ele>
        <time>2022-06-02T10:17:11Z</time>
      </trkpt>
      <trkpt lat="49.43624" lon="-1.19757">
        <ele>3.2</ele>
        <time>2022-06-02T10:17:12Z</time>
      </trkpt>
      <trkpt lat="49.43624" lon="-1.19757">
        <ele>3.2</ele>
        <time>2022-06-02T10:17:13Z</time>
      </trkpt>
      <trkpt lat="49.43624" lon="-1.19757">
        <ele>3.2</ele>
        <time>2022-06-02T10:17:14Z</time>
      </trkpt>
      <trkpt lat="49.43624" lon="-1.19757">
        <ele>3.2</ele>
        <time>2022-06-02T10:17:15Z</time>
      </trkpt>
      <trkpt lat="49.43624" lon="-1.19757">
        <ele>3.2</ele>
        <time>2022-06-02T10:17:16Z</time>
      </trkpt>
      <trkpt lat="49.43624" lon="-1.19757">
        <ele>3.2</ele>
        <time>2022-06-02T10:17:17Z</time>
      </trkpt>
      <trkpt lat="49.43624" lon="-1.19757">
        <ele>3.2</ele>
        <time>2022-06-02T10:17:18Z</time>
      </trkpt>
      <trkpt lat="49.43624" lon="-1.19757">
        <ele>3.2</ele>
        <time>2022-06-02T10:17:19Z</time>
      </trkpt>
      <trkpt lat="49.43624" lon="-1.19757">
        <ele>3.2</ele>
        <time>2022-06-02T10:17:20Z</time>
      </trkpt>
      <trkpt lat="49.43624" lon="-1.19757">
        <ele>3.2</ele>
        <time>2022-06-02T10:17:21Z</time>
      </trkpt>
      <trkpt lat="49.43624" lon="-1.19757">
        <ele>3.2</ele>
        <time>2022-06-02T10:17:22Z</time>
      </trkpt>
      <trkpt lat="49.43624" lon="-1.19757">
        <ele>3.2</ele>
        <time>2022-06-02T10:17:23Z</time>
      </trkpt>
      <trkpt lat="49.43624" lon="-1.19757">
        <ele>3.2</ele>
        <time>2022-06-02T10:17:24Z</time>
      </trkpt>
      <trkpt lat="49.43624" lon="-1.19757">
        <ele>3.2</ele>
        <time>2022-06-02T10:17:25Z</time>
      </trkpt>
      <trkpt lat="49.43624" lon="-1.19757">
        <ele>3.2</ele>
        <time>2022-06-02T10:17:26Z</time>
      </trkpt>
      <trkpt lat="49.43624" lon="-1.19757">
        <ele>3.2</ele>
        <time>2022-06-02T10:17:27Z</time>
      </trkpt>
      <trkpt lat="49.43624" lon="-1.19757">
        <ele>3.2</ele>
        <time>2022-06-02T10:17:28Z</time>
      </trkpt>
      <trkpt lat="49.43624" lon="-1.19757">
        <ele>3.2</ele>
        <time>2022-06-02T10:17:29Z</time>
      </trkpt>
      <trkpt lat="49.43624" lon="-1.19757">
        <ele>3.2</ele>
        <time>2022-06-02T10:17:30Z</time>
      </trkpt>
      <trkpt lat="49.43624" lon="-1.19757">
        <ele>3.2</ele>
        <time>2022-06-02T10:17:31Z</time>
      </trkpt>
      <trkpt lat="49.43624" lon="-1.19757">
        <ele>3.2</ele>
        <time>2022-06-02T10:17:32Z</time>
      </trkpt>
      <trkpt lat="49.43624" lon="-1.19757">
        <ele>3.2</ele>
        <time>2022-06-02T10:17:33Z</time>
      </trkpt>
      <trkpt lat="49.43624" lon="-1.19757">
        <ele>3.2</ele>
        <time>2022-06-02T10:17:34Z</time>
      </trkpt>
      <trkpt lat="49.43624" lon="-1.19757">
        <ele>3.2</ele>
        <time>2022-06-02T10:17:35Z</time>
      </trkpt>
      <trkpt lat="49.43624" lon="-1.19757">
        <ele>3.2</ele>
        <time>2022-06-02T10:17:36Z</time>
      </trkpt>
      <trkpt lat="49.43624" lon="-1.19757">
        <ele>3.2</ele>
        <time>2022-06-02T10:17:37Z</time>
      </trkpt>
      <trkpt lat="49.43624" lon="-1.19757">
        <ele>3.2</ele>
        <time>2022-06-02T10:17:38Z</time>
      </trkpt>
      <trkpt lat="49.43624" lon="-1.19757">
        <ele>3.2</ele>
        <time>2022-06-02T10:17:39Z</time>
      </trkpt>
      <trkpt lat="49.43624" lon="-1.19757">
        <ele>3.2</ele>
        <time>2022-06-02T10:17:40Z</time>
      </trkpt>
      <trkpt lat="49.43624" lon="-1.19757">
        <ele>3.2</ele>
        <time>2022-06-02T10:17:41Z</time>
      </trkpt>
      <trkpt lat="49.43624" lon="-1.19757">
        <ele>3.2</ele>
        <time>2022-06-02T10:17:42Z</time>
      </trkpt>
      <trkpt lat="49.43624" lon="-1.19757">
        <ele>3.2</ele>
        <time>2022-06-02T10:17:43Z</time>
      </trkpt>
      <trkpt lat="49.43624" lon="-1.19757">
        <ele>3.2</ele>
        <time>2022-06-02T10:17:44Z</time>
      </trkpt>
      <trkpt lat="49.43624" lon="-1.19757">
        <ele>3.2</ele>
        <time>2022-06-02T10:17:45Z</time>
      </trkpt>
      <trkpt lat="49.43624" lon="-1.19757">
        <ele>3.2</ele>
        <time>2022-06-02T10:17:46Z</time>
      </trkpt>
      <trkpt lat="49.43624" lon="-1.19757">
        <ele>3.2</ele>
        <time>2022-06-02T10:17:47Z</time>
      </trkpt>
      <trkpt lat="49.43624" lon="-1.19757">
        <ele>3.2</ele>
        <time>2022-06-02T10:17:48Z</time>
      </trkpt>
      <trkpt lat="49.43624" lon="-1.19757">
        <ele>3.2</ele>
        <time>2022-06-02T10:17:49Z</time>
      </trkpt>
      <trkpt lat="49.43624" lon="-1.19757">
        <ele>3.2</ele>
        <time>2022-06-02T10:17:50Z</time>
      </trkpt>
      <trkpt lat="49.43624" lon="-1.19757">
        <ele>3.2</ele>
        <time>2022-06-02T10:17:51Z</time>
      </trkpt>
      <trkpt lat="49.43624" lon="-1.19757">
        <ele>3.2</ele>
        <time>2022-06-02T10:17:52Z</time>
      </trkpt>
      <trkpt lat="49.43624" lon="-1.19757">
        <ele>3.2</ele>
        <time>2022-06-02T10:17:53Z</time>
      </trkpt>
      <trkpt lat="49.43624" lon="-1.19757">
        <ele>3.2</ele>
        <time>2022-06-02T10:17:54Z</time>
      </trkpt>
      <trkpt lat="49.43624" lon="-1.19757">
        <ele>3.2</ele>
        <time>2022-06-02T10:17:55Z</time>
      </trkpt>
      <trkpt lat="49.43624" lon="-1.19757">
        <ele>3.2</ele>
        <time>2022-06-02T10:17:56Z</time>
      </trkpt>
      <trkpt lat="49.43624" lon="-1.19757">
        <ele>3.2</ele>
        <time>2022-06-02T10:17:57Z</time>
      </trkpt>
      <trkpt lat="49.43624" lon="-1.19757">
        <ele>3.2</ele>
        <time>2022-06-02T10:17:58Z</time>
      </trkpt>
      <trkpt lat="49.43624" lon="-1.19757">
        <ele>3.2</ele>
        <time>2022-06-02T10:17:59Z</time>
      </trkpt>
      <trkpt lat="49.43624" lon="-1.19757">
        <ele>3.2</ele>
        <time>2022-06-02T10:18:00Z</time>
      </trkpt>
      <trkpt lat="49.43624" lon="-1.19757">
        <ele>3.2</ele>
        <time>2022-06-02T10:18:01Z</time>
      </trkpt>
      <trkpt lat="49.43624" lon="-1.19757">
        <ele>3.2</ele>
        <time>2022-06-02T10:18:02Z</time>
      </trkpt>
      <trkpt lat="49.43624" lon="-1.19757">
        <ele>3.2</ele>
        <time>2022-06-02T10:18:03Z</time>
      </trkpt>
      <trkpt lat="49.43624" lon="-1.19757">
        <ele>3.2</ele>
        <time>2022-06-02T10:18:04Z</time>
      </trkpt>
      <trkpt lat="49.43624" lon="-1.19757">
        <ele>3.2</ele>
        <time>2022-06-02T10:18:05Z</time>
      </trkpt>
      <trkpt lat="49.43624" lon="-1.19757">
        <ele>3.2</ele>
        <time>2022-06-02T10:18:06Z</time>
      </trkpt>
      <trkpt lat="49.43624" lon="-1.19757">
        <ele>3.2</ele>
        <time>2022-06-02T10:18:07Z</time>
      </trkpt>
      <trkpt lat="49.43624" lon="-1.19757">
        <ele>3.2</ele>
        <time>2022-06-02T10:18:08Z</time>
      </trkpt>
      <trkpt lat="49.43624" lon="-1.19757">
        <ele>3.2</ele>
        <time>2022-06-02T10:18:09Z</time>
      </trkpt>
      <trkpt lat="49.43624" lon="-1.19757">
        <ele>3.2</ele>
        <time>2022-06-02T10:18:10Z</time>
      </trkpt>
      <trkpt lat="49.43624" lon="-1.19757">
        <ele>3.2</ele>
        <time>2022-06-02T10:18:11Z</time>
      </trkpt>
      <trkpt lat="49.43624" lon="-1.19757">
        <ele>3.2</ele>
        <time>2022-06-02T10:18:12Z</time>
      </trkpt>
      <trkpt lat="49.43624" lon="-1.19757">
        <ele>3.2</ele>
        <time>2022-06-02T10:18:13Z</time>
      </trkpt>
      <trkpt lat="49.43624" lon="-1.19757">
        <ele>3.2</ele>
        <time>2022-06-02T10:18:14Z</time>
      </trkpt>
      <trkpt lat="49.43624" lon="-1.19757">
        <ele>3.2</ele>
        <time>2022-06-02T10:18:15Z</time>
      </trkpt>
      <trkpt lat="49.43624" lon="-1.19757">
        <ele>3.2</ele>
        <time>2022-06-02T10:18:16Z</time>
      </trkpt>
      <trkpt lat="49.43624" lon="-1.19757">
        <ele>3.2</ele>
        <time>2022-06-02T10:18:17Z</time>
      </trkpt>
      <trkpt lat="49.43624" lon="-1.19757">
        <ele>3.2</ele>
        <time>2022-06-02T10:18:18Z</time>
      </trkpt>
      <trkpt lat="49.43624" lon="-1.19757">
        <ele>3.2</ele>
        <time>2022-06-02T10:18:19Z</time>
      </trkpt>
      <trkpt lat="49.43624" lon="-1.19757">
        <ele>3.2</ele>
        <time>2022-06-02T10:18:20Z</time>
      </trkpt>
      <trkpt lat="49.43624" lon="-1.19757">
        <ele>3.2</ele>
        <time>2022-06-02T10:18:21Z</time>
      </trkpt>
      <trkpt lat="49.43624" lon="-1.19757">
        <ele>3.2</ele>
        <time>2022-06-02T10:18:22Z</time>
      </trkpt>
      <trkpt lat="49.43624" lon="-1.19757">
        <ele>3.2</ele>
        <time>2022-06-02T10:18:23Z</time>
      </trkpt>
      <trkpt lat="49.43624" lon="-1.19757">
        <ele>3.2</ele>
        <time>2022-06-02T10:18:24Z</time>
      </trkpt>
      <trkpt lat="49.43624" lon="-1.19757">
        <ele>3.2</ele>
        <time>2022-06-02T10:18:25Z</time>
      </trkpt>
      <trkpt lat="49.43627" lon="-1.19758">
        <ele>3.2</ele>
        <time>2022-06-02T10:18:26Z</time>
      </trkpt>
      <trkpt lat="49.43629" lon="-1.19758">
        <ele>3.2</ele>
        <time>2022-06-02T10:18:27Z</time>
      </trkpt>
      <trkpt lat="49.43629" lon="-1.19758">
        <ele>3.2</ele>
        <time>2022-06-02T10:18:28Z</time>
      </trkpt>
      <trkpt lat="49.43629" lon="-1.19757">
        <ele>3.2</ele>
        <time>2022-06-02T10:18:29Z</time>
      </trkpt>
      <trkpt lat="49.43628" lon="-1.19757">
        <ele>3.2</ele>
        <time>2022-06-02T10:18:30Z</time>
      </trkpt>
      <trkpt lat="49.43628" lon="-1.19756">
        <ele>3.1</ele>
        <time>2022-06-02T10:18:31Z</time>
      </trkpt>
      <trkpt lat="49.43627" lon="-1.19756">
        <ele>3.1</ele>
        <time>2022-06-02T10:18:32Z</time>
      </trkpt>
      <trkpt lat="49.43626" lon="-1.19755">
        <ele>3.1</ele>
        <time>2022-06-02T10:18:33Z</time>
      </trkpt>
      <trkpt lat="49.43625" lon="-1.19754">
        <ele>3.1</ele>
        <time>2022-06-02T10:18:34Z</time>
      </trkpt>
      <trkpt lat="49.43624" lon="-1.19753">
        <ele>3.1</ele>
        <time>2022-06-02T10:18:35Z</time>
      </trkpt>
      <trkpt lat="49.43622" lon="-1.19751">
        <ele>3.1</ele>
        <time>2022-06-02T10:18:37Z</time>
      </trkpt>
      <trkpt lat="49.4362" lon="-1.1975">
        <ele>3.1</ele>
        <time>2022-06-02T10:18:38Z</time>
      </trkpt>
      <trkpt lat="49.43619" lon="-1.19748">
        <ele>3.1</ele>
        <time>2022-06-02T10:18:39Z</time>
      </trkpt>
      <trkpt lat="49.43618" lon="-1.19747">
        <ele>3.1</ele>
        <time>2022-06-02T10:18:40Z</time>
      </trkpt>
      <trkpt lat="49.43617" lon="-1.19746">
        <ele>3.1</ele>
        <time>2022-06-02T10:18:41Z</time>
      </trkpt>
      <trkpt lat="49.43616" lon="-1.19745">
        <ele>3.1</ele>
        <time>2022-06-02T10:18:42Z</time>
      </trkpt>
      <trkpt lat="49.43616" lon="-1.19743">
        <ele>3.1</ele>
        <time>2022-06-02T10:18:44Z</time>
      </trkpt>
      <trkpt lat="49.43617" lon="-1.19744">
        <ele>3.1</ele>
        <time>2022-06-02T10:18:45Z</time>
      </trkpt>
      <trkpt lat="49.43616" lon="-1.19743">
        <ele>3.1</ele>
        <time>2022-06-02T10:18:46Z</time>
      </trkpt>
      <trkpt lat="49.43616" lon="-1.19742">
        <ele>3.1</ele>
        <time>2022-06-02T10:18:47Z</time>
      </trkpt>
      <trkpt lat="49.43616" lon="-1.19741">
        <ele>3.1</ele>
        <time>2022-06-02T10:18:48Z</time>
      </trkpt>
      <trkpt lat="49.43615" lon="-1.1974">
        <ele>3.1</ele>
        <time>2022-06-02T10:18:49Z</time>
      </trkpt>
      <trkpt lat="49.43616" lon="-1.19738">
        <ele>3.1</ele>
        <time>2022-06-02T10:18:50Z</time>
      </trkpt>
      <trkpt lat="49.43616" lon="-1.19737">
        <ele>3.1</ele>
        <time>2022-06-02T10:18:51Z</time>
      </trkpt>
      <trkpt lat="49.43617" lon="-1.19736">
        <ele>3.1</ele>
        <time>2022-06-02T10:18:53Z</time>
      </trkpt>
      <trkpt lat="49.43617" lon="-1.19734">
        <ele>3.1</ele>
        <time>2022-06-02T10:18:54Z</time>
      </trkpt>
      <trkpt lat="49.43616" lon="-1.19733">
        <ele>3.1</ele>
        <time>2022-06-02T10:18:55Z</time>
      </trkpt>
      <trkpt lat="49.43615" lon="-1.19731">
        <ele>3.1</ele>
        <time>2022-06-02T10:18:56Z</time>
      </trkpt>
      <trkpt lat="49.43614" lon="-1.1973">
        <ele>3.2</ele>
        <time>2022-06-02T10:18:57Z</time>
      </trkpt>
      <trkpt lat="49.43614" lon="-1.19729">
        <ele>3.2</ele>
        <time>2022-06-02T10:18:58Z</time>
      </trkpt>
      <trkpt lat="49.43613" lon="-1.19728">
        <ele>3.2</ele>
        <time>2022-06-02T10:18:59Z</time>
      </trkpt>
      <trkpt lat="49.43612" lon="-1.19727">
        <ele>3.2</ele>
        <time>2022-06-02T10:19:01Z</time>
      </trkpt>
      <trkpt lat="49.43611" lon="-1.19726">
        <ele>3.2</ele>
        <time>2022-06-02T10:19:02Z</time>
      </trkpt>
      <trkpt lat="49.43611" lon="-1.19725">
        <ele>3.2</ele>
        <time>2022-06-02T10:19:03Z</time>
      </trkpt>
      <trkpt lat="49.4361" lon="-1.19725">
        <ele>3.2</ele>
        <time>2022-06-02T10:19:04Z</time>
      </trkpt>
      <trkpt lat="49.43608" lon="-1.19723">
        <ele>3.2</ele>
        <time>2022-06-02T10:19:05Z</time>
      </trkpt>
      <trkpt lat="49.43607" lon="-1.19722">
        <ele>3.2</ele>
        <time>2022-06-02T10:19:06Z</time>
      </trkpt>
      <trkpt lat="49.43606" lon="-1.1972">
        <ele>3.2</ele>
        <time>2022-06-02T10:19:07Z</time>
      </trkpt>
      <trkpt lat="49.43605" lon="-1.19719">
        <ele>3.2</ele>
        <time>2022-06-02T10:19:09Z</time>
      </trkpt>
      <trkpt lat="49.43604" lon="-1.19718">
        <ele>3.2</ele>
        <time>2022-06-02T10:19:10Z</time>
      </trkpt>
      <trkpt lat="49.43603" lon="-1.19716">
        <ele>3.2</ele>
        <time>2022-06-02T10:19:11Z</time>
      </trkpt>
      <trkpt lat="49.43602" lon="-1.19715">
        <ele>3.2</ele>
        <time>2022-06-02T10:19:12Z</time>
      </trkpt>
      <trkpt lat="49.43601" lon="-1.19713">
        <ele>3.2</ele>
        <time>2022-06-02T10:19:13Z</time>
      </trkpt>
      <trkpt lat="49.43599" lon="-1.19711">
        <ele>3.2</ele>
        <time>2022-06-02T10:19:14Z</time>
      </trkpt>
      <trkpt lat="49.43598" lon="-1.1971">
        <ele>3.2</ele>
        <time>2022-06-02T10:19:16Z</time>
      </trkpt>
      <trkpt lat="49.43597" lon="-1.1971">
        <ele>3.2</ele>
        <time>2022-06-02T10:19:17Z</time>
      </trkpt>
      <trkpt lat="49.43596" lon="-1.19709">
        <ele>3.2</ele>
        <time>2022-06-02T10:19:18Z</time>
      </trkpt>
      <trkpt lat="49.43595" lon="-1.19708">
        <ele>3.2</ele>
        <time>2022-06-02T10:19:19Z</time>
      </trkpt>
      <trkpt lat="49.43594" lon="-1.19708">
        <ele>3.2</ele>
        <time>2022-06-02T10:19:20Z</time>
      </trkpt>
      <trkpt lat="49.43593" lon="-1.19707">
        <ele>3.2</ele>
        <time>2022-06-02T10:19:21Z</time>
      </trkpt>
      <trkpt lat="49.43592" lon="-1.19706">
        <ele>3.2</ele>
        <time>2022-06-02T10:19:23Z</time>
      </trkpt>
      <trkpt lat="49.43591" lon="-1.19705">
        <ele>3.2</ele>
        <time>2022-06-02T10:19:24Z</time>
      </trkpt>
      <trkpt lat="49.43591" lon="-1.19703">
        <ele>3.2</ele>
        <time>2022-06-02T10:19:25Z</time>
      </trkpt>
      <trkpt lat="49.4359" lon="-1.19702">
        <ele>3.2</ele>
        <time>2022-06-02T10:19:26Z</time>
      </trkpt>
      <trkpt lat="49.43589" lon="-1.197">
        <ele>3.2</ele>
        <time>2022-06-02T10:19:27Z</time>
      </trkpt>
      <trkpt lat="49.43588" lon="-1.19699">
        <ele>3.3</ele>
        <time>2022-06-02T10:19:28Z</time>
      </trkpt>
      <trkpt lat="49.43588" lon="-1.19698">
        <ele>3.3</ele>
        <time>2022-06-02T10:19:30Z</time>
      </trkpt>
      <trkpt lat="49.43587" lon="-1.19697">
        <ele>3.3</ele>
        <time>2022-06-02T10:19:31Z</time>
      </trkpt>
      <trkpt lat="49.43586" lon="-1.19696">
        <ele>3.3</ele>
        <time>2022-06-02T10:19:32Z</time>
      </trkpt>
      <trkpt lat="49.43585" lon="-1.19694">
        <ele>3.3</ele>
        <time>2022-06-02T10:19:33Z</time>
      </trkpt>
      <trkpt lat="49.43584" lon="-1.19693">
        <ele>3.3</ele>
        <time>2022-06-02T10:19:34Z</time>
      </trkpt>
      <trkpt lat="49.43584" lon="-1.19692">
        <ele>3.3</ele>
        <time>2022-06-02T10:19:35Z</time>
      </trkpt>
      <trkpt lat="49.43583" lon="-1.1969">
        <ele>3.3</ele>
        <time>2022-06-02T10:19:36Z</time>
      </trkpt>
      <trkpt lat="49.43583" lon="-1.19689">
        <ele>3.3</ele>
        <time>2022-06-02T10:19:38Z</time>
      </trkpt>
      <trkpt lat="49.43582" lon="-1.19688">
        <ele>3.4</ele>
        <time>2022-06-02T10:19:39Z</time>
      </trkpt>
      <trkpt lat="49.43582" lon="-1.19687">
        <ele>3.4</ele>
        <time>2022-06-02T10:19:40Z</time>
      </trkpt>
      <trkpt lat="49.43581" lon="-1.19686">
        <ele>3.4</ele>
        <time>2022-06-02T10:19:41Z</time>
      </trkpt>
      <trkpt lat="49.4358" lon="-1.19684">
        <ele>3.4</ele>
        <time>2022-06-02T10:19:42Z</time>
      </trkpt>
      <trkpt lat="49.43579" lon="-1.19683">
        <ele>3.4</ele>
        <time>2022-06-02T10:19:43Z</time>
      </trkpt>
      <trkpt lat="49.43578" lon="-1.19682">
        <ele>3.4</ele>
        <time>2022-06-02T10:19:44Z</time>
      </trkpt>
      <trkpt lat="49.43578" lon="-1.19681">
        <ele>3.4</ele>
        <time>2022-06-02T10:19:46Z</time>
      </trkpt>
      <trkpt lat="49.43577" lon="-1.1968">
        <ele>3.4</ele>
        <time>2022-06-02T10:19:47Z</time>
      </trkpt>
      <trkpt lat="49.43575" lon="-1.19678">
        <ele>3.4</ele>
        <time>2022-06-02T10:19:48Z</time>
      </trkpt>
      <trkpt lat="49.43575" lon="-1.19677">
        <ele>3.4</ele>
        <time>2022-06-02T10:19:49Z</time>
      </trkpt>
      <trkpt lat="49.43574" lon="-1.19677">
        <ele>3.4</ele>
        <time>2022-06-02T10:19:50Z</time>
      </trkpt>
      <trkpt lat="49.43573" lon="-1.19676">
        <ele>3.4</ele>
        <time>2022-06-02T10:19:51Z</time>
      </trkpt>
      <trkpt lat="49.43572" lon="-1.19675">
        <ele>3.4</ele>
        <time>2022-06-02T10:19:53Z</time>
      </trkpt>
      <trkpt lat="49.43571" lon="-1.19674">
        <ele>3.4</ele>
        <time>2022-06-02T10:19:54Z</time>
      </trkpt>
      <trkpt lat="49.4357" lon="-1.19672">
        <ele>3.4</ele>
        <time>2022-06-02T10:19:55Z</time>
      </trkpt>
      <trkpt lat="49.4357" lon="-1.19671">
        <ele>3.4</ele>
        <time>2022-06-02T10:19:56Z</time>
      </trkpt>
      <trkpt lat="49.43569" lon="-1.1967">
        <ele>3.4</ele>
        <time>2022-06-02T10:19:57Z</time>
      </trkpt>
      <trkpt lat="49.43568" lon="-1.19669">
        <ele>3.4</ele>
        <time>2022-06-02T10:19:58Z</time>
      </trkpt>
      <trkpt lat="49.43567" lon="-1.19668">
        <ele>3.4</ele>
        <time>2022-06-02T10:20:00Z</time>
      </trkpt>
      <trkpt lat="49.43566" lon="-1.19667">
        <ele>3.4</ele>
        <time>2022-06-02T10:20:01Z</time>
      </trkpt>
      <trkpt lat="49.43566" lon="-1.19666">
        <ele>3.4</ele>
        <time>2022-06-02T10:20:02Z</time>
      </trkpt>
      <trkpt lat="49.43565" lon="-1.19664">
        <ele>3.4</ele>
        <time>2022-06-02T10:20:03Z</time>
      </trkpt>
      <trkpt lat="49.43564" lon="-1.19663">
        <ele>3.4</ele>
        <time>2022-06-02T10:20:04Z</time>
      </trkpt>
      <trkpt lat="49.43564" lon="-1.19662">
        <ele>3.4</ele>
        <time>2022-06-02T10:20:05Z</time>
      </trkpt>
      <trkpt lat="49.43563" lon="-1.19661">
        <ele>3.4</ele>
        <time>2022-06-02T10:20:06Z</time>
      </trkpt>
      <trkpt lat="49.43562" lon="-1.19659">
        <ele>3.4</ele>
        <time>2022-06-02T10:20:08Z</time>
      </trkpt>
      <trkpt lat="49.43561" lon="-1.19658">
        <ele>3.4</ele>
        <time>2022-06-02T10:20:09Z</time>
      </trkpt>
      <trkpt lat="49.43561" lon="-1.19657">
        <ele>3.4</ele>
        <time>2022-06-02T10:20:10Z</time>
      </trkpt>
      <trkpt lat="49.4356" lon="-1.19656">
        <ele>3.4</ele>
        <time>2022-06-02T10:20:11Z</time>
      </trkpt>
      <trkpt lat="49.43559" lon="-1.19655">
        <ele>3.4</ele>
        <time>2022-06-02T10:20:12Z</time>
      </trkpt>
      <trkpt lat="49.43558" lon="-1.19654">
        <ele>3.4</ele>
        <time>2022-06-02T10:20:13Z</time>
      </trkpt>
      <trkpt lat="49.43557" lon="-1.19653">
        <ele>3.4</ele>
        <time>2022-06-02T10:20:14Z</time>
      </trkpt>
      <trkpt lat="49.43556" lon="-1.19653">
        <ele>3.4</ele>
        <time>2022-06-02T10:20:16Z</time>
      </trkpt>
      <trkpt lat="49.43556" lon="-1.19652">
        <ele>3.4</ele>
        <time>2022-06-02T10:20:17Z</time>
      </trkpt>
      <trkpt lat="49.43555" lon="-1.19651">
        <ele>3.3</ele>
        <time>2022-06-02T10:20:18Z</time>
      </trkpt>
      <trkpt lat="49.43554" lon="-1.1965">
        <ele>3.3</ele>
        <time>2022-06-02T10:20:19Z</time>
      </trkpt>
      <trkpt lat="49.43553" lon="-1.19648">
        <ele>3.3</ele>
        <time>2022-06-02T10:20:20Z</time>
      </trkpt>
      <trkpt lat="49.43552" lon="-1.19647">
        <ele>3.3</ele>
        <time>2022-06-02T10:20:21Z</time>
      </trkpt>
      <trkpt lat="49.43552" lon="-1.19646">
        <ele>3.3</ele>
        <time>2022-06-02T10:20:22Z</time>
      </trkpt>
      <trkpt lat="49.43551" lon="-1.19645">
        <ele>3.3</ele>
        <time>2022-06-02T10:20:24Z</time>
      </trkpt>
      <trkpt lat="49.4355" lon="-1.19643">
        <ele>3.3</ele>
        <time>2022-06-02T10:20:25Z</time>
      </trkpt>
      <trkpt lat="49.43549" lon="-1.19642">
        <ele>3.3</ele>
        <time>2022-06-02T10:20:26Z</time>
      </trkpt>
      <trkpt lat="49.43549" lon="-1.19641">
        <ele>3.3</ele>
        <time>2022-06-02T10:20:27Z</time>
      </trkpt>
      <trkpt lat="49.43548" lon="-1.19639">
        <ele>3.3</ele>
        <time>2022-06-02T10:20:28Z</time>
      </trkpt>
      <trkpt lat="49.43547" lon="-1.19638">
        <ele>3.3</ele>
        <time>2022-06-02T10:20:29Z</time>
      </trkpt>
      <trkpt lat="49.43547" lon="-1.19637">
        <ele>3.3</ele>
        <time>2022-06-02T10:20:31Z</time>
      </trkpt>
      <trkpt lat="49.43546" lon="-1.19636">
        <ele>3.3</ele>
        <time>2022-06-02T10:20:32Z</time>
      </trkpt>
      <trkpt lat="49.43546" lon="-1.19635">
        <ele>3.2</ele>
        <time>2022-06-02T10:20:33Z</time>
      </trkpt>
      <trkpt lat="49.43545" lon="-1.19635">
        <ele>3.2</ele>
        <time>2022-06-02T10:20:34Z</time>
      </trkpt>
      <trkpt lat="49.43544" lon="-1.19633">
        <ele>3.2</ele>
        <time>2022-06-02T10:20:35Z</time>
      </trkpt>
      <trkpt lat="49.43543" lon="-1.19632">
        <ele>3.2</ele>
        <time>2022-06-02T10:20:36Z</time>
      </trkpt>
      <trkpt lat="49.43542" lon="-1.19631">
        <ele>3.2</ele>
        <time>2022-06-02T10:20:37Z</time>
      </trkpt>
      <trkpt lat="49.43541" lon="-1.1963">
        <ele>3.2</ele>
        <time>2022-06-02T10:20:39Z</time>
      </trkpt>
      <trkpt lat="49.43541" lon="-1.19628">
        <ele>3.2</ele>
        <time>2022-06-02T10:20:40Z</time>
      </trkpt>
      <trkpt lat="49.4354" lon="-1.19626">
        <ele>3.2</ele>
        <time>2022-06-02T10:20:41Z</time>
      </trkpt>
      <trkpt lat="49.43539" lon="-1.19625">
        <ele>3.2</ele>
        <time>2022-06-02T10:20:42Z</time>
      </trkpt>
      <trkpt lat="49.43539" lon="-1.19624">
        <ele>3.2</ele>
        <time>2022-06-02T10:20:43Z</time>
      </trkpt>
      <trkpt lat="49.43538" lon="-1.19623">
        <ele>3.2</ele>
        <time>2022-06-02T10:20:44Z</time>
      </trkpt>
      <trkpt lat="49.43536" lon="-1.19622">
        <ele>3.2</ele>
        <time>2022-06-02T10:20:46Z</time>
      </trkpt>
      <trkpt lat="49.43536" lon="-1.19621">
        <ele>3.2</ele>
        <time>2022-06-02T10:20:47Z</time>
      </trkpt>
      <trkpt lat="49.43535" lon="-1.1962">
        <ele>3.2</ele>
        <time>2022-06-02T10:20:48Z</time>
      </trkpt>
      <trkpt lat="49.43534" lon="-1.19619">
        <ele>3.1</ele>
        <time>2022-06-02T10:20:49Z</time>
      </trkpt>
      <trkpt lat="49.43533" lon="-1.19618">
        <ele>3.1</ele>
        <time>2022-06-02T10:20:50Z</time>
      </trkpt>
      <trkpt lat="49.43531" lon="-1.19617">
        <ele>3.1</ele>
        <time>2022-06-02T10:20:51Z</time>
      </trkpt>
      <trkpt lat="49.43531" lon="-1.19616">
        <ele>3.1</ele>
        <time>2022-06-02T10:20:52Z</time>
      </trkpt>
      <trkpt lat="49.4353" lon="-1.19616">
        <ele>3.1</ele>
        <time>2022-06-02T10:20:54Z</time>
      </trkpt>
      <trkpt lat="49.43529" lon="-1.19615">
        <ele>3.1</ele>
        <time>2022-06-02T10:20:55Z</time>
      </trkpt>
      <trkpt lat="49.43528" lon="-1.19614">
        <ele>3.1</ele>
        <time>2022-06-02T10:20:56Z</time>
      </trkpt>
      <trkpt lat="49.43526" lon="-1.19612">
        <ele>3.1</ele>
        <time>2022-06-02T10:20:57Z</time>
      </trkpt>
      <trkpt lat="49.43525" lon="-1.19611">
        <ele>3.1</ele>
        <time>2022-06-02T10:20:58Z</time>
      </trkpt>
      <trkpt lat="49.43525" lon="-1.1961">
        <ele>3.1</ele>
        <time>2022-06-02T10:20:59Z</time>
      </trkpt>
      <trkpt lat="49.43524" lon="-1.19609">
        <ele>3.1</ele>
        <time>2022-06-02T10:21:00Z</time>
      </trkpt>
      <trkpt lat="49.43523" lon="-1.19608">
        <ele>3.1</ele>
        <time>2022-06-02T10:21:02Z</time>
      </trkpt>
      <trkpt lat="49.43522" lon="-1.19607">
        <ele>3.1</ele>
        <time>2022-06-02T10:21:03Z</time>
      </trkpt>
      <trkpt lat="49.43521" lon="-1.19604">
        <ele>3.1</ele>
        <time>2022-06-02T10:21:04Z</time>
      </trkpt>
      <trkpt lat="49.4352" lon="-1.19603">
        <ele>3.1</ele>
        <time>2022-06-02T10:21:05Z</time>
      </trkpt>
      <trkpt lat="49.4352" lon="-1.19602">
        <ele>3.1</ele>
        <time>2022-06-02T10:21:06Z</time>
      </trkpt>
      <trkpt lat="49.43519" lon="-1.19601">
        <ele>3.1</ele>
        <time>2022-06-02T10:21:07Z</time>
      </trkpt>
      <trkpt lat="49.43519" lon="-1.196">
        <ele>3.1</ele>
        <time>2022-06-02T10:21:08Z</time>
      </trkpt>
      <trkpt lat="49.43518" lon="-1.19599">
        <ele>3.1</ele>
        <time>2022-06-02T10:21:10Z</time>
      </trkpt>
      <trkpt lat="49.43516" lon="-1.19597">
        <ele>3.1</ele>
        <time>2022-06-02T10:21:11Z</time>
      </trkpt>
      <trkpt lat="49.43516" lon="-1.19597">
        <ele>3.1</ele>
        <time>2022-06-02T10:21:12Z</time>
      </trkpt>
      <trkpt lat="49.43515" lon="-1.19596">
        <ele>3.1</ele>
        <time>2022-06-02T10:21:13Z</time>
      </trkpt>
      <trkpt lat="49.43514" lon="-1.19594">
        <ele>3.1</ele>
        <time>2022-06-02T10:21:14Z</time>
      </trkpt>
      <trkpt lat="49.43513" lon="-1.19593">
        <ele>3.1</ele>
        <time>2022-06-02T10:21:16Z</time>
      </trkpt>
      <trkpt lat="49.43513" lon="-1.19592">
        <ele>3.1</ele>
        <time>2022-06-02T10:21:17Z</time>
      </trkpt>
      <trkpt lat="49.43512" lon="-1.19591">
        <ele>3.1</ele>
        <time>2022-06-02T10:21:18Z</time>
      </trkpt>
      <trkpt lat="49.43511" lon="-1.1959">
        <ele>3.1</ele>
        <time>2022-06-02T10:21:19Z</time>
      </trkpt>
      <trkpt lat="49.4351" lon="-1.19589">
        <ele>3.1</ele>
        <time>2022-06-02T10:21:21Z</time>
      </trkpt>
      <trkpt lat="49.43508" lon="-1.19588">
        <ele>3.1</ele>
        <time>2022-06-02T10:21:22Z</time>
      </trkpt>
      <trkpt lat="49.43507" lon="-1.19588">
        <ele>3.1</ele>
        <time>2022-06-02T10:21:23Z</time>
      </trkpt>
      <trkpt lat="49.43507" lon="-1.19587">
        <ele>3.1</ele>
        <time>2022-06-02T10:21:24Z</time>
      </trkpt>
      <trkpt lat="49.43506" lon="-1.19587">
        <ele>3.1</ele>
        <time>2022-06-02T10:21:25Z</time>
      </trkpt>
      <trkpt lat="49.43505" lon="-1.19586">
        <ele>3.1</ele>
        <time>2022-06-02T10:21:26Z</time>
      </trkpt>
      <trkpt lat="49.43504" lon="-1.19585">
        <ele>3.1</ele>
        <time>2022-06-02T10:21:27Z</time>
      </trkpt>
      <trkpt lat="49.43503" lon="-1.19584">
        <ele>3.1</ele>
        <time>2022-06-02T10:21:29Z</time>
      </trkpt>
      <trkpt lat="49.43502" lon="-1.19583">
        <ele>3.1</ele>
        <time>2022-06-02T10:21:30Z</time>
      </trkpt>
      <trkpt lat="49.43501" lon="-1.19582">
        <ele>3.1</ele>
        <time>2022-06-02T10:21:31Z</time>
      </trkpt>
      <trkpt lat="49.435" lon="-1.19581">
        <ele>3.1</ele>
        <time>2022-06-02T10:21:32Z</time>
      </trkpt>
      <trkpt lat="49.43498" lon="-1.19579">
        <ele>3.1</ele>
        <time>2022-06-02T10:21:33Z</time>
      </trkpt>
      <trkpt lat="49.43498" lon="-1.19578">
        <ele>3.1</ele>
        <time>2022-06-02T10:21:35Z</time>
      </trkpt>
      <trkpt lat="49.43497" lon="-1.19577">
        <ele>3.1</ele>
        <time>2022-06-02T10:21:36Z</time>
      </trkpt>
      <trkpt lat="49.43497" lon="-1.19576">
        <ele>3.1</ele>
        <time>2022-06-02T10:21:37Z</time>
      </trkpt>
      <trkpt lat="49.43496" lon="-1.19575">
        <ele>3.1</ele>
        <time>2022-06-02T10:21:38Z</time>
      </trkpt>
      <trkpt lat="49.43495" lon="-1.19574">
        <ele>3.1</ele>
        <time>2022-06-02T10:21:39Z</time>
      </trkpt>
      <trkpt lat="49.43494" lon="-1.19573">
        <ele>3.1</ele>
        <time>2022-06-02T10:21:40Z</time>
      </trkpt>
      <trkpt lat="49.43493" lon="-1.19572">
        <ele>3.1</ele>
        <time>2022-06-02T10:21:41Z</time>
      </trkpt>
      <trkpt lat="49.43492" lon="-1.19571">
        <ele>3.1</ele>
        <time>2022-06-02T10:21:43Z</time>
      </trkpt>
      <trkpt lat="49.43491" lon="-1.1957">
        <ele>3.1</ele>
        <time>2022-06-02T10:21:44Z</time>
      </trkpt>
      <trkpt lat="49.4349" lon="-1.19569">
        <ele>3.1</ele>
        <time>2022-06-02T10:21:45Z</time>
      </trkpt>
      <trkpt lat="49.43489" lon="-1.19568">
        <ele>3.1</ele>
        <time>2022-06-02T10:21:46Z</time>
      </trkpt>
      <trkpt lat="49.43488" lon="-1.19566">
        <ele>3.1</ele>
        <time>2022-06-02T10:21:47Z</time>
      </trkpt>
      <trkpt lat="49.43488" lon="-1.19565">
        <ele>3.1</ele>
        <time>2022-06-02T10:21:48Z</time>
      </trkpt>
      <trkpt lat="49.43487" lon="-1.19564">
        <ele>3.1</ele>
        <time>2022-06-02T10:21:50Z</time>
      </trkpt>
      <trkpt lat="49.43487" lon="-1.19562">
        <ele>3.1</ele>
        <time>2022-06-02T10:21:51Z</time>
      </trkpt>
      <trkpt lat="49.43486" lon="-1.1956">
        <ele>3.1</ele>
        <time>2022-06-02T10:21:52Z</time>
      </trkpt>
      <trkpt lat="49.43486" lon="-1.19559">
        <ele>3.1</ele>
        <time>2022-06-02T10:21:53Z</time>
      </trkpt>
      <trkpt lat="49.43485" lon="-1.19557">
        <ele>3</ele>
        <time>2022-06-02T10:21:54Z</time>
      </trkpt>
      <trkpt lat="49.43485" lon="-1.19556">
        <ele>3</ele>
        <time>2022-06-02T10:21:55Z</time>
      </trkpt>
      <trkpt lat="49.43484" lon="-1.19555">
        <ele>3</ele>
        <time>2022-06-02T10:21:56Z</time>
      </trkpt>
      <trkpt lat="49.43483" lon="-1.19553">
        <ele>3</ele>
        <time>2022-06-02T10:21:58Z</time>
      </trkpt>
      <trkpt lat="49.43482" lon="-1.19552">
        <ele>3</ele>
        <time>2022-06-02T10:21:59Z</time>
      </trkpt>
      <trkpt lat="49.43481" lon="-1.19551">
        <ele>3</ele>
        <time>2022-06-02T10:22:00Z</time>
      </trkpt>
      <trkpt lat="49.4348" lon="-1.19549">
        <ele>3</ele>
        <time>2022-06-02T10:22:01Z</time>
      </trkpt>
      <trkpt lat="49.4348" lon="-1.19549">
        <ele>3</ele>
        <time>2022-06-02T10:22:02Z</time>
      </trkpt>
      <trkpt lat="49.43479" lon="-1.19548">
        <ele>3</ele>
        <time>2022-06-02T10:22:03Z</time>
      </trkpt>
      <trkpt lat="49.43478" lon="-1.19546">
        <ele>3</ele>
        <time>2022-06-02T10:22:05Z</time>
      </trkpt>
      <trkpt lat="49.43477" lon="-1.19545">
        <ele>3</ele>
        <time>2022-06-02T10:22:06Z</time>
      </trkpt>
      <trkpt lat="49.43477" lon="-1.19544">
        <ele>3</ele>
        <time>2022-06-02T10:22:07Z</time>
      </trkpt>
      <trkpt lat="49.43476" lon="-1.19543">
        <ele>3</ele>
        <time>2022-06-02T10:22:08Z</time>
      </trkpt>
      <trkpt lat="49.43475" lon="-1.19542">
        <ele>3</ele>
        <time>2022-06-02T10:22:09Z</time>
      </trkpt>
      <trkpt lat="49.43474" lon="-1.19542">
        <ele>3</ele>
        <time>2022-06-02T10:22:10Z</time>
      </trkpt>
      <trkpt lat="49.43473" lon="-1.1954">
        <ele>2.9</ele>
        <time>2022-06-02T10:22:12Z</time>
      </trkpt>
      <trkpt lat="49.43472" lon="-1.19539">
        <ele>2.9</ele>
        <time>2022-06-02T10:22:13Z</time>
      </trkpt>
      <trkpt lat="49.43471" lon="-1.19538">
        <ele>2.9</ele>
        <time>2022-06-02T10:22:14Z</time>
      </trkpt>
      <trkpt lat="49.43471" lon="-1.19537">
        <ele>2.9</ele>
        <time>2022-06-02T10:22:15Z</time>
      </trkpt>
      <trkpt lat="49.4347" lon="-1.19536">
        <ele>2.9</ele>
        <time>2022-06-02T10:22:16Z</time>
      </trkpt>
      <trkpt lat="49.43469" lon="-1.19535">
        <ele>2.9</ele>
        <time>2022-06-02T10:22:17Z</time>
      </trkpt>
      <trkpt lat="49.43468" lon="-1.19534">
        <ele>2.9</ele>
        <time>2022-06-02T10:22:19Z</time>
      </trkpt>
      <trkpt lat="49.43467" lon="-1.19532">
        <ele>2.9</ele>
        <time>2022-06-02T10:22:20Z</time>
      </trkpt>
      <trkpt lat="49.43466" lon="-1.19531">
        <ele>2.9</ele>
        <time>2022-06-02T10:22:21Z</time>
      </trkpt>
      <trkpt lat="49.43466" lon="-1.1953">
        <ele>2.9</ele>
        <time>2022-06-02T10:22:22Z</time>
      </trkpt>
      <trkpt lat="49.43465" lon="-1.1953">
        <ele>2.9</ele>
        <time>2022-06-02T10:22:23Z</time>
      </trkpt>
      <trkpt lat="49.43464" lon="-1.19529">
        <ele>2.9</ele>
        <time>2022-06-02T10:22:24Z</time>
      </trkpt>
      <trkpt lat="49.43463" lon="-1.19528">
        <ele>2.9</ele>
        <time>2022-06-02T10:22:26Z</time>
      </trkpt>
      <trkpt lat="49.43462" lon="-1.19527">
        <ele>2.9</ele>
        <time>2022-06-02T10:22:27Z</time>
      </trkpt>
      <trkpt lat="49.43461" lon="-1.19527">
        <ele>2.9</ele>
        <time>2022-06-02T10:22:28Z</time>
      </trkpt>
      <trkpt lat="49.43461" lon="-1.19526">
        <ele>2.9</ele>
        <time>2022-06-02T10:22:29Z</time>
      </trkpt>
      <trkpt lat="49.4346" lon="-1.19524">
        <ele>2.9</ele>
        <time>2022-06-02T10:22:30Z</time>
      </trkpt>
      <trkpt lat="49.4346" lon="-1.19523">
        <ele>2.9</ele>
        <time>2022-06-02T10:22:31Z</time>
      </trkpt>
      <trkpt lat="49.43459" lon="-1.19521">
        <ele>2.9</ele>
        <time>2022-06-02T10:22:33Z</time>
      </trkpt>
      <trkpt lat="49.43459" lon="-1.1952">
        <ele>2.9</ele>
        <time>2022-06-02T10:22:34Z</time>
      </trkpt>
      <trkpt lat="49.43458" lon="-1.19519">
        <ele>2.9</ele>
        <time>2022-06-02T10:22:35Z</time>
      </trkpt>
      <trkpt lat="49.43457" lon="-1.19518">
        <ele>2.9</ele>
        <time>2022-06-02T10:22:36Z</time>
      </trkpt>
      <trkpt lat="49.43456" lon="-1.19517">
        <ele>2.9</ele>
        <time>2022-06-02T10:22:37Z</time>
      </trkpt>
      <trkpt lat="49.43455" lon="-1.19516">
        <ele>2.9</ele>
        <time>2022-06-02T10:22:38Z</time>
      </trkpt>
      <trkpt lat="49.43454" lon="-1.19515">
        <ele>2.9</ele>
        <time>2022-06-02T10:22:40Z</time>
      </trkpt>
      <trkpt lat="49.43453" lon="-1.19514">
        <ele>2.9</ele>
        <time>2022-06-02T10:22:41Z</time>
      </trkpt>
      <trkpt lat="49.43452" lon="-1.19513">
        <ele>2.9</ele>
        <time>2022-06-02T10:22:42Z</time>
      </trkpt>
      <trkpt lat="49.43451" lon="-1.19512">
        <ele>2.9</ele>
        <time>2022-06-02T10:22:43Z</time>
      </trkpt>
      <trkpt lat="49.4345" lon="-1.19511">
        <ele>2.9</ele>
        <time>2022-06-02T10:22:44Z</time>
      </trkpt>
      <trkpt lat="49.4345" lon="-1.1951">
        <ele>2.9</ele>
        <time>2022-06-02T10:22:45Z</time>
      </trkpt>
      <trkpt lat="49.43449" lon="-1.19509">
        <ele>2.9</ele>
        <time>2022-06-02T10:22:47Z</time>
      </trkpt>
      <trkpt lat="49.43448" lon="-1.19508">
        <ele>2.9</ele>
        <time>2022-06-02T10:22:48Z</time>
      </trkpt>
      <trkpt lat="49.43447" lon="-1.19507">
        <ele>2.9</ele>
        <time>2022-06-02T10:22:49Z</time>
      </trkpt>
      <trkpt lat="49.43446" lon="-1.19506">
        <ele>2.9</ele>
        <time>2022-06-02T10:22:50Z</time>
      </trkpt>
      <trkpt lat="49.43445" lon="-1.19505">
        <ele>2.9</ele>
        <time>2022-06-02T10:22:51Z</time>
      </trkpt>
      <trkpt lat="49.43444" lon="-1.19503">
        <ele>2.9</ele>
        <time>2022-06-02T10:22:53Z</time>
      </trkpt>
      <trkpt lat="49.43443" lon="-1.19503">
        <ele>2.9</ele>
        <time>2022-06-02T10:22:54Z</time>
      </trkpt>
      <trkpt lat="49.43443" lon="-1.19501">
        <ele>2.9</ele>
        <time>2022-06-02T10:22:55Z</time>
      </trkpt>
      <trkpt lat="49.43442" lon="-1.195">
        <ele>2.9</ele>
        <time>2022-06-02T10:22:56Z</time>
      </trkpt>
      <trkpt lat="49.43441" lon="-1.19499">
        <ele>2.9</ele>
        <time>2022-06-02T10:22:57Z</time>
      </trkpt>
      <trkpt lat="49.4344" lon="-1.19498">
        <ele>2.9</ele>
        <time>2022-06-02T10:22:59Z</time>
      </trkpt>
      <trkpt lat="49.4344" lon="-1.19497">
        <ele>2.9</ele>
        <time>2022-06-02T10:23:00Z</time>
      </trkpt>
      <trkpt lat="49.43439" lon="-1.19496">
        <ele>2.9</ele>
        <time>2022-06-02T10:23:01Z</time>
      </trkpt>
      <trkpt lat="49.43438" lon="-1.19495">
        <ele>2.9</ele>
        <time>2022-06-02T10:23:02Z</time>
      </trkpt>
      <trkpt lat="49.43438" lon="-1.19494">
        <ele>2.9</ele>
        <time>2022-06-02T10:23:03Z</time>
      </trkpt>
      <trkpt lat="49.43437" lon="-1.19493">
        <ele>2.9</ele>
        <time>2022-06-02T10:23:04Z</time>
      </trkpt>
      <trkpt lat="49.43436" lon="-1.19492">
        <ele>2.9</ele>
        <time>2022-06-02T10:23:06Z</time>
      </trkpt>
      <trkpt lat="49.43435" lon="-1.19491">
        <ele>2.9</ele>
        <time>2022-06-02T10:23:07Z</time>
      </trkpt>
      <trkpt lat="49.43435" lon="-1.1949">
        <ele>2.9</ele>
        <time>2022-06-02T10:23:08Z</time>
      </trkpt>
      <trkpt lat="49.43434" lon="-1.19489">
        <ele>2.9</ele>
        <time>2022-06-02T10:23:09Z</time>
      </trkpt>
      <trkpt lat="49.43433" lon="-1.19488">
        <ele>2.9</ele>
        <time>2022-06-02T10:23:10Z</time>
      </trkpt>
      <trkpt lat="49.43432" lon="-1.19487">
        <ele>2.9</ele>
        <time>2022-06-02T10:23:11Z</time>
      </trkpt>
      <trkpt lat="49.43431" lon="-1.19486">
        <ele>2.9</ele>
        <time>2022-06-02T10:23:13Z</time>
      </trkpt>
      <trkpt lat="49.4343" lon="-1.19485">
        <ele>2.9</ele>
        <time>2022-06-02T10:23:14Z</time>
      </trkpt>
      <trkpt lat="49.43429" lon="-1.19484">
        <ele>2.9</ele>
        <time>2022-06-02T10:23:15Z</time>
      </trkpt>
      <trkpt lat="49.43428" lon="-1.19483">
        <ele>2.9</ele>
        <time>2022-06-02T10:23:16Z</time>
      </trkpt>
      <trkpt lat="49.43427" lon="-1.19482">
        <ele>2.9</ele>
        <time>2022-06-02T10:23:17Z</time>
      </trkpt>
      <trkpt lat="49.43426" lon="-1.19481">
        <ele>2.9</ele>
        <time>2022-06-02T10:23:19Z</time>
      </trkpt>
      <trkpt lat="49.43425" lon="-1.19479">
        <ele>2.9</ele>
        <time>2022-06-02T10:23:20Z</time>
      </trkpt>
      <trkpt lat="49.43424" lon="-1.19478">
        <ele>2.9</ele>
        <time>2022-06-02T10:23:22Z</time>
      </trkpt>
      <trkpt lat="49.43423" lon="-1.19477">
        <ele>2.9</ele>
        <time>2022-06-02T10:23:23Z</time>
      </trkpt>
      <trkpt lat="49.43422" lon="-1.19476">
        <ele>2.9</ele>
        <time>2022-06-02T10:23:24Z</time>
      </trkpt>
      <trkpt lat="49.43422" lon="-1.19475">
        <ele>2.9</ele>
        <time>2022-06-02T10:23:25Z</time>
      </trkpt>
      <trkpt lat="49.43421" lon="-1.19473">
        <ele>2.9</ele>
        <time>2022-06-02T10:23:26Z</time>
      </trkpt>
      <trkpt lat="49.4342" lon="-1.19472">
        <ele>2.8</ele>
        <time>2022-06-02T10:23:27Z</time>
      </trkpt>
      <trkpt lat="49.43419" lon="-1.1947">
        <ele>2.8</ele>
        <time>2022-06-02T10:23:29Z</time>
      </trkpt>
      <trkpt lat="49.43419" lon="-1.1947">
        <ele>2.8</ele>
        <time>2022-06-02T10:23:30Z</time>
      </trkpt>
      <trkpt lat="49.43418" lon="-1.19469">
        <ele>2.8</ele>
        <time>2022-06-02T10:23:31Z</time>
      </trkpt>
      <trkpt lat="49.43418" lon="-1.19468">
        <ele>2.8</ele>
        <time>2022-06-02T10:23:32Z</time>
      </trkpt>
      <trkpt lat="49.43416" lon="-1.19465">
        <ele>2.8</ele>
        <time>2022-06-02T10:23:34Z</time>
      </trkpt>
      <trkpt lat="49.43416" lon="-1.19464">
        <ele>2.8</ele>
        <time>2022-06-02T10:23:35Z</time>
      </trkpt>
      <trkpt lat="49.43415" lon="-1.19463">
        <ele>2.8</ele>
        <time>2022-06-02T10:23:36Z</time>
      </trkpt>
      <trkpt lat="49.43414" lon="-1.19462">
        <ele>2.8</ele>
        <time>2022-06-02T10:23:37Z</time>
      </trkpt>
      <trkpt lat="49.43413" lon="-1.19461">
        <ele>2.8</ele>
        <time>2022-06-02T10:23:39Z</time>
      </trkpt>
      <trkpt lat="49.43412" lon="-1.1946">
        <ele>2.8</ele>
        <time>2022-06-02T10:23:40Z</time>
      </trkpt>
      <trkpt lat="49.43412" lon="-1.19459">
        <ele>2.8</ele>
        <time>2022-06-02T10:23:41Z</time>
      </trkpt>
      <trkpt lat="49.43411" lon="-1.19458">
        <ele>2.8</ele>
        <time>2022-06-02T10:23:42Z</time>
      </trkpt>
      <trkpt lat="49.4341" lon="-1.19457">
        <ele>2.8</ele>
        <time>2022-06-02T10:23:43Z</time>
      </trkpt>
      <trkpt lat="49.43409" lon="-1.19456">
        <ele>2.8</ele>
        <time>2022-06-02T10:23:44Z</time>
      </trkpt>
      <trkpt lat="49.43408" lon="-1.19454">
        <ele>2.8</ele>
        <time>2022-06-02T10:23:46Z</time>
      </trkpt>
      <trkpt lat="49.43407" lon="-1.19453">
        <ele>2.8</ele>
        <time>2022-06-02T10:23:47Z</time>
      </trkpt>
      <trkpt lat="49.43406" lon="-1.19452">
        <ele>2.8</ele>
        <time>2022-06-02T10:23:48Z</time>
      </trkpt>
      <trkpt lat="49.43405" lon="-1.19451">
        <ele>2.8</ele>
        <time>2022-06-02T10:23:49Z</time>
      </trkpt>
      <trkpt lat="49.43404" lon="-1.1945">
        <ele>2.8</ele>
        <time>2022-06-02T10:23:50Z</time>
      </trkpt>
      <trkpt lat="49.43403" lon="-1.19448">
        <ele>2.8</ele>
        <time>2022-06-02T10:23:51Z</time>
      </trkpt>
      <trkpt lat="49.43402" lon="-1.19448">
        <ele>2.8</ele>
        <time>2022-06-02T10:23:53Z</time>
      </trkpt>
      <trkpt lat="49.43401" lon="-1.19447">
        <ele>2.8</ele>
        <time>2022-06-02T10:23:54Z</time>
      </trkpt>
      <trkpt lat="49.434" lon="-1.19446">
        <ele>2.8</ele>
        <time>2022-06-02T10:23:55Z</time>
      </trkpt>
      <trkpt lat="49.434" lon="-1.19445">
        <ele>2.8</ele>
        <time>2022-06-02T10:23:56Z</time>
      </trkpt>
      <trkpt lat="49.43399" lon="-1.19444">
        <ele>2.8</ele>
        <time>2022-06-02T10:23:57Z</time>
      </trkpt>
      <trkpt lat="49.43398" lon="-1.19443">
        <ele>2.8</ele>
        <time>2022-06-02T10:23:58Z</time>
      </trkpt>
      <trkpt lat="49.43397" lon="-1.19442">
        <ele>2.7</ele>
        <time>2022-06-02T10:24:00Z</time>
      </trkpt>
      <trkpt lat="49.43396" lon="-1.19441">
        <ele>2.7</ele>
        <time>2022-06-02T10:24:01Z</time>
      </trkpt>
      <trkpt lat="49.43395" lon="-1.1944">
        <ele>2.7</ele>
        <time>2022-06-02T10:24:02Z</time>
      </trkpt>
      <trkpt lat="49.43394" lon="-1.19439">
        <ele>2.7</ele>
        <time>2022-06-02T10:24:03Z</time>
      </trkpt>
      <trkpt lat="49.43393" lon="-1.19438">
        <ele>2.7</ele>
        <time>2022-06-02T10:24:04Z</time>
      </trkpt>
      <trkpt lat="49.43393" lon="-1.19437">
        <ele>2.7</ele>
        <time>2022-06-02T10:24:05Z</time>
      </trkpt>
      <trkpt lat="49.43392" lon="-1.19436">
        <ele>2.7</ele>
        <time>2022-06-02T10:24:07Z</time>
      </trkpt>
      <trkpt lat="49.43391" lon="-1.19435">
        <ele>2.7</ele>
        <time>2022-06-02T10:24:08Z</time>
      </trkpt>
      <trkpt lat="49.4339" lon="-1.19434">
        <ele>2.7</ele>
        <time>2022-06-02T10:24:09Z</time>
      </trkpt>
      <trkpt lat="49.43389" lon="-1.19433">
        <ele>2.7</ele>
        <time>2022-06-02T10:24:10Z</time>
      </trkpt>
      <trkpt lat="49.43388" lon="-1.19432">
        <ele>2.7</ele>
        <time>2022-06-02T10:24:11Z</time>
      </trkpt>
      <trkpt lat="49.43387" lon="-1.19431">
        <ele>2.7</ele>
        <time>2022-06-02T10:24:12Z</time>
      </trkpt>
      <trkpt lat="49.43386" lon="-1.1943">
        <ele>2.6</ele>
        <time>2022-06-02T10:24:13Z</time>
      </trkpt>
      <trkpt lat="49.43385" lon="-1.19428">
        <ele>2.6</ele>
        <time>2022-06-02T10:24:15Z</time>
      </trkpt>
      <trkpt lat="49.43384" lon="-1.19427">
        <ele>2.6</ele>
        <time>2022-06-02T10:24:16Z</time>
      </trkpt>
      <trkpt lat="49.43383" lon="-1.19426">
        <ele>2.6</ele>
        <time>2022-06-02T10:24:17Z</time>
      </trkpt>
      <trkpt lat="49.43382" lon="-1.19425">
        <ele>2.6</ele>
        <time>2022-06-02T10:24:18Z</time>
      </trkpt>
      <trkpt lat="49.43381" lon="-1.19424">
        <ele>2.6</ele>
        <time>2022-06-02T10:24:19Z</time>
      </trkpt>
      <trkpt lat="49.4338" lon="-1.19424">
        <ele>2.6</ele>
        <time>2022-06-02T10:24:20Z</time>
      </trkpt>
      <trkpt lat="49.43379" lon="-1.19423">
        <ele>2.6</ele>
        <time>2022-06-02T10:24:21Z</time>
      </trkpt>
      <trkpt lat="49.43378" lon="-1.19423">
        <ele>2.6</ele>
        <time>2022-06-02T10:24:23Z</time>
      </trkpt>
      <trkpt lat="49.43377" lon="-1.19423">
        <ele>2.6</ele>
        <time>2022-06-02T10:24:24Z</time>
      </trkpt>
      <trkpt lat="49.43376" lon="-1.19422">
        <ele>2.6</ele>
        <time>2022-06-02T10:24:25Z</time>
      </trkpt>
      <trkpt lat="49.43375" lon="-1.19421">
        <ele>2.6</ele>
        <time>2022-06-02T10:24:26Z</time>
      </trkpt>
      <trkpt lat="49.43374" lon="-1.1942">
        <ele>2.6</ele>
        <time>2022-06-02T10:24:27Z</time>
      </trkpt>
      <trkpt lat="49.43373" lon="-1.1942">
        <ele>2.6</ele>
        <time>2022-06-02T10:24:28Z</time>
      </trkpt>
      <trkpt lat="49.43372" lon="-1.19419">
        <ele>2.6</ele>
        <time>2022-06-02T10:24:29Z</time>
      </trkpt>
      <trkpt lat="49.43371" lon="-1.19418">
        <ele>2.6</ele>
        <time>2022-06-02T10:24:31Z</time>
      </trkpt>
      <trkpt lat="49.4337" lon="-1.19417">
        <ele>2.5</ele>
        <time>2022-06-02T10:24:32Z</time>
      </trkpt>
      <trkpt lat="49.4337" lon="-1.19416">
        <ele>2.5</ele>
        <time>2022-06-02T10:24:33Z</time>
      </trkpt>
      <trkpt lat="49.43369" lon="-1.19415">
        <ele>2.5</ele>
        <time>2022-06-02T10:24:34Z</time>
      </trkpt>
      <trkpt lat="49.43368" lon="-1.19414">
        <ele>2.5</ele>
        <time>2022-06-02T10:24:35Z</time>
      </trkpt>
      <trkpt lat="49.43367" lon="-1.19413">
        <ele>2.5</ele>
        <time>2022-06-02T10:24:36Z</time>
      </trkpt>
      <trkpt lat="49.43366" lon="-1.19411">
        <ele>2.5</ele>
        <time>2022-06-02T10:24:38Z</time>
      </trkpt>
      <trkpt lat="49.43366" lon="-1.19411">
        <ele>2.5</ele>
        <time>2022-06-02T10:24:39Z</time>
      </trkpt>
      <trkpt lat="49.43365" lon="-1.1941">
        <ele>2.5</ele>
        <time>2022-06-02T10:24:40Z</time>
      </trkpt>
      <trkpt lat="49.43364" lon="-1.19409">
        <ele>2.5</ele>
        <time>2022-06-02T10:24:41Z</time>
      </trkpt>
      <trkpt lat="49.43363" lon="-1.19408">
        <ele>2.5</ele>
        <time>2022-06-02T10:24:42Z</time>
      </trkpt>
      <trkpt lat="49.43362" lon="-1.19408">
        <ele>2.5</ele>
        <time>2022-06-02T10:24:43Z</time>
      </trkpt>
      <trkpt lat="49.43361" lon="-1.19407">
        <ele>2.5</ele>
        <time>2022-06-02T10:24:45Z</time>
      </trkpt>
      <trkpt lat="49.4336" lon="-1.19407">
        <ele>2.5</ele>
        <time>2022-06-02T10:24:46Z</time>
      </trkpt>
      <trkpt lat="49.43359" lon="-1.19405">
        <ele>2.5</ele>
        <time>2022-06-02T10:24:47Z</time>
      </trkpt>
      <trkpt lat="49.43358" lon="-1.19404">
        <ele>2.5</ele>
        <time>2022-06-02T10:24:48Z</time>
      </trkpt>
      <trkpt lat="49.43358" lon="-1.19403">
        <ele>2.5</ele>
        <time>2022-06-02T10:24:49Z</time>
      </trkpt>
      <trkpt lat="49.43357" lon="-1.19403">
        <ele>2.5</ele>
        <time>2022-06-02T10:24:50Z</time>
      </trkpt>
      <trkpt lat="49.43356" lon="-1.19402">
        <ele>2.5</ele>
        <time>2022-06-02T10:24:52Z</time>
      </trkpt>
      <trkpt lat="49.43356" lon="-1.19401">
        <ele>2.5</ele>
        <time>2022-06-02T10:24:53Z</time>
      </trkpt>
      <trkpt lat="49.43355" lon="-1.19399">
        <ele>2.5</ele>
        <time>2022-06-02T10:24:54Z</time>
      </trkpt>
      <trkpt lat="49.43354" lon="-1.19398">
        <ele>2.5</ele>
        <time>2022-06-02T10:24:55Z</time>
      </trkpt>
      <trkpt lat="49.43353" lon="-1.19397">
        <ele>2.5</ele>
        <time>2022-06-02T10:24:56Z</time>
      </trkpt>
      <trkpt lat="49.43353" lon="-1.19396">
        <ele>2.5</ele>
        <time>2022-06-02T10:24:57Z</time>
      </trkpt>
      <trkpt lat="49.43351" lon="-1.19393">
        <ele>2.5</ele>
        <time>2022-06-02T10:24:58Z</time>
      </trkpt>
      <trkpt lat="49.4335" lon="-1.19393">
        <ele>2.5</ele>
        <time>2022-06-02T10:25:00Z</time>
      </trkpt>
      <trkpt lat="49.4335" lon="-1.19392">
        <ele>2.5</ele>
        <time>2022-06-02T10:25:01Z</time>
      </trkpt>
      <trkpt lat="49.43349" lon="-1.19391">
        <ele>2.5</ele>
        <time>2022-06-02T10:25:02Z</time>
      </trkpt>
      <trkpt lat="49.43348" lon="-1.1939">
        <ele>2.5</ele>
        <time>2022-06-02T10:25:03Z</time>
      </trkpt>
      <trkpt lat="49.43347" lon="-1.19389">
        <ele>2.5</ele>
        <time>2022-06-02T10:25:04Z</time>
      </trkpt>
      <trkpt lat="49.43346" lon="-1.19388">
        <ele>2.5</ele>
        <time>2022-06-02T10:25:05Z</time>
      </trkpt>
      <trkpt lat="49.43345" lon="-1.19387">
        <ele>2.5</ele>
        <time>2022-06-02T10:25:07Z</time>
      </trkpt>
      <trkpt lat="49.43344" lon="-1.19386">
        <ele>2.5</ele>
        <time>2022-06-02T10:25:08Z</time>
      </trkpt>
      <trkpt lat="49.43343" lon="-1.19385">
        <ele>2.5</ele>
        <time>2022-06-02T10:25:09Z</time>
      </trkpt>
      <trkpt lat="49.43342" lon="-1.19385">
        <ele>2.5</ele>
        <time>2022-06-02T10:25:10Z</time>
      </trkpt>
      <trkpt lat="49.43341" lon="-1.19384">
        <ele>2.5</ele>
        <time>2022-06-02T10:25:11Z</time>
      </trkpt>
      <trkpt lat="49.4334" lon="-1.19382">
        <ele>2.5</ele>
        <time>2022-06-02T10:25:12Z</time>
      </trkpt>
      <trkpt lat="49.43339" lon="-1.19381">
        <ele>2.5</ele>
        <time>2022-06-02T10:25:13Z</time>
      </trkpt>
      <trkpt lat="49.43338" lon="-1.19379">
        <ele>2.5</ele>
        <time>2022-06-02T10:25:14Z</time>
      </trkpt>
      <trkpt lat="49.43337" lon="-1.19378">
        <ele>2.5</ele>
        <time>2022-06-02T10:25:16Z</time>
      </trkpt>
      <trkpt lat="49.43336" lon="-1.19378">
        <ele>2.5</ele>
        <time>2022-06-02T10:25:17Z</time>
      </trkpt>
      <trkpt lat="49.43335" lon="-1.19376">
        <ele>2.5</ele>
        <time>2022-06-02T10:25:18Z</time>
      </trkpt>
      <trkpt lat="49.43335" lon="-1.19375">
        <ele>2.5</ele>
        <time>2022-06-02T10:25:19Z</time>
      </trkpt>
      <trkpt lat="49.43334" lon="-1.19375">
        <ele>2.5</ele>
        <time>2022-06-02T10:25:20Z</time>
      </trkpt>
      <trkpt lat="49.43334" lon="-1.19374">
        <ele>2.5</ele>
        <time>2022-06-02T10:25:21Z</time>
      </trkpt>
      <trkpt lat="49.43333" lon="-1.19373">
        <ele>2.5</ele>
        <time>2022-06-02T10:25:23Z</time>
      </trkpt>
      <trkpt lat="49.43332" lon="-1.19371">
        <ele>2.5</ele>
        <time>2022-06-02T10:25:24Z</time>
      </trkpt>
      <trkpt lat="49.43331" lon="-1.1937">
        <ele>2.5</ele>
        <time>2022-06-02T10:25:25Z</time>
      </trkpt>
      <trkpt lat="49.4333" lon="-1.19369">
        <ele>2.5</ele>
        <time>2022-06-02T10:25:26Z</time>
      </trkpt>
      <trkpt lat="49.4333" lon="-1.19368">
        <ele>2.5</ele>
        <time>2022-06-02T10:25:27Z</time>
      </trkpt>
      <trkpt lat="49.43329" lon="-1.19367">
        <ele>2.5</ele>
        <time>2022-06-02T10:25:28Z</time>
      </trkpt>
      <trkpt lat="49.43328" lon="-1.19366">
        <ele>2.5</ele>
        <time>2022-06-02T10:25:30Z</time>
      </trkpt>
      <trkpt lat="49.43327" lon="-1.19365">
        <ele>2.5</ele>
        <time>2022-06-02T10:25:31Z</time>
      </trkpt>
      <trkpt lat="49.43326" lon="-1.19364">
        <ele>2.5</ele>
        <time>2022-06-02T10:25:32Z</time>
      </trkpt>
      <trkpt lat="49.43326" lon="-1.19363">
        <ele>2.5</ele>
        <time>2022-06-02T10:25:33Z</time>
      </trkpt>
      <trkpt lat="49.43324" lon="-1.19361">
        <ele>2.5</ele>
        <time>2022-06-02T10:25:35Z</time>
      </trkpt>
      <trkpt lat="49.43323" lon="-1.19361">
        <ele>2.5</ele>
        <time>2022-06-02T10:25:36Z</time>
      </trkpt>
      <trkpt lat="49.43322" lon="-1.19359">
        <ele>2.5</ele>
        <time>2022-06-02T10:25:37Z</time>
      </trkpt>
      <trkpt lat="49.43322" lon="-1.19357">
        <ele>2.5</ele>
        <time>2022-06-02T10:25:39Z</time>
      </trkpt>
      <trkpt lat="49.43323" lon="-1.19356">
        <ele>2.5</ele>
        <time>2022-06-02T10:25:40Z</time>
      </trkpt>
      <trkpt lat="49.43323" lon="-1.19354">
        <ele>2.5</ele>
        <time>2022-06-02T10:25:41Z</time>
      </trkpt>
      <trkpt lat="49.43322" lon="-1.19354">
        <ele>2.5</ele>
        <time>2022-06-02T10:25:42Z</time>
      </trkpt>
      <trkpt lat="49.43322" lon="-1.19353">
        <ele>2.5</ele>
        <time>2022-06-02T10:25:43Z</time>
      </trkpt>
      <trkpt lat="49.43321" lon="-1.19353">
        <ele>2.5</ele>
        <time>2022-06-02T10:25:44Z</time>
      </trkpt>
      <trkpt lat="49.4332" lon="-1.19352">
        <ele>2.5</ele>
        <time>2022-06-02T10:25:46Z</time>
      </trkpt>
      <trkpt lat="49.4332" lon="-1.19351">
        <ele>2.5</ele>
        <time>2022-06-02T10:25:47Z</time>
      </trkpt>
      <trkpt lat="49.43319" lon="-1.19351">
        <ele>2.5</ele>
        <time>2022-06-02T10:25:48Z</time>
      </trkpt>
      <trkpt lat="49.43318" lon="-1.1935">
        <ele>2.6</ele>
        <time>2022-06-02T10:25:49Z</time>
      </trkpt>
      <trkpt lat="49.43318" lon="-1.1935">
        <ele>2.6</ele>
        <time>2022-06-02T10:25:50Z</time>
      </trkpt>
      <trkpt lat="49.43317" lon="-1.19349">
        <ele>2.6</ele>
        <time>2022-06-02T10:25:51Z</time>
      </trkpt>
      <trkpt lat="49.43316" lon="-1.19348">
        <ele>2.6</ele>
        <time>2022-06-02T10:25:52Z</time>
      </trkpt>
      <trkpt lat="49.43314" lon="-1.19347">
        <ele>2.6</ele>
        <time>2022-06-02T10:25:54Z</time>
      </trkpt>
      <trkpt lat="49.43313" lon="-1.19346">
        <ele>2.6</ele>
        <time>2022-06-02T10:25:55Z</time>
      </trkpt>
      <trkpt lat="49.43313" lon="-1.19345">
        <ele>2.6</ele>
        <time>2022-06-02T10:25:56Z</time>
      </trkpt>
      <trkpt lat="49.43312" lon="-1.19343">
        <ele>2.6</ele>
        <time>2022-06-02T10:25:57Z</time>
      </trkpt>
      <trkpt lat="49.43311" lon="-1.19342">
        <ele>2.6</ele>
        <time>2022-06-02T10:25:58Z</time>
      </trkpt>
      <trkpt lat="49.43311" lon="-1.19341">
        <ele>2.6</ele>
        <time>2022-06-02T10:25:59Z</time>
      </trkpt>
      <trkpt lat="49.4331" lon="-1.1934">
        <ele>2.6</ele>
        <time>2022-06-02T10:26:00Z</time>
      </trkpt>
      <trkpt lat="49.43309" lon="-1.19339">
        <ele>2.6</ele>
        <time>2022-06-02T10:26:01Z</time>
      </trkpt>
      <trkpt lat="49.43308" lon="-1.19338">
        <ele>2.6</ele>
        <time>2022-06-02T10:26:03Z</time>
      </trkpt>
      <trkpt lat="49.43307" lon="-1.19337">
        <ele>2.6</ele>
        <time>2022-06-02T10:26:04Z</time>
      </trkpt>
      <trkpt lat="49.43306" lon="-1.19335">
        <ele>2.6</ele>
        <time>2022-06-02T10:26:05Z</time>
      </trkpt>
      <trkpt lat="49.43306" lon="-1.19334">
        <ele>2.6</ele>
        <time>2022-06-02T10:26:06Z</time>
      </trkpt>
      <trkpt lat="49.43305" lon="-1.19334">
        <ele>2.6</ele>
        <time>2022-06-02T10:26:07Z</time>
      </trkpt>
      <trkpt lat="49.43305" lon="-1.19333">
        <ele>2.6</ele>
        <time>2022-06-02T10:26:08Z</time>
      </trkpt>
      <trkpt lat="49.43303" lon="-1.19331">
        <ele>2.6</ele>
        <time>2022-06-02T10:26:09Z</time>
      </trkpt>
      <trkpt lat="49.43303" lon="-1.1933">
        <ele>2.6</ele>
        <time>2022-06-02T10:26:11Z</time>
      </trkpt>
      <trkpt lat="49.43302" lon="-1.1933">
        <ele>2.6</ele>
        <time>2022-06-02T10:26:12Z</time>
      </trkpt>
      <trkpt lat="49.433" lon="-1.19328">
        <ele>2.5</ele>
        <time>2022-06-02T10:26:13Z</time>
      </trkpt>
      <trkpt lat="49.43299" lon="-1.19328">
        <ele>2.5</ele>
        <time>2022-06-02T10:26:14Z</time>
      </trkpt>
      <trkpt lat="49.43299" lon="-1.19327">
        <ele>2.5</ele>
        <time>2022-06-02T10:26:15Z</time>
      </trkpt>
      <trkpt lat="49.43298" lon="-1.19326">
        <ele>2.5</ele>
        <time>2022-06-02T10:26:16Z</time>
      </trkpt>
      <trkpt lat="49.43297" lon="-1.19325">
        <ele>2.5</ele>
        <time>2022-06-02T10:26:17Z</time>
      </trkpt>
      <trkpt lat="49.43296" lon="-1.19323">
        <ele>2.5</ele>
        <time>2022-06-02T10:26:19Z</time>
      </trkpt>
      <trkpt lat="49.43294" lon="-1.19321">
        <ele>2.5</ele>
        <time>2022-06-02T10:26:20Z</time>
      </trkpt>
      <trkpt lat="49.43294" lon="-1.19321">
        <ele>2.5</ele>
        <time>2022-06-02T10:26:21Z</time>
      </trkpt>
      <trkpt lat="49.43293" lon="-1.19319">
        <ele>2.5</ele>
        <time>2022-06-02T10:26:22Z</time>
      </trkpt>
      <trkpt lat="49.43292" lon="-1.19318">
        <ele>2.5</ele>
        <time>2022-06-02T10:26:23Z</time>
      </trkpt>
      <trkpt lat="49.43291" lon="-1.19317">
        <ele>2.5</ele>
        <time>2022-06-02T10:26:24Z</time>
      </trkpt>
      <trkpt lat="49.4329" lon="-1.19316">
        <ele>2.5</ele>
        <time>2022-06-02T10:26:26Z</time>
      </trkpt>
      <trkpt lat="49.4329" lon="-1.19314">
        <ele>2.5</ele>
        <time>2022-06-02T10:26:27Z</time>
      </trkpt>
      <trkpt lat="49.43289" lon="-1.19313">
        <ele>2.5</ele>
        <time>2022-06-02T10:26:28Z</time>
      </trkpt>
      <trkpt lat="49.43287" lon="-1.19311">
        <ele>2.4</ele>
        <time>2022-06-02T10:26:29Z</time>
      </trkpt>
      <trkpt lat="49.43287" lon="-1.1931">
        <ele>2.4</ele>
        <time>2022-06-02T10:26:30Z</time>
      </trkpt>
      <trkpt lat="49.43286" lon="-1.19309">
        <ele>2.4</ele>
        <time>2022-06-02T10:26:31Z</time>
      </trkpt>
      <trkpt lat="49.43285" lon="-1.19307">
        <ele>2.4</ele>
        <time>2022-06-02T10:26:32Z</time>
      </trkpt>
      <trkpt lat="49.43284" lon="-1.19306">
        <ele>2.4</ele>
        <time>2022-06-02T10:26:34Z</time>
      </trkpt>
      <trkpt lat="49.43284" lon="-1.19305">
        <ele>2.4</ele>
        <time>2022-06-02T10:26:35Z</time>
      </trkpt>
      <trkpt lat="49.43283" lon="-1.19304">
        <ele>2.4</ele>
        <time>2022-06-02T10:26:36Z</time>
      </trkpt>
      <trkpt lat="49.43282" lon="-1.19303">
        <ele>2.4</ele>
        <time>2022-06-02T10:26:37Z</time>
      </trkpt>
      <trkpt lat="49.43281" lon="-1.19302">
        <ele>2.4</ele>
        <time>2022-06-02T10:26:38Z</time>
      </trkpt>
      <trkpt lat="49.4328" lon="-1.19301">
        <ele>2.3</ele>
        <time>2022-06-02T10:26:40Z</time>
      </trkpt>
      <trkpt lat="49.43279" lon="-1.193">
        <ele>2.3</ele>
        <time>2022-06-02T10:26:41Z</time>
      </trkpt>
      <trkpt lat="49.43278" lon="-1.19299">
        <ele>2.3</ele>
        <time>2022-06-02T10:26:42Z</time>
      </trkpt>
      <trkpt lat="49.43277" lon="-1.19298">
        <ele>2.3</ele>
        <time>2022-06-02T10:26:43Z</time>
      </trkpt>
      <trkpt lat="49.43277" lon="-1.19297">
        <ele>2.3</ele>
        <time>2022-06-02T10:26:45Z</time>
      </trkpt>
      <trkpt lat="49.43276" lon="-1.19296">
        <ele>2.3</ele>
        <time>2022-06-02T10:26:46Z</time>
      </trkpt>
      <trkpt lat="49.43274" lon="-1.19295">
        <ele>2.3</ele>
        <time>2022-06-02T10:26:47Z</time>
      </trkpt>
      <trkpt lat="49.43273" lon="-1.19294">
        <ele>2.3</ele>
        <time>2022-06-02T10:26:48Z</time>
      </trkpt>
      <trkpt lat="49.43273" lon="-1.19293">
        <ele>2.3</ele>
        <time>2022-06-02T10:26:49Z</time>
      </trkpt>
      <trkpt lat="49.43272" lon="-1.19291">
        <ele>2.3</ele>
        <time>2022-06-02T10:26:50Z</time>
      </trkpt>
      <trkpt lat="49.43271" lon="-1.1929">
        <ele>2.3</ele>
        <time>2022-06-02T10:26:51Z</time>
      </trkpt>
      <trkpt lat="49.4327" lon="-1.19289">
        <ele>2.2</ele>
        <time>2022-06-02T10:26:53Z</time>
      </trkpt>
      <trkpt lat="49.4327" lon="-1.19288">
        <ele>2.2</ele>
        <time>2022-06-02T10:26:54Z</time>
      </trkpt>
      <trkpt lat="49.43268" lon="-1.19286">
        <ele>2.2</ele>
        <time>2022-06-02T10:26:55Z</time>
      </trkpt>
      <trkpt lat="49.43268" lon="-1.19285">
        <ele>2.2</ele>
        <time>2022-06-02T10:26:56Z</time>
      </trkpt>
      <trkpt lat="49.43267" lon="-1.19284">
        <ele>2.2</ele>
        <time>2022-06-02T10:26:57Z</time>
      </trkpt>
      <trkpt lat="49.43266" lon="-1.19283">
        <ele>2.2</ele>
        <time>2022-06-02T10:26:58Z</time>
      </trkpt>
      <trkpt lat="49.43266" lon="-1.19282">
        <ele>2.2</ele>
        <time>2022-06-02T10:27:00Z</time>
      </trkpt>
      <trkpt lat="49.43265" lon="-1.19281">
        <ele>2.2</ele>
        <time>2022-06-02T10:27:01Z</time>
      </trkpt>
      <trkpt lat="49.43264" lon="-1.19279">
        <ele>2.2</ele>
        <time>2022-06-02T10:27:02Z</time>
      </trkpt>
      <trkpt lat="49.43263" lon="-1.19278">
        <ele>2.2</ele>
        <time>2022-06-02T10:27:03Z</time>
      </trkpt>
      <trkpt lat="49.43262" lon="-1.19277">
        <ele>2.2</ele>
        <time>2022-06-02T10:27:04Z</time>
      </trkpt>
      <trkpt lat="49.43262" lon="-1.19276">
        <ele>2.2</ele>
        <time>2022-06-02T10:27:05Z</time>
      </trkpt>
      <trkpt lat="49.43261" lon="-1.19275">
        <ele>2.2</ele>
        <time>2022-06-02T10:27:07Z</time>
      </trkpt>
      <trkpt lat="49.4326" lon="-1.19273">
        <ele>2.2</ele>
        <time>2022-06-02T10:27:08Z</time>
      </trkpt>
      <trkpt lat="49.43259" lon="-1.19272">
        <ele>2.2</ele>
        <time>2022-06-02T10:27:09Z</time>
      </trkpt>
      <trkpt lat="49.43259" lon="-1.19271">
        <ele>2.2</ele>
        <time>2022-06-02T10:27:10Z</time>
      </trkpt>
      <trkpt lat="49.43258" lon="-1.1927">
        <ele>2.2</ele>
        <time>2022-06-02T10:27:11Z</time>
      </trkpt>
      <trkpt lat="49.43257" lon="-1.19268">
        <ele>2.2</ele>
        <time>2022-06-02T10:27:12Z</time>
      </trkpt>
      <trkpt lat="49.43256" lon="-1.19268">
        <ele>2.2</ele>
        <time>2022-06-02T10:27:14Z</time>
      </trkpt>
      <trkpt lat="49.43255" lon="-1.19266">
        <ele>2.2</ele>
        <time>2022-06-02T10:27:15Z</time>
      </trkpt>
      <trkpt lat="49.43255" lon="-1.19266">
        <ele>2.2</ele>
        <time>2022-06-02T10:27:16Z</time>
      </trkpt>
      <trkpt lat="49.43254" lon="-1.19265">
        <ele>2.2</ele>
        <time>2022-06-02T10:27:17Z</time>
      </trkpt>
      <trkpt lat="49.43253" lon="-1.19263">
        <ele>2.2</ele>
        <time>2022-06-02T10:27:18Z</time>
      </trkpt>
      <trkpt lat="49.43252" lon="-1.19262">
        <ele>2.2</ele>
        <time>2022-06-02T10:27:19Z</time>
      </trkpt>
      <trkpt lat="49.43251" lon="-1.19261">
        <ele>2.2</ele>
        <time>2022-06-02T10:27:21Z</time>
      </trkpt>
      <trkpt lat="49.4325" lon="-1.19261">
        <ele>2.2</ele>
        <time>2022-06-02T10:27:22Z</time>
      </trkpt>
      <trkpt lat="49.43249" lon="-1.19259">
        <ele>2.2</ele>
        <time>2022-06-02T10:27:23Z</time>
      </trkpt>
      <trkpt lat="49.43248" lon="-1.19258">
        <ele>2.2</ele>
        <time>2022-06-02T10:27:24Z</time>
      </trkpt>
      <trkpt lat="49.43248" lon="-1.19257">
        <ele>2.2</ele>
        <time>2022-06-02T10:27:25Z</time>
      </trkpt>
      <trkpt lat="49.43247" lon="-1.19256">
        <ele>2.2</ele>
        <time>2022-06-02T10:27:26Z</time>
      </trkpt>
      <trkpt lat="49.43246" lon="-1.19254">
        <ele>2.3</ele>
        <time>2022-06-02T10:27:28Z</time>
      </trkpt>
      <trkpt lat="49.43245" lon="-1.19254">
        <ele>2.3</ele>
        <time>2022-06-02T10:27:29Z</time>
      </trkpt>
      <trkpt lat="49.43244" lon="-1.19252">
        <ele>2.3</ele>
        <time>2022-06-02T10:27:30Z</time>
      </trkpt>
      <trkpt lat="49.43243" lon="-1.19251">
        <ele>2.3</ele>
        <time>2022-06-02T10:27:31Z</time>
      </trkpt>
      <trkpt lat="49.43242" lon="-1.19251">
        <ele>2.3</ele>
        <time>2022-06-02T10:27:32Z</time>
      </trkpt>
      <trkpt lat="49.43242" lon="-1.1925">
        <ele>2.3</ele>
        <time>2022-06-02T10:27:34Z</time>
      </trkpt>
      <trkpt lat="49.43241" lon="-1.19249">
        <ele>2.3</ele>
        <time>2022-06-02T10:27:35Z</time>
      </trkpt>
      <trkpt lat="49.4324" lon="-1.19248">
        <ele>2.3</ele>
        <time>2022-06-02T10:27:36Z</time>
      </trkpt>
      <trkpt lat="49.43239" lon="-1.19247">
        <ele>2.3</ele>
        <time>2022-06-02T10:27:37Z</time>
      </trkpt>
      <trkpt lat="49.43238" lon="-1.19246">
        <ele>2.3</ele>
        <time>2022-06-02T10:27:38Z</time>
      </trkpt>
      <trkpt lat="49.43237" lon="-1.19246">
        <ele>2.3</ele>
        <time>2022-06-02T10:27:39Z</time>
      </trkpt>
      <trkpt lat="49.43236" lon="-1.19245">
        <ele>2.3</ele>
        <time>2022-06-02T10:27:40Z</time>
      </trkpt>
      <trkpt lat="49.43235" lon="-1.19244">
        <ele>2.3</ele>
        <time>2022-06-02T10:27:42Z</time>
      </trkpt>
      <trkpt lat="49.43234" lon="-1.19243">
        <ele>2.3</ele>
        <time>2022-06-02T10:27:43Z</time>
      </trkpt>
      <trkpt lat="49.43233" lon="-1.19243">
        <ele>2.3</ele>
        <time>2022-06-02T10:27:44Z</time>
      </trkpt>
      <trkpt lat="49.43233" lon="-1.19242">
        <ele>2.3</ele>
        <time>2022-06-02T10:27:45Z</time>
      </trkpt>
      <trkpt lat="49.43232" lon="-1.19241">
        <ele>2.3</ele>
        <time>2022-06-02T10:27:46Z</time>
      </trkpt>
      <trkpt lat="49.43231" lon="-1.1924">
        <ele>2.3</ele>
        <time>2022-06-02T10:27:48Z</time>
      </trkpt>
      <trkpt lat="49.4323" lon="-1.19239">
        <ele>2.3</ele>
        <time>2022-06-02T10:27:49Z</time>
      </trkpt>
      <trkpt lat="49.43229" lon="-1.19238">
        <ele>2.3</ele>
        <time>2022-06-02T10:27:50Z</time>
      </trkpt>
      <trkpt lat="49.43228" lon="-1.19236">
        <ele>2.4</ele>
        <time>2022-06-02T10:27:51Z</time>
      </trkpt>
      <trkpt lat="49.43228" lon="-1.19235">
        <ele>2.4</ele>
        <time>2022-06-02T10:27:52Z</time>
      </trkpt>
      <trkpt lat="49.43227" lon="-1.19234">
        <ele>2.4</ele>
        <time>2022-06-02T10:27:53Z</time>
      </trkpt>
      <trkpt lat="49.43226" lon="-1.19232">
        <ele>2.4</ele>
        <time>2022-06-02T10:27:55Z</time>
      </trkpt>
      <trkpt lat="49.43225" lon="-1.19231">
        <ele>2.4</ele>
        <time>2022-06-02T10:27:56Z</time>
      </trkpt>
      <trkpt lat="49.43225" lon="-1.19231">
        <ele>2.4</ele>
        <time>2022-06-02T10:27:57Z</time>
      </trkpt>
      <trkpt lat="49.43224" lon="-1.1923">
        <ele>2.4</ele>
        <time>2022-06-02T10:27:58Z</time>
      </trkpt>
      <trkpt lat="49.43223" lon="-1.19228">
        <ele>2.4</ele>
        <time>2022-06-02T10:28:00Z</time>
      </trkpt>
      <trkpt lat="49.43223" lon="-1.19227">
        <ele>2.4</ele>
        <time>2022-06-02T10:28:01Z</time>
      </trkpt>
      <trkpt lat="49.43223" lon="-1.19226">
        <ele>2.4</ele>
        <time>2022-06-02T10:28:02Z</time>
      </trkpt>
      <trkpt lat="49.43223" lon="-1.19225">
        <ele>2.4</ele>
        <time>2022-06-02T10:28:03Z</time>
      </trkpt>
      <trkpt lat="49.43223" lon="-1.19225">
        <ele>2.4</ele>
        <time>2022-06-02T10:28:04Z</time>
      </trkpt>
      <trkpt lat="49.43223" lon="-1.19225">
        <ele>2.4</ele>
        <time>2022-06-02T10:28:05Z</time>
      </trkpt>
      <trkpt lat="49.43222" lon="-1.19224">
        <ele>2.4</ele>
        <time>2022-06-02T10:28:06Z</time>
      </trkpt>
      <trkpt lat="49.43222" lon="-1.19224">
        <ele>2.4</ele>
        <time>2022-06-02T10:28:08Z</time>
      </trkpt>
      <trkpt lat="49.43221" lon="-1.19223">
        <ele>2.4</ele>
        <time>2022-06-02T10:28:09Z</time>
      </trkpt>
      <trkpt lat="49.43221" lon="-1.19223">
        <ele>2.4</ele>
        <time>2022-06-02T10:28:10Z</time>
      </trkpt>
      <trkpt lat="49.4322" lon="-1.19222">
        <ele>2.4</ele>
        <time>2022-06-02T10:28:11Z</time>
      </trkpt>
      <trkpt lat="49.4322" lon="-1.19221">
        <ele>2.4</ele>
        <time>2022-06-02T10:28:12Z</time>
      </trkpt>
      <trkpt lat="49.43219" lon="-1.19221">
        <ele>2.4</ele>
        <time>2022-06-02T10:28:13Z</time>
      </trkpt>
      <trkpt lat="49.43218" lon="-1.1922">
        <ele>2.4</ele>
        <time>2022-06-02T10:28:14Z</time>
      </trkpt>
      <trkpt lat="49.43218" lon="-1.19219">
        <ele>2.4</ele>
        <time>2022-06-02T10:28:16Z</time>
      </trkpt>
      <trkpt lat="49.43217" lon="-1.19217">
        <ele>2.4</ele>
        <time>2022-06-02T10:28:17Z</time>
      </trkpt>
      <trkpt lat="49.43216" lon="-1.19216">
        <ele>2.4</ele>
        <time>2022-06-02T10:28:18Z</time>
      </trkpt>
      <trkpt lat="49.43215" lon="-1.19214">
        <ele>2.3</ele>
        <time>2022-06-02T10:28:19Z</time>
      </trkpt>
      <trkpt lat="49.43214" lon="-1.19213">
        <ele>2.3</ele>
        <time>2022-06-02T10:28:20Z</time>
      </trkpt>
      <trkpt lat="49.43213" lon="-1.19213">
        <ele>2.3</ele>
        <time>2022-06-02T10:28:21Z</time>
      </trkpt>
      <trkpt lat="49.43211" lon="-1.19211">
        <ele>2.3</ele>
        <time>2022-06-02T10:28:22Z</time>
      </trkpt>
      <trkpt lat="49.43211" lon="-1.1921">
        <ele>2.3</ele>
        <time>2022-06-02T10:28:24Z</time>
      </trkpt>
      <trkpt lat="49.4321" lon="-1.19209">
        <ele>2.3</ele>
        <time>2022-06-02T10:28:25Z</time>
      </trkpt>
      <trkpt lat="49.43208" lon="-1.19207">
        <ele>2.3</ele>
        <time>2022-06-02T10:28:26Z</time>
      </trkpt>
      <trkpt lat="49.43207" lon="-1.19206">
        <ele>2.2</ele>
        <time>2022-06-02T10:28:27Z</time>
      </trkpt>
      <trkpt lat="49.43207" lon="-1.19206">
        <ele>2.2</ele>
        <time>2022-06-02T10:28:28Z</time>
      </trkpt>
      <trkpt lat="49.43206" lon="-1.19205">
        <ele>2.2</ele>
        <time>2022-06-02T10:28:29Z</time>
      </trkpt>
      <trkpt lat="49.43205" lon="-1.19204">
        <ele>2.2</ele>
        <time>2022-06-02T10:28:31Z</time>
      </trkpt>
      <trkpt lat="49.43204" lon="-1.19203">
        <ele>2.2</ele>
        <time>2022-06-02T10:28:32Z</time>
      </trkpt>
      <trkpt lat="49.43203" lon="-1.19202">
        <ele>2.2</ele>
        <time>2022-06-02T10:28:33Z</time>
      </trkpt>
      <trkpt lat="49.43203" lon="-1.192">
        <ele>2.2</ele>
        <time>2022-06-02T10:28:34Z</time>
      </trkpt>
      <trkpt lat="49.43202" lon="-1.19199">
        <ele>2.2</ele>
        <time>2022-06-02T10:28:35Z</time>
      </trkpt>
      <trkpt lat="49.43201" lon="-1.19198">
        <ele>2.2</ele>
        <time>2022-06-02T10:28:36Z</time>
      </trkpt>
      <trkpt lat="49.432" lon="-1.19197">
        <ele>2.3</ele>
        <time>2022-06-02T10:28:37Z</time>
      </trkpt>
      <trkpt lat="49.43199" lon="-1.19196">
        <ele>2.3</ele>
        <time>2022-06-02T10:28:39Z</time>
      </trkpt>
      <trkpt lat="49.43198" lon="-1.19195">
        <ele>2.3</ele>
        <time>2022-06-02T10:28:40Z</time>
      </trkpt>
      <trkpt lat="49.43198" lon="-1.19194">
        <ele>2.3</ele>
        <time>2022-06-02T10:28:41Z</time>
      </trkpt>
      <trkpt lat="49.43197" lon="-1.19193">
        <ele>2.3</ele>
        <time>2022-06-02T10:28:42Z</time>
      </trkpt>
      <trkpt lat="49.43195" lon="-1.19192">
        <ele>2.3</ele>
        <time>2022-06-02T10:28:43Z</time>
      </trkpt>
      <trkpt lat="49.43195" lon="-1.19191">
        <ele>2.3</ele>
        <time>2022-06-02T10:28:44Z</time>
      </trkpt>
      <trkpt lat="49.43194" lon="-1.1919">
        <ele>2.2</ele>
        <time>2022-06-02T10:28:46Z</time>
      </trkpt>
      <trkpt lat="49.43193" lon="-1.19189">
        <ele>2.2</ele>
        <time>2022-06-02T10:28:47Z</time>
      </trkpt>
      <trkpt lat="49.43192" lon="-1.19189">
        <ele>2.2</ele>
        <time>2022-06-02T10:28:48Z</time>
      </trkpt>
      <trkpt lat="49.43191" lon="-1.19188">
        <ele>2.2</ele>
        <time>2022-06-02T10:28:49Z</time>
      </trkpt>
      <trkpt lat="49.4319" lon="-1.19187">
        <ele>2.2</ele>
        <time>2022-06-02T10:28:50Z</time>
      </trkpt>
      <trkpt lat="49.4319" lon="-1.19186">
        <ele>2.2</ele>
        <time>2022-06-02T10:28:51Z</time>
      </trkpt>
      <trkpt lat="49.43189" lon="-1.19186">
        <ele>2.2</ele>
        <time>2022-06-02T10:28:52Z</time>
      </trkpt>
      <trkpt lat="49.43188" lon="-1.19184">
        <ele>2.2</ele>
        <time>2022-06-02T10:28:54Z</time>
      </trkpt>
      <trkpt lat="49.43188" lon="-1.19183">
        <ele>2.2</ele>
        <time>2022-06-02T10:28:55Z</time>
      </trkpt>
      <trkpt lat="49.43187" lon="-1.19183">
        <ele>2.1</ele>
        <time>2022-06-02T10:28:56Z</time>
      </trkpt>
      <trkpt lat="49.43186" lon="-1.19181">
        <ele>2.1</ele>
        <time>2022-06-02T10:28:57Z</time>
      </trkpt>
      <trkpt lat="49.43185" lon="-1.1918">
        <ele>2.1</ele>
        <time>2022-06-02T10:28:58Z</time>
      </trkpt>
      <trkpt lat="49.43184" lon="-1.19179">
        <ele>2.1</ele>
        <time>2022-06-02T10:28:59Z</time>
      </trkpt>
      <trkpt lat="49.43184" lon="-1.19178">
        <ele>2.1</ele>
        <time>2022-06-02T10:29:01Z</time>
      </trkpt>
      <trkpt lat="49.43183" lon="-1.19177">
        <ele>2.1</ele>
        <time>2022-06-02T10:29:02Z</time>
      </trkpt>
      <trkpt lat="49.43182" lon="-1.19176">
        <ele>2.1</ele>
        <time>2022-06-02T10:29:03Z</time>
      </trkpt>
      <trkpt lat="49.43181" lon="-1.19175">
        <ele>2.1</ele>
        <time>2022-06-02T10:29:04Z</time>
      </trkpt>
      <trkpt lat="49.4318" lon="-1.19174">
        <ele>2.1</ele>
        <time>2022-06-02T10:29:05Z</time>
      </trkpt>
      <trkpt lat="49.43179" lon="-1.19173">
        <ele>2.1</ele>
        <time>2022-06-02T10:29:06Z</time>
      </trkpt>
      <trkpt lat="49.43178" lon="-1.19173">
        <ele>2.1</ele>
        <time>2022-06-02T10:29:07Z</time>
      </trkpt>
      <trkpt lat="49.43177" lon="-1.19171">
        <ele>2.1</ele>
        <time>2022-06-02T10:29:09Z</time>
      </trkpt>
      <trkpt lat="49.43176" lon="-1.19169">
        <ele>2.1</ele>
        <time>2022-06-02T10:29:10Z</time>
      </trkpt>
      <trkpt lat="49.43175" lon="-1.19168">
        <ele>2.1</ele>
        <time>2022-06-02T10:29:11Z</time>
      </trkpt>
      <trkpt lat="49.43175" lon="-1.19167">
        <ele>2.1</ele>
        <time>2022-06-02T10:29:12Z</time>
      </trkpt>
      <trkpt lat="49.43175" lon="-1.19166">
        <ele>2.1</ele>
        <time>2022-06-02T10:29:13Z</time>
      </trkpt>
      <trkpt lat="49.43174" lon="-1.19165">
        <ele>2.1</ele>
        <time>2022-06-02T10:29:15Z</time>
      </trkpt>
      <trkpt lat="49.43174" lon="-1.19164">
        <ele>2.1</ele>
        <time>2022-06-02T10:29:16Z</time>
      </trkpt>
      <trkpt lat="49.43173" lon="-1.19163">
        <ele>2.1</ele>
        <time>2022-06-02T10:29:17Z</time>
      </trkpt>
      <trkpt lat="49.43172" lon="-1.19162">
        <ele>2.2</ele>
        <time>2022-06-02T10:29:18Z</time>
      </trkpt>
      <trkpt lat="49.43171" lon="-1.19161">
        <ele>2.2</ele>
        <time>2022-06-02T10:29:19Z</time>
      </trkpt>
      <trkpt lat="49.4317" lon="-1.1916">
        <ele>2.2</ele>
        <time>2022-06-02T10:29:20Z</time>
      </trkpt>
      <trkpt lat="49.43169" lon="-1.19159">
        <ele>2.2</ele>
        <time>2022-06-02T10:29:22Z</time>
      </trkpt>
      <trkpt lat="49.43169" lon="-1.19157">
        <ele>2.2</ele>
        <time>2022-06-02T10:29:23Z</time>
      </trkpt>
      <trkpt lat="49.43168" lon="-1.19156">
        <ele>2.2</ele>
        <time>2022-06-02T10:29:24Z</time>
      </trkpt>
      <trkpt lat="49.43167" lon="-1.19155">
        <ele>2.2</ele>
        <time>2022-06-02T10:29:25Z</time>
      </trkpt>
      <trkpt lat="49.43166" lon="-1.19154">
        <ele>2.2</ele>
        <time>2022-06-02T10:29:26Z</time>
      </trkpt>
      <trkpt lat="49.43165" lon="-1.19153">
        <ele>2.2</ele>
        <time>2022-06-02T10:29:27Z</time>
      </trkpt>
      <trkpt lat="49.43164" lon="-1.19152">
        <ele>2.2</ele>
        <time>2022-06-02T10:29:29Z</time>
      </trkpt>
      <trkpt lat="49.43163" lon="-1.19151">
        <ele>2.2</ele>
        <time>2022-06-02T10:29:30Z</time>
      </trkpt>
      <trkpt lat="49.43163" lon="-1.1915">
        <ele>2.2</ele>
        <time>2022-06-02T10:29:31Z</time>
      </trkpt>
      <trkpt lat="49.43162" lon="-1.19149">
        <ele>2.3</ele>
        <time>2022-06-02T10:29:32Z</time>
      </trkpt>
      <trkpt lat="49.43161" lon="-1.19148">
        <ele>2.3</ele>
        <time>2022-06-02T10:29:33Z</time>
      </trkpt>
      <trkpt lat="49.4316" lon="-1.19147">
        <ele>2.3</ele>
        <time>2022-06-02T10:29:34Z</time>
      </trkpt>
      <trkpt lat="49.43159" lon="-1.19146">
        <ele>2.3</ele>
        <time>2022-06-02T10:29:35Z</time>
      </trkpt>
      <trkpt lat="49.43158" lon="-1.19146">
        <ele>2.3</ele>
        <time>2022-06-02T10:29:37Z</time>
      </trkpt>
      <trkpt lat="49.43157" lon="-1.19145">
        <ele>2.3</ele>
        <time>2022-06-02T10:29:38Z</time>
      </trkpt>
      <trkpt lat="49.43157" lon="-1.19145">
        <ele>2.3</ele>
        <time>2022-06-02T10:29:39Z</time>
      </trkpt>
      <trkpt lat="49.43156" lon="-1.19144">
        <ele>2.3</ele>
        <time>2022-06-02T10:29:40Z</time>
      </trkpt>
      <trkpt lat="49.43155" lon="-1.19143">
        <ele>2.3</ele>
        <time>2022-06-02T10:29:41Z</time>
      </trkpt>
      <trkpt lat="49.43154" lon="-1.19142">
        <ele>2.4</ele>
        <time>2022-06-02T10:29:43Z</time>
      </trkpt>
      <trkpt lat="49.43153" lon="-1.19141">
        <ele>2.4</ele>
        <time>2022-06-02T10:29:44Z</time>
      </trkpt>
      <trkpt lat="49.43152" lon="-1.1914">
        <ele>2.4</ele>
        <time>2022-06-02T10:29:45Z</time>
      </trkpt>
      <trkpt lat="49.43152" lon="-1.19139">
        <ele>2.4</ele>
        <time>2022-06-02T10:29:46Z</time>
      </trkpt>
      <trkpt lat="49.43151" lon="-1.19138">
        <ele>2.4</ele>
        <time>2022-06-02T10:29:47Z</time>
      </trkpt>
      <trkpt lat="49.4315" lon="-1.19137">
        <ele>2.4</ele>
        <time>2022-06-02T10:29:48Z</time>
      </trkpt>
      <trkpt lat="49.43149" lon="-1.19136">
        <ele>2.5</ele>
        <time>2022-06-02T10:29:50Z</time>
      </trkpt>
      <trkpt lat="49.43148" lon="-1.19135">
        <ele>2.5</ele>
        <time>2022-06-02T10:29:51Z</time>
      </trkpt>
      <trkpt lat="49.43147" lon="-1.19134">
        <ele>2.5</ele>
        <time>2022-06-02T10:29:52Z</time>
      </trkpt>
      <trkpt lat="49.43146" lon="-1.19133">
        <ele>2.5</ele>
        <time>2022-06-02T10:29:53Z</time>
      </trkpt>
      <trkpt lat="49.43145" lon="-1.19132">
        <ele>2.5</ele>
        <time>2022-06-02T10:29:54Z</time>
      </trkpt>
      <trkpt lat="49.43144" lon="-1.19131">
        <ele>2.6</ele>
        <time>2022-06-02T10:29:56Z</time>
      </trkpt>
      <trkpt lat="49.43144" lon="-1.19129">
        <ele>2.6</ele>
        <time>2022-06-02T10:29:57Z</time>
      </trkpt>
      <trkpt lat="49.43142" lon="-1.19127">
        <ele>2.6</ele>
        <time>2022-06-02T10:29:58Z</time>
      </trkpt>
      <trkpt lat="49.43141" lon="-1.19127">
        <ele>2.6</ele>
        <time>2022-06-02T10:29:59Z</time>
      </trkpt>
      <trkpt lat="49.4314" lon="-1.19126">
        <ele>2.7</ele>
        <time>2022-06-02T10:30:00Z</time>
      </trkpt>
      <trkpt lat="49.4314" lon="-1.19125">
        <ele>2.7</ele>
        <time>2022-06-02T10:30:01Z</time>
      </trkpt>
      <trkpt lat="49.43139" lon="-1.19123">
        <ele>2.7</ele>
        <time>2022-06-02T10:30:03Z</time>
      </trkpt>
      <trkpt lat="49.43138" lon="-1.19122">
        <ele>2.7</ele>
        <time>2022-06-02T10:30:04Z</time>
      </trkpt>
      <trkpt lat="49.43138" lon="-1.19121">
        <ele>2.7</ele>
        <time>2022-06-02T10:30:05Z</time>
      </trkpt>
      <trkpt lat="49.43137" lon="-1.1912">
        <ele>2.8</ele>
        <time>2022-06-02T10:30:06Z</time>
      </trkpt>
      <trkpt lat="49.43136" lon="-1.19119">
        <ele>2.8</ele>
        <time>2022-06-02T10:30:07Z</time>
      </trkpt>
      <trkpt lat="49.43135" lon="-1.19118">
        <ele>2.8</ele>
        <time>2022-06-02T10:30:08Z</time>
      </trkpt>
      <trkpt lat="49.43134" lon="-1.19117">
        <ele>2.8</ele>
        <time>2022-06-02T10:30:10Z</time>
      </trkpt>
      <trkpt lat="49.43133" lon="-1.19116">
        <ele>2.8</ele>
        <time>2022-06-02T10:30:11Z</time>
      </trkpt>
      <trkpt lat="49.43132" lon="-1.19116">
        <ele>2.8</ele>
        <time>2022-06-02T10:30:12Z</time>
      </trkpt>
      <trkpt lat="49.43131" lon="-1.19116">
        <ele>2.8</ele>
        <time>2022-06-02T10:30:13Z</time>
      </trkpt>
      <trkpt lat="49.4313" lon="-1.19116">
        <ele>2.8</ele>
        <time>2022-06-02T10:30:14Z</time>
      </trkpt>
      <trkpt lat="49.43129" lon="-1.19115">
        <ele>2.8</ele>
        <time>2022-06-02T10:30:15Z</time>
      </trkpt>
      <trkpt lat="49.43129" lon="-1.19115">
        <ele>2.8</ele>
        <time>2022-06-02T10:30:17Z</time>
      </trkpt>
      <trkpt lat="49.43128" lon="-1.19114">
        <ele>2.8</ele>
        <time>2022-06-02T10:30:18Z</time>
      </trkpt>
      <trkpt lat="49.43128" lon="-1.19113">
        <ele>2.8</ele>
        <time>2022-06-02T10:30:19Z</time>
      </trkpt>
      <trkpt lat="49.43127" lon="-1.19112">
        <ele>2.8</ele>
        <time>2022-06-02T10:30:20Z</time>
      </trkpt>
      <trkpt lat="49.43126" lon="-1.19111">
        <ele>2.8</ele>
        <time>2022-06-02T10:30:21Z</time>
      </trkpt>
      <trkpt lat="49.43125" lon="-1.19109">
        <ele>2.8</ele>
        <time>2022-06-02T10:30:22Z</time>
      </trkpt>
      <trkpt lat="49.43125" lon="-1.19109">
        <ele>2.8</ele>
        <time>2022-06-02T10:30:24Z</time>
      </trkpt>
      <trkpt lat="49.43124" lon="-1.19108">
        <ele>2.8</ele>
        <time>2022-06-02T10:30:25Z</time>
      </trkpt>
      <trkpt lat="49.43123" lon="-1.19107">
        <ele>2.8</ele>
        <time>2022-06-02T10:30:26Z</time>
      </trkpt>
      <trkpt lat="49.43122" lon="-1.19105">
        <ele>2.8</ele>
        <time>2022-06-02T10:30:27Z</time>
      </trkpt>
      <trkpt lat="49.43121" lon="-1.19104">
        <ele>2.8</ele>
        <time>2022-06-02T10:30:28Z</time>
      </trkpt>
      <trkpt lat="49.4312" lon="-1.19103">
        <ele>2.8</ele>
        <time>2022-06-02T10:30:29Z</time>
      </trkpt>
      <trkpt lat="49.43119" lon="-1.19101">
        <ele>2.8</ele>
        <time>2022-06-02T10:30:31Z</time>
      </trkpt>
      <trkpt lat="49.43118" lon="-1.191">
        <ele>2.8</ele>
        <time>2022-06-02T10:30:32Z</time>
      </trkpt>
      <trkpt lat="49.43117" lon="-1.191">
        <ele>2.8</ele>
        <time>2022-06-02T10:30:33Z</time>
      </trkpt>
      <trkpt lat="49.43116" lon="-1.19098">
        <ele>2.8</ele>
        <time>2022-06-02T10:30:34Z</time>
      </trkpt>
      <trkpt lat="49.43115" lon="-1.19098">
        <ele>2.8</ele>
        <time>2022-06-02T10:30:35Z</time>
      </trkpt>
      <trkpt lat="49.43114" lon="-1.19097">
        <ele>2.8</ele>
        <time>2022-06-02T10:30:36Z</time>
      </trkpt>
      <trkpt lat="49.43113" lon="-1.19096">
        <ele>2.8</ele>
        <time>2022-06-02T10:30:38Z</time>
      </trkpt>
      <trkpt lat="49.43112" lon="-1.19095">
        <ele>2.8</ele>
        <time>2022-06-02T10:30:39Z</time>
      </trkpt>
      <trkpt lat="49.43112" lon="-1.19093">
        <ele>2.8</ele>
        <time>2022-06-02T10:30:40Z</time>
      </trkpt>
      <trkpt lat="49.43111" lon="-1.19092">
        <ele>2.8</ele>
        <time>2022-06-02T10:30:41Z</time>
      </trkpt>
      <trkpt lat="49.4311" lon="-1.19091">
        <ele>2.8</ele>
        <time>2022-06-02T10:30:42Z</time>
      </trkpt>
      <trkpt lat="49.43109" lon="-1.1909">
        <ele>2.9</ele>
        <time>2022-06-02T10:30:44Z</time>
      </trkpt>
      <trkpt lat="49.43108" lon="-1.19089">
        <ele>2.9</ele>
        <time>2022-06-02T10:30:45Z</time>
      </trkpt>
      <trkpt lat="49.43107" lon="-1.19088">
        <ele>2.9</ele>
        <time>2022-06-02T10:30:46Z</time>
      </trkpt>
      <trkpt lat="49.43107" lon="-1.19087">
        <ele>2.9</ele>
        <time>2022-06-02T10:30:47Z</time>
      </trkpt>
      <trkpt lat="49.43106" lon="-1.19085">
        <ele>3</ele>
        <time>2022-06-02T10:30:48Z</time>
      </trkpt>
      <trkpt lat="49.43105" lon="-1.19083">
        <ele>3</ele>
        <time>2022-06-02T10:30:50Z</time>
      </trkpt>
      <trkpt lat="49.43104" lon="-1.19082">
        <ele>3</ele>
        <time>2022-06-02T10:30:51Z</time>
      </trkpt>
      <trkpt lat="49.43104" lon="-1.1908">
        <ele>3</ele>
        <time>2022-06-02T10:30:52Z</time>
      </trkpt>
      <trkpt lat="49.43103" lon="-1.19079">
        <ele>3</ele>
        <time>2022-06-02T10:30:53Z</time>
      </trkpt>
      <trkpt lat="49.43102" lon="-1.19078">
        <ele>3.1</ele>
        <time>2022-06-02T10:30:55Z</time>
      </trkpt>
      <trkpt lat="49.43101" lon="-1.19078">
        <ele>3.1</ele>
        <time>2022-06-02T10:30:56Z</time>
      </trkpt>
      <trkpt lat="49.431" lon="-1.19077">
        <ele>3.1</ele>
        <time>2022-06-02T10:30:57Z</time>
      </trkpt>
      <trkpt lat="49.43099" lon="-1.19076">
        <ele>3.1</ele>
        <time>2022-06-02T10:30:58Z</time>
      </trkpt>
      <trkpt lat="49.43098" lon="-1.19075">
        <ele>3.1</ele>
        <time>2022-06-02T10:30:59Z</time>
      </trkpt>
      <trkpt lat="49.43097" lon="-1.19074">
        <ele>3.1</ele>
        <time>2022-06-02T10:31:01Z</time>
      </trkpt>
      <trkpt lat="49.43096" lon="-1.19073">
        <ele>3.1</ele>
        <time>2022-06-02T10:31:02Z</time>
      </trkpt>
      <trkpt lat="49.43095" lon="-1.19072">
        <ele>3.1</ele>
        <time>2022-06-02T10:31:03Z</time>
      </trkpt>
      <trkpt lat="49.43095" lon="-1.19072">
        <ele>3.2</ele>
        <time>2022-06-02T10:31:04Z</time>
      </trkpt>
      <trkpt lat="49.43094" lon="-1.19071">
        <ele>3.2</ele>
        <time>2022-06-02T10:31:05Z</time>
      </trkpt>
      <trkpt lat="49.43093" lon="-1.1907">
        <ele>3.2</ele>
        <time>2022-06-02T10:31:07Z</time>
      </trkpt>
      <trkpt lat="49.43092" lon="-1.19069">
        <ele>3.2</ele>
        <time>2022-06-02T10:31:08Z</time>
      </trkpt>
      <trkpt lat="49.43091" lon="-1.19068">
        <ele>3.2</ele>
        <time>2022-06-02T10:31:09Z</time>
      </trkpt>
      <trkpt lat="49.4309" lon="-1.19067">
        <ele>3.2</ele>
        <time>2022-06-02T10:31:10Z</time>
      </trkpt>
      <trkpt lat="49.43089" lon="-1.19066">
        <ele>3.2</ele>
        <time>2022-06-02T10:31:11Z</time>
      </trkpt>
      <trkpt lat="49.43088" lon="-1.19064">
        <ele>3.2</ele>
        <time>2022-06-02T10:31:12Z</time>
      </trkpt>
      <trkpt lat="49.43087" lon="-1.19064">
        <ele>3.3</ele>
        <time>2022-06-02T10:31:14Z</time>
      </trkpt>
      <trkpt lat="49.43086" lon="-1.19063">
        <ele>3.3</ele>
        <time>2022-06-02T10:31:15Z</time>
      </trkpt>
      <trkpt lat="49.43086" lon="-1.19063">
        <ele>3.3</ele>
        <time>2022-06-02T10:31:16Z</time>
      </trkpt>
      <trkpt lat="49.43085" lon="-1.19062">
        <ele>3.3</ele>
        <time>2022-06-02T10:31:17Z</time>
      </trkpt>
      <trkpt lat="49.43084" lon="-1.1906">
        <ele>3.3</ele>
        <time>2022-06-02T10:31:18Z</time>
      </trkpt>
      <trkpt lat="49.43084" lon="-1.19059">
        <ele>3.3</ele>
        <time>2022-06-02T10:31:19Z</time>
      </trkpt>
      <trkpt lat="49.43083" lon="-1.19058">
        <ele>3.3</ele>
        <time>2022-06-02T10:31:21Z</time>
      </trkpt>
      <trkpt lat="49.43082" lon="-1.19057">
        <ele>3.3</ele>
        <time>2022-06-02T10:31:22Z</time>
      </trkpt>
      <trkpt lat="49.43081" lon="-1.19056">
        <ele>3.4</ele>
        <time>2022-06-02T10:31:23Z</time>
      </trkpt>
      <trkpt lat="49.4308" lon="-1.19055">
        <ele>3.4</ele>
        <time>2022-06-02T10:31:24Z</time>
      </trkpt>
      <trkpt lat="49.43079" lon="-1.19054">
        <ele>3.4</ele>
        <time>2022-06-02T10:31:25Z</time>
      </trkpt>
      <trkpt lat="49.43078" lon="-1.19052">
        <ele>3.4</ele>
        <time>2022-06-02T10:31:26Z</time>
      </trkpt>
      <trkpt lat="49.43077" lon="-1.19052">
        <ele>3.4</ele>
        <time>2022-06-02T10:31:28Z</time>
      </trkpt>
      <trkpt lat="49.43076" lon="-1.19051">
        <ele>3.4</ele>
        <time>2022-06-02T10:31:29Z</time>
      </trkpt>
      <trkpt lat="49.43076" lon="-1.19051">
        <ele>3.4</ele>
        <time>2022-06-02T10:31:30Z</time>
      </trkpt>
      <trkpt lat="49.43074" lon="-1.19049">
        <ele>3.4</ele>
        <time>2022-06-02T10:31:31Z</time>
      </trkpt>
      <trkpt lat="49.43073" lon="-1.19048">
        <ele>3.4</ele>
        <time>2022-06-02T10:31:32Z</time>
      </trkpt>
      <trkpt lat="49.43073" lon="-1.19047">
        <ele>3.4</ele>
        <time>2022-06-02T10:31:33Z</time>
      </trkpt>
      <trkpt lat="49.43072" lon="-1.19046">
        <ele>3.4</ele>
        <time>2022-06-02T10:31:35Z</time>
      </trkpt>
      <trkpt lat="49.43071" lon="-1.19044">
        <ele>3.4</ele>
        <time>2022-06-02T10:31:36Z</time>
      </trkpt>
      <trkpt lat="49.43071" lon="-1.19043">
        <ele>3.4</ele>
        <time>2022-06-02T10:31:37Z</time>
      </trkpt>
      <trkpt lat="49.4307" lon="-1.19041">
        <ele>3.4</ele>
        <time>2022-06-02T10:31:38Z</time>
      </trkpt>
      <trkpt lat="49.43069" lon="-1.1904">
        <ele>3.4</ele>
        <time>2022-06-02T10:31:39Z</time>
      </trkpt>
      <trkpt lat="49.43068" lon="-1.19039">
        <ele>3.4</ele>
        <time>2022-06-02T10:31:40Z</time>
      </trkpt>
      <trkpt lat="49.43068" lon="-1.19038">
        <ele>3.4</ele>
        <time>2022-06-02T10:31:41Z</time>
      </trkpt>
      <trkpt lat="49.43067" lon="-1.19036">
        <ele>3.4</ele>
        <time>2022-06-02T10:31:43Z</time>
      </trkpt>
      <trkpt lat="49.43066" lon="-1.19036">
        <ele>3.3</ele>
        <time>2022-06-02T10:31:44Z</time>
      </trkpt>
      <trkpt lat="49.43065" lon="-1.19035">
        <ele>3.3</ele>
        <time>2022-06-02T10:31:45Z</time>
      </trkpt>
      <trkpt lat="49.43064" lon="-1.19034">
        <ele>3.3</ele>
        <time>2022-06-02T10:31:46Z</time>
      </trkpt>
      <trkpt lat="49.43064" lon="-1.19033">
        <ele>3.3</ele>
        <time>2022-06-02T10:31:47Z</time>
      </trkpt>
      <trkpt lat="49.43063" lon="-1.19033">
        <ele>3.3</ele>
        <time>2022-06-02T10:31:49Z</time>
      </trkpt>
      <trkpt lat="49.43062" lon="-1.19032">
        <ele>3.4</ele>
        <time>2022-06-02T10:31:50Z</time>
      </trkpt>
      <trkpt lat="49.43061" lon="-1.19031">
        <ele>3.4</ele>
        <time>2022-06-02T10:31:51Z</time>
      </trkpt>
      <trkpt lat="49.4306" lon="-1.1903">
        <ele>3.4</ele>
        <time>2022-06-02T10:31:52Z</time>
      </trkpt>
      <trkpt lat="49.43059" lon="-1.19029">
        <ele>3.4</ele>
        <time>2022-06-02T10:31:53Z</time>
      </trkpt>
      <trkpt lat="49.43058" lon="-1.19028">
        <ele>3.4</ele>
        <time>2022-06-02T10:31:54Z</time>
      </trkpt>
      <trkpt lat="49.43057" lon="-1.19027">
        <ele>3.4</ele>
        <time>2022-06-02T10:31:56Z</time>
      </trkpt>
      <trkpt lat="49.43056" lon="-1.19027">
        <ele>3.4</ele>
        <time>2022-06-02T10:31:57Z</time>
      </trkpt>
      <trkpt lat="49.43055" lon="-1.19026">
        <ele>3.4</ele>
        <time>2022-06-02T10:31:58Z</time>
      </trkpt>
      <trkpt lat="49.43054" lon="-1.19026">
        <ele>3.4</ele>
        <time>2022-06-02T10:31:59Z</time>
      </trkpt>
      <trkpt lat="49.43052" lon="-1.19024">
        <ele>3.5</ele>
        <time>2022-06-02T10:32:00Z</time>
      </trkpt>
      <trkpt lat="49.43051" lon="-1.19023">
        <ele>3.5</ele>
        <time>2022-06-02T10:32:02Z</time>
      </trkpt>
      <trkpt lat="49.4305" lon="-1.19022">
        <ele>3.5</ele>
        <time>2022-06-02T10:32:03Z</time>
      </trkpt>
      <trkpt lat="49.4305" lon="-1.19021">
        <ele>3.5</ele>
        <time>2022-06-02T10:32:04Z</time>
      </trkpt>
      <trkpt lat="49.43049" lon="-1.1902">
        <ele>3.5</ele>
        <time>2022-06-02T10:32:06Z</time>
      </trkpt>
      <trkpt lat="49.43048" lon="-1.19019">
        <ele>3.6</ele>
        <time>2022-06-02T10:32:07Z</time>
      </trkpt>
      <trkpt lat="49.43047" lon="-1.19018">
        <ele>3.6</ele>
        <time>2022-06-02T10:32:08Z</time>
      </trkpt>
      <trkpt lat="49.43046" lon="-1.19017">
        <ele>3.6</ele>
        <time>2022-06-02T10:32:09Z</time>
      </trkpt>
      <trkpt lat="49.43045" lon="-1.19016">
        <ele>3.7</ele>
        <time>2022-06-02T10:32:10Z</time>
      </trkpt>
      <trkpt lat="49.43043" lon="-1.19014">
        <ele>3.7</ele>
        <time>2022-06-02T10:32:11Z</time>
      </trkpt>
      <trkpt lat="49.43043" lon="-1.19013">
        <ele>3.7</ele>
        <time>2022-06-02T10:32:12Z</time>
      </trkpt>
      <trkpt lat="49.43042" lon="-1.19012">
        <ele>3.8</ele>
        <time>2022-06-02T10:32:14Z</time>
      </trkpt>
      <trkpt lat="49.43041" lon="-1.19011">
        <ele>3.8</ele>
        <time>2022-06-02T10:32:15Z</time>
      </trkpt>
      <trkpt lat="49.4304" lon="-1.1901">
        <ele>3.8</ele>
        <time>2022-06-02T10:32:16Z</time>
      </trkpt>
      <trkpt lat="49.43039" lon="-1.19009">
        <ele>3.8</ele>
        <time>2022-06-02T10:32:17Z</time>
      </trkpt>
      <trkpt lat="49.43039" lon="-1.19008">
        <ele>3.9</ele>
        <time>2022-06-02T10:32:18Z</time>
      </trkpt>
      <trkpt lat="49.43038" lon="-1.19007">
        <ele>3.9</ele>
        <time>2022-06-02T10:32:19Z</time>
      </trkpt>
      <trkpt lat="49.43037" lon="-1.19006">
        <ele>3.9</ele>
        <time>2022-06-02T10:32:20Z</time>
      </trkpt>
      <trkpt lat="49.43036" lon="-1.19005">
        <ele>3.9</ele>
        <time>2022-06-02T10:32:21Z</time>
      </trkpt>
      <trkpt lat="49.43035" lon="-1.19004">
        <ele>4</ele>
        <time>2022-06-02T10:32:23Z</time>
      </trkpt>
      <trkpt lat="49.43034" lon="-1.19003">
        <ele>4</ele>
        <time>2022-06-02T10:32:24Z</time>
      </trkpt>
      <trkpt lat="49.43034" lon="-1.19002">
        <ele>4</ele>
        <time>2022-06-02T10:32:25Z</time>
      </trkpt>
      <trkpt lat="49.43033" lon="-1.19001">
        <ele>4</ele>
        <time>2022-06-02T10:32:26Z</time>
      </trkpt>
      <trkpt lat="49.43032" lon="-1.19">
        <ele>4</ele>
        <time>2022-06-02T10:32:27Z</time>
      </trkpt>
      <trkpt lat="49.43031" lon="-1.18999">
        <ele>4</ele>
        <time>2022-06-02T10:32:28Z</time>
      </trkpt>
      <trkpt lat="49.4303" lon="-1.18998">
        <ele>4</ele>
        <time>2022-06-02T10:32:29Z</time>
      </trkpt>
      <trkpt lat="49.43029" lon="-1.18997">
        <ele>4</ele>
        <time>2022-06-02T10:32:30Z</time>
      </trkpt>
      <trkpt lat="49.43028" lon="-1.18995">
        <ele>4</ele>
        <time>2022-06-02T10:32:32Z</time>
      </trkpt>
      <trkpt lat="49.43027" lon="-1.18995">
        <ele>4</ele>
        <time>2022-06-02T10:32:33Z</time>
      </trkpt>
      <trkpt lat="49.43027" lon="-1.18994">
        <ele>4</ele>
        <time>2022-06-02T10:32:34Z</time>
      </trkpt>
      <trkpt lat="49.43025" lon="-1.18992">
        <ele>4</ele>
        <time>2022-06-02T10:32:35Z</time>
      </trkpt>
      <trkpt lat="49.43024" lon="-1.18991">
        <ele>4</ele>
        <time>2022-06-02T10:32:36Z</time>
      </trkpt>
      <trkpt lat="49.43024" lon="-1.1899">
        <ele>4</ele>
        <time>2022-06-02T10:32:37Z</time>
      </trkpt>
      <trkpt lat="49.43022" lon="-1.18988">
        <ele>4</ele>
        <time>2022-06-02T10:32:39Z</time>
      </trkpt>
      <trkpt lat="49.43021" lon="-1.18987">
        <ele>4</ele>
        <time>2022-06-02T10:32:40Z</time>
      </trkpt>
      <trkpt lat="49.43021" lon="-1.18986">
        <ele>4</ele>
        <time>2022-06-02T10:32:41Z</time>
      </trkpt>
      <trkpt lat="49.4302" lon="-1.18986">
        <ele>4</ele>
        <time>2022-06-02T10:32:42Z</time>
      </trkpt>
      <trkpt lat="49.4302" lon="-1.18984">
        <ele>3.9</ele>
        <time>2022-06-02T10:32:43Z</time>
      </trkpt>
      <trkpt lat="49.43019" lon="-1.18983">
        <ele>3.9</ele>
        <time>2022-06-02T10:32:44Z</time>
      </trkpt>
      <trkpt lat="49.43018" lon="-1.18982">
        <ele>3.9</ele>
        <time>2022-06-02T10:32:45Z</time>
      </trkpt>
      <trkpt lat="49.43017" lon="-1.18981">
        <ele>3.9</ele>
        <time>2022-06-02T10:32:47Z</time>
      </trkpt>
      <trkpt lat="49.43016" lon="-1.1898">
        <ele>3.9</ele>
        <time>2022-06-02T10:32:48Z</time>
      </trkpt>
      <trkpt lat="49.43015" lon="-1.18978">
        <ele>3.9</ele>
        <time>2022-06-02T10:32:49Z</time>
      </trkpt>
      <trkpt lat="49.43014" lon="-1.18977">
        <ele>3.9</ele>
        <time>2022-06-02T10:32:50Z</time>
      </trkpt>
      <trkpt lat="49.43013" lon="-1.18976">
        <ele>3.9</ele>
        <time>2022-06-02T10:32:51Z</time>
      </trkpt>
      <trkpt lat="49.43013" lon="-1.18974">
        <ele>3.9</ele>
        <time>2022-06-02T10:32:52Z</time>
      </trkpt>
      <trkpt lat="49.43012" lon="-1.18973">
        <ele>3.9</ele>
        <time>2022-06-02T10:32:54Z</time>
      </trkpt>
      <trkpt lat="49.43011" lon="-1.18972">
        <ele>3.9</ele>
        <time>2022-06-02T10:32:55Z</time>
      </trkpt>
      <trkpt lat="49.43011" lon="-1.18971">
        <ele>3.9</ele>
        <time>2022-06-02T10:32:56Z</time>
      </trkpt>
      <trkpt lat="49.43009" lon="-1.18969">
        <ele>3.9</ele>
        <time>2022-06-02T10:32:58Z</time>
      </trkpt>
      <trkpt lat="49.43008" lon="-1.18968">
        <ele>3.9</ele>
        <time>2022-06-02T10:32:59Z</time>
      </trkpt>
      <trkpt lat="49.43007" lon="-1.18967">
        <ele>4</ele>
        <time>2022-06-02T10:33:00Z</time>
      </trkpt>
      <trkpt lat="49.43006" lon="-1.18966">
        <ele>4</ele>
        <time>2022-06-02T10:33:01Z</time>
      </trkpt>
      <trkpt lat="49.43006" lon="-1.18965">
        <ele>4</ele>
        <time>2022-06-02T10:33:02Z</time>
      </trkpt>
      <trkpt lat="49.43005" lon="-1.18964">
        <ele>4</ele>
        <time>2022-06-02T10:33:03Z</time>
      </trkpt>
      <trkpt lat="49.43004" lon="-1.18963">
        <ele>4</ele>
        <time>2022-06-02T10:33:04Z</time>
      </trkpt>
      <trkpt lat="49.43002" lon="-1.1896">
        <ele>4.1</ele>
        <time>2022-06-02T10:33:06Z</time>
      </trkpt>
      <trkpt lat="49.43001" lon="-1.1896">
        <ele>4.1</ele>
        <time>2022-06-02T10:33:07Z</time>
      </trkpt>
      <trkpt lat="49.43001" lon="-1.18959">
        <ele>4.1</ele>
        <time>2022-06-02T10:33:08Z</time>
      </trkpt>
      <trkpt lat="49.43" lon="-1.18958">
        <ele>4.1</ele>
        <time>2022-06-02T10:33:09Z</time>
      </trkpt>
      <trkpt lat="49.42999" lon="-1.18957">
        <ele>4.1</ele>
        <time>2022-06-02T10:33:10Z</time>
      </trkpt>
      <trkpt lat="49.42998" lon="-1.18956">
        <ele>4.2</ele>
        <time>2022-06-02T10:33:11Z</time>
      </trkpt>
      <trkpt lat="49.42996" lon="-1.18954">
        <ele>4.2</ele>
        <time>2022-06-02T10:33:12Z</time>
      </trkpt>
      <trkpt lat="49.42995" lon="-1.18953">
        <ele>4.2</ele>
        <time>2022-06-02T10:33:14Z</time>
      </trkpt>
      <trkpt lat="49.42995" lon="-1.18953">
        <ele>4.2</ele>
        <time>2022-06-02T10:33:15Z</time>
      </trkpt>
      <trkpt lat="49.42994" lon="-1.18952">
        <ele>4.3</ele>
        <time>2022-06-02T10:33:16Z</time>
      </trkpt>
      <trkpt lat="49.42993" lon="-1.18951">
        <ele>4.3</ele>
        <time>2022-06-02T10:33:17Z</time>
      </trkpt>
      <trkpt lat="49.42992" lon="-1.1895">
        <ele>4.3</ele>
        <time>2022-06-02T10:33:18Z</time>
      </trkpt>
      <trkpt lat="49.42991" lon="-1.18949">
        <ele>4.3</ele>
        <time>2022-06-02T10:33:19Z</time>
      </trkpt>
      <trkpt lat="49.4299" lon="-1.18948">
        <ele>4.3</ele>
        <time>2022-06-02T10:33:20Z</time>
      </trkpt>
      <trkpt lat="49.4299" lon="-1.18947">
        <ele>4.4</ele>
        <time>2022-06-02T10:33:22Z</time>
      </trkpt>
      <trkpt lat="49.42989" lon="-1.18946">
        <ele>4.4</ele>
        <time>2022-06-02T10:33:23Z</time>
      </trkpt>
      <trkpt lat="49.42988" lon="-1.18945">
        <ele>4.4</ele>
        <time>2022-06-02T10:33:24Z</time>
      </trkpt>
      <trkpt lat="49.42987" lon="-1.18944">
        <ele>4.4</ele>
        <time>2022-06-02T10:33:25Z</time>
      </trkpt>
      <trkpt lat="49.42987" lon="-1.18942">
        <ele>4.4</ele>
        <time>2022-06-02T10:33:26Z</time>
      </trkpt>
      <trkpt lat="49.42986" lon="-1.18941">
        <ele>4.4</ele>
        <time>2022-06-02T10:33:28Z</time>
      </trkpt>
      <trkpt lat="49.42985" lon="-1.1894">
        <ele>4.5</ele>
        <time>2022-06-02T10:33:29Z</time>
      </trkpt>
      <trkpt lat="49.42984" lon="-1.18939">
        <ele>4.5</ele>
        <time>2022-06-02T10:33:30Z</time>
      </trkpt>
      <trkpt lat="49.42983" lon="-1.18939">
        <ele>4.5</ele>
        <time>2022-06-02T10:33:31Z</time>
      </trkpt>
      <trkpt lat="49.42982" lon="-1.18938">
        <ele>4.5</ele>
        <time>2022-06-02T10:33:32Z</time>
      </trkpt>
      <trkpt lat="49.42981" lon="-1.18937">
        <ele>4.5</ele>
        <time>2022-06-02T10:33:33Z</time>
      </trkpt>
      <trkpt lat="49.4298" lon="-1.18936">
        <ele>4.6</ele>
        <time>2022-06-02T10:33:35Z</time>
      </trkpt>
      <trkpt lat="49.42979" lon="-1.18936">
        <ele>4.6</ele>
        <time>2022-06-02T10:33:36Z</time>
      </trkpt>
      <trkpt lat="49.42978" lon="-1.18935">
        <ele>4.6</ele>
        <time>2022-06-02T10:33:37Z</time>
      </trkpt>
      <trkpt lat="49.42978" lon="-1.18934">
        <ele>4.6</ele>
        <time>2022-06-02T10:33:38Z</time>
      </trkpt>
      <trkpt lat="49.42977" lon="-1.18933">
        <ele>4.6</ele>
        <time>2022-06-02T10:33:39Z</time>
      </trkpt>
      <trkpt lat="49.42976" lon="-1.18932">
        <ele>4.6</ele>
        <time>2022-06-02T10:33:40Z</time>
      </trkpt>
      <trkpt lat="49.42975" lon="-1.18931">
        <ele>4.6</ele>
        <time>2022-06-02T10:33:42Z</time>
      </trkpt>
      <trkpt lat="49.42974" lon="-1.1893">
        <ele>4.6</ele>
        <time>2022-06-02T10:33:43Z</time>
      </trkpt>
      <trkpt lat="49.42974" lon="-1.1893">
        <ele>4.6</ele>
        <time>2022-06-02T10:33:44Z</time>
      </trkpt>
      <trkpt lat="49.42973" lon="-1.18929">
        <ele>4.6</ele>
        <time>2022-06-02T10:33:45Z</time>
      </trkpt>
      <trkpt lat="49.42972" lon="-1.18927">
        <ele>4.6</ele>
        <time>2022-06-02T10:33:46Z</time>
      </trkpt>
      <trkpt lat="49.42971" lon="-1.18926">
        <ele>4.6</ele>
        <time>2022-06-02T10:33:48Z</time>
      </trkpt>
      <trkpt lat="49.42971" lon="-1.18924">
        <ele>4.5</ele>
        <time>2022-06-02T10:33:49Z</time>
      </trkpt>
      <trkpt lat="49.4297" lon="-1.18924">
        <ele>4.5</ele>
        <time>2022-06-02T10:33:50Z</time>
      </trkpt>
      <trkpt lat="49.42969" lon="-1.18923">
        <ele>4.5</ele>
        <time>2022-06-02T10:33:51Z</time>
      </trkpt>
      <trkpt lat="49.42969" lon="-1.18923">
        <ele>4.5</ele>
        <time>2022-06-02T10:33:52Z</time>
      </trkpt>
      <trkpt lat="49.42969" lon="-1.18923">
        <ele>4.5</ele>
        <time>2022-06-02T10:33:54Z</time>
      </trkpt>
      <trkpt lat="49.42969" lon="-1.18923">
        <ele>4.5</ele>
        <time>2022-06-02T10:33:55Z</time>
      </trkpt>
      <trkpt lat="49.42969" lon="-1.18923">
        <ele>4.5</ele>
        <time>2022-06-02T10:33:56Z</time>
      </trkpt>
      <trkpt lat="49.42969" lon="-1.18923">
        <ele>4.5</ele>
        <time>2022-06-02T10:33:57Z</time>
      </trkpt>
      <trkpt lat="49.42969" lon="-1.18923">
        <ele>4.5</ele>
        <time>2022-06-02T10:33:59Z</time>
      </trkpt>
      <trkpt lat="49.42969" lon="-1.18923">
        <ele>4.5</ele>
        <time>2022-06-02T10:34:00Z</time>
      </trkpt>
      <trkpt lat="49.42969" lon="-1.18923">
        <ele>4.5</ele>
        <time>2022-06-02T10:34:01Z</time>
      </trkpt>
      <trkpt lat="49.42969" lon="-1.18923">
        <ele>4.5</ele>
        <time>2022-06-02T10:34:02Z</time>
      </trkpt>
      <trkpt lat="49.42969" lon="-1.18923">
        <ele>4.5</ele>
        <time>2022-06-02T10:34:03Z</time>
      </trkpt>
      <trkpt lat="49.42969" lon="-1.18924">
        <ele>4.5</ele>
        <time>2022-06-02T10:34:04Z</time>
      </trkpt>
      <trkpt lat="49.42969" lon="-1.18924">
        <ele>4.5</ele>
        <time>2022-06-02T10:34:05Z</time>
      </trkpt>
      <trkpt lat="49.42969" lon="-1.18924">
        <ele>4.5</ele>
        <time>2022-06-02T10:34:06Z</time>
      </trkpt>
      <trkpt lat="49.42969" lon="-1.18924">
        <ele>4.5</ele>
        <time>2022-06-02T10:34:07Z</time>
      </trkpt>
      <trkpt lat="49.42969" lon="-1.18924">
        <ele>4.5</ele>
        <time>2022-06-02T10:34:08Z</time>
      </trkpt>
      <trkpt lat="49.42969" lon="-1.18924">
        <ele>4.5</ele>
        <time>2022-06-02T10:34:09Z</time>
      </trkpt>
      <trkpt lat="49.42969" lon="-1.18924">
        <ele>4.5</ele>
        <time>2022-06-02T10:34:10Z</time>
      </trkpt>
      <trkpt lat="49.42969" lon="-1.18924">
        <ele>4.5</ele>
        <time>2022-06-02T10:34:11Z</time>
      </trkpt>
      <trkpt lat="49.42969" lon="-1.18924">
        <ele>4.5</ele>
        <time>2022-06-02T10:34:12Z</time>
      </trkpt>
      <trkpt lat="49.4297" lon="-1.18924">
        <ele>4.5</ele>
        <time>2022-06-02T10:34:13Z</time>
      </trkpt>
      <trkpt lat="49.4297" lon="-1.18924">
        <ele>4.5</ele>
        <time>2022-06-02T10:34:14Z</time>
      </trkpt>
      <trkpt lat="49.4297" lon="-1.18924">
        <ele>4.5</ele>
        <time>2022-06-02T10:34:15Z</time>
      </trkpt>
      <trkpt lat="49.4297" lon="-1.18924">
        <ele>4.5</ele>
        <time>2022-06-02T10:34:16Z</time>
      </trkpt>
      <trkpt lat="49.4297" lon="-1.18924">
        <ele>4.5</ele>
        <time>2022-06-02T10:34:17Z</time>
      </trkpt>
      <trkpt lat="49.4297" lon="-1.18924">
        <ele>4.5</ele>
        <time>2022-06-02T10:34:18Z</time>
      </trkpt>
      <trkpt lat="49.4297" lon="-1.18924">
        <ele>4.5</ele>
        <time>2022-06-02T10:34:19Z</time>
      </trkpt>
      <trkpt lat="49.4297" lon="-1.18925">
        <ele>4.5</ele>
        <time>2022-06-02T10:34:20Z</time>
      </trkpt>
      <trkpt lat="49.4297" lon="-1.18925">
        <ele>4.5</ele>
        <time>2022-06-02T10:34:21Z</time>
      </trkpt>
      <trkpt lat="49.4297" lon="-1.18925">
        <ele>4.5</ele>
        <time>2022-06-02T10:34:22Z</time>
      </trkpt>
      <trkpt lat="49.4297" lon="-1.18925">
        <ele>4.5</ele>
        <time>2022-06-02T10:34:23Z</time>
      </trkpt>
      <trkpt lat="49.4297" lon="-1.18925">
        <ele>4.5</ele>
        <time>2022-06-02T10:34:24Z</time>
      </trkpt>
      <trkpt lat="49.42971" lon="-1.18924">
        <ele>4.5</ele>
        <time>2022-06-02T10:34:25Z</time>
      </trkpt>
      <trkpt lat="49.4297" lon="-1.18925">
        <ele>4.4</ele>
        <time>2022-06-02T10:34:26Z</time>
      </trkpt>
      <trkpt lat="49.4297" lon="-1.18925">
        <ele>4.4</ele>
        <time>2022-06-02T10:34:27Z</time>
      </trkpt>
      <trkpt lat="49.4297" lon="-1.18926">
        <ele>4.4</ele>
        <time>2022-06-02T10:34:28Z</time>
      </trkpt>
      <trkpt lat="49.42971" lon="-1.18926">
        <ele>4.4</ele>
        <time>2022-06-02T10:34:29Z</time>
      </trkpt>
      <trkpt lat="49.42971" lon="-1.18926">
        <ele>4.4</ele>
        <time>2022-06-02T10:34:30Z</time>
      </trkpt>
      <trkpt lat="49.42971" lon="-1.18926">
        <ele>4.4</ele>
        <time>2022-06-02T10:34:31Z</time>
      </trkpt>
      <trkpt lat="49.42971" lon="-1.18926">
        <ele>4.4</ele>
        <time>2022-06-02T10:34:32Z</time>
      </trkpt>
      <trkpt lat="49.42971" lon="-1.18926">
        <ele>4.4</ele>
        <time>2022-06-02T10:34:34Z</time>
      </trkpt>
      <trkpt lat="49.42971" lon="-1.18926">
        <ele>4.4</ele>
        <time>2022-06-02T10:34:35Z</time>
      </trkpt>
      <trkpt lat="49.42971" lon="-1.18926">
        <ele>4.4</ele>
        <time>2022-06-02T10:34:36Z</time>
      </trkpt>
      <trkpt lat="49.4297" lon="-1.18925">
        <ele>4.4</ele>
        <time>2022-06-02T10:34:37Z</time>
      </trkpt>
      <trkpt lat="49.42969" lon="-1.18924">
        <ele>4.4</ele>
        <time>2022-06-02T10:34:38Z</time>
      </trkpt>
      <trkpt lat="49.42968" lon="-1.18922">
        <ele>4.3</ele>
        <time>2022-06-02T10:34:39Z</time>
      </trkpt>
      <trkpt lat="49.42968" lon="-1.18921">
        <ele>4.3</ele>
        <time>2022-06-02T10:34:40Z</time>
      </trkpt>
      <trkpt lat="49.42967" lon="-1.18919">
        <ele>4.3</ele>
        <time>2022-06-02T10:34:42Z</time>
      </trkpt>
      <trkpt lat="49.42966" lon="-1.18918">
        <ele>4.3</ele>
        <time>2022-06-02T10:34:43Z</time>
      </trkpt>
      <trkpt lat="49.42965" lon="-1.18915">
        <ele>4.2</ele>
        <time>2022-06-02T10:34:45Z</time>
      </trkpt>
      <trkpt lat="49.42964" lon="-1.18913">
        <ele>4.2</ele>
        <time>2022-06-02T10:34:46Z</time>
      </trkpt>
      <trkpt lat="49.42963" lon="-1.18911">
        <ele>4.2</ele>
        <time>2022-06-02T10:34:47Z</time>
      </trkpt>
      <trkpt lat="49.42962" lon="-1.18908">
        <ele>4.2</ele>
        <time>2022-06-02T10:34:48Z</time>
      </trkpt>
      <trkpt lat="49.42961" lon="-1.18907">
        <ele>4.1</ele>
        <time>2022-06-02T10:34:50Z</time>
      </trkpt>
      <trkpt lat="49.42961" lon="-1.18906">
        <ele>4.1</ele>
        <time>2022-06-02T10:34:51Z</time>
      </trkpt>
      <trkpt lat="49.4296" lon="-1.18904">
        <ele>4.1</ele>
        <time>2022-06-02T10:34:52Z</time>
      </trkpt>
      <trkpt lat="49.4296" lon="-1.18903">
        <ele>4.1</ele>
        <time>2022-06-02T10:34:53Z</time>
      </trkpt>
      <trkpt lat="49.42959" lon="-1.18902">
        <ele>4.1</ele>
        <time>2022-06-02T10:34:54Z</time>
      </trkpt>
      <trkpt lat="49.42958" lon="-1.18899">
        <ele>4.1</ele>
        <time>2022-06-02T10:34:55Z</time>
      </trkpt>
      <trkpt lat="49.42957" lon="-1.18898">
        <ele>4.1</ele>
        <time>2022-06-02T10:34:57Z</time>
      </trkpt>
      <trkpt lat="49.42956" lon="-1.18897">
        <ele>4.1</ele>
        <time>2022-06-02T10:34:58Z</time>
      </trkpt>
      <trkpt lat="49.42955" lon="-1.18896">
        <ele>4.1</ele>
        <time>2022-06-02T10:34:59Z</time>
      </trkpt>
      <trkpt lat="49.42954" lon="-1.18895">
        <ele>4.1</ele>
        <time>2022-06-02T10:35:00Z</time>
      </trkpt>
      <trkpt lat="49.42953" lon="-1.18893">
        <ele>4.1</ele>
        <time>2022-06-02T10:35:01Z</time>
      </trkpt>
      <trkpt lat="49.42952" lon="-1.18892">
        <ele>4.1</ele>
        <time>2022-06-02T10:35:02Z</time>
      </trkpt>
      <trkpt lat="49.4295" lon="-1.1889">
        <ele>4.1</ele>
        <time>2022-06-02T10:35:04Z</time>
      </trkpt>
      <trkpt lat="49.42949" lon="-1.18889">
        <ele>4.1</ele>
        <time>2022-06-02T10:35:05Z</time>
      </trkpt>
      <trkpt lat="49.42949" lon="-1.18888">
        <ele>4.1</ele>
        <time>2022-06-02T10:35:06Z</time>
      </trkpt>
      <trkpt lat="49.42948" lon="-1.18886">
        <ele>4.1</ele>
        <time>2022-06-02T10:35:07Z</time>
      </trkpt>
      <trkpt lat="49.42946" lon="-1.18885">
        <ele>4.1</ele>
        <time>2022-06-02T10:35:08Z</time>
      </trkpt>
      <trkpt lat="49.42944" lon="-1.18882">
        <ele>4.1</ele>
        <time>2022-06-02T10:35:09Z</time>
      </trkpt>
      <trkpt lat="49.42943" lon="-1.18881">
        <ele>4.1</ele>
        <time>2022-06-02T10:35:11Z</time>
      </trkpt>
      <trkpt lat="49.42943" lon="-1.1888">
        <ele>4.1</ele>
        <time>2022-06-02T10:35:12Z</time>
      </trkpt>
      <trkpt lat="49.42942" lon="-1.1888">
        <ele>4.1</ele>
        <time>2022-06-02T10:35:13Z</time>
      </trkpt>
      <trkpt lat="49.42941" lon="-1.18879">
        <ele>4.1</ele>
        <time>2022-06-02T10:35:14Z</time>
      </trkpt>
      <trkpt lat="49.4294" lon="-1.18878">
        <ele>4.1</ele>
        <time>2022-06-02T10:35:15Z</time>
      </trkpt>
      <trkpt lat="49.42939" lon="-1.18876">
        <ele>4.1</ele>
        <time>2022-06-02T10:35:16Z</time>
      </trkpt>
      <trkpt lat="49.42938" lon="-1.18875">
        <ele>4.1</ele>
        <time>2022-06-02T10:35:18Z</time>
      </trkpt>
      <trkpt lat="49.42937" lon="-1.18873">
        <ele>4.1</ele>
        <time>2022-06-02T10:35:19Z</time>
      </trkpt>
      <trkpt lat="49.42936" lon="-1.18872">
        <ele>4.1</ele>
        <time>2022-06-02T10:35:20Z</time>
      </trkpt>
      <trkpt lat="49.42935" lon="-1.18871">
        <ele>4.1</ele>
        <time>2022-06-02T10:35:21Z</time>
      </trkpt>
      <trkpt lat="49.42934" lon="-1.1887">
        <ele>4.2</ele>
        <time>2022-06-02T10:35:22Z</time>
      </trkpt>
      <trkpt lat="49.42933" lon="-1.1887">
        <ele>4.2</ele>
        <time>2022-06-02T10:35:23Z</time>
      </trkpt>
      <trkpt lat="49.42933" lon="-1.18871">
        <ele>4.2</ele>
        <time>2022-06-02T10:35:25Z</time>
      </trkpt>
      <trkpt lat="49.42932" lon="-1.1887">
        <ele>4.2</ele>
        <time>2022-06-02T10:35:26Z</time>
      </trkpt>
      <trkpt lat="49.42931" lon="-1.1887">
        <ele>4.2</ele>
        <time>2022-06-02T10:35:27Z</time>
      </trkpt>
      <trkpt lat="49.4293" lon="-1.18869">
        <ele>4.2</ele>
        <time>2022-06-02T10:35:28Z</time>
      </trkpt>
      <trkpt lat="49.42929" lon="-1.18868">
        <ele>4.3</ele>
        <time>2022-06-02T10:35:29Z</time>
      </trkpt>
      <trkpt lat="49.42928" lon="-1.18867">
        <ele>4.3</ele>
        <time>2022-06-02T10:35:30Z</time>
      </trkpt>
      <trkpt lat="49.42927" lon="-1.18866">
        <ele>4.3</ele>
        <time>2022-06-02T10:35:32Z</time>
      </trkpt>
      <trkpt lat="49.42926" lon="-1.18865">
        <ele>4.3</ele>
        <time>2022-06-02T10:35:33Z</time>
      </trkpt>
      <trkpt lat="49.42926" lon="-1.18864">
        <ele>4.3</ele>
        <time>2022-06-02T10:35:34Z</time>
      </trkpt>
      <trkpt lat="49.42925" lon="-1.18864">
        <ele>4.3</ele>
        <time>2022-06-02T10:35:35Z</time>
      </trkpt>
      <trkpt lat="49.42924" lon="-1.18863">
        <ele>4.3</ele>
        <time>2022-06-02T10:35:36Z</time>
      </trkpt>
      <trkpt lat="49.42923" lon="-1.18861">
        <ele>4.3</ele>
        <time>2022-06-02T10:35:38Z</time>
      </trkpt>
      <trkpt lat="49.42922" lon="-1.18861">
        <ele>4.3</ele>
        <time>2022-06-02T10:35:39Z</time>
      </trkpt>
      <trkpt lat="49.42921" lon="-1.1886">
        <ele>4.3</ele>
        <time>2022-06-02T10:35:40Z</time>
      </trkpt>
      <trkpt lat="49.42921" lon="-1.18859">
        <ele>4.3</ele>
        <time>2022-06-02T10:35:42Z</time>
      </trkpt>
      <trkpt lat="49.4292" lon="-1.18858">
        <ele>4.3</ele>
        <time>2022-06-02T10:35:43Z</time>
      </trkpt>
      <trkpt lat="49.4292" lon="-1.18856">
        <ele>4.3</ele>
        <time>2022-06-02T10:35:44Z</time>
      </trkpt>
      <trkpt lat="49.42919" lon="-1.18855">
        <ele>4.3</ele>
        <time>2022-06-02T10:35:45Z</time>
      </trkpt>
      <trkpt lat="49.42919" lon="-1.18854">
        <ele>4.3</ele>
        <time>2022-06-02T10:35:46Z</time>
      </trkpt>
      <trkpt lat="49.42919" lon="-1.18854">
        <ele>4.3</ele>
        <time>2022-06-02T10:35:47Z</time>
      </trkpt>
      <trkpt lat="49.42918" lon="-1.18853">
        <ele>4.3</ele>
        <time>2022-06-02T10:35:48Z</time>
      </trkpt>
      <trkpt lat="49.42917" lon="-1.1885">
        <ele>4.3</ele>
        <time>2022-06-02T10:35:49Z</time>
      </trkpt>
      <trkpt lat="49.42917" lon="-1.18849">
        <ele>4.3</ele>
        <time>2022-06-02T10:35:50Z</time>
      </trkpt>
      <trkpt lat="49.42916" lon="-1.18848">
        <ele>4.3</ele>
        <time>2022-06-02T10:35:51Z</time>
      </trkpt>
      <trkpt lat="49.42915" lon="-1.18847">
        <ele>4.3</ele>
        <time>2022-06-02T10:35:53Z</time>
      </trkpt>
      <trkpt lat="49.42914" lon="-1.18846">
        <ele>4.3</ele>
        <time>2022-06-02T10:35:54Z</time>
      </trkpt>
      <trkpt lat="49.42913" lon="-1.18845">
        <ele>4.3</ele>
        <time>2022-06-02T10:35:55Z</time>
      </trkpt>
      <trkpt lat="49.42912" lon="-1.18844">
        <ele>4.4</ele>
        <time>2022-06-02T10:35:56Z</time>
      </trkpt>
      <trkpt lat="49.42911" lon="-1.18843">
        <ele>4.4</ele>
        <time>2022-06-02T10:35:57Z</time>
      </trkpt>
      <trkpt lat="49.4291" lon="-1.18842">
        <ele>4.4</ele>
        <time>2022-06-02T10:35:58Z</time>
      </trkpt>
      <trkpt lat="49.42908" lon="-1.18841">
        <ele>4.4</ele>
        <time>2022-06-02T10:36:00Z</time>
      </trkpt>
      <trkpt lat="49.42907" lon="-1.18839">
        <ele>4.4</ele>
        <time>2022-06-02T10:36:01Z</time>
      </trkpt>
      <trkpt lat="49.42906" lon="-1.18838">
        <ele>4.4</ele>
        <time>2022-06-02T10:36:02Z</time>
      </trkpt>
      <trkpt lat="49.42905" lon="-1.18838">
        <ele>4.5</ele>
        <time>2022-06-02T10:36:03Z</time>
      </trkpt>
      <trkpt lat="49.42904" lon="-1.18837">
        <ele>4.5</ele>
        <time>2022-06-02T10:36:04Z</time>
      </trkpt>
      <trkpt lat="49.42903" lon="-1.18836">
        <ele>4.5</ele>
        <time>2022-06-02T10:36:05Z</time>
      </trkpt>
      <trkpt lat="49.42902" lon="-1.18835">
        <ele>4.5</ele>
        <time>2022-06-02T10:36:07Z</time>
      </trkpt>
      <trkpt lat="49.42901" lon="-1.18833">
        <ele>4.5</ele>
        <time>2022-06-02T10:36:08Z</time>
      </trkpt>
      <trkpt lat="49.429" lon="-1.18832">
        <ele>4.5</ele>
        <time>2022-06-02T10:36:09Z</time>
      </trkpt>
      <trkpt lat="49.429" lon="-1.18831">
        <ele>4.5</ele>
        <time>2022-06-02T10:36:10Z</time>
      </trkpt>
      <trkpt lat="49.42899" lon="-1.1883">
        <ele>4.5</ele>
        <time>2022-06-02T10:36:11Z</time>
      </trkpt>
      <trkpt lat="49.42898" lon="-1.18829">
        <ele>4.5</ele>
        <time>2022-06-02T10:36:12Z</time>
      </trkpt>
      <trkpt lat="49.42897" lon="-1.18828">
        <ele>4.5</ele>
        <time>2022-06-02T10:36:13Z</time>
      </trkpt>
      <trkpt lat="49.42896" lon="-1.18827">
        <ele>4.5</ele>
        <time>2022-06-02T10:36:15Z</time>
      </trkpt>
      <trkpt lat="49.42895" lon="-1.18826">
        <ele>4.5</ele>
        <time>2022-06-02T10:36:16Z</time>
      </trkpt>
      <trkpt lat="49.42895" lon="-1.18825">
        <ele>4.5</ele>
        <time>2022-06-02T10:36:17Z</time>
      </trkpt>
      <trkpt lat="49.42894" lon="-1.18822">
        <ele>4.5</ele>
        <time>2022-06-02T10:36:18Z</time>
      </trkpt>
      <trkpt lat="49.42893" lon="-1.18821">
        <ele>4.4</ele>
        <time>2022-06-02T10:36:19Z</time>
      </trkpt>
      <trkpt lat="49.42892" lon="-1.18821">
        <ele>4.4</ele>
        <time>2022-06-02T10:36:20Z</time>
      </trkpt>
      <trkpt lat="49.42891" lon="-1.18819">
        <ele>4.4</ele>
        <time>2022-06-02T10:36:22Z</time>
      </trkpt>
      <trkpt lat="49.4289" lon="-1.18819">
        <ele>4.4</ele>
        <time>2022-06-02T10:36:23Z</time>
      </trkpt>
      <trkpt lat="49.4289" lon="-1.18819">
        <ele>4.3</ele>
        <time>2022-06-02T10:36:24Z</time>
      </trkpt>
      <trkpt lat="49.42889" lon="-1.18819">
        <ele>4.3</ele>
        <time>2022-06-02T10:36:25Z</time>
      </trkpt>
      <trkpt lat="49.42888" lon="-1.18818">
        <ele>4.3</ele>
        <time>2022-06-02T10:36:26Z</time>
      </trkpt>
      <trkpt lat="49.42887" lon="-1.18817">
        <ele>4.2</ele>
        <time>2022-06-02T10:36:27Z</time>
      </trkpt>
      <trkpt lat="49.42887" lon="-1.18816">
        <ele>4.2</ele>
        <time>2022-06-02T10:36:29Z</time>
      </trkpt>
      <trkpt lat="49.42885" lon="-1.18815">
        <ele>4.1</ele>
        <time>2022-06-02T10:36:30Z</time>
      </trkpt>
      <trkpt lat="49.42885" lon="-1.18814">
        <ele>4.1</ele>
        <time>2022-06-02T10:36:31Z</time>
      </trkpt>
      <trkpt lat="49.42885" lon="-1.18813">
        <ele>4.1</ele>
        <time>2022-06-02T10:36:32Z</time>
      </trkpt>
      <trkpt lat="49.42884" lon="-1.18812">
        <ele>4</ele>
        <time>2022-06-02T10:36:33Z</time>
      </trkpt>
      <trkpt lat="49.42884" lon="-1.1881">
        <ele>4</ele>
        <time>2022-06-02T10:36:34Z</time>
      </trkpt>
      <trkpt lat="49.42883" lon="-1.18809">
        <ele>3.9</ele>
        <time>2022-06-02T10:36:36Z</time>
      </trkpt>
      <trkpt lat="49.42883" lon="-1.18809">
        <ele>3.9</ele>
        <time>2022-06-02T10:36:37Z</time>
      </trkpt>
      <trkpt lat="49.42882" lon="-1.18808">
        <ele>3.9</ele>
        <time>2022-06-02T10:36:38Z</time>
      </trkpt>
      <trkpt lat="49.42881" lon="-1.18806">
        <ele>3.8</ele>
        <time>2022-06-02T10:36:39Z</time>
      </trkpt>
      <trkpt lat="49.4288" lon="-1.18806">
        <ele>3.8</ele>
        <time>2022-06-02T10:36:40Z</time>
      </trkpt>
      <trkpt lat="49.42879" lon="-1.18805">
        <ele>3.8</ele>
        <time>2022-06-02T10:36:41Z</time>
      </trkpt>
      <trkpt lat="49.42879" lon="-1.18804">
        <ele>3.8</ele>
        <time>2022-06-02T10:36:42Z</time>
      </trkpt>
      <trkpt lat="49.42877" lon="-1.18804">
        <ele>3.7</ele>
        <time>2022-06-02T10:36:44Z</time>
      </trkpt>
      <trkpt lat="49.42876" lon="-1.18803">
        <ele>3.7</ele>
        <time>2022-06-02T10:36:45Z</time>
      </trkpt>
      <trkpt lat="49.42875" lon="-1.18803">
        <ele>3.7</ele>
        <time>2022-06-02T10:36:46Z</time>
      </trkpt>
      <trkpt lat="49.42874" lon="-1.18802">
        <ele>3.7</ele>
        <time>2022-06-02T10:36:47Z</time>
      </trkpt>
      <trkpt lat="49.42873" lon="-1.18801">
        <ele>3.7</ele>
        <time>2022-06-02T10:36:48Z</time>
      </trkpt>
      <trkpt lat="49.42872" lon="-1.18799">
        <ele>3.7</ele>
        <time>2022-06-02T10:36:50Z</time>
      </trkpt>
      <trkpt lat="49.42871" lon="-1.18798">
        <ele>3.7</ele>
        <time>2022-06-02T10:36:51Z</time>
      </trkpt>
      <trkpt lat="49.4287" lon="-1.18797">
        <ele>3.7</ele>
        <time>2022-06-02T10:36:52Z</time>
      </trkpt>
      <trkpt lat="49.42869" lon="-1.18796">
        <ele>3.7</ele>
        <time>2022-06-02T10:36:53Z</time>
      </trkpt>
      <trkpt lat="49.42868" lon="-1.18795">
        <ele>3.7</ele>
        <time>2022-06-02T10:36:55Z</time>
      </trkpt>
      <trkpt lat="49.42867" lon="-1.18794">
        <ele>3.7</ele>
        <time>2022-06-02T10:36:56Z</time>
      </trkpt>
      <trkpt lat="49.42866" lon="-1.18793">
        <ele>3.7</ele>
        <time>2022-06-02T10:36:57Z</time>
      </trkpt>
      <trkpt lat="49.42866" lon="-1.18792">
        <ele>3.7</ele>
        <time>2022-06-02T10:36:58Z</time>
      </trkpt>
      <trkpt lat="49.42865" lon="-1.18791">
        <ele>3.7</ele>
        <time>2022-06-02T10:36:59Z</time>
      </trkpt>
      <trkpt lat="49.42864" lon="-1.1879">
        <ele>3.7</ele>
        <time>2022-06-02T10:37:00Z</time>
      </trkpt>
      <trkpt lat="49.42863" lon="-1.18789">
        <ele>3.7</ele>
        <time>2022-06-02T10:37:02Z</time>
      </trkpt>
      <trkpt lat="49.42862" lon="-1.18788">
        <ele>3.7</ele>
        <time>2022-06-02T10:37:03Z</time>
      </trkpt>
      <trkpt lat="49.42861" lon="-1.18787">
        <ele>3.7</ele>
        <time>2022-06-02T10:37:04Z</time>
      </trkpt>
      <trkpt lat="49.4286" lon="-1.18786">
        <ele>3.7</ele>
        <time>2022-06-02T10:37:05Z</time>
      </trkpt>
      <trkpt lat="49.42859" lon="-1.18785">
        <ele>3.7</ele>
        <time>2022-06-02T10:37:06Z</time>
      </trkpt>
      <trkpt lat="49.42858" lon="-1.18784">
        <ele>3.7</ele>
        <time>2022-06-02T10:37:07Z</time>
      </trkpt>
      <trkpt lat="49.42857" lon="-1.18783">
        <ele>3.7</ele>
        <time>2022-06-02T10:37:09Z</time>
      </trkpt>
      <trkpt lat="49.42857" lon="-1.18782">
        <ele>3.7</ele>
        <time>2022-06-02T10:37:10Z</time>
      </trkpt>
      <trkpt lat="49.42856" lon="-1.1878">
        <ele>3.7</ele>
        <time>2022-06-02T10:37:11Z</time>
      </trkpt>
      <trkpt lat="49.42855" lon="-1.18779">
        <ele>3.7</ele>
        <time>2022-06-02T10:37:12Z</time>
      </trkpt>
      <trkpt lat="49.42855" lon="-1.18778">
        <ele>3.7</ele>
        <time>2022-06-02T10:37:13Z</time>
      </trkpt>
      <trkpt lat="49.42854" lon="-1.18776">
        <ele>3.7</ele>
        <time>2022-06-02T10:37:14Z</time>
      </trkpt>
      <trkpt lat="49.42853" lon="-1.18775">
        <ele>3.7</ele>
        <time>2022-06-02T10:37:16Z</time>
      </trkpt>
      <trkpt lat="49.42853" lon="-1.18774">
        <ele>3.6</ele>
        <time>2022-06-02T10:37:17Z</time>
      </trkpt>
      <trkpt lat="49.42852" lon="-1.18773">
        <ele>3.6</ele>
        <time>2022-06-02T10:37:18Z</time>
      </trkpt>
      <trkpt lat="49.42851" lon="-1.18772">
        <ele>3.6</ele>
        <time>2022-06-02T10:37:19Z</time>
      </trkpt>
      <trkpt lat="49.4285" lon="-1.18771">
        <ele>3.6</ele>
        <time>2022-06-02T10:37:20Z</time>
      </trkpt>
      <trkpt lat="49.42849" lon="-1.1877">
        <ele>3.6</ele>
        <time>2022-06-02T10:37:21Z</time>
      </trkpt>
      <trkpt lat="49.42849" lon="-1.18769">
        <ele>3.6</ele>
        <time>2022-06-02T10:37:23Z</time>
      </trkpt>
      <trkpt lat="49.42848" lon="-1.18769">
        <ele>3.6</ele>
        <time>2022-06-02T10:37:24Z</time>
      </trkpt>
      <trkpt lat="49.42845" lon="-1.18767">
        <ele>3.6</ele>
        <time>2022-06-02T10:37:25Z</time>
      </trkpt>
      <trkpt lat="49.42845" lon="-1.18766">
        <ele>3.6</ele>
        <time>2022-06-02T10:37:26Z</time>
      </trkpt>
      <trkpt lat="49.42844" lon="-1.18765">
        <ele>3.6</ele>
        <time>2022-06-02T10:37:28Z</time>
      </trkpt>
      <trkpt lat="49.42843" lon="-1.18764">
        <ele>3.6</ele>
        <time>2022-06-02T10:37:29Z</time>
      </trkpt>
      <trkpt lat="49.42842" lon="-1.18763">
        <ele>3.6</ele>
        <time>2022-06-02T10:37:31Z</time>
      </trkpt>
      <trkpt lat="49.42842" lon="-1.18762">
        <ele>3.6</ele>
        <time>2022-06-02T10:37:32Z</time>
      </trkpt>
      <trkpt lat="49.42841" lon="-1.18761">
        <ele>3.6</ele>
        <time>2022-06-02T10:37:33Z</time>
      </trkpt>
      <trkpt lat="49.4284" lon="-1.1876">
        <ele>3.6</ele>
        <time>2022-06-02T10:37:34Z</time>
      </trkpt>
      <trkpt lat="49.42839" lon="-1.18759">
        <ele>3.6</ele>
        <time>2022-06-02T10:37:35Z</time>
      </trkpt>
      <trkpt lat="49.42839" lon="-1.18758">
        <ele>3.6</ele>
        <time>2022-06-02T10:37:36Z</time>
      </trkpt>
      <trkpt lat="49.42838" lon="-1.18757">
        <ele>3.6</ele>
        <time>2022-06-02T10:37:38Z</time>
      </trkpt>
      <trkpt lat="49.42837" lon="-1.18756">
        <ele>3.6</ele>
        <time>2022-06-02T10:37:39Z</time>
      </trkpt>
      <trkpt lat="49.42836" lon="-1.18755">
        <ele>3.7</ele>
        <time>2022-06-02T10:37:40Z</time>
      </trkpt>
      <trkpt lat="49.42835" lon="-1.18754">
        <ele>3.7</ele>
        <time>2022-06-02T10:37:41Z</time>
      </trkpt>
      <trkpt lat="49.42835" lon="-1.18753">
        <ele>3.7</ele>
        <time>2022-06-02T10:37:42Z</time>
      </trkpt>
      <trkpt lat="49.42833" lon="-1.18752">
        <ele>3.7</ele>
        <time>2022-06-02T10:37:43Z</time>
      </trkpt>
      <trkpt lat="49.42833" lon="-1.18751">
        <ele>3.7</ele>
        <time>2022-06-02T10:37:44Z</time>
      </trkpt>
      <trkpt lat="49.42832" lon="-1.1875">
        <ele>3.8</ele>
        <time>2022-06-02T10:37:45Z</time>
      </trkpt>
      <trkpt lat="49.42831" lon="-1.18749">
        <ele>3.8</ele>
        <time>2022-06-02T10:37:46Z</time>
      </trkpt>
      <trkpt lat="49.42831" lon="-1.18749">
        <ele>3.8</ele>
        <time>2022-06-02T10:37:47Z</time>
      </trkpt>
      <trkpt lat="49.4283" lon="-1.18748">
        <ele>3.8</ele>
        <time>2022-06-02T10:37:48Z</time>
      </trkpt>
      <trkpt lat="49.42829" lon="-1.18748">
        <ele>3.8</ele>
        <time>2022-06-02T10:37:49Z</time>
      </trkpt>
      <trkpt lat="49.42828" lon="-1.18747">
        <ele>3.8</ele>
        <time>2022-06-02T10:37:50Z</time>
      </trkpt>
      <trkpt lat="49.42827" lon="-1.18745">
        <ele>3.9</ele>
        <time>2022-06-02T10:37:51Z</time>
      </trkpt>
      <trkpt lat="49.42827" lon="-1.18744">
        <ele>3.9</ele>
        <time>2022-06-02T10:37:53Z</time>
      </trkpt>
      <trkpt lat="49.42826" lon="-1.18744">
        <ele>3.9</ele>
        <time>2022-06-02T10:37:54Z</time>
      </trkpt>
      <trkpt lat="49.42825" lon="-1.18742">
        <ele>3.9</ele>
        <time>2022-06-02T10:37:55Z</time>
      </trkpt>
      <trkpt lat="49.42824" lon="-1.18741">
        <ele>3.9</ele>
        <time>2022-06-02T10:37:56Z</time>
      </trkpt>
      <trkpt lat="49.42823" lon="-1.1874">
        <ele>3.9</ele>
        <time>2022-06-02T10:37:57Z</time>
      </trkpt>
      <trkpt lat="49.42823" lon="-1.18739">
        <ele>4</ele>
        <time>2022-06-02T10:37:59Z</time>
      </trkpt>
      <trkpt lat="49.42822" lon="-1.18738">
        <ele>4</ele>
        <time>2022-06-02T10:38:00Z</time>
      </trkpt>
      <trkpt lat="49.42822" lon="-1.18736">
        <ele>4</ele>
        <time>2022-06-02T10:38:01Z</time>
      </trkpt>
      <trkpt lat="49.42822" lon="-1.18735">
        <ele>4</ele>
        <time>2022-06-02T10:38:02Z</time>
      </trkpt>
      <trkpt lat="49.42821" lon="-1.18734">
        <ele>4</ele>
        <time>2022-06-02T10:38:03Z</time>
      </trkpt>
      <trkpt lat="49.4282" lon="-1.18733">
        <ele>4</ele>
        <time>2022-06-02T10:38:04Z</time>
      </trkpt>
      <trkpt lat="49.4282" lon="-1.18731">
        <ele>4</ele>
        <time>2022-06-02T10:38:06Z</time>
      </trkpt>
      <trkpt lat="49.42819" lon="-1.1873">
        <ele>4</ele>
        <time>2022-06-02T10:38:07Z</time>
      </trkpt>
      <trkpt lat="49.42818" lon="-1.18729">
        <ele>4</ele>
        <time>2022-06-02T10:38:08Z</time>
      </trkpt>
      <trkpt lat="49.42817" lon="-1.18728">
        <ele>4</ele>
        <time>2022-06-02T10:38:09Z</time>
      </trkpt>
      <trkpt lat="49.42816" lon="-1.18727">
        <ele>4</ele>
        <time>2022-06-02T10:38:10Z</time>
      </trkpt>
      <trkpt lat="49.42815" lon="-1.18725">
        <ele>4</ele>
        <time>2022-06-02T10:38:12Z</time>
      </trkpt>
      <trkpt lat="49.42814" lon="-1.18725">
        <ele>4</ele>
        <time>2022-06-02T10:38:13Z</time>
      </trkpt>
      <trkpt lat="49.42814" lon="-1.18724">
        <ele>4</ele>
        <time>2022-06-02T10:38:14Z</time>
      </trkpt>
      <trkpt lat="49.42812" lon="-1.18722">
        <ele>4</ele>
        <time>2022-06-02T10:38:15Z</time>
      </trkpt>
      <trkpt lat="49.42811" lon="-1.18721">
        <ele>4</ele>
        <time>2022-06-02T10:38:16Z</time>
      </trkpt>
      <trkpt lat="49.42811" lon="-1.18721">
        <ele>3.9</ele>
        <time>2022-06-02T10:38:17Z</time>
      </trkpt>
      <trkpt lat="49.4281" lon="-1.1872">
        <ele>3.9</ele>
        <time>2022-06-02T10:38:19Z</time>
      </trkpt>
      <trkpt lat="49.4281" lon="-1.1872">
        <ele>3.9</ele>
        <time>2022-06-02T10:38:20Z</time>
      </trkpt>
      <trkpt lat="49.42809" lon="-1.18719">
        <ele>3.9</ele>
        <time>2022-06-02T10:38:21Z</time>
      </trkpt>
      <trkpt lat="49.42808" lon="-1.18718">
        <ele>3.9</ele>
        <time>2022-06-02T10:38:22Z</time>
      </trkpt>
      <trkpt lat="49.42808" lon="-1.18717">
        <ele>3.9</ele>
        <time>2022-06-02T10:38:23Z</time>
      </trkpt>
      <trkpt lat="49.42806" lon="-1.18715">
        <ele>3.9</ele>
        <time>2022-06-02T10:38:24Z</time>
      </trkpt>
      <trkpt lat="49.42806" lon="-1.18715">
        <ele>3.8</ele>
        <time>2022-06-02T10:38:25Z</time>
      </trkpt>
      <trkpt lat="49.42805" lon="-1.18714">
        <ele>3.8</ele>
        <time>2022-06-02T10:38:27Z</time>
      </trkpt>
      <trkpt lat="49.42804" lon="-1.18713">
        <ele>3.8</ele>
        <time>2022-06-02T10:38:28Z</time>
      </trkpt>
      <trkpt lat="49.42803" lon="-1.18713">
        <ele>3.8</ele>
        <time>2022-06-02T10:38:29Z</time>
      </trkpt>
      <trkpt lat="49.42802" lon="-1.18712">
        <ele>3.8</ele>
        <time>2022-06-02T10:38:30Z</time>
      </trkpt>
      <trkpt lat="49.42802" lon="-1.18711">
        <ele>3.8</ele>
        <time>2022-06-02T10:38:31Z</time>
      </trkpt>
      <trkpt lat="49.42801" lon="-1.18711">
        <ele>3.7</ele>
        <time>2022-06-02T10:38:32Z</time>
      </trkpt>
      <trkpt lat="49.428" lon="-1.1871">
        <ele>3.7</ele>
        <time>2022-06-02T10:38:33Z</time>
      </trkpt>
      <trkpt lat="49.42799" lon="-1.18709">
        <ele>3.7</ele>
        <time>2022-06-02T10:38:35Z</time>
      </trkpt>
      <trkpt lat="49.42798" lon="-1.18709">
        <ele>3.7</ele>
        <time>2022-06-02T10:38:36Z</time>
      </trkpt>
      <trkpt lat="49.42798" lon="-1.18709">
        <ele>3.7</ele>
        <time>2022-06-02T10:38:37Z</time>
      </trkpt>
      <trkpt lat="49.42798" lon="-1.1871">
        <ele>3.7</ele>
        <time>2022-06-02T10:38:38Z</time>
      </trkpt>
      <trkpt lat="49.42798" lon="-1.18711">
        <ele>3.6</ele>
        <time>2022-06-02T10:38:39Z</time>
      </trkpt>
      <trkpt lat="49.42798" lon="-1.18711">
        <ele>3.6</ele>
        <time>2022-06-02T10:38:40Z</time>
      </trkpt>
      <trkpt lat="49.42798" lon="-1.18712">
        <ele>3.6</ele>
        <time>2022-06-02T10:38:41Z</time>
      </trkpt>
      <trkpt lat="49.42798" lon="-1.18712">
        <ele>3.6</ele>
        <time>2022-06-02T10:38:42Z</time>
      </trkpt>
      <trkpt lat="49.42798" lon="-1.18712">
        <ele>3.6</ele>
        <time>2022-06-02T10:38:43Z</time>
      </trkpt>
      <trkpt lat="49.42798" lon="-1.18712">
        <ele>3.6</ele>
        <time>2022-06-02T10:38:44Z</time>
      </trkpt>
      <trkpt lat="49.42798" lon="-1.18712">
        <ele>3.6</ele>
        <time>2022-06-02T10:38:45Z</time>
      </trkpt>
      <trkpt lat="49.42798" lon="-1.18712">
        <ele>3.6</ele>
        <time>2022-06-02T10:38:46Z</time>
      </trkpt>
      <trkpt lat="49.42798" lon="-1.18712">
        <ele>3.6</ele>
        <time>2022-06-02T10:38:47Z</time>
      </trkpt>
      <trkpt lat="49.42798" lon="-1.18711">
        <ele>3.6</ele>
        <time>2022-06-02T10:38:49Z</time>
      </trkpt>
      <trkpt lat="49.42797" lon="-1.1871">
        <ele>3.6</ele>
        <time>2022-06-02T10:38:50Z</time>
      </trkpt>
      <trkpt lat="49.42797" lon="-1.18709">
        <ele>3.6</ele>
        <time>2022-06-02T10:38:51Z</time>
      </trkpt>
      <trkpt lat="49.42797" lon="-1.18708">
        <ele>3.6</ele>
        <time>2022-06-02T10:38:52Z</time>
      </trkpt>
      <trkpt lat="49.42797" lon="-1.18708">
        <ele>3.5</ele>
        <time>2022-06-02T10:38:53Z</time>
      </trkpt>
      <trkpt lat="49.42796" lon="-1.18708">
        <ele>3.5</ele>
        <time>2022-06-02T10:38:54Z</time>
      </trkpt>
      <trkpt lat="49.42796" lon="-1.18707">
        <ele>3.5</ele>
        <time>2022-06-02T10:38:55Z</time>
      </trkpt>
      <trkpt lat="49.42796" lon="-1.18707">
        <ele>3.5</ele>
        <time>2022-06-02T10:38:56Z</time>
      </trkpt>
      <trkpt lat="49.42796" lon="-1.18707">
        <ele>3.5</ele>
        <time>2022-06-02T10:38:57Z</time>
      </trkpt>
      <trkpt lat="49.42795" lon="-1.18706">
        <ele>3.5</ele>
        <time>2022-06-02T10:38:59Z</time>
      </trkpt>
      <trkpt lat="49.42795" lon="-1.18705">
        <ele>3.5</ele>
        <time>2022-06-02T10:39:00Z</time>
      </trkpt>
      <trkpt lat="49.42794" lon="-1.18704">
        <ele>3.5</ele>
        <time>2022-06-02T10:39:01Z</time>
      </trkpt>
      <trkpt lat="49.42794" lon="-1.18702">
        <ele>3.4</ele>
        <time>2022-06-02T10:39:02Z</time>
      </trkpt>
      <trkpt lat="49.42792" lon="-1.18699">
        <ele>3.4</ele>
        <time>2022-06-02T10:39:03Z</time>
      </trkpt>
      <trkpt lat="49.42792" lon="-1.18698">
        <ele>3.4</ele>
        <time>2022-06-02T10:39:04Z</time>
      </trkpt>
      <trkpt lat="49.42791" lon="-1.18696">
        <ele>3.4</ele>
        <time>2022-06-02T10:39:05Z</time>
      </trkpt>
      <trkpt lat="49.4279" lon="-1.18694">
        <ele>3.4</ele>
        <time>2022-06-02T10:39:07Z</time>
      </trkpt>
      <trkpt lat="49.42789" lon="-1.18692">
        <ele>3.4</ele>
        <time>2022-06-02T10:39:08Z</time>
      </trkpt>
      <trkpt lat="49.42788" lon="-1.1869">
        <ele>3.4</ele>
        <time>2022-06-02T10:39:09Z</time>
      </trkpt>
      <trkpt lat="49.42786" lon="-1.18688">
        <ele>3.4</ele>
        <time>2022-06-02T10:39:10Z</time>
      </trkpt>
      <trkpt lat="49.42785" lon="-1.18687">
        <ele>3.4</ele>
        <time>2022-06-02T10:39:11Z</time>
      </trkpt>
      <trkpt lat="49.42784" lon="-1.18685">
        <ele>3.5</ele>
        <time>2022-06-02T10:39:12Z</time>
      </trkpt>
      <trkpt lat="49.42783" lon="-1.18684">
        <ele>3.5</ele>
        <time>2022-06-02T10:39:13Z</time>
      </trkpt>
      <trkpt lat="49.42782" lon="-1.18682">
        <ele>3.6</ele>
        <time>2022-06-02T10:39:15Z</time>
      </trkpt>
      <trkpt lat="49.42781" lon="-1.18681">
        <ele>3.6</ele>
        <time>2022-06-02T10:39:16Z</time>
      </trkpt>
      <trkpt lat="49.4278" lon="-1.18679">
        <ele>3.7</ele>
        <time>2022-06-02T10:39:17Z</time>
      </trkpt>
      <trkpt lat="49.42779" lon="-1.18679">
        <ele>3.7</ele>
        <time>2022-06-02T10:39:18Z</time>
      </trkpt>
      <trkpt lat="49.42778" lon="-1.18678">
        <ele>3.8</ele>
        <time>2022-06-02T10:39:19Z</time>
      </trkpt>
      <trkpt lat="49.42776" lon="-1.18676">
        <ele>3.8</ele>
        <time>2022-06-02T10:39:20Z</time>
      </trkpt>
      <trkpt lat="49.42776" lon="-1.18675">
        <ele>3.9</ele>
        <time>2022-06-02T10:39:21Z</time>
      </trkpt>
      <trkpt lat="49.42775" lon="-1.18674">
        <ele>3.9</ele>
        <time>2022-06-02T10:39:22Z</time>
      </trkpt>
      <trkpt lat="49.42774" lon="-1.18673">
        <ele>4</ele>
        <time>2022-06-02T10:39:24Z</time>
      </trkpt>
      <trkpt lat="49.42773" lon="-1.18671">
        <ele>4</ele>
        <time>2022-06-02T10:39:25Z</time>
      </trkpt>
      <trkpt lat="49.42772" lon="-1.1867">
        <ele>4</ele>
        <time>2022-06-02T10:39:26Z</time>
      </trkpt>
      <trkpt lat="49.42771" lon="-1.18669">
        <ele>4.1</ele>
        <time>2022-06-02T10:39:27Z</time>
      </trkpt>
      <trkpt lat="49.4277" lon="-1.18668">
        <ele>4.1</ele>
        <time>2022-06-02T10:39:28Z</time>
      </trkpt>
      <trkpt lat="49.42769" lon="-1.18666">
        <ele>4.1</ele>
        <time>2022-06-02T10:39:29Z</time>
      </trkpt>
      <trkpt lat="49.42768" lon="-1.18665">
        <ele>4.1</ele>
        <time>2022-06-02T10:39:30Z</time>
      </trkpt>
      <trkpt lat="49.42767" lon="-1.18664">
        <ele>4.1</ele>
        <time>2022-06-02T10:39:32Z</time>
      </trkpt>
      <trkpt lat="49.42767" lon="-1.18663">
        <ele>4.1</ele>
        <time>2022-06-02T10:39:33Z</time>
      </trkpt>
      <trkpt lat="49.42766" lon="-1.18662">
        <ele>4.2</ele>
        <time>2022-06-02T10:39:34Z</time>
      </trkpt>
      <trkpt lat="49.42765" lon="-1.18661">
        <ele>4.2</ele>
        <time>2022-06-02T10:39:35Z</time>
      </trkpt>
      <trkpt lat="49.42764" lon="-1.1866">
        <ele>4.2</ele>
        <time>2022-06-02T10:39:36Z</time>
      </trkpt>
      <trkpt lat="49.42763" lon="-1.18659">
        <ele>4.2</ele>
        <time>2022-06-02T10:39:37Z</time>
      </trkpt>
      <trkpt lat="49.42762" lon="-1.18659">
        <ele>4.2</ele>
        <time>2022-06-02T10:39:38Z</time>
      </trkpt>
      <trkpt lat="49.42761" lon="-1.18659">
        <ele>4.2</ele>
        <time>2022-06-02T10:39:40Z</time>
      </trkpt>
      <trkpt lat="49.4276" lon="-1.18658">
        <ele>4.2</ele>
        <time>2022-06-02T10:39:41Z</time>
      </trkpt>
      <trkpt lat="49.4276" lon="-1.18658">
        <ele>4.2</ele>
        <time>2022-06-02T10:39:42Z</time>
      </trkpt>
      <trkpt lat="49.42759" lon="-1.18657">
        <ele>4.2</ele>
        <time>2022-06-02T10:39:43Z</time>
      </trkpt>
      <trkpt lat="49.42757" lon="-1.18655">
        <ele>4.2</ele>
        <time>2022-06-02T10:39:44Z</time>
      </trkpt>
      <trkpt lat="49.42757" lon="-1.18654">
        <ele>4.2</ele>
        <time>2022-06-02T10:39:45Z</time>
      </trkpt>
      <trkpt lat="49.42756" lon="-1.18653">
        <ele>4.3</ele>
        <time>2022-06-02T10:39:46Z</time>
      </trkpt>
      <trkpt lat="49.42755" lon="-1.18652">
        <ele>4.3</ele>
        <time>2022-06-02T10:39:48Z</time>
      </trkpt>
      <trkpt lat="49.42754" lon="-1.18651">
        <ele>4.3</ele>
        <time>2022-06-02T10:39:49Z</time>
      </trkpt>
      <trkpt lat="49.42752" lon="-1.18649">
        <ele>4.3</ele>
        <time>2022-06-02T10:39:50Z</time>
      </trkpt>
      <trkpt lat="49.42751" lon="-1.18648">
        <ele>4.3</ele>
        <time>2022-06-02T10:39:51Z</time>
      </trkpt>
      <trkpt lat="49.42751" lon="-1.18648">
        <ele>4.3</ele>
        <time>2022-06-02T10:39:52Z</time>
      </trkpt>
      <trkpt lat="49.4275" lon="-1.18647">
        <ele>4.3</ele>
        <time>2022-06-02T10:39:53Z</time>
      </trkpt>
      <trkpt lat="49.42748" lon="-1.18645">
        <ele>4.3</ele>
        <time>2022-06-02T10:39:54Z</time>
      </trkpt>
      <trkpt lat="49.42748" lon="-1.18645">
        <ele>4.3</ele>
        <time>2022-06-02T10:39:55Z</time>
      </trkpt>
      <trkpt lat="49.42747" lon="-1.18645">
        <ele>4.2</ele>
        <time>2022-06-02T10:39:57Z</time>
      </trkpt>
      <trkpt lat="49.42746" lon="-1.18644">
        <ele>4.2</ele>
        <time>2022-06-02T10:39:58Z</time>
      </trkpt>
      <trkpt lat="49.42745" lon="-1.18643">
        <ele>4.2</ele>
        <time>2022-06-02T10:39:59Z</time>
      </trkpt>
      <trkpt lat="49.42744" lon="-1.18642">
        <ele>4.2</ele>
        <time>2022-06-02T10:40:00Z</time>
      </trkpt>
      <trkpt lat="49.42743" lon="-1.1864">
        <ele>4.2</ele>
        <time>2022-06-02T10:40:01Z</time>
      </trkpt>
      <trkpt lat="49.42742" lon="-1.1864">
        <ele>4.2</ele>
        <time>2022-06-02T10:40:02Z</time>
      </trkpt>
      <trkpt lat="49.42741" lon="-1.18639">
        <ele>4.2</ele>
        <time>2022-06-02T10:40:03Z</time>
      </trkpt>
      <trkpt lat="49.4274" lon="-1.18638">
        <ele>4.1</ele>
        <time>2022-06-02T10:40:05Z</time>
      </trkpt>
      <trkpt lat="49.42739" lon="-1.18637">
        <ele>4.1</ele>
        <time>2022-06-02T10:40:06Z</time>
      </trkpt>
      <trkpt lat="49.42737" lon="-1.18635">
        <ele>4.1</ele>
        <time>2022-06-02T10:40:07Z</time>
      </trkpt>
      <trkpt lat="49.42736" lon="-1.18635">
        <ele>4.1</ele>
        <time>2022-06-02T10:40:08Z</time>
      </trkpt>
      <trkpt lat="49.42735" lon="-1.18634">
        <ele>4.1</ele>
        <time>2022-06-02T10:40:09Z</time>
      </trkpt>
      <trkpt lat="49.42734" lon="-1.18634">
        <ele>4.1</ele>
        <time>2022-06-02T10:40:10Z</time>
      </trkpt>
      <trkpt lat="49.42733" lon="-1.18633">
        <ele>4.1</ele>
        <time>2022-06-02T10:40:11Z</time>
      </trkpt>
      <trkpt lat="49.42732" lon="-1.18632">
        <ele>4.1</ele>
        <time>2022-06-02T10:40:13Z</time>
      </trkpt>
      <trkpt lat="49.42731" lon="-1.18632">
        <ele>4</ele>
        <time>2022-06-02T10:40:14Z</time>
      </trkpt>
      <trkpt lat="49.4273" lon="-1.18631">
        <ele>4</ele>
        <time>2022-06-02T10:40:15Z</time>
      </trkpt>
      <trkpt lat="49.42729" lon="-1.18629">
        <ele>4</ele>
        <time>2022-06-02T10:40:16Z</time>
      </trkpt>
      <trkpt lat="49.42728" lon="-1.18628">
        <ele>4</ele>
        <time>2022-06-02T10:40:17Z</time>
      </trkpt>
      <trkpt lat="49.42728" lon="-1.18628">
        <ele>4</ele>
        <time>2022-06-02T10:40:18Z</time>
      </trkpt>
      <trkpt lat="49.42727" lon="-1.18627">
        <ele>4</ele>
        <time>2022-06-02T10:40:20Z</time>
      </trkpt>
      <trkpt lat="49.42726" lon="-1.18626">
        <ele>4</ele>
        <time>2022-06-02T10:40:21Z</time>
      </trkpt>
      <trkpt lat="49.42725" lon="-1.18625">
        <ele>4</ele>
        <time>2022-06-02T10:40:22Z</time>
      </trkpt>
      <trkpt lat="49.42725" lon="-1.18624">
        <ele>4</ele>
        <time>2022-06-02T10:40:23Z</time>
      </trkpt>
      <trkpt lat="49.42724" lon="-1.18623">
        <ele>4</ele>
        <time>2022-06-02T10:40:24Z</time>
      </trkpt>
      <trkpt lat="49.42723" lon="-1.18622">
        <ele>4</ele>
        <time>2022-06-02T10:40:25Z</time>
      </trkpt>
      <trkpt lat="49.42722" lon="-1.18621">
        <ele>4</ele>
        <time>2022-06-02T10:40:26Z</time>
      </trkpt>
      <trkpt lat="49.42722" lon="-1.1862">
        <ele>4</ele>
        <time>2022-06-02T10:40:28Z</time>
      </trkpt>
      <trkpt lat="49.42722" lon="-1.1862">
        <ele>4</ele>
        <time>2022-06-02T10:40:29Z</time>
      </trkpt>
      <trkpt lat="49.42721" lon="-1.18619">
        <ele>4</ele>
        <time>2022-06-02T10:40:30Z</time>
      </trkpt>
      <trkpt lat="49.42721" lon="-1.18618">
        <ele>4</ele>
        <time>2022-06-02T10:40:31Z</time>
      </trkpt>
      <trkpt lat="49.4272" lon="-1.18617">
        <ele>4</ele>
        <time>2022-06-02T10:40:32Z</time>
      </trkpt>
      <trkpt lat="49.42719" lon="-1.18616">
        <ele>4</ele>
        <time>2022-06-02T10:40:33Z</time>
      </trkpt>
      <trkpt lat="49.42718" lon="-1.18615">
        <ele>4</ele>
        <time>2022-06-02T10:40:34Z</time>
      </trkpt>
      <trkpt lat="49.42717" lon="-1.18614">
        <ele>4</ele>
        <time>2022-06-02T10:40:35Z</time>
      </trkpt>
      <trkpt lat="49.42715" lon="-1.18613">
        <ele>4</ele>
        <time>2022-06-02T10:40:36Z</time>
      </trkpt>
      <trkpt lat="49.42715" lon="-1.18612">
        <ele>4</ele>
        <time>2022-06-02T10:40:37Z</time>
      </trkpt>
      <trkpt lat="49.42714" lon="-1.18611">
        <ele>4</ele>
        <time>2022-06-02T10:40:38Z</time>
      </trkpt>
      <trkpt lat="49.42713" lon="-1.18611">
        <ele>4</ele>
        <time>2022-06-02T10:40:39Z</time>
      </trkpt>
      <trkpt lat="49.42711" lon="-1.1861">
        <ele>4</ele>
        <time>2022-06-02T10:40:41Z</time>
      </trkpt>
      <trkpt lat="49.4271" lon="-1.18609">
        <ele>4</ele>
        <time>2022-06-02T10:40:42Z</time>
      </trkpt>
      <trkpt lat="49.4271" lon="-1.18608">
        <ele>4</ele>
        <time>2022-06-02T10:40:43Z</time>
      </trkpt>
      <trkpt lat="49.4271" lon="-1.18607">
        <ele>4</ele>
        <time>2022-06-02T10:40:44Z</time>
      </trkpt>
      <trkpt lat="49.42709" lon="-1.18606">
        <ele>3.9</ele>
        <time>2022-06-02T10:40:45Z</time>
      </trkpt>
      <trkpt lat="49.42707" lon="-1.18604">
        <ele>3.9</ele>
        <time>2022-06-02T10:40:46Z</time>
      </trkpt>
      <trkpt lat="49.42706" lon="-1.18603">
        <ele>3.9</ele>
        <time>2022-06-02T10:40:47Z</time>
      </trkpt>
      <trkpt lat="49.42706" lon="-1.18602">
        <ele>3.9</ele>
        <time>2022-06-02T10:40:49Z</time>
      </trkpt>
      <trkpt lat="49.42705" lon="-1.18601">
        <ele>3.9</ele>
        <time>2022-06-02T10:40:50Z</time>
      </trkpt>
      <trkpt lat="49.42704" lon="-1.186">
        <ele>3.8</ele>
        <time>2022-06-02T10:40:51Z</time>
      </trkpt>
      <trkpt lat="49.42703" lon="-1.18599">
        <ele>3.8</ele>
        <time>2022-06-02T10:40:52Z</time>
      </trkpt>
      <trkpt lat="49.42702" lon="-1.18598">
        <ele>3.8</ele>
        <time>2022-06-02T10:40:53Z</time>
      </trkpt>
      <trkpt lat="49.42701" lon="-1.18598">
        <ele>3.8</ele>
        <time>2022-06-02T10:40:54Z</time>
      </trkpt>
      <trkpt lat="49.427" lon="-1.18597">
        <ele>3.8</ele>
        <time>2022-06-02T10:40:55Z</time>
      </trkpt>
      <trkpt lat="49.427" lon="-1.18596">
        <ele>3.7</ele>
        <time>2022-06-02T10:40:57Z</time>
      </trkpt>
      <trkpt lat="49.42699" lon="-1.18595">
        <ele>3.7</ele>
        <time>2022-06-02T10:40:58Z</time>
      </trkpt>
      <trkpt lat="49.42698" lon="-1.18594">
        <ele>3.7</ele>
        <time>2022-06-02T10:40:59Z</time>
      </trkpt>
      <trkpt lat="49.42697" lon="-1.18593">
        <ele>3.7</ele>
        <time>2022-06-02T10:41:00Z</time>
      </trkpt>
      <trkpt lat="49.42695" lon="-1.18592">
        <ele>3.6</ele>
        <time>2022-06-02T10:41:01Z</time>
      </trkpt>
      <trkpt lat="49.42695" lon="-1.18591">
        <ele>3.6</ele>
        <time>2022-06-02T10:41:02Z</time>
      </trkpt>
      <trkpt lat="49.42694" lon="-1.1859">
        <ele>3.6</ele>
        <time>2022-06-02T10:41:04Z</time>
      </trkpt>
      <trkpt lat="49.42693" lon="-1.18589">
        <ele>3.6</ele>
        <time>2022-06-02T10:41:05Z</time>
      </trkpt>
      <trkpt lat="49.42692" lon="-1.18588">
        <ele>3.6</ele>
        <time>2022-06-02T10:41:06Z</time>
      </trkpt>
      <trkpt lat="49.42691" lon="-1.18586">
        <ele>3.6</ele>
        <time>2022-06-02T10:41:07Z</time>
      </trkpt>
      <trkpt lat="49.42689" lon="-1.18585">
        <ele>3.5</ele>
        <time>2022-06-02T10:41:08Z</time>
      </trkpt>
      <trkpt lat="49.42688" lon="-1.18584">
        <ele>3.5</ele>
        <time>2022-06-02T10:41:09Z</time>
      </trkpt>
      <trkpt lat="49.42687" lon="-1.18583">
        <ele>3.5</ele>
        <time>2022-06-02T10:41:11Z</time>
      </trkpt>
      <trkpt lat="49.42686" lon="-1.18583">
        <ele>3.5</ele>
        <time>2022-06-02T10:41:12Z</time>
      </trkpt>
      <trkpt lat="49.42686" lon="-1.18583">
        <ele>3.5</ele>
        <time>2022-06-02T10:41:13Z</time>
      </trkpt>
      <trkpt lat="49.42686" lon="-1.18583">
        <ele>3.5</ele>
        <time>2022-06-02T10:41:14Z</time>
      </trkpt>
      <trkpt lat="49.42685" lon="-1.18583">
        <ele>3.5</ele>
        <time>2022-06-02T10:41:15Z</time>
      </trkpt>
      <trkpt lat="49.42684" lon="-1.18582">
        <ele>3.5</ele>
        <time>2022-06-02T10:41:17Z</time>
      </trkpt>
      <trkpt lat="49.42683" lon="-1.18581">
        <ele>3.5</ele>
        <time>2022-06-02T10:41:18Z</time>
      </trkpt>
      <trkpt lat="49.42682" lon="-1.18581">
        <ele>3.5</ele>
        <time>2022-06-02T10:41:19Z</time>
      </trkpt>
      <trkpt lat="49.42681" lon="-1.1858">
        <ele>3.5</ele>
        <time>2022-06-02T10:41:20Z</time>
      </trkpt>
      <trkpt lat="49.42681" lon="-1.1858">
        <ele>3.5</ele>
        <time>2022-06-02T10:41:21Z</time>
      </trkpt>
      <trkpt lat="49.4268" lon="-1.18579">
        <ele>3.4</ele>
        <time>2022-06-02T10:41:22Z</time>
      </trkpt>
      <trkpt lat="49.42679" lon="-1.18578">
        <ele>3.4</ele>
        <time>2022-06-02T10:41:23Z</time>
      </trkpt>
      <trkpt lat="49.42679" lon="-1.18578">
        <ele>3.4</ele>
        <time>2022-06-02T10:41:24Z</time>
      </trkpt>
      <trkpt lat="49.42678" lon="-1.18577">
        <ele>3.4</ele>
        <time>2022-06-02T10:41:25Z</time>
      </trkpt>
      <trkpt lat="49.42678" lon="-1.18575">
        <ele>3.4</ele>
        <time>2022-06-02T10:41:27Z</time>
      </trkpt>
      <trkpt lat="49.42678" lon="-1.18575">
        <ele>3.4</ele>
        <time>2022-06-02T10:41:28Z</time>
      </trkpt>
      <trkpt lat="49.42678" lon="-1.18574">
        <ele>3.4</ele>
        <time>2022-06-02T10:41:29Z</time>
      </trkpt>
      <trkpt lat="49.42677" lon="-1.18573">
        <ele>3.4</ele>
        <time>2022-06-02T10:41:30Z</time>
      </trkpt>
      <trkpt lat="49.42675" lon="-1.18572">
        <ele>3.4</ele>
        <time>2022-06-02T10:41:31Z</time>
      </trkpt>
      <trkpt lat="49.42674" lon="-1.1857">
        <ele>3.4</ele>
        <time>2022-06-02T10:41:32Z</time>
      </trkpt>
      <trkpt lat="49.42673" lon="-1.1857">
        <ele>3.4</ele>
        <time>2022-06-02T10:41:34Z</time>
      </trkpt>
      <trkpt lat="49.42673" lon="-1.18569">
        <ele>3.4</ele>
        <time>2022-06-02T10:41:35Z</time>
      </trkpt>
      <trkpt lat="49.42672" lon="-1.18567">
        <ele>3.3</ele>
        <time>2022-06-02T10:41:36Z</time>
      </trkpt>
      <trkpt lat="49.4267" lon="-1.18565">
        <ele>3.3</ele>
        <time>2022-06-02T10:41:37Z</time>
      </trkpt>
      <trkpt lat="49.42669" lon="-1.18563">
        <ele>3.3</ele>
        <time>2022-06-02T10:41:38Z</time>
      </trkpt>
      <trkpt lat="49.42668" lon="-1.18563">
        <ele>3.3</ele>
        <time>2022-06-02T10:41:39Z</time>
      </trkpt>
      <trkpt lat="49.42667" lon="-1.18562">
        <ele>3.3</ele>
        <time>2022-06-02T10:41:41Z</time>
      </trkpt>
      <trkpt lat="49.42666" lon="-1.18561">
        <ele>3.2</ele>
        <time>2022-06-02T10:41:42Z</time>
      </trkpt>
      <trkpt lat="49.42666" lon="-1.1856">
        <ele>3.2</ele>
        <time>2022-06-02T10:41:43Z</time>
      </trkpt>
      <trkpt lat="49.42665" lon="-1.18559">
        <ele>3.2</ele>
        <time>2022-06-02T10:41:44Z</time>
      </trkpt>
      <trkpt lat="49.42663" lon="-1.18557">
        <ele>3.2</ele>
        <time>2022-06-02T10:41:45Z</time>
      </trkpt>
      <trkpt lat="49.42662" lon="-1.18556">
        <ele>3.2</ele>
        <time>2022-06-02T10:41:46Z</time>
      </trkpt>
      <trkpt lat="49.42662" lon="-1.18555">
        <ele>3.2</ele>
        <time>2022-06-02T10:41:47Z</time>
      </trkpt>
      <trkpt lat="49.42661" lon="-1.18554">
        <ele>3.2</ele>
        <time>2022-06-02T10:41:49Z</time>
      </trkpt>
      <trkpt lat="49.4266" lon="-1.18553">
        <ele>3.1</ele>
        <time>2022-06-02T10:41:50Z</time>
      </trkpt>
      <trkpt lat="49.42659" lon="-1.18552">
        <ele>3.1</ele>
        <time>2022-06-02T10:41:51Z</time>
      </trkpt>
      <trkpt lat="49.42658" lon="-1.18551">
        <ele>3.1</ele>
        <time>2022-06-02T10:41:52Z</time>
      </trkpt>
      <trkpt lat="49.42657" lon="-1.1855">
        <ele>3.1</ele>
        <time>2022-06-02T10:41:53Z</time>
      </trkpt>
      <trkpt lat="49.42656" lon="-1.18549">
        <ele>3.1</ele>
        <time>2022-06-02T10:41:54Z</time>
      </trkpt>
      <trkpt lat="49.42656" lon="-1.18548">
        <ele>3.1</ele>
        <time>2022-06-02T10:41:56Z</time>
      </trkpt>
      <trkpt lat="49.42655" lon="-1.18547">
        <ele>3.1</ele>
        <time>2022-06-02T10:41:57Z</time>
      </trkpt>
      <trkpt lat="49.42654" lon="-1.18545">
        <ele>3.2</ele>
        <time>2022-06-02T10:41:58Z</time>
      </trkpt>
      <trkpt lat="49.42654" lon="-1.18544">
        <ele>3.2</ele>
        <time>2022-06-02T10:41:59Z</time>
      </trkpt>
      <trkpt lat="49.42653" lon="-1.18543">
        <ele>3.2</ele>
        <time>2022-06-02T10:42:00Z</time>
      </trkpt>
      <trkpt lat="49.42652" lon="-1.18542">
        <ele>3.2</ele>
        <time>2022-06-02T10:42:02Z</time>
      </trkpt>
      <trkpt lat="49.42651" lon="-1.18541">
        <ele>3.2</ele>
        <time>2022-06-02T10:42:03Z</time>
      </trkpt>
      <trkpt lat="49.4265" lon="-1.18541">
        <ele>3.3</ele>
        <time>2022-06-02T10:42:04Z</time>
      </trkpt>
      <trkpt lat="49.42649" lon="-1.1854">
        <ele>3.3</ele>
        <time>2022-06-02T10:42:05Z</time>
      </trkpt>
      <trkpt lat="49.42649" lon="-1.18539">
        <ele>3.3</ele>
        <time>2022-06-02T10:42:06Z</time>
      </trkpt>
      <trkpt lat="49.42647" lon="-1.18538">
        <ele>3.3</ele>
        <time>2022-06-02T10:42:07Z</time>
      </trkpt>
      <trkpt lat="49.42647" lon="-1.18537">
        <ele>3.3</ele>
        <time>2022-06-02T10:42:09Z</time>
      </trkpt>
      <trkpt lat="49.42646" lon="-1.18537">
        <ele>3.3</ele>
        <time>2022-06-02T10:42:10Z</time>
      </trkpt>
      <trkpt lat="49.42645" lon="-1.18536">
        <ele>3.3</ele>
        <time>2022-06-02T10:42:11Z</time>
      </trkpt>
      <trkpt lat="49.42643" lon="-1.18535">
        <ele>3.4</ele>
        <time>2022-06-02T10:42:13Z</time>
      </trkpt>
      <trkpt lat="49.42643" lon="-1.18535">
        <ele>3.4</ele>
        <time>2022-06-02T10:42:14Z</time>
      </trkpt>
      <trkpt lat="49.42643" lon="-1.18536">
        <ele>3.4</ele>
        <time>2022-06-02T10:42:15Z</time>
      </trkpt>
      <trkpt lat="49.42642" lon="-1.18536">
        <ele>3.4</ele>
        <time>2022-06-02T10:42:16Z</time>
      </trkpt>
      <trkpt lat="49.42642" lon="-1.18537">
        <ele>3.3</ele>
        <time>2022-06-02T10:42:17Z</time>
      </trkpt>
      <trkpt lat="49.42642" lon="-1.18538">
        <ele>3.3</ele>
        <time>2022-06-02T10:42:18Z</time>
      </trkpt>
      <trkpt lat="49.42642" lon="-1.18538">
        <ele>3.3</ele>
        <time>2022-06-02T10:42:19Z</time>
      </trkpt>
      <trkpt lat="49.42643" lon="-1.18539">
        <ele>3.3</ele>
        <time>2022-06-02T10:42:20Z</time>
      </trkpt>
      <trkpt lat="49.42643" lon="-1.18539">
        <ele>3.3</ele>
        <time>2022-06-02T10:42:21Z</time>
      </trkpt>
      <trkpt lat="49.42643" lon="-1.18539">
        <ele>3.3</ele>
        <time>2022-06-02T10:42:22Z</time>
      </trkpt>
      <trkpt lat="49.42644" lon="-1.18539">
        <ele>3.3</ele>
        <time>2022-06-02T10:42:23Z</time>
      </trkpt>
      <trkpt lat="49.42644" lon="-1.18539">
        <ele>3.3</ele>
        <time>2022-06-02T10:42:24Z</time>
      </trkpt>
      <trkpt lat="49.42644" lon="-1.18539">
        <ele>3.3</ele>
        <time>2022-06-02T10:42:25Z</time>
      </trkpt>
      <trkpt lat="49.42644" lon="-1.18539">
        <ele>3.3</ele>
        <time>2022-06-02T10:42:26Z</time>
      </trkpt>
      <trkpt lat="49.42644" lon="-1.1854">
        <ele>3.3</ele>
        <time>2022-06-02T10:42:27Z</time>
      </trkpt>
      <trkpt lat="49.42644" lon="-1.1854">
        <ele>3.3</ele>
        <time>2022-06-02T10:42:28Z</time>
      </trkpt>
      <trkpt lat="49.42644" lon="-1.1854">
        <ele>3.3</ele>
        <time>2022-06-02T10:42:30Z</time>
      </trkpt>
      <trkpt lat="49.42644" lon="-1.1854">
        <ele>3.3</ele>
        <time>2022-06-02T10:42:31Z</time>
      </trkpt>
      <trkpt lat="49.42644" lon="-1.1854">
        <ele>3.3</ele>
        <time>2022-06-02T10:42:32Z</time>
      </trkpt>
      <trkpt lat="49.42644" lon="-1.1854">
        <ele>3.2</ele>
        <time>2022-06-02T10:42:33Z</time>
      </trkpt>
      <trkpt lat="49.42644" lon="-1.1854">
        <ele>3.3</ele>
        <time>2022-06-02T10:42:34Z</time>
      </trkpt>
      <trkpt lat="49.42643" lon="-1.18538">
        <ele>3.3</ele>
        <time>2022-06-02T10:42:35Z</time>
      </trkpt>
      <trkpt lat="49.42643" lon="-1.18537">
        <ele>3.3</ele>
        <time>2022-06-02T10:42:36Z</time>
      </trkpt>
      <trkpt lat="49.42642" lon="-1.18535">
        <ele>3.3</ele>
        <time>2022-06-02T10:42:37Z</time>
      </trkpt>
      <trkpt lat="49.42641" lon="-1.18533">
        <ele>3.3</ele>
        <time>2022-06-02T10:42:38Z</time>
      </trkpt>
      <trkpt lat="49.42641" lon="-1.18531">
        <ele>3.3</ele>
        <time>2022-06-02T10:42:40Z</time>
      </trkpt>
      <trkpt lat="49.4264" lon="-1.18529">
        <ele>3.3</ele>
        <time>2022-06-02T10:42:41Z</time>
      </trkpt>
      <trkpt lat="49.4264" lon="-1.18528">
        <ele>3.3</ele>
        <time>2022-06-02T10:42:42Z</time>
      </trkpt>
      <trkpt lat="49.42639" lon="-1.18526">
        <ele>3.2</ele>
        <time>2022-06-02T10:42:43Z</time>
      </trkpt>
      <trkpt lat="49.42638" lon="-1.18525">
        <ele>3.3</ele>
        <time>2022-06-02T10:42:44Z</time>
      </trkpt>
      <trkpt lat="49.42637" lon="-1.18524">
        <ele>3.3</ele>
        <time>2022-06-02T10:42:45Z</time>
      </trkpt>
      <trkpt lat="49.42637" lon="-1.18523">
        <ele>3.2</ele>
        <time>2022-06-02T10:42:47Z</time>
      </trkpt>
      <trkpt lat="49.42637" lon="-1.18522">
        <ele>3.2</ele>
        <time>2022-06-02T10:42:48Z</time>
      </trkpt>
      <trkpt lat="49.42637" lon="-1.18522">
        <ele>3.2</ele>
        <time>2022-06-02T10:42:49Z</time>
      </trkpt>
      <trkpt lat="49.42638" lon="-1.18522">
        <ele>3.2</ele>
        <time>2022-06-02T10:42:50Z</time>
      </trkpt>
      <trkpt lat="49.42638" lon="-1.18523">
        <ele>3.2</ele>
        <time>2022-06-02T10:42:51Z</time>
      </trkpt>
      <trkpt lat="49.42638" lon="-1.18523">
        <ele>3.2</ele>
        <time>2022-06-02T10:42:52Z</time>
      </trkpt>
      <trkpt lat="49.42639" lon="-1.18524">
        <ele>3.2</ele>
        <time>2022-06-02T10:42:53Z</time>
      </trkpt>
      <trkpt lat="49.42639" lon="-1.18524">
        <ele>3.2</ele>
        <time>2022-06-02T10:42:54Z</time>
      </trkpt>
      <trkpt lat="49.42639" lon="-1.18524">
        <ele>3.2</ele>
        <time>2022-06-02T10:42:55Z</time>
      </trkpt>
      <trkpt lat="49.42639" lon="-1.18524">
        <ele>3.2</ele>
        <time>2022-06-02T10:42:56Z</time>
      </trkpt>
      <trkpt lat="49.42638" lon="-1.18523">
        <ele>3.2</ele>
        <time>2022-06-02T10:42:57Z</time>
      </trkpt>
      <trkpt lat="49.42638" lon="-1.18523">
        <ele>3.2</ele>
        <time>2022-06-02T10:42:58Z</time>
      </trkpt>
      <trkpt lat="49.42637" lon="-1.18523">
        <ele>3.2</ele>
        <time>2022-06-02T10:43:00Z</time>
      </trkpt>
      <trkpt lat="49.42636" lon="-1.18523">
        <ele>3.2</ele>
        <time>2022-06-02T10:43:01Z</time>
      </trkpt>
      <trkpt lat="49.42635" lon="-1.18522">
        <ele>3.2</ele>
        <time>2022-06-02T10:43:02Z</time>
      </trkpt>
      <trkpt lat="49.42634" lon="-1.18521">
        <ele>3.2</ele>
        <time>2022-06-02T10:43:03Z</time>
      </trkpt>
      <trkpt lat="49.42633" lon="-1.1852">
        <ele>3.1</ele>
        <time>2022-06-02T10:43:04Z</time>
      </trkpt>
      <trkpt lat="49.42632" lon="-1.18519">
        <ele>3.1</ele>
        <time>2022-06-02T10:43:05Z</time>
      </trkpt>
      <trkpt lat="49.4263" lon="-1.18516">
        <ele>3.1</ele>
        <time>2022-06-02T10:43:06Z</time>
      </trkpt>
      <trkpt lat="49.42629" lon="-1.18515">
        <ele>3.1</ele>
        <time>2022-06-02T10:43:08Z</time>
      </trkpt>
      <trkpt lat="49.42628" lon="-1.18514">
        <ele>3.1</ele>
        <time>2022-06-02T10:43:09Z</time>
      </trkpt>
      <trkpt lat="49.42627" lon="-1.18513">
        <ele>3.1</ele>
        <time>2022-06-02T10:43:10Z</time>
      </trkpt>
      <trkpt lat="49.42626" lon="-1.18512">
        <ele>3.1</ele>
        <time>2022-06-02T10:43:11Z</time>
      </trkpt>
      <trkpt lat="49.42624" lon="-1.1851">
        <ele>3.1</ele>
        <time>2022-06-02T10:43:13Z</time>
      </trkpt>
      <trkpt lat="49.42623" lon="-1.18509">
        <ele>3.1</ele>
        <time>2022-06-02T10:43:14Z</time>
      </trkpt>
      <trkpt lat="49.42623" lon="-1.18508">
        <ele>3</ele>
        <time>2022-06-02T10:43:15Z</time>
      </trkpt>
      <trkpt lat="49.42621" lon="-1.18506">
        <ele>3.1</ele>
        <time>2022-06-02T10:43:16Z</time>
      </trkpt>
      <trkpt lat="49.4262" lon="-1.18505">
        <ele>3.1</ele>
        <time>2022-06-02T10:43:17Z</time>
      </trkpt>
      <trkpt lat="49.42619" lon="-1.18504">
        <ele>3.1</ele>
        <time>2022-06-02T10:43:18Z</time>
      </trkpt>
      <trkpt lat="49.42617" lon="-1.18503">
        <ele>3.1</ele>
        <time>2022-06-02T10:43:19Z</time>
      </trkpt>
      <trkpt lat="49.42616" lon="-1.18502">
        <ele>3.1</ele>
        <time>2022-06-02T10:43:21Z</time>
      </trkpt>
      <trkpt lat="49.42615" lon="-1.185">
        <ele>3.1</ele>
        <time>2022-06-02T10:43:22Z</time>
      </trkpt>
      <trkpt lat="49.42614" lon="-1.18499">
        <ele>3.1</ele>
        <time>2022-06-02T10:43:23Z</time>
      </trkpt>
      <trkpt lat="49.42613" lon="-1.18497">
        <ele>3.1</ele>
        <time>2022-06-02T10:43:24Z</time>
      </trkpt>
      <trkpt lat="49.42611" lon="-1.18496">
        <ele>3.1</ele>
        <time>2022-06-02T10:43:25Z</time>
      </trkpt>
      <trkpt lat="49.4261" lon="-1.18495">
        <ele>3.1</ele>
        <time>2022-06-02T10:43:26Z</time>
      </trkpt>
      <trkpt lat="49.42609" lon="-1.18494">
        <ele>3</ele>
        <time>2022-06-02T10:43:27Z</time>
      </trkpt>
      <trkpt lat="49.42608" lon="-1.18493">
        <ele>3</ele>
        <time>2022-06-02T10:43:28Z</time>
      </trkpt>
      <trkpt lat="49.42606" lon="-1.18491">
        <ele>3</ele>
        <time>2022-06-02T10:43:30Z</time>
      </trkpt>
      <trkpt lat="49.42605" lon="-1.18491">
        <ele>3</ele>
        <time>2022-06-02T10:43:31Z</time>
      </trkpt>
      <trkpt lat="49.42604" lon="-1.1849">
        <ele>3</ele>
        <time>2022-06-02T10:43:32Z</time>
      </trkpt>
      <trkpt lat="49.42604" lon="-1.1849">
        <ele>3</ele>
        <time>2022-06-02T10:43:33Z</time>
      </trkpt>
      <trkpt lat="49.42602" lon="-1.18488">
        <ele>3</ele>
        <time>2022-06-02T10:43:34Z</time>
      </trkpt>
      <trkpt lat="49.42602" lon="-1.18487">
        <ele>2.9</ele>
        <time>2022-06-02T10:43:35Z</time>
      </trkpt>
      <trkpt lat="49.42601" lon="-1.18486">
        <ele>2.9</ele>
        <time>2022-06-02T10:43:36Z</time>
      </trkpt>
      <trkpt lat="49.426" lon="-1.18484">
        <ele>2.9</ele>
        <time>2022-06-02T10:43:38Z</time>
      </trkpt>
      <trkpt lat="49.42599" lon="-1.18483">
        <ele>2.9</ele>
        <time>2022-06-02T10:43:39Z</time>
      </trkpt>
      <trkpt lat="49.42599" lon="-1.18481">
        <ele>2.9</ele>
        <time>2022-06-02T10:43:40Z</time>
      </trkpt>
      <trkpt lat="49.42598" lon="-1.1848">
        <ele>2.9</ele>
        <time>2022-06-02T10:43:41Z</time>
      </trkpt>
      <trkpt lat="49.42596" lon="-1.18477">
        <ele>2.9</ele>
        <time>2022-06-02T10:43:42Z</time>
      </trkpt>
      <trkpt lat="49.42596" lon="-1.18477">
        <ele>2.9</ele>
        <time>2022-06-02T10:43:43Z</time>
      </trkpt>
      <trkpt lat="49.42595" lon="-1.18476">
        <ele>2.9</ele>
        <time>2022-06-02T10:43:44Z</time>
      </trkpt>
      <trkpt lat="49.42594" lon="-1.18475">
        <ele>2.9</ele>
        <time>2022-06-02T10:43:45Z</time>
      </trkpt>
      <trkpt lat="49.42593" lon="-1.18475">
        <ele>2.9</ele>
        <time>2022-06-02T10:43:47Z</time>
      </trkpt>
      <trkpt lat="49.42592" lon="-1.18474">
        <ele>2.9</ele>
        <time>2022-06-02T10:43:48Z</time>
      </trkpt>
      <trkpt lat="49.42591" lon="-1.18473">
        <ele>2.9</ele>
        <time>2022-06-02T10:43:49Z</time>
      </trkpt>
      <trkpt lat="49.4259" lon="-1.18472">
        <ele>2.9</ele>
        <time>2022-06-02T10:43:50Z</time>
      </trkpt>
      <trkpt lat="49.42589" lon="-1.18472">
        <ele>2.9</ele>
        <time>2022-06-02T10:43:51Z</time>
      </trkpt>
      <trkpt lat="49.42587" lon="-1.1847">
        <ele>2.9</ele>
        <time>2022-06-02T10:43:52Z</time>
      </trkpt>
      <trkpt lat="49.42586" lon="-1.1847">
        <ele>2.9</ele>
        <time>2022-06-02T10:43:53Z</time>
      </trkpt>
      <trkpt lat="49.42585" lon="-1.18469">
        <ele>2.9</ele>
        <time>2022-06-02T10:43:54Z</time>
      </trkpt>
      <trkpt lat="49.42584" lon="-1.18468">
        <ele>2.9</ele>
        <time>2022-06-02T10:43:56Z</time>
      </trkpt>
      <trkpt lat="49.42583" lon="-1.18467">
        <ele>2.9</ele>
        <time>2022-06-02T10:43:57Z</time>
      </trkpt>
      <trkpt lat="49.42583" lon="-1.18466">
        <ele>2.9</ele>
        <time>2022-06-02T10:43:58Z</time>
      </trkpt>
      <trkpt lat="49.42581" lon="-1.18464">
        <ele>2.9</ele>
        <time>2022-06-02T10:43:59Z</time>
      </trkpt>
      <trkpt lat="49.4258" lon="-1.18464">
        <ele>2.9</ele>
        <time>2022-06-02T10:44:00Z</time>
      </trkpt>
      <trkpt lat="49.42579" lon="-1.18463">
        <ele>2.9</ele>
        <time>2022-06-02T10:44:01Z</time>
      </trkpt>
      <trkpt lat="49.42578" lon="-1.18461">
        <ele>2.9</ele>
        <time>2022-06-02T10:44:02Z</time>
      </trkpt>
      <trkpt lat="49.42577" lon="-1.1846">
        <ele>2.9</ele>
        <time>2022-06-02T10:44:04Z</time>
      </trkpt>
      <trkpt lat="49.42577" lon="-1.18459">
        <ele>2.8</ele>
        <time>2022-06-02T10:44:05Z</time>
      </trkpt>
      <trkpt lat="49.42576" lon="-1.18459">
        <ele>2.9</ele>
        <time>2022-06-02T10:44:06Z</time>
      </trkpt>
      <trkpt lat="49.42576" lon="-1.1846">
        <ele>2.9</ele>
        <time>2022-06-02T10:44:07Z</time>
      </trkpt>
      <trkpt lat="49.42575" lon="-1.1846">
        <ele>2.9</ele>
        <time>2022-06-02T10:44:08Z</time>
      </trkpt>
      <trkpt lat="49.42575" lon="-1.18461">
        <ele>2.8</ele>
        <time>2022-06-02T10:44:09Z</time>
      </trkpt>
      <trkpt lat="49.42575" lon="-1.18462">
        <ele>2.8</ele>
        <time>2022-06-02T10:44:10Z</time>
      </trkpt>
      <trkpt lat="49.42575" lon="-1.18463">
        <ele>2.8</ele>
        <time>2022-06-02T10:44:11Z</time>
      </trkpt>
      <trkpt lat="49.42575" lon="-1.18463">
        <ele>2.8</ele>
        <time>2022-06-02T10:44:12Z</time>
      </trkpt>
      <trkpt lat="49.42575" lon="-1.18464">
        <ele>2.9</ele>
        <time>2022-06-02T10:44:13Z</time>
      </trkpt>
      <trkpt lat="49.42575" lon="-1.18464">
        <ele>2.9</ele>
        <time>2022-06-02T10:44:15Z</time>
      </trkpt>
      <trkpt lat="49.42575" lon="-1.18464">
        <ele>2.9</ele>
        <time>2022-06-02T10:44:16Z</time>
      </trkpt>
      <trkpt lat="49.42575" lon="-1.18464">
        <ele>2.8</ele>
        <time>2022-06-02T10:44:17Z</time>
      </trkpt>
      <trkpt lat="49.42574" lon="-1.18463">
        <ele>2.8</ele>
        <time>2022-06-02T10:44:18Z</time>
      </trkpt>
      <trkpt lat="49.42573" lon="-1.18462">
        <ele>2.8</ele>
        <time>2022-06-02T10:44:19Z</time>
      </trkpt>
      <trkpt lat="49.42573" lon="-1.18461">
        <ele>2.8</ele>
        <time>2022-06-02T10:44:20Z</time>
      </trkpt>
      <trkpt lat="49.42572" lon="-1.1846">
        <ele>2.8</ele>
        <time>2022-06-02T10:44:21Z</time>
      </trkpt>
      <trkpt lat="49.42571" lon="-1.18459">
        <ele>2.8</ele>
        <time>2022-06-02T10:44:23Z</time>
      </trkpt>
      <trkpt lat="49.4257" lon="-1.18457">
        <ele>2.8</ele>
        <time>2022-06-02T10:44:24Z</time>
      </trkpt>
      <trkpt lat="49.42569" lon="-1.18455">
        <ele>2.8</ele>
        <time>2022-06-02T10:44:25Z</time>
      </trkpt>
      <trkpt lat="49.42567" lon="-1.18455">
        <ele>2.8</ele>
        <time>2022-06-02T10:44:26Z</time>
      </trkpt>
      <trkpt lat="49.42566" lon="-1.18453">
        <ele>2.7</ele>
        <time>2022-06-02T10:44:27Z</time>
      </trkpt>
      <trkpt lat="49.42565" lon="-1.18452">
        <ele>2.8</ele>
        <time>2022-06-02T10:44:28Z</time>
      </trkpt>
      <trkpt lat="49.42563" lon="-1.1845">
        <ele>2.8</ele>
        <time>2022-06-02T10:44:29Z</time>
      </trkpt>
      <trkpt lat="49.42563" lon="-1.18449">
        <ele>2.8</ele>
        <time>2022-06-02T10:44:31Z</time>
      </trkpt>
      <trkpt lat="49.42562" lon="-1.18448">
        <ele>2.8</ele>
        <time>2022-06-02T10:44:32Z</time>
      </trkpt>
      <trkpt lat="49.42561" lon="-1.18447">
        <ele>2.8</ele>
        <time>2022-06-02T10:44:33Z</time>
      </trkpt>
      <trkpt lat="49.4256" lon="-1.18446">
        <ele>2.8</ele>
        <time>2022-06-02T10:44:34Z</time>
      </trkpt>
      <trkpt lat="49.42558" lon="-1.18444">
        <ele>2.8</ele>
        <time>2022-06-02T10:44:35Z</time>
      </trkpt>
      <trkpt lat="49.42558" lon="-1.18444">
        <ele>2.8</ele>
        <time>2022-06-02T10:44:36Z</time>
      </trkpt>
      <trkpt lat="49.42557" lon="-1.18443">
        <ele>2.8</ele>
        <time>2022-06-02T10:44:37Z</time>
      </trkpt>
      <trkpt lat="49.42557" lon="-1.18442">
        <ele>2.7</ele>
        <time>2022-06-02T10:44:39Z</time>
      </trkpt>
      <trkpt lat="49.42556" lon="-1.1844">
        <ele>2.7</ele>
        <time>2022-06-02T10:44:40Z</time>
      </trkpt>
      <trkpt lat="49.42555" lon="-1.18439">
        <ele>2.7</ele>
        <time>2022-06-02T10:44:41Z</time>
      </trkpt>
      <trkpt lat="49.42553" lon="-1.18437">
        <ele>2.7</ele>
        <time>2022-06-02T10:44:42Z</time>
      </trkpt>
      <trkpt lat="49.42552" lon="-1.18436">
        <ele>2.7</ele>
        <time>2022-06-02T10:44:43Z</time>
      </trkpt>
      <trkpt lat="49.42552" lon="-1.18436">
        <ele>2.7</ele>
        <time>2022-06-02T10:44:44Z</time>
      </trkpt>
      <trkpt lat="49.42551" lon="-1.18435">
        <ele>2.7</ele>
        <time>2022-06-02T10:44:45Z</time>
      </trkpt>
      <trkpt lat="49.4255" lon="-1.18434">
        <ele>2.7</ele>
        <time>2022-06-02T10:44:47Z</time>
      </trkpt>
      <trkpt lat="49.42549" lon="-1.18434">
        <ele>2.7</ele>
        <time>2022-06-02T10:44:48Z</time>
      </trkpt>
      <trkpt lat="49.42548" lon="-1.18433">
        <ele>2.7</ele>
        <time>2022-06-02T10:44:49Z</time>
      </trkpt>
      <trkpt lat="49.42547" lon="-1.18432">
        <ele>2.7</ele>
        <time>2022-06-02T10:44:50Z</time>
      </trkpt>
      <trkpt lat="49.42546" lon="-1.18431">
        <ele>2.7</ele>
        <time>2022-06-02T10:44:51Z</time>
      </trkpt>
      <trkpt lat="49.42544" lon="-1.18431">
        <ele>2.6</ele>
        <time>2022-06-02T10:44:52Z</time>
      </trkpt>
      <trkpt lat="49.42543" lon="-1.18431">
        <ele>2.6</ele>
        <time>2022-06-02T10:44:54Z</time>
      </trkpt>
      <trkpt lat="49.42542" lon="-1.18431">
        <ele>2.6</ele>
        <time>2022-06-02T10:44:55Z</time>
      </trkpt>
      <trkpt lat="49.42541" lon="-1.18432">
        <ele>2.6</ele>
        <time>2022-06-02T10:44:56Z</time>
      </trkpt>
      <trkpt lat="49.4254" lon="-1.18433">
        <ele>2.6</ele>
        <time>2022-06-02T10:44:57Z</time>
      </trkpt>
      <trkpt lat="49.42539" lon="-1.18433">
        <ele>2.6</ele>
        <time>2022-06-02T10:44:58Z</time>
      </trkpt>
      <trkpt lat="49.42538" lon="-1.18432">
        <ele>2.6</ele>
        <time>2022-06-02T10:44:59Z</time>
      </trkpt>
      <trkpt lat="49.42537" lon="-1.18432">
        <ele>2.6</ele>
        <time>2022-06-02T10:45:01Z</time>
      </trkpt>
      <trkpt lat="49.42537" lon="-1.18432">
        <ele>2.6</ele>
        <time>2022-06-02T10:45:02Z</time>
      </trkpt>
      <trkpt lat="49.42536" lon="-1.18431">
        <ele>2.6</ele>
        <time>2022-06-02T10:45:03Z</time>
      </trkpt>
      <trkpt lat="49.42535" lon="-1.18429">
        <ele>2.6</ele>
        <time>2022-06-02T10:45:05Z</time>
      </trkpt>
      <trkpt lat="49.42534" lon="-1.18428">
        <ele>2.6</ele>
        <time>2022-06-02T10:45:06Z</time>
      </trkpt>
      <trkpt lat="49.42533" lon="-1.18427">
        <ele>2.6</ele>
        <time>2022-06-02T10:45:07Z</time>
      </trkpt>
      <trkpt lat="49.42532" lon="-1.18426">
        <ele>2.6</ele>
        <time>2022-06-02T10:45:08Z</time>
      </trkpt>
      <trkpt lat="49.42531" lon="-1.18425">
        <ele>2.6</ele>
        <time>2022-06-02T10:45:09Z</time>
      </trkpt>
      <trkpt lat="49.42531" lon="-1.18423">
        <ele>2.6</ele>
        <time>2022-06-02T10:45:10Z</time>
      </trkpt>
      <trkpt lat="49.4253" lon="-1.18422">
        <ele>2.6</ele>
        <time>2022-06-02T10:45:12Z</time>
      </trkpt>
      <trkpt lat="49.42529" lon="-1.18421">
        <ele>2.7</ele>
        <time>2022-06-02T10:45:13Z</time>
      </trkpt>
      <trkpt lat="49.42528" lon="-1.18419">
        <ele>2.7</ele>
        <time>2022-06-02T10:45:14Z</time>
      </trkpt>
      <trkpt lat="49.42527" lon="-1.18417">
        <ele>2.6</ele>
        <time>2022-06-02T10:45:15Z</time>
      </trkpt>
      <trkpt lat="49.42527" lon="-1.18416">
        <ele>2.6</ele>
        <time>2022-06-02T10:45:16Z</time>
      </trkpt>
      <trkpt lat="49.42526" lon="-1.18415">
        <ele>2.6</ele>
        <time>2022-06-02T10:45:18Z</time>
      </trkpt>
      <trkpt lat="49.42525" lon="-1.18414">
        <ele>2.6</ele>
        <time>2022-06-02T10:45:19Z</time>
      </trkpt>
      <trkpt lat="49.42524" lon="-1.18412">
        <ele>2.6</ele>
        <time>2022-06-02T10:45:20Z</time>
      </trkpt>
      <trkpt lat="49.42523" lon="-1.18412">
        <ele>2.6</ele>
        <time>2022-06-02T10:45:21Z</time>
      </trkpt>
      <trkpt lat="49.42522" lon="-1.18411">
        <ele>2.6</ele>
        <time>2022-06-02T10:45:22Z</time>
      </trkpt>
      <trkpt lat="49.42521" lon="-1.18411">
        <ele>2.6</ele>
        <time>2022-06-02T10:45:23Z</time>
      </trkpt>
      <trkpt lat="49.42519" lon="-1.1841">
        <ele>2.6</ele>
        <time>2022-06-02T10:45:24Z</time>
      </trkpt>
      <trkpt lat="49.42518" lon="-1.18409">
        <ele>2.6</ele>
        <time>2022-06-02T10:45:26Z</time>
      </trkpt>
      <trkpt lat="49.42517" lon="-1.18408">
        <ele>2.6</ele>
        <time>2022-06-02T10:45:27Z</time>
      </trkpt>
      <trkpt lat="49.42516" lon="-1.18408">
        <ele>2.5</ele>
        <time>2022-06-02T10:45:28Z</time>
      </trkpt>
      <trkpt lat="49.42515" lon="-1.18407">
        <ele>2.5</ele>
        <time>2022-06-02T10:45:29Z</time>
      </trkpt>
      <trkpt lat="49.42514" lon="-1.18407">
        <ele>2.5</ele>
        <time>2022-06-02T10:45:30Z</time>
      </trkpt>
      <trkpt lat="49.42513" lon="-1.18406">
        <ele>2.5</ele>
        <time>2022-06-02T10:45:31Z</time>
      </trkpt>
      <trkpt lat="49.42511" lon="-1.18405">
        <ele>2.5</ele>
        <time>2022-06-02T10:45:33Z</time>
      </trkpt>
      <trkpt lat="49.42511" lon="-1.18404">
        <ele>2.5</ele>
        <time>2022-06-02T10:45:34Z</time>
      </trkpt>
      <trkpt lat="49.4251" lon="-1.18403">
        <ele>2.5</ele>
        <time>2022-06-02T10:45:35Z</time>
      </trkpt>
      <trkpt lat="49.42509" lon="-1.18403">
        <ele>2.5</ele>
        <time>2022-06-02T10:45:36Z</time>
      </trkpt>
      <trkpt lat="49.42508" lon="-1.18402">
        <ele>2.5</ele>
        <time>2022-06-02T10:45:37Z</time>
      </trkpt>
      <trkpt lat="49.42507" lon="-1.18402">
        <ele>2.5</ele>
        <time>2022-06-02T10:45:38Z</time>
      </trkpt>
      <trkpt lat="49.42505" lon="-1.18403">
        <ele>2.5</ele>
        <time>2022-06-02T10:45:41Z</time>
      </trkpt>
      <trkpt lat="49.42504" lon="-1.18404">
        <ele>2.5</ele>
        <time>2022-06-02T10:45:42Z</time>
      </trkpt>
      <trkpt lat="49.42504" lon="-1.18405">
        <ele>2.5</ele>
        <time>2022-06-02T10:45:43Z</time>
      </trkpt>
      <trkpt lat="49.42504" lon="-1.18406">
        <ele>2.5</ele>
        <time>2022-06-02T10:45:44Z</time>
      </trkpt>
      <trkpt lat="49.42503" lon="-1.18406">
        <ele>2.5</ele>
        <time>2022-06-02T10:45:45Z</time>
      </trkpt>
      <trkpt lat="49.42502" lon="-1.18406">
        <ele>2.5</ele>
        <time>2022-06-02T10:45:46Z</time>
      </trkpt>
      <trkpt lat="49.42502" lon="-1.18405">
        <ele>2.5</ele>
        <time>2022-06-02T10:45:48Z</time>
      </trkpt>
      <trkpt lat="49.42501" lon="-1.18404">
        <ele>2.5</ele>
        <time>2022-06-02T10:45:49Z</time>
      </trkpt>
      <trkpt lat="49.425" lon="-1.18403">
        <ele>2.5</ele>
        <time>2022-06-02T10:45:50Z</time>
      </trkpt>
      <trkpt lat="49.425" lon="-1.18402">
        <ele>2.5</ele>
        <time>2022-06-02T10:45:51Z</time>
      </trkpt>
      <trkpt lat="49.42499" lon="-1.184">
        <ele>2.5</ele>
        <time>2022-06-02T10:45:52Z</time>
      </trkpt>
      <trkpt lat="49.42498" lon="-1.18399">
        <ele>2.5</ele>
        <time>2022-06-02T10:45:53Z</time>
      </trkpt>
      <trkpt lat="49.42497" lon="-1.18397">
        <ele>2.5</ele>
        <time>2022-06-02T10:45:55Z</time>
      </trkpt>
      <trkpt lat="49.42496" lon="-1.18396">
        <ele>2.5</ele>
        <time>2022-06-02T10:45:56Z</time>
      </trkpt>
      <trkpt lat="49.42496" lon="-1.18395">
        <ele>2.5</ele>
        <time>2022-06-02T10:45:57Z</time>
      </trkpt>
      <trkpt lat="49.42495" lon="-1.18394">
        <ele>2.5</ele>
        <time>2022-06-02T10:45:58Z</time>
      </trkpt>
      <trkpt lat="49.42494" lon="-1.18392">
        <ele>2.5</ele>
        <time>2022-06-02T10:45:59Z</time>
      </trkpt>
      <trkpt lat="49.42493" lon="-1.18391">
        <ele>2.5</ele>
        <time>2022-06-02T10:46:00Z</time>
      </trkpt>
      <trkpt lat="49.42493" lon="-1.1839">
        <ele>2.5</ele>
        <time>2022-06-02T10:46:01Z</time>
      </trkpt>
      <trkpt lat="49.42492" lon="-1.18389">
        <ele>2.5</ele>
        <time>2022-06-02T10:46:03Z</time>
      </trkpt>
      <trkpt lat="49.42491" lon="-1.18388">
        <ele>2.5</ele>
        <time>2022-06-02T10:46:04Z</time>
      </trkpt>
      <trkpt lat="49.4249" lon="-1.18387">
        <ele>2.4</ele>
        <time>2022-06-02T10:46:05Z</time>
      </trkpt>
      <trkpt lat="49.4249" lon="-1.18386">
        <ele>2.4</ele>
        <time>2022-06-02T10:46:06Z</time>
      </trkpt>
      <trkpt lat="49.42489" lon="-1.18385">
        <ele>2.4</ele>
        <time>2022-06-02T10:46:07Z</time>
      </trkpt>
      <trkpt lat="49.42489" lon="-1.18385">
        <ele>2.4</ele>
        <time>2022-06-02T10:46:08Z</time>
      </trkpt>
      <trkpt lat="49.42486" lon="-1.18384">
        <ele>2.4</ele>
        <time>2022-06-02T10:46:10Z</time>
      </trkpt>
      <trkpt lat="49.42485" lon="-1.18384">
        <ele>2.4</ele>
        <time>2022-06-02T10:46:12Z</time>
      </trkpt>
      <trkpt lat="49.42484" lon="-1.18383">
        <ele>2.3</ele>
        <time>2022-06-02T10:46:13Z</time>
      </trkpt>
      <trkpt lat="49.42483" lon="-1.18382">
        <ele>2.3</ele>
        <time>2022-06-02T10:46:14Z</time>
      </trkpt>
      <trkpt lat="49.42482" lon="-1.18381">
        <ele>2.3</ele>
        <time>2022-06-02T10:46:15Z</time>
      </trkpt>
      <trkpt lat="49.42481" lon="-1.1838">
        <ele>2.3</ele>
        <time>2022-06-02T10:46:16Z</time>
      </trkpt>
      <trkpt lat="49.42481" lon="-1.18379">
        <ele>2.3</ele>
        <time>2022-06-02T10:46:17Z</time>
      </trkpt>
      <trkpt lat="49.4248" lon="-1.18378">
        <ele>2.3</ele>
        <time>2022-06-02T10:46:18Z</time>
      </trkpt>
      <trkpt lat="49.42478" lon="-1.18376">
        <ele>2.4</ele>
        <time>2022-06-02T10:46:20Z</time>
      </trkpt>
      <trkpt lat="49.42477" lon="-1.18375">
        <ele>2.4</ele>
        <time>2022-06-02T10:46:21Z</time>
      </trkpt>
      <trkpt lat="49.42476" lon="-1.18374">
        <ele>2.4</ele>
        <time>2022-06-02T10:46:22Z</time>
      </trkpt>
      <trkpt lat="49.42475" lon="-1.18373">
        <ele>2.4</ele>
        <time>2022-06-02T10:46:23Z</time>
      </trkpt>
      <trkpt lat="49.42474" lon="-1.18373">
        <ele>2.4</ele>
        <time>2022-06-02T10:46:24Z</time>
      </trkpt>
      <trkpt lat="49.42474" lon="-1.18372">
        <ele>2.4</ele>
        <time>2022-06-02T10:46:25Z</time>
      </trkpt>
      <trkpt lat="49.42474" lon="-1.18372">
        <ele>2.4</ele>
        <time>2022-06-02T10:46:27Z</time>
      </trkpt>
      <trkpt lat="49.42472" lon="-1.18371">
        <ele>2.4</ele>
        <time>2022-06-02T10:46:28Z</time>
      </trkpt>
      <trkpt lat="49.42471" lon="-1.1837">
        <ele>2.4</ele>
        <time>2022-06-02T10:46:29Z</time>
      </trkpt>
      <trkpt lat="49.4247" lon="-1.18369">
        <ele>2.5</ele>
        <time>2022-06-02T10:46:30Z</time>
      </trkpt>
      <trkpt lat="49.42469" lon="-1.18367">
        <ele>2.5</ele>
        <time>2022-06-02T10:46:31Z</time>
      </trkpt>
      <trkpt lat="49.42469" lon="-1.18367">
        <ele>2.5</ele>
        <time>2022-06-02T10:46:32Z</time>
      </trkpt>
      <trkpt lat="49.42468" lon="-1.18366">
        <ele>2.5</ele>
        <time>2022-06-02T10:46:34Z</time>
      </trkpt>
      <trkpt lat="49.42467" lon="-1.18365">
        <ele>2.5</ele>
        <time>2022-06-02T10:46:35Z</time>
      </trkpt>
      <trkpt lat="49.42466" lon="-1.18364">
        <ele>2.5</ele>
        <time>2022-06-02T10:46:36Z</time>
      </trkpt>
      <trkpt lat="49.42466" lon="-1.18363">
        <ele>2.4</ele>
        <time>2022-06-02T10:46:37Z</time>
      </trkpt>
      <trkpt lat="49.42465" lon="-1.18362">
        <ele>2.4</ele>
        <time>2022-06-02T10:46:38Z</time>
      </trkpt>
      <trkpt lat="49.42464" lon="-1.18361">
        <ele>2.4</ele>
        <time>2022-06-02T10:46:39Z</time>
      </trkpt>
      <trkpt lat="49.42463" lon="-1.18359">
        <ele>2.4</ele>
        <time>2022-06-02T10:46:40Z</time>
      </trkpt>
      <trkpt lat="49.42462" lon="-1.18358">
        <ele>2.3</ele>
        <time>2022-06-02T10:46:41Z</time>
      </trkpt>
      <trkpt lat="49.42461" lon="-1.18356">
        <ele>2.3</ele>
        <time>2022-06-02T10:46:43Z</time>
      </trkpt>
      <trkpt lat="49.42461" lon="-1.18356">
        <ele>2.3</ele>
        <time>2022-06-02T10:46:44Z</time>
      </trkpt>
      <trkpt lat="49.4246" lon="-1.18355">
        <ele>2.3</ele>
        <time>2022-06-02T10:46:45Z</time>
      </trkpt>
      <trkpt lat="49.42459" lon="-1.18354">
        <ele>2.2</ele>
        <time>2022-06-02T10:46:46Z</time>
      </trkpt>
      <trkpt lat="49.42458" lon="-1.18353">
        <ele>2.2</ele>
        <time>2022-06-02T10:46:47Z</time>
      </trkpt>
      <trkpt lat="49.42458" lon="-1.18352">
        <ele>2.2</ele>
        <time>2022-06-02T10:46:48Z</time>
      </trkpt>
      <trkpt lat="49.42457" lon="-1.1835">
        <ele>2.2</ele>
        <time>2022-06-02T10:46:49Z</time>
      </trkpt>
      <trkpt lat="49.42456" lon="-1.18349">
        <ele>2.1</ele>
        <time>2022-06-02T10:46:50Z</time>
      </trkpt>
      <trkpt lat="49.42455" lon="-1.18348">
        <ele>2.1</ele>
        <time>2022-06-02T10:46:52Z</time>
      </trkpt>
      <trkpt lat="49.42454" lon="-1.18347">
        <ele>2.1</ele>
        <time>2022-06-02T10:46:53Z</time>
      </trkpt>
      <trkpt lat="49.42454" lon="-1.18346">
        <ele>2</ele>
        <time>2022-06-02T10:46:54Z</time>
      </trkpt>
      <trkpt lat="49.42453" lon="-1.18345">
        <ele>2</ele>
        <time>2022-06-02T10:46:55Z</time>
      </trkpt>
      <trkpt lat="49.42451" lon="-1.18343">
        <ele>2</ele>
        <time>2022-06-02T10:46:57Z</time>
      </trkpt>
      <trkpt lat="49.4245" lon="-1.18342">
        <ele>2</ele>
        <time>2022-06-02T10:46:58Z</time>
      </trkpt>
      <trkpt lat="49.42449" lon="-1.18342">
        <ele>2</ele>
        <time>2022-06-02T10:46:59Z</time>
      </trkpt>
      <trkpt lat="49.42449" lon="-1.18341">
        <ele>1.9</ele>
        <time>2022-06-02T10:47:00Z</time>
      </trkpt>
      <trkpt lat="49.42446" lon="-1.18339">
        <ele>2</ele>
        <time>2022-06-02T10:47:01Z</time>
      </trkpt>
      <trkpt lat="49.42446" lon="-1.18339">
        <ele>2</ele>
        <time>2022-06-02T10:47:02Z</time>
      </trkpt>
      <trkpt lat="49.42445" lon="-1.18338">
        <ele>2</ele>
        <time>2022-06-02T10:47:03Z</time>
      </trkpt>
      <trkpt lat="49.42443" lon="-1.18337">
        <ele>2</ele>
        <time>2022-06-02T10:47:05Z</time>
      </trkpt>
      <trkpt lat="49.42442" lon="-1.18336">
        <ele>2</ele>
        <time>2022-06-02T10:47:06Z</time>
      </trkpt>
      <trkpt lat="49.42441" lon="-1.18336">
        <ele>2</ele>
        <time>2022-06-02T10:47:07Z</time>
      </trkpt>
      <trkpt lat="49.42439" lon="-1.18334">
        <ele>2.1</ele>
        <time>2022-06-02T10:47:08Z</time>
      </trkpt>
      <trkpt lat="49.42439" lon="-1.18333">
        <ele>2.1</ele>
        <time>2022-06-02T10:47:09Z</time>
      </trkpt>
      <trkpt lat="49.42438" lon="-1.18333">
        <ele>2.1</ele>
        <time>2022-06-02T10:47:10Z</time>
      </trkpt>
      <trkpt lat="49.42437" lon="-1.18332">
        <ele>2.1</ele>
        <time>2022-06-02T10:47:11Z</time>
      </trkpt>
      <trkpt lat="49.42436" lon="-1.18331">
        <ele>2.1</ele>
        <time>2022-06-02T10:47:13Z</time>
      </trkpt>
      <trkpt lat="49.42435" lon="-1.18329">
        <ele>2.1</ele>
        <time>2022-06-02T10:47:14Z</time>
      </trkpt>
      <trkpt lat="49.42434" lon="-1.18328">
        <ele>2.1</ele>
        <time>2022-06-02T10:47:15Z</time>
      </trkpt>
      <trkpt lat="49.42434" lon="-1.18326">
        <ele>2.1</ele>
        <time>2022-06-02T10:47:17Z</time>
      </trkpt>
      <trkpt lat="49.42434" lon="-1.18325">
        <ele>2.1</ele>
        <time>2022-06-02T10:47:18Z</time>
      </trkpt>
      <trkpt lat="49.42432" lon="-1.18324">
        <ele>2.1</ele>
        <time>2022-06-02T10:47:19Z</time>
      </trkpt>
      <trkpt lat="49.42431" lon="-1.18323">
        <ele>2.1</ele>
        <time>2022-06-02T10:47:20Z</time>
      </trkpt>
      <trkpt lat="49.4243" lon="-1.18321">
        <ele>2.1</ele>
        <time>2022-06-02T10:47:21Z</time>
      </trkpt>
      <trkpt lat="49.42429" lon="-1.1832">
        <ele>2</ele>
        <time>2022-06-02T10:47:22Z</time>
      </trkpt>
      <trkpt lat="49.42428" lon="-1.18319">
        <ele>2</ele>
        <time>2022-06-02T10:47:23Z</time>
      </trkpt>
      <trkpt lat="49.42427" lon="-1.18319">
        <ele>2</ele>
        <time>2022-06-02T10:47:25Z</time>
      </trkpt>
      <trkpt lat="49.42426" lon="-1.18319">
        <ele>2</ele>
        <time>2022-06-02T10:47:26Z</time>
      </trkpt>
      <trkpt lat="49.42425" lon="-1.18318">
        <ele>1.9</ele>
        <time>2022-06-02T10:47:27Z</time>
      </trkpt>
      <trkpt lat="49.42424" lon="-1.18317">
        <ele>1.8</ele>
        <time>2022-06-02T10:47:28Z</time>
      </trkpt>
      <trkpt lat="49.42424" lon="-1.18316">
        <ele>1.8</ele>
        <time>2022-06-02T10:47:29Z</time>
      </trkpt>
      <trkpt lat="49.42422" lon="-1.18314">
        <ele>1.7</ele>
        <time>2022-06-02T10:47:30Z</time>
      </trkpt>
      <trkpt lat="49.42421" lon="-1.18313">
        <ele>1.7</ele>
        <time>2022-06-02T10:47:31Z</time>
      </trkpt>
      <trkpt lat="49.42421" lon="-1.18312">
        <ele>1.6</ele>
        <time>2022-06-02T10:47:32Z</time>
      </trkpt>
      <trkpt lat="49.4242" lon="-1.18311">
        <ele>1.6</ele>
        <time>2022-06-02T10:47:34Z</time>
      </trkpt>
      <trkpt lat="49.42418" lon="-1.1831">
        <ele>1.6</ele>
        <time>2022-06-02T10:47:35Z</time>
      </trkpt>
      <trkpt lat="49.42417" lon="-1.18309">
        <ele>1.6</ele>
        <time>2022-06-02T10:47:36Z</time>
      </trkpt>
      <trkpt lat="49.42416" lon="-1.18308">
        <ele>1.6</ele>
        <time>2022-06-02T10:47:37Z</time>
      </trkpt>
      <trkpt lat="49.42415" lon="-1.18307">
        <ele>1.6</ele>
        <time>2022-06-02T10:47:38Z</time>
      </trkpt>
      <trkpt lat="49.42414" lon="-1.18306">
        <ele>1.5</ele>
        <time>2022-06-02T10:47:39Z</time>
      </trkpt>
      <trkpt lat="49.42414" lon="-1.18305">
        <ele>1.7</ele>
        <time>2022-06-02T10:47:40Z</time>
      </trkpt>
      <trkpt lat="49.42414" lon="-1.18305">
        <ele>1.7</ele>
        <time>2022-06-02T10:47:42Z</time>
      </trkpt>
      <trkpt lat="49.42413" lon="-1.18303">
        <ele>1.7</ele>
        <time>2022-06-02T10:47:43Z</time>
      </trkpt>
      <trkpt lat="49.42412" lon="-1.18302">
        <ele>1.7</ele>
        <time>2022-06-02T10:47:44Z</time>
      </trkpt>
      <trkpt lat="49.42412" lon="-1.18301">
        <ele>1.6</ele>
        <time>2022-06-02T10:47:45Z</time>
      </trkpt>
      <trkpt lat="49.42411" lon="-1.18299">
        <ele>1.8</ele>
        <time>2022-06-02T10:47:46Z</time>
      </trkpt>
      <trkpt lat="49.4241" lon="-1.18298">
        <ele>1.8</ele>
        <time>2022-06-02T10:47:47Z</time>
      </trkpt>
      <trkpt lat="49.42408" lon="-1.18297">
        <ele>1.8</ele>
        <time>2022-06-02T10:47:49Z</time>
      </trkpt>
      <trkpt lat="49.42408" lon="-1.18296">
        <ele>1.9</ele>
        <time>2022-06-02T10:47:50Z</time>
      </trkpt>
      <trkpt lat="49.42407" lon="-1.18295">
        <ele>1.9</ele>
        <time>2022-06-02T10:47:51Z</time>
      </trkpt>
      <trkpt lat="49.42406" lon="-1.18295">
        <ele>1.9</ele>
        <time>2022-06-02T10:47:52Z</time>
      </trkpt>
      <trkpt lat="49.42405" lon="-1.18294">
        <ele>1.9</ele>
        <time>2022-06-02T10:47:53Z</time>
      </trkpt>
      <trkpt lat="49.42405" lon="-1.18293">
        <ele>1.9</ele>
        <time>2022-06-02T10:47:54Z</time>
      </trkpt>
      <trkpt lat="49.42404" lon="-1.18293">
        <ele>1.9</ele>
        <time>2022-06-02T10:47:55Z</time>
      </trkpt>
      <trkpt lat="49.42403" lon="-1.18292">
        <ele>1.8</ele>
        <time>2022-06-02T10:47:57Z</time>
      </trkpt>
      <trkpt lat="49.42402" lon="-1.18291">
        <ele>1.9</ele>
        <time>2022-06-02T10:47:58Z</time>
      </trkpt>
      <trkpt lat="49.42401" lon="-1.1829">
        <ele>1.9</ele>
        <time>2022-06-02T10:47:59Z</time>
      </trkpt>
      <trkpt lat="49.42401" lon="-1.1829">
        <ele>1.8</ele>
        <time>2022-06-02T10:48:00Z</time>
      </trkpt>
      <trkpt lat="49.424" lon="-1.18289">
        <ele>1.8</ele>
        <time>2022-06-02T10:48:01Z</time>
      </trkpt>
      <trkpt lat="49.42399" lon="-1.18287">
        <ele>1.9</ele>
        <time>2022-06-02T10:48:02Z</time>
      </trkpt>
      <trkpt lat="49.42398" lon="-1.18286">
        <ele>1.8</ele>
        <time>2022-06-02T10:48:04Z</time>
      </trkpt>
      <trkpt lat="49.42398" lon="-1.18285">
        <ele>1.8</ele>
        <time>2022-06-02T10:48:05Z</time>
      </trkpt>
      <trkpt lat="49.42397" lon="-1.18284">
        <ele>1.8</ele>
        <time>2022-06-02T10:48:06Z</time>
      </trkpt>
      <trkpt lat="49.42396" lon="-1.18283">
        <ele>1.8</ele>
        <time>2022-06-02T10:48:07Z</time>
      </trkpt>
      <trkpt lat="49.42395" lon="-1.18281">
        <ele>1.7</ele>
        <time>2022-06-02T10:48:08Z</time>
      </trkpt>
      <trkpt lat="49.42394" lon="-1.1828">
        <ele>1.7</ele>
        <time>2022-06-02T10:48:09Z</time>
      </trkpt>
      <trkpt lat="49.42393" lon="-1.18279">
        <ele>1.7</ele>
        <time>2022-06-02T10:48:10Z</time>
      </trkpt>
      <trkpt lat="49.42393" lon="-1.18278">
        <ele>1.7</ele>
        <time>2022-06-02T10:48:12Z</time>
      </trkpt>
      <trkpt lat="49.42391" lon="-1.18277">
        <ele>1.7</ele>
        <time>2022-06-02T10:48:13Z</time>
      </trkpt>
      <trkpt lat="49.42391" lon="-1.18276">
        <ele>1.7</ele>
        <time>2022-06-02T10:48:14Z</time>
      </trkpt>
      <trkpt lat="49.42389" lon="-1.18274">
        <ele>1.7</ele>
        <time>2022-06-02T10:48:15Z</time>
      </trkpt>
      <trkpt lat="49.42389" lon="-1.18273">
        <ele>1.7</ele>
        <time>2022-06-02T10:48:16Z</time>
      </trkpt>
      <trkpt lat="49.42388" lon="-1.18271">
        <ele>1.7</ele>
        <time>2022-06-02T10:48:17Z</time>
      </trkpt>
      <trkpt lat="49.42387" lon="-1.18271">
        <ele>1.7</ele>
        <time>2022-06-02T10:48:18Z</time>
      </trkpt>
      <trkpt lat="49.42387" lon="-1.1827">
        <ele>1.8</ele>
        <time>2022-06-02T10:48:20Z</time>
      </trkpt>
      <trkpt lat="49.42386" lon="-1.18269">
        <ele>1.8</ele>
        <time>2022-06-02T10:48:21Z</time>
      </trkpt>
      <trkpt lat="49.42385" lon="-1.18268">
        <ele>1.8</ele>
        <time>2022-06-02T10:48:22Z</time>
      </trkpt>
      <trkpt lat="49.42384" lon="-1.18267">
        <ele>1.8</ele>
        <time>2022-06-02T10:48:23Z</time>
      </trkpt>
      <trkpt lat="49.42383" lon="-1.18266">
        <ele>1.9</ele>
        <time>2022-06-02T10:48:24Z</time>
      </trkpt>
      <trkpt lat="49.42383" lon="-1.18264">
        <ele>1.9</ele>
        <time>2022-06-02T10:48:25Z</time>
      </trkpt>
      <trkpt lat="49.42382" lon="-1.18264">
        <ele>1.9</ele>
        <time>2022-06-02T10:48:27Z</time>
      </trkpt>
      <trkpt lat="49.42381" lon="-1.18262">
        <ele>1.9</ele>
        <time>2022-06-02T10:48:28Z</time>
      </trkpt>
      <trkpt lat="49.4238" lon="-1.18262">
        <ele>1.9</ele>
        <time>2022-06-02T10:48:29Z</time>
      </trkpt>
      <trkpt lat="49.42378" lon="-1.1826">
        <ele>1.9</ele>
        <time>2022-06-02T10:48:30Z</time>
      </trkpt>
      <trkpt lat="49.42377" lon="-1.1826">
        <ele>1.9</ele>
        <time>2022-06-02T10:48:31Z</time>
      </trkpt>
      <trkpt lat="49.42376" lon="-1.18259">
        <ele>1.9</ele>
        <time>2022-06-02T10:48:32Z</time>
      </trkpt>
      <trkpt lat="49.42376" lon="-1.18259">
        <ele>1.8</ele>
        <time>2022-06-02T10:48:34Z</time>
      </trkpt>
      <trkpt lat="49.42375" lon="-1.18258">
        <ele>1.8</ele>
        <time>2022-06-02T10:48:35Z</time>
      </trkpt>
      <trkpt lat="49.42374" lon="-1.18258">
        <ele>1.8</ele>
        <time>2022-06-02T10:48:36Z</time>
      </trkpt>
      <trkpt lat="49.42373" lon="-1.18257">
        <ele>1.8</ele>
        <time>2022-06-02T10:48:37Z</time>
      </trkpt>
      <trkpt lat="49.42372" lon="-1.18256">
        <ele>1.8</ele>
        <time>2022-06-02T10:48:38Z</time>
      </trkpt>
      <trkpt lat="49.42371" lon="-1.18255">
        <ele>1.8</ele>
        <time>2022-06-02T10:48:39Z</time>
      </trkpt>
      <trkpt lat="49.42369" lon="-1.18253">
        <ele>1.7</ele>
        <time>2022-06-02T10:48:40Z</time>
      </trkpt>
      <trkpt lat="49.42368" lon="-1.18252">
        <ele>1.7</ele>
        <time>2022-06-02T10:48:42Z</time>
      </trkpt>
      <trkpt lat="49.42367" lon="-1.18252">
        <ele>1.6</ele>
        <time>2022-06-02T10:48:43Z</time>
      </trkpt>
      <trkpt lat="49.42366" lon="-1.18251">
        <ele>1.6</ele>
        <time>2022-06-02T10:48:44Z</time>
      </trkpt>
      <trkpt lat="49.42366" lon="-1.1825">
        <ele>1.6</ele>
        <time>2022-06-02T10:48:45Z</time>
      </trkpt>
      <trkpt lat="49.42365" lon="-1.18249">
        <ele>1.5</ele>
        <time>2022-06-02T10:48:46Z</time>
      </trkpt>
      <trkpt lat="49.42363" lon="-1.18248">
        <ele>1.6</ele>
        <time>2022-06-02T10:48:47Z</time>
      </trkpt>
      <trkpt lat="49.42363" lon="-1.18246">
        <ele>1.6</ele>
        <time>2022-06-02T10:48:48Z</time>
      </trkpt>
      <trkpt lat="49.42362" lon="-1.18245">
        <ele>1.6</ele>
        <time>2022-06-02T10:48:50Z</time>
      </trkpt>
      <trkpt lat="49.42361" lon="-1.18244">
        <ele>1.7</ele>
        <time>2022-06-02T10:48:51Z</time>
      </trkpt>
      <trkpt lat="49.4236" lon="-1.18244">
        <ele>1.7</ele>
        <time>2022-06-02T10:48:52Z</time>
      </trkpt>
      <trkpt lat="49.42359" lon="-1.18243">
        <ele>1.6</ele>
        <time>2022-06-02T10:48:53Z</time>
      </trkpt>
      <trkpt lat="49.42358" lon="-1.18242">
        <ele>1.6</ele>
        <time>2022-06-02T10:48:54Z</time>
      </trkpt>
      <trkpt lat="49.42357" lon="-1.18241">
        <ele>1.6</ele>
        <time>2022-06-02T10:48:55Z</time>
      </trkpt>
      <trkpt lat="49.42356" lon="-1.1824">
        <ele>1.7</ele>
        <time>2022-06-02T10:48:57Z</time>
      </trkpt>
      <trkpt lat="49.42355" lon="-1.18239">
        <ele>1.7</ele>
        <time>2022-06-02T10:48:58Z</time>
      </trkpt>
      <trkpt lat="49.42355" lon="-1.18238">
        <ele>1.7</ele>
        <time>2022-06-02T10:48:59Z</time>
      </trkpt>
      <trkpt lat="49.42354" lon="-1.18237">
        <ele>1.7</ele>
        <time>2022-06-02T10:49:00Z</time>
      </trkpt>
      <trkpt lat="49.42353" lon="-1.18236">
        <ele>1.7</ele>
        <time>2022-06-02T10:49:01Z</time>
      </trkpt>
      <trkpt lat="49.42352" lon="-1.18234">
        <ele>1.8</ele>
        <time>2022-06-02T10:49:03Z</time>
      </trkpt>
      <trkpt lat="49.42351" lon="-1.18233">
        <ele>1.7</ele>
        <time>2022-06-02T10:49:04Z</time>
      </trkpt>
      <trkpt lat="49.4235" lon="-1.18232">
        <ele>1.7</ele>
        <time>2022-06-02T10:49:05Z</time>
      </trkpt>
      <trkpt lat="49.42349" lon="-1.18231">
        <ele>1.8</ele>
        <time>2022-06-02T10:49:06Z</time>
      </trkpt>
      <trkpt lat="49.42348" lon="-1.18229">
        <ele>1.8</ele>
        <time>2022-06-02T10:49:08Z</time>
      </trkpt>
      <trkpt lat="49.42348" lon="-1.18228">
        <ele>1.7</ele>
        <time>2022-06-02T10:49:09Z</time>
      </trkpt>
      <trkpt lat="49.42347" lon="-1.18228">
        <ele>1.7</ele>
        <time>2022-06-02T10:49:10Z</time>
      </trkpt>
      <trkpt lat="49.42345" lon="-1.18226">
        <ele>1.6</ele>
        <time>2022-06-02T10:49:11Z</time>
      </trkpt>
      <trkpt lat="49.42345" lon="-1.18225">
        <ele>1.6</ele>
        <time>2022-06-02T10:49:12Z</time>
      </trkpt>
      <trkpt lat="49.42344" lon="-1.18224">
        <ele>1.6</ele>
        <time>2022-06-02T10:49:13Z</time>
      </trkpt>
      <trkpt lat="49.42343" lon="-1.18223">
        <ele>1.6</ele>
        <time>2022-06-02T10:49:15Z</time>
      </trkpt>
      <trkpt lat="49.42343" lon="-1.18222">
        <ele>1.6</ele>
        <time>2022-06-02T10:49:16Z</time>
      </trkpt>
      <trkpt lat="49.42342" lon="-1.18221">
        <ele>1.6</ele>
        <time>2022-06-02T10:49:17Z</time>
      </trkpt>
      <trkpt lat="49.4234" lon="-1.1822">
        <ele>1.6</ele>
        <time>2022-06-02T10:49:18Z</time>
      </trkpt>
      <trkpt lat="49.42339" lon="-1.1822">
        <ele>1.5</ele>
        <time>2022-06-02T10:49:19Z</time>
      </trkpt>
      <trkpt lat="49.42338" lon="-1.18219">
        <ele>1.5</ele>
        <time>2022-06-02T10:49:21Z</time>
      </trkpt>
      <trkpt lat="49.42337" lon="-1.18218">
        <ele>1.5</ele>
        <time>2022-06-02T10:49:22Z</time>
      </trkpt>
      <trkpt lat="49.42336" lon="-1.18217">
        <ele>1.5</ele>
        <time>2022-06-02T10:49:23Z</time>
      </trkpt>
      <trkpt lat="49.42335" lon="-1.18217">
        <ele>1.5</ele>
        <time>2022-06-02T10:49:24Z</time>
      </trkpt>
      <trkpt lat="49.42335" lon="-1.18216">
        <ele>1.5</ele>
        <time>2022-06-02T10:49:25Z</time>
      </trkpt>
      <trkpt lat="49.42334" lon="-1.18215">
        <ele>1.6</ele>
        <time>2022-06-02T10:49:26Z</time>
      </trkpt>
      <trkpt lat="49.42332" lon="-1.18213">
        <ele>1.6</ele>
        <time>2022-06-02T10:49:28Z</time>
      </trkpt>
      <trkpt lat="49.42332" lon="-1.18212">
        <ele>1.6</ele>
        <time>2022-06-02T10:49:29Z</time>
      </trkpt>
      <trkpt lat="49.42331" lon="-1.18211">
        <ele>1.6</ele>
        <time>2022-06-02T10:49:31Z</time>
      </trkpt>
      <trkpt lat="49.4233" lon="-1.1821">
        <ele>1.6</ele>
        <time>2022-06-02T10:49:32Z</time>
      </trkpt>
      <trkpt lat="49.42328" lon="-1.18209">
        <ele>1.6</ele>
        <time>2022-06-02T10:49:33Z</time>
      </trkpt>
      <trkpt lat="49.42328" lon="-1.18209">
        <ele>1.6</ele>
        <time>2022-06-02T10:49:34Z</time>
      </trkpt>
      <trkpt lat="49.42327" lon="-1.18208">
        <ele>1.6</ele>
        <time>2022-06-02T10:49:35Z</time>
      </trkpt>
      <trkpt lat="49.42325" lon="-1.18205">
        <ele>1.7</ele>
        <time>2022-06-02T10:49:36Z</time>
      </trkpt>
      <trkpt lat="49.42324" lon="-1.18204">
        <ele>1.7</ele>
        <time>2022-06-02T10:49:38Z</time>
      </trkpt>
      <trkpt lat="49.42323" lon="-1.18203">
        <ele>1.7</ele>
        <time>2022-06-02T10:49:39Z</time>
      </trkpt>
      <trkpt lat="49.42322" lon="-1.18202">
        <ele>1.6</ele>
        <time>2022-06-02T10:49:40Z</time>
      </trkpt>
      <trkpt lat="49.42321" lon="-1.18201">
        <ele>1.6</ele>
        <time>2022-06-02T10:49:42Z</time>
      </trkpt>
      <trkpt lat="49.42321" lon="-1.182">
        <ele>1.6</ele>
        <time>2022-06-02T10:49:43Z</time>
      </trkpt>
      <trkpt lat="49.4232" lon="-1.18198">
        <ele>1.6</ele>
        <time>2022-06-02T10:49:44Z</time>
      </trkpt>
      <trkpt lat="49.42319" lon="-1.18197">
        <ele>1.6</ele>
        <time>2022-06-02T10:49:45Z</time>
      </trkpt>
      <trkpt lat="49.42318" lon="-1.18196">
        <ele>1.6</ele>
        <time>2022-06-02T10:49:46Z</time>
      </trkpt>
      <trkpt lat="49.42317" lon="-1.18196">
        <ele>1.5</ele>
        <time>2022-06-02T10:49:47Z</time>
      </trkpt>
      <trkpt lat="49.42316" lon="-1.18195">
        <ele>1.5</ele>
        <time>2022-06-02T10:49:49Z</time>
      </trkpt>
      <trkpt lat="49.42315" lon="-1.18194">
        <ele>1.5</ele>
        <time>2022-06-02T10:49:50Z</time>
      </trkpt>
      <trkpt lat="49.42314" lon="-1.18193">
        <ele>1.4</ele>
        <time>2022-06-02T10:49:51Z</time>
      </trkpt>
      <trkpt lat="49.42313" lon="-1.18192">
        <ele>1.4</ele>
        <time>2022-06-02T10:49:52Z</time>
      </trkpt>
      <trkpt lat="49.42312" lon="-1.18191">
        <ele>1.4</ele>
        <time>2022-06-02T10:49:53Z</time>
      </trkpt>
      <trkpt lat="49.42312" lon="-1.1819">
        <ele>1.4</ele>
        <time>2022-06-02T10:49:55Z</time>
      </trkpt>
      <trkpt lat="49.42311" lon="-1.18189">
        <ele>1.4</ele>
        <time>2022-06-02T10:49:56Z</time>
      </trkpt>
      <trkpt lat="49.42311" lon="-1.18188">
        <ele>1.4</ele>
        <time>2022-06-02T10:49:57Z</time>
      </trkpt>
      <trkpt lat="49.4231" lon="-1.18187">
        <ele>1.4</ele>
        <time>2022-06-02T10:49:58Z</time>
      </trkpt>
      <trkpt lat="49.42309" lon="-1.18186">
        <ele>1.4</ele>
        <time>2022-06-02T10:49:59Z</time>
      </trkpt>
      <trkpt lat="49.42309" lon="-1.18185">
        <ele>1.4</ele>
        <time>2022-06-02T10:50:01Z</time>
      </trkpt>
      <trkpt lat="49.42308" lon="-1.18184">
        <ele>1.5</ele>
        <time>2022-06-02T10:50:02Z</time>
      </trkpt>
      <trkpt lat="49.42307" lon="-1.18183">
        <ele>1.5</ele>
        <time>2022-06-02T10:50:03Z</time>
      </trkpt>
      <trkpt lat="49.42306" lon="-1.18182">
        <ele>1.5</ele>
        <time>2022-06-02T10:50:04Z</time>
      </trkpt>
      <trkpt lat="49.42305" lon="-1.18182">
        <ele>1.5</ele>
        <time>2022-06-02T10:50:05Z</time>
      </trkpt>
      <trkpt lat="49.42304" lon="-1.18181">
        <ele>1.5</ele>
        <time>2022-06-02T10:50:07Z</time>
      </trkpt>
      <trkpt lat="49.42303" lon="-1.18179">
        <ele>1.6</ele>
        <time>2022-06-02T10:50:08Z</time>
      </trkpt>
      <trkpt lat="49.42302" lon="-1.18179">
        <ele>1.6</ele>
        <time>2022-06-02T10:50:10Z</time>
      </trkpt>
      <trkpt lat="49.42301" lon="-1.18178">
        <ele>1.6</ele>
        <time>2022-06-02T10:50:11Z</time>
      </trkpt>
      <trkpt lat="49.42301" lon="-1.18177">
        <ele>1.6</ele>
        <time>2022-06-02T10:50:12Z</time>
      </trkpt>
      <trkpt lat="49.42299" lon="-1.18175">
        <ele>1.6</ele>
        <time>2022-06-02T10:50:13Z</time>
      </trkpt>
      <trkpt lat="49.42299" lon="-1.18175">
        <ele>1.6</ele>
        <time>2022-06-02T10:50:14Z</time>
      </trkpt>
      <trkpt lat="49.42298" lon="-1.18174">
        <ele>1.6</ele>
        <time>2022-06-02T10:50:15Z</time>
      </trkpt>
      <trkpt lat="49.42296" lon="-1.18172">
        <ele>1.6</ele>
        <time>2022-06-02T10:50:16Z</time>
      </trkpt>
      <trkpt lat="49.42296" lon="-1.18171">
        <ele>1.6</ele>
        <time>2022-06-02T10:50:18Z</time>
      </trkpt>
      <trkpt lat="49.42295" lon="-1.18171">
        <ele>1.5</ele>
        <time>2022-06-02T10:50:19Z</time>
      </trkpt>
      <trkpt lat="49.42294" lon="-1.1817">
        <ele>1.5</ele>
        <time>2022-06-02T10:50:20Z</time>
      </trkpt>
      <trkpt lat="49.42293" lon="-1.18169">
        <ele>1.5</ele>
        <time>2022-06-02T10:50:21Z</time>
      </trkpt>
      <trkpt lat="49.42293" lon="-1.18168">
        <ele>1.5</ele>
        <time>2022-06-02T10:50:22Z</time>
      </trkpt>
      <trkpt lat="49.42292" lon="-1.18166">
        <ele>1.4</ele>
        <time>2022-06-02T10:50:23Z</time>
      </trkpt>
      <trkpt lat="49.42291" lon="-1.18165">
        <ele>1.4</ele>
        <time>2022-06-02T10:50:25Z</time>
      </trkpt>
      <trkpt lat="49.4229" lon="-1.18164">
        <ele>1.4</ele>
        <time>2022-06-02T10:50:26Z</time>
      </trkpt>
      <trkpt lat="49.42289" lon="-1.18163">
        <ele>1.3</ele>
        <time>2022-06-02T10:50:27Z</time>
      </trkpt>
      <trkpt lat="49.42288" lon="-1.18162">
        <ele>1.3</ele>
        <time>2022-06-02T10:50:28Z</time>
      </trkpt>
      <trkpt lat="49.42287" lon="-1.18161">
        <ele>1.3</ele>
        <time>2022-06-02T10:50:29Z</time>
      </trkpt>
      <trkpt lat="49.42287" lon="-1.1816">
        <ele>1.3</ele>
        <time>2022-06-02T10:50:31Z</time>
      </trkpt>
      <trkpt lat="49.42286" lon="-1.18159">
        <ele>1.3</ele>
        <time>2022-06-02T10:50:32Z</time>
      </trkpt>
      <trkpt lat="49.42285" lon="-1.18158">
        <ele>1.3</ele>
        <time>2022-06-02T10:50:33Z</time>
      </trkpt>
      <trkpt lat="49.42284" lon="-1.18157">
        <ele>1.3</ele>
        <time>2022-06-02T10:50:34Z</time>
      </trkpt>
      <trkpt lat="49.42283" lon="-1.18156">
        <ele>1.3</ele>
        <time>2022-06-02T10:50:35Z</time>
      </trkpt>
      <trkpt lat="49.42282" lon="-1.18155">
        <ele>1.3</ele>
        <time>2022-06-02T10:50:36Z</time>
      </trkpt>
      <trkpt lat="49.42282" lon="-1.18153">
        <ele>1.4</ele>
        <time>2022-06-02T10:50:38Z</time>
      </trkpt>
      <trkpt lat="49.4228" lon="-1.18152">
        <ele>1.4</ele>
        <time>2022-06-02T10:50:39Z</time>
      </trkpt>
      <trkpt lat="49.4228" lon="-1.18151">
        <ele>1.4</ele>
        <time>2022-06-02T10:50:40Z</time>
      </trkpt>
      <trkpt lat="49.42278" lon="-1.18149">
        <ele>1.5</ele>
        <time>2022-06-02T10:50:41Z</time>
      </trkpt>
      <trkpt lat="49.42277" lon="-1.18148">
        <ele>1.5</ele>
        <time>2022-06-02T10:50:42Z</time>
      </trkpt>
      <trkpt lat="49.42277" lon="-1.18147">
        <ele>1.5</ele>
        <time>2022-06-02T10:50:43Z</time>
      </trkpt>
      <trkpt lat="49.42276" lon="-1.18146">
        <ele>1.5</ele>
        <time>2022-06-02T10:50:44Z</time>
      </trkpt>
      <trkpt lat="49.42275" lon="-1.18145">
        <ele>1.5</ele>
        <time>2022-06-02T10:50:46Z</time>
      </trkpt>
      <trkpt lat="49.42274" lon="-1.18144">
        <ele>1.5</ele>
        <time>2022-06-02T10:50:47Z</time>
      </trkpt>
      <trkpt lat="49.42273" lon="-1.18143">
        <ele>1.5</ele>
        <time>2022-06-02T10:50:48Z</time>
      </trkpt>
      <trkpt lat="49.42272" lon="-1.18142">
        <ele>1.5</ele>
        <time>2022-06-02T10:50:49Z</time>
      </trkpt>
      <trkpt lat="49.42271" lon="-1.1814">
        <ele>1.5</ele>
        <time>2022-06-02T10:50:50Z</time>
      </trkpt>
      <trkpt lat="49.42271" lon="-1.18139">
        <ele>1.5</ele>
        <time>2022-06-02T10:50:51Z</time>
      </trkpt>
      <trkpt lat="49.4227" lon="-1.18138">
        <ele>1.4</ele>
        <time>2022-06-02T10:50:53Z</time>
      </trkpt>
      <trkpt lat="49.42269" lon="-1.18137">
        <ele>1.4</ele>
        <time>2022-06-02T10:50:54Z</time>
      </trkpt>
      <trkpt lat="49.42268" lon="-1.18137">
        <ele>1.4</ele>
        <time>2022-06-02T10:50:55Z</time>
      </trkpt>
      <trkpt lat="49.42267" lon="-1.18135">
        <ele>1.3</ele>
        <time>2022-06-02T10:50:56Z</time>
      </trkpt>
      <trkpt lat="49.42266" lon="-1.18134">
        <ele>1.3</ele>
        <time>2022-06-02T10:50:57Z</time>
      </trkpt>
      <trkpt lat="49.42265" lon="-1.18133">
        <ele>1.3</ele>
        <time>2022-06-02T10:50:58Z</time>
      </trkpt>
      <trkpt lat="49.42264" lon="-1.18132">
        <ele>1.3</ele>
        <time>2022-06-02T10:51:00Z</time>
      </trkpt>
      <trkpt lat="49.42264" lon="-1.18131">
        <ele>1.2</ele>
        <time>2022-06-02T10:51:01Z</time>
      </trkpt>
      <trkpt lat="49.42263" lon="-1.1813">
        <ele>1.2</ele>
        <time>2022-06-02T10:51:02Z</time>
      </trkpt>
      <trkpt lat="49.42261" lon="-1.18129">
        <ele>1.2</ele>
        <time>2022-06-02T10:51:03Z</time>
      </trkpt>
      <trkpt lat="49.42261" lon="-1.18128">
        <ele>1.2</ele>
        <time>2022-06-02T10:51:04Z</time>
      </trkpt>
      <trkpt lat="49.4226" lon="-1.18127">
        <ele>1.2</ele>
        <time>2022-06-02T10:51:05Z</time>
      </trkpt>
      <trkpt lat="49.42259" lon="-1.18127">
        <ele>1.2</ele>
        <time>2022-06-02T10:51:07Z</time>
      </trkpt>
      <trkpt lat="49.42258" lon="-1.18125">
        <ele>1.2</ele>
        <time>2022-06-02T10:51:08Z</time>
      </trkpt>
      <trkpt lat="49.42257" lon="-1.18124">
        <ele>1.2</ele>
        <time>2022-06-02T10:51:09Z</time>
      </trkpt>
      <trkpt lat="49.42256" lon="-1.18123">
        <ele>1.2</ele>
        <time>2022-06-02T10:51:10Z</time>
      </trkpt>
      <trkpt lat="49.42256" lon="-1.18122">
        <ele>1.2</ele>
        <time>2022-06-02T10:51:11Z</time>
      </trkpt>
      <trkpt lat="49.42254" lon="-1.1812">
        <ele>1.3</ele>
        <time>2022-06-02T10:51:12Z</time>
      </trkpt>
      <trkpt lat="49.42253" lon="-1.18119">
        <ele>1.3</ele>
        <time>2022-06-02T10:51:13Z</time>
      </trkpt>
      <trkpt lat="49.42253" lon="-1.18118">
        <ele>1.3</ele>
        <time>2022-06-02T10:51:15Z</time>
      </trkpt>
      <trkpt lat="49.42252" lon="-1.18117">
        <ele>1.3</ele>
        <time>2022-06-02T10:51:16Z</time>
      </trkpt>
      <trkpt lat="49.42251" lon="-1.18116">
        <ele>1.3</ele>
        <time>2022-06-02T10:51:17Z</time>
      </trkpt>
      <trkpt lat="49.4225" lon="-1.18115">
        <ele>1.3</ele>
        <time>2022-06-02T10:51:18Z</time>
      </trkpt>
      <trkpt lat="49.4225" lon="-1.18114">
        <ele>1.3</ele>
        <time>2022-06-02T10:51:19Z</time>
      </trkpt>
      <trkpt lat="49.42249" lon="-1.18114">
        <ele>1.3</ele>
        <time>2022-06-02T10:51:20Z</time>
      </trkpt>
      <trkpt lat="49.42248" lon="-1.18113">
        <ele>1.3</ele>
        <time>2022-06-02T10:51:22Z</time>
      </trkpt>
      <trkpt lat="49.42246" lon="-1.18113">
        <ele>1.3</ele>
        <time>2022-06-02T10:51:23Z</time>
      </trkpt>
      <trkpt lat="49.42245" lon="-1.18113">
        <ele>1.3</ele>
        <time>2022-06-02T10:51:24Z</time>
      </trkpt>
      <trkpt lat="49.42244" lon="-1.18112">
        <ele>1.3</ele>
        <time>2022-06-02T10:51:25Z</time>
      </trkpt>
      <trkpt lat="49.42243" lon="-1.18111">
        <ele>1.3</ele>
        <time>2022-06-02T10:51:26Z</time>
      </trkpt>
      <trkpt lat="49.42243" lon="-1.1811">
        <ele>1.3</ele>
        <time>2022-06-02T10:51:27Z</time>
      </trkpt>
      <trkpt lat="49.42241" lon="-1.18109">
        <ele>1.3</ele>
        <time>2022-06-02T10:51:29Z</time>
      </trkpt>
      <trkpt lat="49.42241" lon="-1.18109">
        <ele>1.3</ele>
        <time>2022-06-02T10:51:30Z</time>
      </trkpt>
      <trkpt lat="49.4224" lon="-1.18108">
        <ele>1.3</ele>
        <time>2022-06-02T10:51:31Z</time>
      </trkpt>
      <trkpt lat="49.42239" lon="-1.18106">
        <ele>1.2</ele>
        <time>2022-06-02T10:51:32Z</time>
      </trkpt>
      <trkpt lat="49.42238" lon="-1.18105">
        <ele>1.2</ele>
        <time>2022-06-02T10:51:33Z</time>
      </trkpt>
      <trkpt lat="49.42238" lon="-1.18104">
        <ele>1.2</ele>
        <time>2022-06-02T10:51:35Z</time>
      </trkpt>
      <trkpt lat="49.42237" lon="-1.18103">
        <ele>1.2</ele>
        <time>2022-06-02T10:51:36Z</time>
      </trkpt>
      <trkpt lat="49.42235" lon="-1.18103">
        <ele>1.1</ele>
        <time>2022-06-02T10:51:37Z</time>
      </trkpt>
      <trkpt lat="49.42234" lon="-1.18103">
        <ele>1.1</ele>
        <time>2022-06-02T10:51:38Z</time>
      </trkpt>
      <trkpt lat="49.42233" lon="-1.18103">
        <ele>1.1</ele>
        <time>2022-06-02T10:51:39Z</time>
      </trkpt>
      <trkpt lat="49.42232" lon="-1.18102">
        <ele>1.1</ele>
        <time>2022-06-02T10:51:40Z</time>
      </trkpt>
      <trkpt lat="49.42232" lon="-1.18102">
        <ele>1.1</ele>
        <time>2022-06-02T10:51:42Z</time>
      </trkpt>
      <trkpt lat="49.42231" lon="-1.18101">
        <ele>1.1</ele>
        <time>2022-06-02T10:51:43Z</time>
      </trkpt>
      <trkpt lat="49.4223" lon="-1.18099">
        <ele>1.1</ele>
        <time>2022-06-02T10:51:44Z</time>
      </trkpt>
      <trkpt lat="49.42229" lon="-1.18098">
        <ele>1.1</ele>
        <time>2022-06-02T10:51:45Z</time>
      </trkpt>
      <trkpt lat="49.42228" lon="-1.18097">
        <ele>1.1</ele>
        <time>2022-06-02T10:51:46Z</time>
      </trkpt>
      <trkpt lat="49.42227" lon="-1.18096">
        <ele>1.1</ele>
        <time>2022-06-02T10:51:47Z</time>
      </trkpt>
      <trkpt lat="49.42226" lon="-1.18095">
        <ele>1.1</ele>
        <time>2022-06-02T10:51:49Z</time>
      </trkpt>
      <trkpt lat="49.42226" lon="-1.18094">
        <ele>1.1</ele>
        <time>2022-06-02T10:51:50Z</time>
      </trkpt>
      <trkpt lat="49.42225" lon="-1.18093">
        <ele>1.2</ele>
        <time>2022-06-02T10:51:51Z</time>
      </trkpt>
      <trkpt lat="49.42224" lon="-1.18093">
        <ele>1.2</ele>
        <time>2022-06-02T10:51:52Z</time>
      </trkpt>
      <trkpt lat="49.42223" lon="-1.18091">
        <ele>1.2</ele>
        <time>2022-06-02T10:51:53Z</time>
      </trkpt>
      <trkpt lat="49.42223" lon="-1.1809">
        <ele>1.2</ele>
        <time>2022-06-02T10:51:54Z</time>
      </trkpt>
      <trkpt lat="49.42222" lon="-1.1809">
        <ele>1.2</ele>
        <time>2022-06-02T10:51:55Z</time>
      </trkpt>
      <trkpt lat="49.42221" lon="-1.18089">
        <ele>1.2</ele>
        <time>2022-06-02T10:51:57Z</time>
      </trkpt>
      <trkpt lat="49.4222" lon="-1.18088">
        <ele>1.2</ele>
        <time>2022-06-02T10:51:58Z</time>
      </trkpt>
      <trkpt lat="49.42219" lon="-1.18087">
        <ele>1.2</ele>
        <time>2022-06-02T10:51:59Z</time>
      </trkpt>
      <trkpt lat="49.42219" lon="-1.18086">
        <ele>1.2</ele>
        <time>2022-06-02T10:52:00Z</time>
      </trkpt>
      <trkpt lat="49.42218" lon="-1.18085">
        <ele>1.2</ele>
        <time>2022-06-02T10:52:01Z</time>
      </trkpt>
      <trkpt lat="49.42217" lon="-1.18084">
        <ele>1.2</ele>
        <time>2022-06-02T10:52:02Z</time>
      </trkpt>
      <trkpt lat="49.42216" lon="-1.18082">
        <ele>1.2</ele>
        <time>2022-06-02T10:52:04Z</time>
      </trkpt>
      <trkpt lat="49.42215" lon="-1.1808">
        <ele>1.1</ele>
        <time>2022-06-02T10:52:05Z</time>
      </trkpt>
      <trkpt lat="49.42214" lon="-1.1808">
        <ele>1.1</ele>
        <time>2022-06-02T10:52:06Z</time>
      </trkpt>
      <trkpt lat="49.42213" lon="-1.18079">
        <ele>1.1</ele>
        <time>2022-06-02T10:52:07Z</time>
      </trkpt>
      <trkpt lat="49.42212" lon="-1.18078">
        <ele>1.1</ele>
        <time>2022-06-02T10:52:08Z</time>
      </trkpt>
      <trkpt lat="49.42212" lon="-1.18078">
        <ele>1.1</ele>
        <time>2022-06-02T10:52:09Z</time>
      </trkpt>
      <trkpt lat="49.42211" lon="-1.18077">
        <ele>1</ele>
        <time>2022-06-02T10:52:11Z</time>
      </trkpt>
      <trkpt lat="49.4221" lon="-1.18076">
        <ele>1</ele>
        <time>2022-06-02T10:52:12Z</time>
      </trkpt>
      <trkpt lat="49.42209" lon="-1.18075">
        <ele>1</ele>
        <time>2022-06-02T10:52:13Z</time>
      </trkpt>
      <trkpt lat="49.42208" lon="-1.18074">
        <ele>1</ele>
        <time>2022-06-02T10:52:14Z</time>
      </trkpt>
      <trkpt lat="49.42208" lon="-1.18073">
        <ele>0.9</ele>
        <time>2022-06-02T10:52:15Z</time>
      </trkpt>
      <trkpt lat="49.42207" lon="-1.18072">
        <ele>0.9</ele>
        <time>2022-06-02T10:52:17Z</time>
      </trkpt>
      <trkpt lat="49.42206" lon="-1.18071">
        <ele>0.9</ele>
        <time>2022-06-02T10:52:18Z</time>
      </trkpt>
      <trkpt lat="49.42205" lon="-1.18071">
        <ele>0.9</ele>
        <time>2022-06-02T10:52:19Z</time>
      </trkpt>
      <trkpt lat="49.42204" lon="-1.1807">
        <ele>0.9</ele>
        <time>2022-06-02T10:52:20Z</time>
      </trkpt>
      <trkpt lat="49.42204" lon="-1.18069">
        <ele>0.9</ele>
        <time>2022-06-02T10:52:21Z</time>
      </trkpt>
      <trkpt lat="49.42203" lon="-1.18068">
        <ele>1</ele>
        <time>2022-06-02T10:52:22Z</time>
      </trkpt>
      <trkpt lat="49.42202" lon="-1.18066">
        <ele>1</ele>
        <time>2022-06-02T10:52:24Z</time>
      </trkpt>
      <trkpt lat="49.42201" lon="-1.18065">
        <ele>0.9</ele>
        <time>2022-06-02T10:52:25Z</time>
      </trkpt>
      <trkpt lat="49.42201" lon="-1.18065">
        <ele>0.9</ele>
        <time>2022-06-02T10:52:26Z</time>
      </trkpt>
      <trkpt lat="49.422" lon="-1.18063">
        <ele>1</ele>
        <time>2022-06-02T10:52:27Z</time>
      </trkpt>
      <trkpt lat="49.42199" lon="-1.18062">
        <ele>1</ele>
        <time>2022-06-02T10:52:28Z</time>
      </trkpt>
      <trkpt lat="49.42199" lon="-1.18061">
        <ele>1</ele>
        <time>2022-06-02T10:52:29Z</time>
      </trkpt>
      <trkpt lat="49.42198" lon="-1.18059">
        <ele>1</ele>
        <time>2022-06-02T10:52:31Z</time>
      </trkpt>
      <trkpt lat="49.42197" lon="-1.18058">
        <ele>1</ele>
        <time>2022-06-02T10:52:32Z</time>
      </trkpt>
      <trkpt lat="49.42197" lon="-1.18057">
        <ele>1</ele>
        <time>2022-06-02T10:52:33Z</time>
      </trkpt>
      <trkpt lat="49.42196" lon="-1.18056">
        <ele>1</ele>
        <time>2022-06-02T10:52:34Z</time>
      </trkpt>
      <trkpt lat="49.42195" lon="-1.18055">
        <ele>1</ele>
        <time>2022-06-02T10:52:35Z</time>
      </trkpt>
      <trkpt lat="49.42195" lon="-1.18054">
        <ele>1</ele>
        <time>2022-06-02T10:52:36Z</time>
      </trkpt>
      <trkpt lat="49.42194" lon="-1.18052">
        <ele>1</ele>
        <time>2022-06-02T10:52:38Z</time>
      </trkpt>
      <trkpt lat="49.42193" lon="-1.18051">
        <ele>0.9</ele>
        <time>2022-06-02T10:52:39Z</time>
      </trkpt>
      <trkpt lat="49.42192" lon="-1.18049">
        <ele>1</ele>
        <time>2022-06-02T10:52:40Z</time>
      </trkpt>
      <trkpt lat="49.42191" lon="-1.18049">
        <ele>0.9</ele>
        <time>2022-06-02T10:52:41Z</time>
      </trkpt>
      <trkpt lat="49.4219" lon="-1.18048">
        <ele>0.9</ele>
        <time>2022-06-02T10:52:42Z</time>
      </trkpt>
      <trkpt lat="49.42189" lon="-1.18047">
        <ele>0.9</ele>
        <time>2022-06-02T10:52:43Z</time>
      </trkpt>
      <trkpt lat="49.42188" lon="-1.18046">
        <ele>0.9</ele>
        <time>2022-06-02T10:52:45Z</time>
      </trkpt>
      <trkpt lat="49.42187" lon="-1.18046">
        <ele>0.9</ele>
        <time>2022-06-02T10:52:46Z</time>
      </trkpt>
      <trkpt lat="49.42186" lon="-1.18045">
        <ele>0.9</ele>
        <time>2022-06-02T10:52:47Z</time>
      </trkpt>
      <trkpt lat="49.42185" lon="-1.18045">
        <ele>0.8</ele>
        <time>2022-06-02T10:52:48Z</time>
      </trkpt>
      <trkpt lat="49.42184" lon="-1.18044">
        <ele>0.8</ele>
        <time>2022-06-02T10:52:49Z</time>
      </trkpt>
      <trkpt lat="49.42183" lon="-1.18043">
        <ele>0.8</ele>
        <time>2022-06-02T10:52:50Z</time>
      </trkpt>
      <trkpt lat="49.42181" lon="-1.18042">
        <ele>0.8</ele>
        <time>2022-06-02T10:52:51Z</time>
      </trkpt>
      <trkpt lat="49.42181" lon="-1.18041">
        <ele>0.8</ele>
        <time>2022-06-02T10:52:53Z</time>
      </trkpt>
      <trkpt lat="49.4218" lon="-1.18041">
        <ele>0.8</ele>
        <time>2022-06-02T10:52:54Z</time>
      </trkpt>
      <trkpt lat="49.42178" lon="-1.1804">
        <ele>0.8</ele>
        <time>2022-06-02T10:52:55Z</time>
      </trkpt>
      <trkpt lat="49.42177" lon="-1.18039">
        <ele>0.8</ele>
        <time>2022-06-02T10:52:56Z</time>
      </trkpt>
      <trkpt lat="49.42176" lon="-1.18038">
        <ele>0.8</ele>
        <time>2022-06-02T10:52:57Z</time>
      </trkpt>
      <trkpt lat="49.42175" lon="-1.18038">
        <ele>0.8</ele>
        <time>2022-06-02T10:52:58Z</time>
      </trkpt>
      <trkpt lat="49.42175" lon="-1.18037">
        <ele>0.8</ele>
        <time>2022-06-02T10:53:00Z</time>
      </trkpt>
      <trkpt lat="49.42174" lon="-1.18037">
        <ele>0.8</ele>
        <time>2022-06-02T10:53:01Z</time>
      </trkpt>
      <trkpt lat="49.42173" lon="-1.18036">
        <ele>0.8</ele>
        <time>2022-06-02T10:53:02Z</time>
      </trkpt>
      <trkpt lat="49.42172" lon="-1.18035">
        <ele>0.8</ele>
        <time>2022-06-02T10:53:03Z</time>
      </trkpt>
      <trkpt lat="49.42171" lon="-1.18034">
        <ele>0.8</ele>
        <time>2022-06-02T10:53:04Z</time>
      </trkpt>
      <trkpt lat="49.4217" lon="-1.18033">
        <ele>0.8</ele>
        <time>2022-06-02T10:53:05Z</time>
      </trkpt>
      <trkpt lat="49.42169" lon="-1.18033">
        <ele>0.9</ele>
        <time>2022-06-02T10:53:07Z</time>
      </trkpt>
      <trkpt lat="49.42169" lon="-1.18032">
        <ele>0.9</ele>
        <time>2022-06-02T10:53:08Z</time>
      </trkpt>
      <trkpt lat="49.42168" lon="-1.18032">
        <ele>0.9</ele>
        <time>2022-06-02T10:53:09Z</time>
      </trkpt>
      <trkpt lat="49.42167" lon="-1.18031">
        <ele>0.9</ele>
        <time>2022-06-02T10:53:10Z</time>
      </trkpt>
      <trkpt lat="49.42166" lon="-1.1803">
        <ele>0.9</ele>
        <time>2022-06-02T10:53:11Z</time>
      </trkpt>
      <trkpt lat="49.42165" lon="-1.1803">
        <ele>0.9</ele>
        <time>2022-06-02T10:53:13Z</time>
      </trkpt>
      <trkpt lat="49.42164" lon="-1.18028">
        <ele>0.9</ele>
        <time>2022-06-02T10:53:14Z</time>
      </trkpt>
      <trkpt lat="49.42163" lon="-1.18027">
        <ele>0.9</ele>
        <time>2022-06-02T10:53:15Z</time>
      </trkpt>
      <trkpt lat="49.42162" lon="-1.18026">
        <ele>0.9</ele>
        <time>2022-06-02T10:53:16Z</time>
      </trkpt>
      <trkpt lat="49.42161" lon="-1.18026">
        <ele>0.8</ele>
        <time>2022-06-02T10:53:17Z</time>
      </trkpt>
      <trkpt lat="49.4216" lon="-1.18025">
        <ele>0.8</ele>
        <time>2022-06-02T10:53:18Z</time>
      </trkpt>
      <trkpt lat="49.42159" lon="-1.18023">
        <ele>0.8</ele>
        <time>2022-06-02T10:53:20Z</time>
      </trkpt>
      <trkpt lat="49.42158" lon="-1.18022">
        <ele>0.8</ele>
        <time>2022-06-02T10:53:21Z</time>
      </trkpt>
      <trkpt lat="49.42158" lon="-1.18021">
        <ele>0.7</ele>
        <time>2022-06-02T10:53:22Z</time>
      </trkpt>
      <trkpt lat="49.42156" lon="-1.1802">
        <ele>0.7</ele>
        <time>2022-06-02T10:53:23Z</time>
      </trkpt>
      <trkpt lat="49.42155" lon="-1.18019">
        <ele>0.7</ele>
        <time>2022-06-02T10:53:24Z</time>
      </trkpt>
      <trkpt lat="49.42155" lon="-1.18018">
        <ele>0.7</ele>
        <time>2022-06-02T10:53:25Z</time>
      </trkpt>
      <trkpt lat="49.42154" lon="-1.18017">
        <ele>0.7</ele>
        <time>2022-06-02T10:53:27Z</time>
      </trkpt>
      <trkpt lat="49.42153" lon="-1.18017">
        <ele>0.7</ele>
        <time>2022-06-02T10:53:28Z</time>
      </trkpt>
      <trkpt lat="49.42152" lon="-1.18016">
        <ele>0.7</ele>
        <time>2022-06-02T10:53:29Z</time>
      </trkpt>
      <trkpt lat="49.42151" lon="-1.18015">
        <ele>0.7</ele>
        <time>2022-06-02T10:53:30Z</time>
      </trkpt>
      <trkpt lat="49.4215" lon="-1.18014">
        <ele>0.7</ele>
        <time>2022-06-02T10:53:31Z</time>
      </trkpt>
      <trkpt lat="49.42149" lon="-1.18014">
        <ele>0.7</ele>
        <time>2022-06-02T10:53:33Z</time>
      </trkpt>
      <trkpt lat="49.42147" lon="-1.18013">
        <ele>0.7</ele>
        <time>2022-06-02T10:53:34Z</time>
      </trkpt>
      <trkpt lat="49.42146" lon="-1.18012">
        <ele>0.7</ele>
        <time>2022-06-02T10:53:35Z</time>
      </trkpt>
      <trkpt lat="49.42145" lon="-1.18011">
        <ele>0.7</ele>
        <time>2022-06-02T10:53:37Z</time>
      </trkpt>
      <trkpt lat="49.42144" lon="-1.1801">
        <ele>0.7</ele>
        <time>2022-06-02T10:53:38Z</time>
      </trkpt>
      <trkpt lat="49.42144" lon="-1.1801">
        <ele>0.7</ele>
        <time>2022-06-02T10:53:39Z</time>
      </trkpt>
      <trkpt lat="49.42143" lon="-1.18009">
        <ele>0.7</ele>
        <time>2022-06-02T10:53:40Z</time>
      </trkpt>
      <trkpt lat="49.42142" lon="-1.18008">
        <ele>0.7</ele>
        <time>2022-06-02T10:53:41Z</time>
      </trkpt>
      <trkpt lat="49.42141" lon="-1.18008">
        <ele>0.8</ele>
        <time>2022-06-02T10:53:42Z</time>
      </trkpt>
      <trkpt lat="49.4214" lon="-1.18006">
        <ele>0.8</ele>
        <time>2022-06-02T10:53:44Z</time>
      </trkpt>
      <trkpt lat="49.42139" lon="-1.18005">
        <ele>0.8</ele>
        <time>2022-06-02T10:53:45Z</time>
      </trkpt>
      <trkpt lat="49.42138" lon="-1.18004">
        <ele>0.8</ele>
        <time>2022-06-02T10:53:46Z</time>
      </trkpt>
      <trkpt lat="49.42138" lon="-1.18002">
        <ele>0.8</ele>
        <time>2022-06-02T10:53:47Z</time>
      </trkpt>
      <trkpt lat="49.42137" lon="-1.18001">
        <ele>0.8</ele>
        <time>2022-06-02T10:53:48Z</time>
      </trkpt>
      <trkpt lat="49.42136" lon="-1.17999">
        <ele>0.8</ele>
        <time>2022-06-02T10:53:49Z</time>
      </trkpt>
      <trkpt lat="49.42135" lon="-1.17998">
        <ele>0.8</ele>
        <time>2022-06-02T10:53:50Z</time>
      </trkpt>
      <trkpt lat="49.42134" lon="-1.17998">
        <ele>0.8</ele>
        <time>2022-06-02T10:53:52Z</time>
      </trkpt>
      <trkpt lat="49.42133" lon="-1.17997">
        <ele>0.8</ele>
        <time>2022-06-02T10:53:53Z</time>
      </trkpt>
      <trkpt lat="49.42132" lon="-1.17996">
        <ele>0.8</ele>
        <time>2022-06-02T10:53:54Z</time>
      </trkpt>
      <trkpt lat="49.42131" lon="-1.17995">
        <ele>0.7</ele>
        <time>2022-06-02T10:53:55Z</time>
      </trkpt>
      <trkpt lat="49.42131" lon="-1.17994">
        <ele>0.7</ele>
        <time>2022-06-02T10:53:56Z</time>
      </trkpt>
      <trkpt lat="49.4213" lon="-1.17993">
        <ele>0.7</ele>
        <time>2022-06-02T10:53:57Z</time>
      </trkpt>
      <trkpt lat="49.42129" lon="-1.17992">
        <ele>0.7</ele>
        <time>2022-06-02T10:53:58Z</time>
      </trkpt>
      <trkpt lat="49.42127" lon="-1.1799">
        <ele>0.6</ele>
        <time>2022-06-02T10:54:00Z</time>
      </trkpt>
      <trkpt lat="49.42127" lon="-1.17989">
        <ele>0.6</ele>
        <time>2022-06-02T10:54:01Z</time>
      </trkpt>
      <trkpt lat="49.42126" lon="-1.17988">
        <ele>0.6</ele>
        <time>2022-06-02T10:54:02Z</time>
      </trkpt>
      <trkpt lat="49.42125" lon="-1.17987">
        <ele>0.5</ele>
        <time>2022-06-02T10:54:03Z</time>
      </trkpt>
      <trkpt lat="49.42124" lon="-1.17985">
        <ele>0.5</ele>
        <time>2022-06-02T10:54:04Z</time>
      </trkpt>
      <trkpt lat="49.42123" lon="-1.17984">
        <ele>0.5</ele>
        <time>2022-06-02T10:54:05Z</time>
      </trkpt>
      <trkpt lat="49.42123" lon="-1.17983">
        <ele>0.5</ele>
        <time>2022-06-02T10:54:06Z</time>
      </trkpt>
      <trkpt lat="49.42122" lon="-1.17982">
        <ele>0.4</ele>
        <time>2022-06-02T10:54:08Z</time>
      </trkpt>
      <trkpt lat="49.42121" lon="-1.17981">
        <ele>0.4</ele>
        <time>2022-06-02T10:54:09Z</time>
      </trkpt>
      <trkpt lat="49.4212" lon="-1.1798">
        <ele>0.4</ele>
        <time>2022-06-02T10:54:10Z</time>
      </trkpt>
      <trkpt lat="49.42119" lon="-1.17979">
        <ele>0.3</ele>
        <time>2022-06-02T10:54:11Z</time>
      </trkpt>
      <trkpt lat="49.42118" lon="-1.17978">
        <ele>0.4</ele>
        <time>2022-06-02T10:54:12Z</time>
      </trkpt>
      <trkpt lat="49.42117" lon="-1.17978">
        <ele>0.4</ele>
        <time>2022-06-02T10:54:13Z</time>
      </trkpt>
      <trkpt lat="49.42116" lon="-1.17977">
        <ele>0.3</ele>
        <time>2022-06-02T10:54:15Z</time>
      </trkpt>
      <trkpt lat="49.42115" lon="-1.17976">
        <ele>0.3</ele>
        <time>2022-06-02T10:54:16Z</time>
      </trkpt>
      <trkpt lat="49.42114" lon="-1.17975">
        <ele>0.3</ele>
        <time>2022-06-02T10:54:17Z</time>
      </trkpt>
      <trkpt lat="49.42113" lon="-1.17974">
        <ele>0.4</ele>
        <time>2022-06-02T10:54:18Z</time>
      </trkpt>
      <trkpt lat="49.42112" lon="-1.17973">
        <ele>0.4</ele>
        <time>2022-06-02T10:54:19Z</time>
      </trkpt>
      <trkpt lat="49.42111" lon="-1.17972">
        <ele>0.4</ele>
        <time>2022-06-02T10:54:20Z</time>
      </trkpt>
      <trkpt lat="49.4211" lon="-1.17971">
        <ele>0.4</ele>
        <time>2022-06-02T10:54:21Z</time>
      </trkpt>
      <trkpt lat="49.42109" lon="-1.1797">
        <ele>0.4</ele>
        <time>2022-06-02T10:54:23Z</time>
      </trkpt>
      <trkpt lat="49.42107" lon="-1.17968">
        <ele>0.5</ele>
        <time>2022-06-02T10:54:25Z</time>
      </trkpt>
      <trkpt lat="49.42106" lon="-1.17967">
        <ele>0.5</ele>
        <time>2022-06-02T10:54:26Z</time>
      </trkpt>
      <trkpt lat="49.42105" lon="-1.17966">
        <ele>0.5</ele>
        <time>2022-06-02T10:54:27Z</time>
      </trkpt>
      <trkpt lat="49.42104" lon="-1.17965">
        <ele>0.5</ele>
        <time>2022-06-02T10:54:28Z</time>
      </trkpt>
      <trkpt lat="49.42104" lon="-1.17964">
        <ele>0.5</ele>
        <time>2022-06-02T10:54:30Z</time>
      </trkpt>
      <trkpt lat="49.42103" lon="-1.17963">
        <ele>0.5</ele>
        <time>2022-06-02T10:54:31Z</time>
      </trkpt>
      <trkpt lat="49.42102" lon="-1.17962">
        <ele>0.5</ele>
        <time>2022-06-02T10:54:32Z</time>
      </trkpt>
      <trkpt lat="49.42102" lon="-1.17961">
        <ele>0.5</ele>
        <time>2022-06-02T10:54:33Z</time>
      </trkpt>
      <trkpt lat="49.42101" lon="-1.1796">
        <ele>0.5</ele>
        <time>2022-06-02T10:54:34Z</time>
      </trkpt>
      <trkpt lat="49.42099" lon="-1.17958">
        <ele>0.4</ele>
        <time>2022-06-02T10:54:35Z</time>
      </trkpt>
      <trkpt lat="49.42099" lon="-1.17958">
        <ele>0.4</ele>
        <time>2022-06-02T10:54:37Z</time>
      </trkpt>
      <trkpt lat="49.42098" lon="-1.17957">
        <ele>0.4</ele>
        <time>2022-06-02T10:54:38Z</time>
      </trkpt>
      <trkpt lat="49.42098" lon="-1.17956">
        <ele>0.4</ele>
        <time>2022-06-02T10:54:39Z</time>
      </trkpt>
      <trkpt lat="49.42097" lon="-1.17955">
        <ele>0.4</ele>
        <time>2022-06-02T10:54:40Z</time>
      </trkpt>
      <trkpt lat="49.42097" lon="-1.17954">
        <ele>0.3</ele>
        <time>2022-06-02T10:54:41Z</time>
      </trkpt>
      <trkpt lat="49.42096" lon="-1.17953">
        <ele>0.3</ele>
        <time>2022-06-02T10:54:42Z</time>
      </trkpt>
      <trkpt lat="49.42095" lon="-1.17952">
        <ele>0.3</ele>
        <time>2022-06-02T10:54:44Z</time>
      </trkpt>
      <trkpt lat="49.42094" lon="-1.17951">
        <ele>0.3</ele>
        <time>2022-06-02T10:54:45Z</time>
      </trkpt>
      <trkpt lat="49.42094" lon="-1.1795">
        <ele>0.2</ele>
        <time>2022-06-02T10:54:46Z</time>
      </trkpt>
      <trkpt lat="49.42093" lon="-1.17949">
        <ele>0.2</ele>
        <time>2022-06-02T10:54:47Z</time>
      </trkpt>
      <trkpt lat="49.42093" lon="-1.17948">
        <ele>0.2</ele>
        <time>2022-06-02T10:54:48Z</time>
      </trkpt>
      <trkpt lat="49.42092" lon="-1.17947">
        <ele>0.2</ele>
        <time>2022-06-02T10:54:49Z</time>
      </trkpt>
      <trkpt lat="49.42091" lon="-1.17946">
        <ele>0.1</ele>
        <time>2022-06-02T10:54:51Z</time>
      </trkpt>
      <trkpt lat="49.4209" lon="-1.17945">
        <ele>0.1</ele>
        <time>2022-06-02T10:54:52Z</time>
      </trkpt>
      <trkpt lat="49.42089" lon="-1.17944">
        <ele>0.2</ele>
        <time>2022-06-02T10:54:53Z</time>
      </trkpt>
      <trkpt lat="49.42088" lon="-1.17943">
        <ele>0.1</ele>
        <time>2022-06-02T10:54:54Z</time>
      </trkpt>
      <trkpt lat="49.42087" lon="-1.17941">
        <ele>0.1</ele>
        <time>2022-06-02T10:54:55Z</time>
      </trkpt>
      <trkpt lat="49.42086" lon="-1.1794">
        <ele>0.2</ele>
        <time>2022-06-02T10:54:56Z</time>
      </trkpt>
      <trkpt lat="49.42086" lon="-1.17939">
        <ele>0.2</ele>
        <time>2022-06-02T10:54:58Z</time>
      </trkpt>
      <trkpt lat="49.42085" lon="-1.17938">
        <ele>0.2</ele>
        <time>2022-06-02T10:54:59Z</time>
      </trkpt>
      <trkpt lat="49.42083" lon="-1.17936">
        <ele>0.1</ele>
        <time>2022-06-02T10:55:00Z</time>
      </trkpt>
      <trkpt lat="49.42082" lon="-1.17935">
        <ele>0.3</ele>
        <time>2022-06-02T10:55:02Z</time>
      </trkpt>
      <trkpt lat="49.42081" lon="-1.17935">
        <ele>0.3</ele>
        <time>2022-06-02T10:55:03Z</time>
      </trkpt>
      <trkpt lat="49.4208" lon="-1.17934">
        <ele>0.3</ele>
        <time>2022-06-02T10:55:04Z</time>
      </trkpt>
      <trkpt lat="49.42079" lon="-1.17932">
        <ele>0.3</ele>
        <time>2022-06-02T10:55:05Z</time>
      </trkpt>
      <trkpt lat="49.42078" lon="-1.17932">
        <ele>0.3</ele>
        <time>2022-06-02T10:55:06Z</time>
      </trkpt>
      <trkpt lat="49.42077" lon="-1.17931">
        <ele>0.4</ele>
        <time>2022-06-02T10:55:07Z</time>
      </trkpt>
      <trkpt lat="49.42076" lon="-1.1793">
        <ele>0.4</ele>
        <time>2022-06-02T10:55:09Z</time>
      </trkpt>
      <trkpt lat="49.42075" lon="-1.17929">
        <ele>0.4</ele>
        <time>2022-06-02T10:55:10Z</time>
      </trkpt>
      <trkpt lat="49.42075" lon="-1.17928">
        <ele>0.4</ele>
        <time>2022-06-02T10:55:11Z</time>
      </trkpt>
      <trkpt lat="49.42074" lon="-1.17927">
        <ele>0.4</ele>
        <time>2022-06-02T10:55:12Z</time>
      </trkpt>
      <trkpt lat="49.42073" lon="-1.17926">
        <ele>0.4</ele>
        <time>2022-06-02T10:55:13Z</time>
      </trkpt>
      <trkpt lat="49.42072" lon="-1.17925">
        <ele>0.4</ele>
        <time>2022-06-02T10:55:14Z</time>
      </trkpt>
      <trkpt lat="49.42071" lon="-1.17923">
        <ele>0.3</ele>
        <time>2022-06-02T10:55:16Z</time>
      </trkpt>
      <trkpt lat="49.42071" lon="-1.17922">
        <ele>0.4</ele>
        <time>2022-06-02T10:55:17Z</time>
      </trkpt>
      <trkpt lat="49.4207" lon="-1.17922">
        <ele>0.4</ele>
        <time>2022-06-02T10:55:18Z</time>
      </trkpt>
      <trkpt lat="49.42069" lon="-1.17921">
        <ele>0.4</ele>
        <time>2022-06-02T10:55:19Z</time>
      </trkpt>
      <trkpt lat="49.42068" lon="-1.1792">
        <ele>0.3</ele>
        <time>2022-06-02T10:55:20Z</time>
      </trkpt>
      <trkpt lat="49.42067" lon="-1.17919">
        <ele>0.3</ele>
        <time>2022-06-02T10:55:21Z</time>
      </trkpt>
      <trkpt lat="49.42067" lon="-1.17918">
        <ele>0.3</ele>
        <time>2022-06-02T10:55:22Z</time>
      </trkpt>
      <trkpt lat="49.42066" lon="-1.17917">
        <ele>0.2</ele>
        <time>2022-06-02T10:55:24Z</time>
      </trkpt>
      <trkpt lat="49.42065" lon="-1.17916">
        <ele>0.2</ele>
        <time>2022-06-02T10:55:25Z</time>
      </trkpt>
      <trkpt lat="49.42063" lon="-1.17915">
        <ele>0.1</ele>
        <time>2022-06-02T10:55:26Z</time>
      </trkpt>
      <trkpt lat="49.42062" lon="-1.17913">
        <ele>0.1</ele>
        <time>2022-06-02T10:55:27Z</time>
      </trkpt>
      <trkpt lat="49.42061" lon="-1.17912">
        <ele>0.1</ele>
        <time>2022-06-02T10:55:28Z</time>
      </trkpt>
      <trkpt lat="49.4206" lon="-1.17912">
        <ele>0.1</ele>
        <time>2022-06-02T10:55:29Z</time>
      </trkpt>
      <trkpt lat="49.42059" lon="-1.17911">
        <ele>0.1</ele>
        <time>2022-06-02T10:55:30Z</time>
      </trkpt>
      <trkpt lat="49.42058" lon="-1.1791">
        <ele>0.1</ele>
        <time>2022-06-02T10:55:32Z</time>
      </trkpt>
      <trkpt lat="49.42058" lon="-1.1791">
        <ele>4.5</ele>
        <time>2022-06-02T10:55:33Z</time>
      </trkpt>
      <trkpt lat="49.42057" lon="-1.1791">
        <ele>0.1</ele>
        <time>2022-06-02T10:55:34Z</time>
      </trkpt>
      <trkpt lat="49.42056" lon="-1.1791">
        <ele>0.1</ele>
        <time>2022-06-02T10:55:35Z</time>
      </trkpt>
      <trkpt lat="49.42055" lon="-1.17909">
        <ele>0.1</ele>
        <time>2022-06-02T10:55:36Z</time>
      </trkpt>
      <trkpt lat="49.42054" lon="-1.17908">
        <ele>0.1</ele>
        <time>2022-06-02T10:55:37Z</time>
      </trkpt>
      <trkpt lat="49.42053" lon="-1.17908">
        <ele>0.1</ele>
        <time>2022-06-02T10:55:39Z</time>
      </trkpt>
      <trkpt lat="49.42052" lon="-1.17907">
        <ele>0.1</ele>
        <time>2022-06-02T10:55:40Z</time>
      </trkpt>
      <trkpt lat="49.42052" lon="-1.17907">
        <ele>0.1</ele>
        <time>2022-06-02T10:55:41Z</time>
      </trkpt>
      <trkpt lat="49.42051" lon="-1.17906">
        <ele>0.1</ele>
        <time>2022-06-02T10:55:42Z</time>
      </trkpt>
      <trkpt lat="49.4205" lon="-1.17905">
        <ele>0.2</ele>
        <time>2022-06-02T10:55:44Z</time>
      </trkpt>
      <trkpt lat="49.4205" lon="-1.17905">
        <ele>0.3</ele>
        <time>2022-06-02T10:55:46Z</time>
      </trkpt>
      <trkpt lat="49.4205" lon="-1.17905">
        <ele>0.3</ele>
        <time>2022-06-02T10:55:47Z</time>
      </trkpt>
      <trkpt lat="49.42049" lon="-1.17905">
        <ele>0.3</ele>
        <time>2022-06-02T10:55:49Z</time>
      </trkpt>
      <trkpt lat="49.42049" lon="-1.17905">
        <ele>0.3</ele>
        <time>2022-06-02T10:55:50Z</time>
      </trkpt>
      <trkpt lat="49.42049" lon="-1.17905">
        <ele>0.4</ele>
        <time>2022-06-02T10:55:51Z</time>
      </trkpt>
      <trkpt lat="49.42049" lon="-1.17904">
        <ele>0.4</ele>
        <time>2022-06-02T10:55:52Z</time>
      </trkpt>
      <trkpt lat="49.42049" lon="-1.17904">
        <ele>0.4</ele>
        <time>2022-06-02T10:55:53Z</time>
      </trkpt>
      <trkpt lat="49.42048" lon="-1.17904">
        <ele>0.4</ele>
        <time>2022-06-02T10:55:54Z</time>
      </trkpt>
      <trkpt lat="49.42048" lon="-1.17904">
        <ele>0.4</ele>
        <time>2022-06-02T10:55:56Z</time>
      </trkpt>
      <trkpt lat="49.42048" lon="-1.17904">
        <ele>0.4</ele>
        <time>2022-06-02T10:55:57Z</time>
      </trkpt>
      <trkpt lat="49.42047" lon="-1.17904">
        <ele>0.5</ele>
        <time>2022-06-02T10:55:58Z</time>
      </trkpt>
      <trkpt lat="49.42047" lon="-1.17905">
        <ele>0.5</ele>
        <time>2022-06-02T10:56:00Z</time>
      </trkpt>
      <trkpt lat="49.42046" lon="-1.17906">
        <ele>0.6</ele>
        <time>2022-06-02T10:56:01Z</time>
      </trkpt>
      <trkpt lat="49.42046" lon="-1.17908">
        <ele>0.7</ele>
        <time>2022-06-02T10:56:02Z</time>
      </trkpt>
      <trkpt lat="49.42045" lon="-1.17909">
        <ele>0.7</ele>
        <time>2022-06-02T10:56:03Z</time>
      </trkpt>
      <trkpt lat="49.42045" lon="-1.17909">
        <ele>0.8</ele>
        <time>2022-06-02T10:56:05Z</time>
      </trkpt>
      <trkpt lat="49.42045" lon="-1.17909">
        <ele>0.8</ele>
        <time>2022-06-02T10:56:06Z</time>
      </trkpt>
      <trkpt lat="49.42045" lon="-1.17909">
        <ele>0.8</ele>
        <time>2022-06-02T10:56:07Z</time>
      </trkpt>
      <trkpt lat="49.42045" lon="-1.17909">
        <ele>0.8</ele>
        <time>2022-06-02T10:56:08Z</time>
      </trkpt>
      <trkpt lat="49.42045" lon="-1.17909">
        <ele>0.8</ele>
        <time>2022-06-02T10:56:09Z</time>
      </trkpt>
      <trkpt lat="49.42045" lon="-1.17909">
        <ele>0.8</ele>
        <time>2022-06-02T10:56:10Z</time>
      </trkpt>
      <trkpt lat="49.42045" lon="-1.17909">
        <ele>0.9</ele>
        <time>2022-06-02T10:56:11Z</time>
      </trkpt>
      <trkpt lat="49.42045" lon="-1.17909">
        <ele>0.9</ele>
        <time>2022-06-02T10:56:12Z</time>
      </trkpt>
      <trkpt lat="49.42046" lon="-1.17909">
        <ele>0.9</ele>
        <time>2022-06-02T10:56:13Z</time>
      </trkpt>
      <trkpt lat="49.42046" lon="-1.1791">
        <ele>0.9</ele>
        <time>2022-06-02T10:56:15Z</time>
      </trkpt>
      <trkpt lat="49.42046" lon="-1.17911">
        <ele>1</ele>
        <time>2022-06-02T10:56:16Z</time>
      </trkpt>
      <trkpt lat="49.42046" lon="-1.17912">
        <ele>1</ele>
        <time>2022-06-02T10:56:17Z</time>
      </trkpt>
      <trkpt lat="49.42047" lon="-1.17913">
        <ele>1.1</ele>
        <time>2022-06-02T10:56:18Z</time>
      </trkpt>
      <trkpt lat="49.42046" lon="-1.17914">
        <ele>1.1</ele>
        <time>2022-06-02T10:56:20Z</time>
      </trkpt>
      <trkpt lat="49.42046" lon="-1.17916">
        <ele>1.2</ele>
        <time>2022-06-02T10:56:21Z</time>
      </trkpt>
      <trkpt lat="49.42046" lon="-1.17917">
        <ele>1.3</ele>
        <time>2022-06-02T10:56:22Z</time>
      </trkpt>
      <trkpt lat="49.42045" lon="-1.17918">
        <ele>1.3</ele>
        <time>2022-06-02T10:56:23Z</time>
      </trkpt>
      <trkpt lat="49.42045" lon="-1.17919">
        <ele>1.4</ele>
        <time>2022-06-02T10:56:25Z</time>
      </trkpt>
      <trkpt lat="49.42045" lon="-1.17921">
        <ele>1.4</ele>
        <time>2022-06-02T10:56:26Z</time>
      </trkpt>
      <trkpt lat="49.42045" lon="-1.17923">
        <ele>1.5</ele>
        <time>2022-06-02T10:56:27Z</time>
      </trkpt>
      <trkpt lat="49.42045" lon="-1.17924">
        <ele>1.5</ele>
        <time>2022-06-02T10:56:28Z</time>
      </trkpt>
      <trkpt lat="49.42044" lon="-1.17926">
        <ele>1.6</ele>
        <time>2022-06-02T10:56:30Z</time>
      </trkpt>
      <trkpt lat="49.42044" lon="-1.17927">
        <ele>1.6</ele>
        <time>2022-06-02T10:56:31Z</time>
      </trkpt>
      <trkpt lat="49.42044" lon="-1.17928">
        <ele>1.7</ele>
        <time>2022-06-02T10:56:32Z</time>
      </trkpt>
      <trkpt lat="49.42044" lon="-1.1793">
        <ele>1.7</ele>
        <time>2022-06-02T10:56:33Z</time>
      </trkpt>
      <trkpt lat="49.42043" lon="-1.17931">
        <ele>1.8</ele>
        <time>2022-06-02T10:56:34Z</time>
      </trkpt>
      <trkpt lat="49.42043" lon="-1.17932">
        <ele>1.8</ele>
        <time>2022-06-02T10:56:35Z</time>
      </trkpt>
      <trkpt lat="49.42042" lon="-1.17933">
        <ele>1.9</ele>
        <time>2022-06-02T10:56:36Z</time>
      </trkpt>
      <trkpt lat="49.42042" lon="-1.17935">
        <ele>1.9</ele>
        <time>2022-06-02T10:56:37Z</time>
      </trkpt>
      <trkpt lat="49.4204" lon="-1.17938">
        <ele>2</ele>
        <time>2022-06-02T10:56:38Z</time>
      </trkpt>
      <trkpt lat="49.4204" lon="-1.17939">
        <ele>2.1</ele>
        <time>2022-06-02T10:56:40Z</time>
      </trkpt>
      <trkpt lat="49.42039" lon="-1.1794">
        <ele>2.1</ele>
        <time>2022-06-02T10:56:41Z</time>
      </trkpt>
      <trkpt lat="49.42039" lon="-1.17941">
        <ele>2.1</ele>
        <time>2022-06-02T10:56:43Z</time>
      </trkpt>
      <trkpt lat="49.42038" lon="-1.17942">
        <ele>2.2</ele>
        <time>2022-06-02T10:56:44Z</time>
      </trkpt>
      <trkpt lat="49.42038" lon="-1.17943">
        <ele>2.2</ele>
        <time>2022-06-02T10:56:45Z</time>
      </trkpt>
      <trkpt lat="49.42038" lon="-1.17945">
        <ele>2.2</ele>
        <time>2022-06-02T10:56:46Z</time>
      </trkpt>
      <trkpt lat="49.42039" lon="-1.17945">
        <ele>2.2</ele>
        <time>2022-06-02T10:56:47Z</time>
      </trkpt>
      <trkpt lat="49.42039" lon="-1.17946">
        <ele>2.3</ele>
        <time>2022-06-02T10:56:48Z</time>
      </trkpt>
      <trkpt lat="49.42039" lon="-1.17947">
        <ele>2.3</ele>
        <time>2022-06-02T10:56:49Z</time>
      </trkpt>
      <trkpt lat="49.42039" lon="-1.17949">
        <ele>2.3</ele>
        <time>2022-06-02T10:56:50Z</time>
      </trkpt>
      <trkpt lat="49.42039" lon="-1.1795">
        <ele>2.4</ele>
        <time>2022-06-02T10:56:52Z</time>
      </trkpt>
      <trkpt lat="49.42039" lon="-1.17951">
        <ele>2.4</ele>
        <time>2022-06-02T10:56:53Z</time>
      </trkpt>
      <trkpt lat="49.42038" lon="-1.17952">
        <ele>2.4</ele>
        <time>2022-06-02T10:56:54Z</time>
      </trkpt>
      <trkpt lat="49.42038" lon="-1.17953">
        <ele>2.4</ele>
        <time>2022-06-02T10:56:55Z</time>
      </trkpt>
      <trkpt lat="49.42038" lon="-1.17954">
        <ele>2.5</ele>
        <time>2022-06-02T10:56:57Z</time>
      </trkpt>
      <trkpt lat="49.42038" lon="-1.17956">
        <ele>2.5</ele>
        <time>2022-06-02T10:56:58Z</time>
      </trkpt>
      <trkpt lat="49.42038" lon="-1.17958">
        <ele>2.5</ele>
        <time>2022-06-02T10:56:59Z</time>
      </trkpt>
      <trkpt lat="49.42039" lon="-1.17961">
        <ele>2.6</ele>
        <time>2022-06-02T10:57:00Z</time>
      </trkpt>
      <trkpt lat="49.4204" lon="-1.17962">
        <ele>2.6</ele>
        <time>2022-06-02T10:57:01Z</time>
      </trkpt>
      <trkpt lat="49.4204" lon="-1.17964">
        <ele>2.7</ele>
        <time>2022-06-02T10:57:03Z</time>
      </trkpt>
      <trkpt lat="49.42041" lon="-1.17965">
        <ele>2.7</ele>
        <time>2022-06-02T10:57:04Z</time>
      </trkpt>
      <trkpt lat="49.42041" lon="-1.17966">
        <ele>2.7</ele>
        <time>2022-06-02T10:57:05Z</time>
      </trkpt>
      <trkpt lat="49.42042" lon="-1.17968">
        <ele>2.7</ele>
        <time>2022-06-02T10:57:06Z</time>
      </trkpt>
      <trkpt lat="49.42042" lon="-1.17968">
        <ele>2.8</ele>
        <time>2022-06-02T10:57:07Z</time>
      </trkpt>
      <trkpt lat="49.42042" lon="-1.17969">
        <ele>2.8</ele>
        <time>2022-06-02T10:57:08Z</time>
      </trkpt>
      <trkpt lat="49.42043" lon="-1.1797">
        <ele>2.8</ele>
        <time>2022-06-02T10:57:09Z</time>
      </trkpt>
      <trkpt lat="49.42043" lon="-1.17972">
        <ele>2.8</ele>
        <time>2022-06-02T10:57:10Z</time>
      </trkpt>
      <trkpt lat="49.42043" lon="-1.17974">
        <ele>2.9</ele>
        <time>2022-06-02T10:57:12Z</time>
      </trkpt>
      <trkpt lat="49.42043" lon="-1.17976">
        <ele>2.9</ele>
        <time>2022-06-02T10:57:13Z</time>
      </trkpt>
      <trkpt lat="49.42043" lon="-1.17977">
        <ele>2.9</ele>
        <time>2022-06-02T10:57:14Z</time>
      </trkpt>
      <trkpt lat="49.42042" lon="-1.17978">
        <ele>2.9</ele>
        <time>2022-06-02T10:57:15Z</time>
      </trkpt>
      <trkpt lat="49.4204" lon="-1.1798">
        <ele>3</ele>
        <time>2022-06-02T10:57:16Z</time>
      </trkpt>
      <trkpt lat="49.42039" lon="-1.17981">
        <ele>3</ele>
        <time>2022-06-02T10:57:17Z</time>
      </trkpt>
      <trkpt lat="49.42039" lon="-1.17982">
        <ele>3</ele>
        <time>2022-06-02T10:57:19Z</time>
      </trkpt>
      <trkpt lat="49.42038" lon="-1.17984">
        <ele>3</ele>
        <time>2022-06-02T10:57:20Z</time>
      </trkpt>
      <trkpt lat="49.42038" lon="-1.17985">
        <ele>3.1</ele>
        <time>2022-06-02T10:57:21Z</time>
      </trkpt>
      <trkpt lat="49.42038" lon="-1.17986">
        <ele>3.1</ele>
        <time>2022-06-02T10:57:22Z</time>
      </trkpt>
      <trkpt lat="49.42037" lon="-1.17988">
        <ele>3.1</ele>
        <time>2022-06-02T10:57:23Z</time>
      </trkpt>
      <trkpt lat="49.42036" lon="-1.1799">
        <ele>3.1</ele>
        <time>2022-06-02T10:57:24Z</time>
      </trkpt>
      <trkpt lat="49.42035" lon="-1.17992">
        <ele>3.2</ele>
        <time>2022-06-02T10:57:25Z</time>
      </trkpt>
      <trkpt lat="49.42035" lon="-1.17993">
        <ele>3.2</ele>
        <time>2022-06-02T10:57:27Z</time>
      </trkpt>
      <trkpt lat="49.42034" lon="-1.17994">
        <ele>3.2</ele>
        <time>2022-06-02T10:57:28Z</time>
      </trkpt>
      <trkpt lat="49.42033" lon="-1.17995">
        <ele>3.2</ele>
        <time>2022-06-02T10:57:29Z</time>
      </trkpt>
      <trkpt lat="49.42032" lon="-1.17997">
        <ele>3.3</ele>
        <time>2022-06-02T10:57:30Z</time>
      </trkpt>
      <trkpt lat="49.42031" lon="-1.17998">
        <ele>3.3</ele>
        <time>2022-06-02T10:57:32Z</time>
      </trkpt>
      <trkpt lat="49.4203" lon="-1.17999">
        <ele>3.3</ele>
        <time>2022-06-02T10:57:33Z</time>
      </trkpt>
      <trkpt lat="49.42029" lon="-1.18">
        <ele>3.3</ele>
        <time>2022-06-02T10:57:34Z</time>
      </trkpt>
      <trkpt lat="49.42029" lon="-1.18002">
        <ele>3.6</ele>
        <time>2022-06-02T10:57:35Z</time>
      </trkpt>
      <trkpt lat="49.42029" lon="-1.18004">
        <ele>3.6</ele>
        <time>2022-06-02T10:57:36Z</time>
      </trkpt>
      <trkpt lat="49.42029" lon="-1.18005">
        <ele>3.6</ele>
        <time>2022-06-02T10:57:38Z</time>
      </trkpt>
      <trkpt lat="49.42029" lon="-1.18006">
        <ele>3.6</ele>
        <time>2022-06-02T10:57:39Z</time>
      </trkpt>
      <trkpt lat="49.42029" lon="-1.18007">
        <ele>3.6</ele>
        <time>2022-06-02T10:57:40Z</time>
      </trkpt>
      <trkpt lat="49.42029" lon="-1.18008">
        <ele>3.6</ele>
        <time>2022-06-02T10:57:41Z</time>
      </trkpt>
      <trkpt lat="49.42029" lon="-1.18009">
        <ele>3.6</ele>
        <time>2022-06-02T10:57:42Z</time>
      </trkpt>
      <trkpt lat="49.42029" lon="-1.18011">
        <ele>3.6</ele>
        <time>2022-06-02T10:57:43Z</time>
      </trkpt>
      <trkpt lat="49.4203" lon="-1.18012">
        <ele>3.6</ele>
        <time>2022-06-02T10:57:44Z</time>
      </trkpt>
      <trkpt lat="49.42031" lon="-1.18013">
        <ele>3.6</ele>
        <time>2022-06-02T10:57:45Z</time>
      </trkpt>
      <trkpt lat="49.42033" lon="-1.18014">
        <ele>3.6</ele>
        <time>2022-06-02T10:57:46Z</time>
      </trkpt>
      <trkpt lat="49.42034" lon="-1.18014">
        <ele>3.6</ele>
        <time>2022-06-02T10:57:48Z</time>
      </trkpt>
      <trkpt lat="49.42034" lon="-1.18015">
        <ele>3.6</ele>
        <time>2022-06-02T10:57:49Z</time>
      </trkpt>
      <trkpt lat="49.42033" lon="-1.18014">
        <ele>3.6</ele>
        <time>2022-06-02T10:57:50Z</time>
      </trkpt>
      <trkpt lat="49.42033" lon="-1.18014">
        <ele>3.6</ele>
        <time>2022-06-02T10:57:52Z</time>
      </trkpt>
      <trkpt lat="49.42033" lon="-1.18013">
        <ele>3.6</ele>
        <time>2022-06-02T10:57:53Z</time>
      </trkpt>
      <trkpt lat="49.42033" lon="-1.18013">
        <ele>3.6</ele>
        <time>2022-06-02T10:57:54Z</time>
      </trkpt>
      <trkpt lat="49.42033" lon="-1.18013">
        <ele>3.6</ele>
        <time>2022-06-02T10:57:55Z</time>
      </trkpt>
      <trkpt lat="49.42032" lon="-1.18013">
        <ele>3.6</ele>
        <time>2022-06-02T10:57:56Z</time>
      </trkpt>
      <trkpt lat="49.42032" lon="-1.18012">
        <ele>3.6</ele>
        <time>2022-06-02T10:57:57Z</time>
      </trkpt>
      <trkpt lat="49.42032" lon="-1.18012">
        <ele>3.6</ele>
        <time>2022-06-02T10:57:58Z</time>
      </trkpt>
      <trkpt lat="49.42032" lon="-1.18012">
        <ele>3.6</ele>
        <time>2022-06-02T10:57:59Z</time>
      </trkpt>
      <trkpt lat="49.42032" lon="-1.18012">
        <ele>3.6</ele>
        <time>2022-06-02T10:58:00Z</time>
      </trkpt>
      <trkpt lat="49.42032" lon="-1.18012">
        <ele>3.6</ele>
        <time>2022-06-02T10:58:01Z</time>
      </trkpt>
      <trkpt lat="49.42032" lon="-1.18012">
        <ele>3.6</ele>
        <time>2022-06-02T10:58:02Z</time>
      </trkpt>
      <trkpt lat="49.42032" lon="-1.18012">
        <ele>3.6</ele>
        <time>2022-06-02T10:58:03Z</time>
      </trkpt>
      <trkpt lat="49.42032" lon="-1.18012">
        <ele>3.6</ele>
        <time>2022-06-02T10:58:04Z</time>
      </trkpt>
      <trkpt lat="49.42032" lon="-1.18012">
        <ele>3.6</ele>
        <time>2022-06-02T10:58:05Z</time>
      </trkpt>
      <trkpt lat="49.42032" lon="-1.18012">
        <ele>3.6</ele>
        <time>2022-06-02T10:58:06Z</time>
      </trkpt>
      <trkpt lat="49.42032" lon="-1.18012">
        <ele>3.6</ele>
        <time>2022-06-02T10:58:07Z</time>
      </trkpt>
      <trkpt lat="49.42032" lon="-1.18012">
        <ele>3.6</ele>
        <time>2022-06-02T10:58:08Z</time>
      </trkpt>
      <trkpt lat="49.42033" lon="-1.18012">
        <ele>3.6</ele>
        <time>2022-06-02T10:58:09Z</time>
      </trkpt>
      <trkpt lat="49.42033" lon="-1.18012">
        <ele>3.6</ele>
        <time>2022-06-02T10:58:10Z</time>
      </trkpt>
      <trkpt lat="49.42033" lon="-1.18012">
        <ele>3.6</ele>
        <time>2022-06-02T10:58:11Z</time>
      </trkpt>
      <trkpt lat="49.42033" lon="-1.18012">
        <ele>3.6</ele>
        <time>2022-06-02T10:58:12Z</time>
      </trkpt>
      <trkpt lat="49.42033" lon="-1.18012">
        <ele>3.6</ele>
        <time>2022-06-02T10:58:13Z</time>
      </trkpt>
      <trkpt lat="49.42033" lon="-1.18012">
        <ele>3.6</ele>
        <time>2022-06-02T10:58:14Z</time>
      </trkpt>
      <trkpt lat="49.42033" lon="-1.18012">
        <ele>3.6</ele>
        <time>2022-06-02T10:58:15Z</time>
      </trkpt>
      <trkpt lat="49.42033" lon="-1.18012">
        <ele>3.6</ele>
        <time>2022-06-02T10:58:16Z</time>
      </trkpt>
      <trkpt lat="49.42033" lon="-1.18012">
        <ele>3.6</ele>
        <time>2022-06-02T10:58:17Z</time>
      </trkpt>
      <trkpt lat="49.42033" lon="-1.18012">
        <ele>3.6</ele>
        <time>2022-06-02T10:58:18Z</time>
      </trkpt>
      <trkpt lat="49.42033" lon="-1.18012">
        <ele>3.6</ele>
        <time>2022-06-02T10:58:19Z</time>
      </trkpt>
      <trkpt lat="49.42033" lon="-1.18012">
        <ele>3.6</ele>
        <time>2022-06-02T10:58:20Z</time>
      </trkpt>
      <trkpt lat="49.42033" lon="-1.18012">
        <ele>3.6</ele>
        <time>2022-06-02T10:58:21Z</time>
      </trkpt>
      <trkpt lat="49.42033" lon="-1.18012">
        <ele>3.6</ele>
        <time>2022-06-02T10:58:22Z</time>
      </trkpt>
      <trkpt lat="49.42033" lon="-1.18012">
        <ele>3.6</ele>
        <time>2022-06-02T10:58:23Z</time>
      </trkpt>
      <trkpt lat="49.42033" lon="-1.18012">
        <ele>3.6</ele>
        <time>2022-06-02T10:58:24Z</time>
      </trkpt>
      <trkpt lat="49.42033" lon="-1.18012">
        <ele>3.6</ele>
        <time>2022-06-02T10:58:25Z</time>
      </trkpt>
      <trkpt lat="49.42033" lon="-1.18012">
        <ele>3.6</ele>
        <time>2022-06-02T10:58:26Z</time>
      </trkpt>
      <trkpt lat="49.42033" lon="-1.18012">
        <ele>3.6</ele>
        <time>2022-06-02T10:58:27Z</time>
      </trkpt>
      <trkpt lat="49.42033" lon="-1.18012">
        <ele>3.6</ele>
        <time>2022-06-02T10:58:28Z</time>
      </trkpt>
      <trkpt lat="49.42033" lon="-1.18012">
        <ele>3.6</ele>
        <time>2022-06-02T10:58:29Z</time>
      </trkpt>
      <trkpt lat="49.42033" lon="-1.18012">
        <ele>3.6</ele>
        <time>2022-06-02T10:58:30Z</time>
      </trkpt>
      <trkpt lat="49.42033" lon="-1.18012">
        <ele>3.6</ele>
        <time>2022-06-02T10:58:31Z</time>
      </trkpt>
      <trkpt lat="49.42033" lon="-1.18012">
        <ele>3.6</ele>
        <time>2022-06-02T10:58:32Z</time>
      </trkpt>
      <trkpt lat="49.42033" lon="-1.18012">
        <ele>3.6</ele>
        <time>2022-06-02T10:58:33Z</time>
      </trkpt>
      <trkpt lat="49.42033" lon="-1.18012">
        <ele>3.6</ele>
        <time>2022-06-02T10:58:34Z</time>
      </trkpt>
      <trkpt lat="49.42033" lon="-1.18012">
        <ele>3.6</ele>
        <time>2022-06-02T10:58:35Z</time>
      </trkpt>
      <trkpt lat="49.42033" lon="-1.18012">
        <ele>3.6</ele>
        <time>2022-06-02T10:58:36Z</time>
      </trkpt>
      <trkpt lat="49.42033" lon="-1.18012">
        <ele>3.6</ele>
        <time>2022-06-02T10:58:37Z</time>
      </trkpt>
      <trkpt lat="49.42033" lon="-1.18012">
        <ele>3.6</ele>
        <time>2022-06-02T10:58:38Z</time>
      </trkpt>
      <trkpt lat="49.42033" lon="-1.18012">
        <ele>3.6</ele>
        <time>2022-06-02T10:58:39Z</time>
      </trkpt>
      <trkpt lat="49.42033" lon="-1.18012">
        <ele>3.6</ele>
        <time>2022-06-02T10:58:40Z</time>
      </trkpt>
      <trkpt lat="49.42033" lon="-1.18012">
        <ele>3.6</ele>
        <time>2022-06-02T10:58:41Z</time>
      </trkpt>
      <trkpt lat="49.42033" lon="-1.18012">
        <ele>3.6</ele>
        <time>2022-06-02T10:58:42Z</time>
      </trkpt>
      <trkpt lat="49.42033" lon="-1.18012">
        <ele>3.6</ele>
        <time>2022-06-02T10:58:43Z</time>
      </trkpt>
      <trkpt lat="49.42033" lon="-1.18012">
        <ele>3.6</ele>
        <time>2022-06-02T10:58:44Z</time>
      </trkpt>
      <trkpt lat="49.42033" lon="-1.18012">
        <ele>3.6</ele>
        <time>2022-06-02T10:58:45Z</time>
      </trkpt>
      <trkpt lat="49.42033" lon="-1.18012">
        <ele>3.6</ele>
        <time>2022-06-02T10:58:46Z</time>
      </trkpt>
      <trkpt lat="49.42033" lon="-1.18012">
        <ele>3.6</ele>
        <time>2022-06-02T10:58:47Z</time>
      </trkpt>
      <trkpt lat="49.42033" lon="-1.18012">
        <ele>3.6</ele>
        <time>2022-06-02T10:58:48Z</time>
      </trkpt>
      <trkpt lat="49.42033" lon="-1.18012">
        <ele>3.6</ele>
        <time>2022-06-02T10:58:49Z</time>
      </trkpt>
      <trkpt lat="49.42033" lon="-1.18012">
        <ele>3.6</ele>
        <time>2022-06-02T10:58:50Z</time>
      </trkpt>
      <trkpt lat="49.42033" lon="-1.18012">
        <ele>3.6</ele>
        <time>2022-06-02T10:58:51Z</time>
      </trkpt>
      <trkpt lat="49.42033" lon="-1.18012">
        <ele>3.6</ele>
        <time>2022-06-02T10:58:52Z</time>
      </trkpt>
      <trkpt lat="49.42033" lon="-1.18012">
        <ele>3.6</ele>
        <time>2022-06-02T10:58:53Z</time>
      </trkpt>
      <trkpt lat="49.42033" lon="-1.18012">
        <ele>3.6</ele>
        <time>2022-06-02T10:58:54Z</time>
      </trkpt>
      <trkpt lat="49.42033" lon="-1.18012">
        <ele>3.6</ele>
        <time>2022-06-02T10:58:55Z</time>
      </trkpt>
      <trkpt lat="49.42033" lon="-1.18012">
        <ele>3.6</ele>
        <time>2022-06-02T10:58:56Z</time>
      </trkpt>
      <trkpt lat="49.42033" lon="-1.18012">
        <ele>3.6</ele>
        <time>2022-06-02T10:58:57Z</time>
      </trkpt>
      <trkpt lat="49.42033" lon="-1.18012">
        <ele>3.6</ele>
        <time>2022-06-02T10:58:58Z</time>
      </trkpt>
      <trkpt lat="49.42033" lon="-1.18012">
        <ele>3.6</ele>
        <time>2022-06-02T10:58:59Z</time>
      </trkpt>
      <trkpt lat="49.42033" lon="-1.18012">
        <ele>3.6</ele>
        <time>2022-06-02T10:59:00Z</time>
      </trkpt>
      <trkpt lat="49.42033" lon="-1.18012">
        <ele>3.6</ele>
        <time>2022-06-02T10:59:01Z</time>
      </trkpt>
      <trkpt lat="49.42033" lon="-1.18012">
        <ele>3.6</ele>
        <time>2022-06-02T10:59:02Z</time>
      </trkpt>
      <trkpt lat="49.42033" lon="-1.18012">
        <ele>3.6</ele>
        <time>2022-06-02T10:59:03Z</time>
      </trkpt>
      <trkpt lat="49.42033" lon="-1.18012">
        <ele>3.6</ele>
        <time>2022-06-02T10:59:04Z</time>
      </trkpt>
      <trkpt lat="49.42033" lon="-1.18012">
        <ele>3.6</ele>
        <time>2022-06-02T10:59:05Z</time>
      </trkpt>
      <trkpt lat="49.42033" lon="-1.18012">
        <ele>3.6</ele>
        <time>2022-06-02T10:59:06Z</time>
      </trkpt>
      <trkpt lat="49.42033" lon="-1.18012">
        <ele>3.6</ele>
        <time>2022-06-02T10:59:07Z</time>
      </trkpt>
      <trkpt lat="49.42033" lon="-1.18012">
        <ele>3.6</ele>
        <time>2022-06-02T10:59:08Z</time>
      </trkpt>
      <trkpt lat="49.42033" lon="-1.18012">
        <ele>3.6</ele>
        <time>2022-06-02T10:59:09Z</time>
      </trkpt>
      <trkpt lat="49.42033" lon="-1.18012">
        <ele>3.6</ele>
        <time>2022-06-02T10:59:10Z</time>
      </trkpt>
      <trkpt lat="49.42033" lon="-1.18012">
        <ele>3.6</ele>
        <time>2022-06-02T10:59:11Z</time>
      </trkpt>
      <trkpt lat="49.42033" lon="-1.18012">
        <ele>3.6</ele>
        <time>2022-06-02T10:59:12Z</time>
      </trkpt>
      <trkpt lat="49.42033" lon="-1.18012">
        <ele>3.6</ele>
        <time>2022-06-02T10:59:13Z</time>
      </trkpt>
      <trkpt lat="49.42033" lon="-1.18012">
        <ele>3.6</ele>
        <time>2022-06-02T10:59:14Z</time>
      </trkpt>
      <trkpt lat="49.42033" lon="-1.18012">
        <ele>3.6</ele>
        <time>2022-06-02T10:59:15Z</time>
      </trkpt>
      <trkpt lat="49.42033" lon="-1.18012">
        <ele>3.6</ele>
        <time>2022-06-02T10:59:16Z</time>
      </trkpt>
      <trkpt lat="49.42033" lon="-1.18012">
        <ele>3.6</ele>
        <time>2022-06-02T10:59:17Z</time>
      </trkpt>
      <trkpt lat="49.42033" lon="-1.18012">
        <ele>3.6</ele>
        <time>2022-06-02T10:59:18Z</time>
      </trkpt>
      <trkpt lat="49.42033" lon="-1.18012">
        <ele>3.6</ele>
        <time>2022-06-02T10:59:19Z</time>
      </trkpt>
      <trkpt lat="49.42033" lon="-1.18012">
        <ele>3.6</ele>
        <time>2022-06-02T10:59:20Z</time>
      </trkpt>
      <trkpt lat="49.42033" lon="-1.18012">
        <ele>3.6</ele>
        <time>2022-06-02T10:59:21Z</time>
      </trkpt>
      <trkpt lat="49.42033" lon="-1.18012">
        <ele>3.6</ele>
        <time>2022-06-02T10:59:22Z</time>
      </trkpt>
      <trkpt lat="49.42033" lon="-1.18012">
        <ele>3.6</ele>
        <time>2022-06-02T10:59:23Z</time>
      </trkpt>
      <trkpt lat="49.42033" lon="-1.18012">
        <ele>3.6</ele>
        <time>2022-06-02T10:59:24Z</time>
      </trkpt>
      <trkpt lat="49.41524" lon="-1.17514">
        <ele>3.9</ele>
        <time>2022-06-02T12:11:13Z</time>
      </trkpt>
      <trkpt lat="49.41523" lon="-1.17515">
        <ele>3.9</ele>
        <time>2022-06-02T12:11:14Z</time>
      </trkpt>
      <trkpt lat="49.41522" lon="-1.17515">
        <ele>3.9</ele>
        <time>2022-06-02T12:11:15Z</time>
      </trkpt>
      <trkpt lat="49.41524" lon="-1.17511">
        <ele>3.9</ele>
        <time>2022-06-02T12:11:16Z</time>
      </trkpt>
      <trkpt lat="49.41522" lon="-1.17514">
        <ele>3.9</ele>
        <time>2022-06-02T12:11:18Z</time>
      </trkpt>
      <trkpt lat="49.41522" lon="-1.17514">
        <ele>3.9</ele>
        <time>2022-06-02T12:11:19Z</time>
      </trkpt>
      <trkpt lat="49.41521" lon="-1.17515">
        <ele>3.9</ele>
        <time>2022-06-02T12:11:20Z</time>
      </trkpt>
      <trkpt lat="49.41521" lon="-1.17516">
        <ele>3.9</ele>
        <time>2022-06-02T12:11:21Z</time>
      </trkpt>
      <trkpt lat="49.41519" lon="-1.17517">
        <ele>3.9</ele>
        <time>2022-06-02T12:11:22Z</time>
      </trkpt>
      <trkpt lat="49.41518" lon="-1.17518">
        <ele>3.9</ele>
        <time>2022-06-02T12:11:24Z</time>
      </trkpt>
      <trkpt lat="49.41517" lon="-1.17518">
        <ele>3.9</ele>
        <time>2022-06-02T12:11:25Z</time>
      </trkpt>
      <trkpt lat="49.41516" lon="-1.17519">
        <ele>3.9</ele>
        <time>2022-06-02T12:11:26Z</time>
      </trkpt>
      <trkpt lat="49.41513" lon="-1.1752">
        <ele>3.9</ele>
        <time>2022-06-02T12:11:28Z</time>
      </trkpt>
      <trkpt lat="49.41512" lon="-1.1752">
        <ele>3.9</ele>
        <time>2022-06-02T12:11:29Z</time>
      </trkpt>
      <trkpt lat="49.41511" lon="-1.1752">
        <ele>3.9</ele>
        <time>2022-06-02T12:11:31Z</time>
      </trkpt>
      <trkpt lat="49.4151" lon="-1.17519">
        <ele>3.9</ele>
        <time>2022-06-02T12:11:32Z</time>
      </trkpt>
      <trkpt lat="49.4151" lon="-1.1752">
        <ele>3.9</ele>
        <time>2022-06-02T12:11:34Z</time>
      </trkpt>
      <trkpt lat="49.4151" lon="-1.1752">
        <ele>3.9</ele>
        <time>2022-06-02T12:11:35Z</time>
      </trkpt>
      <trkpt lat="49.41509" lon="-1.17521">
        <ele>3.9</ele>
        <time>2022-06-02T12:11:38Z</time>
      </trkpt>
      <trkpt lat="49.41509" lon="-1.1752">
        <ele>3.9</ele>
        <time>2022-06-02T12:11:39Z</time>
      </trkpt>
      <trkpt lat="49.41508" lon="-1.17519">
        <ele>3.9</ele>
        <time>2022-06-02T12:11:40Z</time>
      </trkpt>
      <trkpt lat="49.41507" lon="-1.17519">
        <ele>3.9</ele>
        <time>2022-06-02T12:11:42Z</time>
      </trkpt>
      <trkpt lat="49.41506" lon="-1.17518">
        <ele>3.9</ele>
        <time>2022-06-02T12:11:43Z</time>
      </trkpt>
      <trkpt lat="49.41505" lon="-1.17516">
        <ele>3.9</ele>
        <time>2022-06-02T12:11:44Z</time>
      </trkpt>
      <trkpt lat="49.41504" lon="-1.17516">
        <ele>3.9</ele>
        <time>2022-06-02T12:11:45Z</time>
      </trkpt>
      <trkpt lat="49.41503" lon="-1.17515">
        <ele>3.9</ele>
        <time>2022-06-02T12:11:47Z</time>
      </trkpt>
      <trkpt lat="49.41502" lon="-1.17512">
        <ele>3.9</ele>
        <time>2022-06-02T12:11:48Z</time>
      </trkpt>
      <trkpt lat="49.41501" lon="-1.17511">
        <ele>3.9</ele>
        <time>2022-06-02T12:11:49Z</time>
      </trkpt>
      <trkpt lat="49.415" lon="-1.17511">
        <ele>3.9</ele>
        <time>2022-06-02T12:11:50Z</time>
      </trkpt>
      <trkpt lat="49.41499" lon="-1.1751">
        <ele>3.9</ele>
        <time>2022-06-02T12:11:52Z</time>
      </trkpt>
      <trkpt lat="49.41498" lon="-1.17509">
        <ele>3.9</ele>
        <time>2022-06-02T12:11:53Z</time>
      </trkpt>
      <trkpt lat="49.41498" lon="-1.17508">
        <ele>3.9</ele>
        <time>2022-06-02T12:11:54Z</time>
      </trkpt>
      <trkpt lat="49.41497" lon="-1.17508">
        <ele>3.9</ele>
        <time>2022-06-02T12:11:55Z</time>
      </trkpt>
      <trkpt lat="49.41496" lon="-1.17507">
        <ele>3.9</ele>
        <time>2022-06-02T12:11:56Z</time>
      </trkpt>
      <trkpt lat="49.41496" lon="-1.17507">
        <ele>3.9</ele>
        <time>2022-06-02T12:11:57Z</time>
      </trkpt>
      <trkpt lat="49.41497" lon="-1.17506">
        <ele>3.9</ele>
        <time>2022-06-02T12:11:58Z</time>
      </trkpt>
      <trkpt lat="49.41496" lon="-1.17505">
        <ele>3.9</ele>
        <time>2022-06-02T12:11:59Z</time>
      </trkpt>
      <trkpt lat="49.41495" lon="-1.17504">
        <ele>3.9</ele>
        <time>2022-06-02T12:12:01Z</time>
      </trkpt>
      <trkpt lat="49.41494" lon="-1.17503">
        <ele>3.9</ele>
        <time>2022-06-02T12:12:02Z</time>
      </trkpt>
      <trkpt lat="49.41494" lon="-1.17504">
        <ele>3.9</ele>
        <time>2022-06-02T12:12:03Z</time>
      </trkpt>
      <trkpt lat="49.41494" lon="-1.17504">
        <ele>3.9</ele>
        <time>2022-06-02T12:12:04Z</time>
      </trkpt>
      <trkpt lat="49.41494" lon="-1.17505">
        <ele>3.9</ele>
        <time>2022-06-02T12:12:05Z</time>
      </trkpt>
      <trkpt lat="49.41494" lon="-1.17505">
        <ele>3.9</ele>
        <time>2022-06-02T12:12:06Z</time>
      </trkpt>
      <trkpt lat="49.41494" lon="-1.17505">
        <ele>3.9</ele>
        <time>2022-06-02T12:12:07Z</time>
      </trkpt>
      <trkpt lat="49.41494" lon="-1.17505">
        <ele>3.9</ele>
        <time>2022-06-02T12:12:08Z</time>
      </trkpt>
      <trkpt lat="49.41494" lon="-1.17504">
        <ele>3.9</ele>
        <time>2022-06-02T12:12:09Z</time>
      </trkpt>
      <trkpt lat="49.41494" lon="-1.17504">
        <ele>3.8</ele>
        <time>2022-06-02T12:12:10Z</time>
      </trkpt>
      <trkpt lat="49.41494" lon="-1.17504">
        <ele>3.8</ele>
        <time>2022-06-02T12:12:11Z</time>
      </trkpt>
      <trkpt lat="49.41494" lon="-1.17504">
        <ele>3.8</ele>
        <time>2022-06-02T12:12:12Z</time>
      </trkpt>
      <trkpt lat="49.41495" lon="-1.17504">
        <ele>3.8</ele>
        <time>2022-06-02T12:12:13Z</time>
      </trkpt>
      <trkpt lat="49.41495" lon="-1.17503">
        <ele>3.8</ele>
        <time>2022-06-02T12:12:14Z</time>
      </trkpt>
      <trkpt lat="49.41495" lon="-1.17503">
        <ele>3.8</ele>
        <time>2022-06-02T12:12:15Z</time>
      </trkpt>
      <trkpt lat="49.41495" lon="-1.17503">
        <ele>3.8</ele>
        <time>2022-06-02T12:12:16Z</time>
      </trkpt>
      <trkpt lat="49.41495" lon="-1.17503">
        <ele>3.8</ele>
        <time>2022-06-02T12:12:17Z</time>
      </trkpt>
      <trkpt lat="49.41496" lon="-1.17503">
        <ele>3.8</ele>
        <time>2022-06-02T12:12:18Z</time>
      </trkpt>
      <trkpt lat="49.41495" lon="-1.17503">
        <ele>3.8</ele>
        <time>2022-06-02T12:12:20Z</time>
      </trkpt>
      <trkpt lat="49.41495" lon="-1.17503">
        <ele>3.8</ele>
        <time>2022-06-02T12:12:21Z</time>
      </trkpt>
      <trkpt lat="49.41495" lon="-1.17502">
        <ele>3.8</ele>
        <time>2022-06-02T12:12:22Z</time>
      </trkpt>
      <trkpt lat="49.41494" lon="-1.175">
        <ele>3.8</ele>
        <time>2022-06-02T12:12:23Z</time>
      </trkpt>
      <trkpt lat="49.41493" lon="-1.175">
        <ele>3.8</ele>
        <time>2022-06-02T12:12:24Z</time>
      </trkpt>
      <trkpt lat="49.41492" lon="-1.17499">
        <ele>3.8</ele>
        <time>2022-06-02T12:12:25Z</time>
      </trkpt>
      <trkpt lat="49.41492" lon="-1.17499">
        <ele>3.8</ele>
        <time>2022-06-02T12:12:26Z</time>
      </trkpt>
      <trkpt lat="49.41491" lon="-1.17498">
        <ele>3.8</ele>
        <time>2022-06-02T12:12:27Z</time>
      </trkpt>
      <trkpt lat="49.41491" lon="-1.17493">
        <ele>3.8</ele>
        <time>2022-06-02T12:12:28Z</time>
      </trkpt>
      <trkpt lat="49.41491" lon="-1.17492">
        <ele>3.8</ele>
        <time>2022-06-02T12:12:29Z</time>
      </trkpt>
      <trkpt lat="49.41491" lon="-1.17492">
        <ele>3.8</ele>
        <time>2022-06-02T12:12:30Z</time>
      </trkpt>
      <trkpt lat="49.4149" lon="-1.17492">
        <ele>3.8</ele>
        <time>2022-06-02T12:12:32Z</time>
      </trkpt>
      <trkpt lat="49.4149" lon="-1.17492">
        <ele>3.7</ele>
        <time>2022-06-02T12:12:33Z</time>
      </trkpt>
      <trkpt lat="49.4149" lon="-1.17491">
        <ele>3.7</ele>
        <time>2022-06-02T12:12:34Z</time>
      </trkpt>
      <trkpt lat="49.41489" lon="-1.17491">
        <ele>3.7</ele>
        <time>2022-06-02T12:12:35Z</time>
      </trkpt>
      <trkpt lat="49.41488" lon="-1.17491">
        <ele>3.7</ele>
        <time>2022-06-02T12:12:37Z</time>
      </trkpt>
      <trkpt lat="49.41486" lon="-1.17491">
        <ele>3.7</ele>
        <time>2022-06-02T12:12:38Z</time>
      </trkpt>
      <trkpt lat="49.41486" lon="-1.17491">
        <ele>3.7</ele>
        <time>2022-06-02T12:12:39Z</time>
      </trkpt>
      <trkpt lat="49.41485" lon="-1.17491">
        <ele>3.7</ele>
        <time>2022-06-02T12:12:40Z</time>
      </trkpt>
      <trkpt lat="49.41484" lon="-1.1749">
        <ele>3.7</ele>
        <time>2022-06-02T12:12:41Z</time>
      </trkpt>
      <trkpt lat="49.41484" lon="-1.17489">
        <ele>3.7</ele>
        <time>2022-06-02T12:12:43Z</time>
      </trkpt>
      <trkpt lat="49.41483" lon="-1.17488">
        <ele>3.7</ele>
        <time>2022-06-02T12:12:44Z</time>
      </trkpt>
      <trkpt lat="49.41483" lon="-1.17487">
        <ele>3.7</ele>
        <time>2022-06-02T12:12:45Z</time>
      </trkpt>
      <trkpt lat="49.41482" lon="-1.17486">
        <ele>3.7</ele>
        <time>2022-06-02T12:12:46Z</time>
      </trkpt>
      <trkpt lat="49.41482" lon="-1.17485">
        <ele>3.7</ele>
        <time>2022-06-02T12:12:47Z</time>
      </trkpt>
      <trkpt lat="49.41482" lon="-1.17485">
        <ele>3.7</ele>
        <time>2022-06-02T12:12:48Z</time>
      </trkpt>
      <trkpt lat="49.41482" lon="-1.17482">
        <ele>3.7</ele>
        <time>2022-06-02T12:12:50Z</time>
      </trkpt>
      <trkpt lat="49.41482" lon="-1.1748">
        <ele>3.7</ele>
        <time>2022-06-02T12:12:51Z</time>
      </trkpt>
      <trkpt lat="49.41482" lon="-1.17479">
        <ele>3.7</ele>
        <time>2022-06-02T12:12:52Z</time>
      </trkpt>
      <trkpt lat="49.41482" lon="-1.17478">
        <ele>3.6</ele>
        <time>2022-06-02T12:12:53Z</time>
      </trkpt>
      <trkpt lat="49.41481" lon="-1.17478">
        <ele>3.6</ele>
        <time>2022-06-02T12:12:54Z</time>
      </trkpt>
      <trkpt lat="49.41481" lon="-1.17477">
        <ele>3.6</ele>
        <time>2022-06-02T12:12:56Z</time>
      </trkpt>
      <trkpt lat="49.4148" lon="-1.17476">
        <ele>3.6</ele>
        <time>2022-06-02T12:12:58Z</time>
      </trkpt>
      <trkpt lat="49.41481" lon="-1.17476">
        <ele>3.6</ele>
        <time>2022-06-02T12:12:59Z</time>
      </trkpt>
      <trkpt lat="49.41482" lon="-1.17476">
        <ele>3.6</ele>
        <time>2022-06-02T12:13:00Z</time>
      </trkpt>
      <trkpt lat="49.41482" lon="-1.17476">
        <ele>3.6</ele>
        <time>2022-06-02T12:13:01Z</time>
      </trkpt>
      <trkpt lat="49.41482" lon="-1.17476">
        <ele>3.6</ele>
        <time>2022-06-02T12:13:02Z</time>
      </trkpt>
      <trkpt lat="49.41481" lon="-1.17477">
        <ele>3.6</ele>
        <time>2022-06-02T12:13:04Z</time>
      </trkpt>
      <trkpt lat="49.41481" lon="-1.17477">
        <ele>3.6</ele>
        <time>2022-06-02T12:13:05Z</time>
      </trkpt>
      <trkpt lat="49.41481" lon="-1.17477">
        <ele>3.6</ele>
        <time>2022-06-02T12:13:06Z</time>
      </trkpt>
      <trkpt lat="49.41481" lon="-1.17478">
        <ele>3.6</ele>
        <time>2022-06-02T12:13:07Z</time>
      </trkpt>
      <trkpt lat="49.41481" lon="-1.17478">
        <ele>3.6</ele>
        <time>2022-06-02T12:13:08Z</time>
      </trkpt>
      <trkpt lat="49.41481" lon="-1.17478">
        <ele>3.6</ele>
        <time>2022-06-02T12:13:09Z</time>
      </trkpt>
      <trkpt lat="49.41481" lon="-1.17478">
        <ele>3.6</ele>
        <time>2022-06-02T12:13:10Z</time>
      </trkpt>
      <trkpt lat="49.41481" lon="-1.17478">
        <ele>3.6</ele>
        <time>2022-06-02T12:13:11Z</time>
      </trkpt>
      <trkpt lat="49.41481" lon="-1.17478">
        <ele>3.6</ele>
        <time>2022-06-02T12:13:12Z</time>
      </trkpt>
      <trkpt lat="49.4148" lon="-1.17479">
        <ele>3.6</ele>
        <time>2022-06-02T12:13:13Z</time>
      </trkpt>
      <trkpt lat="49.4148" lon="-1.17479">
        <ele>3.6</ele>
        <time>2022-06-02T12:13:14Z</time>
      </trkpt>
      <trkpt lat="49.41479" lon="-1.17479">
        <ele>3.6</ele>
        <time>2022-06-02T12:13:16Z</time>
      </trkpt>
      <trkpt lat="49.41478" lon="-1.17478">
        <ele>3.6</ele>
        <time>2022-06-02T12:13:17Z</time>
      </trkpt>
      <trkpt lat="49.41475" lon="-1.17478">
        <ele>3.6</ele>
        <time>2022-06-02T12:13:18Z</time>
      </trkpt>
      <trkpt lat="49.41474" lon="-1.17479">
        <ele>3.6</ele>
        <time>2022-06-02T12:13:19Z</time>
      </trkpt>
      <trkpt lat="49.41471" lon="-1.17481">
        <ele>3.6</ele>
        <time>2022-06-02T12:13:20Z</time>
      </trkpt>
      <trkpt lat="49.41469" lon="-1.17482">
        <ele>3.6</ele>
        <time>2022-06-02T12:13:22Z</time>
      </trkpt>
      <trkpt lat="49.41467" lon="-1.17483">
        <ele>3.6</ele>
        <time>2022-06-02T12:13:23Z</time>
      </trkpt>
      <trkpt lat="49.41465" lon="-1.17483">
        <ele>3.6</ele>
        <time>2022-06-02T12:13:24Z</time>
      </trkpt>
      <trkpt lat="49.41463" lon="-1.17482">
        <ele>3.6</ele>
        <time>2022-06-02T12:13:25Z</time>
      </trkpt>
      <trkpt lat="49.41463" lon="-1.17481">
        <ele>3.6</ele>
        <time>2022-06-02T12:13:26Z</time>
      </trkpt>
      <trkpt lat="49.41462" lon="-1.1748">
        <ele>3.6</ele>
        <time>2022-06-02T12:13:27Z</time>
      </trkpt>
      <trkpt lat="49.41461" lon="-1.17479">
        <ele>3.6</ele>
        <time>2022-06-02T12:13:29Z</time>
      </trkpt>
      <trkpt lat="49.4146" lon="-1.17478">
        <ele>3.6</ele>
        <time>2022-06-02T12:13:30Z</time>
      </trkpt>
      <trkpt lat="49.41459" lon="-1.17477">
        <ele>3.6</ele>
        <time>2022-06-02T12:13:31Z</time>
      </trkpt>
      <trkpt lat="49.41458" lon="-1.17476">
        <ele>3.6</ele>
        <time>2022-06-02T12:13:32Z</time>
      </trkpt>
      <trkpt lat="49.41457" lon="-1.17474">
        <ele>3.6</ele>
        <time>2022-06-02T12:13:33Z</time>
      </trkpt>
      <trkpt lat="49.41456" lon="-1.17473">
        <ele>3.6</ele>
        <time>2022-06-02T12:13:34Z</time>
      </trkpt>
      <trkpt lat="49.41455" lon="-1.17472">
        <ele>3.6</ele>
        <time>2022-06-02T12:13:35Z</time>
      </trkpt>
      <trkpt lat="49.41455" lon="-1.17471">
        <ele>3.6</ele>
        <time>2022-06-02T12:13:37Z</time>
      </trkpt>
      <trkpt lat="49.41454" lon="-1.1747">
        <ele>3.6</ele>
        <time>2022-06-02T12:13:38Z</time>
      </trkpt>
      <trkpt lat="49.41453" lon="-1.17469">
        <ele>3.6</ele>
        <time>2022-06-02T12:13:39Z</time>
      </trkpt>
      <trkpt lat="49.41452" lon="-1.17469">
        <ele>3.6</ele>
        <time>2022-06-02T12:13:40Z</time>
      </trkpt>
      <trkpt lat="49.4145" lon="-1.17469">
        <ele>3.6</ele>
        <time>2022-06-02T12:13:41Z</time>
      </trkpt>
      <trkpt lat="49.41449" lon="-1.17468">
        <ele>3.6</ele>
        <time>2022-06-02T12:13:42Z</time>
      </trkpt>
      <trkpt lat="49.41447" lon="-1.17467">
        <ele>3.6</ele>
        <time>2022-06-02T12:13:43Z</time>
      </trkpt>
      <trkpt lat="49.41446" lon="-1.17465">
        <ele>3.6</ele>
        <time>2022-06-02T12:13:45Z</time>
      </trkpt>
      <trkpt lat="49.41445" lon="-1.17463">
        <ele>3.6</ele>
        <time>2022-06-02T12:13:46Z</time>
      </trkpt>
      <trkpt lat="49.41443" lon="-1.17462">
        <ele>3.6</ele>
        <time>2022-06-02T12:13:47Z</time>
      </trkpt>
      <trkpt lat="49.41441" lon="-1.1746">
        <ele>3.5</ele>
        <time>2022-06-02T12:13:48Z</time>
      </trkpt>
      <trkpt lat="49.4144" lon="-1.17459">
        <ele>3.5</ele>
        <time>2022-06-02T12:13:49Z</time>
      </trkpt>
      <trkpt lat="49.4144" lon="-1.17458">
        <ele>3.5</ele>
        <time>2022-06-02T12:13:50Z</time>
      </trkpt>
      <trkpt lat="49.41439" lon="-1.17457">
        <ele>3.5</ele>
        <time>2022-06-02T12:13:51Z</time>
      </trkpt>
      <trkpt lat="49.41438" lon="-1.17456">
        <ele>3.5</ele>
        <time>2022-06-02T12:13:53Z</time>
      </trkpt>
      <trkpt lat="49.41438" lon="-1.17455">
        <ele>3.5</ele>
        <time>2022-06-02T12:13:54Z</time>
      </trkpt>
      <trkpt lat="49.41437" lon="-1.17453">
        <ele>3.5</ele>
        <time>2022-06-02T12:13:55Z</time>
      </trkpt>
      <trkpt lat="49.41436" lon="-1.17452">
        <ele>3.5</ele>
        <time>2022-06-02T12:13:56Z</time>
      </trkpt>
      <trkpt lat="49.41435" lon="-1.17454">
        <ele>3.5</ele>
        <time>2022-06-02T12:13:57Z</time>
      </trkpt>
      <trkpt lat="49.41436" lon="-1.17456">
        <ele>3.5</ele>
        <time>2022-06-02T12:13:58Z</time>
      </trkpt>
      <trkpt lat="49.41435" lon="-1.17458">
        <ele>3.5</ele>
        <time>2022-06-02T12:14:00Z</time>
      </trkpt>
      <trkpt lat="49.41435" lon="-1.17458">
        <ele>3.5</ele>
        <time>2022-06-02T12:14:01Z</time>
      </trkpt>
      <trkpt lat="49.41434" lon="-1.17458">
        <ele>3.4</ele>
        <time>2022-06-02T12:14:02Z</time>
      </trkpt>
      <trkpt lat="49.41434" lon="-1.17458">
        <ele>3.4</ele>
        <time>2022-06-02T12:14:03Z</time>
      </trkpt>
      <trkpt lat="49.41433" lon="-1.17458">
        <ele>3.4</ele>
        <time>2022-06-02T12:14:04Z</time>
      </trkpt>
      <trkpt lat="49.41433" lon="-1.17457">
        <ele>3.4</ele>
        <time>2022-06-02T12:14:06Z</time>
      </trkpt>
      <trkpt lat="49.41433" lon="-1.17456">
        <ele>3.4</ele>
        <time>2022-06-02T12:14:07Z</time>
      </trkpt>
      <trkpt lat="49.41433" lon="-1.17455">
        <ele>3.4</ele>
        <time>2022-06-02T12:14:08Z</time>
      </trkpt>
      <trkpt lat="49.41433" lon="-1.17454">
        <ele>3.4</ele>
        <time>2022-06-02T12:14:09Z</time>
      </trkpt>
      <trkpt lat="49.41432" lon="-1.17452">
        <ele>3.4</ele>
        <time>2022-06-02T12:14:10Z</time>
      </trkpt>
      <trkpt lat="49.41432" lon="-1.17451">
        <ele>3.4</ele>
        <time>2022-06-02T12:14:11Z</time>
      </trkpt>
      <trkpt lat="49.41431" lon="-1.17449">
        <ele>3.4</ele>
        <time>2022-06-02T12:14:12Z</time>
      </trkpt>
      <trkpt lat="49.4143" lon="-1.17448">
        <ele>3.4</ele>
        <time>2022-06-02T12:14:14Z</time>
      </trkpt>
      <trkpt lat="49.41429" lon="-1.17446">
        <ele>3.4</ele>
        <time>2022-06-02T12:14:15Z</time>
      </trkpt>
      <trkpt lat="49.41429" lon="-1.17443">
        <ele>3.4</ele>
        <time>2022-06-02T12:14:16Z</time>
      </trkpt>
      <trkpt lat="49.41428" lon="-1.17442">
        <ele>3.4</ele>
        <time>2022-06-02T12:14:17Z</time>
      </trkpt>
      <trkpt lat="49.41428" lon="-1.17441">
        <ele>3.3</ele>
        <time>2022-06-02T12:14:18Z</time>
      </trkpt>
      <trkpt lat="49.41427" lon="-1.17439">
        <ele>3.3</ele>
        <time>2022-06-02T12:14:19Z</time>
      </trkpt>
      <trkpt lat="49.41426" lon="-1.17438">
        <ele>3.3</ele>
        <time>2022-06-02T12:14:20Z</time>
      </trkpt>
      <trkpt lat="49.41425" lon="-1.17437">
        <ele>3.3</ele>
        <time>2022-06-02T12:14:21Z</time>
      </trkpt>
      <trkpt lat="49.41424" lon="-1.17436">
        <ele>3.3</ele>
        <time>2022-06-02T12:14:22Z</time>
      </trkpt>
      <trkpt lat="49.41423" lon="-1.17435">
        <ele>3.3</ele>
        <time>2022-06-02T12:14:24Z</time>
      </trkpt>
      <trkpt lat="49.41422" lon="-1.17434">
        <ele>3.3</ele>
        <time>2022-06-02T12:14:25Z</time>
      </trkpt>
      <trkpt lat="49.41421" lon="-1.17433">
        <ele>3.3</ele>
        <time>2022-06-02T12:14:26Z</time>
      </trkpt>
      <trkpt lat="49.4142" lon="-1.17432">
        <ele>3.3</ele>
        <time>2022-06-02T12:14:27Z</time>
      </trkpt>
      <trkpt lat="49.41419" lon="-1.17432">
        <ele>3.3</ele>
        <time>2022-06-02T12:14:28Z</time>
      </trkpt>
      <trkpt lat="49.41418" lon="-1.17431">
        <ele>3.3</ele>
        <time>2022-06-02T12:14:29Z</time>
      </trkpt>
      <trkpt lat="49.41416" lon="-1.17431">
        <ele>3.3</ele>
        <time>2022-06-02T12:14:30Z</time>
      </trkpt>
      <trkpt lat="49.41415" lon="-1.1743">
        <ele>3.3</ele>
        <time>2022-06-02T12:14:31Z</time>
      </trkpt>
      <trkpt lat="49.41414" lon="-1.17429">
        <ele>3.3</ele>
        <time>2022-06-02T12:14:32Z</time>
      </trkpt>
      <trkpt lat="49.41412" lon="-1.17428">
        <ele>3.3</ele>
        <time>2022-06-02T12:14:33Z</time>
      </trkpt>
      <trkpt lat="49.41411" lon="-1.17428">
        <ele>3.3</ele>
        <time>2022-06-02T12:14:35Z</time>
      </trkpt>
      <trkpt lat="49.4141" lon="-1.17427">
        <ele>3.3</ele>
        <time>2022-06-02T12:14:36Z</time>
      </trkpt>
      <trkpt lat="49.41409" lon="-1.17426">
        <ele>3.3</ele>
        <time>2022-06-02T12:14:37Z</time>
      </trkpt>
      <trkpt lat="49.41408" lon="-1.17426">
        <ele>3.3</ele>
        <time>2022-06-02T12:14:38Z</time>
      </trkpt>
      <trkpt lat="49.41408" lon="-1.17425">
        <ele>3.3</ele>
        <time>2022-06-02T12:14:39Z</time>
      </trkpt>
      <trkpt lat="49.41407" lon="-1.17425">
        <ele>3.3</ele>
        <time>2022-06-02T12:14:40Z</time>
      </trkpt>
      <trkpt lat="49.41406" lon="-1.17424">
        <ele>3.3</ele>
        <time>2022-06-02T12:14:41Z</time>
      </trkpt>
      <trkpt lat="49.41405" lon="-1.17423">
        <ele>3.3</ele>
        <time>2022-06-02T12:14:42Z</time>
      </trkpt>
      <trkpt lat="49.41404" lon="-1.17423">
        <ele>3.3</ele>
        <time>2022-06-02T12:14:43Z</time>
      </trkpt>
      <trkpt lat="49.41403" lon="-1.17422">
        <ele>3.3</ele>
        <time>2022-06-02T12:14:44Z</time>
      </trkpt>
      <trkpt lat="49.41402" lon="-1.17421">
        <ele>3.3</ele>
        <time>2022-06-02T12:14:46Z</time>
      </trkpt>
      <trkpt lat="49.41401" lon="-1.1742">
        <ele>3.3</ele>
        <time>2022-06-02T12:14:47Z</time>
      </trkpt>
      <trkpt lat="49.41399" lon="-1.17419">
        <ele>3.3</ele>
        <time>2022-06-02T12:14:48Z</time>
      </trkpt>
      <trkpt lat="49.41399" lon="-1.17418">
        <ele>3.3</ele>
        <time>2022-06-02T12:14:49Z</time>
      </trkpt>
      <trkpt lat="49.41398" lon="-1.17417">
        <ele>3.3</ele>
        <time>2022-06-02T12:14:50Z</time>
      </trkpt>
      <trkpt lat="49.41396" lon="-1.17416">
        <ele>3.3</ele>
        <time>2022-06-02T12:14:51Z</time>
      </trkpt>
      <trkpt lat="49.41395" lon="-1.17415">
        <ele>3.3</ele>
        <time>2022-06-02T12:14:52Z</time>
      </trkpt>
      <trkpt lat="49.41395" lon="-1.17415">
        <ele>3.3</ele>
        <time>2022-06-02T12:14:53Z</time>
      </trkpt>
      <trkpt lat="49.41394" lon="-1.17414">
        <ele>3.4</ele>
        <time>2022-06-02T12:14:54Z</time>
      </trkpt>
      <trkpt lat="49.41393" lon="-1.17413">
        <ele>3.4</ele>
        <time>2022-06-02T12:14:55Z</time>
      </trkpt>
      <trkpt lat="49.41392" lon="-1.17412">
        <ele>3.4</ele>
        <time>2022-06-02T12:14:57Z</time>
      </trkpt>
      <trkpt lat="49.4139" lon="-1.17411">
        <ele>3.4</ele>
        <time>2022-06-02T12:14:58Z</time>
      </trkpt>
      <trkpt lat="49.41389" lon="-1.1741">
        <ele>3.4</ele>
        <time>2022-06-02T12:14:59Z</time>
      </trkpt>
      <trkpt lat="49.41388" lon="-1.1741">
        <ele>3.4</ele>
        <time>2022-06-02T12:15:00Z</time>
      </trkpt>
      <trkpt lat="49.41386" lon="-1.17409">
        <ele>3.4</ele>
        <time>2022-06-02T12:15:01Z</time>
      </trkpt>
      <trkpt lat="49.41384" lon="-1.17407">
        <ele>3.4</ele>
        <time>2022-06-02T12:15:02Z</time>
      </trkpt>
      <trkpt lat="49.41384" lon="-1.17406">
        <ele>3.4</ele>
        <time>2022-06-02T12:15:03Z</time>
      </trkpt>
      <trkpt lat="49.41383" lon="-1.17406">
        <ele>3.4</ele>
        <time>2022-06-02T12:15:04Z</time>
      </trkpt>
      <trkpt lat="49.41382" lon="-1.17404">
        <ele>3.4</ele>
        <time>2022-06-02T12:15:05Z</time>
      </trkpt>
      <trkpt lat="49.41381" lon="-1.17403">
        <ele>3.4</ele>
        <time>2022-06-02T12:15:06Z</time>
      </trkpt>
      <trkpt lat="49.4138" lon="-1.17402">
        <ele>3.4</ele>
        <time>2022-06-02T12:15:08Z</time>
      </trkpt>
      <trkpt lat="49.41379" lon="-1.17401">
        <ele>3.4</ele>
        <time>2022-06-02T12:15:09Z</time>
      </trkpt>
      <trkpt lat="49.41378" lon="-1.174">
        <ele>3.4</ele>
        <time>2022-06-02T12:15:10Z</time>
      </trkpt>
      <trkpt lat="49.41377" lon="-1.17399">
        <ele>3.4</ele>
        <time>2022-06-02T12:15:11Z</time>
      </trkpt>
      <trkpt lat="49.41375" lon="-1.17398">
        <ele>3.4</ele>
        <time>2022-06-02T12:15:12Z</time>
      </trkpt>
      <trkpt lat="49.41375" lon="-1.17397">
        <ele>3.4</ele>
        <time>2022-06-02T12:15:13Z</time>
      </trkpt>
      <trkpt lat="49.41374" lon="-1.17396">
        <ele>3.5</ele>
        <time>2022-06-02T12:15:14Z</time>
      </trkpt>
      <trkpt lat="49.41373" lon="-1.17395">
        <ele>3.5</ele>
        <time>2022-06-02T12:15:15Z</time>
      </trkpt>
      <trkpt lat="49.41372" lon="-1.17393">
        <ele>3.5</ele>
        <time>2022-06-02T12:15:16Z</time>
      </trkpt>
      <trkpt lat="49.41371" lon="-1.17392">
        <ele>3.5</ele>
        <time>2022-06-02T12:15:17Z</time>
      </trkpt>
      <trkpt lat="49.4137" lon="-1.17391">
        <ele>3.5</ele>
        <time>2022-06-02T12:15:19Z</time>
      </trkpt>
      <trkpt lat="49.41369" lon="-1.17391">
        <ele>3.5</ele>
        <time>2022-06-02T12:15:20Z</time>
      </trkpt>
      <trkpt lat="49.41368" lon="-1.1739">
        <ele>3.5</ele>
        <time>2022-06-02T12:15:21Z</time>
      </trkpt>
      <trkpt lat="49.41367" lon="-1.17389">
        <ele>3.5</ele>
        <time>2022-06-02T12:15:22Z</time>
      </trkpt>
      <trkpt lat="49.41367" lon="-1.17387">
        <ele>3.5</ele>
        <time>2022-06-02T12:15:23Z</time>
      </trkpt>
      <trkpt lat="49.41366" lon="-1.17386">
        <ele>3.5</ele>
        <time>2022-06-02T12:15:24Z</time>
      </trkpt>
      <trkpt lat="49.41366" lon="-1.17385">
        <ele>3.5</ele>
        <time>2022-06-02T12:15:25Z</time>
      </trkpt>
      <trkpt lat="49.41365" lon="-1.17383">
        <ele>3.5</ele>
        <time>2022-06-02T12:15:26Z</time>
      </trkpt>
      <trkpt lat="49.41365" lon="-1.17382">
        <ele>3.5</ele>
        <time>2022-06-02T12:15:27Z</time>
      </trkpt>
      <trkpt lat="49.41366" lon="-1.17378">
        <ele>3.5</ele>
        <time>2022-06-02T12:15:29Z</time>
      </trkpt>
      <trkpt lat="49.41366" lon="-1.17377">
        <ele>3.7</ele>
        <time>2022-06-02T12:15:30Z</time>
      </trkpt>
      <trkpt lat="49.41366" lon="-1.17375">
        <ele>3.8</ele>
        <time>2022-06-02T12:15:31Z</time>
      </trkpt>
      <trkpt lat="49.41367" lon="-1.17374">
        <ele>3.8</ele>
        <time>2022-06-02T12:15:32Z</time>
      </trkpt>
      <trkpt lat="49.41367" lon="-1.17373">
        <ele>3.8</ele>
        <time>2022-06-02T12:15:33Z</time>
      </trkpt>
      <trkpt lat="49.41368" lon="-1.17372">
        <ele>3.8</ele>
        <time>2022-06-02T12:15:34Z</time>
      </trkpt>
      <trkpt lat="49.4137" lon="-1.1737">
        <ele>3.9</ele>
        <time>2022-06-02T12:15:35Z</time>
      </trkpt>
      <trkpt lat="49.4137" lon="-1.17369">
        <ele>3.9</ele>
        <time>2022-06-02T12:15:37Z</time>
      </trkpt>
      <trkpt lat="49.41371" lon="-1.17369">
        <ele>3.9</ele>
        <time>2022-06-02T12:15:38Z</time>
      </trkpt>
      <trkpt lat="49.41373" lon="-1.17367">
        <ele>3.9</ele>
        <time>2022-06-02T12:15:39Z</time>
      </trkpt>
      <trkpt lat="49.41373" lon="-1.17366">
        <ele>4</ele>
        <time>2022-06-02T12:15:40Z</time>
      </trkpt>
      <trkpt lat="49.41374" lon="-1.17365">
        <ele>4</ele>
        <time>2022-06-02T12:15:41Z</time>
      </trkpt>
      <trkpt lat="49.41375" lon="-1.17363">
        <ele>4</ele>
        <time>2022-06-02T12:15:42Z</time>
      </trkpt>
      <trkpt lat="49.41375" lon="-1.17362">
        <ele>4</ele>
        <time>2022-06-02T12:15:43Z</time>
      </trkpt>
      <trkpt lat="49.41376" lon="-1.1736">
        <ele>4.1</ele>
        <time>2022-06-02T12:15:45Z</time>
      </trkpt>
      <trkpt lat="49.41376" lon="-1.17358">
        <ele>4.1</ele>
        <time>2022-06-02T12:15:46Z</time>
      </trkpt>
      <trkpt lat="49.41377" lon="-1.17357">
        <ele>4.1</ele>
        <time>2022-06-02T12:15:47Z</time>
      </trkpt>
      <trkpt lat="49.41377" lon="-1.17355">
        <ele>4.1</ele>
        <time>2022-06-02T12:15:48Z</time>
      </trkpt>
      <trkpt lat="49.41378" lon="-1.17354">
        <ele>4.1</ele>
        <time>2022-06-02T12:15:49Z</time>
      </trkpt>
      <trkpt lat="49.41378" lon="-1.17352">
        <ele>4.1</ele>
        <time>2022-06-02T12:15:50Z</time>
      </trkpt>
      <trkpt lat="49.41379" lon="-1.1735">
        <ele>4.1</ele>
        <time>2022-06-02T12:15:52Z</time>
      </trkpt>
      <trkpt lat="49.41379" lon="-1.17348">
        <ele>4.1</ele>
        <time>2022-06-02T12:15:53Z</time>
      </trkpt>
      <trkpt lat="49.41378" lon="-1.17347">
        <ele>4.1</ele>
        <time>2022-06-02T12:15:54Z</time>
      </trkpt>
      <trkpt lat="49.41378" lon="-1.17345">
        <ele>4.1</ele>
        <time>2022-06-02T12:15:55Z</time>
      </trkpt>
      <trkpt lat="49.41376" lon="-1.17343">
        <ele>4.1</ele>
        <time>2022-06-02T12:15:57Z</time>
      </trkpt>
      <trkpt lat="49.41376" lon="-1.17343">
        <ele>4.1</ele>
        <time>2022-06-02T12:15:58Z</time>
      </trkpt>
      <trkpt lat="49.41375" lon="-1.17342">
        <ele>4.1</ele>
        <time>2022-06-02T12:15:59Z</time>
      </trkpt>
      <trkpt lat="49.41375" lon="-1.17342">
        <ele>4.1</ele>
        <time>2022-06-02T12:16:00Z</time>
      </trkpt>
      <trkpt lat="49.41375" lon="-1.17342">
        <ele>4.1</ele>
        <time>2022-06-02T12:16:01Z</time>
      </trkpt>
      <trkpt lat="49.41375" lon="-1.17341">
        <ele>4.1</ele>
        <time>2022-06-02T12:16:02Z</time>
      </trkpt>
      <trkpt lat="49.41376" lon="-1.17341">
        <ele>4.1</ele>
        <time>2022-06-02T12:16:03Z</time>
      </trkpt>
      <trkpt lat="49.41376" lon="-1.17341">
        <ele>4.1</ele>
        <time>2022-06-02T12:16:04Z</time>
      </trkpt>
      <trkpt lat="49.41376" lon="-1.1734">
        <ele>4.1</ele>
        <time>2022-06-02T12:16:05Z</time>
      </trkpt>
      <trkpt lat="49.41377" lon="-1.1734">
        <ele>4.1</ele>
        <time>2022-06-02T12:16:06Z</time>
      </trkpt>
      <trkpt lat="49.41377" lon="-1.1734">
        <ele>4.1</ele>
        <time>2022-06-02T12:16:08Z</time>
      </trkpt>
      <trkpt lat="49.41377" lon="-1.1734">
        <ele>4.1</ele>
        <time>2022-06-02T12:16:09Z</time>
      </trkpt>
      <trkpt lat="49.41378" lon="-1.17339">
        <ele>4.1</ele>
        <time>2022-06-02T12:16:10Z</time>
      </trkpt>
      <trkpt lat="49.41378" lon="-1.17339">
        <ele>4.1</ele>
        <time>2022-06-02T12:16:11Z</time>
      </trkpt>
      <trkpt lat="49.41379" lon="-1.17338">
        <ele>4.1</ele>
        <time>2022-06-02T12:16:12Z</time>
      </trkpt>
      <trkpt lat="49.4138" lon="-1.17337">
        <ele>4.1</ele>
        <time>2022-06-02T12:16:14Z</time>
      </trkpt>
      <trkpt lat="49.41381" lon="-1.17336">
        <ele>4.1</ele>
        <time>2022-06-02T12:16:15Z</time>
      </trkpt>
      <trkpt lat="49.41382" lon="-1.17335">
        <ele>4.1</ele>
        <time>2022-06-02T12:16:16Z</time>
      </trkpt>
      <trkpt lat="49.41383" lon="-1.17333">
        <ele>4.1</ele>
        <time>2022-06-02T12:16:17Z</time>
      </trkpt>
      <trkpt lat="49.41384" lon="-1.17332">
        <ele>4.1</ele>
        <time>2022-06-02T12:16:18Z</time>
      </trkpt>
      <trkpt lat="49.41385" lon="-1.17331">
        <ele>4.1</ele>
        <time>2022-06-02T12:16:20Z</time>
      </trkpt>
      <trkpt lat="49.41385" lon="-1.17329">
        <ele>4.1</ele>
        <time>2022-06-02T12:16:21Z</time>
      </trkpt>
      <trkpt lat="49.41386" lon="-1.17328">
        <ele>4.1</ele>
        <time>2022-06-02T12:16:22Z</time>
      </trkpt>
      <trkpt lat="49.41386" lon="-1.17327">
        <ele>4.1</ele>
        <time>2022-06-02T12:16:23Z</time>
      </trkpt>
      <trkpt lat="49.41386" lon="-1.17325">
        <ele>4.1</ele>
        <time>2022-06-02T12:16:24Z</time>
      </trkpt>
      <trkpt lat="49.41387" lon="-1.17324">
        <ele>4.1</ele>
        <time>2022-06-02T12:16:25Z</time>
      </trkpt>
      <trkpt lat="49.41388" lon="-1.17322">
        <ele>4</ele>
        <time>2022-06-02T12:16:26Z</time>
      </trkpt>
      <trkpt lat="49.41389" lon="-1.17321">
        <ele>3.8</ele>
        <time>2022-06-02T12:16:28Z</time>
      </trkpt>
      <trkpt lat="49.41389" lon="-1.1732">
        <ele>3.5</ele>
        <time>2022-06-02T12:16:29Z</time>
      </trkpt>
      <trkpt lat="49.4139" lon="-1.17319">
        <ele>3.3</ele>
        <time>2022-06-02T12:16:30Z</time>
      </trkpt>
      <trkpt lat="49.4139" lon="-1.17318">
        <ele>3.1</ele>
        <time>2022-06-02T12:16:31Z</time>
      </trkpt>
      <trkpt lat="49.41391" lon="-1.17317">
        <ele>2.9</ele>
        <time>2022-06-02T12:16:32Z</time>
      </trkpt>
      <trkpt lat="49.41391" lon="-1.17316">
        <ele>2.7</ele>
        <time>2022-06-02T12:16:33Z</time>
      </trkpt>
      <trkpt lat="49.41391" lon="-1.17315">
        <ele>2.5</ele>
        <time>2022-06-02T12:16:34Z</time>
      </trkpt>
      <trkpt lat="49.41392" lon="-1.17314">
        <ele>2.3</ele>
        <time>2022-06-02T12:16:36Z</time>
      </trkpt>
      <trkpt lat="49.41392" lon="-1.17313">
        <ele>2</ele>
        <time>2022-06-02T12:16:37Z</time>
      </trkpt>
      <trkpt lat="49.41393" lon="-1.17312">
        <ele>1.9</ele>
        <time>2022-06-02T12:16:38Z</time>
      </trkpt>
      <trkpt lat="49.41393" lon="-1.17311">
        <ele>1.8</ele>
        <time>2022-06-02T12:16:39Z</time>
      </trkpt>
      <trkpt lat="49.41394" lon="-1.17311">
        <ele>1.8</ele>
        <time>2022-06-02T12:16:40Z</time>
      </trkpt>
      <trkpt lat="49.41394" lon="-1.1731">
        <ele>1.8</ele>
        <time>2022-06-02T12:16:41Z</time>
      </trkpt>
      <trkpt lat="49.41394" lon="-1.17309">
        <ele>1.8</ele>
        <time>2022-06-02T12:16:42Z</time>
      </trkpt>
      <trkpt lat="49.41395" lon="-1.17309">
        <ele>1.8</ele>
        <time>2022-06-02T12:16:43Z</time>
      </trkpt>
      <trkpt lat="49.41395" lon="-1.17308">
        <ele>1.8</ele>
        <time>2022-06-02T12:16:44Z</time>
      </trkpt>
      <trkpt lat="49.41396" lon="-1.17307">
        <ele>1.8</ele>
        <time>2022-06-02T12:16:45Z</time>
      </trkpt>
      <trkpt lat="49.41396" lon="-1.17306">
        <ele>1.8</ele>
        <time>2022-06-02T12:16:46Z</time>
      </trkpt>
      <trkpt lat="49.41397" lon="-1.17304">
        <ele>1.8</ele>
        <time>2022-06-02T12:16:47Z</time>
      </trkpt>
      <trkpt lat="49.41397" lon="-1.17303">
        <ele>1.8</ele>
        <time>2022-06-02T12:16:48Z</time>
      </trkpt>
      <trkpt lat="49.41398" lon="-1.17302">
        <ele>1.8</ele>
        <time>2022-06-02T12:16:49Z</time>
      </trkpt>
      <trkpt lat="49.41398" lon="-1.17301">
        <ele>1.8</ele>
        <time>2022-06-02T12:16:50Z</time>
      </trkpt>
      <trkpt lat="49.41399" lon="-1.173">
        <ele>1.7</ele>
        <time>2022-06-02T12:16:51Z</time>
      </trkpt>
      <trkpt lat="49.414" lon="-1.17298">
        <ele>1.7</ele>
        <time>2022-06-02T12:16:52Z</time>
      </trkpt>
      <trkpt lat="49.414" lon="-1.17298">
        <ele>1.7</ele>
        <time>2022-06-02T12:16:53Z</time>
      </trkpt>
      <trkpt lat="49.41401" lon="-1.17296">
        <ele>1.7</ele>
        <time>2022-06-02T12:16:54Z</time>
      </trkpt>
      <trkpt lat="49.41401" lon="-1.17295">
        <ele>1.7</ele>
        <time>2022-06-02T12:16:55Z</time>
      </trkpt>
      <trkpt lat="49.41402" lon="-1.17294">
        <ele>1.7</ele>
        <time>2022-06-02T12:16:57Z</time>
      </trkpt>
      <trkpt lat="49.41403" lon="-1.17292">
        <ele>1.7</ele>
        <time>2022-06-02T12:16:58Z</time>
      </trkpt>
      <trkpt lat="49.41403" lon="-1.17291">
        <ele>1.6</ele>
        <time>2022-06-02T12:16:59Z</time>
      </trkpt>
      <trkpt lat="49.41403" lon="-1.1729">
        <ele>1.6</ele>
        <time>2022-06-02T12:17:00Z</time>
      </trkpt>
      <trkpt lat="49.41404" lon="-1.17289">
        <ele>1.6</ele>
        <time>2022-06-02T12:17:01Z</time>
      </trkpt>
      <trkpt lat="49.41404" lon="-1.17287">
        <ele>1.6</ele>
        <time>2022-06-02T12:17:03Z</time>
      </trkpt>
      <trkpt lat="49.41405" lon="-1.17286">
        <ele>1.6</ele>
        <time>2022-06-02T12:17:04Z</time>
      </trkpt>
      <trkpt lat="49.41406" lon="-1.17285">
        <ele>1.6</ele>
        <time>2022-06-02T12:17:05Z</time>
      </trkpt>
      <trkpt lat="49.41407" lon="-1.17282">
        <ele>1.5</ele>
        <time>2022-06-02T12:17:07Z</time>
      </trkpt>
      <trkpt lat="49.41407" lon="-1.17281">
        <ele>1.5</ele>
        <time>2022-06-02T12:17:08Z</time>
      </trkpt>
      <trkpt lat="49.41408" lon="-1.17279">
        <ele>1.5</ele>
        <time>2022-06-02T12:17:09Z</time>
      </trkpt>
      <trkpt lat="49.41408" lon="-1.17278">
        <ele>1.5</ele>
        <time>2022-06-02T12:17:10Z</time>
      </trkpt>
      <trkpt lat="49.41409" lon="-1.17277">
        <ele>1.4</ele>
        <time>2022-06-02T12:17:11Z</time>
      </trkpt>
      <trkpt lat="49.41409" lon="-1.17277">
        <ele>1.4</ele>
        <time>2022-06-02T12:17:12Z</time>
      </trkpt>
      <trkpt lat="49.4141" lon="-1.17275">
        <ele>1.4</ele>
        <time>2022-06-02T12:17:14Z</time>
      </trkpt>
      <trkpt lat="49.4141" lon="-1.17274">
        <ele>1.4</ele>
        <time>2022-06-02T12:17:15Z</time>
      </trkpt>
      <trkpt lat="49.41411" lon="-1.17273">
        <ele>1.3</ele>
        <time>2022-06-02T12:17:16Z</time>
      </trkpt>
      <trkpt lat="49.41412" lon="-1.17269">
        <ele>1.3</ele>
        <time>2022-06-02T12:17:17Z</time>
      </trkpt>
      <trkpt lat="49.41412" lon="-1.17268">
        <ele>1.2</ele>
        <time>2022-06-02T12:17:18Z</time>
      </trkpt>
      <trkpt lat="49.41412" lon="-1.17265">
        <ele>1.2</ele>
        <time>2022-06-02T12:17:20Z</time>
      </trkpt>
      <trkpt lat="49.41413" lon="-1.17263">
        <ele>1.2</ele>
        <time>2022-06-02T12:17:21Z</time>
      </trkpt>
      <trkpt lat="49.41413" lon="-1.17261">
        <ele>1.1</ele>
        <time>2022-06-02T12:17:22Z</time>
      </trkpt>
      <trkpt lat="49.41413" lon="-1.1726">
        <ele>1.1</ele>
        <time>2022-06-02T12:17:23Z</time>
      </trkpt>
      <trkpt lat="49.41411" lon="-1.17258">
        <ele>1.1</ele>
        <time>2022-06-02T12:17:24Z</time>
      </trkpt>
      <trkpt lat="49.4141" lon="-1.17255">
        <ele>1</ele>
        <time>2022-06-02T12:17:25Z</time>
      </trkpt>
      <trkpt lat="49.4141" lon="-1.17254">
        <ele>1</ele>
        <time>2022-06-02T12:17:27Z</time>
      </trkpt>
      <trkpt lat="49.4141" lon="-1.17253">
        <ele>1</ele>
        <time>2022-06-02T12:17:28Z</time>
      </trkpt>
      <trkpt lat="49.4141" lon="-1.17251">
        <ele>0.9</ele>
        <time>2022-06-02T12:17:29Z</time>
      </trkpt>
      <trkpt lat="49.41409" lon="-1.17249">
        <ele>0.9</ele>
        <time>2022-06-02T12:17:30Z</time>
      </trkpt>
      <trkpt lat="49.41408" lon="-1.17249">
        <ele>0.9</ele>
        <time>2022-06-02T12:17:31Z</time>
      </trkpt>
      <trkpt lat="49.41407" lon="-1.1725">
        <ele>0.8</ele>
        <time>2022-06-02T12:17:33Z</time>
      </trkpt>
      <trkpt lat="49.41405" lon="-1.1725">
        <ele>0.8</ele>
        <time>2022-06-02T12:17:34Z</time>
      </trkpt>
      <trkpt lat="49.41403" lon="-1.17251">
        <ele>0.7</ele>
        <time>2022-06-02T12:17:35Z</time>
      </trkpt>
      <trkpt lat="49.41403" lon="-1.17251">
        <ele>0.7</ele>
        <time>2022-06-02T12:17:36Z</time>
      </trkpt>
      <trkpt lat="49.41402" lon="-1.17251">
        <ele>0.7</ele>
        <time>2022-06-02T12:17:37Z</time>
      </trkpt>
      <trkpt lat="49.41402" lon="-1.17251">
        <ele>0.6</ele>
        <time>2022-06-02T12:17:38Z</time>
      </trkpt>
      <trkpt lat="49.41401" lon="-1.17252">
        <ele>0.6</ele>
        <time>2022-06-02T12:17:39Z</time>
      </trkpt>
      <trkpt lat="49.41401" lon="-1.17252">
        <ele>0.6</ele>
        <time>2022-06-02T12:17:40Z</time>
      </trkpt>
      <trkpt lat="49.41401" lon="-1.17252">
        <ele>0.6</ele>
        <time>2022-06-02T12:17:41Z</time>
      </trkpt>
      <trkpt lat="49.41401" lon="-1.17252">
        <ele>0.6</ele>
        <time>2022-06-02T12:17:42Z</time>
      </trkpt>
      <trkpt lat="49.41401" lon="-1.17252">
        <ele>0.6</ele>
        <time>2022-06-02T12:17:43Z</time>
      </trkpt>
      <trkpt lat="49.41401" lon="-1.17253">
        <ele>0.6</ele>
        <time>2022-06-02T12:17:44Z</time>
      </trkpt>
      <trkpt lat="49.41401" lon="-1.17253">
        <ele>0.6</ele>
        <time>2022-06-02T12:17:45Z</time>
      </trkpt>
      <trkpt lat="49.41401" lon="-1.17253">
        <ele>0.6</ele>
        <time>2022-06-02T12:17:46Z</time>
      </trkpt>
      <trkpt lat="49.41401" lon="-1.17253">
        <ele>0.6</ele>
        <time>2022-06-02T12:17:47Z</time>
      </trkpt>
      <trkpt lat="49.41401" lon="-1.17253">
        <ele>0.6</ele>
        <time>2022-06-02T12:17:48Z</time>
      </trkpt>
      <trkpt lat="49.41401" lon="-1.17253">
        <ele>0.6</ele>
        <time>2022-06-02T12:17:49Z</time>
      </trkpt>
      <trkpt lat="49.41401" lon="-1.17254">
        <ele>0.6</ele>
        <time>2022-06-02T12:17:50Z</time>
      </trkpt>
      <trkpt lat="49.41401" lon="-1.17254">
        <ele>0.6</ele>
        <time>2022-06-02T12:17:51Z</time>
      </trkpt>
      <trkpt lat="49.41401" lon="-1.17254">
        <ele>0.6</ele>
        <time>2022-06-02T12:17:52Z</time>
      </trkpt>
      <trkpt lat="49.41401" lon="-1.17255">
        <ele>0.6</ele>
        <time>2022-06-02T12:17:53Z</time>
      </trkpt>
      <trkpt lat="49.41401" lon="-1.17254">
        <ele>0.6</ele>
        <time>2022-06-02T12:17:54Z</time>
      </trkpt>
      <trkpt lat="49.41402" lon="-1.17254">
        <ele>0.6</ele>
        <time>2022-06-02T12:17:55Z</time>
      </trkpt>
      <trkpt lat="49.41402" lon="-1.17254">
        <ele>0.6</ele>
        <time>2022-06-02T12:17:56Z</time>
      </trkpt>
      <trkpt lat="49.41402" lon="-1.17254">
        <ele>0.7</ele>
        <time>2022-06-02T12:17:57Z</time>
      </trkpt>
      <trkpt lat="49.41402" lon="-1.17254">
        <ele>0.7</ele>
        <time>2022-06-02T12:17:58Z</time>
      </trkpt>
      <trkpt lat="49.41402" lon="-1.17254">
        <ele>0.7</ele>
        <time>2022-06-02T12:17:59Z</time>
      </trkpt>
      <trkpt lat="49.41402" lon="-1.17254">
        <ele>0.7</ele>
        <time>2022-06-02T12:18:00Z</time>
      </trkpt>
      <trkpt lat="49.41402" lon="-1.17254">
        <ele>0.7</ele>
        <time>2022-06-02T12:18:01Z</time>
      </trkpt>
      <trkpt lat="49.41402" lon="-1.17254">
        <ele>0.7</ele>
        <time>2022-06-02T12:18:02Z</time>
      </trkpt>
      <trkpt lat="49.41402" lon="-1.17254">
        <ele>0.7</ele>
        <time>2022-06-02T12:18:03Z</time>
      </trkpt>
      <trkpt lat="49.41402" lon="-1.17254">
        <ele>0.7</ele>
        <time>2022-06-02T12:18:04Z</time>
      </trkpt>
      <trkpt lat="49.41402" lon="-1.17254">
        <ele>0.7</ele>
        <time>2022-06-02T12:18:05Z</time>
      </trkpt>
      <trkpt lat="49.41402" lon="-1.17254">
        <ele>0.7</ele>
        <time>2022-06-02T12:18:06Z</time>
      </trkpt>
      <trkpt lat="49.41402" lon="-1.17254">
        <ele>0.7</ele>
        <time>2022-06-02T12:18:07Z</time>
      </trkpt>
      <trkpt lat="49.41402" lon="-1.17254">
        <ele>0.7</ele>
        <time>2022-06-02T12:18:08Z</time>
      </trkpt>
      <trkpt lat="49.41402" lon="-1.17254">
        <ele>0.7</ele>
        <time>2022-06-02T12:18:09Z</time>
      </trkpt>
      <trkpt lat="49.41402" lon="-1.17254">
        <ele>0.7</ele>
        <time>2022-06-02T12:18:10Z</time>
      </trkpt>
      <trkpt lat="49.41402" lon="-1.17254">
        <ele>0.7</ele>
        <time>2022-06-02T12:18:11Z</time>
      </trkpt>
      <trkpt lat="49.41402" lon="-1.17254">
        <ele>0.7</ele>
        <time>2022-06-02T12:18:12Z</time>
      </trkpt>
      <trkpt lat="49.41402" lon="-1.17254">
        <ele>0.7</ele>
        <time>2022-06-02T12:18:13Z</time>
      </trkpt>
      <trkpt lat="49.41402" lon="-1.17254">
        <ele>0.7</ele>
        <time>2022-06-02T12:18:14Z</time>
      </trkpt>
      <trkpt lat="49.41402" lon="-1.17254">
        <ele>0.7</ele>
        <time>2022-06-02T12:18:15Z</time>
      </trkpt>
      <trkpt lat="49.41402" lon="-1.17254">
        <ele>0.7</ele>
        <time>2022-06-02T12:18:16Z</time>
      </trkpt>
      <trkpt lat="49.41402" lon="-1.17256">
        <ele>0.7</ele>
        <time>2022-06-02T12:18:17Z</time>
      </trkpt>
      <trkpt lat="49.41403" lon="-1.17256">
        <ele>0.7</ele>
        <time>2022-06-02T12:18:18Z</time>
      </trkpt>
      <trkpt lat="49.41403" lon="-1.17257">
        <ele>0.7</ele>
        <time>2022-06-02T12:18:19Z</time>
      </trkpt>
      <trkpt lat="49.41403" lon="-1.17257">
        <ele>0.7</ele>
        <time>2022-06-02T12:18:20Z</time>
      </trkpt>
      <trkpt lat="49.41403" lon="-1.17257">
        <ele>0.7</ele>
        <time>2022-06-02T12:18:21Z</time>
      </trkpt>
      <trkpt lat="49.41403" lon="-1.17257">
        <ele>0.7</ele>
        <time>2022-06-02T12:18:22Z</time>
      </trkpt>
      <trkpt lat="49.41403" lon="-1.17257">
        <ele>0.7</ele>
        <time>2022-06-02T12:18:23Z</time>
      </trkpt>
      <trkpt lat="49.41403" lon="-1.17257">
        <ele>0.7</ele>
        <time>2022-06-02T12:18:24Z</time>
      </trkpt>
      <trkpt lat="49.41403" lon="-1.17257">
        <ele>0.7</ele>
        <time>2022-06-02T12:18:25Z</time>
      </trkpt>
      <trkpt lat="49.41403" lon="-1.17257">
        <ele>0.7</ele>
        <time>2022-06-02T12:18:26Z</time>
      </trkpt>
      <trkpt lat="49.41403" lon="-1.17258">
        <ele>0.7</ele>
        <time>2022-06-02T12:18:27Z</time>
      </trkpt>
      <trkpt lat="49.41403" lon="-1.17258">
        <ele>0.7</ele>
        <time>2022-06-02T12:18:28Z</time>
      </trkpt>
      <trkpt lat="49.41403" lon="-1.17258">
        <ele>0.7</ele>
        <time>2022-06-02T12:18:29Z</time>
      </trkpt>
      <trkpt lat="49.41403" lon="-1.17258">
        <ele>0.7</ele>
        <time>2022-06-02T12:18:30Z</time>
      </trkpt>
      <trkpt lat="49.41403" lon="-1.17258">
        <ele>0.7</ele>
        <time>2022-06-02T12:18:31Z</time>
      </trkpt>
      <trkpt lat="49.41403" lon="-1.17258">
        <ele>0.7</ele>
        <time>2022-06-02T12:18:32Z</time>
      </trkpt>
      <trkpt lat="49.41403" lon="-1.17258">
        <ele>0.7</ele>
        <time>2022-06-02T12:18:33Z</time>
      </trkpt>
      <trkpt lat="49.41403" lon="-1.17258">
        <ele>0.7</ele>
        <time>2022-06-02T12:18:34Z</time>
      </trkpt>
      <trkpt lat="49.41403" lon="-1.17258">
        <ele>0.7</ele>
        <time>2022-06-02T12:18:35Z</time>
      </trkpt>
      <trkpt lat="49.41403" lon="-1.17258">
        <ele>0.7</ele>
        <time>2022-06-02T12:18:36Z</time>
      </trkpt>
      <trkpt lat="49.41403" lon="-1.17258">
        <ele>0.7</ele>
        <time>2022-06-02T12:18:37Z</time>
      </trkpt>
      <trkpt lat="49.41403" lon="-1.17258">
        <ele>0.7</ele>
        <time>2022-06-02T12:18:38Z</time>
      </trkpt>
      <trkpt lat="49.41403" lon="-1.17258">
        <ele>0.7</ele>
        <time>2022-06-02T12:18:39Z</time>
      </trkpt>
      <trkpt lat="49.41403" lon="-1.17258">
        <ele>0.7</ele>
        <time>2022-06-02T12:18:40Z</time>
      </trkpt>
      <trkpt lat="49.41403" lon="-1.17258">
        <ele>0.7</ele>
        <time>2022-06-02T12:18:41Z</time>
      </trkpt>
      <trkpt lat="49.41403" lon="-1.17258">
        <ele>0.7</ele>
        <time>2022-06-02T12:18:42Z</time>
      </trkpt>
      <trkpt lat="49.41403" lon="-1.17258">
        <ele>0.7</ele>
        <time>2022-06-02T12:18:43Z</time>
      </trkpt>
      <trkpt lat="49.41403" lon="-1.17258">
        <ele>0.7</ele>
        <time>2022-06-02T12:18:44Z</time>
      </trkpt>
      <trkpt lat="49.41403" lon="-1.17258">
        <ele>0.7</ele>
        <time>2022-06-02T12:18:45Z</time>
      </trkpt>
      <trkpt lat="49.41403" lon="-1.17258">
        <ele>0.7</ele>
        <time>2022-06-02T12:18:46Z</time>
      </trkpt>
      <trkpt lat="49.41403" lon="-1.17258">
        <ele>0.7</ele>
        <time>2022-06-02T12:18:47Z</time>
      </trkpt>
      <trkpt lat="49.41403" lon="-1.17258">
        <ele>0.7</ele>
        <time>2022-06-02T12:18:48Z</time>
      </trkpt>
      <trkpt lat="49.41403" lon="-1.17258">
        <ele>0.7</ele>
        <time>2022-06-02T12:18:49Z</time>
      </trkpt>
      <trkpt lat="49.41403" lon="-1.17258">
        <ele>0.7</ele>
        <time>2022-06-02T12:18:50Z</time>
      </trkpt>
      <trkpt lat="49.41403" lon="-1.17258">
        <ele>0.7</ele>
        <time>2022-06-02T12:18:51Z</time>
      </trkpt>
      <trkpt lat="49.41403" lon="-1.17258">
        <ele>0.7</ele>
        <time>2022-06-02T12:18:52Z</time>
      </trkpt>
      <trkpt lat="49.41403" lon="-1.17258">
        <ele>0.7</ele>
        <time>2022-06-02T12:18:53Z</time>
      </trkpt>
      <trkpt lat="49.41403" lon="-1.17258">
        <ele>0.7</ele>
        <time>2022-06-02T12:18:54Z</time>
      </trkpt>
      <trkpt lat="49.41403" lon="-1.17258">
        <ele>0.7</ele>
        <time>2022-06-02T12:18:55Z</time>
      </trkpt>
      <trkpt lat="49.41403" lon="-1.17257">
        <ele>0.7</ele>
        <time>2022-06-02T12:18:56Z</time>
      </trkpt>
      <trkpt lat="49.41403" lon="-1.17257">
        <ele>0.7</ele>
        <time>2022-06-02T12:18:57Z</time>
      </trkpt>
      <trkpt lat="49.41403" lon="-1.17257">
        <ele>0.7</ele>
        <time>2022-06-02T12:18:58Z</time>
      </trkpt>
      <trkpt lat="49.41403" lon="-1.17257">
        <ele>0.7</ele>
        <time>2022-06-02T12:18:59Z</time>
      </trkpt>
      <trkpt lat="49.41403" lon="-1.17257">
        <ele>0.7</ele>
        <time>2022-06-02T12:19:00Z</time>
      </trkpt>
      <trkpt lat="49.41403" lon="-1.17257">
        <ele>0.7</ele>
        <time>2022-06-02T12:19:01Z</time>
      </trkpt>
      <trkpt lat="49.41403" lon="-1.17257">
        <ele>0.7</ele>
        <time>2022-06-02T12:19:02Z</time>
      </trkpt>
      <trkpt lat="49.41403" lon="-1.17257">
        <ele>0.7</ele>
        <time>2022-06-02T12:19:03Z</time>
      </trkpt>
      <trkpt lat="49.41403" lon="-1.17258">
        <ele>0.7</ele>
        <time>2022-06-02T12:19:04Z</time>
      </trkpt>
      <trkpt lat="49.41403" lon="-1.17258">
        <ele>0.7</ele>
        <time>2022-06-02T12:19:05Z</time>
      </trkpt>
      <trkpt lat="49.41403" lon="-1.17258">
        <ele>0.7</ele>
        <time>2022-06-02T12:19:06Z</time>
      </trkpt>
      <trkpt lat="49.41403" lon="-1.17258">
        <ele>0.7</ele>
        <time>2022-06-02T12:19:07Z</time>
      </trkpt>
      <trkpt lat="49.41403" lon="-1.17258">
        <ele>0.7</ele>
        <time>2022-06-02T12:19:08Z</time>
      </trkpt>
      <trkpt lat="49.41403" lon="-1.17258">
        <ele>0.7</ele>
        <time>2022-06-02T12:19:09Z</time>
      </trkpt>
      <trkpt lat="49.41403" lon="-1.17258">
        <ele>0.7</ele>
        <time>2022-06-02T12:19:10Z</time>
      </trkpt>
      <trkpt lat="49.41403" lon="-1.17258">
        <ele>0.7</ele>
        <time>2022-06-02T12:19:11Z</time>
      </trkpt>
      <trkpt lat="49.41403" lon="-1.17258">
        <ele>0.7</ele>
        <time>2022-06-02T12:19:12Z</time>
      </trkpt>
      <trkpt lat="49.41403" lon="-1.17258">
        <ele>0.7</ele>
        <time>2022-06-02T12:19:13Z</time>
      </trkpt>
      <trkpt lat="49.41403" lon="-1.17257">
        <ele>0.7</ele>
        <time>2022-06-02T12:19:15Z</time>
      </trkpt>
      <trkpt lat="49.41403" lon="-1.17257">
        <ele>0.7</ele>
        <time>2022-06-02T12:19:16Z</time>
      </trkpt>
      <trkpt lat="49.41404" lon="-1.17256">
        <ele>0.7</ele>
        <time>2022-06-02T12:19:17Z</time>
      </trkpt>
      <trkpt lat="49.41404" lon="-1.17255">
        <ele>0.7</ele>
        <time>2022-06-02T12:19:18Z</time>
      </trkpt>
      <trkpt lat="49.41404" lon="-1.17255">
        <ele>0.7</ele>
        <time>2022-06-02T12:19:19Z</time>
      </trkpt>
      <trkpt lat="49.41404" lon="-1.17255">
        <ele>0.7</ele>
        <time>2022-06-02T12:19:20Z</time>
      </trkpt>
      <trkpt lat="49.41404" lon="-1.17256">
        <ele>0.7</ele>
        <time>2022-06-02T12:19:21Z</time>
      </trkpt>
      <trkpt lat="49.41404" lon="-1.17256">
        <ele>0.7</ele>
        <time>2022-06-02T12:19:22Z</time>
      </trkpt>
      <trkpt lat="49.41404" lon="-1.17256">
        <ele>0.7</ele>
        <time>2022-06-02T12:19:23Z</time>
      </trkpt>
      <trkpt lat="49.41404" lon="-1.17256">
        <ele>0.7</ele>
        <time>2022-06-02T12:19:24Z</time>
      </trkpt>
      <trkpt lat="49.41404" lon="-1.17256">
        <ele>0.7</ele>
        <time>2022-06-02T12:19:25Z</time>
      </trkpt>
      <trkpt lat="49.41404" lon="-1.17256">
        <ele>0.7</ele>
        <time>2022-06-02T12:19:26Z</time>
      </trkpt>
      <trkpt lat="49.41404" lon="-1.17256">
        <ele>0.7</ele>
        <time>2022-06-02T12:19:27Z</time>
      </trkpt>
      <trkpt lat="49.41404" lon="-1.17256">
        <ele>0.7</ele>
        <time>2022-06-02T12:19:28Z</time>
      </trkpt>
      <trkpt lat="49.41404" lon="-1.17256">
        <ele>0.7</ele>
        <time>2022-06-02T12:19:29Z</time>
      </trkpt>
      <trkpt lat="49.41404" lon="-1.17256">
        <ele>0.7</ele>
        <time>2022-06-02T12:19:30Z</time>
      </trkpt>
      <trkpt lat="49.41404" lon="-1.17255">
        <ele>0.7</ele>
        <time>2022-06-02T12:19:32Z</time>
      </trkpt>
      <trkpt lat="49.41404" lon="-1.17255">
        <ele>0.7</ele>
        <time>2022-06-02T12:19:33Z</time>
      </trkpt>
      <trkpt lat="49.41403" lon="-1.17255">
        <ele>0.7</ele>
        <time>2022-06-02T12:19:34Z</time>
      </trkpt>
      <trkpt lat="49.41403" lon="-1.17255">
        <ele>0.7</ele>
        <time>2022-06-02T12:19:35Z</time>
      </trkpt>
      <trkpt lat="49.41402" lon="-1.17254">
        <ele>0.7</ele>
        <time>2022-06-02T12:19:36Z</time>
      </trkpt>
      <trkpt lat="49.41404" lon="-1.17254">
        <ele>0.7</ele>
        <time>2022-06-02T12:19:38Z</time>
      </trkpt>
      <trkpt lat="49.41405" lon="-1.17255">
        <ele>0.8</ele>
        <time>2022-06-02T12:19:39Z</time>
      </trkpt>
      <trkpt lat="49.41407" lon="-1.17259">
        <ele>0.8</ele>
        <time>2022-06-02T12:19:40Z</time>
      </trkpt>
      <trkpt lat="49.41408" lon="-1.1726">
        <ele>0.8</ele>
        <time>2022-06-02T12:19:41Z</time>
      </trkpt>
      <trkpt lat="49.41408" lon="-1.17263">
        <ele>0.7</ele>
        <time>2022-06-02T12:19:43Z</time>
      </trkpt>
      <trkpt lat="49.41408" lon="-1.17264">
        <ele>0.7</ele>
        <time>2022-06-02T12:19:44Z</time>
      </trkpt>
      <trkpt lat="49.41408" lon="-1.17264">
        <ele>0.7</ele>
        <time>2022-06-02T12:19:45Z</time>
      </trkpt>
      <trkpt lat="49.41408" lon="-1.17264">
        <ele>0.7</ele>
        <time>2022-06-02T12:19:46Z</time>
      </trkpt>
      <trkpt lat="49.41407" lon="-1.17264">
        <ele>0.6</ele>
        <time>2022-06-02T12:19:47Z</time>
      </trkpt>
      <trkpt lat="49.41407" lon="-1.17263">
        <ele>0.6</ele>
        <time>2022-06-02T12:19:48Z</time>
      </trkpt>
      <trkpt lat="49.41407" lon="-1.17263">
        <ele>0.6</ele>
        <time>2022-06-02T12:19:49Z</time>
      </trkpt>
      <trkpt lat="49.41406" lon="-1.17263">
        <ele>0.6</ele>
        <time>2022-06-02T12:19:50Z</time>
      </trkpt>
      <trkpt lat="49.41406" lon="-1.17263">
        <ele>0.6</ele>
        <time>2022-06-02T12:19:51Z</time>
      </trkpt>
      <trkpt lat="49.41406" lon="-1.17263">
        <ele>0.6</ele>
        <time>2022-06-02T12:19:52Z</time>
      </trkpt>
      <trkpt lat="49.41406" lon="-1.17263">
        <ele>0.6</ele>
        <time>2022-06-02T12:19:53Z</time>
      </trkpt>
      <trkpt lat="49.41406" lon="-1.17263">
        <ele>0.6</ele>
        <time>2022-06-02T12:19:54Z</time>
      </trkpt>
      <trkpt lat="49.41406" lon="-1.17263">
        <ele>0.6</ele>
        <time>2022-06-02T12:19:55Z</time>
      </trkpt>
      <trkpt lat="49.41406" lon="-1.17263">
        <ele>0.6</ele>
        <time>2022-06-02T12:19:56Z</time>
      </trkpt>
      <trkpt lat="49.41406" lon="-1.17263">
        <ele>0.6</ele>
        <time>2022-06-02T12:19:57Z</time>
      </trkpt>
      <trkpt lat="49.41406" lon="-1.17263">
        <ele>0.6</ele>
        <time>2022-06-02T12:19:58Z</time>
      </trkpt>
      <trkpt lat="49.41406" lon="-1.17263">
        <ele>0.6</ele>
        <time>2022-06-02T12:19:59Z</time>
      </trkpt>
      <trkpt lat="49.41406" lon="-1.17263">
        <ele>0.6</ele>
        <time>2022-06-02T12:20:00Z</time>
      </trkpt>
      <trkpt lat="49.41406" lon="-1.17262">
        <ele>0.6</ele>
        <time>2022-06-02T12:20:01Z</time>
      </trkpt>
      <trkpt lat="49.41405" lon="-1.17262">
        <ele>0.7</ele>
        <time>2022-06-02T12:20:02Z</time>
      </trkpt>
      <trkpt lat="49.41405" lon="-1.17261">
        <ele>0.7</ele>
        <time>2022-06-02T12:20:03Z</time>
      </trkpt>
      <trkpt lat="49.41405" lon="-1.17261">
        <ele>0.7</ele>
        <time>2022-06-02T12:20:04Z</time>
      </trkpt>
      <trkpt lat="49.41405" lon="-1.17261">
        <ele>0.7</ele>
        <time>2022-06-02T12:20:05Z</time>
      </trkpt>
      <trkpt lat="49.41405" lon="-1.17261">
        <ele>0.7</ele>
        <time>2022-06-02T12:20:06Z</time>
      </trkpt>
      <trkpt lat="49.41405" lon="-1.17261">
        <ele>0.7</ele>
        <time>2022-06-02T12:20:07Z</time>
      </trkpt>
      <trkpt lat="49.41405" lon="-1.17261">
        <ele>0.7</ele>
        <time>2022-06-02T12:20:08Z</time>
      </trkpt>
      <trkpt lat="49.41405" lon="-1.17261">
        <ele>0.7</ele>
        <time>2022-06-02T12:20:09Z</time>
      </trkpt>
      <trkpt lat="49.41405" lon="-1.17261">
        <ele>0.7</ele>
        <time>2022-06-02T12:20:10Z</time>
      </trkpt>
      <trkpt lat="49.41405" lon="-1.17261">
        <ele>0.7</ele>
        <time>2022-06-02T12:20:11Z</time>
      </trkpt>
      <trkpt lat="49.41405" lon="-1.17261">
        <ele>0.7</ele>
        <time>2022-06-02T12:20:12Z</time>
      </trkpt>
      <trkpt lat="49.41405" lon="-1.17261">
        <ele>0.7</ele>
        <time>2022-06-02T12:20:13Z</time>
      </trkpt>
      <trkpt lat="49.41405" lon="-1.17261">
        <ele>0.7</ele>
        <time>2022-06-02T12:20:14Z</time>
      </trkpt>
      <trkpt lat="49.41405" lon="-1.17261">
        <ele>0.7</ele>
        <time>2022-06-02T12:20:15Z</time>
      </trkpt>
      <trkpt lat="49.41405" lon="-1.17261">
        <ele>0.7</ele>
        <time>2022-06-02T12:20:16Z</time>
      </trkpt>
      <trkpt lat="49.41405" lon="-1.17261">
        <ele>0.7</ele>
        <time>2022-06-02T12:20:17Z</time>
      </trkpt>
      <trkpt lat="49.41405" lon="-1.17261">
        <ele>0.7</ele>
        <time>2022-06-02T12:20:18Z</time>
      </trkpt>
      <trkpt lat="49.41405" lon="-1.17261">
        <ele>0.7</ele>
        <time>2022-06-02T12:20:19Z</time>
      </trkpt>
      <trkpt lat="49.41405" lon="-1.17261">
        <ele>0.7</ele>
        <time>2022-06-02T12:20:20Z</time>
      </trkpt>
      <trkpt lat="49.41405" lon="-1.17261">
        <ele>0.7</ele>
        <time>2022-06-02T12:20:21Z</time>
      </trkpt>
      <trkpt lat="49.41405" lon="-1.17261">
        <ele>0.7</ele>
        <time>2022-06-02T12:20:22Z</time>
      </trkpt>
      <trkpt lat="49.41405" lon="-1.17261">
        <ele>0.7</ele>
        <time>2022-06-02T12:20:23Z</time>
      </trkpt>
      <trkpt lat="49.41405" lon="-1.17261">
        <ele>0.7</ele>
        <time>2022-06-02T12:20:24Z</time>
      </trkpt>
      <trkpt lat="49.41405" lon="-1.17261">
        <ele>0.7</ele>
        <time>2022-06-02T12:20:25Z</time>
      </trkpt>
      <trkpt lat="49.41405" lon="-1.17261">
        <ele>0.7</ele>
        <time>2022-06-02T12:20:26Z</time>
      </trkpt>
      <trkpt lat="49.41405" lon="-1.17261">
        <ele>0.7</ele>
        <time>2022-06-02T12:20:27Z</time>
      </trkpt>
      <trkpt lat="49.41405" lon="-1.17261">
        <ele>0.7</ele>
        <time>2022-06-02T12:20:28Z</time>
      </trkpt>
      <trkpt lat="49.41405" lon="-1.17261">
        <ele>0.7</ele>
        <time>2022-06-02T12:20:29Z</time>
      </trkpt>
      <trkpt lat="49.41405" lon="-1.17261">
        <ele>0.7</ele>
        <time>2022-06-02T12:20:30Z</time>
      </trkpt>
      <trkpt lat="49.41405" lon="-1.17261">
        <ele>0.7</ele>
        <time>2022-06-02T12:20:31Z</time>
      </trkpt>
      <trkpt lat="49.41405" lon="-1.17261">
        <ele>0.7</ele>
        <time>2022-06-02T12:20:32Z</time>
      </trkpt>
      <trkpt lat="49.41405" lon="-1.17261">
        <ele>0.7</ele>
        <time>2022-06-02T12:20:33Z</time>
      </trkpt>
      <trkpt lat="49.41405" lon="-1.17261">
        <ele>0.7</ele>
        <time>2022-06-02T12:20:34Z</time>
      </trkpt>
      <trkpt lat="49.41405" lon="-1.17261">
        <ele>0.7</ele>
        <time>2022-06-02T12:20:35Z</time>
      </trkpt>
      <trkpt lat="49.41405" lon="-1.17261">
        <ele>0.7</ele>
        <time>2022-06-02T12:20:36Z</time>
      </trkpt>
      <trkpt lat="49.41405" lon="-1.17261">
        <ele>0.7</ele>
        <time>2022-06-02T12:20:37Z</time>
      </trkpt>
      <trkpt lat="49.41405" lon="-1.17261">
        <ele>0.7</ele>
        <time>2022-06-02T12:20:38Z</time>
      </trkpt>
      <trkpt lat="49.41405" lon="-1.17261">
        <ele>0.7</ele>
        <time>2022-06-02T12:20:39Z</time>
      </trkpt>
      <trkpt lat="49.41405" lon="-1.17261">
        <ele>0.7</ele>
        <time>2022-06-02T12:20:40Z</time>
      </trkpt>
      <trkpt lat="49.41405" lon="-1.17261">
        <ele>0.7</ele>
        <time>2022-06-02T12:20:41Z</time>
      </trkpt>
      <trkpt lat="49.41405" lon="-1.17261">
        <ele>0.7</ele>
        <time>2022-06-02T12:20:42Z</time>
      </trkpt>
      <trkpt lat="49.41405" lon="-1.17261">
        <ele>0.7</ele>
        <time>2022-06-02T12:20:43Z</time>
      </trkpt>
      <trkpt lat="49.41405" lon="-1.17261">
        <ele>0.7</ele>
        <time>2022-06-02T12:20:44Z</time>
      </trkpt>
      <trkpt lat="49.41405" lon="-1.17261">
        <ele>0.7</ele>
        <time>2022-06-02T12:20:45Z</time>
      </trkpt>
      <trkpt lat="49.41405" lon="-1.17261">
        <ele>0.7</ele>
        <time>2022-06-02T12:20:46Z</time>
      </trkpt>
      <trkpt lat="49.41405" lon="-1.17261">
        <ele>0.7</ele>
        <time>2022-06-02T12:20:47Z</time>
      </trkpt>
      <trkpt lat="49.41405" lon="-1.17261">
        <ele>0.7</ele>
        <time>2022-06-02T12:20:48Z</time>
      </trkpt>
      <trkpt lat="49.41405" lon="-1.17261">
        <ele>0.7</ele>
        <time>2022-06-02T12:20:49Z</time>
      </trkpt>
      <trkpt lat="49.41405" lon="-1.17261">
        <ele>0.7</ele>
        <time>2022-06-02T12:20:50Z</time>
      </trkpt>
      <trkpt lat="49.41405" lon="-1.17261">
        <ele>0.7</ele>
        <time>2022-06-02T12:20:51Z</time>
      </trkpt>
      <trkpt lat="49.41405" lon="-1.17261">
        <ele>0.7</ele>
        <time>2022-06-02T12:20:52Z</time>
      </trkpt>
      <trkpt lat="49.41405" lon="-1.17261">
        <ele>0.7</ele>
        <time>2022-06-02T12:20:53Z</time>
      </trkpt>
      <trkpt lat="49.41405" lon="-1.17261">
        <ele>0.7</ele>
        <time>2022-06-02T12:20:54Z</time>
      </trkpt>
      <trkpt lat="49.41405" lon="-1.17261">
        <ele>0.7</ele>
        <time>2022-06-02T12:20:55Z</time>
      </trkpt>
      <trkpt lat="49.41405" lon="-1.17261">
        <ele>0.7</ele>
        <time>2022-06-02T12:20:56Z</time>
      </trkpt>
      <trkpt lat="49.41405" lon="-1.17261">
        <ele>0.7</ele>
        <time>2022-06-02T12:20:57Z</time>
      </trkpt>
      <trkpt lat="49.41405" lon="-1.17261">
        <ele>0.7</ele>
        <time>2022-06-02T12:20:58Z</time>
      </trkpt>
      <trkpt lat="49.41405" lon="-1.17261">
        <ele>0.7</ele>
        <time>2022-06-02T12:20:59Z</time>
      </trkpt>
      <trkpt lat="49.41405" lon="-1.17261">
        <ele>0.7</ele>
        <time>2022-06-02T12:21:00Z</time>
      </trkpt>
      <trkpt lat="49.41405" lon="-1.17261">
        <ele>0.7</ele>
        <time>2022-06-02T12:21:01Z</time>
      </trkpt>
      <trkpt lat="49.41405" lon="-1.17261">
        <ele>0.7</ele>
        <time>2022-06-02T12:21:02Z</time>
      </trkpt>
      <trkpt lat="49.41405" lon="-1.17261">
        <ele>0.7</ele>
        <time>2022-06-02T12:21:03Z</time>
      </trkpt>
      <trkpt lat="49.41405" lon="-1.17261">
        <ele>0.7</ele>
        <time>2022-06-02T12:21:04Z</time>
      </trkpt>
      <trkpt lat="49.41405" lon="-1.17261">
        <ele>0.7</ele>
        <time>2022-06-02T12:21:05Z</time>
      </trkpt>
      <trkpt lat="49.41405" lon="-1.17261">
        <ele>0.7</ele>
        <time>2022-06-02T12:21:06Z</time>
      </trkpt>
      <trkpt lat="49.41405" lon="-1.17261">
        <ele>0.7</ele>
        <time>2022-06-02T12:21:07Z</time>
      </trkpt>
      <trkpt lat="49.41405" lon="-1.17261">
        <ele>0.7</ele>
        <time>2022-06-02T12:21:08Z</time>
      </trkpt>
      <trkpt lat="49.41405" lon="-1.17261">
        <ele>0.7</ele>
        <time>2022-06-02T12:21:09Z</time>
      </trkpt>
      <trkpt lat="49.41405" lon="-1.17261">
        <ele>0.7</ele>
        <time>2022-06-02T12:21:10Z</time>
      </trkpt>
      <trkpt lat="49.41405" lon="-1.17261">
        <ele>0.7</ele>
        <time>2022-06-02T12:21:11Z</time>
      </trkpt>
      <trkpt lat="49.41405" lon="-1.17261">
        <ele>0.7</ele>
        <time>2022-06-02T12:21:12Z</time>
      </trkpt>
      <trkpt lat="49.41405" lon="-1.17261">
        <ele>0.7</ele>
        <time>2022-06-02T12:21:13Z</time>
      </trkpt>
      <trkpt lat="49.41405" lon="-1.17261">
        <ele>0.7</ele>
        <time>2022-06-02T12:21:14Z</time>
      </trkpt>
      <trkpt lat="49.41405" lon="-1.17261">
        <ele>0.7</ele>
        <time>2022-06-02T12:21:15Z</time>
      </trkpt>
      <trkpt lat="49.41405" lon="-1.17261">
        <ele>0.7</ele>
        <time>2022-06-02T12:21:16Z</time>
      </trkpt>
      <trkpt lat="49.41405" lon="-1.17261">
        <ele>0.7</ele>
        <time>2022-06-02T12:21:17Z</time>
      </trkpt>
      <trkpt lat="49.41405" lon="-1.17261">
        <ele>0.7</ele>
        <time>2022-06-02T12:21:18Z</time>
      </trkpt>
      <trkpt lat="49.41405" lon="-1.17261">
        <ele>0.7</ele>
        <time>2022-06-02T12:21:19Z</time>
      </trkpt>
      <trkpt lat="49.41405" lon="-1.17261">
        <ele>0.7</ele>
        <time>2022-06-02T12:21:20Z</time>
      </trkpt>
      <trkpt lat="49.41405" lon="-1.17261">
        <ele>0.7</ele>
        <time>2022-06-02T12:21:21Z</time>
      </trkpt>
      <trkpt lat="49.41405" lon="-1.17261">
        <ele>0.7</ele>
        <time>2022-06-02T12:21:22Z</time>
      </trkpt>
      <trkpt lat="49.41405" lon="-1.17261">
        <ele>0.7</ele>
        <time>2022-06-02T12:21:23Z</time>
      </trkpt>
      <trkpt lat="49.41405" lon="-1.17261">
        <ele>0.7</ele>
        <time>2022-06-02T12:21:24Z</time>
      </trkpt>
      <trkpt lat="49.41405" lon="-1.17262">
        <ele>0.7</ele>
        <time>2022-06-02T12:21:25Z</time>
      </trkpt>
      <trkpt lat="49.41405" lon="-1.17262">
        <ele>0.6</ele>
        <time>2022-06-02T12:21:26Z</time>
      </trkpt>
      <trkpt lat="49.41405" lon="-1.17262">
        <ele>0.6</ele>
        <time>2022-06-02T12:21:27Z</time>
      </trkpt>
      <trkpt lat="49.41405" lon="-1.17262">
        <ele>0.6</ele>
        <time>2022-06-02T12:21:28Z</time>
      </trkpt>
      <trkpt lat="49.41405" lon="-1.17262">
        <ele>0.6</ele>
        <time>2022-06-02T12:21:29Z</time>
      </trkpt>
      <trkpt lat="49.41405" lon="-1.17262">
        <ele>0.6</ele>
        <time>2022-06-02T12:21:30Z</time>
      </trkpt>
      <trkpt lat="49.41405" lon="-1.17262">
        <ele>0.6</ele>
        <time>2022-06-02T12:21:31Z</time>
      </trkpt>
      <trkpt lat="49.41405" lon="-1.17262">
        <ele>0.6</ele>
        <time>2022-06-02T12:21:32Z</time>
      </trkpt>
      <trkpt lat="49.41405" lon="-1.17262">
        <ele>0.6</ele>
        <time>2022-06-02T12:21:33Z</time>
      </trkpt>
      <trkpt lat="49.41405" lon="-1.17262">
        <ele>0.6</ele>
        <time>2022-06-02T12:21:34Z</time>
      </trkpt>
      <trkpt lat="49.41405" lon="-1.17262">
        <ele>0.6</ele>
        <time>2022-06-02T12:21:35Z</time>
      </trkpt>
      <trkpt lat="49.41405" lon="-1.17262">
        <ele>0.6</ele>
        <time>2022-06-02T12:21:36Z</time>
      </trkpt>
      <trkpt lat="49.41405" lon="-1.17262">
        <ele>0.6</ele>
        <time>2022-06-02T12:21:37Z</time>
      </trkpt>
      <trkpt lat="49.41405" lon="-1.17262">
        <ele>0.6</ele>
        <time>2022-06-02T12:21:38Z</time>
      </trkpt>
      <trkpt lat="49.41405" lon="-1.17262">
        <ele>0.6</ele>
        <time>2022-06-02T12:21:39Z</time>
      </trkpt>
      <trkpt lat="49.41405" lon="-1.17262">
        <ele>0.6</ele>
        <time>2022-06-02T12:21:40Z</time>
      </trkpt>
      <trkpt lat="49.41405" lon="-1.17262">
        <ele>0.6</ele>
        <time>2022-06-02T12:21:41Z</time>
      </trkpt>
      <trkpt lat="49.41405" lon="-1.17262">
        <ele>0.6</ele>
        <time>2022-06-02T12:21:42Z</time>
      </trkpt>
      <trkpt lat="49.41405" lon="-1.17262">
        <ele>0.6</ele>
        <time>2022-06-02T12:21:43Z</time>
      </trkpt>
      <trkpt lat="49.41405" lon="-1.17262">
        <ele>0.6</ele>
        <time>2022-06-02T12:21:44Z</time>
      </trkpt>
      <trkpt lat="49.41405" lon="-1.17262">
        <ele>0.6</ele>
        <time>2022-06-02T12:21:45Z</time>
      </trkpt>
      <trkpt lat="49.41405" lon="-1.17262">
        <ele>0.6</ele>
        <time>2022-06-02T12:21:46Z</time>
      </trkpt>
      <trkpt lat="49.41405" lon="-1.17262">
        <ele>0.6</ele>
        <time>2022-06-02T12:21:47Z</time>
      </trkpt>
      <trkpt lat="49.41405" lon="-1.17262">
        <ele>0.6</ele>
        <time>2022-06-02T12:21:48Z</time>
      </trkpt>
      <trkpt lat="49.41405" lon="-1.17262">
        <ele>0.6</ele>
        <time>2022-06-02T12:21:49Z</time>
      </trkpt>
      <trkpt lat="49.41405" lon="-1.17262">
        <ele>0.6</ele>
        <time>2022-06-02T12:21:50Z</time>
      </trkpt>
      <trkpt lat="49.41405" lon="-1.17262">
        <ele>0.6</ele>
        <time>2022-06-02T12:21:51Z</time>
      </trkpt>
      <trkpt lat="49.41405" lon="-1.17262">
        <ele>0.6</ele>
        <time>2022-06-02T12:21:52Z</time>
      </trkpt>
      <trkpt lat="49.41405" lon="-1.17262">
        <ele>0.6</ele>
        <time>2022-06-02T12:21:53Z</time>
      </trkpt>
      <trkpt lat="49.41405" lon="-1.17262">
        <ele>0.6</ele>
        <time>2022-06-02T12:21:54Z</time>
      </trkpt>
      <trkpt lat="49.41405" lon="-1.17262">
        <ele>0.6</ele>
        <time>2022-06-02T12:21:55Z</time>
      </trkpt>
      <trkpt lat="49.41405" lon="-1.17262">
        <ele>0.6</ele>
        <time>2022-06-02T12:21:56Z</time>
      </trkpt>
      <trkpt lat="49.41405" lon="-1.17262">
        <ele>0.6</ele>
        <time>2022-06-02T12:21:57Z</time>
      </trkpt>
      <trkpt lat="49.41405" lon="-1.17262">
        <ele>0.6</ele>
        <time>2022-06-02T12:21:58Z</time>
      </trkpt>
      <trkpt lat="49.41405" lon="-1.17262">
        <ele>0.6</ele>
        <time>2022-06-02T12:21:59Z</time>
      </trkpt>
      <trkpt lat="49.41405" lon="-1.17262">
        <ele>0.6</ele>
        <time>2022-06-02T12:22:00Z</time>
      </trkpt>
      <trkpt lat="49.41405" lon="-1.17262">
        <ele>0.6</ele>
        <time>2022-06-02T12:22:01Z</time>
      </trkpt>
      <trkpt lat="49.41405" lon="-1.17262">
        <ele>0.6</ele>
        <time>2022-06-02T12:22:02Z</time>
      </trkpt>
      <trkpt lat="49.41405" lon="-1.17262">
        <ele>0.6</ele>
        <time>2022-06-02T12:22:03Z</time>
      </trkpt>
      <trkpt lat="49.41405" lon="-1.17262">
        <ele>0.6</ele>
        <time>2022-06-02T12:22:04Z</time>
      </trkpt>
      <trkpt lat="49.41405" lon="-1.17262">
        <ele>0.6</ele>
        <time>2022-06-02T12:22:05Z</time>
      </trkpt>
      <trkpt lat="49.41405" lon="-1.17262">
        <ele>0.6</ele>
        <time>2022-06-02T12:22:06Z</time>
      </trkpt>
      <trkpt lat="49.41405" lon="-1.17262">
        <ele>0.6</ele>
        <time>2022-06-02T12:22:07Z</time>
      </trkpt>
      <trkpt lat="49.41405" lon="-1.17262">
        <ele>0.6</ele>
        <time>2022-06-02T12:22:08Z</time>
      </trkpt>
      <trkpt lat="49.41405" lon="-1.17262">
        <ele>0.6</ele>
        <time>2022-06-02T12:22:09Z</time>
      </trkpt>
      <trkpt lat="49.41405" lon="-1.17262">
        <ele>0.6</ele>
        <time>2022-06-02T12:22:10Z</time>
      </trkpt>
      <trkpt lat="49.41405" lon="-1.17262">
        <ele>0.6</ele>
        <time>2022-06-02T12:22:11Z</time>
      </trkpt>
      <trkpt lat="49.41405" lon="-1.17262">
        <ele>0.6</ele>
        <time>2022-06-02T12:22:12Z</time>
      </trkpt>
      <trkpt lat="49.41405" lon="-1.17262">
        <ele>0.6</ele>
        <time>2022-06-02T12:22:13Z</time>
      </trkpt>
      <trkpt lat="49.41405" lon="-1.17262">
        <ele>0.6</ele>
        <time>2022-06-02T12:22:14Z</time>
      </trkpt>
      <trkpt lat="49.41405" lon="-1.17262">
        <ele>0.6</ele>
        <time>2022-06-02T12:22:15Z</time>
      </trkpt>
      <trkpt lat="49.41405" lon="-1.17262">
        <ele>0.6</ele>
        <time>2022-06-02T12:22:16Z</time>
      </trkpt>
      <trkpt lat="49.41405" lon="-1.17262">
        <ele>0.6</ele>
        <time>2022-06-02T12:22:17Z</time>
      </trkpt>
      <trkpt lat="49.41405" lon="-1.17262">
        <ele>0.6</ele>
        <time>2022-06-02T12:22:18Z</time>
      </trkpt>
      <trkpt lat="49.41405" lon="-1.17262">
        <ele>0.6</ele>
        <time>2022-06-02T12:22:19Z</time>
      </trkpt>
      <trkpt lat="49.41405" lon="-1.17262">
        <ele>0.6</ele>
        <time>2022-06-02T12:22:20Z</time>
      </trkpt>
      <trkpt lat="49.41405" lon="-1.17262">
        <ele>0.6</ele>
        <time>2022-06-02T12:22:21Z</time>
      </trkpt>
      <trkpt lat="49.41405" lon="-1.17262">
        <ele>0.6</ele>
        <time>2022-06-02T12:22:22Z</time>
      </trkpt>
      <trkpt lat="49.41405" lon="-1.17262">
        <ele>0.6</ele>
        <time>2022-06-02T12:22:23Z</time>
      </trkpt>
      <trkpt lat="49.41405" lon="-1.17262">
        <ele>0.6</ele>
        <time>2022-06-02T12:22:24Z</time>
      </trkpt>
      <trkpt lat="49.41405" lon="-1.17262">
        <ele>0.6</ele>
        <time>2022-06-02T12:22:25Z</time>
      </trkpt>
      <trkpt lat="49.41405" lon="-1.17262">
        <ele>0.6</ele>
        <time>2022-06-02T12:22:26Z</time>
      </trkpt>
      <trkpt lat="49.41405" lon="-1.17262">
        <ele>0.6</ele>
        <time>2022-06-02T12:22:27Z</time>
      </trkpt>
      <trkpt lat="49.41405" lon="-1.17262">
        <ele>0.6</ele>
        <time>2022-06-02T12:22:28Z</time>
      </trkpt>
      <trkpt lat="49.41405" lon="-1.17262">
        <ele>0.6</ele>
        <time>2022-06-02T12:22:29Z</time>
      </trkpt>
      <trkpt lat="49.41405" lon="-1.17262">
        <ele>0.6</ele>
        <time>2022-06-02T12:22:30Z</time>
      </trkpt>
      <trkpt lat="49.41405" lon="-1.17262">
        <ele>0.6</ele>
        <time>2022-06-02T12:22:31Z</time>
      </trkpt>
      <trkpt lat="49.41405" lon="-1.17262">
        <ele>0.6</ele>
        <time>2022-06-02T12:22:32Z</time>
      </trkpt>
      <trkpt lat="49.41405" lon="-1.17262">
        <ele>0.6</ele>
        <time>2022-06-02T12:22:33Z</time>
      </trkpt>
      <trkpt lat="49.41405" lon="-1.17262">
        <ele>0.6</ele>
        <time>2022-06-02T12:22:34Z</time>
      </trkpt>
      <trkpt lat="49.41405" lon="-1.17262">
        <ele>0.6</ele>
        <time>2022-06-02T12:22:35Z</time>
      </trkpt>
      <trkpt lat="49.41405" lon="-1.17262">
        <ele>0.6</ele>
        <time>2022-06-02T12:22:36Z</time>
      </trkpt>
      <trkpt lat="49.41405" lon="-1.17262">
        <ele>0.6</ele>
        <time>2022-06-02T12:22:37Z</time>
      </trkpt>
      <trkpt lat="49.41405" lon="-1.17262">
        <ele>0.6</ele>
        <time>2022-06-02T12:22:38Z</time>
      </trkpt>
      <trkpt lat="49.41405" lon="-1.17262">
        <ele>0.6</ele>
        <time>2022-06-02T12:22:39Z</time>
      </trkpt>
      <trkpt lat="49.41405" lon="-1.17262">
        <ele>0.6</ele>
        <time>2022-06-02T12:22:40Z</time>
      </trkpt>
      <trkpt lat="49.41405" lon="-1.17262">
        <ele>0.6</ele>
        <time>2022-06-02T12:22:41Z</time>
      </trkpt>
      <trkpt lat="49.41405" lon="-1.17262">
        <ele>0.6</ele>
        <time>2022-06-02T12:22:42Z</time>
      </trkpt>
      <trkpt lat="49.41405" lon="-1.17262">
        <ele>0.6</ele>
        <time>2022-06-02T12:22:43Z</time>
      </trkpt>
      <trkpt lat="49.41405" lon="-1.17262">
        <ele>0.6</ele>
        <time>2022-06-02T12:22:44Z</time>
      </trkpt>
      <trkpt lat="49.41405" lon="-1.17262">
        <ele>0.6</ele>
        <time>2022-06-02T12:22:45Z</time>
      </trkpt>
      <trkpt lat="49.41405" lon="-1.17262">
        <ele>0.6</ele>
        <time>2022-06-02T12:22:46Z</time>
      </trkpt>
      <trkpt lat="49.41405" lon="-1.17262">
        <ele>0.6</ele>
        <time>2022-06-02T12:22:47Z</time>
      </trkpt>
      <trkpt lat="49.41405" lon="-1.17262">
        <ele>0.6</ele>
        <time>2022-06-02T12:22:48Z</time>
      </trkpt>
      <trkpt lat="49.41405" lon="-1.17262">
        <ele>0.6</ele>
        <time>2022-06-02T12:22:49Z</time>
      </trkpt>
      <trkpt lat="49.41405" lon="-1.17262">
        <ele>0.6</ele>
        <time>2022-06-02T12:22:50Z</time>
      </trkpt>
      <trkpt lat="49.41405" lon="-1.17262">
        <ele>0.6</ele>
        <time>2022-06-02T12:22:51Z</time>
      </trkpt>
      <trkpt lat="49.41405" lon="-1.17262">
        <ele>0.6</ele>
        <time>2022-06-02T12:22:52Z</time>
      </trkpt>
      <trkpt lat="49.41405" lon="-1.17262">
        <ele>0.7</ele>
        <time>2022-06-02T12:22:54Z</time>
      </trkpt>
      <trkpt lat="49.41405" lon="-1.17262">
        <ele>0.7</ele>
        <time>2022-06-02T12:22:55Z</time>
      </trkpt>
      <trkpt lat="49.41405" lon="-1.17261">
        <ele>0.7</ele>
        <time>2022-06-02T12:22:56Z</time>
      </trkpt>
      <trkpt lat="49.41405" lon="-1.1726">
        <ele>0.7</ele>
        <time>2022-06-02T12:22:57Z</time>
      </trkpt>
      <trkpt lat="49.41405" lon="-1.17258">
        <ele>0.7</ele>
        <time>2022-06-02T12:22:58Z</time>
      </trkpt>
      <trkpt lat="49.41405" lon="-1.17256">
        <ele>0.8</ele>
        <time>2022-06-02T12:23:00Z</time>
      </trkpt>
      <trkpt lat="49.41405" lon="-1.17253">
        <ele>0.8</ele>
        <time>2022-06-02T12:23:02Z</time>
      </trkpt>
      <trkpt lat="49.41405" lon="-1.17251">
        <ele>0.8</ele>
        <time>2022-06-02T12:23:03Z</time>
      </trkpt>
      <trkpt lat="49.41405" lon="-1.1725">
        <ele>0.8</ele>
        <time>2022-06-02T12:23:04Z</time>
      </trkpt>
      <trkpt lat="49.41404" lon="-1.17247">
        <ele>0.7</ele>
        <time>2022-06-02T12:23:05Z</time>
      </trkpt>
      <trkpt lat="49.41404" lon="-1.17245">
        <ele>0.7</ele>
        <time>2022-06-02T12:23:07Z</time>
      </trkpt>
      <trkpt lat="49.41404" lon="-1.17244">
        <ele>0.7</ele>
        <time>2022-06-02T12:23:08Z</time>
      </trkpt>
      <trkpt lat="49.41403" lon="-1.17243">
        <ele>0.7</ele>
        <time>2022-06-02T12:23:09Z</time>
      </trkpt>
      <trkpt lat="49.41402" lon="-1.17241">
        <ele>0.7</ele>
        <time>2022-06-02T12:23:10Z</time>
      </trkpt>
      <trkpt lat="49.41402" lon="-1.1724">
        <ele>0.6</ele>
        <time>2022-06-02T12:23:12Z</time>
      </trkpt>
      <trkpt lat="49.41401" lon="-1.17238">
        <ele>0.6</ele>
        <time>2022-06-02T12:23:13Z</time>
      </trkpt>
      <trkpt lat="49.41401" lon="-1.17237">
        <ele>0.6</ele>
        <time>2022-06-02T12:23:14Z</time>
      </trkpt>
      <trkpt lat="49.41401" lon="-1.17236">
        <ele>0.6</ele>
        <time>2022-06-02T12:23:15Z</time>
      </trkpt>
      <trkpt lat="49.41401" lon="-1.17235">
        <ele>0.6</ele>
        <time>2022-06-02T12:23:16Z</time>
      </trkpt>
      <trkpt lat="49.41401" lon="-1.17233">
        <ele>0.6</ele>
        <time>2022-06-02T12:23:17Z</time>
      </trkpt>
      <trkpt lat="49.41401" lon="-1.17232">
        <ele>0.6</ele>
        <time>2022-06-02T12:23:18Z</time>
      </trkpt>
      <trkpt lat="49.414" lon="-1.1723">
        <ele>0.6</ele>
        <time>2022-06-02T12:23:20Z</time>
      </trkpt>
      <trkpt lat="49.414" lon="-1.17228">
        <ele>0.6</ele>
        <time>2022-06-02T12:23:21Z</time>
      </trkpt>
      <trkpt lat="49.41399" lon="-1.17227">
        <ele>0.6</ele>
        <time>2022-06-02T12:23:22Z</time>
      </trkpt>
      <trkpt lat="49.41398" lon="-1.17226">
        <ele>0.6</ele>
        <time>2022-06-02T12:23:23Z</time>
      </trkpt>
      <trkpt lat="49.41398" lon="-1.17225">
        <ele>0.6</ele>
        <time>2022-06-02T12:23:24Z</time>
      </trkpt>
      <trkpt lat="49.41398" lon="-1.17225">
        <ele>0.6</ele>
        <time>2022-06-02T12:23:26Z</time>
      </trkpt>
      <trkpt lat="49.41397" lon="-1.17224">
        <ele>0.6</ele>
        <time>2022-06-02T12:23:27Z</time>
      </trkpt>
      <trkpt lat="49.41397" lon="-1.17223">
        <ele>0.6</ele>
        <time>2022-06-02T12:23:28Z</time>
      </trkpt>
      <trkpt lat="49.41396" lon="-1.17221">
        <ele>0.6</ele>
        <time>2022-06-02T12:23:29Z</time>
      </trkpt>
      <trkpt lat="49.41396" lon="-1.1722">
        <ele>0.7</ele>
        <time>2022-06-02T12:23:30Z</time>
      </trkpt>
      <trkpt lat="49.41395" lon="-1.17218">
        <ele>0.6</ele>
        <time>2022-06-02T12:23:31Z</time>
      </trkpt>
      <trkpt lat="49.41394" lon="-1.17217">
        <ele>0.6</ele>
        <time>2022-06-02T12:23:32Z</time>
      </trkpt>
      <trkpt lat="49.41394" lon="-1.17216">
        <ele>0.6</ele>
        <time>2022-06-02T12:23:33Z</time>
      </trkpt>
      <trkpt lat="49.41394" lon="-1.17216">
        <ele>0.6</ele>
        <time>2022-06-02T12:23:34Z</time>
      </trkpt>
      <trkpt lat="49.41394" lon="-1.17215">
        <ele>0.6</ele>
        <time>2022-06-02T12:23:35Z</time>
      </trkpt>
      <trkpt lat="49.41394" lon="-1.17216">
        <ele>0.6</ele>
        <time>2022-06-02T12:23:36Z</time>
      </trkpt>
      <trkpt lat="49.41394" lon="-1.17217">
        <ele>0.6</ele>
        <time>2022-06-02T12:23:37Z</time>
      </trkpt>
      <trkpt lat="49.41394" lon="-1.17217">
        <ele>0.6</ele>
        <time>2022-06-02T12:23:38Z</time>
      </trkpt>
      <trkpt lat="49.41394" lon="-1.17217">
        <ele>0.6</ele>
        <time>2022-06-02T12:23:39Z</time>
      </trkpt>
      <trkpt lat="49.41394" lon="-1.17217">
        <ele>0.6</ele>
        <time>2022-06-02T12:23:40Z</time>
      </trkpt>
      <trkpt lat="49.41394" lon="-1.17217">
        <ele>0.6</ele>
        <time>2022-06-02T12:23:41Z</time>
      </trkpt>
      <trkpt lat="49.41394" lon="-1.17217">
        <ele>0.6</ele>
        <time>2022-06-02T12:23:42Z</time>
      </trkpt>
      <trkpt lat="49.41394" lon="-1.17217">
        <ele>0.6</ele>
        <time>2022-06-02T12:23:43Z</time>
      </trkpt>
      <trkpt lat="49.41394" lon="-1.17217">
        <ele>0.6</ele>
        <time>2022-06-02T12:23:44Z</time>
      </trkpt>
      <trkpt lat="49.41394" lon="-1.17217">
        <ele>0.6</ele>
        <time>2022-06-02T12:23:45Z</time>
      </trkpt>
      <trkpt lat="49.41394" lon="-1.17217">
        <ele>0.6</ele>
        <time>2022-06-02T12:23:46Z</time>
      </trkpt>
      <trkpt lat="49.41394" lon="-1.17217">
        <ele>0.6</ele>
        <time>2022-06-02T12:23:47Z</time>
      </trkpt>
      <trkpt lat="49.41394" lon="-1.17217">
        <ele>0.6</ele>
        <time>2022-06-02T12:23:48Z</time>
      </trkpt>
      <trkpt lat="49.41394" lon="-1.17217">
        <ele>0.6</ele>
        <time>2022-06-02T12:23:49Z</time>
      </trkpt>
      <trkpt lat="49.41394" lon="-1.17218">
        <ele>0.6</ele>
        <time>2022-06-02T12:23:50Z</time>
      </trkpt>
      <trkpt lat="49.41394" lon="-1.17218">
        <ele>0.6</ele>
        <time>2022-06-02T12:23:51Z</time>
      </trkpt>
      <trkpt lat="49.41394" lon="-1.17218">
        <ele>0.6</ele>
        <time>2022-06-02T12:23:52Z</time>
      </trkpt>
      <trkpt lat="49.41394" lon="-1.17218">
        <ele>0.6</ele>
        <time>2022-06-02T12:23:53Z</time>
      </trkpt>
      <trkpt lat="49.41394" lon="-1.17218">
        <ele>0.6</ele>
        <time>2022-06-02T12:23:54Z</time>
      </trkpt>
      <trkpt lat="49.41394" lon="-1.17219">
        <ele>0.6</ele>
        <time>2022-06-02T12:23:55Z</time>
      </trkpt>
      <trkpt lat="49.41394" lon="-1.17219">
        <ele>0.6</ele>
        <time>2022-06-02T12:23:56Z</time>
      </trkpt>
      <trkpt lat="49.41394" lon="-1.17219">
        <ele>0.6</ele>
        <time>2022-06-02T12:23:57Z</time>
      </trkpt>
      <trkpt lat="49.41394" lon="-1.17219">
        <ele>0.6</ele>
        <time>2022-06-02T12:23:58Z</time>
      </trkpt>
      <trkpt lat="49.41394" lon="-1.17219">
        <ele>0.6</ele>
        <time>2022-06-02T12:23:59Z</time>
      </trkpt>
      <trkpt lat="49.41394" lon="-1.17219">
        <ele>0.6</ele>
        <time>2022-06-02T12:24:00Z</time>
      </trkpt>
      <trkpt lat="49.41394" lon="-1.17219">
        <ele>0.6</ele>
        <time>2022-06-02T12:24:01Z</time>
      </trkpt>
      <trkpt lat="49.41394" lon="-1.17219">
        <ele>0.6</ele>
        <time>2022-06-02T12:24:02Z</time>
      </trkpt>
      <trkpt lat="49.41394" lon="-1.17218">
        <ele>0.6</ele>
        <time>2022-06-02T12:24:03Z</time>
      </trkpt>
      <trkpt lat="49.41394" lon="-1.17217">
        <ele>0.6</ele>
        <time>2022-06-02T12:24:04Z</time>
      </trkpt>
      <trkpt lat="49.41394" lon="-1.17216">
        <ele>0.6</ele>
        <time>2022-06-02T12:24:05Z</time>
      </trkpt>
      <trkpt lat="49.41394" lon="-1.17216">
        <ele>0.6</ele>
        <time>2022-06-02T12:24:06Z</time>
      </trkpt>
      <trkpt lat="49.41394" lon="-1.17215">
        <ele>0.6</ele>
        <time>2022-06-02T12:24:07Z</time>
      </trkpt>
      <trkpt lat="49.41394" lon="-1.17214">
        <ele>0.6</ele>
        <time>2022-06-02T12:24:08Z</time>
      </trkpt>
      <trkpt lat="49.41393" lon="-1.17213">
        <ele>0.6</ele>
        <time>2022-06-02T12:24:09Z</time>
      </trkpt>
      <trkpt lat="49.41392" lon="-1.17212">
        <ele>0.6</ele>
        <time>2022-06-02T12:24:11Z</time>
      </trkpt>
      <trkpt lat="49.4139" lon="-1.17209">
        <ele>0.6</ele>
        <time>2022-06-02T12:24:12Z</time>
      </trkpt>
      <trkpt lat="49.41389" lon="-1.17208">
        <ele>0.6</ele>
        <time>2022-06-02T12:24:13Z</time>
      </trkpt>
      <trkpt lat="49.41388" lon="-1.17206">
        <ele>0.6</ele>
        <time>2022-06-02T12:24:14Z</time>
      </trkpt>
      <trkpt lat="49.41387" lon="-1.17205">
        <ele>0.6</ele>
        <time>2022-06-02T12:24:15Z</time>
      </trkpt>
      <trkpt lat="49.41385" lon="-1.17204">
        <ele>0.6</ele>
        <time>2022-06-02T12:24:16Z</time>
      </trkpt>
      <trkpt lat="49.41384" lon="-1.17203">
        <ele>0.6</ele>
        <time>2022-06-02T12:24:17Z</time>
      </trkpt>
      <trkpt lat="49.41383" lon="-1.17203">
        <ele>0.6</ele>
        <time>2022-06-02T12:24:18Z</time>
      </trkpt>
      <trkpt lat="49.41382" lon="-1.17203">
        <ele>0.6</ele>
        <time>2022-06-02T12:24:19Z</time>
      </trkpt>
      <trkpt lat="49.41381" lon="-1.17203">
        <ele>0.6</ele>
        <time>2022-06-02T12:24:20Z</time>
      </trkpt>
      <trkpt lat="49.41379" lon="-1.17201">
        <ele>0.6</ele>
        <time>2022-06-02T12:24:21Z</time>
      </trkpt>
      <trkpt lat="49.41379" lon="-1.17201">
        <ele>0.6</ele>
        <time>2022-06-02T12:24:23Z</time>
      </trkpt>
      <trkpt lat="49.41378" lon="-1.172">
        <ele>0.6</ele>
        <time>2022-06-02T12:24:24Z</time>
      </trkpt>
      <trkpt lat="49.41378" lon="-1.17199">
        <ele>0.6</ele>
        <time>2022-06-02T12:24:25Z</time>
      </trkpt>
      <trkpt lat="49.41377" lon="-1.17198">
        <ele>0.6</ele>
        <time>2022-06-02T12:24:26Z</time>
      </trkpt>
      <trkpt lat="49.41376" lon="-1.17198">
        <ele>0.6</ele>
        <time>2022-06-02T12:24:27Z</time>
      </trkpt>
      <trkpt lat="49.41375" lon="-1.17197">
        <ele>0.6</ele>
        <time>2022-06-02T12:24:28Z</time>
      </trkpt>
      <trkpt lat="49.41373" lon="-1.17195">
        <ele>0.6</ele>
        <time>2022-06-02T12:24:29Z</time>
      </trkpt>
      <trkpt lat="49.41373" lon="-1.17194">
        <ele>0.6</ele>
        <time>2022-06-02T12:24:30Z</time>
      </trkpt>
      <trkpt lat="49.41372" lon="-1.17193">
        <ele>0.6</ele>
        <time>2022-06-02T12:24:31Z</time>
      </trkpt>
      <trkpt lat="49.4137" lon="-1.17192">
        <ele>0.6</ele>
        <time>2022-06-02T12:24:32Z</time>
      </trkpt>
      <trkpt lat="49.41369" lon="-1.17191">
        <ele>0.6</ele>
        <time>2022-06-02T12:24:33Z</time>
      </trkpt>
      <trkpt lat="49.41368" lon="-1.17189">
        <ele>0.7</ele>
        <time>2022-06-02T12:24:35Z</time>
      </trkpt>
      <trkpt lat="49.41367" lon="-1.17188">
        <ele>0.6</ele>
        <time>2022-06-02T12:24:36Z</time>
      </trkpt>
      <trkpt lat="49.41365" lon="-1.17186">
        <ele>0.6</ele>
        <time>2022-06-02T12:24:37Z</time>
      </trkpt>
      <trkpt lat="49.41364" lon="-1.17185">
        <ele>0.6</ele>
        <time>2022-06-02T12:24:38Z</time>
      </trkpt>
      <trkpt lat="49.41363" lon="-1.17183">
        <ele>0.6</ele>
        <time>2022-06-02T12:24:39Z</time>
      </trkpt>
      <trkpt lat="49.41361" lon="-1.17182">
        <ele>0.6</ele>
        <time>2022-06-02T12:24:40Z</time>
      </trkpt>
      <trkpt lat="49.4136" lon="-1.17181">
        <ele>0.6</ele>
        <time>2022-06-02T12:24:41Z</time>
      </trkpt>
      <trkpt lat="49.41359" lon="-1.1718">
        <ele>0.6</ele>
        <time>2022-06-02T12:24:42Z</time>
      </trkpt>
      <trkpt lat="49.41358" lon="-1.17179">
        <ele>0.6</ele>
        <time>2022-06-02T12:24:43Z</time>
      </trkpt>
      <trkpt lat="49.41356" lon="-1.17178">
        <ele>0.6</ele>
        <time>2022-06-02T12:24:45Z</time>
      </trkpt>
      <trkpt lat="49.41355" lon="-1.17177">
        <ele>0.6</ele>
        <time>2022-06-02T12:24:46Z</time>
      </trkpt>
      <trkpt lat="49.41354" lon="-1.17175">
        <ele>0.6</ele>
        <time>2022-06-02T12:24:48Z</time>
      </trkpt>
      <trkpt lat="49.41353" lon="-1.17174">
        <ele>0.6</ele>
        <time>2022-06-02T12:24:49Z</time>
      </trkpt>
      <trkpt lat="49.41352" lon="-1.17173">
        <ele>0.6</ele>
        <time>2022-06-02T12:24:50Z</time>
      </trkpt>
      <trkpt lat="49.41351" lon="-1.17172">
        <ele>0.6</ele>
        <time>2022-06-02T12:24:51Z</time>
      </trkpt>
      <trkpt lat="49.4135" lon="-1.17171">
        <ele>0.6</ele>
        <time>2022-06-02T12:24:52Z</time>
      </trkpt>
      <trkpt lat="49.4135" lon="-1.17169">
        <ele>0.6</ele>
        <time>2022-06-02T12:24:53Z</time>
      </trkpt>
      <trkpt lat="49.41349" lon="-1.17168">
        <ele>0.6</ele>
        <time>2022-06-02T12:24:54Z</time>
      </trkpt>
      <trkpt lat="49.41347" lon="-1.17166">
        <ele>0.6</ele>
        <time>2022-06-02T12:24:55Z</time>
      </trkpt>
      <trkpt lat="49.41346" lon="-1.17165">
        <ele>0.6</ele>
        <time>2022-06-02T12:24:57Z</time>
      </trkpt>
      <trkpt lat="49.41345" lon="-1.17165">
        <ele>0.6</ele>
        <time>2022-06-02T12:24:58Z</time>
      </trkpt>
      <trkpt lat="49.41344" lon="-1.17164">
        <ele>0.6</ele>
        <time>2022-06-02T12:24:59Z</time>
      </trkpt>
      <trkpt lat="49.41343" lon="-1.17163">
        <ele>0.6</ele>
        <time>2022-06-02T12:25:00Z</time>
      </trkpt>
      <trkpt lat="49.41342" lon="-1.17163">
        <ele>0.6</ele>
        <time>2022-06-02T12:25:01Z</time>
      </trkpt>
      <trkpt lat="49.41341" lon="-1.17162">
        <ele>0.6</ele>
        <time>2022-06-02T12:25:03Z</time>
      </trkpt>
      <trkpt lat="49.4134" lon="-1.17162">
        <ele>0.7</ele>
        <time>2022-06-02T12:25:04Z</time>
      </trkpt>
      <trkpt lat="49.41338" lon="-1.1716">
        <ele>0.7</ele>
        <time>2022-06-02T12:25:05Z</time>
      </trkpt>
      <trkpt lat="49.41338" lon="-1.17159">
        <ele>0.6</ele>
        <time>2022-06-02T12:25:06Z</time>
      </trkpt>
      <trkpt lat="49.41337" lon="-1.17158">
        <ele>0.6</ele>
        <time>2022-06-02T12:25:07Z</time>
      </trkpt>
      <trkpt lat="49.41336" lon="-1.17157">
        <ele>0.6</ele>
        <time>2022-06-02T12:25:08Z</time>
      </trkpt>
      <trkpt lat="49.41335" lon="-1.17156">
        <ele>0.6</ele>
        <time>2022-06-02T12:25:09Z</time>
      </trkpt>
      <trkpt lat="49.41334" lon="-1.17154">
        <ele>0.6</ele>
        <time>2022-06-02T12:25:10Z</time>
      </trkpt>
      <trkpt lat="49.41333" lon="-1.17153">
        <ele>0.6</ele>
        <time>2022-06-02T12:25:11Z</time>
      </trkpt>
      <trkpt lat="49.41332" lon="-1.17152">
        <ele>0.6</ele>
        <time>2022-06-02T12:25:12Z</time>
      </trkpt>
      <trkpt lat="49.4133" lon="-1.1715">
        <ele>0.6</ele>
        <time>2022-06-02T12:25:13Z</time>
      </trkpt>
      <trkpt lat="49.41329" lon="-1.17149">
        <ele>0.6</ele>
        <time>2022-06-02T12:25:15Z</time>
      </trkpt>
      <trkpt lat="49.41329" lon="-1.17148">
        <ele>0.6</ele>
        <time>2022-06-02T12:25:16Z</time>
      </trkpt>
      <trkpt lat="49.41328" lon="-1.17147">
        <ele>0.6</ele>
        <time>2022-06-02T12:25:17Z</time>
      </trkpt>
      <trkpt lat="49.41327" lon="-1.17146">
        <ele>0.6</ele>
        <time>2022-06-02T12:25:18Z</time>
      </trkpt>
      <trkpt lat="49.41326" lon="-1.17145">
        <ele>0.5</ele>
        <time>2022-06-02T12:25:19Z</time>
      </trkpt>
      <trkpt lat="49.41325" lon="-1.17144">
        <ele>0.5</ele>
        <time>2022-06-02T12:25:20Z</time>
      </trkpt>
      <trkpt lat="49.41324" lon="-1.17143">
        <ele>0.5</ele>
        <time>2022-06-02T12:25:21Z</time>
      </trkpt>
      <trkpt lat="49.41323" lon="-1.17142">
        <ele>0.6</ele>
        <time>2022-06-02T12:25:23Z</time>
      </trkpt>
      <trkpt lat="49.41322" lon="-1.17142">
        <ele>0.6</ele>
        <time>2022-06-02T12:25:24Z</time>
      </trkpt>
      <trkpt lat="49.41322" lon="-1.17141">
        <ele>0.6</ele>
        <time>2022-06-02T12:25:25Z</time>
      </trkpt>
      <trkpt lat="49.4132" lon="-1.1714">
        <ele>0.6</ele>
        <time>2022-06-02T12:25:26Z</time>
      </trkpt>
      <trkpt lat="49.41318" lon="-1.17138">
        <ele>0.6</ele>
        <time>2022-06-02T12:25:27Z</time>
      </trkpt>
      <trkpt lat="49.41318" lon="-1.17137">
        <ele>0.6</ele>
        <time>2022-06-02T12:25:28Z</time>
      </trkpt>
      <trkpt lat="49.41317" lon="-1.17136">
        <ele>0.6</ele>
        <time>2022-06-02T12:25:29Z</time>
      </trkpt>
      <trkpt lat="49.41317" lon="-1.17136">
        <ele>0.6</ele>
        <time>2022-06-02T12:25:31Z</time>
      </trkpt>
      <trkpt lat="49.41316" lon="-1.17135">
        <ele>0.6</ele>
        <time>2022-06-02T12:25:32Z</time>
      </trkpt>
      <trkpt lat="49.41315" lon="-1.17134">
        <ele>0.6</ele>
        <time>2022-06-02T12:25:33Z</time>
      </trkpt>
      <trkpt lat="49.41314" lon="-1.17133">
        <ele>0.6</ele>
        <time>2022-06-02T12:25:34Z</time>
      </trkpt>
      <trkpt lat="49.41313" lon="-1.17132">
        <ele>0.6</ele>
        <time>2022-06-02T12:25:35Z</time>
      </trkpt>
      <trkpt lat="49.41312" lon="-1.17131">
        <ele>0.6</ele>
        <time>2022-06-02T12:25:36Z</time>
      </trkpt>
      <trkpt lat="49.41311" lon="-1.1713">
        <ele>0.6</ele>
        <time>2022-06-02T12:25:37Z</time>
      </trkpt>
      <trkpt lat="49.4131" lon="-1.17129">
        <ele>0.6</ele>
        <time>2022-06-02T12:25:38Z</time>
      </trkpt>
      <trkpt lat="49.41309" lon="-1.17128">
        <ele>0.6</ele>
        <time>2022-06-02T12:25:39Z</time>
      </trkpt>
      <trkpt lat="49.41307" lon="-1.17127">
        <ele>0.6</ele>
        <time>2022-06-02T12:25:41Z</time>
      </trkpt>
      <trkpt lat="49.41307" lon="-1.17126">
        <ele>0.6</ele>
        <time>2022-06-02T12:25:42Z</time>
      </trkpt>
      <trkpt lat="49.41306" lon="-1.17125">
        <ele>0.6</ele>
        <time>2022-06-02T12:25:43Z</time>
      </trkpt>
      <trkpt lat="49.41305" lon="-1.17125">
        <ele>0.6</ele>
        <time>2022-06-02T12:25:44Z</time>
      </trkpt>
      <trkpt lat="49.41304" lon="-1.17124">
        <ele>0.6</ele>
        <time>2022-06-02T12:25:45Z</time>
      </trkpt>
      <trkpt lat="49.41303" lon="-1.17123">
        <ele>0.6</ele>
        <time>2022-06-02T12:25:46Z</time>
      </trkpt>
      <trkpt lat="49.41301" lon="-1.17121">
        <ele>0.6</ele>
        <time>2022-06-02T12:25:48Z</time>
      </trkpt>
      <trkpt lat="49.41301" lon="-1.1712">
        <ele>0.6</ele>
        <time>2022-06-02T12:25:49Z</time>
      </trkpt>
      <trkpt lat="49.413" lon="-1.17119">
        <ele>0.6</ele>
        <time>2022-06-02T12:25:50Z</time>
      </trkpt>
      <trkpt lat="49.41299" lon="-1.17117">
        <ele>0.6</ele>
        <time>2022-06-02T12:25:51Z</time>
      </trkpt>
      <trkpt lat="49.41298" lon="-1.17116">
        <ele>0.6</ele>
        <time>2022-06-02T12:25:52Z</time>
      </trkpt>
      <trkpt lat="49.41298" lon="-1.17116">
        <ele>0.6</ele>
        <time>2022-06-02T12:25:53Z</time>
      </trkpt>
      <trkpt lat="49.41296" lon="-1.17114">
        <ele>0.6</ele>
        <time>2022-06-02T12:25:54Z</time>
      </trkpt>
      <trkpt lat="49.41295" lon="-1.17113">
        <ele>0.6</ele>
        <time>2022-06-02T12:25:55Z</time>
      </trkpt>
      <trkpt lat="49.41294" lon="-1.17112">
        <ele>0.6</ele>
        <time>2022-06-02T12:25:56Z</time>
      </trkpt>
      <trkpt lat="49.41293" lon="-1.17111">
        <ele>0.6</ele>
        <time>2022-06-02T12:25:57Z</time>
      </trkpt>
      <trkpt lat="49.41292" lon="-1.1711">
        <ele>0.6</ele>
        <time>2022-06-02T12:25:59Z</time>
      </trkpt>
      <trkpt lat="49.41291" lon="-1.17109">
        <ele>0.6</ele>
        <time>2022-06-02T12:26:00Z</time>
      </trkpt>
      <trkpt lat="49.4129" lon="-1.17108">
        <ele>0.6</ele>
        <time>2022-06-02T12:26:01Z</time>
      </trkpt>
      <trkpt lat="49.41289" lon="-1.17107">
        <ele>0.6</ele>
        <time>2022-06-02T12:26:02Z</time>
      </trkpt>
      <trkpt lat="49.41288" lon="-1.17106">
        <ele>0.6</ele>
        <time>2022-06-02T12:26:03Z</time>
      </trkpt>
      <trkpt lat="49.41286" lon="-1.17104">
        <ele>0.6</ele>
        <time>2022-06-02T12:26:04Z</time>
      </trkpt>
      <trkpt lat="49.41286" lon="-1.17104">
        <ele>0.6</ele>
        <time>2022-06-02T12:26:05Z</time>
      </trkpt>
      <trkpt lat="49.41285" lon="-1.17103">
        <ele>0.6</ele>
        <time>2022-06-02T12:26:06Z</time>
      </trkpt>
      <trkpt lat="49.41285" lon="-1.17102">
        <ele>0.6</ele>
        <time>2022-06-02T12:26:07Z</time>
      </trkpt>
      <trkpt lat="49.41284" lon="-1.17101">
        <ele>0.6</ele>
        <time>2022-06-02T12:26:09Z</time>
      </trkpt>
      <trkpt lat="49.41283" lon="-1.171">
        <ele>0.6</ele>
        <time>2022-06-02T12:26:10Z</time>
      </trkpt>
      <trkpt lat="49.41282" lon="-1.17099">
        <ele>0.6</ele>
        <time>2022-06-02T12:26:11Z</time>
      </trkpt>
      <trkpt lat="49.41281" lon="-1.17097">
        <ele>0.6</ele>
        <time>2022-06-02T12:26:12Z</time>
      </trkpt>
      <trkpt lat="49.4128" lon="-1.17096">
        <ele>0.6</ele>
        <time>2022-06-02T12:26:13Z</time>
      </trkpt>
      <trkpt lat="49.41279" lon="-1.17095">
        <ele>0.6</ele>
        <time>2022-06-02T12:26:14Z</time>
      </trkpt>
      <trkpt lat="49.41278" lon="-1.17094">
        <ele>0.6</ele>
        <time>2022-06-02T12:26:15Z</time>
      </trkpt>
      <trkpt lat="49.41277" lon="-1.17093">
        <ele>0.6</ele>
        <time>2022-06-02T12:26:16Z</time>
      </trkpt>
      <trkpt lat="49.41276" lon="-1.17092">
        <ele>0.6</ele>
        <time>2022-06-02T12:26:17Z</time>
      </trkpt>
      <trkpt lat="49.41275" lon="-1.17091">
        <ele>0.6</ele>
        <time>2022-06-02T12:26:18Z</time>
      </trkpt>
      <trkpt lat="49.41273" lon="-1.17089">
        <ele>0.5</ele>
        <time>2022-06-02T12:26:20Z</time>
      </trkpt>
      <trkpt lat="49.41272" lon="-1.17088">
        <ele>0.5</ele>
        <time>2022-06-02T12:26:21Z</time>
      </trkpt>
      <trkpt lat="49.41272" lon="-1.17087">
        <ele>0.5</ele>
        <time>2022-06-02T12:26:22Z</time>
      </trkpt>
      <trkpt lat="49.4127" lon="-1.17085">
        <ele>0.6</ele>
        <time>2022-06-02T12:26:23Z</time>
      </trkpt>
      <trkpt lat="49.4127" lon="-1.17084">
        <ele>0.6</ele>
        <time>2022-06-02T12:26:24Z</time>
      </trkpt>
      <trkpt lat="49.41269" lon="-1.17083">
        <ele>0.6</ele>
        <time>2022-06-02T12:26:25Z</time>
      </trkpt>
      <trkpt lat="49.41268" lon="-1.17082">
        <ele>0.6</ele>
        <time>2022-06-02T12:26:26Z</time>
      </trkpt>
      <trkpt lat="49.41267" lon="-1.17081">
        <ele>0.6</ele>
        <time>2022-06-02T12:26:27Z</time>
      </trkpt>
      <trkpt lat="49.41266" lon="-1.1708">
        <ele>0.6</ele>
        <time>2022-06-02T12:26:28Z</time>
      </trkpt>
      <trkpt lat="49.41266" lon="-1.17079">
        <ele>0.6</ele>
        <time>2022-06-02T12:26:30Z</time>
      </trkpt>
      <trkpt lat="49.41265" lon="-1.17078">
        <ele>0.6</ele>
        <time>2022-06-02T12:26:31Z</time>
      </trkpt>
      <trkpt lat="49.41264" lon="-1.17077">
        <ele>0.6</ele>
        <time>2022-06-02T12:26:32Z</time>
      </trkpt>
      <trkpt lat="49.41263" lon="-1.17075">
        <ele>0.6</ele>
        <time>2022-06-02T12:26:33Z</time>
      </trkpt>
      <trkpt lat="49.41262" lon="-1.17074">
        <ele>0.6</ele>
        <time>2022-06-02T12:26:34Z</time>
      </trkpt>
      <trkpt lat="49.41261" lon="-1.17073">
        <ele>0.6</ele>
        <time>2022-06-02T12:26:35Z</time>
      </trkpt>
      <trkpt lat="49.41261" lon="-1.17072">
        <ele>0.6</ele>
        <time>2022-06-02T12:26:36Z</time>
      </trkpt>
      <trkpt lat="49.4126" lon="-1.17072">
        <ele>0.6</ele>
        <time>2022-06-02T12:26:37Z</time>
      </trkpt>
      <trkpt lat="49.4126" lon="-1.17071">
        <ele>0.6</ele>
        <time>2022-06-02T12:26:38Z</time>
      </trkpt>
      <trkpt lat="49.41259" lon="-1.1707">
        <ele>0.6</ele>
        <time>2022-06-02T12:26:40Z</time>
      </trkpt>
      <trkpt lat="49.41258" lon="-1.17068">
        <ele>0.6</ele>
        <time>2022-06-02T12:26:41Z</time>
      </trkpt>
      <trkpt lat="49.41256" lon="-1.17067">
        <ele>0.6</ele>
        <time>2022-06-02T12:26:42Z</time>
      </trkpt>
      <trkpt lat="49.41255" lon="-1.17065">
        <ele>0.6</ele>
        <time>2022-06-02T12:26:43Z</time>
      </trkpt>
      <trkpt lat="49.41254" lon="-1.17064">
        <ele>0.6</ele>
        <time>2022-06-02T12:26:44Z</time>
      </trkpt>
      <trkpt lat="49.41254" lon="-1.17063">
        <ele>0.6</ele>
        <time>2022-06-02T12:26:45Z</time>
      </trkpt>
      <trkpt lat="49.41253" lon="-1.17062">
        <ele>0.6</ele>
        <time>2022-06-02T12:26:46Z</time>
      </trkpt>
      <trkpt lat="49.41252" lon="-1.17061">
        <ele>0.6</ele>
        <time>2022-06-02T12:26:48Z</time>
      </trkpt>
      <trkpt lat="49.41251" lon="-1.1706">
        <ele>0.6</ele>
        <time>2022-06-02T12:26:49Z</time>
      </trkpt>
      <trkpt lat="49.41249" lon="-1.17059">
        <ele>0.6</ele>
        <time>2022-06-02T12:26:50Z</time>
      </trkpt>
      <trkpt lat="49.41249" lon="-1.17059">
        <ele>0.6</ele>
        <time>2022-06-02T12:26:51Z</time>
      </trkpt>
      <trkpt lat="49.41248" lon="-1.17058">
        <ele>0.6</ele>
        <time>2022-06-02T12:26:52Z</time>
      </trkpt>
      <trkpt lat="49.41246" lon="-1.17056">
        <ele>0.6</ele>
        <time>2022-06-02T12:26:53Z</time>
      </trkpt>
      <trkpt lat="49.41245" lon="-1.17056">
        <ele>0.6</ele>
        <time>2022-06-02T12:26:54Z</time>
      </trkpt>
      <trkpt lat="49.41245" lon="-1.17055">
        <ele>0.6</ele>
        <time>2022-06-02T12:26:55Z</time>
      </trkpt>
      <trkpt lat="49.41244" lon="-1.17054">
        <ele>0.6</ele>
        <time>2022-06-02T12:26:56Z</time>
      </trkpt>
      <trkpt lat="49.41243" lon="-1.17053">
        <ele>0.6</ele>
        <time>2022-06-02T12:26:58Z</time>
      </trkpt>
      <trkpt lat="49.41242" lon="-1.17052">
        <ele>0.6</ele>
        <time>2022-06-02T12:26:59Z</time>
      </trkpt>
      <trkpt lat="49.4124" lon="-1.17051">
        <ele>0.6</ele>
        <time>2022-06-02T12:27:00Z</time>
      </trkpt>
      <trkpt lat="49.4124" lon="-1.1705">
        <ele>0.6</ele>
        <time>2022-06-02T12:27:01Z</time>
      </trkpt>
      <trkpt lat="49.41239" lon="-1.1705">
        <ele>0.6</ele>
        <time>2022-06-02T12:27:02Z</time>
      </trkpt>
      <trkpt lat="49.41238" lon="-1.17049">
        <ele>0.6</ele>
        <time>2022-06-02T12:27:03Z</time>
      </trkpt>
      <trkpt lat="49.41237" lon="-1.17048">
        <ele>0.6</ele>
        <time>2022-06-02T12:27:04Z</time>
      </trkpt>
      <trkpt lat="49.41235" lon="-1.17047">
        <ele>0.6</ele>
        <time>2022-06-02T12:27:05Z</time>
      </trkpt>
      <trkpt lat="49.41234" lon="-1.17046">
        <ele>0.6</ele>
        <time>2022-06-02T12:27:06Z</time>
      </trkpt>
      <trkpt lat="49.41233" lon="-1.17045">
        <ele>0.6</ele>
        <time>2022-06-02T12:27:08Z</time>
      </trkpt>
      <trkpt lat="49.41232" lon="-1.17045">
        <ele>0.6</ele>
        <time>2022-06-02T12:27:09Z</time>
      </trkpt>
      <trkpt lat="49.41231" lon="-1.17043">
        <ele>0.6</ele>
        <time>2022-06-02T12:27:10Z</time>
      </trkpt>
      <trkpt lat="49.4123" lon="-1.17043">
        <ele>0.6</ele>
        <time>2022-06-02T12:27:11Z</time>
      </trkpt>
      <trkpt lat="49.41229" lon="-1.17042">
        <ele>0.6</ele>
        <time>2022-06-02T12:27:12Z</time>
      </trkpt>
      <trkpt lat="49.41228" lon="-1.17041">
        <ele>0.6</ele>
        <time>2022-06-02T12:27:13Z</time>
      </trkpt>
      <trkpt lat="49.41227" lon="-1.1704">
        <ele>0.6</ele>
        <time>2022-06-02T12:27:14Z</time>
      </trkpt>
      <trkpt lat="49.41226" lon="-1.17039">
        <ele>0.6</ele>
        <time>2022-06-02T12:27:15Z</time>
      </trkpt>
      <trkpt lat="49.41225" lon="-1.17038">
        <ele>0.7</ele>
        <time>2022-06-02T12:27:16Z</time>
      </trkpt>
      <trkpt lat="49.41224" lon="-1.17037">
        <ele>0.7</ele>
        <time>2022-06-02T12:27:17Z</time>
      </trkpt>
      <trkpt lat="49.41223" lon="-1.17036">
        <ele>0.7</ele>
        <time>2022-06-02T12:27:19Z</time>
      </trkpt>
      <trkpt lat="49.41222" lon="-1.17035">
        <ele>0.7</ele>
        <time>2022-06-02T12:27:20Z</time>
      </trkpt>
      <trkpt lat="49.41222" lon="-1.17034">
        <ele>0.7</ele>
        <time>2022-06-02T12:27:21Z</time>
      </trkpt>
      <trkpt lat="49.41221" lon="-1.17033">
        <ele>0.7</ele>
        <time>2022-06-02T12:27:22Z</time>
      </trkpt>
      <trkpt lat="49.41221" lon="-1.17031">
        <ele>0.7</ele>
        <time>2022-06-02T12:27:23Z</time>
      </trkpt>
      <trkpt lat="49.41221" lon="-1.17029">
        <ele>0.7</ele>
        <time>2022-06-02T12:27:24Z</time>
      </trkpt>
      <trkpt lat="49.41221" lon="-1.17027">
        <ele>0.7</ele>
        <time>2022-06-02T12:27:25Z</time>
      </trkpt>
      <trkpt lat="49.41221" lon="-1.17025">
        <ele>0.6</ele>
        <time>2022-06-02T12:27:26Z</time>
      </trkpt>
      <trkpt lat="49.41221" lon="-1.17024">
        <ele>0.6</ele>
        <time>2022-06-02T12:27:27Z</time>
      </trkpt>
      <trkpt lat="49.41221" lon="-1.17022">
        <ele>0.6</ele>
        <time>2022-06-02T12:27:29Z</time>
      </trkpt>
      <trkpt lat="49.4122" lon="-1.17019">
        <ele>0.6</ele>
        <time>2022-06-02T12:27:30Z</time>
      </trkpt>
      <trkpt lat="49.4122" lon="-1.17018">
        <ele>0.6</ele>
        <time>2022-06-02T12:27:31Z</time>
      </trkpt>
      <trkpt lat="49.41219" lon="-1.17017">
        <ele>0.6</ele>
        <time>2022-06-02T12:27:32Z</time>
      </trkpt>
      <trkpt lat="49.41218" lon="-1.17015">
        <ele>0.6</ele>
        <time>2022-06-02T12:27:33Z</time>
      </trkpt>
      <trkpt lat="49.41218" lon="-1.17013">
        <ele>0.6</ele>
        <time>2022-06-02T12:27:34Z</time>
      </trkpt>
      <trkpt lat="49.41217" lon="-1.17012">
        <ele>0.6</ele>
        <time>2022-06-02T12:27:35Z</time>
      </trkpt>
      <trkpt lat="49.41217" lon="-1.1701">
        <ele>0.6</ele>
        <time>2022-06-02T12:27:36Z</time>
      </trkpt>
      <trkpt lat="49.41216" lon="-1.17009">
        <ele>0.6</ele>
        <time>2022-06-02T12:27:38Z</time>
      </trkpt>
      <trkpt lat="49.41215" lon="-1.17007">
        <ele>0.6</ele>
        <time>2022-06-02T12:27:39Z</time>
      </trkpt>
      <trkpt lat="49.41214" lon="-1.17005">
        <ele>0.6</ele>
        <time>2022-06-02T12:27:40Z</time>
      </trkpt>
      <trkpt lat="49.41213" lon="-1.17005">
        <ele>0.6</ele>
        <time>2022-06-02T12:27:41Z</time>
      </trkpt>
      <trkpt lat="49.41212" lon="-1.17004">
        <ele>0.6</ele>
        <time>2022-06-02T12:27:42Z</time>
      </trkpt>
      <trkpt lat="49.41212" lon="-1.17002">
        <ele>0.6</ele>
        <time>2022-06-02T12:27:43Z</time>
      </trkpt>
      <trkpt lat="49.41211" lon="-1.17001">
        <ele>0.6</ele>
        <time>2022-06-02T12:27:44Z</time>
      </trkpt>
      <trkpt lat="49.4121" lon="-1.17">
        <ele>0.6</ele>
        <time>2022-06-02T12:27:46Z</time>
      </trkpt>
      <trkpt lat="49.4121" lon="-1.16999">
        <ele>0.6</ele>
        <time>2022-06-02T12:27:47Z</time>
      </trkpt>
      <trkpt lat="49.41208" lon="-1.16997">
        <ele>0.6</ele>
        <time>2022-06-02T12:27:48Z</time>
      </trkpt>
      <trkpt lat="49.41207" lon="-1.16996">
        <ele>0.6</ele>
        <time>2022-06-02T12:27:49Z</time>
      </trkpt>
      <trkpt lat="49.41207" lon="-1.16995">
        <ele>0.6</ele>
        <time>2022-06-02T12:27:50Z</time>
      </trkpt>
      <trkpt lat="49.41206" lon="-1.16994">
        <ele>0.6</ele>
        <time>2022-06-02T12:27:51Z</time>
      </trkpt>
      <trkpt lat="49.41205" lon="-1.16993">
        <ele>0.6</ele>
        <time>2022-06-02T12:27:52Z</time>
      </trkpt>
      <trkpt lat="49.41204" lon="-1.16992">
        <ele>0.6</ele>
        <time>2022-06-02T12:27:53Z</time>
      </trkpt>
      <trkpt lat="49.41203" lon="-1.16991">
        <ele>0.6</ele>
        <time>2022-06-02T12:27:55Z</time>
      </trkpt>
      <trkpt lat="49.41202" lon="-1.1699">
        <ele>0.6</ele>
        <time>2022-06-02T12:27:56Z</time>
      </trkpt>
      <trkpt lat="49.41202" lon="-1.16989">
        <ele>0.6</ele>
        <time>2022-06-02T12:27:57Z</time>
      </trkpt>
      <trkpt lat="49.412" lon="-1.16988">
        <ele>0.6</ele>
        <time>2022-06-02T12:27:58Z</time>
      </trkpt>
      <trkpt lat="49.41199" lon="-1.16987">
        <ele>0.6</ele>
        <time>2022-06-02T12:27:59Z</time>
      </trkpt>
      <trkpt lat="49.41198" lon="-1.16986">
        <ele>0.6</ele>
        <time>2022-06-02T12:28:00Z</time>
      </trkpt>
      <trkpt lat="49.41197" lon="-1.16985">
        <ele>0.6</ele>
        <time>2022-06-02T12:28:01Z</time>
      </trkpt>
      <trkpt lat="49.41197" lon="-1.16984">
        <ele>0.6</ele>
        <time>2022-06-02T12:28:03Z</time>
      </trkpt>
      <trkpt lat="49.41197" lon="-1.16982">
        <ele>0.6</ele>
        <time>2022-06-02T12:28:04Z</time>
      </trkpt>
      <trkpt lat="49.41197" lon="-1.16978">
        <ele>0.6</ele>
        <time>2022-06-02T12:28:05Z</time>
      </trkpt>
      <trkpt lat="49.41197" lon="-1.16977">
        <ele>0.6</ele>
        <time>2022-06-02T12:28:06Z</time>
      </trkpt>
      <trkpt lat="49.41197" lon="-1.16976">
        <ele>0.6</ele>
        <time>2022-06-02T12:28:07Z</time>
      </trkpt>
      <trkpt lat="49.41196" lon="-1.16975">
        <ele>0.6</ele>
        <time>2022-06-02T12:28:08Z</time>
      </trkpt>
      <trkpt lat="49.41195" lon="-1.16973">
        <ele>0.6</ele>
        <time>2022-06-02T12:28:09Z</time>
      </trkpt>
      <trkpt lat="49.41194" lon="-1.16971">
        <ele>0.6</ele>
        <time>2022-06-02T12:28:11Z</time>
      </trkpt>
      <trkpt lat="49.41193" lon="-1.1697">
        <ele>0.6</ele>
        <time>2022-06-02T12:28:12Z</time>
      </trkpt>
      <trkpt lat="49.41192" lon="-1.16969">
        <ele>0.6</ele>
        <time>2022-06-02T12:28:13Z</time>
      </trkpt>
      <trkpt lat="49.41191" lon="-1.16968">
        <ele>0.6</ele>
        <time>2022-06-02T12:28:14Z</time>
      </trkpt>
      <trkpt lat="49.41189" lon="-1.16967">
        <ele>0.6</ele>
        <time>2022-06-02T12:28:15Z</time>
      </trkpt>
      <trkpt lat="49.41188" lon="-1.16966">
        <ele>0.6</ele>
        <time>2022-06-02T12:28:16Z</time>
      </trkpt>
      <trkpt lat="49.41187" lon="-1.16965">
        <ele>0.6</ele>
        <time>2022-06-02T12:28:17Z</time>
      </trkpt>
      <trkpt lat="49.41186" lon="-1.16964">
        <ele>0.6</ele>
        <time>2022-06-02T12:28:18Z</time>
      </trkpt>
      <trkpt lat="49.41185" lon="-1.16962">
        <ele>0.6</ele>
        <time>2022-06-02T12:28:20Z</time>
      </trkpt>
      <trkpt lat="49.41183" lon="-1.1696">
        <ele>0.6</ele>
        <time>2022-06-02T12:28:21Z</time>
      </trkpt>
      <trkpt lat="49.41182" lon="-1.16959">
        <ele>0.6</ele>
        <time>2022-06-02T12:28:22Z</time>
      </trkpt>
      <trkpt lat="49.41182" lon="-1.16958">
        <ele>0.6</ele>
        <time>2022-06-02T12:28:23Z</time>
      </trkpt>
      <trkpt lat="49.41181" lon="-1.16957">
        <ele>0.6</ele>
        <time>2022-06-02T12:28:24Z</time>
      </trkpt>
      <trkpt lat="49.4118" lon="-1.16956">
        <ele>0.6</ele>
        <time>2022-06-02T12:28:25Z</time>
      </trkpt>
      <trkpt lat="49.41179" lon="-1.16955">
        <ele>0.6</ele>
        <time>2022-06-02T12:28:26Z</time>
      </trkpt>
      <trkpt lat="49.41178" lon="-1.16954">
        <ele>0.6</ele>
        <time>2022-06-02T12:28:27Z</time>
      </trkpt>
      <trkpt lat="49.41177" lon="-1.16953">
        <ele>0.6</ele>
        <time>2022-06-02T12:28:28Z</time>
      </trkpt>
      <trkpt lat="49.41177" lon="-1.16952">
        <ele>0.6</ele>
        <time>2022-06-02T12:28:30Z</time>
      </trkpt>
      <trkpt lat="49.41176" lon="-1.16951">
        <ele>0.6</ele>
        <time>2022-06-02T12:28:31Z</time>
      </trkpt>
      <trkpt lat="49.41175" lon="-1.1695">
        <ele>0.6</ele>
        <time>2022-06-02T12:28:32Z</time>
      </trkpt>
      <trkpt lat="49.41174" lon="-1.16949">
        <ele>0.6</ele>
        <time>2022-06-02T12:28:33Z</time>
      </trkpt>
      <trkpt lat="49.41173" lon="-1.16948">
        <ele>0.6</ele>
        <time>2022-06-02T12:28:34Z</time>
      </trkpt>
      <trkpt lat="49.41173" lon="-1.16947">
        <ele>0.6</ele>
        <time>2022-06-02T12:28:35Z</time>
      </trkpt>
      <trkpt lat="49.41172" lon="-1.16946">
        <ele>0.6</ele>
        <time>2022-06-02T12:28:36Z</time>
      </trkpt>
      <trkpt lat="49.41171" lon="-1.16945">
        <ele>0.6</ele>
        <time>2022-06-02T12:28:37Z</time>
      </trkpt>
      <trkpt lat="49.4117" lon="-1.16944">
        <ele>0.6</ele>
        <time>2022-06-02T12:28:38Z</time>
      </trkpt>
      <trkpt lat="49.41169" lon="-1.16942">
        <ele>0.6</ele>
        <time>2022-06-02T12:28:39Z</time>
      </trkpt>
      <trkpt lat="49.41168" lon="-1.16941">
        <ele>0.6</ele>
        <time>2022-06-02T12:28:41Z</time>
      </trkpt>
      <trkpt lat="49.41166" lon="-1.16939">
        <ele>0.6</ele>
        <time>2022-06-02T12:28:42Z</time>
      </trkpt>
      <trkpt lat="49.41166" lon="-1.16938">
        <ele>0.6</ele>
        <time>2022-06-02T12:28:43Z</time>
      </trkpt>
      <trkpt lat="49.41165" lon="-1.16937">
        <ele>0.6</ele>
        <time>2022-06-02T12:28:44Z</time>
      </trkpt>
      <trkpt lat="49.41164" lon="-1.16936">
        <ele>0.6</ele>
        <time>2022-06-02T12:28:45Z</time>
      </trkpt>
      <trkpt lat="49.41163" lon="-1.16935">
        <ele>0.6</ele>
        <time>2022-06-02T12:28:46Z</time>
      </trkpt>
      <trkpt lat="49.41162" lon="-1.16934">
        <ele>0.6</ele>
        <time>2022-06-02T12:28:47Z</time>
      </trkpt>
      <trkpt lat="49.41162" lon="-1.16933">
        <ele>0.6</ele>
        <time>2022-06-02T12:28:48Z</time>
      </trkpt>
      <trkpt lat="49.41161" lon="-1.16932">
        <ele>0.6</ele>
        <time>2022-06-02T12:28:49Z</time>
      </trkpt>
      <trkpt lat="49.4116" lon="-1.16931">
        <ele>0.6</ele>
        <time>2022-06-02T12:28:51Z</time>
      </trkpt>
      <trkpt lat="49.41159" lon="-1.1693">
        <ele>0.6</ele>
        <time>2022-06-02T12:28:52Z</time>
      </trkpt>
      <trkpt lat="49.41158" lon="-1.16929">
        <ele>0.6</ele>
        <time>2022-06-02T12:28:53Z</time>
      </trkpt>
      <trkpt lat="49.41157" lon="-1.16928">
        <ele>0.6</ele>
        <time>2022-06-02T12:28:54Z</time>
      </trkpt>
      <trkpt lat="49.41155" lon="-1.16926">
        <ele>0.6</ele>
        <time>2022-06-02T12:28:55Z</time>
      </trkpt>
      <trkpt lat="49.41155" lon="-1.16925">
        <ele>0.6</ele>
        <time>2022-06-02T12:28:56Z</time>
      </trkpt>
      <trkpt lat="49.41154" lon="-1.16924">
        <ele>0.6</ele>
        <time>2022-06-02T12:28:57Z</time>
      </trkpt>
      <trkpt lat="49.41153" lon="-1.16923">
        <ele>0.6</ele>
        <time>2022-06-02T12:28:58Z</time>
      </trkpt>
      <trkpt lat="49.41152" lon="-1.16922">
        <ele>0.6</ele>
        <time>2022-06-02T12:28:59Z</time>
      </trkpt>
      <trkpt lat="49.41151" lon="-1.16921">
        <ele>0.6</ele>
        <time>2022-06-02T12:29:01Z</time>
      </trkpt>
      <trkpt lat="49.4115" lon="-1.16921">
        <ele>0.6</ele>
        <time>2022-06-02T12:29:02Z</time>
      </trkpt>
      <trkpt lat="49.41149" lon="-1.16919">
        <ele>0.6</ele>
        <time>2022-06-02T12:29:03Z</time>
      </trkpt>
      <trkpt lat="49.41148" lon="-1.16918">
        <ele>0.6</ele>
        <time>2022-06-02T12:29:04Z</time>
      </trkpt>
      <trkpt lat="49.41147" lon="-1.16916">
        <ele>0.6</ele>
        <time>2022-06-02T12:29:05Z</time>
      </trkpt>
      <trkpt lat="49.41146" lon="-1.16916">
        <ele>0.6</ele>
        <time>2022-06-02T12:29:06Z</time>
      </trkpt>
      <trkpt lat="49.41145" lon="-1.16915">
        <ele>0.6</ele>
        <time>2022-06-02T12:29:07Z</time>
      </trkpt>
      <trkpt lat="49.41144" lon="-1.16914">
        <ele>0.6</ele>
        <time>2022-06-02T12:29:08Z</time>
      </trkpt>
      <trkpt lat="49.41144" lon="-1.16913">
        <ele>0.6</ele>
        <time>2022-06-02T12:29:09Z</time>
      </trkpt>
      <trkpt lat="49.41143" lon="-1.16911">
        <ele>0.6</ele>
        <time>2022-06-02T12:29:11Z</time>
      </trkpt>
      <trkpt lat="49.41142" lon="-1.16911">
        <ele>0.6</ele>
        <time>2022-06-02T12:29:12Z</time>
      </trkpt>
      <trkpt lat="49.41141" lon="-1.1691">
        <ele>0.6</ele>
        <time>2022-06-02T12:29:13Z</time>
      </trkpt>
      <trkpt lat="49.4114" lon="-1.16908">
        <ele>0.6</ele>
        <time>2022-06-02T12:29:14Z</time>
      </trkpt>
      <trkpt lat="49.4114" lon="-1.16907">
        <ele>0.6</ele>
        <time>2022-06-02T12:29:15Z</time>
      </trkpt>
      <trkpt lat="49.41139" lon="-1.16905">
        <ele>0.6</ele>
        <time>2022-06-02T12:29:16Z</time>
      </trkpt>
      <trkpt lat="49.41139" lon="-1.16904">
        <ele>0.6</ele>
        <time>2022-06-02T12:29:17Z</time>
      </trkpt>
      <trkpt lat="49.41138" lon="-1.16902">
        <ele>0.6</ele>
        <time>2022-06-02T12:29:18Z</time>
      </trkpt>
      <trkpt lat="49.41138" lon="-1.16901">
        <ele>0.6</ele>
        <time>2022-06-02T12:29:19Z</time>
      </trkpt>
      <trkpt lat="49.41136" lon="-1.169">
        <ele>0.6</ele>
        <time>2022-06-02T12:29:21Z</time>
      </trkpt>
      <trkpt lat="49.41136" lon="-1.16899">
        <ele>0.6</ele>
        <time>2022-06-02T12:29:22Z</time>
      </trkpt>
      <trkpt lat="49.41135" lon="-1.16898">
        <ele>0.6</ele>
        <time>2022-06-02T12:29:23Z</time>
      </trkpt>
      <trkpt lat="49.41133" lon="-1.16897">
        <ele>0.6</ele>
        <time>2022-06-02T12:29:24Z</time>
      </trkpt>
      <trkpt lat="49.41132" lon="-1.16896">
        <ele>0.6</ele>
        <time>2022-06-02T12:29:25Z</time>
      </trkpt>
      <trkpt lat="49.41131" lon="-1.16895">
        <ele>0.6</ele>
        <time>2022-06-02T12:29:26Z</time>
      </trkpt>
      <trkpt lat="49.4113" lon="-1.16894">
        <ele>0.6</ele>
        <time>2022-06-02T12:29:27Z</time>
      </trkpt>
      <trkpt lat="49.41129" lon="-1.16893">
        <ele>0.6</ele>
        <time>2022-06-02T12:29:28Z</time>
      </trkpt>
      <trkpt lat="49.41128" lon="-1.16892">
        <ele>0.6</ele>
        <time>2022-06-02T12:29:29Z</time>
      </trkpt>
      <trkpt lat="49.41127" lon="-1.16891">
        <ele>0.6</ele>
        <time>2022-06-02T12:29:31Z</time>
      </trkpt>
      <trkpt lat="49.41126" lon="-1.1689">
        <ele>0.6</ele>
        <time>2022-06-02T12:29:32Z</time>
      </trkpt>
      <trkpt lat="49.41125" lon="-1.16888">
        <ele>0.6</ele>
        <time>2022-06-02T12:29:33Z</time>
      </trkpt>
      <trkpt lat="49.41124" lon="-1.16887">
        <ele>0.6</ele>
        <time>2022-06-02T12:29:34Z</time>
      </trkpt>
      <trkpt lat="49.41123" lon="-1.16885">
        <ele>0.6</ele>
        <time>2022-06-02T12:29:35Z</time>
      </trkpt>
      <trkpt lat="49.41122" lon="-1.16884">
        <ele>0.6</ele>
        <time>2022-06-02T12:29:36Z</time>
      </trkpt>
      <trkpt lat="49.41121" lon="-1.16883">
        <ele>0.6</ele>
        <time>2022-06-02T12:29:37Z</time>
      </trkpt>
      <trkpt lat="49.41121" lon="-1.16882">
        <ele>0.6</ele>
        <time>2022-06-02T12:29:38Z</time>
      </trkpt>
      <trkpt lat="49.4112" lon="-1.1688">
        <ele>0.6</ele>
        <time>2022-06-02T12:29:39Z</time>
      </trkpt>
      <trkpt lat="49.41119" lon="-1.16879">
        <ele>0.6</ele>
        <time>2022-06-02T12:29:41Z</time>
      </trkpt>
      <trkpt lat="49.41118" lon="-1.16878">
        <ele>0.6</ele>
        <time>2022-06-02T12:29:42Z</time>
      </trkpt>
      <trkpt lat="49.41117" lon="-1.16877">
        <ele>0.6</ele>
        <time>2022-06-02T12:29:43Z</time>
      </trkpt>
      <trkpt lat="49.41117" lon="-1.16876">
        <ele>0.6</ele>
        <time>2022-06-02T12:29:44Z</time>
      </trkpt>
      <trkpt lat="49.41116" lon="-1.16875">
        <ele>0.6</ele>
        <time>2022-06-02T12:29:45Z</time>
      </trkpt>
      <trkpt lat="49.41114" lon="-1.16874">
        <ele>0.6</ele>
        <time>2022-06-02T12:29:46Z</time>
      </trkpt>
      <trkpt lat="49.41113" lon="-1.16874">
        <ele>0.6</ele>
        <time>2022-06-02T12:29:48Z</time>
      </trkpt>
      <trkpt lat="49.41113" lon="-1.16873">
        <ele>0.6</ele>
        <time>2022-06-02T12:29:49Z</time>
      </trkpt>
      <trkpt lat="49.41111" lon="-1.16873">
        <ele>0.6</ele>
        <time>2022-06-02T12:29:50Z</time>
      </trkpt>
      <trkpt lat="49.4111" lon="-1.16872">
        <ele>0.6</ele>
        <time>2022-06-02T12:29:52Z</time>
      </trkpt>
      <trkpt lat="49.41109" lon="-1.16873">
        <ele>0.6</ele>
        <time>2022-06-02T12:29:53Z</time>
      </trkpt>
      <trkpt lat="49.41108" lon="-1.16873">
        <ele>0.6</ele>
        <time>2022-06-02T12:29:54Z</time>
      </trkpt>
      <trkpt lat="49.41107" lon="-1.16873">
        <ele>0.6</ele>
        <time>2022-06-02T12:29:55Z</time>
      </trkpt>
      <trkpt lat="49.41106" lon="-1.16874">
        <ele>0.6</ele>
        <time>2022-06-02T12:29:57Z</time>
      </trkpt>
      <trkpt lat="49.41105" lon="-1.16873">
        <ele>0.6</ele>
        <time>2022-06-02T12:29:58Z</time>
      </trkpt>
      <trkpt lat="49.41104" lon="-1.16874">
        <ele>0.6</ele>
        <time>2022-06-02T12:29:59Z</time>
      </trkpt>
      <trkpt lat="49.41103" lon="-1.16874">
        <ele>0.6</ele>
        <time>2022-06-02T12:30:00Z</time>
      </trkpt>
      <trkpt lat="49.41102" lon="-1.16873">
        <ele>0.6</ele>
        <time>2022-06-02T12:30:01Z</time>
      </trkpt>
      <trkpt lat="49.41102" lon="-1.16873">
        <ele>0.6</ele>
        <time>2022-06-02T12:30:02Z</time>
      </trkpt>
      <trkpt lat="49.41101" lon="-1.16873">
        <ele>0.6</ele>
        <time>2022-06-02T12:30:03Z</time>
      </trkpt>
      <trkpt lat="49.411" lon="-1.16873">
        <ele>0.6</ele>
        <time>2022-06-02T12:30:04Z</time>
      </trkpt>
      <trkpt lat="49.41098" lon="-1.16873">
        <ele>0.6</ele>
        <time>2022-06-02T12:30:06Z</time>
      </trkpt>
      <trkpt lat="49.41097" lon="-1.16873">
        <ele>0.6</ele>
        <time>2022-06-02T12:30:08Z</time>
      </trkpt>
      <trkpt lat="49.41095" lon="-1.16872">
        <ele>0.6</ele>
        <time>2022-06-02T12:30:09Z</time>
      </trkpt>
      <trkpt lat="49.41094" lon="-1.16871">
        <ele>0.6</ele>
        <time>2022-06-02T12:30:10Z</time>
      </trkpt>
      <trkpt lat="49.41093" lon="-1.1687">
        <ele>0.6</ele>
        <time>2022-06-02T12:30:11Z</time>
      </trkpt>
      <trkpt lat="49.41093" lon="-1.16869">
        <ele>0.6</ele>
        <time>2022-06-02T12:30:12Z</time>
      </trkpt>
      <trkpt lat="49.41094" lon="-1.16868">
        <ele>0.6</ele>
        <time>2022-06-02T12:30:13Z</time>
      </trkpt>
      <trkpt lat="49.41093" lon="-1.16867">
        <ele>0.6</ele>
        <time>2022-06-02T12:30:14Z</time>
      </trkpt>
      <trkpt lat="49.41093" lon="-1.16866">
        <ele>0.6</ele>
        <time>2022-06-02T12:30:15Z</time>
      </trkpt>
      <trkpt lat="49.41091" lon="-1.16865">
        <ele>0.6</ele>
        <time>2022-06-02T12:30:16Z</time>
      </trkpt>
      <trkpt lat="49.4109" lon="-1.16865">
        <ele>0.6</ele>
        <time>2022-06-02T12:30:17Z</time>
      </trkpt>
      <trkpt lat="49.41089" lon="-1.16864">
        <ele>0.6</ele>
        <time>2022-06-02T12:30:18Z</time>
      </trkpt>
      <trkpt lat="49.41089" lon="-1.16864">
        <ele>0.6</ele>
        <time>2022-06-02T12:30:19Z</time>
      </trkpt>
      <trkpt lat="49.41088" lon="-1.16864">
        <ele>0.6</ele>
        <time>2022-06-02T12:30:21Z</time>
      </trkpt>
      <trkpt lat="49.41088" lon="-1.16863">
        <ele>0.6</ele>
        <time>2022-06-02T12:30:22Z</time>
      </trkpt>
      <trkpt lat="49.41087" lon="-1.16863">
        <ele>0.6</ele>
        <time>2022-06-02T12:30:23Z</time>
      </trkpt>
      <trkpt lat="49.41086" lon="-1.16863">
        <ele>0.6</ele>
        <time>2022-06-02T12:30:24Z</time>
      </trkpt>
      <trkpt lat="49.41085" lon="-1.16863">
        <ele>0.6</ele>
        <time>2022-06-02T12:30:25Z</time>
      </trkpt>
      <trkpt lat="49.41084" lon="-1.16862">
        <ele>0.6</ele>
        <time>2022-06-02T12:30:27Z</time>
      </trkpt>
      <trkpt lat="49.41083" lon="-1.16863">
        <ele>0.6</ele>
        <time>2022-06-02T12:30:28Z</time>
      </trkpt>
      <trkpt lat="49.41082" lon="-1.16863">
        <ele>0.6</ele>
        <time>2022-06-02T12:30:29Z</time>
      </trkpt>
      <trkpt lat="49.41082" lon="-1.16863">
        <ele>0.6</ele>
        <time>2022-06-02T12:30:30Z</time>
      </trkpt>
      <trkpt lat="49.41081" lon="-1.16862">
        <ele>0.6</ele>
        <time>2022-06-02T12:30:31Z</time>
      </trkpt>
      <trkpt lat="49.4108" lon="-1.16862">
        <ele>0.6</ele>
        <time>2022-06-02T12:30:33Z</time>
      </trkpt>
      <trkpt lat="49.41078" lon="-1.16861">
        <ele>0.6</ele>
        <time>2022-06-02T12:30:34Z</time>
      </trkpt>
      <trkpt lat="49.41078" lon="-1.16861">
        <ele>0.6</ele>
        <time>2022-06-02T12:30:35Z</time>
      </trkpt>
      <trkpt lat="49.41077" lon="-1.16861">
        <ele>0.6</ele>
        <time>2022-06-02T12:30:36Z</time>
      </trkpt>
      <trkpt lat="49.41076" lon="-1.1686">
        <ele>0.6</ele>
        <time>2022-06-02T12:30:38Z</time>
      </trkpt>
      <trkpt lat="49.41075" lon="-1.1686">
        <ele>0.6</ele>
        <time>2022-06-02T12:30:39Z</time>
      </trkpt>
      <trkpt lat="49.41075" lon="-1.1686">
        <ele>0.6</ele>
        <time>2022-06-02T12:30:40Z</time>
      </trkpt>
      <trkpt lat="49.41074" lon="-1.1686">
        <ele>0.6</ele>
        <time>2022-06-02T12:30:41Z</time>
      </trkpt>
      <trkpt lat="49.41073" lon="-1.1686">
        <ele>0.6</ele>
        <time>2022-06-02T12:30:42Z</time>
      </trkpt>
      <trkpt lat="49.41071" lon="-1.1686">
        <ele>0.6</ele>
        <time>2022-06-02T12:30:44Z</time>
      </trkpt>
      <trkpt lat="49.41071" lon="-1.16859">
        <ele>0.6</ele>
        <time>2022-06-02T12:30:45Z</time>
      </trkpt>
      <trkpt lat="49.4107" lon="-1.16859">
        <ele>0.6</ele>
        <time>2022-06-02T12:30:46Z</time>
      </trkpt>
      <trkpt lat="49.41069" lon="-1.16859">
        <ele>0.6</ele>
        <time>2022-06-02T12:30:47Z</time>
      </trkpt>
      <trkpt lat="49.41068" lon="-1.16859">
        <ele>0.6</ele>
        <time>2022-06-02T12:30:48Z</time>
      </trkpt>
      <trkpt lat="49.41066" lon="-1.16859">
        <ele>0.6</ele>
        <time>2022-06-02T12:30:50Z</time>
      </trkpt>
      <trkpt lat="49.41065" lon="-1.16861">
        <ele>0.6</ele>
        <time>2022-06-02T12:30:51Z</time>
      </trkpt>
      <trkpt lat="49.41063" lon="-1.16862">
        <ele>0.6</ele>
        <time>2022-06-02T12:30:52Z</time>
      </trkpt>
      <trkpt lat="49.41062" lon="-1.16862">
        <ele>0.6</ele>
        <time>2022-06-02T12:30:54Z</time>
      </trkpt>
      <trkpt lat="49.41061" lon="-1.16863">
        <ele>0.7</ele>
        <time>2022-06-02T12:30:55Z</time>
      </trkpt>
      <trkpt lat="49.4106" lon="-1.16863">
        <ele>0.7</ele>
        <time>2022-06-02T12:30:56Z</time>
      </trkpt>
      <trkpt lat="49.41059" lon="-1.16863">
        <ele>0.7</ele>
        <time>2022-06-02T12:30:57Z</time>
      </trkpt>
      <trkpt lat="49.41057" lon="-1.16862">
        <ele>0.7</ele>
        <time>2022-06-02T12:30:58Z</time>
      </trkpt>
      <trkpt lat="49.41056" lon="-1.16862">
        <ele>0.7</ele>
        <time>2022-06-02T12:30:59Z</time>
      </trkpt>
      <trkpt lat="49.41055" lon="-1.16861">
        <ele>0.7</ele>
        <time>2022-06-02T12:31:00Z</time>
      </trkpt>
      <trkpt lat="49.41054" lon="-1.16861">
        <ele>0.7</ele>
        <time>2022-06-02T12:31:02Z</time>
      </trkpt>
      <trkpt lat="49.41053" lon="-1.1686">
        <ele>0.7</ele>
        <time>2022-06-02T12:31:03Z</time>
      </trkpt>
      <trkpt lat="49.41053" lon="-1.16859">
        <ele>0.7</ele>
        <time>2022-06-02T12:31:04Z</time>
      </trkpt>
      <trkpt lat="49.41052" lon="-1.16858">
        <ele>0.7</ele>
        <time>2022-06-02T12:31:05Z</time>
      </trkpt>
      <trkpt lat="49.41051" lon="-1.16857">
        <ele>0.7</ele>
        <time>2022-06-02T12:31:06Z</time>
      </trkpt>
      <trkpt lat="49.41051" lon="-1.16856">
        <ele>0.7</ele>
        <time>2022-06-02T12:31:07Z</time>
      </trkpt>
      <trkpt lat="49.4105" lon="-1.16855">
        <ele>0.7</ele>
        <time>2022-06-02T12:31:08Z</time>
      </trkpt>
      <trkpt lat="49.41049" lon="-1.16855">
        <ele>0.7</ele>
        <time>2022-06-02T12:31:09Z</time>
      </trkpt>
      <trkpt lat="49.41049" lon="-1.16854">
        <ele>0.6</ele>
        <time>2022-06-02T12:31:10Z</time>
      </trkpt>
      <trkpt lat="49.41048" lon="-1.16853">
        <ele>0.6</ele>
        <time>2022-06-02T12:31:11Z</time>
      </trkpt>
      <trkpt lat="49.41047" lon="-1.16852">
        <ele>0.6</ele>
        <time>2022-06-02T12:31:12Z</time>
      </trkpt>
      <trkpt lat="49.41047" lon="-1.16852">
        <ele>0.6</ele>
        <time>2022-06-02T12:31:14Z</time>
      </trkpt>
      <trkpt lat="49.41046" lon="-1.16851">
        <ele>0.6</ele>
        <time>2022-06-02T12:31:15Z</time>
      </trkpt>
      <trkpt lat="49.41045" lon="-1.16851">
        <ele>0.6</ele>
        <time>2022-06-02T12:31:16Z</time>
      </trkpt>
      <trkpt lat="49.41044" lon="-1.16851">
        <ele>0.6</ele>
        <time>2022-06-02T12:31:17Z</time>
      </trkpt>
      <trkpt lat="49.41044" lon="-1.1685">
        <ele>0.6</ele>
        <time>2022-06-02T12:31:18Z</time>
      </trkpt>
      <trkpt lat="49.41043" lon="-1.1685">
        <ele>0.6</ele>
        <time>2022-06-02T12:31:20Z</time>
      </trkpt>
      <trkpt lat="49.41042" lon="-1.16849">
        <ele>0.6</ele>
        <time>2022-06-02T12:31:21Z</time>
      </trkpt>
      <trkpt lat="49.41041" lon="-1.16848">
        <ele>0.6</ele>
        <time>2022-06-02T12:31:22Z</time>
      </trkpt>
      <trkpt lat="49.4104" lon="-1.16848">
        <ele>0.6</ele>
        <time>2022-06-02T12:31:23Z</time>
      </trkpt>
      <trkpt lat="49.4104" lon="-1.16847">
        <ele>0.6</ele>
        <time>2022-06-02T12:31:24Z</time>
      </trkpt>
      <trkpt lat="49.41039" lon="-1.16846">
        <ele>0.6</ele>
        <time>2022-06-02T12:31:26Z</time>
      </trkpt>
      <trkpt lat="49.41038" lon="-1.16846">
        <ele>0.6</ele>
        <time>2022-06-02T12:31:27Z</time>
      </trkpt>
      <trkpt lat="49.41037" lon="-1.16845">
        <ele>0.6</ele>
        <time>2022-06-02T12:31:28Z</time>
      </trkpt>
      <trkpt lat="49.41036" lon="-1.16844">
        <ele>0.6</ele>
        <time>2022-06-02T12:31:29Z</time>
      </trkpt>
      <trkpt lat="49.41035" lon="-1.16843">
        <ele>0.6</ele>
        <time>2022-06-02T12:31:30Z</time>
      </trkpt>
      <trkpt lat="49.41034" lon="-1.16842">
        <ele>0.6</ele>
        <time>2022-06-02T12:31:32Z</time>
      </trkpt>
      <trkpt lat="49.41033" lon="-1.16841">
        <ele>0.6</ele>
        <time>2022-06-02T12:31:33Z</time>
      </trkpt>
      <trkpt lat="49.41032" lon="-1.16841">
        <ele>0.6</ele>
        <time>2022-06-02T12:31:34Z</time>
      </trkpt>
      <trkpt lat="49.41031" lon="-1.1684">
        <ele>0.6</ele>
        <time>2022-06-02T12:31:35Z</time>
      </trkpt>
      <trkpt lat="49.4103" lon="-1.16839">
        <ele>0.6</ele>
        <time>2022-06-02T12:31:36Z</time>
      </trkpt>
      <trkpt lat="49.41029" lon="-1.16838">
        <ele>0.7</ele>
        <time>2022-06-02T12:31:37Z</time>
      </trkpt>
      <trkpt lat="49.41029" lon="-1.16837">
        <ele>0.7</ele>
        <time>2022-06-02T12:31:39Z</time>
      </trkpt>
      <trkpt lat="49.41028" lon="-1.16837">
        <ele>0.7</ele>
        <time>2022-06-02T12:31:40Z</time>
      </trkpt>
      <trkpt lat="49.41027" lon="-1.16836">
        <ele>0.7</ele>
        <time>2022-06-02T12:31:41Z</time>
      </trkpt>
      <trkpt lat="49.41027" lon="-1.16835">
        <ele>0.7</ele>
        <time>2022-06-02T12:31:42Z</time>
      </trkpt>
      <trkpt lat="49.41026" lon="-1.16834">
        <ele>0.7</ele>
        <time>2022-06-02T12:31:43Z</time>
      </trkpt>
      <trkpt lat="49.41025" lon="-1.16834">
        <ele>0.7</ele>
        <time>2022-06-02T12:31:44Z</time>
      </trkpt>
      <trkpt lat="49.41024" lon="-1.16833">
        <ele>0.7</ele>
        <time>2022-06-02T12:31:46Z</time>
      </trkpt>
      <trkpt lat="49.41023" lon="-1.16832">
        <ele>0.7</ele>
        <time>2022-06-02T12:31:47Z</time>
      </trkpt>
      <trkpt lat="49.41022" lon="-1.16831">
        <ele>0.7</ele>
        <time>2022-06-02T12:31:48Z</time>
      </trkpt>
      <trkpt lat="49.41022" lon="-1.1683">
        <ele>0.7</ele>
        <time>2022-06-02T12:31:49Z</time>
      </trkpt>
      <trkpt lat="49.41021" lon="-1.1683">
        <ele>0.7</ele>
        <time>2022-06-02T12:31:50Z</time>
      </trkpt>
      <trkpt lat="49.4102" lon="-1.16829">
        <ele>0.7</ele>
        <time>2022-06-02T12:31:51Z</time>
      </trkpt>
      <trkpt lat="49.41019" lon="-1.16827">
        <ele>0.6</ele>
        <time>2022-06-02T12:31:53Z</time>
      </trkpt>
      <trkpt lat="49.41018" lon="-1.16827">
        <ele>0.6</ele>
        <time>2022-06-02T12:31:54Z</time>
      </trkpt>
      <trkpt lat="49.41017" lon="-1.16826">
        <ele>0.6</ele>
        <time>2022-06-02T12:31:55Z</time>
      </trkpt>
      <trkpt lat="49.41016" lon="-1.16825">
        <ele>0.6</ele>
        <time>2022-06-02T12:31:56Z</time>
      </trkpt>
      <trkpt lat="49.41015" lon="-1.16824">
        <ele>0.6</ele>
        <time>2022-06-02T12:31:57Z</time>
      </trkpt>
      <trkpt lat="49.41015" lon="-1.16823">
        <ele>0.6</ele>
        <time>2022-06-02T12:31:58Z</time>
      </trkpt>
      <trkpt lat="49.41014" lon="-1.16823">
        <ele>0.6</ele>
        <time>2022-06-02T12:32:00Z</time>
      </trkpt>
      <trkpt lat="49.41014" lon="-1.16822">
        <ele>0.6</ele>
        <time>2022-06-02T12:32:01Z</time>
      </trkpt>
      <trkpt lat="49.41012" lon="-1.16821">
        <ele>0.6</ele>
        <time>2022-06-02T12:32:02Z</time>
      </trkpt>
      <trkpt lat="49.41011" lon="-1.1682">
        <ele>0.6</ele>
        <time>2022-06-02T12:32:03Z</time>
      </trkpt>
      <trkpt lat="49.41011" lon="-1.1682">
        <ele>0.6</ele>
        <time>2022-06-02T12:32:04Z</time>
      </trkpt>
      <trkpt lat="49.41009" lon="-1.16818">
        <ele>0.6</ele>
        <time>2022-06-02T12:32:05Z</time>
      </trkpt>
      <trkpt lat="49.41008" lon="-1.16818">
        <ele>0.6</ele>
        <time>2022-06-02T12:32:06Z</time>
      </trkpt>
      <trkpt lat="49.41007" lon="-1.16817">
        <ele>0.6</ele>
        <time>2022-06-02T12:32:08Z</time>
      </trkpt>
      <trkpt lat="49.41007" lon="-1.16816">
        <ele>0.6</ele>
        <time>2022-06-02T12:32:09Z</time>
      </trkpt>
      <trkpt lat="49.41006" lon="-1.16816">
        <ele>0.6</ele>
        <time>2022-06-02T12:32:10Z</time>
      </trkpt>
      <trkpt lat="49.41004" lon="-1.16814">
        <ele>0.6</ele>
        <time>2022-06-02T12:32:11Z</time>
      </trkpt>
      <trkpt lat="49.41004" lon="-1.16813">
        <ele>0.6</ele>
        <time>2022-06-02T12:32:12Z</time>
      </trkpt>
      <trkpt lat="49.41003" lon="-1.16812">
        <ele>0.6</ele>
        <time>2022-06-02T12:32:13Z</time>
      </trkpt>
      <trkpt lat="49.41002" lon="-1.16811">
        <ele>0.6</ele>
        <time>2022-06-02T12:32:15Z</time>
      </trkpt>
      <trkpt lat="49.41001" lon="-1.1681">
        <ele>0.6</ele>
        <time>2022-06-02T12:32:16Z</time>
      </trkpt>
      <trkpt lat="49.41001" lon="-1.1681">
        <ele>0.6</ele>
        <time>2022-06-02T12:32:17Z</time>
      </trkpt>
      <trkpt lat="49.40999" lon="-1.16808">
        <ele>0.6</ele>
        <time>2022-06-02T12:32:18Z</time>
      </trkpt>
      <trkpt lat="49.40999" lon="-1.16808">
        <ele>0.6</ele>
        <time>2022-06-02T12:32:19Z</time>
      </trkpt>
      <trkpt lat="49.40998" lon="-1.16807">
        <ele>0.6</ele>
        <time>2022-06-02T12:32:20Z</time>
      </trkpt>
      <trkpt lat="49.40997" lon="-1.16807">
        <ele>0.6</ele>
        <time>2022-06-02T12:32:21Z</time>
      </trkpt>
      <trkpt lat="49.40997" lon="-1.16806">
        <ele>0.6</ele>
        <time>2022-06-02T12:32:22Z</time>
      </trkpt>
      <trkpt lat="49.40996" lon="-1.16805">
        <ele>0.6</ele>
        <time>2022-06-02T12:32:24Z</time>
      </trkpt>
      <trkpt lat="49.40995" lon="-1.16804">
        <ele>0.7</ele>
        <time>2022-06-02T12:32:25Z</time>
      </trkpt>
      <trkpt lat="49.40993" lon="-1.16803">
        <ele>0.7</ele>
        <time>2022-06-02T12:32:26Z</time>
      </trkpt>
      <trkpt lat="49.40993" lon="-1.16803">
        <ele>0.7</ele>
        <time>2022-06-02T12:32:27Z</time>
      </trkpt>
      <trkpt lat="49.40992" lon="-1.16802">
        <ele>0.7</ele>
        <time>2022-06-02T12:32:28Z</time>
      </trkpt>
      <trkpt lat="49.40991" lon="-1.16801">
        <ele>0.7</ele>
        <time>2022-06-02T12:32:29Z</time>
      </trkpt>
      <trkpt lat="49.4099" lon="-1.168">
        <ele>0.7</ele>
        <time>2022-06-02T12:32:31Z</time>
      </trkpt>
      <trkpt lat="49.40989" lon="-1.168">
        <ele>0.7</ele>
        <time>2022-06-02T12:32:32Z</time>
      </trkpt>
      <trkpt lat="49.40988" lon="-1.168">
        <ele>0.7</ele>
        <time>2022-06-02T12:32:33Z</time>
      </trkpt>
      <trkpt lat="49.40987" lon="-1.16799">
        <ele>0.7</ele>
        <time>2022-06-02T12:32:34Z</time>
      </trkpt>
      <trkpt lat="49.40986" lon="-1.16797">
        <ele>0.7</ele>
        <time>2022-06-02T12:32:36Z</time>
      </trkpt>
      <trkpt lat="49.40985" lon="-1.16797">
        <ele>0.7</ele>
        <time>2022-06-02T12:32:37Z</time>
      </trkpt>
      <trkpt lat="49.40984" lon="-1.16796">
        <ele>0.8</ele>
        <time>2022-06-02T12:32:38Z</time>
      </trkpt>
      <trkpt lat="49.40983" lon="-1.16795">
        <ele>0.8</ele>
        <time>2022-06-02T12:32:39Z</time>
      </trkpt>
      <trkpt lat="49.40982" lon="-1.16794">
        <ele>0.8</ele>
        <time>2022-06-02T12:32:41Z</time>
      </trkpt>
      <trkpt lat="49.40982" lon="-1.16793">
        <ele>0.8</ele>
        <time>2022-06-02T12:32:42Z</time>
      </trkpt>
      <trkpt lat="49.40981" lon="-1.16792">
        <ele>0.8</ele>
        <time>2022-06-02T12:32:43Z</time>
      </trkpt>
      <trkpt lat="49.4098" lon="-1.16791">
        <ele>0.8</ele>
        <time>2022-06-02T12:32:44Z</time>
      </trkpt>
      <trkpt lat="49.40979" lon="-1.1679">
        <ele>0.8</ele>
        <time>2022-06-02T12:32:45Z</time>
      </trkpt>
      <trkpt lat="49.40978" lon="-1.16789">
        <ele>0.8</ele>
        <time>2022-06-02T12:32:46Z</time>
      </trkpt>
      <trkpt lat="49.40977" lon="-1.16788">
        <ele>0.8</ele>
        <time>2022-06-02T12:32:48Z</time>
      </trkpt>
      <trkpt lat="49.40976" lon="-1.16788">
        <ele>0.8</ele>
        <time>2022-06-02T12:32:49Z</time>
      </trkpt>
      <trkpt lat="49.40975" lon="-1.16787">
        <ele>0.8</ele>
        <time>2022-06-02T12:32:50Z</time>
      </trkpt>
      <trkpt lat="49.40974" lon="-1.16786">
        <ele>0.8</ele>
        <time>2022-06-02T12:32:51Z</time>
      </trkpt>
      <trkpt lat="49.40973" lon="-1.16786">
        <ele>0.8</ele>
        <time>2022-06-02T12:32:52Z</time>
      </trkpt>
      <trkpt lat="49.40972" lon="-1.16785">
        <ele>0.8</ele>
        <time>2022-06-02T12:32:54Z</time>
      </trkpt>
      <trkpt lat="49.40971" lon="-1.16785">
        <ele>0.8</ele>
        <time>2022-06-02T12:32:55Z</time>
      </trkpt>
      <trkpt lat="49.4097" lon="-1.16784">
        <ele>0.9</ele>
        <time>2022-06-02T12:32:56Z</time>
      </trkpt>
      <trkpt lat="49.40969" lon="-1.16783">
        <ele>0.9</ele>
        <time>2022-06-02T12:32:57Z</time>
      </trkpt>
      <trkpt lat="49.40968" lon="-1.16782">
        <ele>0.8</ele>
        <time>2022-06-02T12:32:58Z</time>
      </trkpt>
      <trkpt lat="49.40967" lon="-1.16781">
        <ele>0.8</ele>
        <time>2022-06-02T12:32:59Z</time>
      </trkpt>
      <trkpt lat="49.40966" lon="-1.1678">
        <ele>0.9</ele>
        <time>2022-06-02T12:33:01Z</time>
      </trkpt>
      <trkpt lat="49.40966" lon="-1.16779">
        <ele>0.9</ele>
        <time>2022-06-02T12:33:02Z</time>
      </trkpt>
      <trkpt lat="49.40965" lon="-1.16778">
        <ele>0.9</ele>
        <time>2022-06-02T12:33:03Z</time>
      </trkpt>
      <trkpt lat="49.40964" lon="-1.16777">
        <ele>0.9</ele>
        <time>2022-06-02T12:33:04Z</time>
      </trkpt>
      <trkpt lat="49.40962" lon="-1.16775">
        <ele>0.9</ele>
        <time>2022-06-02T12:33:06Z</time>
      </trkpt>
      <trkpt lat="49.40962" lon="-1.16775">
        <ele>0.9</ele>
        <time>2022-06-02T12:33:07Z</time>
      </trkpt>
      <trkpt lat="49.4096" lon="-1.16773">
        <ele>0.9</ele>
        <time>2022-06-02T12:33:08Z</time>
      </trkpt>
      <trkpt lat="49.40959" lon="-1.16772">
        <ele>0.9</ele>
        <time>2022-06-02T12:33:10Z</time>
      </trkpt>
      <trkpt lat="49.40958" lon="-1.16772">
        <ele>1</ele>
        <time>2022-06-02T12:33:11Z</time>
      </trkpt>
      <trkpt lat="49.40956" lon="-1.1677">
        <ele>1</ele>
        <time>2022-06-02T12:33:12Z</time>
      </trkpt>
      <trkpt lat="49.40956" lon="-1.16769">
        <ele>1</ele>
        <time>2022-06-02T12:33:13Z</time>
      </trkpt>
      <trkpt lat="49.40955" lon="-1.16769">
        <ele>1</ele>
        <time>2022-06-02T12:33:14Z</time>
      </trkpt>
      <trkpt lat="49.40954" lon="-1.16768">
        <ele>1</ele>
        <time>2022-06-02T12:33:15Z</time>
      </trkpt>
      <trkpt lat="49.40953" lon="-1.16767">
        <ele>1</ele>
        <time>2022-06-02T12:33:16Z</time>
      </trkpt>
      <trkpt lat="49.40952" lon="-1.16767">
        <ele>1.1</ele>
        <time>2022-06-02T12:33:17Z</time>
      </trkpt>
      <trkpt lat="49.40951" lon="-1.16766">
        <ele>1.1</ele>
        <time>2022-06-02T12:33:18Z</time>
      </trkpt>
      <trkpt lat="49.4095" lon="-1.16765">
        <ele>1.1</ele>
        <time>2022-06-02T12:33:20Z</time>
      </trkpt>
      <trkpt lat="49.40949" lon="-1.16764">
        <ele>1.1</ele>
        <time>2022-06-02T12:33:21Z</time>
      </trkpt>
      <trkpt lat="49.40948" lon="-1.16763">
        <ele>1</ele>
        <time>2022-06-02T12:33:22Z</time>
      </trkpt>
      <trkpt lat="49.40947" lon="-1.16762">
        <ele>1</ele>
        <time>2022-06-02T12:33:23Z</time>
      </trkpt>
      <trkpt lat="49.40947" lon="-1.16762">
        <ele>1</ele>
        <time>2022-06-02T12:33:24Z</time>
      </trkpt>
      <trkpt lat="49.40945" lon="-1.16761">
        <ele>1.1</ele>
        <time>2022-06-02T12:33:25Z</time>
      </trkpt>
      <trkpt lat="49.40945" lon="-1.1676">
        <ele>1.1</ele>
        <time>2022-06-02T12:33:26Z</time>
      </trkpt>
      <trkpt lat="49.40944" lon="-1.1676">
        <ele>1.1</ele>
        <time>2022-06-02T12:33:27Z</time>
      </trkpt>
      <trkpt lat="49.40943" lon="-1.1676">
        <ele>1.1</ele>
        <time>2022-06-02T12:33:28Z</time>
      </trkpt>
      <trkpt lat="49.40942" lon="-1.16759">
        <ele>1.1</ele>
        <time>2022-06-02T12:33:30Z</time>
      </trkpt>
      <trkpt lat="49.40941" lon="-1.16759">
        <ele>1.1</ele>
        <time>2022-06-02T12:33:31Z</time>
      </trkpt>
      <trkpt lat="49.4094" lon="-1.16758">
        <ele>1.1</ele>
        <time>2022-06-02T12:33:32Z</time>
      </trkpt>
      <trkpt lat="49.40939" lon="-1.16758">
        <ele>1.1</ele>
        <time>2022-06-02T12:33:33Z</time>
      </trkpt>
      <trkpt lat="49.40938" lon="-1.16757">
        <ele>1.1</ele>
        <time>2022-06-02T12:33:34Z</time>
      </trkpt>
      <trkpt lat="49.40937" lon="-1.16757">
        <ele>1.1</ele>
        <time>2022-06-02T12:33:35Z</time>
      </trkpt>
      <trkpt lat="49.40936" lon="-1.16756">
        <ele>1.1</ele>
        <time>2022-06-02T12:33:36Z</time>
      </trkpt>
      <trkpt lat="49.40935" lon="-1.16755">
        <ele>1.1</ele>
        <time>2022-06-02T12:33:38Z</time>
      </trkpt>
      <trkpt lat="49.40935" lon="-1.16754">
        <ele>1.2</ele>
        <time>2022-06-02T12:33:39Z</time>
      </trkpt>
      <trkpt lat="49.40934" lon="-1.16754">
        <ele>1.2</ele>
        <time>2022-06-02T12:33:40Z</time>
      </trkpt>
      <trkpt lat="49.40933" lon="-1.16753">
        <ele>1.2</ele>
        <time>2022-06-02T12:33:41Z</time>
      </trkpt>
      <trkpt lat="49.40931" lon="-1.16753">
        <ele>1.2</ele>
        <time>2022-06-02T12:33:42Z</time>
      </trkpt>
      <trkpt lat="49.40931" lon="-1.16752">
        <ele>1.2</ele>
        <time>2022-06-02T12:33:44Z</time>
      </trkpt>
      <trkpt lat="49.4093" lon="-1.16752">
        <ele>1.2</ele>
        <time>2022-06-02T12:33:45Z</time>
      </trkpt>
      <trkpt lat="49.40929" lon="-1.16751">
        <ele>1.3</ele>
        <time>2022-06-02T12:33:46Z</time>
      </trkpt>
      <trkpt lat="49.40928" lon="-1.1675">
        <ele>1.3</ele>
        <time>2022-06-02T12:33:47Z</time>
      </trkpt>
      <trkpt lat="49.40927" lon="-1.16749">
        <ele>1.3</ele>
        <time>2022-06-02T12:33:48Z</time>
      </trkpt>
      <trkpt lat="49.40926" lon="-1.16748">
        <ele>1.3</ele>
        <time>2022-06-02T12:33:49Z</time>
      </trkpt>
      <trkpt lat="49.40925" lon="-1.16747">
        <ele>1.3</ele>
        <time>2022-06-02T12:33:51Z</time>
      </trkpt>
      <trkpt lat="49.40924" lon="-1.16747">
        <ele>1.3</ele>
        <time>2022-06-02T12:33:52Z</time>
      </trkpt>
      <trkpt lat="49.40923" lon="-1.16745">
        <ele>1.3</ele>
        <time>2022-06-02T12:33:53Z</time>
      </trkpt>
      <trkpt lat="49.40922" lon="-1.16745">
        <ele>1.3</ele>
        <time>2022-06-02T12:33:54Z</time>
      </trkpt>
      <trkpt lat="49.40921" lon="-1.16744">
        <ele>1.4</ele>
        <time>2022-06-02T12:33:55Z</time>
      </trkpt>
      <trkpt lat="49.4092" lon="-1.16743">
        <ele>1.4</ele>
        <time>2022-06-02T12:33:56Z</time>
      </trkpt>
      <trkpt lat="49.40919" lon="-1.16742">
        <ele>1.4</ele>
        <time>2022-06-02T12:33:58Z</time>
      </trkpt>
      <trkpt lat="49.40918" lon="-1.16741">
        <ele>1.4</ele>
        <time>2022-06-02T12:33:59Z</time>
      </trkpt>
      <trkpt lat="49.40917" lon="-1.16741">
        <ele>1.4</ele>
        <time>2022-06-02T12:34:00Z</time>
      </trkpt>
      <trkpt lat="49.40916" lon="-1.16741">
        <ele>1.4</ele>
        <time>2022-06-02T12:34:01Z</time>
      </trkpt>
      <trkpt lat="49.40915" lon="-1.1674">
        <ele>1.4</ele>
        <time>2022-06-02T12:34:02Z</time>
      </trkpt>
      <trkpt lat="49.40913" lon="-1.1674">
        <ele>1.4</ele>
        <time>2022-06-02T12:34:03Z</time>
      </trkpt>
      <trkpt lat="49.40912" lon="-1.16739">
        <ele>1.4</ele>
        <time>2022-06-02T12:34:05Z</time>
      </trkpt>
      <trkpt lat="49.40912" lon="-1.16739">
        <ele>1.4</ele>
        <time>2022-06-02T12:34:06Z</time>
      </trkpt>
      <trkpt lat="49.40911" lon="-1.16738">
        <ele>1.3</ele>
        <time>2022-06-02T12:34:07Z</time>
      </trkpt>
      <trkpt lat="49.4091" lon="-1.16737">
        <ele>1.4</ele>
        <time>2022-06-02T12:34:08Z</time>
      </trkpt>
      <trkpt lat="49.40909" lon="-1.16736">
        <ele>1.4</ele>
        <time>2022-06-02T12:34:09Z</time>
      </trkpt>
      <trkpt lat="49.40908" lon="-1.16735">
        <ele>1.4</ele>
        <time>2022-06-02T12:34:10Z</time>
      </trkpt>
      <trkpt lat="49.40907" lon="-1.16734">
        <ele>1.4</ele>
        <time>2022-06-02T12:34:11Z</time>
      </trkpt>
      <trkpt lat="49.40906" lon="-1.16734">
        <ele>1.4</ele>
        <time>2022-06-02T12:34:13Z</time>
      </trkpt>
      <trkpt lat="49.40905" lon="-1.16733">
        <ele>1.4</ele>
        <time>2022-06-02T12:34:14Z</time>
      </trkpt>
      <trkpt lat="49.40905" lon="-1.16732">
        <ele>1.4</ele>
        <time>2022-06-02T12:34:15Z</time>
      </trkpt>
      <trkpt lat="49.40903" lon="-1.16732">
        <ele>1.4</ele>
        <time>2022-06-02T12:34:16Z</time>
      </trkpt>
      <trkpt lat="49.40902" lon="-1.16731">
        <ele>1.4</ele>
        <time>2022-06-02T12:34:17Z</time>
      </trkpt>
      <trkpt lat="49.40901" lon="-1.16731">
        <ele>1.4</ele>
        <time>2022-06-02T12:34:18Z</time>
      </trkpt>
      <trkpt lat="49.409" lon="-1.16731">
        <ele>1.4</ele>
        <time>2022-06-02T12:34:19Z</time>
      </trkpt>
      <trkpt lat="49.40899" lon="-1.1673">
        <ele>1.4</ele>
        <time>2022-06-02T12:34:21Z</time>
      </trkpt>
      <trkpt lat="49.40898" lon="-1.16729">
        <ele>1.4</ele>
        <time>2022-06-02T12:34:22Z</time>
      </trkpt>
      <trkpt lat="49.40897" lon="-1.16728">
        <ele>1.4</ele>
        <time>2022-06-02T12:34:23Z</time>
      </trkpt>
      <trkpt lat="49.40896" lon="-1.16728">
        <ele>1.4</ele>
        <time>2022-06-02T12:34:24Z</time>
      </trkpt>
      <trkpt lat="49.40896" lon="-1.16727">
        <ele>1.4</ele>
        <time>2022-06-02T12:34:25Z</time>
      </trkpt>
      <trkpt lat="49.40895" lon="-1.16726">
        <ele>1.4</ele>
        <time>2022-06-02T12:34:26Z</time>
      </trkpt>
      <trkpt lat="49.40893" lon="-1.16724">
        <ele>1.5</ele>
        <time>2022-06-02T12:34:27Z</time>
      </trkpt>
      <trkpt lat="49.40893" lon="-1.16724">
        <ele>1.5</ele>
        <time>2022-06-02T12:34:29Z</time>
      </trkpt>
      <trkpt lat="49.40892" lon="-1.16723">
        <ele>1.5</ele>
        <time>2022-06-02T12:34:30Z</time>
      </trkpt>
      <trkpt lat="49.40891" lon="-1.16721">
        <ele>1.5</ele>
        <time>2022-06-02T12:34:31Z</time>
      </trkpt>
      <trkpt lat="49.4089" lon="-1.1672">
        <ele>1.5</ele>
        <time>2022-06-02T12:34:32Z</time>
      </trkpt>
      <trkpt lat="49.40889" lon="-1.16719">
        <ele>1.5</ele>
        <time>2022-06-02T12:34:33Z</time>
      </trkpt>
      <trkpt lat="49.40888" lon="-1.16718">
        <ele>1.5</ele>
        <time>2022-06-02T12:34:34Z</time>
      </trkpt>
      <trkpt lat="49.40887" lon="-1.16716">
        <ele>1.5</ele>
        <time>2022-06-02T12:34:35Z</time>
      </trkpt>
      <trkpt lat="49.40886" lon="-1.16715">
        <ele>1.5</ele>
        <time>2022-06-02T12:34:37Z</time>
      </trkpt>
      <trkpt lat="49.40885" lon="-1.16714">
        <ele>1.5</ele>
        <time>2022-06-02T12:34:38Z</time>
      </trkpt>
      <trkpt lat="49.40884" lon="-1.16713">
        <ele>1.5</ele>
        <time>2022-06-02T12:34:39Z</time>
      </trkpt>
      <trkpt lat="49.40884" lon="-1.16712">
        <ele>1.5</ele>
        <time>2022-06-02T12:34:40Z</time>
      </trkpt>
      <trkpt lat="49.40883" lon="-1.16711">
        <ele>1.5</ele>
        <time>2022-06-02T12:34:41Z</time>
      </trkpt>
      <trkpt lat="49.40882" lon="-1.1671">
        <ele>1.5</ele>
        <time>2022-06-02T12:34:42Z</time>
      </trkpt>
      <trkpt lat="49.40882" lon="-1.16709">
        <ele>1.5</ele>
        <time>2022-06-02T12:34:44Z</time>
      </trkpt>
      <trkpt lat="49.40881" lon="-1.16708">
        <ele>1.4</ele>
        <time>2022-06-02T12:34:45Z</time>
      </trkpt>
      <trkpt lat="49.4088" lon="-1.16707">
        <ele>1.4</ele>
        <time>2022-06-02T12:34:46Z</time>
      </trkpt>
      <trkpt lat="49.4088" lon="-1.16707">
        <ele>1.5</ele>
        <time>2022-06-02T12:34:47Z</time>
      </trkpt>
      <trkpt lat="49.40879" lon="-1.16707">
        <ele>1.5</ele>
        <time>2022-06-02T12:34:48Z</time>
      </trkpt>
      <trkpt lat="49.40878" lon="-1.16708">
        <ele>1.5</ele>
        <time>2022-06-02T12:34:49Z</time>
      </trkpt>
      <trkpt lat="49.40878" lon="-1.16709">
        <ele>1.5</ele>
        <time>2022-06-02T12:34:50Z</time>
      </trkpt>
      <trkpt lat="49.40878" lon="-1.1671">
        <ele>1.5</ele>
        <time>2022-06-02T12:34:51Z</time>
      </trkpt>
      <trkpt lat="49.40878" lon="-1.1671">
        <ele>1.5</ele>
        <time>2022-06-02T12:34:52Z</time>
      </trkpt>
      <trkpt lat="49.40878" lon="-1.16711">
        <ele>1.5</ele>
        <time>2022-06-02T12:34:53Z</time>
      </trkpt>
      <trkpt lat="49.40878" lon="-1.16711">
        <ele>1.5</ele>
        <time>2022-06-02T12:34:54Z</time>
      </trkpt>
      <trkpt lat="49.40878" lon="-1.16711">
        <ele>1.5</ele>
        <time>2022-06-02T12:34:55Z</time>
      </trkpt>
      <trkpt lat="49.40879" lon="-1.16712">
        <ele>1.5</ele>
        <time>2022-06-02T12:34:56Z</time>
      </trkpt>
      <trkpt lat="49.40879" lon="-1.16712">
        <ele>1.5</ele>
        <time>2022-06-02T12:34:57Z</time>
      </trkpt>
      <trkpt lat="49.40879" lon="-1.16712">
        <ele>1.5</ele>
        <time>2022-06-02T12:34:58Z</time>
      </trkpt>
      <trkpt lat="49.40879" lon="-1.16712">
        <ele>1.5</ele>
        <time>2022-06-02T12:34:59Z</time>
      </trkpt>
      <trkpt lat="49.40879" lon="-1.16712">
        <ele>1.5</ele>
        <time>2022-06-02T12:35:00Z</time>
      </trkpt>
      <trkpt lat="49.40879" lon="-1.16712">
        <ele>1.5</ele>
        <time>2022-06-02T12:35:01Z</time>
      </trkpt>
      <trkpt lat="49.40879" lon="-1.16712">
        <ele>1.5</ele>
        <time>2022-06-02T12:35:02Z</time>
      </trkpt>
      <trkpt lat="49.40879" lon="-1.16712">
        <ele>1.5</ele>
        <time>2022-06-02T12:35:03Z</time>
      </trkpt>
      <trkpt lat="49.40879" lon="-1.16712">
        <ele>1.5</ele>
        <time>2022-06-02T12:35:04Z</time>
      </trkpt>
      <trkpt lat="49.40879" lon="-1.16712">
        <ele>1.5</ele>
        <time>2022-06-02T12:35:05Z</time>
      </trkpt>
      <trkpt lat="49.4088" lon="-1.16712">
        <ele>1.5</ele>
        <time>2022-06-02T12:35:06Z</time>
      </trkpt>
      <trkpt lat="49.4088" lon="-1.16712">
        <ele>1.5</ele>
        <time>2022-06-02T12:35:07Z</time>
      </trkpt>
      <trkpt lat="49.4088" lon="-1.16712">
        <ele>1.5</ele>
        <time>2022-06-02T12:35:08Z</time>
      </trkpt>
      <trkpt lat="49.4088" lon="-1.16712">
        <ele>1.5</ele>
        <time>2022-06-02T12:35:09Z</time>
      </trkpt>
      <trkpt lat="49.4088" lon="-1.16712">
        <ele>1.5</ele>
        <time>2022-06-02T12:35:10Z</time>
      </trkpt>
      <trkpt lat="49.4088" lon="-1.16712">
        <ele>1.5</ele>
        <time>2022-06-02T12:35:11Z</time>
      </trkpt>
      <trkpt lat="49.4088" lon="-1.16712">
        <ele>1.5</ele>
        <time>2022-06-02T12:35:12Z</time>
      </trkpt>
      <trkpt lat="49.4088" lon="-1.16712">
        <ele>1.5</ele>
        <time>2022-06-02T12:35:13Z</time>
      </trkpt>
      <trkpt lat="49.4088" lon="-1.16712">
        <ele>1.5</ele>
        <time>2022-06-02T12:35:14Z</time>
      </trkpt>
      <trkpt lat="49.4088" lon="-1.16712">
        <ele>1.5</ele>
        <time>2022-06-02T12:35:15Z</time>
      </trkpt>
      <trkpt lat="49.4088" lon="-1.16712">
        <ele>1.5</ele>
        <time>2022-06-02T12:35:16Z</time>
      </trkpt>
      <trkpt lat="49.4088" lon="-1.16712">
        <ele>1.5</ele>
        <time>2022-06-02T12:35:17Z</time>
      </trkpt>
      <trkpt lat="49.4088" lon="-1.16712">
        <ele>1.5</ele>
        <time>2022-06-02T12:35:18Z</time>
      </trkpt>
      <trkpt lat="49.4088" lon="-1.16712">
        <ele>1.5</ele>
        <time>2022-06-02T12:35:19Z</time>
      </trkpt>
      <trkpt lat="49.4088" lon="-1.16712">
        <ele>1.5</ele>
        <time>2022-06-02T12:35:20Z</time>
      </trkpt>
      <trkpt lat="49.4088" lon="-1.16712">
        <ele>1.5</ele>
        <time>2022-06-02T12:35:21Z</time>
      </trkpt>
      <trkpt lat="49.4088" lon="-1.16712">
        <ele>1.5</ele>
        <time>2022-06-02T12:35:22Z</time>
      </trkpt>
      <trkpt lat="49.4088" lon="-1.16712">
        <ele>1.5</ele>
        <time>2022-06-02T12:35:23Z</time>
      </trkpt>
      <trkpt lat="49.4088" lon="-1.16712">
        <ele>1.5</ele>
        <time>2022-06-02T12:35:24Z</time>
      </trkpt>
      <trkpt lat="49.4088" lon="-1.16712">
        <ele>1.5</ele>
        <time>2022-06-02T12:35:25Z</time>
      </trkpt>
      <trkpt lat="49.4088" lon="-1.16712">
        <ele>1.5</ele>
        <time>2022-06-02T12:35:26Z</time>
      </trkpt>
      <trkpt lat="49.4088" lon="-1.16712">
        <ele>1.5</ele>
        <time>2022-06-02T12:35:27Z</time>
      </trkpt>
      <trkpt lat="49.4088" lon="-1.16712">
        <ele>1.5</ele>
        <time>2022-06-02T12:35:28Z</time>
      </trkpt>
      <trkpt lat="49.4088" lon="-1.16712">
        <ele>1.5</ele>
        <time>2022-06-02T12:35:29Z</time>
      </trkpt>
      <trkpt lat="49.4088" lon="-1.16712">
        <ele>1.5</ele>
        <time>2022-06-02T12:35:30Z</time>
      </trkpt>
      <trkpt lat="49.4088" lon="-1.16712">
        <ele>1.5</ele>
        <time>2022-06-02T12:35:31Z</time>
      </trkpt>
      <trkpt lat="49.4088" lon="-1.16712">
        <ele>1.5</ele>
        <time>2022-06-02T12:35:32Z</time>
      </trkpt>
      <trkpt lat="49.4088" lon="-1.16712">
        <ele>1.5</ele>
        <time>2022-06-02T12:35:33Z</time>
      </trkpt>
      <trkpt lat="49.4088" lon="-1.16712">
        <ele>1.5</ele>
        <time>2022-06-02T12:35:34Z</time>
      </trkpt>
      <trkpt lat="49.4088" lon="-1.16712">
        <ele>1.5</ele>
        <time>2022-06-02T12:35:35Z</time>
      </trkpt>
      <trkpt lat="49.4088" lon="-1.16712">
        <ele>1.5</ele>
        <time>2022-06-02T12:35:36Z</time>
      </trkpt>
      <trkpt lat="49.4088" lon="-1.16712">
        <ele>1.5</ele>
        <time>2022-06-02T12:35:37Z</time>
      </trkpt>
      <trkpt lat="49.4088" lon="-1.16712">
        <ele>1.5</ele>
        <time>2022-06-02T12:35:38Z</time>
      </trkpt>
      <trkpt lat="49.4088" lon="-1.16712">
        <ele>1.5</ele>
        <time>2022-06-02T12:35:39Z</time>
      </trkpt>
      <trkpt lat="49.4088" lon="-1.16712">
        <ele>1.5</ele>
        <time>2022-06-02T12:35:40Z</time>
      </trkpt>
      <trkpt lat="49.4088" lon="-1.16712">
        <ele>1.5</ele>
        <time>2022-06-02T12:35:41Z</time>
      </trkpt>
      <trkpt lat="49.4088" lon="-1.16712">
        <ele>1.5</ele>
        <time>2022-06-02T12:35:42Z</time>
      </trkpt>
      <trkpt lat="49.4088" lon="-1.16712">
        <ele>1.5</ele>
        <time>2022-06-02T12:35:43Z</time>
      </trkpt>
      <trkpt lat="49.4088" lon="-1.16712">
        <ele>1.5</ele>
        <time>2022-06-02T12:35:44Z</time>
      </trkpt>
      <trkpt lat="49.4088" lon="-1.16712">
        <ele>1.5</ele>
        <time>2022-06-02T12:35:45Z</time>
      </trkpt>
      <trkpt lat="49.4088" lon="-1.16712">
        <ele>1.5</ele>
        <time>2022-06-02T12:35:46Z</time>
      </trkpt>
      <trkpt lat="49.4088" lon="-1.16712">
        <ele>1.5</ele>
        <time>2022-06-02T12:35:47Z</time>
      </trkpt>
      <trkpt lat="49.4088" lon="-1.16712">
        <ele>1.5</ele>
        <time>2022-06-02T12:35:48Z</time>
      </trkpt>
      <trkpt lat="49.4088" lon="-1.16711">
        <ele>1.5</ele>
        <time>2022-06-02T12:35:49Z</time>
      </trkpt>
      <trkpt lat="49.4088" lon="-1.16711">
        <ele>1.5</ele>
        <time>2022-06-02T12:35:50Z</time>
      </trkpt>
      <trkpt lat="49.4088" lon="-1.16711">
        <ele>1.5</ele>
        <time>2022-06-02T12:35:51Z</time>
      </trkpt>
      <trkpt lat="49.40879" lon="-1.16713">
        <ele>1.5</ele>
        <time>2022-06-02T12:35:52Z</time>
      </trkpt>
      <trkpt lat="49.40878" lon="-1.16714">
        <ele>1.5</ele>
        <time>2022-06-02T12:35:53Z</time>
      </trkpt>
      <trkpt lat="49.40878" lon="-1.16714">
        <ele>1.5</ele>
        <time>2022-06-02T12:35:54Z</time>
      </trkpt>
      <trkpt lat="49.40878" lon="-1.16716">
        <ele>1.5</ele>
        <time>2022-06-02T12:35:55Z</time>
      </trkpt>
      <trkpt lat="49.40877" lon="-1.16717">
        <ele>1.5</ele>
        <time>2022-06-02T12:35:57Z</time>
      </trkpt>
      <trkpt lat="49.40876" lon="-1.16718">
        <ele>1.5</ele>
        <time>2022-06-02T12:35:58Z</time>
      </trkpt>
      <trkpt lat="49.40876" lon="-1.16719">
        <ele>1.5</ele>
        <time>2022-06-02T12:35:59Z</time>
      </trkpt>
      <trkpt lat="49.40874" lon="-1.16719">
        <ele>1.5</ele>
        <time>2022-06-02T12:36:00Z</time>
      </trkpt>
      <trkpt lat="49.40873" lon="-1.16719">
        <ele>1.5</ele>
        <time>2022-06-02T12:36:02Z</time>
      </trkpt>
      <trkpt lat="49.40872" lon="-1.1672">
        <ele>1.5</ele>
        <time>2022-06-02T12:36:03Z</time>
      </trkpt>
      <trkpt lat="49.40872" lon="-1.1672">
        <ele>1.5</ele>
        <time>2022-06-02T12:36:04Z</time>
      </trkpt>
      <trkpt lat="49.40871" lon="-1.16721">
        <ele>1.5</ele>
        <time>2022-06-02T12:36:05Z</time>
      </trkpt>
      <trkpt lat="49.4087" lon="-1.16722">
        <ele>1.6</ele>
        <time>2022-06-02T12:36:07Z</time>
      </trkpt>
      <trkpt lat="49.40869" lon="-1.16723">
        <ele>1.6</ele>
        <time>2022-06-02T12:36:08Z</time>
      </trkpt>
      <trkpt lat="49.40868" lon="-1.16723">
        <ele>1.6</ele>
        <time>2022-06-02T12:36:09Z</time>
      </trkpt>
      <trkpt lat="49.40868" lon="-1.16724">
        <ele>1.6</ele>
        <time>2022-06-02T12:36:11Z</time>
      </trkpt>
      <trkpt lat="49.40867" lon="-1.16724">
        <ele>1.6</ele>
        <time>2022-06-02T12:36:12Z</time>
      </trkpt>
      <trkpt lat="49.40867" lon="-1.16724">
        <ele>1.6</ele>
        <time>2022-06-02T12:36:13Z</time>
      </trkpt>
      <trkpt lat="49.40867" lon="-1.16724">
        <ele>1.6</ele>
        <time>2022-06-02T12:36:14Z</time>
      </trkpt>
      <trkpt lat="49.40867" lon="-1.16723">
        <ele>1.6</ele>
        <time>2022-06-02T12:36:15Z</time>
      </trkpt>
      <trkpt lat="49.40867" lon="-1.16723">
        <ele>1.6</ele>
        <time>2022-06-02T12:36:16Z</time>
      </trkpt>
      <trkpt lat="49.40867" lon="-1.16723">
        <ele>1.6</ele>
        <time>2022-06-02T12:36:18Z</time>
      </trkpt>
      <trkpt lat="49.40867" lon="-1.16722">
        <ele>1.6</ele>
        <time>2022-06-02T12:36:19Z</time>
      </trkpt>
      <trkpt lat="49.40868" lon="-1.16722">
        <ele>1.6</ele>
        <time>2022-06-02T12:36:21Z</time>
      </trkpt>
      <trkpt lat="49.40868" lon="-1.16723">
        <ele>1.6</ele>
        <time>2022-06-02T12:36:22Z</time>
      </trkpt>
      <trkpt lat="49.40868" lon="-1.16723">
        <ele>1.6</ele>
        <time>2022-06-02T12:36:24Z</time>
      </trkpt>
      <trkpt lat="49.40867" lon="-1.16724">
        <ele>1.6</ele>
        <time>2022-06-02T12:36:25Z</time>
      </trkpt>
      <trkpt lat="49.40867" lon="-1.16725">
        <ele>1.6</ele>
        <time>2022-06-02T12:36:26Z</time>
      </trkpt>
      <trkpt lat="49.40866" lon="-1.16727">
        <ele>1.6</ele>
        <time>2022-06-02T12:36:27Z</time>
      </trkpt>
      <trkpt lat="49.40866" lon="-1.16728">
        <ele>1.6</ele>
        <time>2022-06-02T12:36:29Z</time>
      </trkpt>
      <trkpt lat="49.40865" lon="-1.16729">
        <ele>1.6</ele>
        <time>2022-06-02T12:36:30Z</time>
      </trkpt>
      <trkpt lat="49.40865" lon="-1.16731">
        <ele>1.6</ele>
        <time>2022-06-02T12:36:31Z</time>
      </trkpt>
      <trkpt lat="49.40865" lon="-1.16732">
        <ele>1.6</ele>
        <time>2022-06-02T12:36:33Z</time>
      </trkpt>
      <trkpt lat="49.40865" lon="-1.16733">
        <ele>1.6</ele>
        <time>2022-06-02T12:36:34Z</time>
      </trkpt>
      <trkpt lat="49.40865" lon="-1.16734">
        <ele>1.6</ele>
        <time>2022-06-02T12:36:35Z</time>
      </trkpt>
      <trkpt lat="49.40864" lon="-1.16734">
        <ele>1.6</ele>
        <time>2022-06-02T12:36:36Z</time>
      </trkpt>
      <trkpt lat="49.40864" lon="-1.16735">
        <ele>1.5</ele>
        <time>2022-06-02T12:36:37Z</time>
      </trkpt>
      <trkpt lat="49.40865" lon="-1.16736">
        <ele>1.5</ele>
        <time>2022-06-02T12:36:38Z</time>
      </trkpt>
      <trkpt lat="49.40865" lon="-1.16736">
        <ele>1.5</ele>
        <time>2022-06-02T12:36:39Z</time>
      </trkpt>
      <trkpt lat="49.40865" lon="-1.16737">
        <ele>1.5</ele>
        <time>2022-06-02T12:36:40Z</time>
      </trkpt>
      <trkpt lat="49.40865" lon="-1.16737">
        <ele>1.5</ele>
        <time>2022-06-02T12:36:42Z</time>
      </trkpt>
      <trkpt lat="49.40866" lon="-1.16738">
        <ele>1.5</ele>
        <time>2022-06-02T12:36:43Z</time>
      </trkpt>
      <trkpt lat="49.40865" lon="-1.16738">
        <ele>1.5</ele>
        <time>2022-06-02T12:36:45Z</time>
      </trkpt>
      <trkpt lat="49.40865" lon="-1.16739">
        <ele>1.3</ele>
        <time>2022-06-02T12:36:46Z</time>
      </trkpt>
      <trkpt lat="49.40864" lon="-1.16739">
        <ele>1.3</ele>
        <time>2022-06-02T12:36:47Z</time>
      </trkpt>
      <trkpt lat="49.40864" lon="-1.1674">
        <ele>1.3</ele>
        <time>2022-06-02T12:36:49Z</time>
      </trkpt>
      <trkpt lat="49.40865" lon="-1.16741">
        <ele>1.3</ele>
        <time>2022-06-02T12:36:50Z</time>
      </trkpt>
      <trkpt lat="49.40866" lon="-1.16744">
        <ele>1.1</ele>
        <time>2022-06-02T12:36:51Z</time>
      </trkpt>
      <trkpt lat="49.40866" lon="-1.16745">
        <ele>1.1</ele>
        <time>2022-06-02T12:36:52Z</time>
      </trkpt>
      <trkpt lat="49.40867" lon="-1.16746">
        <ele>1.1</ele>
        <time>2022-06-02T12:36:53Z</time>
      </trkpt>
      <trkpt lat="49.40867" lon="-1.16748">
        <ele>0.9</ele>
        <time>2022-06-02T12:36:55Z</time>
      </trkpt>
      <trkpt lat="49.40867" lon="-1.16749">
        <ele>0.9</ele>
        <time>2022-06-02T12:36:56Z</time>
      </trkpt>
      <trkpt lat="49.40868" lon="-1.16751">
        <ele>0.9</ele>
        <time>2022-06-02T12:36:57Z</time>
      </trkpt>
      <trkpt lat="49.40868" lon="-1.16752">
        <ele>0.8</ele>
        <time>2022-06-02T12:36:58Z</time>
      </trkpt>
      <trkpt lat="49.40868" lon="-1.16753">
        <ele>0.8</ele>
        <time>2022-06-02T12:36:59Z</time>
      </trkpt>
      <trkpt lat="49.40868" lon="-1.16753">
        <ele>0.8</ele>
        <time>2022-06-02T12:37:00Z</time>
      </trkpt>
      <trkpt lat="49.40867" lon="-1.16754">
        <ele>0.8</ele>
        <time>2022-06-02T12:37:01Z</time>
      </trkpt>
      <trkpt lat="49.40867" lon="-1.16756">
        <ele>0.9</ele>
        <time>2022-06-02T12:37:03Z</time>
      </trkpt>
      <trkpt lat="49.40867" lon="-1.16757">
        <ele>0.9</ele>
        <time>2022-06-02T12:37:04Z</time>
      </trkpt>
      <trkpt lat="49.40867" lon="-1.16758">
        <ele>0.9</ele>
        <time>2022-06-02T12:37:05Z</time>
      </trkpt>
      <trkpt lat="49.40867" lon="-1.1676">
        <ele>1.1</ele>
        <time>2022-06-02T12:37:06Z</time>
      </trkpt>
      <trkpt lat="49.40867" lon="-1.16761">
        <ele>1.1</ele>
        <time>2022-06-02T12:37:07Z</time>
      </trkpt>
      <trkpt lat="49.40867" lon="-1.16763">
        <ele>1.1</ele>
        <time>2022-06-02T12:37:09Z</time>
      </trkpt>
      <trkpt lat="49.40867" lon="-1.16765">
        <ele>1.5</ele>
        <time>2022-06-02T12:37:10Z</time>
      </trkpt>
      <trkpt lat="49.40867" lon="-1.16766">
        <ele>1.5</ele>
        <time>2022-06-02T12:37:11Z</time>
      </trkpt>
      <trkpt lat="49.40867" lon="-1.16767">
        <ele>1.5</ele>
        <time>2022-06-02T12:37:12Z</time>
      </trkpt>
      <trkpt lat="49.40866" lon="-1.16768">
        <ele>1.5</ele>
        <time>2022-06-02T12:37:13Z</time>
      </trkpt>
      <trkpt lat="49.40865" lon="-1.16769">
        <ele>2</ele>
        <time>2022-06-02T12:37:14Z</time>
      </trkpt>
      <trkpt lat="49.40864" lon="-1.16771">
        <ele>2</ele>
        <time>2022-06-02T12:37:15Z</time>
      </trkpt>
      <trkpt lat="49.40864" lon="-1.16772">
        <ele>2</ele>
        <time>2022-06-02T12:37:16Z</time>
      </trkpt>
      <trkpt lat="49.40863" lon="-1.16774">
        <ele>2.7</ele>
        <time>2022-06-02T12:37:18Z</time>
      </trkpt>
      <trkpt lat="49.40862" lon="-1.16773">
        <ele>2.7</ele>
        <time>2022-06-02T12:37:19Z</time>
      </trkpt>
      <trkpt lat="49.40862" lon="-1.16775">
        <ele>2.7</ele>
        <time>2022-06-02T12:37:20Z</time>
      </trkpt>
      <trkpt lat="49.40862" lon="-1.16776">
        <ele>2.7</ele>
        <time>2022-06-02T12:37:21Z</time>
      </trkpt>
      <trkpt lat="49.40862" lon="-1.16778">
        <ele>3.5</ele>
        <time>2022-06-02T12:37:22Z</time>
      </trkpt>
      <trkpt lat="49.40862" lon="-1.1678">
        <ele>3.5</ele>
        <time>2022-06-02T12:37:23Z</time>
      </trkpt>
      <trkpt lat="49.40862" lon="-1.16782">
        <ele>4.3</ele>
        <time>2022-06-02T12:37:25Z</time>
      </trkpt>
      <trkpt lat="49.40862" lon="-1.16783">
        <ele>4.3</ele>
        <time>2022-06-02T12:37:26Z</time>
      </trkpt>
      <trkpt lat="49.40862" lon="-1.16781">
        <ele>4.3</ele>
        <time>2022-06-02T12:37:27Z</time>
      </trkpt>
      <trkpt lat="49.40861" lon="-1.16782">
        <ele>4.3</ele>
        <time>2022-06-02T12:37:28Z</time>
      </trkpt>
      <trkpt lat="49.40861" lon="-1.16782">
        <ele>4.3</ele>
        <time>2022-06-02T12:37:29Z</time>
      </trkpt>
      <trkpt lat="49.4086" lon="-1.16783">
        <ele>4.3</ele>
        <time>2022-06-02T12:37:30Z</time>
      </trkpt>
      <trkpt lat="49.4086" lon="-1.16783">
        <ele>4.3</ele>
        <time>2022-06-02T12:37:32Z</time>
      </trkpt>
      <trkpt lat="49.4086" lon="-1.16784">
        <ele>4.3</ele>
        <time>2022-06-02T12:37:33Z</time>
      </trkpt>
      <trkpt lat="49.4086" lon="-1.16785">
        <ele>4.3</ele>
        <time>2022-06-02T12:37:34Z</time>
      </trkpt>
      <trkpt lat="49.4086" lon="-1.16789">
        <ele>5</ele>
        <time>2022-06-02T12:37:35Z</time>
      </trkpt>
      <trkpt lat="49.4086" lon="-1.1679">
        <ele>5</ele>
        <time>2022-06-02T12:37:36Z</time>
      </trkpt>
      <trkpt lat="49.40861" lon="-1.16791">
        <ele>5.6</ele>
        <time>2022-06-02T12:37:37Z</time>
      </trkpt>
      <trkpt lat="49.40862" lon="-1.16794">
        <ele>6</ele>
        <time>2022-06-02T12:37:38Z</time>
      </trkpt>
      <trkpt lat="49.40862" lon="-1.16796">
        <ele>6</ele>
        <time>2022-06-02T12:37:40Z</time>
      </trkpt>
      <trkpt lat="49.40862" lon="-1.16797">
        <ele>6</ele>
        <time>2022-06-02T12:37:41Z</time>
      </trkpt>
      <trkpt lat="49.40863" lon="-1.16798">
        <ele>6</ele>
        <time>2022-06-02T12:37:42Z</time>
      </trkpt>
      <trkpt lat="49.40863" lon="-1.168">
        <ele>6.2</ele>
        <time>2022-06-02T12:37:43Z</time>
      </trkpt>
      <trkpt lat="49.40864" lon="-1.16801">
        <ele>6.2</ele>
        <time>2022-06-02T12:37:44Z</time>
      </trkpt>
      <trkpt lat="49.40863" lon="-1.16802">
        <ele>6.3</ele>
        <time>2022-06-02T12:37:46Z</time>
      </trkpt>
      <trkpt lat="49.40862" lon="-1.16803">
        <ele>6.5</ele>
        <time>2022-06-02T12:37:47Z</time>
      </trkpt>
      <trkpt lat="49.40863" lon="-1.16804">
        <ele>6.5</ele>
        <time>2022-06-02T12:37:48Z</time>
      </trkpt>
      <trkpt lat="49.40863" lon="-1.16805">
        <ele>6.5</ele>
        <time>2022-06-02T12:37:50Z</time>
      </trkpt>
      <trkpt lat="49.40862" lon="-1.16806">
        <ele>6.5</ele>
        <time>2022-06-02T12:37:51Z</time>
      </trkpt>
      <trkpt lat="49.40861" lon="-1.16808">
        <ele>6.5</ele>
        <time>2022-06-02T12:37:52Z</time>
      </trkpt>
      <trkpt lat="49.40861" lon="-1.1681">
        <ele>6.5</ele>
        <time>2022-06-02T12:37:53Z</time>
      </trkpt>
      <trkpt lat="49.4086" lon="-1.16813">
        <ele>6.6</ele>
        <time>2022-06-02T12:37:54Z</time>
      </trkpt>
      <trkpt lat="49.4086" lon="-1.16814">
        <ele>6.6</ele>
        <time>2022-06-02T12:37:55Z</time>
      </trkpt>
      <trkpt lat="49.40859" lon="-1.16815">
        <ele>6.6</ele>
        <time>2022-06-02T12:37:56Z</time>
      </trkpt>
      <trkpt lat="49.40859" lon="-1.16817">
        <ele>6.7</ele>
        <time>2022-06-02T12:37:57Z</time>
      </trkpt>
      <trkpt lat="49.40859" lon="-1.16818">
        <ele>6.7</ele>
        <time>2022-06-02T12:37:59Z</time>
      </trkpt>
      <trkpt lat="49.40859" lon="-1.16819">
        <ele>6.7</ele>
        <time>2022-06-02T12:38:00Z</time>
      </trkpt>
      <trkpt lat="49.40858" lon="-1.1682">
        <ele>6.7</ele>
        <time>2022-06-02T12:38:01Z</time>
      </trkpt>
      <trkpt lat="49.40858" lon="-1.16822">
        <ele>6.7</ele>
        <time>2022-06-02T12:38:02Z</time>
      </trkpt>
      <trkpt lat="49.40858" lon="-1.16824">
        <ele>6.7</ele>
        <time>2022-06-02T12:38:03Z</time>
      </trkpt>
      <trkpt lat="49.40857" lon="-1.16825">
        <ele>6.9</ele>
        <time>2022-06-02T12:38:04Z</time>
      </trkpt>
      <trkpt lat="49.40857" lon="-1.16826">
        <ele>6.9</ele>
        <time>2022-06-02T12:38:06Z</time>
      </trkpt>
      <trkpt lat="49.40857" lon="-1.16827">
        <ele>6.9</ele>
        <time>2022-06-02T12:38:07Z</time>
      </trkpt>
      <trkpt lat="49.40858" lon="-1.16829">
        <ele>7</ele>
        <time>2022-06-02T12:38:08Z</time>
      </trkpt>
      <trkpt lat="49.40857" lon="-1.16832">
        <ele>7</ele>
        <time>2022-06-02T12:38:10Z</time>
      </trkpt>
      <trkpt lat="49.40857" lon="-1.16834">
        <ele>7.3</ele>
        <time>2022-06-02T12:38:11Z</time>
      </trkpt>
      <trkpt lat="49.40857" lon="-1.16836">
        <ele>7.3</ele>
        <time>2022-06-02T12:38:12Z</time>
      </trkpt>
      <trkpt lat="49.40857" lon="-1.16837">
        <ele>7.3</ele>
        <time>2022-06-02T12:38:13Z</time>
      </trkpt>
      <trkpt lat="49.40856" lon="-1.16838">
        <ele>7.4</ele>
        <time>2022-06-02T12:38:14Z</time>
      </trkpt>
      <trkpt lat="49.40856" lon="-1.1684">
        <ele>7.4</ele>
        <time>2022-06-02T12:38:16Z</time>
      </trkpt>
      <trkpt lat="49.40857" lon="-1.16842">
        <ele>7.5</ele>
        <time>2022-06-02T12:38:17Z</time>
      </trkpt>
      <trkpt lat="49.40857" lon="-1.16844">
        <ele>7.5</ele>
        <time>2022-06-02T12:38:18Z</time>
      </trkpt>
      <trkpt lat="49.40858" lon="-1.16847">
        <ele>7.6</ele>
        <time>2022-06-02T12:38:19Z</time>
      </trkpt>
      <trkpt lat="49.40858" lon="-1.16849">
        <ele>7.6</ele>
        <time>2022-06-02T12:38:20Z</time>
      </trkpt>
      <trkpt lat="49.40859" lon="-1.16851">
        <ele>7.6</ele>
        <time>2022-06-02T12:38:21Z</time>
      </trkpt>
      <trkpt lat="49.40859" lon="-1.16854">
        <ele>7.6</ele>
        <time>2022-06-02T12:38:23Z</time>
      </trkpt>
      <trkpt lat="49.40859" lon="-1.16856">
        <ele>7.6</ele>
        <time>2022-06-02T12:38:25Z</time>
      </trkpt>
      <trkpt lat="49.4086" lon="-1.16857">
        <ele>7.6</ele>
        <time>2022-06-02T12:38:26Z</time>
      </trkpt>
      <trkpt lat="49.4086" lon="-1.16857">
        <ele>7.6</ele>
        <time>2022-06-02T12:38:27Z</time>
      </trkpt>
      <trkpt lat="49.4086" lon="-1.16857">
        <ele>7.6</ele>
        <time>2022-06-02T12:38:28Z</time>
      </trkpt>
      <trkpt lat="49.4086" lon="-1.16857">
        <ele>7.6</ele>
        <time>2022-06-02T12:38:30Z</time>
      </trkpt>
      <trkpt lat="49.4086" lon="-1.16857">
        <ele>7.6</ele>
        <time>2022-06-02T12:38:31Z</time>
      </trkpt>
      <trkpt lat="49.4086" lon="-1.16856">
        <ele>7.6</ele>
        <time>2022-06-02T12:38:32Z</time>
      </trkpt>
      <trkpt lat="49.4086" lon="-1.16856">
        <ele>7.6</ele>
        <time>2022-06-02T12:38:33Z</time>
      </trkpt>
      <trkpt lat="49.4086" lon="-1.16856">
        <ele>7.6</ele>
        <time>2022-06-02T12:38:35Z</time>
      </trkpt>
      <trkpt lat="49.4086" lon="-1.16856">
        <ele>7.6</ele>
        <time>2022-06-02T12:38:37Z</time>
      </trkpt>
      <trkpt lat="49.4086" lon="-1.16856">
        <ele>7.6</ele>
        <time>2022-06-02T12:38:38Z</time>
      </trkpt>
      <trkpt lat="49.4086" lon="-1.16856">
        <ele>7.6</ele>
        <time>2022-06-02T12:38:39Z</time>
      </trkpt>
      <trkpt lat="49.4086" lon="-1.16856">
        <ele>7.6</ele>
        <time>2022-06-02T12:38:40Z</time>
      </trkpt>
      <trkpt lat="49.4086" lon="-1.16855">
        <ele>7.6</ele>
        <time>2022-06-02T12:38:41Z</time>
      </trkpt>
      <trkpt lat="49.4086" lon="-1.16855">
        <ele>7.6</ele>
        <time>2022-06-02T12:38:42Z</time>
      </trkpt>
      <trkpt lat="49.4086" lon="-1.16854">
        <ele>7.6</ele>
        <time>2022-06-02T12:38:43Z</time>
      </trkpt>
      <trkpt lat="49.4086" lon="-1.16854">
        <ele>7.6</ele>
        <time>2022-06-02T12:38:44Z</time>
      </trkpt>
      <trkpt lat="49.4086" lon="-1.16853">
        <ele>7.7</ele>
        <time>2022-06-02T12:38:45Z</time>
      </trkpt>
      <trkpt lat="49.40861" lon="-1.16853">
        <ele>7.7</ele>
        <time>2022-06-02T12:38:46Z</time>
      </trkpt>
      <trkpt lat="49.40862" lon="-1.16853">
        <ele>7.7</ele>
        <time>2022-06-02T12:38:47Z</time>
      </trkpt>
      <trkpt lat="49.40864" lon="-1.16853">
        <ele>7.7</ele>
        <time>2022-06-02T12:38:49Z</time>
      </trkpt>
      <trkpt lat="49.40865" lon="-1.16853">
        <ele>7.7</ele>
        <time>2022-06-02T12:38:50Z</time>
      </trkpt>
      <trkpt lat="49.40866" lon="-1.16852">
        <ele>7.7</ele>
        <time>2022-06-02T12:38:51Z</time>
      </trkpt>
      <trkpt lat="49.40867" lon="-1.16853">
        <ele>7.7</ele>
        <time>2022-06-02T12:38:52Z</time>
      </trkpt>
      <trkpt lat="49.40868" lon="-1.16853">
        <ele>7.7</ele>
        <time>2022-06-02T12:38:53Z</time>
      </trkpt>
      <trkpt lat="49.4087" lon="-1.16854">
        <ele>7.7</ele>
        <time>2022-06-02T12:38:54Z</time>
      </trkpt>
      <trkpt lat="49.4087" lon="-1.16854">
        <ele>7.7</ele>
        <time>2022-06-02T12:38:55Z</time>
      </trkpt>
      <trkpt lat="49.40872" lon="-1.16854">
        <ele>7.7</ele>
        <time>2022-06-02T12:38:56Z</time>
      </trkpt>
      <trkpt lat="49.40873" lon="-1.16855">
        <ele>7.7</ele>
        <time>2022-06-02T12:38:57Z</time>
      </trkpt>
      <trkpt lat="49.40874" lon="-1.16855">
        <ele>7.7</ele>
        <time>2022-06-02T12:38:59Z</time>
      </trkpt>
      <trkpt lat="49.40875" lon="-1.16855">
        <ele>7.7</ele>
        <time>2022-06-02T12:39:00Z</time>
      </trkpt>
      <trkpt lat="49.40876" lon="-1.16856">
        <ele>7.7</ele>
        <time>2022-06-02T12:39:01Z</time>
      </trkpt>
      <trkpt lat="49.40877" lon="-1.16856">
        <ele>7.7</ele>
        <time>2022-06-02T12:39:02Z</time>
      </trkpt>
      <trkpt lat="49.40877" lon="-1.16856">
        <ele>7.7</ele>
        <time>2022-06-02T12:39:03Z</time>
      </trkpt>
      <trkpt lat="49.40878" lon="-1.16856">
        <ele>7.6</ele>
        <time>2022-06-02T12:39:05Z</time>
      </trkpt>
      <trkpt lat="49.4088" lon="-1.16856">
        <ele>7.6</ele>
        <time>2022-06-02T12:39:06Z</time>
      </trkpt>
      <trkpt lat="49.40881" lon="-1.16857">
        <ele>7.6</ele>
        <time>2022-06-02T12:39:07Z</time>
      </trkpt>
      <trkpt lat="49.40882" lon="-1.16858">
        <ele>7.6</ele>
        <time>2022-06-02T12:39:09Z</time>
      </trkpt>
      <trkpt lat="49.40883" lon="-1.16859">
        <ele>7.6</ele>
        <time>2022-06-02T12:39:10Z</time>
      </trkpt>
      <trkpt lat="49.40883" lon="-1.16859">
        <ele>7.6</ele>
        <time>2022-06-02T12:39:11Z</time>
      </trkpt>
      <trkpt lat="49.40884" lon="-1.16859">
        <ele>7.6</ele>
        <time>2022-06-02T12:39:12Z</time>
      </trkpt>
      <trkpt lat="49.40885" lon="-1.16859">
        <ele>7.6</ele>
        <time>2022-06-02T12:39:13Z</time>
      </trkpt>
      <trkpt lat="49.40885" lon="-1.1686">
        <ele>7.5</ele>
        <time>2022-06-02T12:39:15Z</time>
      </trkpt>
      <trkpt lat="49.40886" lon="-1.1686">
        <ele>7.5</ele>
        <time>2022-06-02T12:39:16Z</time>
      </trkpt>
      <trkpt lat="49.40888" lon="-1.16862">
        <ele>7.4</ele>
        <time>2022-06-02T12:39:17Z</time>
      </trkpt>
      <trkpt lat="49.40889" lon="-1.16862">
        <ele>7.4</ele>
        <time>2022-06-02T12:39:18Z</time>
      </trkpt>
      <trkpt lat="49.4089" lon="-1.16862">
        <ele>7.4</ele>
        <time>2022-06-02T12:39:19Z</time>
      </trkpt>
      <trkpt lat="49.40891" lon="-1.16863">
        <ele>7.4</ele>
        <time>2022-06-02T12:39:20Z</time>
      </trkpt>
      <trkpt lat="49.40893" lon="-1.16864">
        <ele>7.4</ele>
        <time>2022-06-02T12:39:21Z</time>
      </trkpt>
      <trkpt lat="49.40894" lon="-1.16865">
        <ele>7.4</ele>
        <time>2022-06-02T12:39:22Z</time>
      </trkpt>
      <trkpt lat="49.40895" lon="-1.16865">
        <ele>7.4</ele>
        <time>2022-06-02T12:39:23Z</time>
      </trkpt>
      <trkpt lat="49.40897" lon="-1.16865">
        <ele>7.3</ele>
        <time>2022-06-02T12:39:25Z</time>
      </trkpt>
      <trkpt lat="49.40899" lon="-1.16866">
        <ele>7.3</ele>
        <time>2022-06-02T12:39:26Z</time>
      </trkpt>
      <trkpt lat="49.409" lon="-1.16867">
        <ele>7.2</ele>
        <time>2022-06-02T12:39:27Z</time>
      </trkpt>
      <trkpt lat="49.409" lon="-1.16867">
        <ele>7.3</ele>
        <time>2022-06-02T12:39:28Z</time>
      </trkpt>
      <trkpt lat="49.40902" lon="-1.16868">
        <ele>7.3</ele>
        <time>2022-06-02T12:39:29Z</time>
      </trkpt>
      <trkpt lat="49.40903" lon="-1.16869">
        <ele>7.3</ele>
        <time>2022-06-02T12:39:30Z</time>
      </trkpt>
      <trkpt lat="49.40904" lon="-1.1687">
        <ele>7.3</ele>
        <time>2022-06-02T12:39:31Z</time>
      </trkpt>
      <trkpt lat="49.40906" lon="-1.16871">
        <ele>7.2</ele>
        <time>2022-06-02T12:39:33Z</time>
      </trkpt>
      <trkpt lat="49.40907" lon="-1.16872">
        <ele>7.3</ele>
        <time>2022-06-02T12:39:34Z</time>
      </trkpt>
      <trkpt lat="49.40908" lon="-1.16873">
        <ele>7.2</ele>
        <time>2022-06-02T12:39:35Z</time>
      </trkpt>
      <trkpt lat="49.4091" lon="-1.16874">
        <ele>7.2</ele>
        <time>2022-06-02T12:39:36Z</time>
      </trkpt>
      <trkpt lat="49.40911" lon="-1.16875">
        <ele>7</ele>
        <time>2022-06-02T12:39:37Z</time>
      </trkpt>
      <trkpt lat="49.40912" lon="-1.16876">
        <ele>7.1</ele>
        <time>2022-06-02T12:39:38Z</time>
      </trkpt>
      <trkpt lat="49.40914" lon="-1.16878">
        <ele>7</ele>
        <time>2022-06-02T12:39:39Z</time>
      </trkpt>
      <trkpt lat="49.40915" lon="-1.16878">
        <ele>7</ele>
        <time>2022-06-02T12:39:40Z</time>
      </trkpt>
      <trkpt lat="49.40916" lon="-1.16879">
        <ele>6.8</ele>
        <time>2022-06-02T12:39:41Z</time>
      </trkpt>
      <trkpt lat="49.40918" lon="-1.1688">
        <ele>6.8</ele>
        <time>2022-06-02T12:39:43Z</time>
      </trkpt>
      <trkpt lat="49.40919" lon="-1.1688">
        <ele>6.7</ele>
        <time>2022-06-02T12:39:44Z</time>
      </trkpt>
      <trkpt lat="49.4092" lon="-1.16881">
        <ele>6.7</ele>
        <time>2022-06-02T12:39:45Z</time>
      </trkpt>
      <trkpt lat="49.40921" lon="-1.16882">
        <ele>6.7</ele>
        <time>2022-06-02T12:39:46Z</time>
      </trkpt>
      <trkpt lat="49.40923" lon="-1.16882">
        <ele>6.6</ele>
        <time>2022-06-02T12:39:47Z</time>
      </trkpt>
      <trkpt lat="49.40924" lon="-1.16883">
        <ele>6.6</ele>
        <time>2022-06-02T12:39:48Z</time>
      </trkpt>
      <trkpt lat="49.40925" lon="-1.16884">
        <ele>6.4</ele>
        <time>2022-06-02T12:39:50Z</time>
      </trkpt>
      <trkpt lat="49.40927" lon="-1.16884">
        <ele>6.3</ele>
        <time>2022-06-02T12:39:51Z</time>
      </trkpt>
      <trkpt lat="49.40928" lon="-1.16885">
        <ele>6.4</ele>
        <time>2022-06-02T12:39:52Z</time>
      </trkpt>
      <trkpt lat="49.40929" lon="-1.16886">
        <ele>6.4</ele>
        <time>2022-06-02T12:39:53Z</time>
      </trkpt>
      <trkpt lat="49.4093" lon="-1.16887">
        <ele>6.4</ele>
        <time>2022-06-02T12:39:55Z</time>
      </trkpt>
      <trkpt lat="49.40931" lon="-1.16889">
        <ele>6.4</ele>
        <time>2022-06-02T12:39:56Z</time>
      </trkpt>
      <trkpt lat="49.40931" lon="-1.1689">
        <ele>6.4</ele>
        <time>2022-06-02T12:39:57Z</time>
      </trkpt>
      <trkpt lat="49.40932" lon="-1.16891">
        <ele>6.4</ele>
        <time>2022-06-02T12:39:58Z</time>
      </trkpt>
      <trkpt lat="49.40934" lon="-1.16892">
        <ele>6.3</ele>
        <time>2022-06-02T12:40:00Z</time>
      </trkpt>
      <trkpt lat="49.40935" lon="-1.16893">
        <ele>6.4</ele>
        <time>2022-06-02T12:40:01Z</time>
      </trkpt>
      <trkpt lat="49.40936" lon="-1.16894">
        <ele>6.3</ele>
        <time>2022-06-02T12:40:02Z</time>
      </trkpt>
      <trkpt lat="49.40937" lon="-1.16894">
        <ele>6.3</ele>
        <time>2022-06-02T12:40:03Z</time>
      </trkpt>
      <trkpt lat="49.40938" lon="-1.16895">
        <ele>6.3</ele>
        <time>2022-06-02T12:40:04Z</time>
      </trkpt>
      <trkpt lat="49.40939" lon="-1.16896">
        <ele>6.2</ele>
        <time>2022-06-02T12:40:05Z</time>
      </trkpt>
      <trkpt lat="49.4094" lon="-1.16897">
        <ele>6.2</ele>
        <time>2022-06-02T12:40:07Z</time>
      </trkpt>
      <trkpt lat="49.40941" lon="-1.16898">
        <ele>6.2</ele>
        <time>2022-06-02T12:40:08Z</time>
      </trkpt>
      <trkpt lat="49.40942" lon="-1.16898">
        <ele>6.2</ele>
        <time>2022-06-02T12:40:09Z</time>
      </trkpt>
      <trkpt lat="49.40943" lon="-1.16899">
        <ele>6.2</ele>
        <time>2022-06-02T12:40:10Z</time>
      </trkpt>
      <trkpt lat="49.40945" lon="-1.16899">
        <ele>6.1</ele>
        <time>2022-06-02T12:40:11Z</time>
      </trkpt>
      <trkpt lat="49.40946" lon="-1.169">
        <ele>6.1</ele>
        <time>2022-06-02T12:40:12Z</time>
      </trkpt>
      <trkpt lat="49.40947" lon="-1.169">
        <ele>6.1</ele>
        <time>2022-06-02T12:40:13Z</time>
      </trkpt>
      <trkpt lat="49.40948" lon="-1.169">
        <ele>6</ele>
        <time>2022-06-02T12:40:15Z</time>
      </trkpt>
      <trkpt lat="49.40949" lon="-1.16901">
        <ele>6</ele>
        <time>2022-06-02T12:40:16Z</time>
      </trkpt>
      <trkpt lat="49.4095" lon="-1.16902">
        <ele>6</ele>
        <time>2022-06-02T12:40:17Z</time>
      </trkpt>
      <trkpt lat="49.40951" lon="-1.16902">
        <ele>6</ele>
        <time>2022-06-02T12:40:18Z</time>
      </trkpt>
      <trkpt lat="49.40952" lon="-1.16903">
        <ele>6</ele>
        <time>2022-06-02T12:40:19Z</time>
      </trkpt>
      <trkpt lat="49.40953" lon="-1.16904">
        <ele>5.9</ele>
        <time>2022-06-02T12:40:20Z</time>
      </trkpt>
      <trkpt lat="49.40954" lon="-1.16905">
        <ele>5.9</ele>
        <time>2022-06-02T12:40:21Z</time>
      </trkpt>
      <trkpt lat="49.40955" lon="-1.16905">
        <ele>5.9</ele>
        <time>2022-06-02T12:40:23Z</time>
      </trkpt>
      <trkpt lat="49.40956" lon="-1.16906">
        <ele>5.9</ele>
        <time>2022-06-02T12:40:24Z</time>
      </trkpt>
      <trkpt lat="49.40956" lon="-1.16907">
        <ele>5.9</ele>
        <time>2022-06-02T12:40:25Z</time>
      </trkpt>
      <trkpt lat="49.40958" lon="-1.16908">
        <ele>5.8</ele>
        <time>2022-06-02T12:40:26Z</time>
      </trkpt>
      <trkpt lat="49.4096" lon="-1.16909">
        <ele>5.8</ele>
        <time>2022-06-02T12:40:27Z</time>
      </trkpt>
      <trkpt lat="49.4096" lon="-1.1691">
        <ele>5.8</ele>
        <time>2022-06-02T12:40:29Z</time>
      </trkpt>
      <trkpt lat="49.40961" lon="-1.1691">
        <ele>5.8</ele>
        <time>2022-06-02T12:40:30Z</time>
      </trkpt>
      <trkpt lat="49.40962" lon="-1.16912">
        <ele>5.8</ele>
        <time>2022-06-02T12:40:31Z</time>
      </trkpt>
      <trkpt lat="49.40963" lon="-1.16912">
        <ele>5.8</ele>
        <time>2022-06-02T12:40:32Z</time>
      </trkpt>
      <trkpt lat="49.40964" lon="-1.16914">
        <ele>5.7</ele>
        <time>2022-06-02T12:40:33Z</time>
      </trkpt>
      <trkpt lat="49.40964" lon="-1.16915">
        <ele>5.8</ele>
        <time>2022-06-02T12:40:34Z</time>
      </trkpt>
      <trkpt lat="49.40966" lon="-1.16917">
        <ele>5.8</ele>
        <time>2022-06-02T12:40:36Z</time>
      </trkpt>
      <trkpt lat="49.40966" lon="-1.16918">
        <ele>5.7</ele>
        <time>2022-06-02T12:40:37Z</time>
      </trkpt>
      <trkpt lat="49.40966" lon="-1.16919">
        <ele>5.9</ele>
        <time>2022-06-02T12:40:38Z</time>
      </trkpt>
      <trkpt lat="49.40966" lon="-1.16919">
        <ele>5.9</ele>
        <time>2022-06-02T12:40:39Z</time>
      </trkpt>
      <trkpt lat="49.40966" lon="-1.16918">
        <ele>5.8</ele>
        <time>2022-06-02T12:40:41Z</time>
      </trkpt>
      <trkpt lat="49.40965" lon="-1.16918">
        <ele>5.8</ele>
        <time>2022-06-02T12:40:42Z</time>
      </trkpt>
      <trkpt lat="49.40965" lon="-1.16918">
        <ele>5.8</ele>
        <time>2022-06-02T12:40:43Z</time>
      </trkpt>
      <trkpt lat="49.40965" lon="-1.16918">
        <ele>5.8</ele>
        <time>2022-06-02T12:40:45Z</time>
      </trkpt>
      <trkpt lat="49.40966" lon="-1.16918">
        <ele>5.8</ele>
        <time>2022-06-02T12:40:46Z</time>
      </trkpt>
      <trkpt lat="49.40967" lon="-1.16918">
        <ele>5.7</ele>
        <time>2022-06-02T12:40:47Z</time>
      </trkpt>
      <trkpt lat="49.40967" lon="-1.16918">
        <ele>5.7</ele>
        <time>2022-06-02T12:40:48Z</time>
      </trkpt>
      <trkpt lat="49.40969" lon="-1.16918">
        <ele>5.7</ele>
        <time>2022-06-02T12:40:50Z</time>
      </trkpt>
      <trkpt lat="49.4097" lon="-1.16917">
        <ele>5.7</ele>
        <time>2022-06-02T12:40:51Z</time>
      </trkpt>
      <trkpt lat="49.40972" lon="-1.16918">
        <ele>5.6</ele>
        <time>2022-06-02T12:40:52Z</time>
      </trkpt>
      <trkpt lat="49.40973" lon="-1.16918">
        <ele>5.6</ele>
        <time>2022-06-02T12:40:53Z</time>
      </trkpt>
      <trkpt lat="49.40974" lon="-1.16918">
        <ele>5.6</ele>
        <time>2022-06-02T12:40:54Z</time>
      </trkpt>
      <trkpt lat="49.40975" lon="-1.16918">
        <ele>5.5</ele>
        <time>2022-06-02T12:40:55Z</time>
      </trkpt>
      <trkpt lat="49.40977" lon="-1.16919">
        <ele>5.6</ele>
        <time>2022-06-02T12:40:57Z</time>
      </trkpt>
      <trkpt lat="49.40977" lon="-1.16919">
        <ele>5.5</ele>
        <time>2022-06-02T12:40:58Z</time>
      </trkpt>
      <trkpt lat="49.40979" lon="-1.1692">
        <ele>5.5</ele>
        <time>2022-06-02T12:40:59Z</time>
      </trkpt>
      <trkpt lat="49.40979" lon="-1.1692">
        <ele>5.5</ele>
        <time>2022-06-02T12:41:00Z</time>
      </trkpt>
      <trkpt lat="49.4098" lon="-1.16921">
        <ele>5.5</ele>
        <time>2022-06-02T12:41:01Z</time>
      </trkpt>
      <trkpt lat="49.40982" lon="-1.16922">
        <ele>5.5</ele>
        <time>2022-06-02T12:41:02Z</time>
      </trkpt>
      <trkpt lat="49.40983" lon="-1.16922">
        <ele>5.4</ele>
        <time>2022-06-02T12:41:04Z</time>
      </trkpt>
      <trkpt lat="49.40984" lon="-1.16923">
        <ele>5.4</ele>
        <time>2022-06-02T12:41:05Z</time>
      </trkpt>
      <trkpt lat="49.40985" lon="-1.16923">
        <ele>5.4</ele>
        <time>2022-06-02T12:41:06Z</time>
      </trkpt>
      <trkpt lat="49.40987" lon="-1.16923">
        <ele>5.4</ele>
        <time>2022-06-02T12:41:07Z</time>
      </trkpt>
      <trkpt lat="49.40989" lon="-1.16925">
        <ele>5.3</ele>
        <time>2022-06-02T12:41:09Z</time>
      </trkpt>
      <trkpt lat="49.4099" lon="-1.16926">
        <ele>5.3</ele>
        <time>2022-06-02T12:41:10Z</time>
      </trkpt>
      <trkpt lat="49.4099" lon="-1.16928">
        <ele>5.2</ele>
        <time>2022-06-02T12:41:11Z</time>
      </trkpt>
      <trkpt lat="49.40989" lon="-1.1693">
        <ele>5.2</ele>
        <time>2022-06-02T12:41:13Z</time>
      </trkpt>
      <trkpt lat="49.40988" lon="-1.16933">
        <ele>5.1</ele>
        <time>2022-06-02T12:41:14Z</time>
      </trkpt>
      <trkpt lat="49.40987" lon="-1.16935">
        <ele>5.1</ele>
        <time>2022-06-02T12:41:16Z</time>
      </trkpt>
      <trkpt lat="49.40986" lon="-1.16937">
        <ele>5</ele>
        <time>2022-06-02T12:41:17Z</time>
      </trkpt>
      <trkpt lat="49.40985" lon="-1.16938">
        <ele>5</ele>
        <time>2022-06-02T12:41:18Z</time>
      </trkpt>
      <trkpt lat="49.40984" lon="-1.16939">
        <ele>5</ele>
        <time>2022-06-02T12:41:19Z</time>
      </trkpt>
      <trkpt lat="49.40984" lon="-1.16941">
        <ele>5</ele>
        <time>2022-06-02T12:41:20Z</time>
      </trkpt>
      <trkpt lat="49.40983" lon="-1.16942">
        <ele>4.9</ele>
        <time>2022-06-02T12:41:22Z</time>
      </trkpt>
      <trkpt lat="49.40982" lon="-1.16943">
        <ele>4.9</ele>
        <time>2022-06-02T12:41:23Z</time>
      </trkpt>
      <trkpt lat="49.40982" lon="-1.16945">
        <ele>4.9</ele>
        <time>2022-06-02T12:41:24Z</time>
      </trkpt>
      <trkpt lat="49.40981" lon="-1.16945">
        <ele>4.9</ele>
        <time>2022-06-02T12:41:25Z</time>
      </trkpt>
      <trkpt lat="49.4098" lon="-1.16946">
        <ele>4.9</ele>
        <time>2022-06-02T12:41:26Z</time>
      </trkpt>
      <trkpt lat="49.40979" lon="-1.16947">
        <ele>4.9</ele>
        <time>2022-06-02T12:41:27Z</time>
      </trkpt>
      <trkpt lat="49.40978" lon="-1.16949">
        <ele>4.9</ele>
        <time>2022-06-02T12:41:29Z</time>
      </trkpt>
      <trkpt lat="49.40978" lon="-1.1695">
        <ele>4.8</ele>
        <time>2022-06-02T12:41:30Z</time>
      </trkpt>
      <trkpt lat="49.40977" lon="-1.1695">
        <ele>4.8</ele>
        <time>2022-06-02T12:41:31Z</time>
      </trkpt>
      <trkpt lat="49.40977" lon="-1.16952">
        <ele>4.8</ele>
        <time>2022-06-02T12:41:32Z</time>
      </trkpt>
      <trkpt lat="49.40976" lon="-1.16953">
        <ele>4.8</ele>
        <time>2022-06-02T12:41:33Z</time>
      </trkpt>
      <trkpt lat="49.40976" lon="-1.16955">
        <ele>4.8</ele>
        <time>2022-06-02T12:41:34Z</time>
      </trkpt>
      <trkpt lat="49.40975" lon="-1.16956">
        <ele>4.8</ele>
        <time>2022-06-02T12:41:36Z</time>
      </trkpt>
      <trkpt lat="49.40975" lon="-1.16958">
        <ele>4.8</ele>
        <time>2022-06-02T12:41:37Z</time>
      </trkpt>
      <trkpt lat="49.40974" lon="-1.16959">
        <ele>4.8</ele>
        <time>2022-06-02T12:41:38Z</time>
      </trkpt>
      <trkpt lat="49.40974" lon="-1.16961">
        <ele>4.8</ele>
        <time>2022-06-02T12:41:39Z</time>
      </trkpt>
      <trkpt lat="49.40974" lon="-1.16963">
        <ele>4.8</ele>
        <time>2022-06-02T12:41:40Z</time>
      </trkpt>
      <trkpt lat="49.40973" lon="-1.16965">
        <ele>4.8</ele>
        <time>2022-06-02T12:41:42Z</time>
      </trkpt>
      <trkpt lat="49.40973" lon="-1.16967">
        <ele>4.8</ele>
        <time>2022-06-02T12:41:43Z</time>
      </trkpt>
      <trkpt lat="49.40972" lon="-1.16969">
        <ele>4.8</ele>
        <time>2022-06-02T12:41:44Z</time>
      </trkpt>
      <trkpt lat="49.40972" lon="-1.16972">
        <ele>4.8</ele>
        <time>2022-06-02T12:41:45Z</time>
      </trkpt>
      <trkpt lat="49.40973" lon="-1.16974">
        <ele>4.8</ele>
        <time>2022-06-02T12:41:46Z</time>
      </trkpt>
      <trkpt lat="49.40973" lon="-1.16977">
        <ele>4.7</ele>
        <time>2022-06-02T12:41:48Z</time>
      </trkpt>
      <trkpt lat="49.40973" lon="-1.16979">
        <ele>4.7</ele>
        <time>2022-06-02T12:41:49Z</time>
      </trkpt>
      <trkpt lat="49.40973" lon="-1.16981">
        <ele>4.7</ele>
        <time>2022-06-02T12:41:50Z</time>
      </trkpt>
      <trkpt lat="49.40973" lon="-1.16982">
        <ele>4.6</ele>
        <time>2022-06-02T12:41:51Z</time>
      </trkpt>
      <trkpt lat="49.40972" lon="-1.16984">
        <ele>4.6</ele>
        <time>2022-06-02T12:41:52Z</time>
      </trkpt>
      <trkpt lat="49.40972" lon="-1.16986">
        <ele>4.6</ele>
        <time>2022-06-02T12:41:53Z</time>
      </trkpt>
      <trkpt lat="49.40971" lon="-1.16987">
        <ele>4.5</ele>
        <time>2022-06-02T12:41:54Z</time>
      </trkpt>
      <trkpt lat="49.40971" lon="-1.16989">
        <ele>4.5</ele>
        <time>2022-06-02T12:41:55Z</time>
      </trkpt>
      <trkpt lat="49.40971" lon="-1.1699">
        <ele>4.5</ele>
        <time>2022-06-02T12:41:57Z</time>
      </trkpt>
      <trkpt lat="49.40971" lon="-1.16991">
        <ele>4.5</ele>
        <time>2022-06-02T12:41:58Z</time>
      </trkpt>
      <trkpt lat="49.4097" lon="-1.16992">
        <ele>4.4</ele>
        <time>2022-06-02T12:41:59Z</time>
      </trkpt>
      <trkpt lat="49.4097" lon="-1.16992">
        <ele>4.4</ele>
        <time>2022-06-02T12:42:00Z</time>
      </trkpt>
      <trkpt lat="49.40969" lon="-1.16994">
        <ele>4.4</ele>
        <time>2022-06-02T12:42:01Z</time>
      </trkpt>
      <trkpt lat="49.40969" lon="-1.16995">
        <ele>4.3</ele>
        <time>2022-06-02T12:42:02Z</time>
      </trkpt>
      <trkpt lat="49.40968" lon="-1.16996">
        <ele>4.3</ele>
        <time>2022-06-02T12:42:03Z</time>
      </trkpt>
      <trkpt lat="49.40967" lon="-1.16997">
        <ele>4.2</ele>
        <time>2022-06-02T12:42:05Z</time>
      </trkpt>
      <trkpt lat="49.40966" lon="-1.16998">
        <ele>4.2</ele>
        <time>2022-06-02T12:42:07Z</time>
      </trkpt>
      <trkpt lat="49.40965" lon="-1.16999">
        <ele>4.2</ele>
        <time>2022-06-02T12:42:08Z</time>
      </trkpt>
      <trkpt lat="49.40964" lon="-1.17">
        <ele>4.1</ele>
        <time>2022-06-02T12:42:09Z</time>
      </trkpt>
      <trkpt lat="49.40964" lon="-1.17001">
        <ele>4.1</ele>
        <time>2022-06-02T12:42:10Z</time>
      </trkpt>
      <trkpt lat="49.40963" lon="-1.17002">
        <ele>4.1</ele>
        <time>2022-06-02T12:42:11Z</time>
      </trkpt>
      <trkpt lat="49.40961" lon="-1.17004">
        <ele>4</ele>
        <time>2022-06-02T12:42:13Z</time>
      </trkpt>
      <trkpt lat="49.40961" lon="-1.17006">
        <ele>4</ele>
        <time>2022-06-02T12:42:14Z</time>
      </trkpt>
      <trkpt lat="49.40961" lon="-1.17006">
        <ele>4</ele>
        <time>2022-06-02T12:42:15Z</time>
      </trkpt>
      <trkpt lat="49.40961" lon="-1.17007">
        <ele>4</ele>
        <time>2022-06-02T12:42:16Z</time>
      </trkpt>
      <trkpt lat="49.40961" lon="-1.17007">
        <ele>4</ele>
        <time>2022-06-02T12:42:17Z</time>
      </trkpt>
      <trkpt lat="49.40961" lon="-1.17007">
        <ele>4</ele>
        <time>2022-06-02T12:42:18Z</time>
      </trkpt>
      <trkpt lat="49.40961" lon="-1.17006">
        <ele>4</ele>
        <time>2022-06-02T12:42:19Z</time>
      </trkpt>
      <trkpt lat="49.40961" lon="-1.17006">
        <ele>3.9</ele>
        <time>2022-06-02T12:42:20Z</time>
      </trkpt>
      <trkpt lat="49.40961" lon="-1.17006">
        <ele>3.9</ele>
        <time>2022-06-02T12:42:21Z</time>
      </trkpt>
      <trkpt lat="49.40961" lon="-1.17006">
        <ele>3.9</ele>
        <time>2022-06-02T12:42:22Z</time>
      </trkpt>
      <trkpt lat="49.40961" lon="-1.17007">
        <ele>3.9</ele>
        <time>2022-06-02T12:42:24Z</time>
      </trkpt>
      <trkpt lat="49.40961" lon="-1.17007">
        <ele>3.9</ele>
        <time>2022-06-02T12:42:25Z</time>
      </trkpt>
      <trkpt lat="49.40962" lon="-1.17007">
        <ele>3.9</ele>
        <time>2022-06-02T12:42:26Z</time>
      </trkpt>
      <trkpt lat="49.40962" lon="-1.17006">
        <ele>3.9</ele>
        <time>2022-06-02T12:42:27Z</time>
      </trkpt>
      <trkpt lat="49.40962" lon="-1.17006">
        <ele>3.9</ele>
        <time>2022-06-02T12:42:29Z</time>
      </trkpt>
      <trkpt lat="49.40962" lon="-1.17006">
        <ele>3.9</ele>
        <time>2022-06-02T12:42:30Z</time>
      </trkpt>
      <trkpt lat="49.40962" lon="-1.17005">
        <ele>3.9</ele>
        <time>2022-06-02T12:42:31Z</time>
      </trkpt>
      <trkpt lat="49.40962" lon="-1.17005">
        <ele>3.9</ele>
        <time>2022-06-02T12:42:32Z</time>
      </trkpt>
      <trkpt lat="49.40962" lon="-1.17005">
        <ele>3.9</ele>
        <time>2022-06-02T12:42:33Z</time>
      </trkpt>
      <trkpt lat="49.40962" lon="-1.17005">
        <ele>3.9</ele>
        <time>2022-06-02T12:42:34Z</time>
      </trkpt>
      <trkpt lat="49.40962" lon="-1.17005">
        <ele>3.9</ele>
        <time>2022-06-02T12:42:35Z</time>
      </trkpt>
      <trkpt lat="49.40962" lon="-1.17005">
        <ele>3.9</ele>
        <time>2022-06-02T12:42:36Z</time>
      </trkpt>
      <trkpt lat="49.40962" lon="-1.17005">
        <ele>3.9</ele>
        <time>2022-06-02T12:42:37Z</time>
      </trkpt>
      <trkpt lat="49.40962" lon="-1.17005">
        <ele>3.9</ele>
        <time>2022-06-02T12:42:38Z</time>
      </trkpt>
      <trkpt lat="49.40962" lon="-1.17005">
        <ele>3.9</ele>
        <time>2022-06-02T12:42:40Z</time>
      </trkpt>
      <trkpt lat="49.40962" lon="-1.17005">
        <ele>3.9</ele>
        <time>2022-06-02T12:42:41Z</time>
      </trkpt>
      <trkpt lat="49.40962" lon="-1.17005">
        <ele>3.9</ele>
        <time>2022-06-02T12:42:43Z</time>
      </trkpt>
      <trkpt lat="49.40961" lon="-1.17006">
        <ele>3.9</ele>
        <time>2022-06-02T12:42:44Z</time>
      </trkpt>
      <trkpt lat="49.40961" lon="-1.17006">
        <ele>3.9</ele>
        <time>2022-06-02T12:42:45Z</time>
      </trkpt>
      <trkpt lat="49.40961" lon="-1.17007">
        <ele>3.8</ele>
        <time>2022-06-02T12:42:47Z</time>
      </trkpt>
      <trkpt lat="49.40962" lon="-1.17007">
        <ele>3.8</ele>
        <time>2022-06-02T12:42:48Z</time>
      </trkpt>
      <trkpt lat="49.40961" lon="-1.17008">
        <ele>3.8</ele>
        <time>2022-06-02T12:42:49Z</time>
      </trkpt>
      <trkpt lat="49.40961" lon="-1.17009">
        <ele>3.8</ele>
        <time>2022-06-02T12:42:50Z</time>
      </trkpt>
      <trkpt lat="49.40961" lon="-1.1701">
        <ele>3.8</ele>
        <time>2022-06-02T12:42:51Z</time>
      </trkpt>
      <trkpt lat="49.4096" lon="-1.17011">
        <ele>3.8</ele>
        <time>2022-06-02T12:42:52Z</time>
      </trkpt>
      <trkpt lat="49.4096" lon="-1.17012">
        <ele>3.8</ele>
        <time>2022-06-02T12:42:53Z</time>
      </trkpt>
      <trkpt lat="49.4096" lon="-1.17012">
        <ele>3.8</ele>
        <time>2022-06-02T12:42:54Z</time>
      </trkpt>
      <trkpt lat="49.40959" lon="-1.17012">
        <ele>3.8</ele>
        <time>2022-06-02T12:42:55Z</time>
      </trkpt>
      <trkpt lat="49.40959" lon="-1.17011">
        <ele>3.8</ele>
        <time>2022-06-02T12:42:56Z</time>
      </trkpt>
      <trkpt lat="49.40959" lon="-1.17011">
        <ele>3.8</ele>
        <time>2022-06-02T12:42:57Z</time>
      </trkpt>
      <trkpt lat="49.40959" lon="-1.1701">
        <ele>3.8</ele>
        <time>2022-06-02T12:42:58Z</time>
      </trkpt>
      <trkpt lat="49.40959" lon="-1.1701">
        <ele>3.8</ele>
        <time>2022-06-02T12:42:59Z</time>
      </trkpt>
      <trkpt lat="49.40959" lon="-1.1701">
        <ele>3.8</ele>
        <time>2022-06-02T12:43:00Z</time>
      </trkpt>
      <trkpt lat="49.40959" lon="-1.1701">
        <ele>3.8</ele>
        <time>2022-06-02T12:43:01Z</time>
      </trkpt>
      <trkpt lat="49.40959" lon="-1.1701">
        <ele>3.8</ele>
        <time>2022-06-02T12:43:02Z</time>
      </trkpt>
      <trkpt lat="49.40959" lon="-1.17011">
        <ele>3.8</ele>
        <time>2022-06-02T12:43:03Z</time>
      </trkpt>
      <trkpt lat="49.40959" lon="-1.1701">
        <ele>3.8</ele>
        <time>2022-06-02T12:43:04Z</time>
      </trkpt>
      <trkpt lat="49.40959" lon="-1.17011">
        <ele>3.8</ele>
        <time>2022-06-02T12:43:05Z</time>
      </trkpt>
      <trkpt lat="49.40959" lon="-1.1701">
        <ele>3.8</ele>
        <time>2022-06-02T12:43:06Z</time>
      </trkpt>
      <trkpt lat="49.40959" lon="-1.1701">
        <ele>3.8</ele>
        <time>2022-06-02T12:43:07Z</time>
      </trkpt>
      <trkpt lat="49.40958" lon="-1.17011">
        <ele>3.8</ele>
        <time>2022-06-02T12:43:08Z</time>
      </trkpt>
      <trkpt lat="49.40958" lon="-1.17012">
        <ele>3.7</ele>
        <time>2022-06-02T12:43:09Z</time>
      </trkpt>
      <trkpt lat="49.40958" lon="-1.17013">
        <ele>3.7</ele>
        <time>2022-06-02T12:43:10Z</time>
      </trkpt>
      <trkpt lat="49.40958" lon="-1.17014">
        <ele>3.7</ele>
        <time>2022-06-02T12:43:11Z</time>
      </trkpt>
      <trkpt lat="49.40958" lon="-1.17016">
        <ele>3.7</ele>
        <time>2022-06-02T12:43:12Z</time>
      </trkpt>
      <trkpt lat="49.40957" lon="-1.17018">
        <ele>3.7</ele>
        <time>2022-06-02T12:43:13Z</time>
      </trkpt>
      <trkpt lat="49.40957" lon="-1.1702">
        <ele>3.7</ele>
        <time>2022-06-02T12:43:14Z</time>
      </trkpt>
      <trkpt lat="49.40956" lon="-1.17023">
        <ele>3.7</ele>
        <time>2022-06-02T12:43:16Z</time>
      </trkpt>
      <trkpt lat="49.40955" lon="-1.17025">
        <ele>3.7</ele>
        <time>2022-06-02T12:43:17Z</time>
      </trkpt>
      <trkpt lat="49.40955" lon="-1.17027">
        <ele>3.7</ele>
        <time>2022-06-02T12:43:18Z</time>
      </trkpt>
      <trkpt lat="49.40955" lon="-1.17028">
        <ele>3.7</ele>
        <time>2022-06-02T12:43:19Z</time>
      </trkpt>
      <trkpt lat="49.40955" lon="-1.1703">
        <ele>3.7</ele>
        <time>2022-06-02T12:43:20Z</time>
      </trkpt>
      <trkpt lat="49.40955" lon="-1.17032">
        <ele>3.6</ele>
        <time>2022-06-02T12:43:21Z</time>
      </trkpt>
      <trkpt lat="49.40955" lon="-1.17034">
        <ele>3.6</ele>
        <time>2022-06-02T12:43:22Z</time>
      </trkpt>
      <trkpt lat="49.40954" lon="-1.17037">
        <ele>3.6</ele>
        <time>2022-06-02T12:43:23Z</time>
      </trkpt>
      <trkpt lat="49.40954" lon="-1.17039">
        <ele>3.5</ele>
        <time>2022-06-02T12:43:24Z</time>
      </trkpt>
      <trkpt lat="49.40954" lon="-1.1704">
        <ele>3.5</ele>
        <time>2022-06-02T12:43:25Z</time>
      </trkpt>
      <trkpt lat="49.40954" lon="-1.17044">
        <ele>3.4</ele>
        <time>2022-06-02T12:43:27Z</time>
      </trkpt>
      <trkpt lat="49.40954" lon="-1.17045">
        <ele>3.4</ele>
        <time>2022-06-02T12:43:28Z</time>
      </trkpt>
      <trkpt lat="49.40954" lon="-1.17046">
        <ele>3.3</ele>
        <time>2022-06-02T12:43:29Z</time>
      </trkpt>
      <trkpt lat="49.40954" lon="-1.17049">
        <ele>3.2</ele>
        <time>2022-06-02T12:43:30Z</time>
      </trkpt>
      <trkpt lat="49.40954" lon="-1.17051">
        <ele>3.1</ele>
        <time>2022-06-02T12:43:31Z</time>
      </trkpt>
      <trkpt lat="49.40954" lon="-1.17054">
        <ele>3</ele>
        <time>2022-06-02T12:43:32Z</time>
      </trkpt>
      <trkpt lat="49.40953" lon="-1.17056">
        <ele>2.9</ele>
        <time>2022-06-02T12:43:33Z</time>
      </trkpt>
      <trkpt lat="49.40953" lon="-1.17059">
        <ele>2.8</ele>
        <time>2022-06-02T12:43:34Z</time>
      </trkpt>
      <trkpt lat="49.40953" lon="-1.17061">
        <ele>2.8</ele>
        <time>2022-06-02T12:43:35Z</time>
      </trkpt>
      <trkpt lat="49.40953" lon="-1.17062">
        <ele>2.7</ele>
        <time>2022-06-02T12:43:37Z</time>
      </trkpt>
      <trkpt lat="49.40952" lon="-1.17064">
        <ele>2.6</ele>
        <time>2022-06-02T12:43:38Z</time>
      </trkpt>
      <trkpt lat="49.40951" lon="-1.17066">
        <ele>2.6</ele>
        <time>2022-06-02T12:43:39Z</time>
      </trkpt>
      <trkpt lat="49.40951" lon="-1.17069">
        <ele>2.5</ele>
        <time>2022-06-02T12:43:40Z</time>
      </trkpt>
      <trkpt lat="49.40951" lon="-1.1707">
        <ele>2.5</ele>
        <time>2022-06-02T12:43:41Z</time>
      </trkpt>
      <trkpt lat="49.40951" lon="-1.17072">
        <ele>2.4</ele>
        <time>2022-06-02T12:43:42Z</time>
      </trkpt>
      <trkpt lat="49.40952" lon="-1.17075">
        <ele>2.4</ele>
        <time>2022-06-02T12:43:43Z</time>
      </trkpt>
      <trkpt lat="49.40952" lon="-1.17076">
        <ele>2.3</ele>
        <time>2022-06-02T12:43:44Z</time>
      </trkpt>
      <trkpt lat="49.40952" lon="-1.17077">
        <ele>2.3</ele>
        <time>2022-06-02T12:43:45Z</time>
      </trkpt>
      <trkpt lat="49.40952" lon="-1.17079">
        <ele>2.3</ele>
        <time>2022-06-02T12:43:46Z</time>
      </trkpt>
      <trkpt lat="49.40953" lon="-1.1708">
        <ele>2.3</ele>
        <time>2022-06-02T12:43:47Z</time>
      </trkpt>
      <trkpt lat="49.40953" lon="-1.17081">
        <ele>2.3</ele>
        <time>2022-06-02T12:43:49Z</time>
      </trkpt>
      <trkpt lat="49.40953" lon="-1.17083">
        <ele>2.3</ele>
        <time>2022-06-02T12:43:50Z</time>
      </trkpt>
      <trkpt lat="49.40953" lon="-1.17084">
        <ele>2.2</ele>
        <time>2022-06-02T12:43:51Z</time>
      </trkpt>
      <trkpt lat="49.40953" lon="-1.17086">
        <ele>2.2</ele>
        <time>2022-06-02T12:43:52Z</time>
      </trkpt>
      <trkpt lat="49.40953" lon="-1.17088">
        <ele>2.2</ele>
        <time>2022-06-02T12:43:53Z</time>
      </trkpt>
      <trkpt lat="49.40953" lon="-1.17089">
        <ele>2.2</ele>
        <time>2022-06-02T12:43:54Z</time>
      </trkpt>
      <trkpt lat="49.40953" lon="-1.17091">
        <ele>2.2</ele>
        <time>2022-06-02T12:43:55Z</time>
      </trkpt>
      <trkpt lat="49.40953" lon="-1.17095">
        <ele>2.2</ele>
        <time>2022-06-02T12:43:57Z</time>
      </trkpt>
      <trkpt lat="49.40952" lon="-1.17096">
        <ele>2.2</ele>
        <time>2022-06-02T12:43:58Z</time>
      </trkpt>
      <trkpt lat="49.40952" lon="-1.17097">
        <ele>2.2</ele>
        <time>2022-06-02T12:43:59Z</time>
      </trkpt>
      <trkpt lat="49.40952" lon="-1.17098">
        <ele>2.2</ele>
        <time>2022-06-02T12:44:00Z</time>
      </trkpt>
      <trkpt lat="49.40952" lon="-1.171">
        <ele>2.2</ele>
        <time>2022-06-02T12:44:01Z</time>
      </trkpt>
      <trkpt lat="49.40952" lon="-1.17102">
        <ele>2.3</ele>
        <time>2022-06-02T12:44:02Z</time>
      </trkpt>
      <trkpt lat="49.40952" lon="-1.17105">
        <ele>2.3</ele>
        <time>2022-06-02T12:44:03Z</time>
      </trkpt>
      <trkpt lat="49.40952" lon="-1.17107">
        <ele>2.3</ele>
        <time>2022-06-02T12:44:04Z</time>
      </trkpt>
      <trkpt lat="49.40952" lon="-1.17108">
        <ele>2.3</ele>
        <time>2022-06-02T12:44:06Z</time>
      </trkpt>
      <trkpt lat="49.40952" lon="-1.1711">
        <ele>2.3</ele>
        <time>2022-06-02T12:44:07Z</time>
      </trkpt>
      <trkpt lat="49.40952" lon="-1.17111">
        <ele>2.3</ele>
        <time>2022-06-02T12:44:08Z</time>
      </trkpt>
      <trkpt lat="49.40952" lon="-1.17113">
        <ele>2.3</ele>
        <time>2022-06-02T12:44:09Z</time>
      </trkpt>
      <trkpt lat="49.40951" lon="-1.17114">
        <ele>2.3</ele>
        <time>2022-06-02T12:44:10Z</time>
      </trkpt>
      <trkpt lat="49.40951" lon="-1.17115">
        <ele>2.3</ele>
        <time>2022-06-02T12:44:11Z</time>
      </trkpt>
      <trkpt lat="49.40951" lon="-1.17117">
        <ele>2.3</ele>
        <time>2022-06-02T12:44:12Z</time>
      </trkpt>
      <trkpt lat="49.40951" lon="-1.1712">
        <ele>2.3</ele>
        <time>2022-06-02T12:44:13Z</time>
      </trkpt>
      <trkpt lat="49.40951" lon="-1.17121">
        <ele>2.3</ele>
        <time>2022-06-02T12:44:14Z</time>
      </trkpt>
      <trkpt lat="49.40951" lon="-1.17122">
        <ele>2.3</ele>
        <time>2022-06-02T12:44:16Z</time>
      </trkpt>
      <trkpt lat="49.40952" lon="-1.17124">
        <ele>2.3</ele>
        <time>2022-06-02T12:44:17Z</time>
      </trkpt>
      <trkpt lat="49.40952" lon="-1.17125">
        <ele>2.3</ele>
        <time>2022-06-02T12:44:18Z</time>
      </trkpt>
      <trkpt lat="49.40952" lon="-1.17126">
        <ele>2.4</ele>
        <time>2022-06-02T12:44:19Z</time>
      </trkpt>
      <trkpt lat="49.40953" lon="-1.17128">
        <ele>2.4</ele>
        <time>2022-06-02T12:44:20Z</time>
      </trkpt>
      <trkpt lat="49.40953" lon="-1.1713">
        <ele>2.4</ele>
        <time>2022-06-02T12:44:21Z</time>
      </trkpt>
      <trkpt lat="49.40953" lon="-1.17131">
        <ele>2.4</ele>
        <time>2022-06-02T12:44:22Z</time>
      </trkpt>
      <trkpt lat="49.40953" lon="-1.17132">
        <ele>2.4</ele>
        <time>2022-06-02T12:44:23Z</time>
      </trkpt>
      <trkpt lat="49.40953" lon="-1.17134">
        <ele>2.4</ele>
        <time>2022-06-02T12:44:24Z</time>
      </trkpt>
      <trkpt lat="49.40953" lon="-1.17136">
        <ele>2.4</ele>
        <time>2022-06-02T12:44:25Z</time>
      </trkpt>
      <trkpt lat="49.40952" lon="-1.17138">
        <ele>2.4</ele>
        <time>2022-06-02T12:44:27Z</time>
      </trkpt>
      <trkpt lat="49.40952" lon="-1.17139">
        <ele>2.4</ele>
        <time>2022-06-02T12:44:28Z</time>
      </trkpt>
      <trkpt lat="49.40951" lon="-1.17141">
        <ele>2.4</ele>
        <time>2022-06-02T12:44:29Z</time>
      </trkpt>
      <trkpt lat="49.4095" lon="-1.17141">
        <ele>2.4</ele>
        <time>2022-06-02T12:44:30Z</time>
      </trkpt>
      <trkpt lat="49.40949" lon="-1.17141">
        <ele>2.4</ele>
        <time>2022-06-02T12:44:31Z</time>
      </trkpt>
      <trkpt lat="49.40947" lon="-1.1714">
        <ele>2.4</ele>
        <time>2022-06-02T12:44:32Z</time>
      </trkpt>
      <trkpt lat="49.40946" lon="-1.17139">
        <ele>2.4</ele>
        <time>2022-06-02T12:44:33Z</time>
      </trkpt>
      <trkpt lat="49.40945" lon="-1.17138">
        <ele>2.4</ele>
        <time>2022-06-02T12:44:35Z</time>
      </trkpt>
      <trkpt lat="49.40943" lon="-1.17137">
        <ele>2.4</ele>
        <time>2022-06-02T12:44:36Z</time>
      </trkpt>
      <trkpt lat="49.40942" lon="-1.17135">
        <ele>2.4</ele>
        <time>2022-06-02T12:44:37Z</time>
      </trkpt>
      <trkpt lat="49.40941" lon="-1.17134">
        <ele>2.5</ele>
        <time>2022-06-02T12:44:38Z</time>
      </trkpt>
      <trkpt lat="49.40939" lon="-1.17133">
        <ele>2.5</ele>
        <time>2022-06-02T12:44:39Z</time>
      </trkpt>
      <trkpt lat="49.40938" lon="-1.17131">
        <ele>2.5</ele>
        <time>2022-06-02T12:44:41Z</time>
      </trkpt>
      <trkpt lat="49.40936" lon="-1.17131">
        <ele>2.5</ele>
        <time>2022-06-02T12:44:42Z</time>
      </trkpt>
      <trkpt lat="49.40934" lon="-1.17131">
        <ele>2.5</ele>
        <time>2022-06-02T12:44:43Z</time>
      </trkpt>
      <trkpt lat="49.40933" lon="-1.17131">
        <ele>2.5</ele>
        <time>2022-06-02T12:44:44Z</time>
      </trkpt>
      <trkpt lat="49.40932" lon="-1.17131">
        <ele>2.5</ele>
        <time>2022-06-02T12:44:45Z</time>
      </trkpt>
      <trkpt lat="49.4093" lon="-1.17131">
        <ele>2.6</ele>
        <time>2022-06-02T12:44:46Z</time>
      </trkpt>
      <trkpt lat="49.40929" lon="-1.17132">
        <ele>2.6</ele>
        <time>2022-06-02T12:44:47Z</time>
      </trkpt>
      <trkpt lat="49.40928" lon="-1.17134">
        <ele>2.6</ele>
        <time>2022-06-02T12:44:49Z</time>
      </trkpt>
      <trkpt lat="49.40926" lon="-1.17135">
        <ele>2.6</ele>
        <time>2022-06-02T12:44:50Z</time>
      </trkpt>
      <trkpt lat="49.40925" lon="-1.17136">
        <ele>2.7</ele>
        <time>2022-06-02T12:44:51Z</time>
      </trkpt>
      <trkpt lat="49.40924" lon="-1.17139">
        <ele>2.7</ele>
        <time>2022-06-02T12:44:52Z</time>
      </trkpt>
      <trkpt lat="49.40923" lon="-1.1714">
        <ele>2.7</ele>
        <time>2022-06-02T12:44:53Z</time>
      </trkpt>
      <trkpt lat="49.40922" lon="-1.17141">
        <ele>2.7</ele>
        <time>2022-06-02T12:44:54Z</time>
      </trkpt>
      <trkpt lat="49.40921" lon="-1.17141">
        <ele>2.7</ele>
        <time>2022-06-02T12:44:55Z</time>
      </trkpt>
      <trkpt lat="49.4092" lon="-1.17141">
        <ele>2.8</ele>
        <time>2022-06-02T12:44:57Z</time>
      </trkpt>
      <trkpt lat="49.40919" lon="-1.17141">
        <ele>2.8</ele>
        <time>2022-06-02T12:44:58Z</time>
      </trkpt>
      <trkpt lat="49.40918" lon="-1.17141">
        <ele>2.8</ele>
        <time>2022-06-02T12:44:59Z</time>
      </trkpt>
      <trkpt lat="49.40917" lon="-1.17141">
        <ele>2.8</ele>
        <time>2022-06-02T12:45:00Z</time>
      </trkpt>
      <trkpt lat="49.40917" lon="-1.17141">
        <ele>2.8</ele>
        <time>2022-06-02T12:45:01Z</time>
      </trkpt>
      <trkpt lat="49.40916" lon="-1.1714">
        <ele>2.8</ele>
        <time>2022-06-02T12:45:02Z</time>
      </trkpt>
      <trkpt lat="49.40915" lon="-1.1714">
        <ele>2.8</ele>
        <time>2022-06-02T12:45:03Z</time>
      </trkpt>
      <trkpt lat="49.40915" lon="-1.1714">
        <ele>2.8</ele>
        <time>2022-06-02T12:45:04Z</time>
      </trkpt>
      <trkpt lat="49.40914" lon="-1.17139">
        <ele>2.9</ele>
        <time>2022-06-02T12:45:05Z</time>
      </trkpt>
      <trkpt lat="49.40913" lon="-1.17138">
        <ele>2.9</ele>
        <time>2022-06-02T12:45:06Z</time>
      </trkpt>
      <trkpt lat="49.40911" lon="-1.17137">
        <ele>2.9</ele>
        <time>2022-06-02T12:45:07Z</time>
      </trkpt>
      <trkpt lat="49.4091" lon="-1.17136">
        <ele>2.9</ele>
        <time>2022-06-02T12:45:08Z</time>
      </trkpt>
      <trkpt lat="49.40909" lon="-1.17136">
        <ele>2.9</ele>
        <time>2022-06-02T12:45:09Z</time>
      </trkpt>
      <trkpt lat="49.40908" lon="-1.17135">
        <ele>2.9</ele>
        <time>2022-06-02T12:45:11Z</time>
      </trkpt>
      <trkpt lat="49.40907" lon="-1.17135">
        <ele>2.9</ele>
        <time>2022-06-02T12:45:12Z</time>
      </trkpt>
      <trkpt lat="49.40906" lon="-1.17135">
        <ele>2.9</ele>
        <time>2022-06-02T12:45:13Z</time>
      </trkpt>
      <trkpt lat="49.40904" lon="-1.17135">
        <ele>2.9</ele>
        <time>2022-06-02T12:45:14Z</time>
      </trkpt>
      <trkpt lat="49.40903" lon="-1.17135">
        <ele>2.9</ele>
        <time>2022-06-02T12:45:16Z</time>
      </trkpt>
      <trkpt lat="49.40902" lon="-1.17135">
        <ele>2.9</ele>
        <time>2022-06-02T12:45:17Z</time>
      </trkpt>
      <trkpt lat="49.40901" lon="-1.17136">
        <ele>2.9</ele>
        <time>2022-06-02T12:45:18Z</time>
      </trkpt>
      <trkpt lat="49.409" lon="-1.17137">
        <ele>2.9</ele>
        <time>2022-06-02T12:45:19Z</time>
      </trkpt>
      <trkpt lat="49.409" lon="-1.17138">
        <ele>2.9</ele>
        <time>2022-06-02T12:45:20Z</time>
      </trkpt>
      <trkpt lat="49.40899" lon="-1.1714">
        <ele>2.9</ele>
        <time>2022-06-02T12:45:21Z</time>
      </trkpt>
      <trkpt lat="49.40899" lon="-1.17143">
        <ele>2.9</ele>
        <time>2022-06-02T12:45:22Z</time>
      </trkpt>
      <trkpt lat="49.40898" lon="-1.17146">
        <ele>2.9</ele>
        <time>2022-06-02T12:45:24Z</time>
      </trkpt>
      <trkpt lat="49.40897" lon="-1.17147">
        <ele>2.9</ele>
        <time>2022-06-02T12:45:25Z</time>
      </trkpt>
      <trkpt lat="49.40897" lon="-1.17148">
        <ele>2.9</ele>
        <time>2022-06-02T12:45:26Z</time>
      </trkpt>
      <trkpt lat="49.40895" lon="-1.1715">
        <ele>2.9</ele>
        <time>2022-06-02T12:45:27Z</time>
      </trkpt>
      <trkpt lat="49.40894" lon="-1.1715">
        <ele>2.9</ele>
        <time>2022-06-02T12:45:28Z</time>
      </trkpt>
      <trkpt lat="49.40894" lon="-1.17151">
        <ele>2.9</ele>
        <time>2022-06-02T12:45:29Z</time>
      </trkpt>
      <trkpt lat="49.40892" lon="-1.17151">
        <ele>2.9</ele>
        <time>2022-06-02T12:45:30Z</time>
      </trkpt>
      <trkpt lat="49.40891" lon="-1.17152">
        <ele>2.9</ele>
        <time>2022-06-02T12:45:32Z</time>
      </trkpt>
      <trkpt lat="49.4089" lon="-1.17152">
        <ele>2.9</ele>
        <time>2022-06-02T12:45:33Z</time>
      </trkpt>
      <trkpt lat="49.40888" lon="-1.17151">
        <ele>2.8</ele>
        <time>2022-06-02T12:45:34Z</time>
      </trkpt>
      <trkpt lat="49.40887" lon="-1.17152">
        <ele>2.8</ele>
        <time>2022-06-02T12:45:35Z</time>
      </trkpt>
      <trkpt lat="49.40886" lon="-1.17152">
        <ele>2.8</ele>
        <time>2022-06-02T12:45:36Z</time>
      </trkpt>
      <trkpt lat="49.40886" lon="-1.17154">
        <ele>2.8</ele>
        <time>2022-06-02T12:45:38Z</time>
      </trkpt>
      <trkpt lat="49.40886" lon="-1.17156">
        <ele>2.8</ele>
        <time>2022-06-02T12:45:39Z</time>
      </trkpt>
      <trkpt lat="49.40886" lon="-1.17158">
        <ele>2.8</ele>
        <time>2022-06-02T12:45:40Z</time>
      </trkpt>
      <trkpt lat="49.40887" lon="-1.1716">
        <ele>2.8</ele>
        <time>2022-06-02T12:45:41Z</time>
      </trkpt>
      <trkpt lat="49.40888" lon="-1.17163">
        <ele>2.8</ele>
        <time>2022-06-02T12:45:42Z</time>
      </trkpt>
      <trkpt lat="49.40888" lon="-1.17164">
        <ele>2.8</ele>
        <time>2022-06-02T12:45:43Z</time>
      </trkpt>
      <trkpt lat="49.40888" lon="-1.17165">
        <ele>2.8</ele>
        <time>2022-06-02T12:45:44Z</time>
      </trkpt>
      <trkpt lat="49.40889" lon="-1.17167">
        <ele>2.9</ele>
        <time>2022-06-02T12:45:45Z</time>
      </trkpt>
      <trkpt lat="49.4089" lon="-1.1717">
        <ele>2.9</ele>
        <time>2022-06-02T12:45:47Z</time>
      </trkpt>
      <trkpt lat="49.4089" lon="-1.17172">
        <ele>2.9</ele>
        <time>2022-06-02T12:45:48Z</time>
      </trkpt>
      <trkpt lat="49.40891" lon="-1.17173">
        <ele>2.9</ele>
        <time>2022-06-02T12:45:49Z</time>
      </trkpt>
      <trkpt lat="49.40891" lon="-1.17174">
        <ele>2.9</ele>
        <time>2022-06-02T12:45:51Z</time>
      </trkpt>
      <trkpt lat="49.40892" lon="-1.17176">
        <ele>2.9</ele>
        <time>2022-06-02T12:45:52Z</time>
      </trkpt>
      <trkpt lat="49.40893" lon="-1.17177">
        <ele>2.9</ele>
        <time>2022-06-02T12:45:53Z</time>
      </trkpt>
      <trkpt lat="49.40893" lon="-1.17178">
        <ele>2.9</ele>
        <time>2022-06-02T12:45:54Z</time>
      </trkpt>
      <trkpt lat="49.40894" lon="-1.17181">
        <ele>2.9</ele>
        <time>2022-06-02T12:45:55Z</time>
      </trkpt>
      <trkpt lat="49.40895" lon="-1.17182">
        <ele>2.9</ele>
        <time>2022-06-02T12:45:56Z</time>
      </trkpt>
      <trkpt lat="49.40895" lon="-1.17183">
        <ele>2.9</ele>
        <time>2022-06-02T12:45:57Z</time>
      </trkpt>
      <trkpt lat="49.40896" lon="-1.17184">
        <ele>2.9</ele>
        <time>2022-06-02T12:45:59Z</time>
      </trkpt>
      <trkpt lat="49.40896" lon="-1.17186">
        <ele>2.9</ele>
        <time>2022-06-02T12:46:00Z</time>
      </trkpt>
      <trkpt lat="49.40897" lon="-1.17187">
        <ele>2.9</ele>
        <time>2022-06-02T12:46:01Z</time>
      </trkpt>
      <trkpt lat="49.40898" lon="-1.1719">
        <ele>2.9</ele>
        <time>2022-06-02T12:46:02Z</time>
      </trkpt>
      <trkpt lat="49.40898" lon="-1.17191">
        <ele>2.9</ele>
        <time>2022-06-02T12:46:03Z</time>
      </trkpt>
      <trkpt lat="49.40899" lon="-1.17193">
        <ele>2.9</ele>
        <time>2022-06-02T12:46:04Z</time>
      </trkpt>
      <trkpt lat="49.409" lon="-1.17195">
        <ele>3</ele>
        <time>2022-06-02T12:46:05Z</time>
      </trkpt>
      <trkpt lat="49.40901" lon="-1.17197">
        <ele>3</ele>
        <time>2022-06-02T12:46:07Z</time>
      </trkpt>
      <trkpt lat="49.40901" lon="-1.17198">
        <ele>3</ele>
        <time>2022-06-02T12:46:08Z</time>
      </trkpt>
      <trkpt lat="49.40902" lon="-1.172">
        <ele>3</ele>
        <time>2022-06-02T12:46:09Z</time>
      </trkpt>
      <trkpt lat="49.40902" lon="-1.17203">
        <ele>3</ele>
        <time>2022-06-02T12:46:10Z</time>
      </trkpt>
      <trkpt lat="49.40902" lon="-1.17204">
        <ele>2.9</ele>
        <time>2022-06-02T12:46:11Z</time>
      </trkpt>
      <trkpt lat="49.40902" lon="-1.17206">
        <ele>2.9</ele>
        <time>2022-06-02T12:46:12Z</time>
      </trkpt>
      <trkpt lat="49.40903" lon="-1.17209">
        <ele>2.9</ele>
        <time>2022-06-02T12:46:13Z</time>
      </trkpt>
      <trkpt lat="49.40903" lon="-1.17211">
        <ele>2.9</ele>
        <time>2022-06-02T12:46:14Z</time>
      </trkpt>
      <trkpt lat="49.40904" lon="-1.17212">
        <ele>2.9</ele>
        <time>2022-06-02T12:46:16Z</time>
      </trkpt>
      <trkpt lat="49.40904" lon="-1.17213">
        <ele>2.9</ele>
        <time>2022-06-02T12:46:17Z</time>
      </trkpt>
      <trkpt lat="49.40904" lon="-1.17215">
        <ele>2.9</ele>
        <time>2022-06-02T12:46:18Z</time>
      </trkpt>
      <trkpt lat="49.40905" lon="-1.17216">
        <ele>2.9</ele>
        <time>2022-06-02T12:46:19Z</time>
      </trkpt>
      <trkpt lat="49.40906" lon="-1.17219">
        <ele>2.9</ele>
        <time>2022-06-02T12:46:20Z</time>
      </trkpt>
      <trkpt lat="49.40906" lon="-1.1722">
        <ele>2.9</ele>
        <time>2022-06-02T12:46:21Z</time>
      </trkpt>
      <trkpt lat="49.40907" lon="-1.17221">
        <ele>2.9</ele>
        <time>2022-06-02T12:46:22Z</time>
      </trkpt>
      <trkpt lat="49.40907" lon="-1.17222">
        <ele>2.9</ele>
        <time>2022-06-02T12:46:23Z</time>
      </trkpt>
      <trkpt lat="49.40908" lon="-1.17224">
        <ele>2.9</ele>
        <time>2022-06-02T12:46:25Z</time>
      </trkpt>
      <trkpt lat="49.40908" lon="-1.17225">
        <ele>2.9</ele>
        <time>2022-06-02T12:46:26Z</time>
      </trkpt>
      <trkpt lat="49.40909" lon="-1.17228">
        <ele>2.9</ele>
        <time>2022-06-02T12:46:27Z</time>
      </trkpt>
      <trkpt lat="49.40909" lon="-1.1723">
        <ele>2.9</ele>
        <time>2022-06-02T12:46:28Z</time>
      </trkpt>
      <trkpt lat="49.4091" lon="-1.17233">
        <ele>2.9</ele>
        <time>2022-06-02T12:46:29Z</time>
      </trkpt>
      <trkpt lat="49.4091" lon="-1.17234">
        <ele>2.9</ele>
        <time>2022-06-02T12:46:30Z</time>
      </trkpt>
      <trkpt lat="49.40911" lon="-1.17235">
        <ele>2.9</ele>
        <time>2022-06-02T12:46:31Z</time>
      </trkpt>
      <trkpt lat="49.40912" lon="-1.17238">
        <ele>2.9</ele>
        <time>2022-06-02T12:46:32Z</time>
      </trkpt>
      <trkpt lat="49.40912" lon="-1.17238">
        <ele>2.9</ele>
        <time>2022-06-02T12:46:34Z</time>
      </trkpt>
      <trkpt lat="49.40912" lon="-1.1724">
        <ele>2.9</ele>
        <time>2022-06-02T12:46:35Z</time>
      </trkpt>
      <trkpt lat="49.40913" lon="-1.17243">
        <ele>2.9</ele>
        <time>2022-06-02T12:46:36Z</time>
      </trkpt>
      <trkpt lat="49.40913" lon="-1.17244">
        <ele>2.9</ele>
        <time>2022-06-02T12:46:37Z</time>
      </trkpt>
      <trkpt lat="49.40913" lon="-1.17245">
        <ele>2.9</ele>
        <time>2022-06-02T12:46:38Z</time>
      </trkpt>
      <trkpt lat="49.40913" lon="-1.17247">
        <ele>2.9</ele>
        <time>2022-06-02T12:46:39Z</time>
      </trkpt>
      <trkpt lat="49.40913" lon="-1.17249">
        <ele>2.9</ele>
        <time>2022-06-02T12:46:40Z</time>
      </trkpt>
      <trkpt lat="49.40914" lon="-1.1725">
        <ele>2.9</ele>
        <time>2022-06-02T12:46:41Z</time>
      </trkpt>
      <trkpt lat="49.40914" lon="-1.17252">
        <ele>2.9</ele>
        <time>2022-06-02T12:46:42Z</time>
      </trkpt>
      <trkpt lat="49.40914" lon="-1.17253">
        <ele>2.9</ele>
        <time>2022-06-02T12:46:44Z</time>
      </trkpt>
      <trkpt lat="49.40915" lon="-1.17254">
        <ele>2.9</ele>
        <time>2022-06-02T12:46:45Z</time>
      </trkpt>
      <trkpt lat="49.40915" lon="-1.17256">
        <ele>2.9</ele>
        <time>2022-06-02T12:46:46Z</time>
      </trkpt>
      <trkpt lat="49.40916" lon="-1.17257">
        <ele>2.9</ele>
        <time>2022-06-02T12:46:47Z</time>
      </trkpt>
      <trkpt lat="49.40916" lon="-1.17259">
        <ele>2.9</ele>
        <time>2022-06-02T12:46:48Z</time>
      </trkpt>
      <trkpt lat="49.40917" lon="-1.17261">
        <ele>2.9</ele>
        <time>2022-06-02T12:46:49Z</time>
      </trkpt>
      <trkpt lat="49.40917" lon="-1.17262">
        <ele>2.9</ele>
        <time>2022-06-02T12:46:50Z</time>
      </trkpt>
      <trkpt lat="49.40918" lon="-1.17264">
        <ele>2.9</ele>
        <time>2022-06-02T12:46:51Z</time>
      </trkpt>
      <trkpt lat="49.40918" lon="-1.17266">
        <ele>2.8</ele>
        <time>2022-06-02T12:46:53Z</time>
      </trkpt>
      <trkpt lat="49.40919" lon="-1.17267">
        <ele>2.8</ele>
        <time>2022-06-02T12:46:54Z</time>
      </trkpt>
      <trkpt lat="49.40919" lon="-1.17268">
        <ele>2.8</ele>
        <time>2022-06-02T12:46:55Z</time>
      </trkpt>
      <trkpt lat="49.4092" lon="-1.1727">
        <ele>2.8</ele>
        <time>2022-06-02T12:46:56Z</time>
      </trkpt>
      <trkpt lat="49.40921" lon="-1.17272">
        <ele>2.8</ele>
        <time>2022-06-02T12:46:58Z</time>
      </trkpt>
      <trkpt lat="49.40921" lon="-1.17274">
        <ele>2.8</ele>
        <time>2022-06-02T12:46:59Z</time>
      </trkpt>
      <trkpt lat="49.40922" lon="-1.17275">
        <ele>2.8</ele>
        <time>2022-06-02T12:47:00Z</time>
      </trkpt>
      <trkpt lat="49.40922" lon="-1.17277">
        <ele>2.8</ele>
        <time>2022-06-02T12:47:01Z</time>
      </trkpt>
      <trkpt lat="49.40922" lon="-1.17278">
        <ele>2.8</ele>
        <time>2022-06-02T12:47:02Z</time>
      </trkpt>
      <trkpt lat="49.40922" lon="-1.17281">
        <ele>2.8</ele>
        <time>2022-06-02T12:47:03Z</time>
      </trkpt>
      <trkpt lat="49.40922" lon="-1.17282">
        <ele>2.8</ele>
        <time>2022-06-02T12:47:04Z</time>
      </trkpt>
      <trkpt lat="49.40923" lon="-1.17285">
        <ele>2.9</ele>
        <time>2022-06-02T12:47:05Z</time>
      </trkpt>
      <trkpt lat="49.40923" lon="-1.17287">
        <ele>2.9</ele>
        <time>2022-06-02T12:47:07Z</time>
      </trkpt>
      <trkpt lat="49.40923" lon="-1.17289">
        <ele>2.9</ele>
        <time>2022-06-02T12:47:08Z</time>
      </trkpt>
      <trkpt lat="49.40923" lon="-1.17291">
        <ele>2.9</ele>
        <time>2022-06-02T12:47:09Z</time>
      </trkpt>
      <trkpt lat="49.40923" lon="-1.17292">
        <ele>3</ele>
        <time>2022-06-02T12:47:10Z</time>
      </trkpt>
      <trkpt lat="49.40923" lon="-1.17293">
        <ele>3</ele>
        <time>2022-06-02T12:47:11Z</time>
      </trkpt>
      <trkpt lat="49.40924" lon="-1.17294">
        <ele>3</ele>
        <time>2022-06-02T12:47:12Z</time>
      </trkpt>
      <trkpt lat="49.40924" lon="-1.17295">
        <ele>3</ele>
        <time>2022-06-02T12:47:13Z</time>
      </trkpt>
      <trkpt lat="49.40924" lon="-1.17296">
        <ele>3</ele>
        <time>2022-06-02T12:47:15Z</time>
      </trkpt>
      <trkpt lat="49.40925" lon="-1.17298">
        <ele>3</ele>
        <time>2022-06-02T12:47:16Z</time>
      </trkpt>
      <trkpt lat="49.40925" lon="-1.17299">
        <ele>3</ele>
        <time>2022-06-02T12:47:17Z</time>
      </trkpt>
      <trkpt lat="49.40926" lon="-1.17301">
        <ele>3.1</ele>
        <time>2022-06-02T12:47:18Z</time>
      </trkpt>
      <trkpt lat="49.40926" lon="-1.17302">
        <ele>3.1</ele>
        <time>2022-06-02T12:47:19Z</time>
      </trkpt>
      <trkpt lat="49.40926" lon="-1.17303">
        <ele>3.1</ele>
        <time>2022-06-02T12:47:20Z</time>
      </trkpt>
      <trkpt lat="49.40927" lon="-1.17305">
        <ele>3.1</ele>
        <time>2022-06-02T12:47:21Z</time>
      </trkpt>
      <trkpt lat="49.40927" lon="-1.17307">
        <ele>3.1</ele>
        <time>2022-06-02T12:47:22Z</time>
      </trkpt>
      <trkpt lat="49.40927" lon="-1.17308">
        <ele>3.1</ele>
        <time>2022-06-02T12:47:23Z</time>
      </trkpt>
      <trkpt lat="49.40928" lon="-1.17309">
        <ele>3.1</ele>
        <time>2022-06-02T12:47:25Z</time>
      </trkpt>
      <trkpt lat="49.40928" lon="-1.17311">
        <ele>3.2</ele>
        <time>2022-06-02T12:47:26Z</time>
      </trkpt>
      <trkpt lat="49.40929" lon="-1.17312">
        <ele>3.2</ele>
        <time>2022-06-02T12:47:27Z</time>
      </trkpt>
      <trkpt lat="49.40929" lon="-1.17314">
        <ele>3.2</ele>
        <time>2022-06-02T12:47:28Z</time>
      </trkpt>
      <trkpt lat="49.4093" lon="-1.17315">
        <ele>3.2</ele>
        <time>2022-06-02T12:47:29Z</time>
      </trkpt>
      <trkpt lat="49.4093" lon="-1.17316">
        <ele>3.2</ele>
        <time>2022-06-02T12:47:30Z</time>
      </trkpt>
      <trkpt lat="49.40931" lon="-1.17318">
        <ele>3.2</ele>
        <time>2022-06-02T12:47:31Z</time>
      </trkpt>
      <trkpt lat="49.40932" lon="-1.1732">
        <ele>3.2</ele>
        <time>2022-06-02T12:47:33Z</time>
      </trkpt>
      <trkpt lat="49.40932" lon="-1.17322">
        <ele>3.2</ele>
        <time>2022-06-02T12:47:34Z</time>
      </trkpt>
      <trkpt lat="49.40933" lon="-1.17323">
        <ele>3.2</ele>
        <time>2022-06-02T12:47:35Z</time>
      </trkpt>
      <trkpt lat="49.40933" lon="-1.17325">
        <ele>3.2</ele>
        <time>2022-06-02T12:47:36Z</time>
      </trkpt>
      <trkpt lat="49.40934" lon="-1.17326">
        <ele>3.2</ele>
        <time>2022-06-02T12:47:37Z</time>
      </trkpt>
      <trkpt lat="49.40934" lon="-1.17328">
        <ele>3.1</ele>
        <time>2022-06-02T12:47:38Z</time>
      </trkpt>
      <trkpt lat="49.40935" lon="-1.17329">
        <ele>3.1</ele>
        <time>2022-06-02T12:47:39Z</time>
      </trkpt>
      <trkpt lat="49.40936" lon="-1.1733">
        <ele>3.1</ele>
        <time>2022-06-02T12:47:40Z</time>
      </trkpt>
      <trkpt lat="49.40936" lon="-1.17332">
        <ele>3.1</ele>
        <time>2022-06-02T12:47:42Z</time>
      </trkpt>
      <trkpt lat="49.40936" lon="-1.17334">
        <ele>3.1</ele>
        <time>2022-06-02T12:47:43Z</time>
      </trkpt>
      <trkpt lat="49.40937" lon="-1.17335">
        <ele>3.1</ele>
        <time>2022-06-02T12:47:44Z</time>
      </trkpt>
      <trkpt lat="49.40937" lon="-1.17337">
        <ele>3.1</ele>
        <time>2022-06-02T12:47:45Z</time>
      </trkpt>
      <trkpt lat="49.40938" lon="-1.17338">
        <ele>3.1</ele>
        <time>2022-06-02T12:47:46Z</time>
      </trkpt>
      <trkpt lat="49.40939" lon="-1.17339">
        <ele>3.1</ele>
        <time>2022-06-02T12:47:47Z</time>
      </trkpt>
      <trkpt lat="49.4094" lon="-1.1734">
        <ele>3.1</ele>
        <time>2022-06-02T12:47:49Z</time>
      </trkpt>
      <trkpt lat="49.40941" lon="-1.1734">
        <ele>3.1</ele>
        <time>2022-06-02T12:47:50Z</time>
      </trkpt>
      <trkpt lat="49.40942" lon="-1.17341">
        <ele>3.1</ele>
        <time>2022-06-02T12:47:51Z</time>
      </trkpt>
      <trkpt lat="49.40942" lon="-1.17343">
        <ele>3.1</ele>
        <time>2022-06-02T12:47:52Z</time>
      </trkpt>
      <trkpt lat="49.40943" lon="-1.17345">
        <ele>3.1</ele>
        <time>2022-06-02T12:47:53Z</time>
      </trkpt>
      <trkpt lat="49.40943" lon="-1.17346">
        <ele>3.1</ele>
        <time>2022-06-02T12:47:54Z</time>
      </trkpt>
      <trkpt lat="49.40943" lon="-1.17348">
        <ele>3.1</ele>
        <time>2022-06-02T12:47:55Z</time>
      </trkpt>
      <trkpt lat="49.40943" lon="-1.1735">
        <ele>3.1</ele>
        <time>2022-06-02T12:47:57Z</time>
      </trkpt>
      <trkpt lat="49.40943" lon="-1.17352">
        <ele>3.1</ele>
        <time>2022-06-02T12:47:58Z</time>
      </trkpt>
      <trkpt lat="49.40943" lon="-1.17353">
        <ele>3.1</ele>
        <time>2022-06-02T12:47:59Z</time>
      </trkpt>
      <trkpt lat="49.40943" lon="-1.17354">
        <ele>3.1</ele>
        <time>2022-06-02T12:48:00Z</time>
      </trkpt>
      <trkpt lat="49.40943" lon="-1.17356">
        <ele>3.1</ele>
        <time>2022-06-02T12:48:01Z</time>
      </trkpt>
      <trkpt lat="49.40944" lon="-1.17356">
        <ele>3.1</ele>
        <time>2022-06-02T12:48:02Z</time>
      </trkpt>
      <trkpt lat="49.40945" lon="-1.17357">
        <ele>3.1</ele>
        <time>2022-06-02T12:48:04Z</time>
      </trkpt>
      <trkpt lat="49.40946" lon="-1.17357">
        <ele>3.1</ele>
        <time>2022-06-02T12:48:05Z</time>
      </trkpt>
      <trkpt lat="49.40947" lon="-1.17357">
        <ele>3.1</ele>
        <time>2022-06-02T12:48:06Z</time>
      </trkpt>
      <trkpt lat="49.40949" lon="-1.17357">
        <ele>3.1</ele>
        <time>2022-06-02T12:48:07Z</time>
      </trkpt>
      <trkpt lat="49.4095" lon="-1.17358">
        <ele>3.1</ele>
        <time>2022-06-02T12:48:09Z</time>
      </trkpt>
      <trkpt lat="49.4095" lon="-1.17359">
        <ele>3.1</ele>
        <time>2022-06-02T12:48:10Z</time>
      </trkpt>
      <trkpt lat="49.40951" lon="-1.1736">
        <ele>3.1</ele>
        <time>2022-06-02T12:48:11Z</time>
      </trkpt>
      <trkpt lat="49.40951" lon="-1.17361">
        <ele>3.1</ele>
        <time>2022-06-02T12:48:12Z</time>
      </trkpt>
      <trkpt lat="49.40952" lon="-1.17363">
        <ele>3.2</ele>
        <time>2022-06-02T12:48:13Z</time>
      </trkpt>
      <trkpt lat="49.40953" lon="-1.17364">
        <ele>3.2</ele>
        <time>2022-06-02T12:48:15Z</time>
      </trkpt>
      <trkpt lat="49.40953" lon="-1.17365">
        <ele>3.2</ele>
        <time>2022-06-02T12:48:16Z</time>
      </trkpt>
      <trkpt lat="49.40954" lon="-1.17367">
        <ele>3.2</ele>
        <time>2022-06-02T12:48:17Z</time>
      </trkpt>
      <trkpt lat="49.40955" lon="-1.17368">
        <ele>3.2</ele>
        <time>2022-06-02T12:48:18Z</time>
      </trkpt>
      <trkpt lat="49.40956" lon="-1.1737">
        <ele>3.3</ele>
        <time>2022-06-02T12:48:19Z</time>
      </trkpt>
      <trkpt lat="49.40957" lon="-1.17371">
        <ele>3.3</ele>
        <time>2022-06-02T12:48:20Z</time>
      </trkpt>
      <trkpt lat="49.40957" lon="-1.17372">
        <ele>3.3</ele>
        <time>2022-06-02T12:48:22Z</time>
      </trkpt>
      <trkpt lat="49.40958" lon="-1.17373">
        <ele>3.4</ele>
        <time>2022-06-02T12:48:23Z</time>
      </trkpt>
      <trkpt lat="49.40959" lon="-1.17374">
        <ele>3.4</ele>
        <time>2022-06-02T12:48:24Z</time>
      </trkpt>
      <trkpt lat="49.40959" lon="-1.17376">
        <ele>3.4</ele>
        <time>2022-06-02T12:48:25Z</time>
      </trkpt>
      <trkpt lat="49.4096" lon="-1.17379">
        <ele>3.5</ele>
        <time>2022-06-02T12:48:27Z</time>
      </trkpt>
      <trkpt lat="49.4096" lon="-1.1738">
        <ele>3.6</ele>
        <time>2022-06-02T12:48:29Z</time>
      </trkpt>
      <trkpt lat="49.4096" lon="-1.17382">
        <ele>3.6</ele>
        <time>2022-06-02T12:48:30Z</time>
      </trkpt>
      <trkpt lat="49.4096" lon="-1.17383">
        <ele>3.7</ele>
        <time>2022-06-02T12:48:31Z</time>
      </trkpt>
      <trkpt lat="49.4096" lon="-1.17384">
        <ele>3.7</ele>
        <time>2022-06-02T12:48:32Z</time>
      </trkpt>
      <trkpt lat="49.4096" lon="-1.17386">
        <ele>3.7</ele>
        <time>2022-06-02T12:48:33Z</time>
      </trkpt>
      <trkpt lat="49.4096" lon="-1.17387">
        <ele>3.7</ele>
        <time>2022-06-02T12:48:34Z</time>
      </trkpt>
      <trkpt lat="49.4096" lon="-1.17387">
        <ele>3.7</ele>
        <time>2022-06-02T12:48:35Z</time>
      </trkpt>
      <trkpt lat="49.40959" lon="-1.17387">
        <ele>3.7</ele>
        <time>2022-06-02T12:48:36Z</time>
      </trkpt>
      <trkpt lat="49.40959" lon="-1.17387">
        <ele>3.7</ele>
        <time>2022-06-02T12:48:37Z</time>
      </trkpt>
      <trkpt lat="49.40959" lon="-1.17387">
        <ele>3.7</ele>
        <time>2022-06-02T12:48:39Z</time>
      </trkpt>
      <trkpt lat="49.40958" lon="-1.17387">
        <ele>3.7</ele>
        <time>2022-06-02T12:48:40Z</time>
      </trkpt>
      <trkpt lat="49.40958" lon="-1.17387">
        <ele>3.7</ele>
        <time>2022-06-02T12:48:41Z</time>
      </trkpt>
      <trkpt lat="49.40957" lon="-1.17387">
        <ele>3.7</ele>
        <time>2022-06-02T12:48:42Z</time>
      </trkpt>
      <trkpt lat="49.40957" lon="-1.17387">
        <ele>3.7</ele>
        <time>2022-06-02T12:48:43Z</time>
      </trkpt>
      <trkpt lat="49.40957" lon="-1.17387">
        <ele>3.7</ele>
        <time>2022-06-02T12:48:44Z</time>
      </trkpt>
      <trkpt lat="49.40956" lon="-1.17387">
        <ele>3.7</ele>
        <time>2022-06-02T12:48:45Z</time>
      </trkpt>
      <trkpt lat="49.40956" lon="-1.17387">
        <ele>3.7</ele>
        <time>2022-06-02T12:48:46Z</time>
      </trkpt>
      <trkpt lat="49.40956" lon="-1.17387">
        <ele>3.7</ele>
        <time>2022-06-02T12:48:47Z</time>
      </trkpt>
      <trkpt lat="49.40955" lon="-1.17387">
        <ele>3.7</ele>
        <time>2022-06-02T12:48:49Z</time>
      </trkpt>
      <trkpt lat="49.40955" lon="-1.17387">
        <ele>3.7</ele>
        <time>2022-06-02T12:48:50Z</time>
      </trkpt>
      <trkpt lat="49.40955" lon="-1.17387">
        <ele>3.7</ele>
        <time>2022-06-02T12:48:51Z</time>
      </trkpt>
      <trkpt lat="49.40954" lon="-1.17387">
        <ele>3.7</ele>
        <time>2022-06-02T12:48:52Z</time>
      </trkpt>
      <trkpt lat="49.40954" lon="-1.17387">
        <ele>3.7</ele>
        <time>2022-06-02T12:48:53Z</time>
      </trkpt>
      <trkpt lat="49.40953" lon="-1.17386">
        <ele>3.7</ele>
        <time>2022-06-02T12:48:55Z</time>
      </trkpt>
      <trkpt lat="49.40952" lon="-1.17386">
        <ele>3.7</ele>
        <time>2022-06-02T12:48:56Z</time>
      </trkpt>
      <trkpt lat="49.40951" lon="-1.17386">
        <ele>3.7</ele>
        <time>2022-06-02T12:48:57Z</time>
      </trkpt>
      <trkpt lat="49.4095" lon="-1.17385">
        <ele>3.7</ele>
        <time>2022-06-02T12:48:58Z</time>
      </trkpt>
      <trkpt lat="49.40949" lon="-1.17385">
        <ele>3.7</ele>
        <time>2022-06-02T12:48:59Z</time>
      </trkpt>
      <trkpt lat="49.40948" lon="-1.17386">
        <ele>3.7</ele>
        <time>2022-06-02T12:49:00Z</time>
      </trkpt>
      <trkpt lat="49.40946" lon="-1.17387">
        <ele>3.7</ele>
        <time>2022-06-02T12:49:01Z</time>
      </trkpt>
      <trkpt lat="49.40945" lon="-1.17387">
        <ele>3.7</ele>
        <time>2022-06-02T12:49:02Z</time>
      </trkpt>
      <trkpt lat="49.40944" lon="-1.17387">
        <ele>3.7</ele>
        <time>2022-06-02T12:49:03Z</time>
      </trkpt>
      <trkpt lat="49.40944" lon="-1.17387">
        <ele>3.7</ele>
        <time>2022-06-02T12:49:04Z</time>
      </trkpt>
      <trkpt lat="49.40942" lon="-1.17388">
        <ele>3.7</ele>
        <time>2022-06-02T12:49:06Z</time>
      </trkpt>
      <trkpt lat="49.40941" lon="-1.17388">
        <ele>3.7</ele>
        <time>2022-06-02T12:49:07Z</time>
      </trkpt>
      <trkpt lat="49.4094" lon="-1.17388">
        <ele>3.7</ele>
        <time>2022-06-02T12:49:08Z</time>
      </trkpt>
      <trkpt lat="49.40939" lon="-1.17388">
        <ele>3.7</ele>
        <time>2022-06-02T12:49:09Z</time>
      </trkpt>
      <trkpt lat="49.40938" lon="-1.17388">
        <ele>3.7</ele>
        <time>2022-06-02T12:49:10Z</time>
      </trkpt>
      <trkpt lat="49.40937" lon="-1.17389">
        <ele>3.7</ele>
        <time>2022-06-02T12:49:11Z</time>
      </trkpt>
      <trkpt lat="49.40935" lon="-1.17389">
        <ele>3.7</ele>
        <time>2022-06-02T12:49:12Z</time>
      </trkpt>
      <trkpt lat="49.40932" lon="-1.1739">
        <ele>3.7</ele>
        <time>2022-06-02T12:49:14Z</time>
      </trkpt>
      <trkpt lat="49.40931" lon="-1.1739">
        <ele>3.7</ele>
        <time>2022-06-02T12:49:15Z</time>
      </trkpt>
      <trkpt lat="49.40928" lon="-1.1739">
        <ele>3.7</ele>
        <time>2022-06-02T12:49:16Z</time>
      </trkpt>
      <trkpt lat="49.40927" lon="-1.1739">
        <ele>3.7</ele>
        <time>2022-06-02T12:49:17Z</time>
      </trkpt>
      <trkpt lat="49.40925" lon="-1.1739">
        <ele>3.7</ele>
        <time>2022-06-02T12:49:18Z</time>
      </trkpt>
      <trkpt lat="49.40924" lon="-1.17391">
        <ele>3.7</ele>
        <time>2022-06-02T12:49:19Z</time>
      </trkpt>
      <trkpt lat="49.40922" lon="-1.17391">
        <ele>3.7</ele>
        <time>2022-06-02T12:49:20Z</time>
      </trkpt>
      <trkpt lat="49.4092" lon="-1.17391">
        <ele>3.7</ele>
        <time>2022-06-02T12:49:21Z</time>
      </trkpt>
      <trkpt lat="49.40918" lon="-1.17391">
        <ele>3.7</ele>
        <time>2022-06-02T12:49:23Z</time>
      </trkpt>
      <trkpt lat="49.40917" lon="-1.17391">
        <ele>3.7</ele>
        <time>2022-06-02T12:49:24Z</time>
      </trkpt>
      <trkpt lat="49.40916" lon="-1.17391">
        <ele>3.6</ele>
        <time>2022-06-02T12:49:25Z</time>
      </trkpt>
      <trkpt lat="49.40914" lon="-1.17391">
        <ele>3.6</ele>
        <time>2022-06-02T12:49:26Z</time>
      </trkpt>
      <trkpt lat="49.40912" lon="-1.17392">
        <ele>3.6</ele>
        <time>2022-06-02T12:49:27Z</time>
      </trkpt>
      <trkpt lat="49.40911" lon="-1.17392">
        <ele>3.6</ele>
        <time>2022-06-02T12:49:28Z</time>
      </trkpt>
      <trkpt lat="49.4091" lon="-1.17392">
        <ele>3.6</ele>
        <time>2022-06-02T12:49:29Z</time>
      </trkpt>
      <trkpt lat="49.40909" lon="-1.17392">
        <ele>3.6</ele>
        <time>2022-06-02T12:49:31Z</time>
      </trkpt>
      <trkpt lat="49.40908" lon="-1.17392">
        <ele>3.6</ele>
        <time>2022-06-02T12:49:32Z</time>
      </trkpt>
      <trkpt lat="49.40906" lon="-1.17392">
        <ele>3.6</ele>
        <time>2022-06-02T12:49:33Z</time>
      </trkpt>
      <trkpt lat="49.40905" lon="-1.17392">
        <ele>3.6</ele>
        <time>2022-06-02T12:49:34Z</time>
      </trkpt>
      <trkpt lat="49.40904" lon="-1.17393">
        <ele>3.6</ele>
        <time>2022-06-02T12:49:35Z</time>
      </trkpt>
      <trkpt lat="49.40903" lon="-1.17393">
        <ele>3.6</ele>
        <time>2022-06-02T12:49:36Z</time>
      </trkpt>
      <trkpt lat="49.40902" lon="-1.17393">
        <ele>3.6</ele>
        <time>2022-06-02T12:49:37Z</time>
      </trkpt>
      <trkpt lat="49.409" lon="-1.17393">
        <ele>3.6</ele>
        <time>2022-06-02T12:49:38Z</time>
      </trkpt>
      <trkpt lat="49.40899" lon="-1.17393">
        <ele>3.6</ele>
        <time>2022-06-02T12:49:39Z</time>
      </trkpt>
      <trkpt lat="49.40898" lon="-1.17393">
        <ele>3.6</ele>
        <time>2022-06-02T12:49:40Z</time>
      </trkpt>
      <trkpt lat="49.40897" lon="-1.17393">
        <ele>3.5</ele>
        <time>2022-06-02T12:49:41Z</time>
      </trkpt>
      <trkpt lat="49.40895" lon="-1.17393">
        <ele>3.5</ele>
        <time>2022-06-02T12:49:42Z</time>
      </trkpt>
      <trkpt lat="49.40894" lon="-1.17393">
        <ele>3.5</ele>
        <time>2022-06-02T12:49:44Z</time>
      </trkpt>
      <trkpt lat="49.40894" lon="-1.17393">
        <ele>3.5</ele>
        <time>2022-06-02T12:49:45Z</time>
      </trkpt>
      <trkpt lat="49.40892" lon="-1.17393">
        <ele>3.5</ele>
        <time>2022-06-02T12:49:46Z</time>
      </trkpt>
      <trkpt lat="49.40891" lon="-1.17393">
        <ele>3.5</ele>
        <time>2022-06-02T12:49:47Z</time>
      </trkpt>
      <trkpt lat="49.40889" lon="-1.17393">
        <ele>3.5</ele>
        <time>2022-06-02T12:49:48Z</time>
      </trkpt>
      <trkpt lat="49.40887" lon="-1.17394">
        <ele>3.5</ele>
        <time>2022-06-02T12:49:49Z</time>
      </trkpt>
      <trkpt lat="49.40887" lon="-1.17394">
        <ele>3.5</ele>
        <time>2022-06-02T12:49:50Z</time>
      </trkpt>
      <trkpt lat="49.40886" lon="-1.17394">
        <ele>3.5</ele>
        <time>2022-06-02T12:49:51Z</time>
      </trkpt>
      <trkpt lat="49.40884" lon="-1.17394">
        <ele>3.5</ele>
        <time>2022-06-02T12:49:52Z</time>
      </trkpt>
      <trkpt lat="49.40883" lon="-1.17395">
        <ele>3.5</ele>
        <time>2022-06-02T12:49:53Z</time>
      </trkpt>
      <trkpt lat="49.40882" lon="-1.17395">
        <ele>3.5</ele>
        <time>2022-06-02T12:49:54Z</time>
      </trkpt>
      <trkpt lat="49.40881" lon="-1.17396">
        <ele>3.5</ele>
        <time>2022-06-02T12:49:55Z</time>
      </trkpt>
      <trkpt lat="49.40879" lon="-1.17396">
        <ele>3.4</ele>
        <time>2022-06-02T12:49:56Z</time>
      </trkpt>
      <trkpt lat="49.40877" lon="-1.17397">
        <ele>3.4</ele>
        <time>2022-06-02T12:49:58Z</time>
      </trkpt>
      <trkpt lat="49.40876" lon="-1.17397">
        <ele>3.4</ele>
        <time>2022-06-02T12:49:59Z</time>
      </trkpt>
      <trkpt lat="49.40876" lon="-1.17398">
        <ele>3.4</ele>
        <time>2022-06-02T12:50:00Z</time>
      </trkpt>
      <trkpt lat="49.40874" lon="-1.17398">
        <ele>3.4</ele>
        <time>2022-06-02T12:50:01Z</time>
      </trkpt>
      <trkpt lat="49.40873" lon="-1.17398">
        <ele>3.4</ele>
        <time>2022-06-02T12:50:02Z</time>
      </trkpt>
      <trkpt lat="49.40871" lon="-1.17399">
        <ele>3.4</ele>
        <time>2022-06-02T12:50:03Z</time>
      </trkpt>
      <trkpt lat="49.4087" lon="-1.17399">
        <ele>3.4</ele>
        <time>2022-06-02T12:50:04Z</time>
      </trkpt>
      <trkpt lat="49.40869" lon="-1.17399">
        <ele>3.4</ele>
        <time>2022-06-02T12:50:05Z</time>
      </trkpt>
      <trkpt lat="49.40867" lon="-1.17399">
        <ele>3.4</ele>
        <time>2022-06-02T12:50:06Z</time>
      </trkpt>
      <trkpt lat="49.40866" lon="-1.17399">
        <ele>3.4</ele>
        <time>2022-06-02T12:50:07Z</time>
      </trkpt>
      <trkpt lat="49.40865" lon="-1.17399">
        <ele>3.4</ele>
        <time>2022-06-02T12:50:08Z</time>
      </trkpt>
      <trkpt lat="49.40863" lon="-1.17399">
        <ele>3.3</ele>
        <time>2022-06-02T12:50:09Z</time>
      </trkpt>
      <trkpt lat="49.40862" lon="-1.17399">
        <ele>3.3</ele>
        <time>2022-06-02T12:50:10Z</time>
      </trkpt>
      <trkpt lat="49.40861" lon="-1.17399">
        <ele>3.3</ele>
        <time>2022-06-02T12:50:12Z</time>
      </trkpt>
      <trkpt lat="49.4086" lon="-1.17399">
        <ele>3.3</ele>
        <time>2022-06-02T12:50:13Z</time>
      </trkpt>
      <trkpt lat="49.40859" lon="-1.17399">
        <ele>3.3</ele>
        <time>2022-06-02T12:50:14Z</time>
      </trkpt>
      <trkpt lat="49.40858" lon="-1.17399">
        <ele>3.3</ele>
        <time>2022-06-02T12:50:15Z</time>
      </trkpt>
      <trkpt lat="49.40857" lon="-1.17399">
        <ele>3.3</ele>
        <time>2022-06-02T12:50:16Z</time>
      </trkpt>
      <trkpt lat="49.40856" lon="-1.17399">
        <ele>3.3</ele>
        <time>2022-06-02T12:50:17Z</time>
      </trkpt>
      <trkpt lat="49.40855" lon="-1.17399">
        <ele>3.3</ele>
        <time>2022-06-02T12:50:18Z</time>
      </trkpt>
      <trkpt lat="49.40854" lon="-1.17399">
        <ele>3.3</ele>
        <time>2022-06-02T12:50:19Z</time>
      </trkpt>
      <trkpt lat="49.40853" lon="-1.17399">
        <ele>3.3</ele>
        <time>2022-06-02T12:50:20Z</time>
      </trkpt>
      <trkpt lat="49.40852" lon="-1.17399">
        <ele>3.3</ele>
        <time>2022-06-02T12:50:21Z</time>
      </trkpt>
      <trkpt lat="49.4085" lon="-1.17399">
        <ele>3.3</ele>
        <time>2022-06-02T12:50:23Z</time>
      </trkpt>
      <trkpt lat="49.40849" lon="-1.17399">
        <ele>3.3</ele>
        <time>2022-06-02T12:50:24Z</time>
      </trkpt>
      <trkpt lat="49.40848" lon="-1.17399">
        <ele>3.3</ele>
        <time>2022-06-02T12:50:25Z</time>
      </trkpt>
      <trkpt lat="49.40846" lon="-1.17398">
        <ele>3.3</ele>
        <time>2022-06-02T12:50:26Z</time>
      </trkpt>
      <trkpt lat="49.40845" lon="-1.17398">
        <ele>3.3</ele>
        <time>2022-06-02T12:50:27Z</time>
      </trkpt>
      <trkpt lat="49.40844" lon="-1.17398">
        <ele>3.3</ele>
        <time>2022-06-02T12:50:28Z</time>
      </trkpt>
      <trkpt lat="49.40843" lon="-1.17398">
        <ele>3.3</ele>
        <time>2022-06-02T12:50:30Z</time>
      </trkpt>
      <trkpt lat="49.40842" lon="-1.17398">
        <ele>3.3</ele>
        <time>2022-06-02T12:50:31Z</time>
      </trkpt>
      <trkpt lat="49.4084" lon="-1.17397">
        <ele>3.3</ele>
        <time>2022-06-02T12:50:32Z</time>
      </trkpt>
      <trkpt lat="49.40839" lon="-1.17397">
        <ele>3.3</ele>
        <time>2022-06-02T12:50:33Z</time>
      </trkpt>
      <trkpt lat="49.40838" lon="-1.17397">
        <ele>3.3</ele>
        <time>2022-06-02T12:50:34Z</time>
      </trkpt>
      <trkpt lat="49.40836" lon="-1.17397">
        <ele>3.3</ele>
        <time>2022-06-02T12:50:36Z</time>
      </trkpt>
      <trkpt lat="49.40836" lon="-1.17397">
        <ele>3.3</ele>
        <time>2022-06-02T12:50:37Z</time>
      </trkpt>
      <trkpt lat="49.40833" lon="-1.17397">
        <ele>3.3</ele>
        <time>2022-06-02T12:50:38Z</time>
      </trkpt>
      <trkpt lat="49.40833" lon="-1.17397">
        <ele>3.3</ele>
        <time>2022-06-02T12:50:39Z</time>
      </trkpt>
      <trkpt lat="49.40832" lon="-1.17397">
        <ele>3.3</ele>
        <time>2022-06-02T12:50:40Z</time>
      </trkpt>
      <trkpt lat="49.4083" lon="-1.17397">
        <ele>3.3</ele>
        <time>2022-06-02T12:50:42Z</time>
      </trkpt>
      <trkpt lat="49.40828" lon="-1.17397">
        <ele>3.3</ele>
        <time>2022-06-02T12:50:43Z</time>
      </trkpt>
      <trkpt lat="49.40827" lon="-1.17397">
        <ele>3.3</ele>
        <time>2022-06-02T12:50:44Z</time>
      </trkpt>
      <trkpt lat="49.40826" lon="-1.17396">
        <ele>3.3</ele>
        <time>2022-06-02T12:50:45Z</time>
      </trkpt>
      <trkpt lat="49.40825" lon="-1.17396">
        <ele>3.3</ele>
        <time>2022-06-02T12:50:46Z</time>
      </trkpt>
      <trkpt lat="49.40824" lon="-1.17396">
        <ele>3.3</ele>
        <time>2022-06-02T12:50:47Z</time>
      </trkpt>
      <trkpt lat="49.40822" lon="-1.17396">
        <ele>3.3</ele>
        <time>2022-06-02T12:50:48Z</time>
      </trkpt>
      <trkpt lat="49.40821" lon="-1.17397">
        <ele>3.3</ele>
        <time>2022-06-02T12:50:49Z</time>
      </trkpt>
      <trkpt lat="49.4082" lon="-1.17397">
        <ele>3.3</ele>
        <time>2022-06-02T12:50:51Z</time>
      </trkpt>
      <trkpt lat="49.40819" lon="-1.17397">
        <ele>3.3</ele>
        <time>2022-06-02T12:50:52Z</time>
      </trkpt>
      <trkpt lat="49.40817" lon="-1.17398">
        <ele>3.3</ele>
        <time>2022-06-02T12:50:53Z</time>
      </trkpt>
      <trkpt lat="49.40816" lon="-1.17398">
        <ele>3.3</ele>
        <time>2022-06-02T12:50:54Z</time>
      </trkpt>
      <trkpt lat="49.40816" lon="-1.17398">
        <ele>3.3</ele>
        <time>2022-06-02T12:50:55Z</time>
      </trkpt>
      <trkpt lat="49.40814" lon="-1.17399">
        <ele>3.3</ele>
        <time>2022-06-02T12:50:56Z</time>
      </trkpt>
      <trkpt lat="49.40813" lon="-1.17399">
        <ele>3.3</ele>
        <time>2022-06-02T12:50:57Z</time>
      </trkpt>
      <trkpt lat="49.40812" lon="-1.17399">
        <ele>3.3</ele>
        <time>2022-06-02T12:50:58Z</time>
      </trkpt>
      <trkpt lat="49.40811" lon="-1.174">
        <ele>3.3</ele>
        <time>2022-06-02T12:50:59Z</time>
      </trkpt>
      <trkpt lat="49.4081" lon="-1.174">
        <ele>3.3</ele>
        <time>2022-06-02T12:51:00Z</time>
      </trkpt>
      <trkpt lat="49.40809" lon="-1.174">
        <ele>3.3</ele>
        <time>2022-06-02T12:51:01Z</time>
      </trkpt>
      <trkpt lat="49.40808" lon="-1.17401">
        <ele>3.3</ele>
        <time>2022-06-02T12:51:02Z</time>
      </trkpt>
      <trkpt lat="49.40807" lon="-1.17401">
        <ele>3.3</ele>
        <time>2022-06-02T12:51:04Z</time>
      </trkpt>
      <trkpt lat="49.40805" lon="-1.17402">
        <ele>3.3</ele>
        <time>2022-06-02T12:51:05Z</time>
      </trkpt>
      <trkpt lat="49.40803" lon="-1.17402">
        <ele>3.3</ele>
        <time>2022-06-02T12:51:06Z</time>
      </trkpt>
      <trkpt lat="49.40803" lon="-1.17402">
        <ele>3.3</ele>
        <time>2022-06-02T12:51:07Z</time>
      </trkpt>
      <trkpt lat="49.40802" lon="-1.17402">
        <ele>3.3</ele>
        <time>2022-06-02T12:51:08Z</time>
      </trkpt>
      <trkpt lat="49.408" lon="-1.17403">
        <ele>3.3</ele>
        <time>2022-06-02T12:51:09Z</time>
      </trkpt>
      <trkpt lat="49.40799" lon="-1.17403">
        <ele>3.3</ele>
        <time>2022-06-02T12:51:10Z</time>
      </trkpt>
      <trkpt lat="49.40798" lon="-1.17403">
        <ele>3.3</ele>
        <time>2022-06-02T12:51:11Z</time>
      </trkpt>
      <trkpt lat="49.40796" lon="-1.17404">
        <ele>3.3</ele>
        <time>2022-06-02T12:51:12Z</time>
      </trkpt>
      <trkpt lat="49.40795" lon="-1.17404">
        <ele>3.3</ele>
        <time>2022-06-02T12:51:13Z</time>
      </trkpt>
      <trkpt lat="49.40793" lon="-1.17405">
        <ele>3.2</ele>
        <time>2022-06-02T12:51:14Z</time>
      </trkpt>
      <trkpt lat="49.40792" lon="-1.17406">
        <ele>3.2</ele>
        <time>2022-06-02T12:51:15Z</time>
      </trkpt>
      <trkpt lat="49.40792" lon="-1.17406">
        <ele>3.2</ele>
        <time>2022-06-02T12:51:16Z</time>
      </trkpt>
      <trkpt lat="49.40789" lon="-1.17408">
        <ele>3.2</ele>
        <time>2022-06-02T12:51:17Z</time>
      </trkpt>
      <trkpt lat="49.40789" lon="-1.17408">
        <ele>3.2</ele>
        <time>2022-06-02T12:51:19Z</time>
      </trkpt>
      <trkpt lat="49.40788" lon="-1.17409">
        <ele>3.2</ele>
        <time>2022-06-02T12:51:20Z</time>
      </trkpt>
      <trkpt lat="49.40786" lon="-1.1741">
        <ele>3.2</ele>
        <time>2022-06-02T12:51:21Z</time>
      </trkpt>
      <trkpt lat="49.40785" lon="-1.1741">
        <ele>3.2</ele>
        <time>2022-06-02T12:51:22Z</time>
      </trkpt>
      <trkpt lat="49.40783" lon="-1.17411">
        <ele>3.2</ele>
        <time>2022-06-02T12:51:23Z</time>
      </trkpt>
      <trkpt lat="49.40782" lon="-1.17411">
        <ele>3.2</ele>
        <time>2022-06-02T12:51:24Z</time>
      </trkpt>
      <trkpt lat="49.40781" lon="-1.17411">
        <ele>3.2</ele>
        <time>2022-06-02T12:51:25Z</time>
      </trkpt>
      <trkpt lat="49.40779" lon="-1.17411">
        <ele>3.2</ele>
        <time>2022-06-02T12:51:26Z</time>
      </trkpt>
      <trkpt lat="49.40777" lon="-1.17411">
        <ele>3.2</ele>
        <time>2022-06-02T12:51:27Z</time>
      </trkpt>
      <trkpt lat="49.40776" lon="-1.17411">
        <ele>3.2</ele>
        <time>2022-06-02T12:51:28Z</time>
      </trkpt>
      <trkpt lat="49.40775" lon="-1.17411">
        <ele>3.2</ele>
        <time>2022-06-02T12:51:29Z</time>
      </trkpt>
      <trkpt lat="49.40775" lon="-1.17411">
        <ele>3.2</ele>
        <time>2022-06-02T12:51:31Z</time>
      </trkpt>
      <trkpt lat="49.40774" lon="-1.17411">
        <ele>3.2</ele>
        <time>2022-06-02T12:51:32Z</time>
      </trkpt>
      <trkpt lat="49.40773" lon="-1.17411">
        <ele>3.2</ele>
        <time>2022-06-02T12:51:33Z</time>
      </trkpt>
      <trkpt lat="49.40772" lon="-1.17411">
        <ele>3.2</ele>
        <time>2022-06-02T12:51:34Z</time>
      </trkpt>
      <trkpt lat="49.40771" lon="-1.17411">
        <ele>3.2</ele>
        <time>2022-06-02T12:51:35Z</time>
      </trkpt>
      <trkpt lat="49.4077" lon="-1.17411">
        <ele>3.2</ele>
        <time>2022-06-02T12:51:36Z</time>
      </trkpt>
      <trkpt lat="49.40768" lon="-1.17411">
        <ele>3.2</ele>
        <time>2022-06-02T12:51:37Z</time>
      </trkpt>
      <trkpt lat="49.40767" lon="-1.17411">
        <ele>3.2</ele>
        <time>2022-06-02T12:51:38Z</time>
      </trkpt>
      <trkpt lat="49.40766" lon="-1.17412">
        <ele>3.2</ele>
        <time>2022-06-02T12:51:39Z</time>
      </trkpt>
      <trkpt lat="49.40765" lon="-1.17412">
        <ele>3.2</ele>
        <time>2022-06-02T12:51:41Z</time>
      </trkpt>
      <trkpt lat="49.40764" lon="-1.17412">
        <ele>3.2</ele>
        <time>2022-06-02T12:51:42Z</time>
      </trkpt>
      <trkpt lat="49.40763" lon="-1.17412">
        <ele>3.2</ele>
        <time>2022-06-02T12:51:43Z</time>
      </trkpt>
      <trkpt lat="49.40762" lon="-1.17412">
        <ele>3.2</ele>
        <time>2022-06-02T12:51:44Z</time>
      </trkpt>
      <trkpt lat="49.40761" lon="-1.17412">
        <ele>3.2</ele>
        <time>2022-06-02T12:51:45Z</time>
      </trkpt>
      <trkpt lat="49.40759" lon="-1.17412">
        <ele>3.2</ele>
        <time>2022-06-02T12:51:46Z</time>
      </trkpt>
      <trkpt lat="49.40757" lon="-1.17412">
        <ele>3.2</ele>
        <time>2022-06-02T12:51:47Z</time>
      </trkpt>
      <trkpt lat="49.40756" lon="-1.17412">
        <ele>3.2</ele>
        <time>2022-06-02T12:51:48Z</time>
      </trkpt>
      <trkpt lat="49.40755" lon="-1.17412">
        <ele>3.2</ele>
        <time>2022-06-02T12:51:49Z</time>
      </trkpt>
      <trkpt lat="49.40753" lon="-1.17411">
        <ele>3.3</ele>
        <time>2022-06-02T12:51:50Z</time>
      </trkpt>
      <trkpt lat="49.40753" lon="-1.17411">
        <ele>3.3</ele>
        <time>2022-06-02T12:51:51Z</time>
      </trkpt>
      <trkpt lat="49.40752" lon="-1.17411">
        <ele>3.3</ele>
        <time>2022-06-02T12:51:52Z</time>
      </trkpt>
      <trkpt lat="49.40751" lon="-1.17411">
        <ele>3.3</ele>
        <time>2022-06-02T12:51:54Z</time>
      </trkpt>
      <trkpt lat="49.4075" lon="-1.17411">
        <ele>3.3</ele>
        <time>2022-06-02T12:51:55Z</time>
      </trkpt>
      <trkpt lat="49.40749" lon="-1.17411">
        <ele>3.3</ele>
        <time>2022-06-02T12:51:56Z</time>
      </trkpt>
      <trkpt lat="49.40748" lon="-1.17411">
        <ele>3.3</ele>
        <time>2022-06-02T12:51:57Z</time>
      </trkpt>
      <trkpt lat="49.40746" lon="-1.17411">
        <ele>3.3</ele>
        <time>2022-06-02T12:51:58Z</time>
      </trkpt>
      <trkpt lat="49.40745" lon="-1.17411">
        <ele>3.3</ele>
        <time>2022-06-02T12:51:59Z</time>
      </trkpt>
      <trkpt lat="49.40744" lon="-1.17411">
        <ele>3.3</ele>
        <time>2022-06-02T12:52:00Z</time>
      </trkpt>
      <trkpt lat="49.40743" lon="-1.1741">
        <ele>3.3</ele>
        <time>2022-06-02T12:52:01Z</time>
      </trkpt>
      <trkpt lat="49.40742" lon="-1.1741">
        <ele>3.3</ele>
        <time>2022-06-02T12:52:02Z</time>
      </trkpt>
      <trkpt lat="49.40741" lon="-1.1741">
        <ele>3.3</ele>
        <time>2022-06-02T12:52:03Z</time>
      </trkpt>
      <trkpt lat="49.4074" lon="-1.17409">
        <ele>3.3</ele>
        <time>2022-06-02T12:52:04Z</time>
      </trkpt>
      <trkpt lat="49.40739" lon="-1.17409">
        <ele>3.3</ele>
        <time>2022-06-02T12:52:06Z</time>
      </trkpt>
      <trkpt lat="49.40738" lon="-1.17408">
        <ele>3.3</ele>
        <time>2022-06-02T12:52:07Z</time>
      </trkpt>
      <trkpt lat="49.40736" lon="-1.17407">
        <ele>3.3</ele>
        <time>2022-06-02T12:52:08Z</time>
      </trkpt>
      <trkpt lat="49.40735" lon="-1.17407">
        <ele>3.3</ele>
        <time>2022-06-02T12:52:10Z</time>
      </trkpt>
      <trkpt lat="49.40733" lon="-1.17407">
        <ele>3.3</ele>
        <time>2022-06-02T12:52:11Z</time>
      </trkpt>
      <trkpt lat="49.40732" lon="-1.17406">
        <ele>3.3</ele>
        <time>2022-06-02T12:52:12Z</time>
      </trkpt>
      <trkpt lat="49.40731" lon="-1.17406">
        <ele>3.3</ele>
        <time>2022-06-02T12:52:13Z</time>
      </trkpt>
      <trkpt lat="49.40729" lon="-1.17406">
        <ele>3.3</ele>
        <time>2022-06-02T12:52:14Z</time>
      </trkpt>
      <trkpt lat="49.40728" lon="-1.17406">
        <ele>3.3</ele>
        <time>2022-06-02T12:52:15Z</time>
      </trkpt>
      <trkpt lat="49.40727" lon="-1.17406">
        <ele>3.3</ele>
        <time>2022-06-02T12:52:16Z</time>
      </trkpt>
      <trkpt lat="49.40726" lon="-1.17406">
        <ele>3.3</ele>
        <time>2022-06-02T12:52:18Z</time>
      </trkpt>
      <trkpt lat="49.40725" lon="-1.17406">
        <ele>3.3</ele>
        <time>2022-06-02T12:52:19Z</time>
      </trkpt>
      <trkpt lat="49.40723" lon="-1.17406">
        <ele>3.3</ele>
        <time>2022-06-02T12:52:20Z</time>
      </trkpt>
      <trkpt lat="49.40722" lon="-1.17406">
        <ele>3.3</ele>
        <time>2022-06-02T12:52:21Z</time>
      </trkpt>
      <trkpt lat="49.40721" lon="-1.17406">
        <ele>3.3</ele>
        <time>2022-06-02T12:52:22Z</time>
      </trkpt>
      <trkpt lat="49.40719" lon="-1.17406">
        <ele>3.3</ele>
        <time>2022-06-02T12:52:23Z</time>
      </trkpt>
      <trkpt lat="49.40717" lon="-1.17406">
        <ele>3.3</ele>
        <time>2022-06-02T12:52:25Z</time>
      </trkpt>
      <trkpt lat="49.40716" lon="-1.17406">
        <ele>3.3</ele>
        <time>2022-06-02T12:52:26Z</time>
      </trkpt>
      <trkpt lat="49.40715" lon="-1.17406">
        <ele>3.3</ele>
        <time>2022-06-02T12:52:27Z</time>
      </trkpt>
      <trkpt lat="49.40714" lon="-1.17406">
        <ele>3.3</ele>
        <time>2022-06-02T12:52:28Z</time>
      </trkpt>
      <trkpt lat="49.40712" lon="-1.17407">
        <ele>3.2</ele>
        <time>2022-06-02T12:52:29Z</time>
      </trkpt>
      <trkpt lat="49.40711" lon="-1.17407">
        <ele>3.2</ele>
        <time>2022-06-02T12:52:30Z</time>
      </trkpt>
      <trkpt lat="49.4071" lon="-1.17407">
        <ele>3.2</ele>
        <time>2022-06-02T12:52:31Z</time>
      </trkpt>
      <trkpt lat="49.40708" lon="-1.17406">
        <ele>3.2</ele>
        <time>2022-06-02T12:52:32Z</time>
      </trkpt>
      <trkpt lat="49.40707" lon="-1.17406">
        <ele>3.2</ele>
        <time>2022-06-02T12:52:34Z</time>
      </trkpt>
      <trkpt lat="49.40706" lon="-1.17405">
        <ele>3.2</ele>
        <time>2022-06-02T12:52:35Z</time>
      </trkpt>
      <trkpt lat="49.40705" lon="-1.17405">
        <ele>3.2</ele>
        <time>2022-06-02T12:52:36Z</time>
      </trkpt>
      <trkpt lat="49.40704" lon="-1.17405">
        <ele>3.2</ele>
        <time>2022-06-02T12:52:37Z</time>
      </trkpt>
      <trkpt lat="49.40703" lon="-1.17405">
        <ele>3.2</ele>
        <time>2022-06-02T12:52:38Z</time>
      </trkpt>
      <trkpt lat="49.40701" lon="-1.17405">
        <ele>3.2</ele>
        <time>2022-06-02T12:52:39Z</time>
      </trkpt>
      <trkpt lat="49.407" lon="-1.17405">
        <ele>3.2</ele>
        <time>2022-06-02T12:52:40Z</time>
      </trkpt>
      <trkpt lat="49.40699" lon="-1.17405">
        <ele>3.2</ele>
        <time>2022-06-02T12:52:41Z</time>
      </trkpt>
      <trkpt lat="49.40698" lon="-1.17406">
        <ele>3.2</ele>
        <time>2022-06-02T12:52:42Z</time>
      </trkpt>
      <trkpt lat="49.40696" lon="-1.17406">
        <ele>3.2</ele>
        <time>2022-06-02T12:52:44Z</time>
      </trkpt>
      <trkpt lat="49.40695" lon="-1.17407">
        <ele>3.2</ele>
        <time>2022-06-02T12:52:45Z</time>
      </trkpt>
      <trkpt lat="49.40694" lon="-1.17407">
        <ele>3.2</ele>
        <time>2022-06-02T12:52:46Z</time>
      </trkpt>
      <trkpt lat="49.40693" lon="-1.17407">
        <ele>3.2</ele>
        <time>2022-06-02T12:52:47Z</time>
      </trkpt>
      <trkpt lat="49.40691" lon="-1.17407">
        <ele>3.2</ele>
        <time>2022-06-02T12:52:48Z</time>
      </trkpt>
      <trkpt lat="49.4069" lon="-1.17407">
        <ele>3.2</ele>
        <time>2022-06-02T12:52:49Z</time>
      </trkpt>
      <trkpt lat="49.40689" lon="-1.17408">
        <ele>3.2</ele>
        <time>2022-06-02T12:52:50Z</time>
      </trkpt>
      <trkpt lat="49.40688" lon="-1.17408">
        <ele>3.2</ele>
        <time>2022-06-02T12:52:52Z</time>
      </trkpt>
      <trkpt lat="49.40687" lon="-1.17408">
        <ele>3.2</ele>
        <time>2022-06-02T12:52:53Z</time>
      </trkpt>
      <trkpt lat="49.40686" lon="-1.17408">
        <ele>3.2</ele>
        <time>2022-06-02T12:52:54Z</time>
      </trkpt>
      <trkpt lat="49.40684" lon="-1.17409">
        <ele>3.2</ele>
        <time>2022-06-02T12:52:55Z</time>
      </trkpt>
      <trkpt lat="49.40683" lon="-1.17409">
        <ele>3.2</ele>
        <time>2022-06-02T12:52:56Z</time>
      </trkpt>
      <trkpt lat="49.40682" lon="-1.17409">
        <ele>3.2</ele>
        <time>2022-06-02T12:52:57Z</time>
      </trkpt>
      <trkpt lat="49.40682" lon="-1.17409">
        <ele>3.2</ele>
        <time>2022-06-02T12:52:59Z</time>
      </trkpt>
      <trkpt lat="49.4068" lon="-1.17409">
        <ele>3.2</ele>
        <time>2022-06-02T12:53:00Z</time>
      </trkpt>
      <trkpt lat="49.40679" lon="-1.17409">
        <ele>3.2</ele>
        <time>2022-06-02T12:53:01Z</time>
      </trkpt>
      <trkpt lat="49.40678" lon="-1.17409">
        <ele>3.2</ele>
        <time>2022-06-02T12:53:02Z</time>
      </trkpt>
      <trkpt lat="49.40677" lon="-1.17409">
        <ele>3.2</ele>
        <time>2022-06-02T12:53:03Z</time>
      </trkpt>
      <trkpt lat="49.40676" lon="-1.17409">
        <ele>3.2</ele>
        <time>2022-06-02T12:53:04Z</time>
      </trkpt>
      <trkpt lat="49.40675" lon="-1.17409">
        <ele>3.2</ele>
        <time>2022-06-02T12:53:05Z</time>
      </trkpt>
      <trkpt lat="49.40673" lon="-1.1741">
        <ele>3.2</ele>
        <time>2022-06-02T12:53:06Z</time>
      </trkpt>
      <trkpt lat="49.40672" lon="-1.1741">
        <ele>3.2</ele>
        <time>2022-06-02T12:53:07Z</time>
      </trkpt>
      <trkpt lat="49.4067" lon="-1.1741">
        <ele>3.2</ele>
        <time>2022-06-02T12:53:08Z</time>
      </trkpt>
      <trkpt lat="49.40669" lon="-1.1741">
        <ele>3.2</ele>
        <time>2022-06-02T12:53:09Z</time>
      </trkpt>
      <trkpt lat="49.40668" lon="-1.1741">
        <ele>3.2</ele>
        <time>2022-06-02T12:53:10Z</time>
      </trkpt>
      <trkpt lat="49.40667" lon="-1.1741">
        <ele>3.2</ele>
        <time>2022-06-02T12:53:12Z</time>
      </trkpt>
      <trkpt lat="49.40666" lon="-1.1741">
        <ele>3.2</ele>
        <time>2022-06-02T12:53:13Z</time>
      </trkpt>
      <trkpt lat="49.40665" lon="-1.17409">
        <ele>3.2</ele>
        <time>2022-06-02T12:53:14Z</time>
      </trkpt>
      <trkpt lat="49.40663" lon="-1.17409">
        <ele>3.2</ele>
        <time>2022-06-02T12:53:15Z</time>
      </trkpt>
      <trkpt lat="49.40662" lon="-1.17409">
        <ele>3.2</ele>
        <time>2022-06-02T12:53:16Z</time>
      </trkpt>
      <trkpt lat="49.40661" lon="-1.17409">
        <ele>3.2</ele>
        <time>2022-06-02T12:53:17Z</time>
      </trkpt>
      <trkpt lat="49.4066" lon="-1.17409">
        <ele>3.2</ele>
        <time>2022-06-02T12:53:18Z</time>
      </trkpt>
      <trkpt lat="49.40659" lon="-1.17409">
        <ele>3.2</ele>
        <time>2022-06-02T12:53:19Z</time>
      </trkpt>
      <trkpt lat="49.40658" lon="-1.17409">
        <ele>3.2</ele>
        <time>2022-06-02T12:53:20Z</time>
      </trkpt>
      <trkpt lat="49.40656" lon="-1.17409">
        <ele>3.2</ele>
        <time>2022-06-02T12:53:22Z</time>
      </trkpt>
      <trkpt lat="49.40655" lon="-1.17408">
        <ele>3.2</ele>
        <time>2022-06-02T12:53:23Z</time>
      </trkpt>
      <trkpt lat="49.40653" lon="-1.17408">
        <ele>3.2</ele>
        <time>2022-06-02T12:53:24Z</time>
      </trkpt>
      <trkpt lat="49.40652" lon="-1.17408">
        <ele>3.2</ele>
        <time>2022-06-02T12:53:25Z</time>
      </trkpt>
      <trkpt lat="49.40651" lon="-1.17408">
        <ele>3.2</ele>
        <time>2022-06-02T12:53:26Z</time>
      </trkpt>
      <trkpt lat="49.40649" lon="-1.17407">
        <ele>3.1</ele>
        <time>2022-06-02T12:53:27Z</time>
      </trkpt>
      <trkpt lat="49.40648" lon="-1.17407">
        <ele>3.1</ele>
        <time>2022-06-02T12:53:28Z</time>
      </trkpt>
      <trkpt lat="49.40648" lon="-1.17407">
        <ele>3.1</ele>
        <time>2022-06-02T12:53:29Z</time>
      </trkpt>
      <trkpt lat="49.40645" lon="-1.17407">
        <ele>3.1</ele>
        <time>2022-06-02T12:53:30Z</time>
      </trkpt>
      <trkpt lat="49.40644" lon="-1.17407">
        <ele>3.1</ele>
        <time>2022-06-02T12:53:32Z</time>
      </trkpt>
      <trkpt lat="49.40643" lon="-1.17406">
        <ele>3.1</ele>
        <time>2022-06-02T12:53:33Z</time>
      </trkpt>
      <trkpt lat="49.40642" lon="-1.17406">
        <ele>3.1</ele>
        <time>2022-06-02T12:53:34Z</time>
      </trkpt>
      <trkpt lat="49.40641" lon="-1.17406">
        <ele>3.1</ele>
        <time>2022-06-02T12:53:35Z</time>
      </trkpt>
      <trkpt lat="49.40639" lon="-1.17406">
        <ele>3.1</ele>
        <time>2022-06-02T12:53:36Z</time>
      </trkpt>
      <trkpt lat="49.40638" lon="-1.17405">
        <ele>3.1</ele>
        <time>2022-06-02T12:53:37Z</time>
      </trkpt>
      <trkpt lat="49.40637" lon="-1.17405">
        <ele>3.1</ele>
        <time>2022-06-02T12:53:38Z</time>
      </trkpt>
      <trkpt lat="49.40635" lon="-1.17405">
        <ele>3</ele>
        <time>2022-06-02T12:53:39Z</time>
      </trkpt>
      <trkpt lat="49.40634" lon="-1.17406">
        <ele>3</ele>
        <time>2022-06-02T12:53:41Z</time>
      </trkpt>
      <trkpt lat="49.40633" lon="-1.17406">
        <ele>3</ele>
        <time>2022-06-02T12:53:42Z</time>
      </trkpt>
      <trkpt lat="49.40632" lon="-1.17406">
        <ele>3</ele>
        <time>2022-06-02T12:53:43Z</time>
      </trkpt>
      <trkpt lat="49.40631" lon="-1.17406">
        <ele>3</ele>
        <time>2022-06-02T12:53:44Z</time>
      </trkpt>
      <trkpt lat="49.4063" lon="-1.17406">
        <ele>3</ele>
        <time>2022-06-02T12:53:45Z</time>
      </trkpt>
      <trkpt lat="49.40628" lon="-1.17406">
        <ele>3</ele>
        <time>2022-06-02T12:53:46Z</time>
      </trkpt>
      <trkpt lat="49.40628" lon="-1.17406">
        <ele>3</ele>
        <time>2022-06-02T12:53:47Z</time>
      </trkpt>
      <trkpt lat="49.40627" lon="-1.17406">
        <ele>3</ele>
        <time>2022-06-02T12:53:48Z</time>
      </trkpt>
      <trkpt lat="49.40625" lon="-1.17405">
        <ele>2.9</ele>
        <time>2022-06-02T12:53:49Z</time>
      </trkpt>
      <trkpt lat="49.40624" lon="-1.17405">
        <ele>2.9</ele>
        <time>2022-06-02T12:53:50Z</time>
      </trkpt>
      <trkpt lat="49.40622" lon="-1.17405">
        <ele>2.9</ele>
        <time>2022-06-02T12:53:51Z</time>
      </trkpt>
      <trkpt lat="49.40621" lon="-1.17405">
        <ele>2.9</ele>
        <time>2022-06-02T12:53:52Z</time>
      </trkpt>
      <trkpt lat="49.40621" lon="-1.17405">
        <ele>2.9</ele>
        <time>2022-06-02T12:53:53Z</time>
      </trkpt>
      <trkpt lat="49.4062" lon="-1.17405">
        <ele>2.9</ele>
        <time>2022-06-02T12:53:54Z</time>
      </trkpt>
      <trkpt lat="49.40619" lon="-1.17405">
        <ele>2.9</ele>
        <time>2022-06-02T12:53:56Z</time>
      </trkpt>
      <trkpt lat="49.40617" lon="-1.17405">
        <ele>2.9</ele>
        <time>2022-06-02T12:53:57Z</time>
      </trkpt>
      <trkpt lat="49.40615" lon="-1.17404">
        <ele>2.8</ele>
        <time>2022-06-02T12:53:58Z</time>
      </trkpt>
      <trkpt lat="49.40615" lon="-1.17404">
        <ele>2.8</ele>
        <time>2022-06-02T12:53:59Z</time>
      </trkpt>
      <trkpt lat="49.40614" lon="-1.17404">
        <ele>2.8</ele>
        <time>2022-06-02T12:54:00Z</time>
      </trkpt>
      <trkpt lat="49.40612" lon="-1.17404">
        <ele>2.8</ele>
        <time>2022-06-02T12:54:01Z</time>
      </trkpt>
      <trkpt lat="49.40611" lon="-1.17404">
        <ele>2.8</ele>
        <time>2022-06-02T12:54:02Z</time>
      </trkpt>
      <trkpt lat="49.4061" lon="-1.17403">
        <ele>2.8</ele>
        <time>2022-06-02T12:54:03Z</time>
      </trkpt>
      <trkpt lat="49.40609" lon="-1.17403">
        <ele>2.8</ele>
        <time>2022-06-02T12:54:04Z</time>
      </trkpt>
      <trkpt lat="49.40607" lon="-1.17403">
        <ele>2.8</ele>
        <time>2022-06-02T12:54:05Z</time>
      </trkpt>
      <trkpt lat="49.40605" lon="-1.17403">
        <ele>2.8</ele>
        <time>2022-06-02T12:54:06Z</time>
      </trkpt>
      <trkpt lat="49.40604" lon="-1.17403">
        <ele>2.7</ele>
        <time>2022-06-02T12:54:07Z</time>
      </trkpt>
      <trkpt lat="49.40604" lon="-1.17403">
        <ele>2.7</ele>
        <time>2022-06-02T12:54:08Z</time>
      </trkpt>
      <trkpt lat="49.40602" lon="-1.17404">
        <ele>2.7</ele>
        <time>2022-06-02T12:54:10Z</time>
      </trkpt>
      <trkpt lat="49.40601" lon="-1.17404">
        <ele>2.7</ele>
        <time>2022-06-02T12:54:11Z</time>
      </trkpt>
      <trkpt lat="49.406" lon="-1.17404">
        <ele>2.7</ele>
        <time>2022-06-02T12:54:12Z</time>
      </trkpt>
      <trkpt lat="49.40599" lon="-1.17404">
        <ele>2.7</ele>
        <time>2022-06-02T12:54:13Z</time>
      </trkpt>
      <trkpt lat="49.40597" lon="-1.17404">
        <ele>2.7</ele>
        <time>2022-06-02T12:54:14Z</time>
      </trkpt>
      <trkpt lat="49.40596" lon="-1.17405">
        <ele>2.7</ele>
        <time>2022-06-02T12:54:15Z</time>
      </trkpt>
      <trkpt lat="49.40594" lon="-1.17405">
        <ele>2.7</ele>
        <time>2022-06-02T12:54:16Z</time>
      </trkpt>
      <trkpt lat="49.40592" lon="-1.17405">
        <ele>2.6</ele>
        <time>2022-06-02T12:54:17Z</time>
      </trkpt>
      <trkpt lat="49.40591" lon="-1.17405">
        <ele>2.6</ele>
        <time>2022-06-02T12:54:18Z</time>
      </trkpt>
      <trkpt lat="49.4059" lon="-1.17405">
        <ele>2.6</ele>
        <time>2022-06-02T12:54:19Z</time>
      </trkpt>
      <trkpt lat="49.40589" lon="-1.17405">
        <ele>2.6</ele>
        <time>2022-06-02T12:54:20Z</time>
      </trkpt>
      <trkpt lat="49.40587" lon="-1.17406">
        <ele>2.6</ele>
        <time>2022-06-02T12:54:21Z</time>
      </trkpt>
      <trkpt lat="49.40586" lon="-1.17406">
        <ele>2.6</ele>
        <time>2022-06-02T12:54:22Z</time>
      </trkpt>
      <trkpt lat="49.40585" lon="-1.17406">
        <ele>2.6</ele>
        <time>2022-06-02T12:54:23Z</time>
      </trkpt>
      <trkpt lat="49.40584" lon="-1.17406">
        <ele>2.6</ele>
        <time>2022-06-02T12:54:24Z</time>
      </trkpt>
      <trkpt lat="49.40583" lon="-1.17406">
        <ele>2.6</ele>
        <time>2022-06-02T12:54:26Z</time>
      </trkpt>
      <trkpt lat="49.40582" lon="-1.17406">
        <ele>2.6</ele>
        <time>2022-06-02T12:54:27Z</time>
      </trkpt>
      <trkpt lat="49.40581" lon="-1.17405">
        <ele>2.6</ele>
        <time>2022-06-02T12:54:28Z</time>
      </trkpt>
      <trkpt lat="49.40578" lon="-1.17405">
        <ele>2.5</ele>
        <time>2022-06-02T12:54:29Z</time>
      </trkpt>
      <trkpt lat="49.40578" lon="-1.17405">
        <ele>2.5</ele>
        <time>2022-06-02T12:54:30Z</time>
      </trkpt>
      <trkpt lat="49.40577" lon="-1.17405">
        <ele>2.5</ele>
        <time>2022-06-02T12:54:31Z</time>
      </trkpt>
      <trkpt lat="49.40575" lon="-1.17406">
        <ele>2.5</ele>
        <time>2022-06-02T12:54:32Z</time>
      </trkpt>
      <trkpt lat="49.40574" lon="-1.17406">
        <ele>2.5</ele>
        <time>2022-06-02T12:54:33Z</time>
      </trkpt>
      <trkpt lat="49.40573" lon="-1.17406">
        <ele>2.5</ele>
        <time>2022-06-02T12:54:34Z</time>
      </trkpt>
      <trkpt lat="49.4057" lon="-1.17406">
        <ele>2.5</ele>
        <time>2022-06-02T12:54:35Z</time>
      </trkpt>
      <trkpt lat="49.40569" lon="-1.17406">
        <ele>2.5</ele>
        <time>2022-06-02T12:54:37Z</time>
      </trkpt>
      <trkpt lat="49.40568" lon="-1.17407">
        <ele>2.5</ele>
        <time>2022-06-02T12:54:38Z</time>
      </trkpt>
      <trkpt lat="49.40567" lon="-1.17407">
        <ele>2.5</ele>
        <time>2022-06-02T12:54:39Z</time>
      </trkpt>
      <trkpt lat="49.40566" lon="-1.17407">
        <ele>2.5</ele>
        <time>2022-06-02T12:54:40Z</time>
      </trkpt>
      <trkpt lat="49.40565" lon="-1.17407">
        <ele>2.5</ele>
        <time>2022-06-02T12:54:41Z</time>
      </trkpt>
      <trkpt lat="49.40564" lon="-1.17407">
        <ele>2.5</ele>
        <time>2022-06-02T12:54:42Z</time>
      </trkpt>
      <trkpt lat="49.40563" lon="-1.17407">
        <ele>2.5</ele>
        <time>2022-06-02T12:54:43Z</time>
      </trkpt>
      <trkpt lat="49.40561" lon="-1.17407">
        <ele>2.5</ele>
        <time>2022-06-02T12:54:45Z</time>
      </trkpt>
      <trkpt lat="49.40559" lon="-1.17407">
        <ele>2.5</ele>
        <time>2022-06-02T12:54:46Z</time>
      </trkpt>
      <trkpt lat="49.40558" lon="-1.17407">
        <ele>2.5</ele>
        <time>2022-06-02T12:54:47Z</time>
      </trkpt>
      <trkpt lat="49.40557" lon="-1.17407">
        <ele>2.5</ele>
        <time>2022-06-02T12:54:48Z</time>
      </trkpt>
      <trkpt lat="49.40556" lon="-1.17407">
        <ele>2.5</ele>
        <time>2022-06-02T12:54:49Z</time>
      </trkpt>
      <trkpt lat="49.40554" lon="-1.17407">
        <ele>2.5</ele>
        <time>2022-06-02T12:54:50Z</time>
      </trkpt>
      <trkpt lat="49.40553" lon="-1.17407">
        <ele>2.5</ele>
        <time>2022-06-02T12:54:51Z</time>
      </trkpt>
      <trkpt lat="49.40552" lon="-1.17407">
        <ele>2.5</ele>
        <time>2022-06-02T12:54:52Z</time>
      </trkpt>
      <trkpt lat="49.40551" lon="-1.17407">
        <ele>2.5</ele>
        <time>2022-06-02T12:54:53Z</time>
      </trkpt>
      <trkpt lat="49.40549" lon="-1.17407">
        <ele>2.5</ele>
        <time>2022-06-02T12:54:54Z</time>
      </trkpt>
      <trkpt lat="49.40548" lon="-1.17407">
        <ele>2.5</ele>
        <time>2022-06-02T12:54:55Z</time>
      </trkpt>
      <trkpt lat="49.40546" lon="-1.17408">
        <ele>2.5</ele>
        <time>2022-06-02T12:54:57Z</time>
      </trkpt>
      <trkpt lat="49.40545" lon="-1.17408">
        <ele>2.5</ele>
        <time>2022-06-02T12:54:58Z</time>
      </trkpt>
      <trkpt lat="49.40544" lon="-1.17408">
        <ele>2.5</ele>
        <time>2022-06-02T12:54:59Z</time>
      </trkpt>
      <trkpt lat="49.40542" lon="-1.17408">
        <ele>2.5</ele>
        <time>2022-06-02T12:55:01Z</time>
      </trkpt>
      <trkpt lat="49.4054" lon="-1.17408">
        <ele>2.5</ele>
        <time>2022-06-02T12:55:02Z</time>
      </trkpt>
      <trkpt lat="49.40539" lon="-1.17408">
        <ele>2.5</ele>
        <time>2022-06-02T12:55:03Z</time>
      </trkpt>
      <trkpt lat="49.40538" lon="-1.17408">
        <ele>2.5</ele>
        <time>2022-06-02T12:55:04Z</time>
      </trkpt>
      <trkpt lat="49.40537" lon="-1.17408">
        <ele>2.5</ele>
        <time>2022-06-02T12:55:05Z</time>
      </trkpt>
      <trkpt lat="49.40535" lon="-1.17407">
        <ele>2.5</ele>
        <time>2022-06-02T12:55:06Z</time>
      </trkpt>
      <trkpt lat="49.40534" lon="-1.17407">
        <ele>2.5</ele>
        <time>2022-06-02T12:55:07Z</time>
      </trkpt>
      <trkpt lat="49.40532" lon="-1.17407">
        <ele>2.5</ele>
        <time>2022-06-02T12:55:08Z</time>
      </trkpt>
      <trkpt lat="49.40531" lon="-1.17406">
        <ele>2.5</ele>
        <time>2022-06-02T12:55:09Z</time>
      </trkpt>
      <trkpt lat="49.4053" lon="-1.17407">
        <ele>2.5</ele>
        <time>2022-06-02T12:55:10Z</time>
      </trkpt>
      <trkpt lat="49.40528" lon="-1.17406">
        <ele>2.5</ele>
        <time>2022-06-02T12:55:12Z</time>
      </trkpt>
      <trkpt lat="49.40526" lon="-1.17406">
        <ele>2.5</ele>
        <time>2022-06-02T12:55:13Z</time>
      </trkpt>
      <trkpt lat="49.40525" lon="-1.17406">
        <ele>2.5</ele>
        <time>2022-06-02T12:55:14Z</time>
      </trkpt>
      <trkpt lat="49.40524" lon="-1.17406">
        <ele>2.5</ele>
        <time>2022-06-02T12:55:15Z</time>
      </trkpt>
      <trkpt lat="49.40523" lon="-1.17406">
        <ele>2.5</ele>
        <time>2022-06-02T12:55:16Z</time>
      </trkpt>
      <trkpt lat="49.40522" lon="-1.17406">
        <ele>2.5</ele>
        <time>2022-06-02T12:55:17Z</time>
      </trkpt>
      <trkpt lat="49.4052" lon="-1.17406">
        <ele>2.5</ele>
        <time>2022-06-02T12:55:19Z</time>
      </trkpt>
      <trkpt lat="49.40518" lon="-1.17406">
        <ele>2.5</ele>
        <time>2022-06-02T12:55:20Z</time>
      </trkpt>
      <trkpt lat="49.40518" lon="-1.17406">
        <ele>2.5</ele>
        <time>2022-06-02T12:55:21Z</time>
      </trkpt>
      <trkpt lat="49.40517" lon="-1.17406">
        <ele>2.5</ele>
        <time>2022-06-02T12:55:22Z</time>
      </trkpt>
      <trkpt lat="49.40515" lon="-1.17406">
        <ele>2.5</ele>
        <time>2022-06-02T12:55:23Z</time>
      </trkpt>
      <trkpt lat="49.40514" lon="-1.17406">
        <ele>2.5</ele>
        <time>2022-06-02T12:55:24Z</time>
      </trkpt>
      <trkpt lat="49.40513" lon="-1.17406">
        <ele>2.5</ele>
        <time>2022-06-02T12:55:25Z</time>
      </trkpt>
      <trkpt lat="49.40511" lon="-1.17405">
        <ele>2.5</ele>
        <time>2022-06-02T12:55:26Z</time>
      </trkpt>
      <trkpt lat="49.4051" lon="-1.17405">
        <ele>2.5</ele>
        <time>2022-06-02T12:55:27Z</time>
      </trkpt>
      <trkpt lat="49.4051" lon="-1.17405">
        <ele>2.5</ele>
        <time>2022-06-02T12:55:28Z</time>
      </trkpt>
      <trkpt lat="49.40508" lon="-1.17405">
        <ele>2.5</ele>
        <time>2022-06-02T12:55:29Z</time>
      </trkpt>
      <trkpt lat="49.40507" lon="-1.17405">
        <ele>2.5</ele>
        <time>2022-06-02T12:55:30Z</time>
      </trkpt>
      <trkpt lat="49.40506" lon="-1.17405">
        <ele>2.5</ele>
        <time>2022-06-02T12:55:31Z</time>
      </trkpt>
      <trkpt lat="49.40505" lon="-1.17405">
        <ele>2.5</ele>
        <time>2022-06-02T12:55:32Z</time>
      </trkpt>
      <trkpt lat="49.40504" lon="-1.17405">
        <ele>2.5</ele>
        <time>2022-06-02T12:55:33Z</time>
      </trkpt>
      <trkpt lat="49.40503" lon="-1.17405">
        <ele>2.5</ele>
        <time>2022-06-02T12:55:34Z</time>
      </trkpt>
      <trkpt lat="49.40502" lon="-1.17404">
        <ele>2.5</ele>
        <time>2022-06-02T12:55:36Z</time>
      </trkpt>
      <trkpt lat="49.40501" lon="-1.17404">
        <ele>2.6</ele>
        <time>2022-06-02T12:55:37Z</time>
      </trkpt>
      <trkpt lat="49.40499" lon="-1.17404">
        <ele>2.6</ele>
        <time>2022-06-02T12:55:38Z</time>
      </trkpt>
      <trkpt lat="49.40498" lon="-1.17404">
        <ele>2.6</ele>
        <time>2022-06-02T12:55:39Z</time>
      </trkpt>
      <trkpt lat="49.40497" lon="-1.17404">
        <ele>2.6</ele>
        <time>2022-06-02T12:55:40Z</time>
      </trkpt>
      <trkpt lat="49.40496" lon="-1.17404">
        <ele>2.6</ele>
        <time>2022-06-02T12:55:41Z</time>
      </trkpt>
      <trkpt lat="49.40494" lon="-1.17403">
        <ele>2.6</ele>
        <time>2022-06-02T12:55:42Z</time>
      </trkpt>
      <trkpt lat="49.40493" lon="-1.17403">
        <ele>2.6</ele>
        <time>2022-06-02T12:55:43Z</time>
      </trkpt>
      <trkpt lat="49.40491" lon="-1.17403">
        <ele>2.6</ele>
        <time>2022-06-02T12:55:44Z</time>
      </trkpt>
      <trkpt lat="49.40491" lon="-1.17403">
        <ele>2.6</ele>
        <time>2022-06-02T12:55:45Z</time>
      </trkpt>
      <trkpt lat="49.40488" lon="-1.17403">
        <ele>2.6</ele>
        <time>2022-06-02T12:55:47Z</time>
      </trkpt>
      <trkpt lat="49.40488" lon="-1.17403">
        <ele>2.6</ele>
        <time>2022-06-02T12:55:48Z</time>
      </trkpt>
      <trkpt lat="49.40487" lon="-1.17403">
        <ele>2.6</ele>
        <time>2022-06-02T12:55:49Z</time>
      </trkpt>
      <trkpt lat="49.40486" lon="-1.17403">
        <ele>2.6</ele>
        <time>2022-06-02T12:55:50Z</time>
      </trkpt>
      <trkpt lat="49.40485" lon="-1.17402">
        <ele>2.6</ele>
        <time>2022-06-02T12:55:51Z</time>
      </trkpt>
      <trkpt lat="49.40483" lon="-1.17402">
        <ele>2.6</ele>
        <time>2022-06-02T12:55:53Z</time>
      </trkpt>
      <trkpt lat="49.40482" lon="-1.17402">
        <ele>2.6</ele>
        <time>2022-06-02T12:55:54Z</time>
      </trkpt>
      <trkpt lat="49.40481" lon="-1.17402">
        <ele>2.6</ele>
        <time>2022-06-02T12:55:55Z</time>
      </trkpt>
      <trkpt lat="49.4048" lon="-1.17402">
        <ele>2.7</ele>
        <time>2022-06-02T12:55:56Z</time>
      </trkpt>
      <trkpt lat="49.40479" lon="-1.17403">
        <ele>2.7</ele>
        <time>2022-06-02T12:55:57Z</time>
      </trkpt>
      <trkpt lat="49.40478" lon="-1.17403">
        <ele>2.7</ele>
        <time>2022-06-02T12:55:58Z</time>
      </trkpt>
      <trkpt lat="49.40477" lon="-1.17403">
        <ele>2.7</ele>
        <time>2022-06-02T12:55:59Z</time>
      </trkpt>
      <trkpt lat="49.40476" lon="-1.17403">
        <ele>2.7</ele>
        <time>2022-06-02T12:56:00Z</time>
      </trkpt>
      <trkpt lat="49.40474" lon="-1.17403">
        <ele>2.7</ele>
        <time>2022-06-02T12:56:01Z</time>
      </trkpt>
      <trkpt lat="49.40473" lon="-1.17403">
        <ele>2.7</ele>
        <time>2022-06-02T12:56:02Z</time>
      </trkpt>
      <trkpt lat="49.40472" lon="-1.17403">
        <ele>2.7</ele>
        <time>2022-06-02T12:56:03Z</time>
      </trkpt>
      <trkpt lat="49.4047" lon="-1.17404">
        <ele>2.7</ele>
        <time>2022-06-02T12:56:04Z</time>
      </trkpt>
      <trkpt lat="49.40469" lon="-1.17404">
        <ele>2.7</ele>
        <time>2022-06-02T12:56:05Z</time>
      </trkpt>
      <trkpt lat="49.40468" lon="-1.17404">
        <ele>2.7</ele>
        <time>2022-06-02T12:56:07Z</time>
      </trkpt>
      <trkpt lat="49.40467" lon="-1.17404">
        <ele>2.7</ele>
        <time>2022-06-02T12:56:08Z</time>
      </trkpt>
      <trkpt lat="49.40466" lon="-1.17405">
        <ele>2.7</ele>
        <time>2022-06-02T12:56:09Z</time>
      </trkpt>
      <trkpt lat="49.40465" lon="-1.17405">
        <ele>2.7</ele>
        <time>2022-06-02T12:56:10Z</time>
      </trkpt>
      <trkpt lat="49.40464" lon="-1.17405">
        <ele>2.7</ele>
        <time>2022-06-02T12:56:11Z</time>
      </trkpt>
      <trkpt lat="49.40462" lon="-1.17405">
        <ele>2.7</ele>
        <time>2022-06-02T12:56:12Z</time>
      </trkpt>
      <trkpt lat="49.4046" lon="-1.17405">
        <ele>2.7</ele>
        <time>2022-06-02T12:56:13Z</time>
      </trkpt>
      <trkpt lat="49.40459" lon="-1.17405">
        <ele>2.7</ele>
        <time>2022-06-02T12:56:14Z</time>
      </trkpt>
      <trkpt lat="49.40458" lon="-1.17405">
        <ele>2.7</ele>
        <time>2022-06-02T12:56:15Z</time>
      </trkpt>
      <trkpt lat="49.40457" lon="-1.17405">
        <ele>2.7</ele>
        <time>2022-06-02T12:56:16Z</time>
      </trkpt>
      <trkpt lat="49.40455" lon="-1.17405">
        <ele>2.7</ele>
        <time>2022-06-02T12:56:17Z</time>
      </trkpt>
      <trkpt lat="49.40454" lon="-1.17405">
        <ele>2.7</ele>
        <time>2022-06-02T12:56:18Z</time>
      </trkpt>
      <trkpt lat="49.40453" lon="-1.17405">
        <ele>2.7</ele>
        <time>2022-06-02T12:56:19Z</time>
      </trkpt>
      <trkpt lat="49.40451" lon="-1.17405">
        <ele>2.7</ele>
        <time>2022-06-02T12:56:20Z</time>
      </trkpt>
      <trkpt lat="49.4045" lon="-1.17405">
        <ele>2.7</ele>
        <time>2022-06-02T12:56:21Z</time>
      </trkpt>
      <trkpt lat="49.40449" lon="-1.17405">
        <ele>2.7</ele>
        <time>2022-06-02T12:56:22Z</time>
      </trkpt>
      <trkpt lat="49.40448" lon="-1.17406">
        <ele>2.7</ele>
        <time>2022-06-02T12:56:23Z</time>
      </trkpt>
      <trkpt lat="49.40447" lon="-1.17406">
        <ele>2.7</ele>
        <time>2022-06-02T12:56:25Z</time>
      </trkpt>
      <trkpt lat="49.40446" lon="-1.17406">
        <ele>2.7</ele>
        <time>2022-06-02T12:56:26Z</time>
      </trkpt>
      <trkpt lat="49.40445" lon="-1.17406">
        <ele>2.7</ele>
        <time>2022-06-02T12:56:27Z</time>
      </trkpt>
      <trkpt lat="49.40443" lon="-1.17405">
        <ele>2.7</ele>
        <time>2022-06-02T12:56:28Z</time>
      </trkpt>
      <trkpt lat="49.40442" lon="-1.17405">
        <ele>2.7</ele>
        <time>2022-06-02T12:56:29Z</time>
      </trkpt>
      <trkpt lat="49.40441" lon="-1.17405">
        <ele>2.7</ele>
        <time>2022-06-02T12:56:30Z</time>
      </trkpt>
      <trkpt lat="49.40439" lon="-1.17405">
        <ele>2.7</ele>
        <time>2022-06-02T12:56:31Z</time>
      </trkpt>
      <trkpt lat="49.40438" lon="-1.17405">
        <ele>2.7</ele>
        <time>2022-06-02T12:56:32Z</time>
      </trkpt>
      <trkpt lat="49.40437" lon="-1.17405">
        <ele>2.7</ele>
        <time>2022-06-02T12:56:33Z</time>
      </trkpt>
      <trkpt lat="49.40436" lon="-1.17405">
        <ele>2.7</ele>
        <time>2022-06-02T12:56:34Z</time>
      </trkpt>
      <trkpt lat="49.40434" lon="-1.17406">
        <ele>2.7</ele>
        <time>2022-06-02T12:56:35Z</time>
      </trkpt>
      <trkpt lat="49.40433" lon="-1.17406">
        <ele>2.7</ele>
        <time>2022-06-02T12:56:36Z</time>
      </trkpt>
      <trkpt lat="49.40432" lon="-1.17406">
        <ele>2.7</ele>
        <time>2022-06-02T12:56:37Z</time>
      </trkpt>
      <trkpt lat="49.40429" lon="-1.17406">
        <ele>2.6</ele>
        <time>2022-06-02T12:56:38Z</time>
      </trkpt>
      <trkpt lat="49.40429" lon="-1.17406">
        <ele>2.6</ele>
        <time>2022-06-02T12:56:39Z</time>
      </trkpt>
      <trkpt lat="49.40428" lon="-1.17406">
        <ele>2.6</ele>
        <time>2022-06-02T12:56:40Z</time>
      </trkpt>
      <trkpt lat="49.40426" lon="-1.17406">
        <ele>2.6</ele>
        <time>2022-06-02T12:56:42Z</time>
      </trkpt>
      <trkpt lat="49.40425" lon="-1.17406">
        <ele>2.6</ele>
        <time>2022-06-02T12:56:43Z</time>
      </trkpt>
      <trkpt lat="49.40424" lon="-1.17406">
        <ele>2.7</ele>
        <time>2022-06-02T12:56:44Z</time>
      </trkpt>
      <trkpt lat="49.40423" lon="-1.17406">
        <ele>2.7</ele>
        <time>2022-06-02T12:56:45Z</time>
      </trkpt>
      <trkpt lat="49.40421" lon="-1.17406">
        <ele>2.6</ele>
        <time>2022-06-02T12:56:46Z</time>
      </trkpt>
      <trkpt lat="49.4042" lon="-1.17406">
        <ele>2.6</ele>
        <time>2022-06-02T12:56:47Z</time>
      </trkpt>
      <trkpt lat="49.40419" lon="-1.17407">
        <ele>2.6</ele>
        <time>2022-06-02T12:56:48Z</time>
      </trkpt>
      <trkpt lat="49.40418" lon="-1.17407">
        <ele>2.6</ele>
        <time>2022-06-02T12:56:49Z</time>
      </trkpt>
      <trkpt lat="49.40417" lon="-1.17407">
        <ele>2.6</ele>
        <time>2022-06-02T12:56:50Z</time>
      </trkpt>
      <trkpt lat="49.40416" lon="-1.17407">
        <ele>2.6</ele>
        <time>2022-06-02T12:56:51Z</time>
      </trkpt>
      <trkpt lat="49.40414" lon="-1.17407">
        <ele>2.6</ele>
        <time>2022-06-02T12:56:52Z</time>
      </trkpt>
      <trkpt lat="49.40413" lon="-1.17407">
        <ele>2.6</ele>
        <time>2022-06-02T12:56:53Z</time>
      </trkpt>
      <trkpt lat="49.40411" lon="-1.17407">
        <ele>2.6</ele>
        <time>2022-06-02T12:56:54Z</time>
      </trkpt>
      <trkpt lat="49.4041" lon="-1.17407">
        <ele>2.6</ele>
        <time>2022-06-02T12:56:55Z</time>
      </trkpt>
      <trkpt lat="49.40408" lon="-1.17407">
        <ele>2.6</ele>
        <time>2022-06-02T12:56:56Z</time>
      </trkpt>
      <trkpt lat="49.40407" lon="-1.17407">
        <ele>2.6</ele>
        <time>2022-06-02T12:56:57Z</time>
      </trkpt>
      <trkpt lat="49.40405" lon="-1.17406">
        <ele>2.6</ele>
        <time>2022-06-02T12:56:58Z</time>
      </trkpt>
      <trkpt lat="49.40404" lon="-1.17406">
        <ele>2.6</ele>
        <time>2022-06-02T12:57:00Z</time>
      </trkpt>
      <trkpt lat="49.40404" lon="-1.17406">
        <ele>2.7</ele>
        <time>2022-06-02T12:57:01Z</time>
      </trkpt>
      <trkpt lat="49.40402" lon="-1.17406">
        <ele>2.7</ele>
        <time>2022-06-02T12:57:02Z</time>
      </trkpt>
      <trkpt lat="49.40401" lon="-1.17406">
        <ele>2.7</ele>
        <time>2022-06-02T12:57:03Z</time>
      </trkpt>
      <trkpt lat="49.40399" lon="-1.17406">
        <ele>2.7</ele>
        <time>2022-06-02T12:57:04Z</time>
      </trkpt>
      <trkpt lat="49.40398" lon="-1.17406">
        <ele>2.7</ele>
        <time>2022-06-02T12:57:05Z</time>
      </trkpt>
      <trkpt lat="49.40397" lon="-1.17406">
        <ele>2.7</ele>
        <time>2022-06-02T12:57:06Z</time>
      </trkpt>
      <trkpt lat="49.40396" lon="-1.17406">
        <ele>2.7</ele>
        <time>2022-06-02T12:57:07Z</time>
      </trkpt>
      <trkpt lat="49.40395" lon="-1.17406">
        <ele>2.7</ele>
        <time>2022-06-02T12:57:08Z</time>
      </trkpt>
      <trkpt lat="49.40394" lon="-1.17405">
        <ele>2.7</ele>
        <time>2022-06-02T12:57:09Z</time>
      </trkpt>
      <trkpt lat="49.40393" lon="-1.17405">
        <ele>2.7</ele>
        <time>2022-06-02T12:57:10Z</time>
      </trkpt>
      <trkpt lat="49.40392" lon="-1.17405">
        <ele>2.7</ele>
        <time>2022-06-02T12:57:11Z</time>
      </trkpt>
      <trkpt lat="49.40391" lon="-1.17405">
        <ele>2.7</ele>
        <time>2022-06-02T12:57:12Z</time>
      </trkpt>
      <trkpt lat="49.4039" lon="-1.17405">
        <ele>2.7</ele>
        <time>2022-06-02T12:57:13Z</time>
      </trkpt>
      <trkpt lat="49.40388" lon="-1.17405">
        <ele>2.7</ele>
        <time>2022-06-02T12:57:14Z</time>
      </trkpt>
      <trkpt lat="49.40387" lon="-1.17404">
        <ele>2.7</ele>
        <time>2022-06-02T12:57:16Z</time>
      </trkpt>
      <trkpt lat="49.40386" lon="-1.17404">
        <ele>2.7</ele>
        <time>2022-06-02T12:57:17Z</time>
      </trkpt>
      <trkpt lat="49.40385" lon="-1.17404">
        <ele>2.7</ele>
        <time>2022-06-02T12:57:18Z</time>
      </trkpt>
      <trkpt lat="49.40384" lon="-1.17404">
        <ele>2.7</ele>
        <time>2022-06-02T12:57:19Z</time>
      </trkpt>
      <trkpt lat="49.40383" lon="-1.17404">
        <ele>2.7</ele>
        <time>2022-06-02T12:57:20Z</time>
      </trkpt>
      <trkpt lat="49.40381" lon="-1.17404">
        <ele>2.7</ele>
        <time>2022-06-02T12:57:21Z</time>
      </trkpt>
      <trkpt lat="49.4038" lon="-1.17403">
        <ele>2.7</ele>
        <time>2022-06-02T12:57:22Z</time>
      </trkpt>
      <trkpt lat="49.40379" lon="-1.17404">
        <ele>2.7</ele>
        <time>2022-06-02T12:57:23Z</time>
      </trkpt>
      <trkpt lat="49.40378" lon="-1.17403">
        <ele>2.7</ele>
        <time>2022-06-02T12:57:25Z</time>
      </trkpt>
      <trkpt lat="49.40377" lon="-1.17402">
        <ele>2.7</ele>
        <time>2022-06-02T12:57:26Z</time>
      </trkpt>
      <trkpt lat="49.40376" lon="-1.17402">
        <ele>2.7</ele>
        <time>2022-06-02T12:57:27Z</time>
      </trkpt>
      <trkpt lat="49.40376" lon="-1.17402">
        <ele>2.7</ele>
        <time>2022-06-02T12:57:28Z</time>
      </trkpt>
      <trkpt lat="49.40376" lon="-1.17401">
        <ele>2.7</ele>
        <time>2022-06-02T12:57:29Z</time>
      </trkpt>
      <trkpt lat="49.40377" lon="-1.17401">
        <ele>2.7</ele>
        <time>2022-06-02T12:57:30Z</time>
      </trkpt>
      <trkpt lat="49.40377" lon="-1.17401">
        <ele>2.7</ele>
        <time>2022-06-02T12:57:31Z</time>
      </trkpt>
      <trkpt lat="49.40377" lon="-1.17401">
        <ele>2.7</ele>
        <time>2022-06-02T12:57:32Z</time>
      </trkpt>
      <trkpt lat="49.40378" lon="-1.17401">
        <ele>2.7</ele>
        <time>2022-06-02T12:57:33Z</time>
      </trkpt>
      <trkpt lat="49.40378" lon="-1.17402">
        <ele>2.7</ele>
        <time>2022-06-02T12:57:34Z</time>
      </trkpt>
      <trkpt lat="49.40378" lon="-1.17402">
        <ele>2.7</ele>
        <time>2022-06-02T12:57:35Z</time>
      </trkpt>
      <trkpt lat="49.40378" lon="-1.17402">
        <ele>2.7</ele>
        <time>2022-06-02T12:57:36Z</time>
      </trkpt>
      <trkpt lat="49.40378" lon="-1.17402">
        <ele>2.7</ele>
        <time>2022-06-02T12:57:37Z</time>
      </trkpt>
      <trkpt lat="49.40378" lon="-1.17402">
        <ele>2.7</ele>
        <time>2022-06-02T12:57:38Z</time>
      </trkpt>
      <trkpt lat="49.40379" lon="-1.17402">
        <ele>2.7</ele>
        <time>2022-06-02T12:57:39Z</time>
      </trkpt>
      <trkpt lat="49.40379" lon="-1.17402">
        <ele>2.7</ele>
        <time>2022-06-02T12:57:40Z</time>
      </trkpt>
      <trkpt lat="49.40379" lon="-1.17403">
        <ele>2.7</ele>
        <time>2022-06-02T12:57:41Z</time>
      </trkpt>
      <trkpt lat="49.40379" lon="-1.17403">
        <ele>2.7</ele>
        <time>2022-06-02T12:57:42Z</time>
      </trkpt>
      <trkpt lat="49.40379" lon="-1.17403">
        <ele>2.7</ele>
        <time>2022-06-02T12:57:43Z</time>
      </trkpt>
      <trkpt lat="49.40379" lon="-1.17403">
        <ele>2.7</ele>
        <time>2022-06-02T12:57:44Z</time>
      </trkpt>
      <trkpt lat="49.40379" lon="-1.17403">
        <ele>2.7</ele>
        <time>2022-06-02T12:57:45Z</time>
      </trkpt>
      <trkpt lat="49.40379" lon="-1.17403">
        <ele>2.7</ele>
        <time>2022-06-02T12:57:46Z</time>
      </trkpt>
      <trkpt lat="49.40379" lon="-1.17402">
        <ele>2.7</ele>
        <time>2022-06-02T12:57:47Z</time>
      </trkpt>
      <trkpt lat="49.40379" lon="-1.17402">
        <ele>2.7</ele>
        <time>2022-06-02T12:57:48Z</time>
      </trkpt>
      <trkpt lat="49.40379" lon="-1.17402">
        <ele>2.7</ele>
        <time>2022-06-02T12:57:49Z</time>
      </trkpt>
      <trkpt lat="49.40379" lon="-1.17402">
        <ele>2.7</ele>
        <time>2022-06-02T12:57:50Z</time>
      </trkpt>
      <trkpt lat="49.40379" lon="-1.17402">
        <ele>2.7</ele>
        <time>2022-06-02T12:57:51Z</time>
      </trkpt>
      <trkpt lat="49.40379" lon="-1.17402">
        <ele>2.7</ele>
        <time>2022-06-02T12:57:52Z</time>
      </trkpt>
      <trkpt lat="49.40379" lon="-1.17402">
        <ele>2.7</ele>
        <time>2022-06-02T12:57:53Z</time>
      </trkpt>
      <trkpt lat="49.40379" lon="-1.17402">
        <ele>2.7</ele>
        <time>2022-06-02T12:57:54Z</time>
      </trkpt>
      <trkpt lat="49.40379" lon="-1.17402">
        <ele>2.7</ele>
        <time>2022-06-02T12:57:55Z</time>
      </trkpt>
      <trkpt lat="49.40379" lon="-1.17402">
        <ele>2.7</ele>
        <time>2022-06-02T12:57:56Z</time>
      </trkpt>
      <trkpt lat="49.40379" lon="-1.17402">
        <ele>2.7</ele>
        <time>2022-06-02T12:57:57Z</time>
      </trkpt>
      <trkpt lat="49.40379" lon="-1.17402">
        <ele>2.7</ele>
        <time>2022-06-02T12:57:58Z</time>
      </trkpt>
      <trkpt lat="49.40379" lon="-1.17402">
        <ele>2.7</ele>
        <time>2022-06-02T12:57:59Z</time>
      </trkpt>
      <trkpt lat="49.40379" lon="-1.17402">
        <ele>2.7</ele>
        <time>2022-06-02T12:58:00Z</time>
      </trkpt>
      <trkpt lat="49.40379" lon="-1.17402">
        <ele>2.7</ele>
        <time>2022-06-02T12:58:01Z</time>
      </trkpt>
      <trkpt lat="49.40379" lon="-1.17402">
        <ele>2.7</ele>
        <time>2022-06-02T12:58:02Z</time>
      </trkpt>
      <trkpt lat="49.40379" lon="-1.17402">
        <ele>2.7</ele>
        <time>2022-06-02T12:58:03Z</time>
      </trkpt>
      <trkpt lat="49.40379" lon="-1.17402">
        <ele>2.7</ele>
        <time>2022-06-02T12:58:04Z</time>
      </trkpt>
      <trkpt lat="49.40379" lon="-1.17402">
        <ele>2.7</ele>
        <time>2022-06-02T12:58:05Z</time>
      </trkpt>
      <trkpt lat="49.40379" lon="-1.17402">
        <ele>2.7</ele>
        <time>2022-06-02T12:58:06Z</time>
      </trkpt>
      <trkpt lat="49.40379" lon="-1.17402">
        <ele>2.7</ele>
        <time>2022-06-02T12:58:07Z</time>
      </trkpt>
      <trkpt lat="49.40379" lon="-1.17402">
        <ele>2.7</ele>
        <time>2022-06-02T12:58:08Z</time>
      </trkpt>
      <trkpt lat="49.40379" lon="-1.17402">
        <ele>2.7</ele>
        <time>2022-06-02T12:58:09Z</time>
      </trkpt>
      <trkpt lat="49.40379" lon="-1.17402">
        <ele>2.7</ele>
        <time>2022-06-02T12:58:10Z</time>
      </trkpt>
      <trkpt lat="49.40379" lon="-1.17402">
        <ele>2.7</ele>
        <time>2022-06-02T12:58:11Z</time>
      </trkpt>
      <trkpt lat="49.40379" lon="-1.17402">
        <ele>2.7</ele>
        <time>2022-06-02T12:58:12Z</time>
      </trkpt>
      <trkpt lat="49.40379" lon="-1.17402">
        <ele>2.7</ele>
        <time>2022-06-02T12:58:13Z</time>
      </trkpt>
      <trkpt lat="49.40379" lon="-1.17402">
        <ele>2.7</ele>
        <time>2022-06-02T12:58:14Z</time>
      </trkpt>
      <trkpt lat="49.40379" lon="-1.17402">
        <ele>2.7</ele>
        <time>2022-06-02T12:58:15Z</time>
      </trkpt>
      <trkpt lat="49.40379" lon="-1.17402">
        <ele>2.7</ele>
        <time>2022-06-02T12:58:16Z</time>
      </trkpt>
      <trkpt lat="49.40379" lon="-1.17402">
        <ele>2.7</ele>
        <time>2022-06-02T12:58:17Z</time>
      </trkpt>
      <trkpt lat="49.40379" lon="-1.17402">
        <ele>2.7</ele>
        <time>2022-06-02T12:58:18Z</time>
      </trkpt>
      <trkpt lat="49.40379" lon="-1.17402">
        <ele>2.7</ele>
        <time>2022-06-02T12:58:19Z</time>
      </trkpt>
      <trkpt lat="49.40379" lon="-1.17402">
        <ele>2.7</ele>
        <time>2022-06-02T12:58:20Z</time>
      </trkpt>
      <trkpt lat="49.40379" lon="-1.17402">
        <ele>2.7</ele>
        <time>2022-06-02T12:58:21Z</time>
      </trkpt>
      <trkpt lat="49.40379" lon="-1.17402">
        <ele>2.7</ele>
        <time>2022-06-02T12:58:22Z</time>
      </trkpt>
      <trkpt lat="49.40379" lon="-1.17402">
        <ele>2.7</ele>
        <time>2022-06-02T12:58:23Z</time>
      </trkpt>
      <trkpt lat="49.40379" lon="-1.17402">
        <ele>2.7</ele>
        <time>2022-06-02T12:58:24Z</time>
      </trkpt>
      <trkpt lat="49.40379" lon="-1.17402">
        <ele>2.7</ele>
        <time>2022-06-02T12:58:25Z</time>
      </trkpt>
      <trkpt lat="49.40379" lon="-1.17402">
        <ele>2.7</ele>
        <time>2022-06-02T12:58:26Z</time>
      </trkpt>
      <trkpt lat="49.40379" lon="-1.17402">
        <ele>2.7</ele>
        <time>2022-06-02T12:58:27Z</time>
      </trkpt>
      <trkpt lat="49.40379" lon="-1.17402">
        <ele>2.7</ele>
        <time>2022-06-02T12:58:28Z</time>
      </trkpt>
      <trkpt lat="49.40379" lon="-1.17402">
        <ele>2.7</ele>
        <time>2022-06-02T12:58:29Z</time>
      </trkpt>
      <trkpt lat="49.40379" lon="-1.17402">
        <ele>2.7</ele>
        <time>2022-06-02T12:58:30Z</time>
      </trkpt>
      <trkpt lat="49.40379" lon="-1.17402">
        <ele>2.7</ele>
        <time>2022-06-02T12:58:31Z</time>
      </trkpt>
      <trkpt lat="49.40379" lon="-1.17402">
        <ele>2.7</ele>
        <time>2022-06-02T12:58:32Z</time>
      </trkpt>
      <trkpt lat="49.40379" lon="-1.17402">
        <ele>2.7</ele>
        <time>2022-06-02T12:58:33Z</time>
      </trkpt>
      <trkpt lat="49.40379" lon="-1.17402">
        <ele>2.7</ele>
        <time>2022-06-02T12:58:34Z</time>
      </trkpt>
      <trkpt lat="49.40379" lon="-1.17402">
        <ele>2.7</ele>
        <time>2022-06-02T12:58:35Z</time>
      </trkpt>
      <trkpt lat="49.40379" lon="-1.17402">
        <ele>2.7</ele>
        <time>2022-06-02T12:58:36Z</time>
      </trkpt>
      <trkpt lat="49.40379" lon="-1.17402">
        <ele>2.7</ele>
        <time>2022-06-02T12:58:37Z</time>
      </trkpt>
      <trkpt lat="49.40379" lon="-1.17402">
        <ele>2.7</ele>
        <time>2022-06-02T12:58:38Z</time>
      </trkpt>
      <trkpt lat="49.40379" lon="-1.17402">
        <ele>2.7</ele>
        <time>2022-06-02T12:58:39Z</time>
      </trkpt>
      <trkpt lat="49.40379" lon="-1.17402">
        <ele>2.7</ele>
        <time>2022-06-02T12:58:40Z</time>
      </trkpt>
      <trkpt lat="49.40379" lon="-1.17402">
        <ele>2.7</ele>
        <time>2022-06-02T12:58:41Z</time>
      </trkpt>
      <trkpt lat="49.40379" lon="-1.17402">
        <ele>2.7</ele>
        <time>2022-06-02T12:58:42Z</time>
      </trkpt>
      <trkpt lat="49.40379" lon="-1.17402">
        <ele>2.7</ele>
        <time>2022-06-02T12:58:43Z</time>
      </trkpt>
      <trkpt lat="49.40379" lon="-1.17402">
        <ele>2.7</ele>
        <time>2022-06-02T12:58:44Z</time>
      </trkpt>
      <trkpt lat="49.40379" lon="-1.17402">
        <ele>2.7</ele>
        <time>2022-06-02T12:58:45Z</time>
      </trkpt>
      <trkpt lat="49.40379" lon="-1.17402">
        <ele>2.7</ele>
        <time>2022-06-02T12:58:46Z</time>
      </trkpt>
      <trkpt lat="49.40379" lon="-1.17402">
        <ele>2.7</ele>
        <time>2022-06-02T12:58:47Z</time>
      </trkpt>
      <trkpt lat="49.40379" lon="-1.17402">
        <ele>2.7</ele>
        <time>2022-06-02T12:58:48Z</time>
      </trkpt>
      <trkpt lat="49.40379" lon="-1.17402">
        <ele>2.7</ele>
        <time>2022-06-02T12:58:49Z</time>
      </trkpt>
      <trkpt lat="49.40379" lon="-1.17402">
        <ele>2.7</ele>
        <time>2022-06-02T12:58:50Z</time>
      </trkpt>
      <trkpt lat="49.40379" lon="-1.17402">
        <ele>2.7</ele>
        <time>2022-06-02T12:58:51Z</time>
      </trkpt>
      <trkpt lat="49.40379" lon="-1.17402">
        <ele>2.7</ele>
        <time>2022-06-02T12:58:52Z</time>
      </trkpt>
      <trkpt lat="49.40379" lon="-1.17402">
        <ele>2.7</ele>
        <time>2022-06-02T12:58:53Z</time>
      </trkpt>
      <trkpt lat="49.40379" lon="-1.17402">
        <ele>2.7</ele>
        <time>2022-06-02T12:58:54Z</time>
      </trkpt>
      <trkpt lat="49.40379" lon="-1.17402">
        <ele>2.7</ele>
        <time>2022-06-02T12:58:55Z</time>
      </trkpt>
      <trkpt lat="49.40379" lon="-1.17402">
        <ele>2.7</ele>
        <time>2022-06-02T12:58:56Z</time>
      </trkpt>
      <trkpt lat="49.40379" lon="-1.17402">
        <ele>2.7</ele>
        <time>2022-06-02T12:58:57Z</time>
      </trkpt>
      <trkpt lat="49.40379" lon="-1.17402">
        <ele>2.7</ele>
        <time>2022-06-02T12:58:58Z</time>
      </trkpt>
      <trkpt lat="49.40379" lon="-1.17402">
        <ele>2.7</ele>
        <time>2022-06-02T12:58:59Z</time>
      </trkpt>
      <trkpt lat="49.40379" lon="-1.17402">
        <ele>2.7</ele>
        <time>2022-06-02T12:59:00Z</time>
      </trkpt>
      <trkpt lat="49.40379" lon="-1.17402">
        <ele>2.7</ele>
        <time>2022-06-02T12:59:01Z</time>
      </trkpt>
      <trkpt lat="49.40379" lon="-1.17402">
        <ele>2.7</ele>
        <time>2022-06-02T12:59:02Z</time>
      </trkpt>
      <trkpt lat="49.40379" lon="-1.17402">
        <ele>2.7</ele>
        <time>2022-06-02T12:59:03Z</time>
      </trkpt>
      <trkpt lat="49.40379" lon="-1.17402">
        <ele>2.7</ele>
        <time>2022-06-02T12:59:04Z</time>
      </trkpt>
      <trkpt lat="49.40379" lon="-1.17402">
        <ele>2.7</ele>
        <time>2022-06-02T12:59:05Z</time>
      </trkpt>
      <trkpt lat="49.40379" lon="-1.17402">
        <ele>2.7</ele>
        <time>2022-06-02T12:59:06Z</time>
      </trkpt>
      <trkpt lat="49.40379" lon="-1.17402">
        <ele>2.7</ele>
        <time>2022-06-02T12:59:07Z</time>
      </trkpt>
      <trkpt lat="49.40379" lon="-1.17402">
        <ele>2.7</ele>
        <time>2022-06-02T12:59:08Z</time>
      </trkpt>
      <trkpt lat="49.40379" lon="-1.17402">
        <ele>2.7</ele>
        <time>2022-06-02T12:59:09Z</time>
      </trkpt>
      <trkpt lat="49.40379" lon="-1.17402">
        <ele>2.7</ele>
        <time>2022-06-02T12:59:10Z</time>
      </trkpt>
      <trkpt lat="49.40379" lon="-1.17402">
        <ele>2.7</ele>
        <time>2022-06-02T12:59:11Z</time>
      </trkpt>
      <trkpt lat="49.40379" lon="-1.17402">
        <ele>2.7</ele>
        <time>2022-06-02T12:59:12Z</time>
      </trkpt>
      <trkpt lat="49.40379" lon="-1.17402">
        <ele>2.7</ele>
        <time>2022-06-02T12:59:13Z</time>
      </trkpt>
      <trkpt lat="49.40379" lon="-1.17402">
        <ele>2.7</ele>
        <time>2022-06-02T12:59:14Z</time>
      </trkpt>
      <trkpt lat="49.40379" lon="-1.17402">
        <ele>2.7</ele>
        <time>2022-06-02T12:59:15Z</time>
      </trkpt>
      <trkpt lat="49.40379" lon="-1.17402">
        <ele>2.7</ele>
        <time>2022-06-02T12:59:16Z</time>
      </trkpt>
      <trkpt lat="49.40379" lon="-1.17402">
        <ele>2.7</ele>
        <time>2022-06-02T12:59:17Z</time>
      </trkpt>
      <trkpt lat="49.40379" lon="-1.17402">
        <ele>2.7</ele>
        <time>2022-06-02T12:59:18Z</time>
      </trkpt>
      <trkpt lat="49.40379" lon="-1.17402">
        <ele>2.7</ele>
        <time>2022-06-02T12:59:19Z</time>
      </trkpt>
      <trkpt lat="49.40379" lon="-1.17402">
        <ele>2.7</ele>
        <time>2022-06-02T12:59:20Z</time>
      </trkpt>
      <trkpt lat="49.40379" lon="-1.17402">
        <ele>2.7</ele>
        <time>2022-06-02T12:59:21Z</time>
      </trkpt>
      <trkpt lat="49.40379" lon="-1.17402">
        <ele>2.7</ele>
        <time>2022-06-02T12:59:22Z</time>
      </trkpt>
      <trkpt lat="49.40379" lon="-1.17402">
        <ele>2.7</ele>
        <time>2022-06-02T12:59:23Z</time>
      </trkpt>
      <trkpt lat="49.40379" lon="-1.17402">
        <ele>2.7</ele>
        <time>2022-06-02T12:59:24Z</time>
      </trkpt>
      <trkpt lat="49.40379" lon="-1.17402">
        <ele>2.7</ele>
        <time>2022-06-02T12:59:25Z</time>
      </trkpt>
      <trkpt lat="49.40379" lon="-1.17402">
        <ele>2.7</ele>
        <time>2022-06-02T12:59:26Z</time>
      </trkpt>
      <trkpt lat="49.40379" lon="-1.17402">
        <ele>2.7</ele>
        <time>2022-06-02T12:59:27Z</time>
      </trkpt>
      <trkpt lat="49.40379" lon="-1.17402">
        <ele>2.7</ele>
        <time>2022-06-02T12:59:28Z</time>
      </trkpt>
      <trkpt lat="49.40379" lon="-1.17402">
        <ele>2.7</ele>
        <time>2022-06-02T12:59:29Z</time>
      </trkpt>
      <trkpt lat="49.40379" lon="-1.17402">
        <ele>2.7</ele>
        <time>2022-06-02T12:59:30Z</time>
      </trkpt>
      <trkpt lat="49.40379" lon="-1.17402">
        <ele>2.7</ele>
        <time>2022-06-02T12:59:31Z</time>
      </trkpt>
      <trkpt lat="49.40379" lon="-1.17402">
        <ele>2.7</ele>
        <time>2022-06-02T12:59:32Z</time>
      </trkpt>
      <trkpt lat="49.40379" lon="-1.17402">
        <ele>2.7</ele>
        <time>2022-06-02T12:59:33Z</time>
      </trkpt>
      <trkpt lat="49.40379" lon="-1.17402">
        <ele>2.7</ele>
        <time>2022-06-02T12:59:34Z</time>
      </trkpt>
      <trkpt lat="49.40379" lon="-1.17402">
        <ele>2.7</ele>
        <time>2022-06-02T12:59:35Z</time>
      </trkpt>
      <trkpt lat="49.40379" lon="-1.17402">
        <ele>2.7</ele>
        <time>2022-06-02T12:59:36Z</time>
      </trkpt>
      <trkpt lat="49.40379" lon="-1.17402">
        <ele>2.7</ele>
        <time>2022-06-02T12:59:37Z</time>
      </trkpt>
      <trkpt lat="49.40379" lon="-1.17402">
        <ele>2.7</ele>
        <time>2022-06-02T12:59:38Z</time>
      </trkpt>
      <trkpt lat="49.4038" lon="-1.17404">
        <ele>2.7</ele>
        <time>2022-06-02T12:59:39Z</time>
      </trkpt>
      <trkpt lat="49.40381" lon="-1.17406">
        <ele>2.7</ele>
        <time>2022-06-02T12:59:40Z</time>
      </trkpt>
      <trkpt lat="49.40382" lon="-1.17407">
        <ele>2.7</ele>
        <time>2022-06-02T12:59:41Z</time>
      </trkpt>
      <trkpt lat="49.40382" lon="-1.17408">
        <ele>2.7</ele>
        <time>2022-06-02T12:59:42Z</time>
      </trkpt>
      <trkpt lat="49.40382" lon="-1.17409">
        <ele>2.7</ele>
        <time>2022-06-02T12:59:43Z</time>
      </trkpt>
      <trkpt lat="49.40383" lon="-1.17409">
        <ele>2.7</ele>
        <time>2022-06-02T12:59:44Z</time>
      </trkpt>
      <trkpt lat="49.40383" lon="-1.1741">
        <ele>2.7</ele>
        <time>2022-06-02T12:59:45Z</time>
      </trkpt>
      <trkpt lat="49.40383" lon="-1.1741">
        <ele>2.7</ele>
        <time>2022-06-02T12:59:46Z</time>
      </trkpt>
      <trkpt lat="49.40383" lon="-1.1741">
        <ele>2.7</ele>
        <time>2022-06-02T12:59:47Z</time>
      </trkpt>
      <trkpt lat="49.40383" lon="-1.1741">
        <ele>2.7</ele>
        <time>2022-06-02T12:59:48Z</time>
      </trkpt>
      <trkpt lat="49.40383" lon="-1.1741">
        <ele>2.7</ele>
        <time>2022-06-02T12:59:49Z</time>
      </trkpt>
      <trkpt lat="49.40383" lon="-1.1741">
        <ele>2.7</ele>
        <time>2022-06-02T12:59:50Z</time>
      </trkpt>
      <trkpt lat="49.40383" lon="-1.1741">
        <ele>2.7</ele>
        <time>2022-06-02T12:59:51Z</time>
      </trkpt>
      <trkpt lat="49.40383" lon="-1.1741">
        <ele>2.7</ele>
        <time>2022-06-02T12:59:52Z</time>
      </trkpt>
      <trkpt lat="49.40383" lon="-1.1741">
        <ele>2.7</ele>
        <time>2022-06-02T12:59:53Z</time>
      </trkpt>
      <trkpt lat="49.40383" lon="-1.1741">
        <ele>2.7</ele>
        <time>2022-06-02T12:59:54Z</time>
      </trkpt>
      <trkpt lat="49.40383" lon="-1.1741">
        <ele>2.7</ele>
        <time>2022-06-02T12:59:55Z</time>
      </trkpt>
      <trkpt lat="49.40383" lon="-1.1741">
        <ele>2.7</ele>
        <time>2022-06-02T12:59:56Z</time>
      </trkpt>
      <trkpt lat="49.40383" lon="-1.1741">
        <ele>2.7</ele>
        <time>2022-06-02T12:59:57Z</time>
      </trkpt>
      <trkpt lat="49.40383" lon="-1.1741">
        <ele>2.7</ele>
        <time>2022-06-02T12:59:58Z</time>
      </trkpt>
      <trkpt lat="49.40383" lon="-1.1741">
        <ele>2.7</ele>
        <time>2022-06-02T12:59:59Z</time>
      </trkpt>
      <trkpt lat="49.40383" lon="-1.1741">
        <ele>2.7</ele>
        <time>2022-06-02T13:00:00Z</time>
      </trkpt>
      <trkpt lat="49.40383" lon="-1.1741">
        <ele>2.7</ele>
        <time>2022-06-02T13:00:01Z</time>
      </trkpt>
      <trkpt lat="49.40383" lon="-1.1741">
        <ele>2.7</ele>
        <time>2022-06-02T13:00:02Z</time>
      </trkpt>
      <trkpt lat="49.40383" lon="-1.1741">
        <ele>2.7</ele>
        <time>2022-06-02T13:00:03Z</time>
      </trkpt>
      <trkpt lat="49.40383" lon="-1.1741">
        <ele>2.7</ele>
        <time>2022-06-02T13:00:04Z</time>
      </trkpt>
      <trkpt lat="49.40383" lon="-1.1741">
        <ele>2.7</ele>
        <time>2022-06-02T13:00:05Z</time>
      </trkpt>
      <trkpt lat="49.40382" lon="-1.17407">
        <ele>2.7</ele>
        <time>2022-06-02T13:00:06Z</time>
      </trkpt>
      <trkpt lat="49.40381" lon="-1.17406">
        <ele>2.7</ele>
        <time>2022-06-02T13:00:07Z</time>
      </trkpt>
      <trkpt lat="49.40381" lon="-1.17405">
        <ele>2.7</ele>
        <time>2022-06-02T13:00:08Z</time>
      </trkpt>
      <trkpt lat="49.40381" lon="-1.17405">
        <ele>2.7</ele>
        <time>2022-06-02T13:00:09Z</time>
      </trkpt>
      <trkpt lat="49.40381" lon="-1.17405">
        <ele>2.7</ele>
        <time>2022-06-02T13:00:10Z</time>
      </trkpt>
      <trkpt lat="49.40381" lon="-1.17405">
        <ele>2.7</ele>
        <time>2022-06-02T13:00:11Z</time>
      </trkpt>
      <trkpt lat="49.40381" lon="-1.17405">
        <ele>2.7</ele>
        <time>2022-06-02T13:00:12Z</time>
      </trkpt>
      <trkpt lat="49.40381" lon="-1.17405">
        <ele>2.7</ele>
        <time>2022-06-02T13:00:13Z</time>
      </trkpt>
      <trkpt lat="49.40381" lon="-1.17405">
        <ele>2.7</ele>
        <time>2022-06-02T13:00:14Z</time>
      </trkpt>
      <trkpt lat="49.40381" lon="-1.17405">
        <ele>2.7</ele>
        <time>2022-06-02T13:00:15Z</time>
      </trkpt>
      <trkpt lat="49.40381" lon="-1.17405">
        <ele>2.7</ele>
        <time>2022-06-02T13:00:16Z</time>
      </trkpt>
      <trkpt lat="49.40381" lon="-1.17405">
        <ele>2.7</ele>
        <time>2022-06-02T13:00:17Z</time>
      </trkpt>
      <trkpt lat="49.40381" lon="-1.17405">
        <ele>2.7</ele>
        <time>2022-06-02T13:00:18Z</time>
      </trkpt>
      <trkpt lat="49.40381" lon="-1.17405">
        <ele>2.7</ele>
        <time>2022-06-02T13:00:19Z</time>
      </trkpt>
      <trkpt lat="49.40381" lon="-1.17405">
        <ele>2.7</ele>
        <time>2022-06-02T13:00:20Z</time>
      </trkpt>
      <trkpt lat="49.40381" lon="-1.17405">
        <ele>2.7</ele>
        <time>2022-06-02T13:00:21Z</time>
      </trkpt>
      <trkpt lat="49.40381" lon="-1.17405">
        <ele>2.7</ele>
        <time>2022-06-02T13:00:22Z</time>
      </trkpt>
      <trkpt lat="49.40381" lon="-1.17405">
        <ele>2.7</ele>
        <time>2022-06-02T13:00:23Z</time>
      </trkpt>
      <trkpt lat="49.40381" lon="-1.17405">
        <ele>2.7</ele>
        <time>2022-06-02T13:00:24Z</time>
      </trkpt>
      <trkpt lat="49.40381" lon="-1.17405">
        <ele>2.7</ele>
        <time>2022-06-02T13:00:25Z</time>
      </trkpt>
      <trkpt lat="49.40381" lon="-1.17405">
        <ele>2.7</ele>
        <time>2022-06-02T13:00:26Z</time>
      </trkpt>
      <trkpt lat="49.40381" lon="-1.17405">
        <ele>2.7</ele>
        <time>2022-06-02T13:00:27Z</time>
      </trkpt>
      <trkpt lat="49.40381" lon="-1.17405">
        <ele>2.7</ele>
        <time>2022-06-02T13:00:28Z</time>
      </trkpt>
      <trkpt lat="49.40381" lon="-1.17405">
        <ele>2.7</ele>
        <time>2022-06-02T13:00:29Z</time>
      </trkpt>
      <trkpt lat="49.40381" lon="-1.17405">
        <ele>2.7</ele>
        <time>2022-06-02T13:00:30Z</time>
      </trkpt>
      <trkpt lat="49.40381" lon="-1.17405">
        <ele>2.7</ele>
        <time>2022-06-02T13:00:31Z</time>
      </trkpt>
      <trkpt lat="49.40381" lon="-1.17405">
        <ele>2.7</ele>
        <time>2022-06-02T13:00:32Z</time>
      </trkpt>
      <trkpt lat="49.40381" lon="-1.17405">
        <ele>2.7</ele>
        <time>2022-06-02T13:00:33Z</time>
      </trkpt>
      <trkpt lat="49.40381" lon="-1.17405">
        <ele>2.7</ele>
        <time>2022-06-02T13:00:34Z</time>
      </trkpt>
      <trkpt lat="49.40381" lon="-1.17405">
        <ele>2.7</ele>
        <time>2022-06-02T13:00:35Z</time>
      </trkpt>
      <trkpt lat="49.40381" lon="-1.17405">
        <ele>2.7</ele>
        <time>2022-06-02T13:00:36Z</time>
      </trkpt>
      <trkpt lat="49.40381" lon="-1.17405">
        <ele>2.7</ele>
        <time>2022-06-02T13:00:37Z</time>
      </trkpt>
      <trkpt lat="49.40381" lon="-1.17405">
        <ele>2.7</ele>
        <time>2022-06-02T13:00:38Z</time>
      </trkpt>
      <trkpt lat="49.40381" lon="-1.17405">
        <ele>2.7</ele>
        <time>2022-06-02T13:00:39Z</time>
      </trkpt>
      <trkpt lat="49.40381" lon="-1.17405">
        <ele>2.7</ele>
        <time>2022-06-02T13:00:40Z</time>
      </trkpt>
      <trkpt lat="49.40381" lon="-1.17405">
        <ele>2.7</ele>
        <time>2022-06-02T13:00:41Z</time>
      </trkpt>
      <trkpt lat="49.40381" lon="-1.17405">
        <ele>2.7</ele>
        <time>2022-06-02T13:00:42Z</time>
      </trkpt>
      <trkpt lat="49.40381" lon="-1.17405">
        <ele>2.7</ele>
        <time>2022-06-02T13:00:43Z</time>
      </trkpt>
      <trkpt lat="49.40381" lon="-1.17405">
        <ele>2.7</ele>
        <time>2022-06-02T13:00:44Z</time>
      </trkpt>
      <trkpt lat="49.40381" lon="-1.17405">
        <ele>2.7</ele>
        <time>2022-06-02T13:00:45Z</time>
      </trkpt>
      <trkpt lat="49.40381" lon="-1.17405">
        <ele>2.7</ele>
        <time>2022-06-02T13:00:46Z</time>
      </trkpt>
      <trkpt lat="49.40381" lon="-1.17405">
        <ele>2.7</ele>
        <time>2022-06-02T13:00:47Z</time>
      </trkpt>
      <trkpt lat="49.40381" lon="-1.17405">
        <ele>2.7</ele>
        <time>2022-06-02T13:00:48Z</time>
      </trkpt>
      <trkpt lat="49.40381" lon="-1.17405">
        <ele>2.7</ele>
        <time>2022-06-02T13:00:49Z</time>
      </trkpt>
      <trkpt lat="49.40381" lon="-1.17405">
        <ele>2.7</ele>
        <time>2022-06-02T13:00:50Z</time>
      </trkpt>
      <trkpt lat="49.40381" lon="-1.17405">
        <ele>2.7</ele>
        <time>2022-06-02T13:00:51Z</time>
      </trkpt>
      <trkpt lat="49.40381" lon="-1.17405">
        <ele>2.7</ele>
        <time>2022-06-02T13:00:52Z</time>
      </trkpt>
      <trkpt lat="49.40381" lon="-1.17405">
        <ele>2.7</ele>
        <time>2022-06-02T13:00:53Z</time>
      </trkpt>
      <trkpt lat="49.40381" lon="-1.17405">
        <ele>2.7</ele>
        <time>2022-06-02T13:00:54Z</time>
      </trkpt>
      <trkpt lat="49.40381" lon="-1.17405">
        <ele>2.7</ele>
        <time>2022-06-02T13:00:55Z</time>
      </trkpt>
      <trkpt lat="49.40381" lon="-1.17405">
        <ele>2.7</ele>
        <time>2022-06-02T13:00:56Z</time>
      </trkpt>
      <trkpt lat="49.40381" lon="-1.17405">
        <ele>2.7</ele>
        <time>2022-06-02T13:00:57Z</time>
      </trkpt>
      <trkpt lat="49.40381" lon="-1.17405">
        <ele>2.7</ele>
        <time>2022-06-02T13:00:58Z</time>
      </trkpt>
      <trkpt lat="49.40381" lon="-1.17405">
        <ele>2.7</ele>
        <time>2022-06-02T13:00:59Z</time>
      </trkpt>
      <trkpt lat="49.40381" lon="-1.17405">
        <ele>2.7</ele>
        <time>2022-06-02T13:01:00Z</time>
      </trkpt>
      <trkpt lat="49.40381" lon="-1.17405">
        <ele>2.7</ele>
        <time>2022-06-02T13:01:01Z</time>
      </trkpt>
      <trkpt lat="49.40381" lon="-1.17405">
        <ele>2.7</ele>
        <time>2022-06-02T13:01:02Z</time>
      </trkpt>
      <trkpt lat="49.40381" lon="-1.17405">
        <ele>2.7</ele>
        <time>2022-06-02T13:01:03Z</time>
      </trkpt>
      <trkpt lat="49.4038" lon="-1.17406">
        <ele>2.7</ele>
        <time>2022-06-02T13:01:04Z</time>
      </trkpt>
      <trkpt lat="49.40379" lon="-1.17406">
        <ele>2.7</ele>
        <time>2022-06-02T13:01:05Z</time>
      </trkpt>
      <trkpt lat="49.40378" lon="-1.17406">
        <ele>2.7</ele>
        <time>2022-06-02T13:01:06Z</time>
      </trkpt>
      <trkpt lat="49.40377" lon="-1.17406">
        <ele>2.7</ele>
        <time>2022-06-02T13:01:07Z</time>
      </trkpt>
      <trkpt lat="49.40377" lon="-1.17406">
        <ele>2.7</ele>
        <time>2022-06-02T13:01:08Z</time>
      </trkpt>
      <trkpt lat="49.40376" lon="-1.17406">
        <ele>2.7</ele>
        <time>2022-06-02T13:01:09Z</time>
      </trkpt>
      <trkpt lat="49.40375" lon="-1.17405">
        <ele>2.7</ele>
        <time>2022-06-02T13:01:11Z</time>
      </trkpt>
      <trkpt lat="49.40373" lon="-1.17405">
        <ele>2.7</ele>
        <time>2022-06-02T13:01:12Z</time>
      </trkpt>
      <trkpt lat="49.40371" lon="-1.17405">
        <ele>2.7</ele>
        <time>2022-06-02T13:01:13Z</time>
      </trkpt>
      <trkpt lat="49.40368" lon="-1.17405">
        <ele>2.7</ele>
        <time>2022-06-02T13:01:14Z</time>
      </trkpt>
      <trkpt lat="49.40367" lon="-1.17405">
        <ele>2.7</ele>
        <time>2022-06-02T13:01:15Z</time>
      </trkpt>
      <trkpt lat="49.40366" lon="-1.17406">
        <ele>2.7</ele>
        <time>2022-06-02T13:01:16Z</time>
      </trkpt>
      <trkpt lat="49.40364" lon="-1.17406">
        <ele>2.7</ele>
        <time>2022-06-02T13:01:17Z</time>
      </trkpt>
      <trkpt lat="49.40363" lon="-1.17406">
        <ele>2.7</ele>
        <time>2022-06-02T13:01:18Z</time>
      </trkpt>
      <trkpt lat="49.40361" lon="-1.17407">
        <ele>2.7</ele>
        <time>2022-06-02T13:01:19Z</time>
      </trkpt>
      <trkpt lat="49.4036" lon="-1.17407">
        <ele>2.7</ele>
        <time>2022-06-02T13:01:21Z</time>
      </trkpt>
      <trkpt lat="49.40359" lon="-1.17407">
        <ele>2.7</ele>
        <time>2022-06-02T13:01:22Z</time>
      </trkpt>
      <trkpt lat="49.40357" lon="-1.17407">
        <ele>2.7</ele>
        <time>2022-06-02T13:01:23Z</time>
      </trkpt>
      <trkpt lat="49.40356" lon="-1.17407">
        <ele>2.7</ele>
        <time>2022-06-02T13:01:24Z</time>
      </trkpt>
      <trkpt lat="49.40354" lon="-1.17407">
        <ele>2.7</ele>
        <time>2022-06-02T13:01:25Z</time>
      </trkpt>
      <trkpt lat="49.40353" lon="-1.17407">
        <ele>2.7</ele>
        <time>2022-06-02T13:01:26Z</time>
      </trkpt>
      <trkpt lat="49.40352" lon="-1.17408">
        <ele>2.7</ele>
        <time>2022-06-02T13:01:27Z</time>
      </trkpt>
      <trkpt lat="49.40351" lon="-1.17408">
        <ele>2.7</ele>
        <time>2022-06-02T13:01:28Z</time>
      </trkpt>
      <trkpt lat="49.40349" lon="-1.17408">
        <ele>2.7</ele>
        <time>2022-06-02T13:01:29Z</time>
      </trkpt>
      <trkpt lat="49.40348" lon="-1.17408">
        <ele>2.7</ele>
        <time>2022-06-02T13:01:30Z</time>
      </trkpt>
      <trkpt lat="49.40347" lon="-1.17407">
        <ele>2.7</ele>
        <time>2022-06-02T13:01:31Z</time>
      </trkpt>
      <trkpt lat="49.40345" lon="-1.17407">
        <ele>2.7</ele>
        <time>2022-06-02T13:01:33Z</time>
      </trkpt>
      <trkpt lat="49.40344" lon="-1.17407">
        <ele>2.7</ele>
        <time>2022-06-02T13:01:34Z</time>
      </trkpt>
      <trkpt lat="49.40343" lon="-1.17406">
        <ele>2.7</ele>
        <time>2022-06-02T13:01:35Z</time>
      </trkpt>
      <trkpt lat="49.40342" lon="-1.17406">
        <ele>2.7</ele>
        <time>2022-06-02T13:01:36Z</time>
      </trkpt>
      <trkpt lat="49.40342" lon="-1.17405">
        <ele>2.7</ele>
        <time>2022-06-02T13:01:37Z</time>
      </trkpt>
      <trkpt lat="49.40342" lon="-1.17405">
        <ele>2.7</ele>
        <time>2022-06-02T13:01:38Z</time>
      </trkpt>
      <trkpt lat="49.40342" lon="-1.17404">
        <ele>2.7</ele>
        <time>2022-06-02T13:01:39Z</time>
      </trkpt>
      <trkpt lat="49.4034" lon="-1.17404">
        <ele>2.7</ele>
        <time>2022-06-02T13:01:41Z</time>
      </trkpt>
      <trkpt lat="49.40339" lon="-1.17405">
        <ele>2.7</ele>
        <time>2022-06-02T13:01:42Z</time>
      </trkpt>
      <trkpt lat="49.40337" lon="-1.17405">
        <ele>2.7</ele>
        <time>2022-06-02T13:01:43Z</time>
      </trkpt>
      <trkpt lat="49.40335" lon="-1.17408">
        <ele>2.7</ele>
        <time>2022-06-02T13:01:44Z</time>
      </trkpt>
      <trkpt lat="49.40334" lon="-1.17408">
        <ele>2.7</ele>
        <time>2022-06-02T13:01:45Z</time>
      </trkpt>
      <trkpt lat="49.40331" lon="-1.17407">
        <ele>2.7</ele>
        <time>2022-06-02T13:01:46Z</time>
      </trkpt>
      <trkpt lat="49.4033" lon="-1.17406">
        <ele>2.7</ele>
        <time>2022-06-02T13:01:47Z</time>
      </trkpt>
      <trkpt lat="49.40328" lon="-1.17406">
        <ele>2.7</ele>
        <time>2022-06-02T13:01:48Z</time>
      </trkpt>
      <trkpt lat="49.40327" lon="-1.17405">
        <ele>2.7</ele>
        <time>2022-06-02T13:01:49Z</time>
      </trkpt>
      <trkpt lat="49.40325" lon="-1.17405">
        <ele>2.7</ele>
        <time>2022-06-02T13:01:50Z</time>
      </trkpt>
      <trkpt lat="49.40324" lon="-1.17405">
        <ele>2.7</ele>
        <time>2022-06-02T13:01:51Z</time>
      </trkpt>
      <trkpt lat="49.40322" lon="-1.17406">
        <ele>2.7</ele>
        <time>2022-06-02T13:01:53Z</time>
      </trkpt>
      <trkpt lat="49.40321" lon="-1.17406">
        <ele>2.7</ele>
        <time>2022-06-02T13:01:54Z</time>
      </trkpt>
      <trkpt lat="49.4032" lon="-1.17406">
        <ele>2.7</ele>
        <time>2022-06-02T13:01:55Z</time>
      </trkpt>
      <trkpt lat="49.40319" lon="-1.17406">
        <ele>2.7</ele>
        <time>2022-06-02T13:01:56Z</time>
      </trkpt>
      <trkpt lat="49.40317" lon="-1.17406">
        <ele>2.8</ele>
        <time>2022-06-02T13:01:57Z</time>
      </trkpt>
      <trkpt lat="49.40316" lon="-1.17407">
        <ele>2.8</ele>
        <time>2022-06-02T13:01:58Z</time>
      </trkpt>
      <trkpt lat="49.40314" lon="-1.17407">
        <ele>2.8</ele>
        <time>2022-06-02T13:01:59Z</time>
      </trkpt>
      <trkpt lat="49.40312" lon="-1.17406">
        <ele>2.8</ele>
        <time>2022-06-02T13:02:00Z</time>
      </trkpt>
      <trkpt lat="49.40311" lon="-1.17406">
        <ele>2.8</ele>
        <time>2022-06-02T13:02:01Z</time>
      </trkpt>
      <trkpt lat="49.4031" lon="-1.17406">
        <ele>2.8</ele>
        <time>2022-06-02T13:02:02Z</time>
      </trkpt>
      <trkpt lat="49.40308" lon="-1.17405">
        <ele>2.8</ele>
        <time>2022-06-02T13:02:03Z</time>
      </trkpt>
      <trkpt lat="49.40307" lon="-1.17405">
        <ele>2.8</ele>
        <time>2022-06-02T13:02:04Z</time>
      </trkpt>
      <trkpt lat="49.40307" lon="-1.17405">
        <ele>2.8</ele>
        <time>2022-06-02T13:02:05Z</time>
      </trkpt>
      <trkpt lat="49.40305" lon="-1.17404">
        <ele>2.8</ele>
        <time>2022-06-02T13:02:06Z</time>
      </trkpt>
      <trkpt lat="49.40304" lon="-1.17404">
        <ele>2.8</ele>
        <time>2022-06-02T13:02:07Z</time>
      </trkpt>
      <trkpt lat="49.40302" lon="-1.17404">
        <ele>2.8</ele>
        <time>2022-06-02T13:02:09Z</time>
      </trkpt>
      <trkpt lat="49.403" lon="-1.17404">
        <ele>2.8</ele>
        <time>2022-06-02T13:02:10Z</time>
      </trkpt>
      <trkpt lat="49.40299" lon="-1.17404">
        <ele>2.8</ele>
        <time>2022-06-02T13:02:11Z</time>
      </trkpt>
      <trkpt lat="49.40297" lon="-1.17403">
        <ele>2.8</ele>
        <time>2022-06-02T13:02:12Z</time>
      </trkpt>
      <trkpt lat="49.40295" lon="-1.17403">
        <ele>2.8</ele>
        <time>2022-06-02T13:02:13Z</time>
      </trkpt>
      <trkpt lat="49.40294" lon="-1.17403">
        <ele>2.8</ele>
        <time>2022-06-02T13:02:14Z</time>
      </trkpt>
      <trkpt lat="49.40294" lon="-1.17403">
        <ele>2.8</ele>
        <time>2022-06-02T13:02:15Z</time>
      </trkpt>
      <trkpt lat="49.40292" lon="-1.17403">
        <ele>2.8</ele>
        <time>2022-06-02T13:02:16Z</time>
      </trkpt>
      <trkpt lat="49.40291" lon="-1.17403">
        <ele>2.8</ele>
        <time>2022-06-02T13:02:17Z</time>
      </trkpt>
      <trkpt lat="49.4029" lon="-1.17403">
        <ele>2.8</ele>
        <time>2022-06-02T13:02:19Z</time>
      </trkpt>
      <trkpt lat="49.40288" lon="-1.17402">
        <ele>2.9</ele>
        <time>2022-06-02T13:02:20Z</time>
      </trkpt>
      <trkpt lat="49.40288" lon="-1.174">
        <ele>2.9</ele>
        <time>2022-06-02T13:02:21Z</time>
      </trkpt>
      <trkpt lat="49.40287" lon="-1.17398">
        <ele>2.9</ele>
        <time>2022-06-02T13:02:22Z</time>
      </trkpt>
      <trkpt lat="49.40286" lon="-1.17398">
        <ele>2.9</ele>
        <time>2022-06-02T13:02:23Z</time>
      </trkpt>
      <trkpt lat="49.40285" lon="-1.17398">
        <ele>2.9</ele>
        <time>2022-06-02T13:02:24Z</time>
      </trkpt>
      <trkpt lat="49.40284" lon="-1.17399">
        <ele>2.9</ele>
        <time>2022-06-02T13:02:26Z</time>
      </trkpt>
      <trkpt lat="49.40282" lon="-1.17399">
        <ele>2.9</ele>
        <time>2022-06-02T13:02:27Z</time>
      </trkpt>
      <trkpt lat="49.40281" lon="-1.174">
        <ele>2.9</ele>
        <time>2022-06-02T13:02:29Z</time>
      </trkpt>
      <trkpt lat="49.40279" lon="-1.174">
        <ele>2.9</ele>
        <time>2022-06-02T13:02:30Z</time>
      </trkpt>
      <trkpt lat="49.40278" lon="-1.17401">
        <ele>2.9</ele>
        <time>2022-06-02T13:02:31Z</time>
      </trkpt>
      <trkpt lat="49.40277" lon="-1.17401">
        <ele>2.9</ele>
        <time>2022-06-02T13:02:32Z</time>
      </trkpt>
      <trkpt lat="49.40276" lon="-1.17402">
        <ele>2.9</ele>
        <time>2022-06-02T13:02:33Z</time>
      </trkpt>
      <trkpt lat="49.40275" lon="-1.17402">
        <ele>2.9</ele>
        <time>2022-06-02T13:02:34Z</time>
      </trkpt>
      <trkpt lat="49.40273" lon="-1.17403">
        <ele>2.9</ele>
        <time>2022-06-02T13:02:35Z</time>
      </trkpt>
      <trkpt lat="49.40272" lon="-1.17403">
        <ele>2.9</ele>
        <time>2022-06-02T13:02:36Z</time>
      </trkpt>
      <trkpt lat="49.40269" lon="-1.17404">
        <ele>2.9</ele>
        <time>2022-06-02T13:02:37Z</time>
      </trkpt>
      <trkpt lat="49.40268" lon="-1.17405">
        <ele>2.9</ele>
        <time>2022-06-02T13:02:39Z</time>
      </trkpt>
      <trkpt lat="49.40267" lon="-1.17405">
        <ele>2.9</ele>
        <time>2022-06-02T13:02:40Z</time>
      </trkpt>
      <trkpt lat="49.40265" lon="-1.17406">
        <ele>2.9</ele>
        <time>2022-06-02T13:02:41Z</time>
      </trkpt>
      <trkpt lat="49.40264" lon="-1.17406">
        <ele>2.9</ele>
        <time>2022-06-02T13:02:42Z</time>
      </trkpt>
      <trkpt lat="49.40263" lon="-1.17407">
        <ele>2.9</ele>
        <time>2022-06-02T13:02:43Z</time>
      </trkpt>
      <trkpt lat="49.40261" lon="-1.17407">
        <ele>2.9</ele>
        <time>2022-06-02T13:02:44Z</time>
      </trkpt>
      <trkpt lat="49.4026" lon="-1.17408">
        <ele>2.9</ele>
        <time>2022-06-02T13:02:46Z</time>
      </trkpt>
      <trkpt lat="49.40258" lon="-1.17408">
        <ele>2.9</ele>
        <time>2022-06-02T13:02:47Z</time>
      </trkpt>
      <trkpt lat="49.40256" lon="-1.17408">
        <ele>3</ele>
        <time>2022-06-02T13:02:48Z</time>
      </trkpt>
      <trkpt lat="49.40255" lon="-1.17408">
        <ele>3</ele>
        <time>2022-06-02T13:02:49Z</time>
      </trkpt>
      <trkpt lat="49.40254" lon="-1.17407">
        <ele>3</ele>
        <time>2022-06-02T13:02:50Z</time>
      </trkpt>
      <trkpt lat="49.40253" lon="-1.17407">
        <ele>3</ele>
        <time>2022-06-02T13:02:51Z</time>
      </trkpt>
      <trkpt lat="49.40252" lon="-1.17407">
        <ele>3</ele>
        <time>2022-06-02T13:02:52Z</time>
      </trkpt>
      <trkpt lat="49.40251" lon="-1.17406">
        <ele>3</ele>
        <time>2022-06-02T13:02:53Z</time>
      </trkpt>
      <trkpt lat="49.4025" lon="-1.17406">
        <ele>3</ele>
        <time>2022-06-02T13:02:54Z</time>
      </trkpt>
      <trkpt lat="49.40248" lon="-1.17406">
        <ele>3</ele>
        <time>2022-06-02T13:02:55Z</time>
      </trkpt>
      <trkpt lat="49.40246" lon="-1.17406">
        <ele>3</ele>
        <time>2022-06-02T13:02:56Z</time>
      </trkpt>
      <trkpt lat="49.40245" lon="-1.17406">
        <ele>3</ele>
        <time>2022-06-02T13:02:58Z</time>
      </trkpt>
      <trkpt lat="49.40244" lon="-1.17406">
        <ele>3</ele>
        <time>2022-06-02T13:02:59Z</time>
      </trkpt>
      <trkpt lat="49.40243" lon="-1.17406">
        <ele>3</ele>
        <time>2022-06-02T13:03:00Z</time>
      </trkpt>
      <trkpt lat="49.40242" lon="-1.17406">
        <ele>3</ele>
        <time>2022-06-02T13:03:01Z</time>
      </trkpt>
      <trkpt lat="49.40239" lon="-1.17406">
        <ele>3</ele>
        <time>2022-06-02T13:03:02Z</time>
      </trkpt>
      <trkpt lat="49.40238" lon="-1.17406">
        <ele>3</ele>
        <time>2022-06-02T13:03:03Z</time>
      </trkpt>
      <trkpt lat="49.40238" lon="-1.17406">
        <ele>3</ele>
        <time>2022-06-02T13:03:04Z</time>
      </trkpt>
      <trkpt lat="49.40235" lon="-1.17407">
        <ele>3</ele>
        <time>2022-06-02T13:03:05Z</time>
      </trkpt>
      <trkpt lat="49.40235" lon="-1.17407">
        <ele>3</ele>
        <time>2022-06-02T13:03:06Z</time>
      </trkpt>
      <trkpt lat="49.40234" lon="-1.17407">
        <ele>3</ele>
        <time>2022-06-02T13:03:07Z</time>
      </trkpt>
      <trkpt lat="49.40233" lon="-1.17408">
        <ele>2.9</ele>
        <time>2022-06-02T13:03:08Z</time>
      </trkpt>
      <trkpt lat="49.40232" lon="-1.17408">
        <ele>2.9</ele>
        <time>2022-06-02T13:03:09Z</time>
      </trkpt>
      <trkpt lat="49.40231" lon="-1.17409">
        <ele>2.9</ele>
        <time>2022-06-02T13:03:11Z</time>
      </trkpt>
      <trkpt lat="49.40229" lon="-1.17408">
        <ele>2.9</ele>
        <time>2022-06-02T13:03:12Z</time>
      </trkpt>
      <trkpt lat="49.40228" lon="-1.17408">
        <ele>2.9</ele>
        <time>2022-06-02T13:03:13Z</time>
      </trkpt>
      <trkpt lat="49.40227" lon="-1.17408">
        <ele>2.9</ele>
        <time>2022-06-02T13:03:14Z</time>
      </trkpt>
      <trkpt lat="49.40226" lon="-1.1741">
        <ele>2.9</ele>
        <time>2022-06-02T13:03:15Z</time>
      </trkpt>
      <trkpt lat="49.40226" lon="-1.1741">
        <ele>2.9</ele>
        <time>2022-06-02T13:03:16Z</time>
      </trkpt>
      <trkpt lat="49.40227" lon="-1.17411">
        <ele>2.9</ele>
        <time>2022-06-02T13:03:18Z</time>
      </trkpt>
      <trkpt lat="49.40227" lon="-1.17411">
        <ele>2.9</ele>
        <time>2022-06-02T13:03:19Z</time>
      </trkpt>
      <trkpt lat="49.40227" lon="-1.1741">
        <ele>2.9</ele>
        <time>2022-06-02T13:03:20Z</time>
      </trkpt>
      <trkpt lat="49.40228" lon="-1.1741">
        <ele>2.9</ele>
        <time>2022-06-02T13:03:21Z</time>
      </trkpt>
      <trkpt lat="49.40228" lon="-1.1741">
        <ele>2.9</ele>
        <time>2022-06-02T13:03:22Z</time>
      </trkpt>
      <trkpt lat="49.40228" lon="-1.1741">
        <ele>2.9</ele>
        <time>2022-06-02T13:03:23Z</time>
      </trkpt>
      <trkpt lat="49.40228" lon="-1.1741">
        <ele>2.9</ele>
        <time>2022-06-02T13:03:24Z</time>
      </trkpt>
      <trkpt lat="49.40229" lon="-1.1741">
        <ele>2.9</ele>
        <time>2022-06-02T13:03:25Z</time>
      </trkpt>
      <trkpt lat="49.40229" lon="-1.1741">
        <ele>2.9</ele>
        <time>2022-06-02T13:03:27Z</time>
      </trkpt>
      <trkpt lat="49.40228" lon="-1.1741">
        <ele>2.9</ele>
        <time>2022-06-02T13:03:28Z</time>
      </trkpt>
      <trkpt lat="49.40227" lon="-1.17411">
        <ele>2.9</ele>
        <time>2022-06-02T13:03:30Z</time>
      </trkpt>
      <trkpt lat="49.40226" lon="-1.17411">
        <ele>2.9</ele>
        <time>2022-06-02T13:03:31Z</time>
      </trkpt>
      <trkpt lat="49.40226" lon="-1.17411">
        <ele>2.9</ele>
        <time>2022-06-02T13:03:32Z</time>
      </trkpt>
      <trkpt lat="49.40225" lon="-1.17411">
        <ele>2.9</ele>
        <time>2022-06-02T13:03:33Z</time>
      </trkpt>
      <trkpt lat="49.40224" lon="-1.17411">
        <ele>2.9</ele>
        <time>2022-06-02T13:03:34Z</time>
      </trkpt>
      <trkpt lat="49.40223" lon="-1.1741">
        <ele>2.9</ele>
        <time>2022-06-02T13:03:35Z</time>
      </trkpt>
      <trkpt lat="49.40221" lon="-1.1741">
        <ele>2.9</ele>
        <time>2022-06-02T13:03:37Z</time>
      </trkpt>
      <trkpt lat="49.40221" lon="-1.17409">
        <ele>2.9</ele>
        <time>2022-06-02T13:03:38Z</time>
      </trkpt>
      <trkpt lat="49.4022" lon="-1.17409">
        <ele>2.9</ele>
        <time>2022-06-02T13:03:39Z</time>
      </trkpt>
      <trkpt lat="49.40218" lon="-1.17409">
        <ele>2.8</ele>
        <time>2022-06-02T13:03:40Z</time>
      </trkpt>
      <trkpt lat="49.40217" lon="-1.17409">
        <ele>2.8</ele>
        <time>2022-06-02T13:03:41Z</time>
      </trkpt>
      <trkpt lat="49.40216" lon="-1.17409">
        <ele>2.8</ele>
        <time>2022-06-02T13:03:42Z</time>
      </trkpt>
      <trkpt lat="49.40214" lon="-1.17408">
        <ele>2.8</ele>
        <time>2022-06-02T13:03:43Z</time>
      </trkpt>
      <trkpt lat="49.40212" lon="-1.17408">
        <ele>2.8</ele>
        <time>2022-06-02T13:03:44Z</time>
      </trkpt>
      <trkpt lat="49.40211" lon="-1.17408">
        <ele>2.8</ele>
        <time>2022-06-02T13:03:45Z</time>
      </trkpt>
      <trkpt lat="49.40209" lon="-1.17408">
        <ele>2.8</ele>
        <time>2022-06-02T13:03:46Z</time>
      </trkpt>
      <trkpt lat="49.40208" lon="-1.17408">
        <ele>2.8</ele>
        <time>2022-06-02T13:03:47Z</time>
      </trkpt>
      <trkpt lat="49.40205" lon="-1.17408">
        <ele>2.8</ele>
        <time>2022-06-02T13:03:49Z</time>
      </trkpt>
      <trkpt lat="49.40204" lon="-1.17408">
        <ele>2.8</ele>
        <time>2022-06-02T13:03:50Z</time>
      </trkpt>
      <trkpt lat="49.40202" lon="-1.17408">
        <ele>2.8</ele>
        <time>2022-06-02T13:03:51Z</time>
      </trkpt>
      <trkpt lat="49.402" lon="-1.17407">
        <ele>2.8</ele>
        <time>2022-06-02T13:03:52Z</time>
      </trkpt>
      <trkpt lat="49.40199" lon="-1.17407">
        <ele>2.8</ele>
        <time>2022-06-02T13:03:53Z</time>
      </trkpt>
      <trkpt lat="49.40196" lon="-1.17406">
        <ele>2.8</ele>
        <time>2022-06-02T13:03:54Z</time>
      </trkpt>
      <trkpt lat="49.40195" lon="-1.17406">
        <ele>2.8</ele>
        <time>2022-06-02T13:03:55Z</time>
      </trkpt>
      <trkpt lat="49.40192" lon="-1.17405">
        <ele>2.7</ele>
        <time>2022-06-02T13:03:56Z</time>
      </trkpt>
      <trkpt lat="49.40191" lon="-1.17405">
        <ele>2.7</ele>
        <time>2022-06-02T13:03:57Z</time>
      </trkpt>
      <trkpt lat="49.40188" lon="-1.17405">
        <ele>2.7</ele>
        <time>2022-06-02T13:03:59Z</time>
      </trkpt>
      <trkpt lat="49.40187" lon="-1.17404">
        <ele>2.7</ele>
        <time>2022-06-02T13:04:00Z</time>
      </trkpt>
      <trkpt lat="49.40185" lon="-1.17404">
        <ele>2.7</ele>
        <time>2022-06-02T13:04:01Z</time>
      </trkpt>
      <trkpt lat="49.40184" lon="-1.17403">
        <ele>2.7</ele>
        <time>2022-06-02T13:04:02Z</time>
      </trkpt>
      <trkpt lat="49.40182" lon="-1.17403">
        <ele>2.7</ele>
        <time>2022-06-02T13:04:03Z</time>
      </trkpt>
      <trkpt lat="49.4018" lon="-1.17403">
        <ele>2.7</ele>
        <time>2022-06-02T13:04:04Z</time>
      </trkpt>
      <trkpt lat="49.40179" lon="-1.17403">
        <ele>2.7</ele>
        <time>2022-06-02T13:04:05Z</time>
      </trkpt>
      <trkpt lat="49.40178" lon="-1.17402">
        <ele>2.7</ele>
        <time>2022-06-02T13:04:06Z</time>
      </trkpt>
      <trkpt lat="49.40176" lon="-1.17402">
        <ele>2.7</ele>
        <time>2022-06-02T13:04:07Z</time>
      </trkpt>
      <trkpt lat="49.40175" lon="-1.17402">
        <ele>2.7</ele>
        <time>2022-06-02T13:04:08Z</time>
      </trkpt>
      <trkpt lat="49.40173" lon="-1.17401">
        <ele>2.7</ele>
        <time>2022-06-02T13:04:09Z</time>
      </trkpt>
      <trkpt lat="49.40172" lon="-1.17401">
        <ele>2.7</ele>
        <time>2022-06-02T13:04:10Z</time>
      </trkpt>
      <trkpt lat="49.4017" lon="-1.17401">
        <ele>2.7</ele>
        <time>2022-06-02T13:04:11Z</time>
      </trkpt>
      <trkpt lat="49.40169" lon="-1.17401">
        <ele>2.7</ele>
        <time>2022-06-02T13:04:12Z</time>
      </trkpt>
      <trkpt lat="49.40167" lon="-1.17401">
        <ele>2.7</ele>
        <time>2022-06-02T13:04:14Z</time>
      </trkpt>
      <trkpt lat="49.40166" lon="-1.17401">
        <ele>2.7</ele>
        <time>2022-06-02T13:04:15Z</time>
      </trkpt>
      <trkpt lat="49.40164" lon="-1.17401">
        <ele>2.7</ele>
        <time>2022-06-02T13:04:16Z</time>
      </trkpt>
      <trkpt lat="49.40163" lon="-1.17402">
        <ele>2.7</ele>
        <time>2022-06-02T13:04:17Z</time>
      </trkpt>
      <trkpt lat="49.40162" lon="-1.17402">
        <ele>2.7</ele>
        <time>2022-06-02T13:04:18Z</time>
      </trkpt>
      <trkpt lat="49.40161" lon="-1.17402">
        <ele>2.7</ele>
        <time>2022-06-02T13:04:19Z</time>
      </trkpt>
      <trkpt lat="49.4016" lon="-1.17402">
        <ele>2.7</ele>
        <time>2022-06-02T13:04:20Z</time>
      </trkpt>
      <trkpt lat="49.40159" lon="-1.17403">
        <ele>2.7</ele>
        <time>2022-06-02T13:04:21Z</time>
      </trkpt>
      <trkpt lat="49.40158" lon="-1.17403">
        <ele>2.7</ele>
        <time>2022-06-02T13:04:22Z</time>
      </trkpt>
      <trkpt lat="49.40156" lon="-1.17403">
        <ele>2.7</ele>
        <time>2022-06-02T13:04:24Z</time>
      </trkpt>
      <trkpt lat="49.40154" lon="-1.17403">
        <ele>2.7</ele>
        <time>2022-06-02T13:04:25Z</time>
      </trkpt>
      <trkpt lat="49.40153" lon="-1.17404">
        <ele>2.7</ele>
        <time>2022-06-02T13:04:26Z</time>
      </trkpt>
      <trkpt lat="49.40152" lon="-1.17404">
        <ele>2.7</ele>
        <time>2022-06-02T13:04:27Z</time>
      </trkpt>
      <trkpt lat="49.4015" lon="-1.17405">
        <ele>2.7</ele>
        <time>2022-06-02T13:04:28Z</time>
      </trkpt>
      <trkpt lat="49.40149" lon="-1.17405">
        <ele>2.7</ele>
        <time>2022-06-02T13:04:29Z</time>
      </trkpt>
      <trkpt lat="49.40148" lon="-1.17405">
        <ele>2.7</ele>
        <time>2022-06-02T13:04:30Z</time>
      </trkpt>
      <trkpt lat="49.40146" lon="-1.17406">
        <ele>2.7</ele>
        <time>2022-06-02T13:04:31Z</time>
      </trkpt>
      <trkpt lat="49.40146" lon="-1.17406">
        <ele>2.7</ele>
        <time>2022-06-02T13:04:32Z</time>
      </trkpt>
      <trkpt lat="49.40145" lon="-1.17406">
        <ele>2.7</ele>
        <time>2022-06-02T13:04:33Z</time>
      </trkpt>
      <trkpt lat="49.40144" lon="-1.17406">
        <ele>2.7</ele>
        <time>2022-06-02T13:04:34Z</time>
      </trkpt>
      <trkpt lat="49.40143" lon="-1.17407">
        <ele>2.7</ele>
        <time>2022-06-02T13:04:35Z</time>
      </trkpt>
      <trkpt lat="49.40141" lon="-1.17408">
        <ele>2.7</ele>
        <time>2022-06-02T13:04:36Z</time>
      </trkpt>
      <trkpt lat="49.4014" lon="-1.17408">
        <ele>2.7</ele>
        <time>2022-06-02T13:04:37Z</time>
      </trkpt>
      <trkpt lat="49.40139" lon="-1.17409">
        <ele>2.8</ele>
        <time>2022-06-02T13:04:38Z</time>
      </trkpt>
      <trkpt lat="49.40137" lon="-1.1741">
        <ele>2.8</ele>
        <time>2022-06-02T13:04:39Z</time>
      </trkpt>
      <trkpt lat="49.40136" lon="-1.17411">
        <ele>2.8</ele>
        <time>2022-06-02T13:04:40Z</time>
      </trkpt>
      <trkpt lat="49.40135" lon="-1.17411">
        <ele>2.8</ele>
        <time>2022-06-02T13:04:41Z</time>
      </trkpt>
      <trkpt lat="49.40133" lon="-1.17412">
        <ele>2.8</ele>
        <time>2022-06-02T13:04:42Z</time>
      </trkpt>
      <trkpt lat="49.40132" lon="-1.17413">
        <ele>2.8</ele>
        <time>2022-06-02T13:04:44Z</time>
      </trkpt>
      <trkpt lat="49.40131" lon="-1.17414">
        <ele>2.8</ele>
        <time>2022-06-02T13:04:45Z</time>
      </trkpt>
      <trkpt lat="49.4013" lon="-1.17414">
        <ele>2.8</ele>
        <time>2022-06-02T13:04:46Z</time>
      </trkpt>
      <trkpt lat="49.40129" lon="-1.17415">
        <ele>2.8</ele>
        <time>2022-06-02T13:04:47Z</time>
      </trkpt>
      <trkpt lat="49.40128" lon="-1.17416">
        <ele>2.8</ele>
        <time>2022-06-02T13:04:48Z</time>
      </trkpt>
      <trkpt lat="49.40127" lon="-1.17416">
        <ele>2.8</ele>
        <time>2022-06-02T13:04:49Z</time>
      </trkpt>
      <trkpt lat="49.40126" lon="-1.17417">
        <ele>2.9</ele>
        <time>2022-06-02T13:04:50Z</time>
      </trkpt>
      <trkpt lat="49.40124" lon="-1.17418">
        <ele>2.9</ele>
        <time>2022-06-02T13:04:51Z</time>
      </trkpt>
      <trkpt lat="49.40123" lon="-1.17419">
        <ele>2.9</ele>
        <time>2022-06-02T13:04:52Z</time>
      </trkpt>
      <trkpt lat="49.4012" lon="-1.1742">
        <ele>2.9</ele>
        <time>2022-06-02T13:04:54Z</time>
      </trkpt>
      <trkpt lat="49.40119" lon="-1.1742">
        <ele>2.9</ele>
        <time>2022-06-02T13:04:55Z</time>
      </trkpt>
      <trkpt lat="49.40118" lon="-1.17421">
        <ele>2.9</ele>
        <time>2022-06-02T13:04:56Z</time>
      </trkpt>
      <trkpt lat="49.40116" lon="-1.17421">
        <ele>2.9</ele>
        <time>2022-06-02T13:04:57Z</time>
      </trkpt>
      <trkpt lat="49.40115" lon="-1.17422">
        <ele>2.9</ele>
        <time>2022-06-02T13:04:58Z</time>
      </trkpt>
      <trkpt lat="49.40113" lon="-1.17422">
        <ele>2.9</ele>
        <time>2022-06-02T13:04:59Z</time>
      </trkpt>
      <trkpt lat="49.40112" lon="-1.17422">
        <ele>3</ele>
        <time>2022-06-02T13:05:00Z</time>
      </trkpt>
      <trkpt lat="49.40111" lon="-1.17422">
        <ele>3</ele>
        <time>2022-06-02T13:05:01Z</time>
      </trkpt>
      <trkpt lat="49.4011" lon="-1.17423">
        <ele>3</ele>
        <time>2022-06-02T13:05:02Z</time>
      </trkpt>
      <trkpt lat="49.40108" lon="-1.17423">
        <ele>3</ele>
        <time>2022-06-02T13:05:03Z</time>
      </trkpt>
      <trkpt lat="49.40107" lon="-1.17424">
        <ele>3</ele>
        <time>2022-06-02T13:05:04Z</time>
      </trkpt>
      <trkpt lat="49.40106" lon="-1.17424">
        <ele>3</ele>
        <time>2022-06-02T13:05:05Z</time>
      </trkpt>
      <trkpt lat="49.40105" lon="-1.17424">
        <ele>3</ele>
        <time>2022-06-02T13:05:06Z</time>
      </trkpt>
      <trkpt lat="49.40104" lon="-1.17425">
        <ele>3</ele>
        <time>2022-06-02T13:05:08Z</time>
      </trkpt>
      <trkpt lat="49.40103" lon="-1.17425">
        <ele>3</ele>
        <time>2022-06-02T13:05:09Z</time>
      </trkpt>
      <trkpt lat="49.40102" lon="-1.17425">
        <ele>3</ele>
        <time>2022-06-02T13:05:10Z</time>
      </trkpt>
      <trkpt lat="49.40101" lon="-1.17425">
        <ele>3</ele>
        <time>2022-06-02T13:05:11Z</time>
      </trkpt>
      <trkpt lat="49.401" lon="-1.17425">
        <ele>3</ele>
        <time>2022-06-02T13:05:12Z</time>
      </trkpt>
      <trkpt lat="49.40099" lon="-1.17426">
        <ele>3</ele>
        <time>2022-06-02T13:05:13Z</time>
      </trkpt>
      <trkpt lat="49.40098" lon="-1.17426">
        <ele>3</ele>
        <time>2022-06-02T13:05:14Z</time>
      </trkpt>
      <trkpt lat="49.40097" lon="-1.17426">
        <ele>3</ele>
        <time>2022-06-02T13:05:15Z</time>
      </trkpt>
      <trkpt lat="49.40095" lon="-1.17427">
        <ele>3</ele>
        <time>2022-06-02T13:05:16Z</time>
      </trkpt>
      <trkpt lat="49.40094" lon="-1.17427">
        <ele>3</ele>
        <time>2022-06-02T13:05:17Z</time>
      </trkpt>
      <trkpt lat="49.40093" lon="-1.17427">
        <ele>3.1</ele>
        <time>2022-06-02T13:05:18Z</time>
      </trkpt>
      <trkpt lat="49.40092" lon="-1.17427">
        <ele>3.1</ele>
        <time>2022-06-02T13:05:19Z</time>
      </trkpt>
      <trkpt lat="49.40091" lon="-1.17427">
        <ele>3.1</ele>
        <time>2022-06-02T13:05:20Z</time>
      </trkpt>
      <trkpt lat="49.40089" lon="-1.17428">
        <ele>3.1</ele>
        <time>2022-06-02T13:05:22Z</time>
      </trkpt>
      <trkpt lat="49.40087" lon="-1.17428">
        <ele>3.1</ele>
        <time>2022-06-02T13:05:23Z</time>
      </trkpt>
      <trkpt lat="49.40086" lon="-1.17428">
        <ele>3.1</ele>
        <time>2022-06-02T13:05:24Z</time>
      </trkpt>
      <trkpt lat="49.40085" lon="-1.17428">
        <ele>3.1</ele>
        <time>2022-06-02T13:05:25Z</time>
      </trkpt>
      <trkpt lat="49.40084" lon="-1.17428">
        <ele>3.1</ele>
        <time>2022-06-02T13:05:27Z</time>
      </trkpt>
      <trkpt lat="49.40082" lon="-1.17429">
        <ele>3.1</ele>
        <time>2022-06-02T13:05:28Z</time>
      </trkpt>
      <trkpt lat="49.4008" lon="-1.17429">
        <ele>3.1</ele>
        <time>2022-06-02T13:05:29Z</time>
      </trkpt>
      <trkpt lat="49.4008" lon="-1.1743">
        <ele>3.1</ele>
        <time>2022-06-02T13:05:30Z</time>
      </trkpt>
      <trkpt lat="49.40079" lon="-1.1743">
        <ele>3.1</ele>
        <time>2022-06-02T13:05:31Z</time>
      </trkpt>
      <trkpt lat="49.40078" lon="-1.1743">
        <ele>3.1</ele>
        <time>2022-06-02T13:05:32Z</time>
      </trkpt>
      <trkpt lat="49.40076" lon="-1.1743">
        <ele>3.1</ele>
        <time>2022-06-02T13:05:33Z</time>
      </trkpt>
      <trkpt lat="49.40075" lon="-1.17432">
        <ele>3.1</ele>
        <time>2022-06-02T13:05:35Z</time>
      </trkpt>
      <trkpt lat="49.40075" lon="-1.17433">
        <ele>3.1</ele>
        <time>2022-06-02T13:05:36Z</time>
      </trkpt>
      <trkpt lat="49.40075" lon="-1.17434">
        <ele>3.1</ele>
        <time>2022-06-02T13:05:37Z</time>
      </trkpt>
      <trkpt lat="49.40075" lon="-1.17435">
        <ele>3.1</ele>
        <time>2022-06-02T13:05:38Z</time>
      </trkpt>
      <trkpt lat="49.40075" lon="-1.17435">
        <ele>3.1</ele>
        <time>2022-06-02T13:05:39Z</time>
      </trkpt>
      <trkpt lat="49.40075" lon="-1.17435">
        <ele>3.1</ele>
        <time>2022-06-02T13:05:40Z</time>
      </trkpt>
      <trkpt lat="49.40075" lon="-1.17434">
        <ele>3.1</ele>
        <time>2022-06-02T13:05:41Z</time>
      </trkpt>
      <trkpt lat="49.40075" lon="-1.17434">
        <ele>3.1</ele>
        <time>2022-06-02T13:05:42Z</time>
      </trkpt>
      <trkpt lat="49.40075" lon="-1.17434">
        <ele>3.1</ele>
        <time>2022-06-02T13:05:43Z</time>
      </trkpt>
      <trkpt lat="49.40075" lon="-1.17434">
        <ele>3.1</ele>
        <time>2022-06-02T13:05:44Z</time>
      </trkpt>
      <trkpt lat="49.40075" lon="-1.17435">
        <ele>3.1</ele>
        <time>2022-06-02T13:05:45Z</time>
      </trkpt>
      <trkpt lat="49.40075" lon="-1.17435">
        <ele>3.1</ele>
        <time>2022-06-02T13:05:46Z</time>
      </trkpt>
      <trkpt lat="49.40074" lon="-1.17435">
        <ele>3.1</ele>
        <time>2022-06-02T13:05:48Z</time>
      </trkpt>
      <trkpt lat="49.40073" lon="-1.17436">
        <ele>3.1</ele>
        <time>2022-06-02T13:05:49Z</time>
      </trkpt>
      <trkpt lat="49.40072" lon="-1.17436">
        <ele>3.1</ele>
        <time>2022-06-02T13:05:50Z</time>
      </trkpt>
      <trkpt lat="49.40071" lon="-1.17436">
        <ele>3.1</ele>
        <time>2022-06-02T13:05:51Z</time>
      </trkpt>
      <trkpt lat="49.4007" lon="-1.17437">
        <ele>3.1</ele>
        <time>2022-06-02T13:05:52Z</time>
      </trkpt>
      <trkpt lat="49.40069" lon="-1.17437">
        <ele>3.1</ele>
        <time>2022-06-02T13:05:53Z</time>
      </trkpt>
      <trkpt lat="49.40067" lon="-1.17437">
        <ele>3.1</ele>
        <time>2022-06-02T13:05:54Z</time>
      </trkpt>
      <trkpt lat="49.40066" lon="-1.17437">
        <ele>3.1</ele>
        <time>2022-06-02T13:05:55Z</time>
      </trkpt>
      <trkpt lat="49.40064" lon="-1.17438">
        <ele>3.1</ele>
        <time>2022-06-02T13:05:56Z</time>
      </trkpt>
      <trkpt lat="49.40062" lon="-1.17438">
        <ele>3.1</ele>
        <time>2022-06-02T13:05:58Z</time>
      </trkpt>
      <trkpt lat="49.40061" lon="-1.17438">
        <ele>3.1</ele>
        <time>2022-06-02T13:05:59Z</time>
      </trkpt>
      <trkpt lat="49.4006" lon="-1.17438">
        <ele>3.1</ele>
        <time>2022-06-02T13:06:00Z</time>
      </trkpt>
      <trkpt lat="49.40058" lon="-1.17439">
        <ele>3.1</ele>
        <time>2022-06-02T13:06:01Z</time>
      </trkpt>
      <trkpt lat="49.40057" lon="-1.1744">
        <ele>3.1</ele>
        <time>2022-06-02T13:06:02Z</time>
      </trkpt>
      <trkpt lat="49.40055" lon="-1.1744">
        <ele>3.1</ele>
        <time>2022-06-02T13:06:03Z</time>
      </trkpt>
      <trkpt lat="49.40054" lon="-1.17441">
        <ele>3.1</ele>
        <time>2022-06-02T13:06:04Z</time>
      </trkpt>
      <trkpt lat="49.40052" lon="-1.17441">
        <ele>3.1</ele>
        <time>2022-06-02T13:06:05Z</time>
      </trkpt>
      <trkpt lat="49.40051" lon="-1.17442">
        <ele>3.1</ele>
        <time>2022-06-02T13:06:06Z</time>
      </trkpt>
      <trkpt lat="49.4005" lon="-1.17442">
        <ele>3.1</ele>
        <time>2022-06-02T13:06:07Z</time>
      </trkpt>
      <trkpt lat="49.40049" lon="-1.17442">
        <ele>3.1</ele>
        <time>2022-06-02T13:06:08Z</time>
      </trkpt>
      <trkpt lat="49.40047" lon="-1.17443">
        <ele>3.1</ele>
        <time>2022-06-02T13:06:09Z</time>
      </trkpt>
      <trkpt lat="49.40046" lon="-1.17443">
        <ele>3.1</ele>
        <time>2022-06-02T13:06:11Z</time>
      </trkpt>
      <trkpt lat="49.40044" lon="-1.17444">
        <ele>3.1</ele>
        <time>2022-06-02T13:06:12Z</time>
      </trkpt>
      <trkpt lat="49.40043" lon="-1.17444">
        <ele>3.1</ele>
        <time>2022-06-02T13:06:13Z</time>
      </trkpt>
      <trkpt lat="49.40041" lon="-1.17444">
        <ele>3.1</ele>
        <time>2022-06-02T13:06:15Z</time>
      </trkpt>
      <trkpt lat="49.40039" lon="-1.17445">
        <ele>3.1</ele>
        <time>2022-06-02T13:06:16Z</time>
      </trkpt>
      <trkpt lat="49.40038" lon="-1.17445">
        <ele>3.1</ele>
        <time>2022-06-02T13:06:17Z</time>
      </trkpt>
      <trkpt lat="49.40036" lon="-1.17445">
        <ele>3.1</ele>
        <time>2022-06-02T13:06:18Z</time>
      </trkpt>
      <trkpt lat="49.40035" lon="-1.17445">
        <ele>3.1</ele>
        <time>2022-06-02T13:06:19Z</time>
      </trkpt>
      <trkpt lat="49.40034" lon="-1.17446">
        <ele>3.1</ele>
        <time>2022-06-02T13:06:20Z</time>
      </trkpt>
      <trkpt lat="49.40033" lon="-1.17446">
        <ele>3.1</ele>
        <time>2022-06-02T13:06:21Z</time>
      </trkpt>
      <trkpt lat="49.40032" lon="-1.17446">
        <ele>3.1</ele>
        <time>2022-06-02T13:06:22Z</time>
      </trkpt>
      <trkpt lat="49.4003" lon="-1.17447">
        <ele>3.1</ele>
        <time>2022-06-02T13:06:23Z</time>
      </trkpt>
      <trkpt lat="49.40029" lon="-1.17448">
        <ele>3.1</ele>
        <time>2022-06-02T13:06:24Z</time>
      </trkpt>
      <trkpt lat="49.40027" lon="-1.17448">
        <ele>3.1</ele>
        <time>2022-06-02T13:06:25Z</time>
      </trkpt>
      <trkpt lat="49.40026" lon="-1.17449">
        <ele>3.1</ele>
        <time>2022-06-02T13:06:26Z</time>
      </trkpt>
      <trkpt lat="49.40025" lon="-1.1745">
        <ele>3.1</ele>
        <time>2022-06-02T13:06:27Z</time>
      </trkpt>
      <trkpt lat="49.40023" lon="-1.1745">
        <ele>3.1</ele>
        <time>2022-06-02T13:06:28Z</time>
      </trkpt>
      <trkpt lat="49.40021" lon="-1.17451">
        <ele>3.1</ele>
        <time>2022-06-02T13:06:30Z</time>
      </trkpt>
      <trkpt lat="49.4002" lon="-1.17452">
        <ele>3.1</ele>
        <time>2022-06-02T13:06:31Z</time>
      </trkpt>
      <trkpt lat="49.40019" lon="-1.17453">
        <ele>3.1</ele>
        <time>2022-06-02T13:06:32Z</time>
      </trkpt>
      <trkpt lat="49.40017" lon="-1.17454">
        <ele>3.1</ele>
        <time>2022-06-02T13:06:33Z</time>
      </trkpt>
      <trkpt lat="49.40016" lon="-1.17454">
        <ele>3.1</ele>
        <time>2022-06-02T13:06:35Z</time>
      </trkpt>
      <trkpt lat="49.40014" lon="-1.17455">
        <ele>3.1</ele>
        <time>2022-06-02T13:06:36Z</time>
      </trkpt>
      <trkpt lat="49.40013" lon="-1.17455">
        <ele>3.1</ele>
        <time>2022-06-02T13:06:37Z</time>
      </trkpt>
      <trkpt lat="49.40012" lon="-1.17456">
        <ele>3.1</ele>
        <time>2022-06-02T13:06:38Z</time>
      </trkpt>
      <trkpt lat="49.40011" lon="-1.17456">
        <ele>3.1</ele>
        <time>2022-06-02T13:06:39Z</time>
      </trkpt>
      <trkpt lat="49.40009" lon="-1.17457">
        <ele>3.1</ele>
        <time>2022-06-02T13:06:41Z</time>
      </trkpt>
      <trkpt lat="49.40008" lon="-1.17457">
        <ele>3.1</ele>
        <time>2022-06-02T13:06:42Z</time>
      </trkpt>
      <trkpt lat="49.40007" lon="-1.17457">
        <ele>3.1</ele>
        <time>2022-06-02T13:06:43Z</time>
      </trkpt>
      <trkpt lat="49.40006" lon="-1.17458">
        <ele>3.1</ele>
        <time>2022-06-02T13:06:44Z</time>
      </trkpt>
      <trkpt lat="49.40005" lon="-1.17458">
        <ele>3.1</ele>
        <time>2022-06-02T13:06:45Z</time>
      </trkpt>
      <trkpt lat="49.40003" lon="-1.17459">
        <ele>3.1</ele>
        <time>2022-06-02T13:06:46Z</time>
      </trkpt>
      <trkpt lat="49.40002" lon="-1.17459">
        <ele>3.1</ele>
        <time>2022-06-02T13:06:47Z</time>
      </trkpt>
      <trkpt lat="49.40002" lon="-1.17459">
        <ele>3.1</ele>
        <time>2022-06-02T13:06:48Z</time>
      </trkpt>
      <trkpt lat="49.40001" lon="-1.17459">
        <ele>3.1</ele>
        <time>2022-06-02T13:06:50Z</time>
      </trkpt>
      <trkpt lat="49.4" lon="-1.1746">
        <ele>3.1</ele>
        <time>2022-06-02T13:06:51Z</time>
      </trkpt>
      <trkpt lat="49.39999" lon="-1.1746">
        <ele>3.1</ele>
        <time>2022-06-02T13:06:52Z</time>
      </trkpt>
      <trkpt lat="49.39998" lon="-1.1746">
        <ele>3.1</ele>
        <time>2022-06-02T13:06:53Z</time>
      </trkpt>
      <trkpt lat="49.39997" lon="-1.17461">
        <ele>3.1</ele>
        <time>2022-06-02T13:06:54Z</time>
      </trkpt>
      <trkpt lat="49.39996" lon="-1.17461">
        <ele>3.1</ele>
        <time>2022-06-02T13:06:55Z</time>
      </trkpt>
      <trkpt lat="49.39995" lon="-1.17461">
        <ele>3.1</ele>
        <time>2022-06-02T13:06:56Z</time>
      </trkpt>
      <trkpt lat="49.39993" lon="-1.17462">
        <ele>3.2</ele>
        <time>2022-06-02T13:06:57Z</time>
      </trkpt>
      <trkpt lat="49.39993" lon="-1.17462">
        <ele>3.2</ele>
        <time>2022-06-02T13:06:58Z</time>
      </trkpt>
      <trkpt lat="49.39992" lon="-1.17463">
        <ele>3.2</ele>
        <time>2022-06-02T13:06:59Z</time>
      </trkpt>
      <trkpt lat="49.39991" lon="-1.17463">
        <ele>3.2</ele>
        <time>2022-06-02T13:07:00Z</time>
      </trkpt>
      <trkpt lat="49.3999" lon="-1.17463">
        <ele>3.2</ele>
        <time>2022-06-02T13:07:01Z</time>
      </trkpt>
      <trkpt lat="49.39988" lon="-1.17464">
        <ele>3.2</ele>
        <time>2022-06-02T13:07:02Z</time>
      </trkpt>
      <trkpt lat="49.39987" lon="-1.17465">
        <ele>3.2</ele>
        <time>2022-06-02T13:07:03Z</time>
      </trkpt>
      <trkpt lat="49.39986" lon="-1.17465">
        <ele>3.2</ele>
        <time>2022-06-02T13:07:05Z</time>
      </trkpt>
      <trkpt lat="49.39985" lon="-1.17466">
        <ele>3.2</ele>
        <time>2022-06-02T13:07:06Z</time>
      </trkpt>
      <trkpt lat="49.39984" lon="-1.17466">
        <ele>3.2</ele>
        <time>2022-06-02T13:07:07Z</time>
      </trkpt>
      <trkpt lat="49.39983" lon="-1.17466">
        <ele>3.2</ele>
        <time>2022-06-02T13:07:08Z</time>
      </trkpt>
      <trkpt lat="49.39982" lon="-1.17466">
        <ele>3.2</ele>
        <time>2022-06-02T13:07:09Z</time>
      </trkpt>
      <trkpt lat="49.3998" lon="-1.17467">
        <ele>3.1</ele>
        <time>2022-06-02T13:07:10Z</time>
      </trkpt>
      <trkpt lat="49.3998" lon="-1.17467">
        <ele>3.1</ele>
        <time>2022-06-02T13:07:11Z</time>
      </trkpt>
      <trkpt lat="49.39979" lon="-1.17468">
        <ele>3.1</ele>
        <time>2022-06-02T13:07:13Z</time>
      </trkpt>
      <trkpt lat="49.39978" lon="-1.17468">
        <ele>3.1</ele>
        <time>2022-06-02T13:07:14Z</time>
      </trkpt>
      <trkpt lat="49.39978" lon="-1.17468">
        <ele>3.1</ele>
        <time>2022-06-02T13:07:15Z</time>
      </trkpt>
      <trkpt lat="49.39977" lon="-1.17468">
        <ele>3.1</ele>
        <time>2022-06-02T13:07:16Z</time>
      </trkpt>
      <trkpt lat="49.39977" lon="-1.17468">
        <ele>3.1</ele>
        <time>2022-06-02T13:07:17Z</time>
      </trkpt>
      <trkpt lat="49.39976" lon="-1.17468">
        <ele>3.1</ele>
        <time>2022-06-02T13:07:18Z</time>
      </trkpt>
      <trkpt lat="49.39975" lon="-1.17469">
        <ele>3.1</ele>
        <time>2022-06-02T13:07:19Z</time>
      </trkpt>
      <trkpt lat="49.39974" lon="-1.17469">
        <ele>3.1</ele>
        <time>2022-06-02T13:07:20Z</time>
      </trkpt>
      <trkpt lat="49.39973" lon="-1.17469">
        <ele>3.1</ele>
        <time>2022-06-02T13:07:21Z</time>
      </trkpt>
      <trkpt lat="49.39972" lon="-1.17469">
        <ele>3.1</ele>
        <time>2022-06-02T13:07:22Z</time>
      </trkpt>
      <trkpt lat="49.3997" lon="-1.1747">
        <ele>3.1</ele>
        <time>2022-06-02T13:07:23Z</time>
      </trkpt>
      <trkpt lat="49.39969" lon="-1.1747">
        <ele>3.1</ele>
        <time>2022-06-02T13:07:25Z</time>
      </trkpt>
      <trkpt lat="49.39968" lon="-1.1747">
        <ele>3.1</ele>
        <time>2022-06-02T13:07:26Z</time>
      </trkpt>
      <trkpt lat="49.39967" lon="-1.1747">
        <ele>3.1</ele>
        <time>2022-06-02T13:07:27Z</time>
      </trkpt>
      <trkpt lat="49.39966" lon="-1.1747">
        <ele>3.1</ele>
        <time>2022-06-02T13:07:28Z</time>
      </trkpt>
      <trkpt lat="49.39965" lon="-1.17471">
        <ele>3.1</ele>
        <time>2022-06-02T13:07:29Z</time>
      </trkpt>
      <trkpt lat="49.39964" lon="-1.17471">
        <ele>3.1</ele>
        <time>2022-06-02T13:07:30Z</time>
      </trkpt>
      <trkpt lat="49.39963" lon="-1.17472">
        <ele>3.1</ele>
        <time>2022-06-02T13:07:31Z</time>
      </trkpt>
      <trkpt lat="49.39961" lon="-1.17473">
        <ele>3.1</ele>
        <time>2022-06-02T13:07:32Z</time>
      </trkpt>
      <trkpt lat="49.3996" lon="-1.17474">
        <ele>3.1</ele>
        <time>2022-06-02T13:07:33Z</time>
      </trkpt>
      <trkpt lat="49.3996" lon="-1.17474">
        <ele>3</ele>
        <time>2022-06-02T13:07:34Z</time>
      </trkpt>
      <trkpt lat="49.39958" lon="-1.17477">
        <ele>3</ele>
        <time>2022-06-02T13:07:35Z</time>
      </trkpt>
      <trkpt lat="49.39957" lon="-1.17478">
        <ele>3</ele>
        <time>2022-06-02T13:07:37Z</time>
      </trkpt>
      <trkpt lat="49.39956" lon="-1.17478">
        <ele>3</ele>
        <time>2022-06-02T13:07:38Z</time>
      </trkpt>
      <trkpt lat="49.39954" lon="-1.17479">
        <ele>3</ele>
        <time>2022-06-02T13:07:39Z</time>
      </trkpt>
      <trkpt lat="49.39951" lon="-1.17479">
        <ele>3</ele>
        <time>2022-06-02T13:07:40Z</time>
      </trkpt>
      <trkpt lat="49.3995" lon="-1.1748">
        <ele>3</ele>
        <time>2022-06-02T13:07:41Z</time>
      </trkpt>
      <trkpt lat="49.39949" lon="-1.1748">
        <ele>3</ele>
        <time>2022-06-02T13:07:42Z</time>
      </trkpt>
      <trkpt lat="49.39948" lon="-1.1748">
        <ele>3</ele>
        <time>2022-06-02T13:07:43Z</time>
      </trkpt>
      <trkpt lat="49.39947" lon="-1.1748">
        <ele>3</ele>
        <time>2022-06-02T13:07:44Z</time>
      </trkpt>
      <trkpt lat="49.39945" lon="-1.17481">
        <ele>3</ele>
        <time>2022-06-02T13:07:45Z</time>
      </trkpt>
      <trkpt lat="49.39944" lon="-1.17482">
        <ele>3</ele>
        <time>2022-06-02T13:07:46Z</time>
      </trkpt>
      <trkpt lat="49.39942" lon="-1.17483">
        <ele>3</ele>
        <time>2022-06-02T13:07:47Z</time>
      </trkpt>
      <trkpt lat="49.39942" lon="-1.17484">
        <ele>3</ele>
        <time>2022-06-02T13:07:48Z</time>
      </trkpt>
      <trkpt lat="49.39941" lon="-1.17485">
        <ele>3</ele>
        <time>2022-06-02T13:07:49Z</time>
      </trkpt>
      <trkpt lat="49.3994" lon="-1.17486">
        <ele>2.9</ele>
        <time>2022-06-02T13:07:50Z</time>
      </trkpt>
      <trkpt lat="49.39939" lon="-1.17487">
        <ele>2.9</ele>
        <time>2022-06-02T13:07:51Z</time>
      </trkpt>
      <trkpt lat="49.39938" lon="-1.17487">
        <ele>2.9</ele>
        <time>2022-06-02T13:07:52Z</time>
      </trkpt>
      <trkpt lat="49.39937" lon="-1.17488">
        <ele>2.9</ele>
        <time>2022-06-02T13:07:53Z</time>
      </trkpt>
      <trkpt lat="49.39935" lon="-1.17489">
        <ele>2.9</ele>
        <time>2022-06-02T13:07:54Z</time>
      </trkpt>
      <trkpt lat="49.39933" lon="-1.1749">
        <ele>2.9</ele>
        <time>2022-06-02T13:07:55Z</time>
      </trkpt>
      <trkpt lat="49.39932" lon="-1.1749">
        <ele>2.9</ele>
        <time>2022-06-02T13:07:57Z</time>
      </trkpt>
      <trkpt lat="49.39931" lon="-1.17491">
        <ele>2.9</ele>
        <time>2022-06-02T13:07:58Z</time>
      </trkpt>
      <trkpt lat="49.3993" lon="-1.17491">
        <ele>2.9</ele>
        <time>2022-06-02T13:07:59Z</time>
      </trkpt>
      <trkpt lat="49.39929" lon="-1.17491">
        <ele>2.9</ele>
        <time>2022-06-02T13:08:00Z</time>
      </trkpt>
      <trkpt lat="49.39926" lon="-1.17492">
        <ele>2.9</ele>
        <time>2022-06-02T13:08:01Z</time>
      </trkpt>
      <trkpt lat="49.39926" lon="-1.17492">
        <ele>2.9</ele>
        <time>2022-06-02T13:08:02Z</time>
      </trkpt>
      <trkpt lat="49.39925" lon="-1.17493">
        <ele>2.9</ele>
        <time>2022-06-02T13:08:03Z</time>
      </trkpt>
      <trkpt lat="49.39923" lon="-1.17494">
        <ele>2.9</ele>
        <time>2022-06-02T13:08:04Z</time>
      </trkpt>
      <trkpt lat="49.39922" lon="-1.17494">
        <ele>2.9</ele>
        <time>2022-06-02T13:08:05Z</time>
      </trkpt>
      <trkpt lat="49.39921" lon="-1.17495">
        <ele>2.9</ele>
        <time>2022-06-02T13:08:06Z</time>
      </trkpt>
      <trkpt lat="49.3992" lon="-1.17495">
        <ele>2.9</ele>
        <time>2022-06-02T13:08:07Z</time>
      </trkpt>
      <trkpt lat="49.39918" lon="-1.17496">
        <ele>3</ele>
        <time>2022-06-02T13:08:08Z</time>
      </trkpt>
      <trkpt lat="49.39917" lon="-1.17497">
        <ele>3</ele>
        <time>2022-06-02T13:08:09Z</time>
      </trkpt>
      <trkpt lat="49.39916" lon="-1.17498">
        <ele>3</ele>
        <time>2022-06-02T13:08:10Z</time>
      </trkpt>
      <trkpt lat="49.39914" lon="-1.17498">
        <ele>3</ele>
        <time>2022-06-02T13:08:11Z</time>
      </trkpt>
      <trkpt lat="49.39913" lon="-1.17499">
        <ele>3</ele>
        <time>2022-06-02T13:08:12Z</time>
      </trkpt>
      <trkpt lat="49.39912" lon="-1.175">
        <ele>3</ele>
        <time>2022-06-02T13:08:13Z</time>
      </trkpt>
      <trkpt lat="49.39909" lon="-1.17501">
        <ele>3</ele>
        <time>2022-06-02T13:08:15Z</time>
      </trkpt>
      <trkpt lat="49.39908" lon="-1.17501">
        <ele>3</ele>
        <time>2022-06-02T13:08:16Z</time>
      </trkpt>
      <trkpt lat="49.39906" lon="-1.17502">
        <ele>3</ele>
        <time>2022-06-02T13:08:17Z</time>
      </trkpt>
      <trkpt lat="49.39905" lon="-1.17502">
        <ele>3</ele>
        <time>2022-06-02T13:08:18Z</time>
      </trkpt>
      <trkpt lat="49.39904" lon="-1.17503">
        <ele>3</ele>
        <time>2022-06-02T13:08:19Z</time>
      </trkpt>
      <trkpt lat="49.39902" lon="-1.17503">
        <ele>3</ele>
        <time>2022-06-02T13:08:20Z</time>
      </trkpt>
      <trkpt lat="49.399" lon="-1.17504">
        <ele>3</ele>
        <time>2022-06-02T13:08:22Z</time>
      </trkpt>
      <trkpt lat="49.39899" lon="-1.17505">
        <ele>3</ele>
        <time>2022-06-02T13:08:23Z</time>
      </trkpt>
      <trkpt lat="49.39897" lon="-1.17505">
        <ele>3</ele>
        <time>2022-06-02T13:08:24Z</time>
      </trkpt>
      <trkpt lat="49.39896" lon="-1.17506">
        <ele>3</ele>
        <time>2022-06-02T13:08:25Z</time>
      </trkpt>
      <trkpt lat="49.39894" lon="-1.17506">
        <ele>3</ele>
        <time>2022-06-02T13:08:26Z</time>
      </trkpt>
      <trkpt lat="49.39892" lon="-1.17506">
        <ele>2.9</ele>
        <time>2022-06-02T13:08:27Z</time>
      </trkpt>
      <trkpt lat="49.39891" lon="-1.17506">
        <ele>2.9</ele>
        <time>2022-06-02T13:08:28Z</time>
      </trkpt>
      <trkpt lat="49.3989" lon="-1.17506">
        <ele>2.9</ele>
        <time>2022-06-02T13:08:29Z</time>
      </trkpt>
      <trkpt lat="49.39889" lon="-1.17506">
        <ele>2.9</ele>
        <time>2022-06-02T13:08:30Z</time>
      </trkpt>
      <trkpt lat="49.39887" lon="-1.17506">
        <ele>2.9</ele>
        <time>2022-06-02T13:08:31Z</time>
      </trkpt>
      <trkpt lat="49.39886" lon="-1.17506">
        <ele>2.9</ele>
        <time>2022-06-02T13:08:32Z</time>
      </trkpt>
      <trkpt lat="49.39885" lon="-1.17506">
        <ele>2.9</ele>
        <time>2022-06-02T13:08:33Z</time>
      </trkpt>
      <trkpt lat="49.39883" lon="-1.17506">
        <ele>2.9</ele>
        <time>2022-06-02T13:08:34Z</time>
      </trkpt>
      <trkpt lat="49.39882" lon="-1.17506">
        <ele>2.9</ele>
        <time>2022-06-02T13:08:35Z</time>
      </trkpt>
      <trkpt lat="49.3988" lon="-1.17506">
        <ele>2.9</ele>
        <time>2022-06-02T13:08:37Z</time>
      </trkpt>
      <trkpt lat="49.39879" lon="-1.17506">
        <ele>2.9</ele>
        <time>2022-06-02T13:08:38Z</time>
      </trkpt>
      <trkpt lat="49.39877" lon="-1.17506">
        <ele>2.8</ele>
        <time>2022-06-02T13:08:39Z</time>
      </trkpt>
      <trkpt lat="49.39876" lon="-1.17506">
        <ele>2.8</ele>
        <time>2022-06-02T13:08:40Z</time>
      </trkpt>
      <trkpt lat="49.39875" lon="-1.17506">
        <ele>2.8</ele>
        <time>2022-06-02T13:08:41Z</time>
      </trkpt>
      <trkpt lat="49.39873" lon="-1.17506">
        <ele>2.8</ele>
        <time>2022-06-02T13:08:42Z</time>
      </trkpt>
      <trkpt lat="49.39871" lon="-1.17507">
        <ele>2.8</ele>
        <time>2022-06-02T13:08:43Z</time>
      </trkpt>
      <trkpt lat="49.3987" lon="-1.17508">
        <ele>2.8</ele>
        <time>2022-06-02T13:08:44Z</time>
      </trkpt>
      <trkpt lat="49.39869" lon="-1.17508">
        <ele>2.8</ele>
        <time>2022-06-02T13:08:45Z</time>
      </trkpt>
      <trkpt lat="49.39867" lon="-1.17509">
        <ele>2.8</ele>
        <time>2022-06-02T13:08:47Z</time>
      </trkpt>
      <trkpt lat="49.39866" lon="-1.1751">
        <ele>2.8</ele>
        <time>2022-06-02T13:08:48Z</time>
      </trkpt>
      <trkpt lat="49.39864" lon="-1.1751">
        <ele>2.8</ele>
        <time>2022-06-02T13:08:49Z</time>
      </trkpt>
      <trkpt lat="49.39863" lon="-1.17511">
        <ele>2.8</ele>
        <time>2022-06-02T13:08:50Z</time>
      </trkpt>
      <trkpt lat="49.39861" lon="-1.17512">
        <ele>2.7</ele>
        <time>2022-06-02T13:08:51Z</time>
      </trkpt>
      <trkpt lat="49.3986" lon="-1.17514">
        <ele>2.7</ele>
        <time>2022-06-02T13:08:52Z</time>
      </trkpt>
      <trkpt lat="49.3986" lon="-1.17515">
        <ele>2.7</ele>
        <time>2022-06-02T13:08:53Z</time>
      </trkpt>
      <trkpt lat="49.3986" lon="-1.17517">
        <ele>2.7</ele>
        <time>2022-06-02T13:08:54Z</time>
      </trkpt>
      <trkpt lat="49.3986" lon="-1.17519">
        <ele>2.7</ele>
        <time>2022-06-02T13:08:55Z</time>
      </trkpt>
      <trkpt lat="49.39861" lon="-1.1752">
        <ele>2.7</ele>
        <time>2022-06-02T13:08:56Z</time>
      </trkpt>
      <trkpt lat="49.39862" lon="-1.17521">
        <ele>2.7</ele>
        <time>2022-06-02T13:08:57Z</time>
      </trkpt>
      <trkpt lat="49.39863" lon="-1.17522">
        <ele>2.7</ele>
        <time>2022-06-02T13:08:58Z</time>
      </trkpt>
      <trkpt lat="49.39864" lon="-1.17522">
        <ele>2.7</ele>
        <time>2022-06-02T13:08:59Z</time>
      </trkpt>
      <trkpt lat="49.39864" lon="-1.17522">
        <ele>2.7</ele>
        <time>2022-06-02T13:09:00Z</time>
      </trkpt>
      <trkpt lat="49.39865" lon="-1.17521">
        <ele>2.7</ele>
        <time>2022-06-02T13:09:01Z</time>
      </trkpt>
      <trkpt lat="49.39865" lon="-1.17521">
        <ele>2.7</ele>
        <time>2022-06-02T13:09:02Z</time>
      </trkpt>
      <trkpt lat="49.39865" lon="-1.17521">
        <ele>2.7</ele>
        <time>2022-06-02T13:09:03Z</time>
      </trkpt>
      <trkpt lat="49.39865" lon="-1.17521">
        <ele>2.7</ele>
        <time>2022-06-02T13:09:04Z</time>
      </trkpt>
      <trkpt lat="49.39866" lon="-1.17521">
        <ele>2.7</ele>
        <time>2022-06-02T13:09:05Z</time>
      </trkpt>
      <trkpt lat="49.39866" lon="-1.17521">
        <ele>2.7</ele>
        <time>2022-06-02T13:09:06Z</time>
      </trkpt>
      <trkpt lat="49.39866" lon="-1.17521">
        <ele>2.7</ele>
        <time>2022-06-02T13:09:07Z</time>
      </trkpt>
      <trkpt lat="49.39866" lon="-1.17521">
        <ele>2.7</ele>
        <time>2022-06-02T13:09:08Z</time>
      </trkpt>
      <trkpt lat="49.39866" lon="-1.17521">
        <ele>2.7</ele>
        <time>2022-06-02T13:09:09Z</time>
      </trkpt>
      <trkpt lat="49.39866" lon="-1.17521">
        <ele>2.7</ele>
        <time>2022-06-02T13:09:10Z</time>
      </trkpt>
      <trkpt lat="49.39866" lon="-1.17521">
        <ele>2.7</ele>
        <time>2022-06-02T13:09:11Z</time>
      </trkpt>
      <trkpt lat="49.39866" lon="-1.17521">
        <ele>2.7</ele>
        <time>2022-06-02T13:09:12Z</time>
      </trkpt>
      <trkpt lat="49.39866" lon="-1.17521">
        <ele>2.7</ele>
        <time>2022-06-02T13:09:13Z</time>
      </trkpt>
      <trkpt lat="49.39866" lon="-1.17521">
        <ele>2.7</ele>
        <time>2022-06-02T13:09:14Z</time>
      </trkpt>
      <trkpt lat="49.39867" lon="-1.17521">
        <ele>2.7</ele>
        <time>2022-06-02T13:09:15Z</time>
      </trkpt>
      <trkpt lat="49.39867" lon="-1.17521">
        <ele>2.7</ele>
        <time>2022-06-02T13:09:16Z</time>
      </trkpt>
      <trkpt lat="49.39867" lon="-1.17521">
        <ele>2.7</ele>
        <time>2022-06-02T13:09:17Z</time>
      </trkpt>
      <trkpt lat="49.39867" lon="-1.17521">
        <ele>2.7</ele>
        <time>2022-06-02T13:09:18Z</time>
      </trkpt>
      <trkpt lat="49.39867" lon="-1.17521">
        <ele>2.7</ele>
        <time>2022-06-02T13:09:19Z</time>
      </trkpt>
      <trkpt lat="49.39867" lon="-1.17521">
        <ele>2.7</ele>
        <time>2022-06-02T13:09:20Z</time>
      </trkpt>
      <trkpt lat="49.39867" lon="-1.17521">
        <ele>2.7</ele>
        <time>2022-06-02T13:09:21Z</time>
      </trkpt>
      <trkpt lat="49.39867" lon="-1.17521">
        <ele>2.7</ele>
        <time>2022-06-02T13:09:22Z</time>
      </trkpt>
      <trkpt lat="49.39867" lon="-1.17521">
        <ele>2.7</ele>
        <time>2022-06-02T13:09:23Z</time>
      </trkpt>
      <trkpt lat="49.39867" lon="-1.17521">
        <ele>2.7</ele>
        <time>2022-06-02T13:09:24Z</time>
      </trkpt>
      <trkpt lat="49.39867" lon="-1.17521">
        <ele>2.7</ele>
        <time>2022-06-02T13:09:25Z</time>
      </trkpt>
      <trkpt lat="49.39867" lon="-1.17521">
        <ele>2.7</ele>
        <time>2022-06-02T13:09:26Z</time>
      </trkpt>
      <trkpt lat="49.39867" lon="-1.17521">
        <ele>2.7</ele>
        <time>2022-06-02T13:09:27Z</time>
      </trkpt>
      <trkpt lat="49.39867" lon="-1.17521">
        <ele>2.7</ele>
        <time>2022-06-02T13:09:28Z</time>
      </trkpt>
      <trkpt lat="49.39867" lon="-1.17521">
        <ele>2.7</ele>
        <time>2022-06-02T13:09:29Z</time>
      </trkpt>
      <trkpt lat="49.39867" lon="-1.17521">
        <ele>2.7</ele>
        <time>2022-06-02T13:09:30Z</time>
      </trkpt>
      <trkpt lat="49.39867" lon="-1.17521">
        <ele>2.7</ele>
        <time>2022-06-02T13:09:31Z</time>
      </trkpt>
      <trkpt lat="49.39867" lon="-1.17521">
        <ele>2.7</ele>
        <time>2022-06-02T13:09:32Z</time>
      </trkpt>
      <trkpt lat="49.39867" lon="-1.17521">
        <ele>2.7</ele>
        <time>2022-06-02T13:09:33Z</time>
      </trkpt>
      <trkpt lat="49.39867" lon="-1.17521">
        <ele>2.7</ele>
        <time>2022-06-02T13:09:34Z</time>
      </trkpt>
      <trkpt lat="49.39867" lon="-1.17521">
        <ele>2.7</ele>
        <time>2022-06-02T13:09:35Z</time>
      </trkpt>
      <trkpt lat="49.39867" lon="-1.17521">
        <ele>2.7</ele>
        <time>2022-06-02T13:09:36Z</time>
      </trkpt>
      <trkpt lat="49.39867" lon="-1.17521">
        <ele>2.7</ele>
        <time>2022-06-02T13:09:37Z</time>
      </trkpt>
      <trkpt lat="49.39867" lon="-1.17521">
        <ele>2.7</ele>
        <time>2022-06-02T13:09:38Z</time>
      </trkpt>
      <trkpt lat="49.39867" lon="-1.17521">
        <ele>2.7</ele>
        <time>2022-06-02T13:09:39Z</time>
      </trkpt>
      <trkpt lat="49.39867" lon="-1.17521">
        <ele>2.7</ele>
        <time>2022-06-02T13:09:40Z</time>
      </trkpt>
      <trkpt lat="49.39867" lon="-1.17521">
        <ele>2.7</ele>
        <time>2022-06-02T13:09:41Z</time>
      </trkpt>
      <trkpt lat="49.39867" lon="-1.17521">
        <ele>2.7</ele>
        <time>2022-06-02T13:09:42Z</time>
      </trkpt>
      <trkpt lat="49.39867" lon="-1.17521">
        <ele>2.7</ele>
        <time>2022-06-02T13:09:43Z</time>
      </trkpt>
      <trkpt lat="49.39867" lon="-1.17521">
        <ele>2.7</ele>
        <time>2022-06-02T13:09:44Z</time>
      </trkpt>
      <trkpt lat="49.39867" lon="-1.17521">
        <ele>2.7</ele>
        <time>2022-06-02T13:09:45Z</time>
      </trkpt>
      <trkpt lat="49.39867" lon="-1.17521">
        <ele>2.7</ele>
        <time>2022-06-02T13:09:46Z</time>
      </trkpt>
      <trkpt lat="49.39867" lon="-1.17521">
        <ele>2.7</ele>
        <time>2022-06-02T13:09:47Z</time>
      </trkpt>
      <trkpt lat="49.39867" lon="-1.17521">
        <ele>2.7</ele>
        <time>2022-06-02T13:09:48Z</time>
      </trkpt>
      <trkpt lat="49.39867" lon="-1.17521">
        <ele>2.7</ele>
        <time>2022-06-02T13:09:49Z</time>
      </trkpt>
      <trkpt lat="49.39867" lon="-1.17521">
        <ele>2.7</ele>
        <time>2022-06-02T13:09:50Z</time>
      </trkpt>
      <trkpt lat="49.39867" lon="-1.17521">
        <ele>2.7</ele>
        <time>2022-06-02T13:09:51Z</time>
      </trkpt>
      <trkpt lat="49.39867" lon="-1.17521">
        <ele>2.7</ele>
        <time>2022-06-02T13:09:52Z</time>
      </trkpt>
      <trkpt lat="49.39867" lon="-1.17521">
        <ele>2.7</ele>
        <time>2022-06-02T13:09:53Z</time>
      </trkpt>
      <trkpt lat="49.39867" lon="-1.17521">
        <ele>2.7</ele>
        <time>2022-06-02T13:09:54Z</time>
      </trkpt>
      <trkpt lat="49.39867" lon="-1.17521">
        <ele>2.7</ele>
        <time>2022-06-02T13:09:55Z</time>
      </trkpt>
      <trkpt lat="49.39867" lon="-1.17521">
        <ele>2.7</ele>
        <time>2022-06-02T13:09:56Z</time>
      </trkpt>
      <trkpt lat="49.39867" lon="-1.17521">
        <ele>2.7</ele>
        <time>2022-06-02T13:09:57Z</time>
      </trkpt>
      <trkpt lat="49.39867" lon="-1.17521">
        <ele>2.7</ele>
        <time>2022-06-02T13:09:58Z</time>
      </trkpt>
      <trkpt lat="49.39867" lon="-1.17521">
        <ele>2.7</ele>
        <time>2022-06-02T13:09:59Z</time>
      </trkpt>
      <trkpt lat="49.39867" lon="-1.17521">
        <ele>2.7</ele>
        <time>2022-06-02T13:10:00Z</time>
      </trkpt>
      <trkpt lat="49.39867" lon="-1.17521">
        <ele>2.7</ele>
        <time>2022-06-02T13:10:01Z</time>
      </trkpt>
      <trkpt lat="49.39867" lon="-1.17521">
        <ele>2.7</ele>
        <time>2022-06-02T13:10:02Z</time>
      </trkpt>
      <trkpt lat="49.39867" lon="-1.17521">
        <ele>2.7</ele>
        <time>2022-06-02T13:10:03Z</time>
      </trkpt>
      <trkpt lat="49.39867" lon="-1.17521">
        <ele>2.7</ele>
        <time>2022-06-02T13:10:04Z</time>
      </trkpt>
      <trkpt lat="49.39867" lon="-1.17521">
        <ele>2.7</ele>
        <time>2022-06-02T13:10:05Z</time>
      </trkpt>
      <trkpt lat="49.39867" lon="-1.17521">
        <ele>2.7</ele>
        <time>2022-06-02T13:10:06Z</time>
      </trkpt>
      <trkpt lat="49.39867" lon="-1.17521">
        <ele>2.7</ele>
        <time>2022-06-02T13:10:07Z</time>
      </trkpt>
      <trkpt lat="49.39867" lon="-1.17521">
        <ele>2.7</ele>
        <time>2022-06-02T13:10:08Z</time>
      </trkpt>
      <trkpt lat="49.39867" lon="-1.17521">
        <ele>2.7</ele>
        <time>2022-06-02T13:10:09Z</time>
      </trkpt>
      <trkpt lat="49.39867" lon="-1.17521">
        <ele>2.7</ele>
        <time>2022-06-02T13:10:10Z</time>
      </trkpt>
      <trkpt lat="49.39867" lon="-1.17521">
        <ele>2.7</ele>
        <time>2022-06-02T13:10:11Z</time>
      </trkpt>
      <trkpt lat="49.39867" lon="-1.17521">
        <ele>2.7</ele>
        <time>2022-06-02T13:10:12Z</time>
      </trkpt>
      <trkpt lat="49.39867" lon="-1.17521">
        <ele>2.7</ele>
        <time>2022-06-02T13:10:13Z</time>
      </trkpt>
      <trkpt lat="49.39867" lon="-1.17521">
        <ele>2.7</ele>
        <time>2022-06-02T13:10:14Z</time>
      </trkpt>
      <trkpt lat="49.39867" lon="-1.17521">
        <ele>2.7</ele>
        <time>2022-06-02T13:10:15Z</time>
      </trkpt>
      <trkpt lat="49.39867" lon="-1.17521">
        <ele>2.7</ele>
        <time>2022-06-02T13:10:16Z</time>
      </trkpt>
      <trkpt lat="49.39867" lon="-1.17521">
        <ele>2.7</ele>
        <time>2022-06-02T13:10:17Z</time>
      </trkpt>
      <trkpt lat="49.39867" lon="-1.17521">
        <ele>2.7</ele>
        <time>2022-06-02T13:10:18Z</time>
      </trkpt>
      <trkpt lat="49.39867" lon="-1.17521">
        <ele>2.7</ele>
        <time>2022-06-02T13:10:19Z</time>
      </trkpt>
      <trkpt lat="49.39867" lon="-1.17521">
        <ele>2.7</ele>
        <time>2022-06-02T13:10:20Z</time>
      </trkpt>
      <trkpt lat="49.39867" lon="-1.17521">
        <ele>2.7</ele>
        <time>2022-06-02T13:10:21Z</time>
      </trkpt>
      <trkpt lat="49.39867" lon="-1.17521">
        <ele>2.7</ele>
        <time>2022-06-02T13:10:22Z</time>
      </trkpt>
      <trkpt lat="49.39867" lon="-1.17521">
        <ele>2.7</ele>
        <time>2022-06-02T13:10:23Z</time>
      </trkpt>
      <trkpt lat="49.39867" lon="-1.17521">
        <ele>2.7</ele>
        <time>2022-06-02T13:10:24Z</time>
      </trkpt>
      <trkpt lat="49.39867" lon="-1.17521">
        <ele>2.7</ele>
        <time>2022-06-02T13:10:25Z</time>
      </trkpt>
      <trkpt lat="49.39867" lon="-1.17521">
        <ele>2.7</ele>
        <time>2022-06-02T13:10:26Z</time>
      </trkpt>
      <trkpt lat="49.39867" lon="-1.17521">
        <ele>2.7</ele>
        <time>2022-06-02T13:10:27Z</time>
      </trkpt>
      <trkpt lat="49.39867" lon="-1.17521">
        <ele>2.7</ele>
        <time>2022-06-02T13:10:28Z</time>
      </trkpt>
      <trkpt lat="49.39867" lon="-1.17521">
        <ele>2.7</ele>
        <time>2022-06-02T13:10:29Z</time>
      </trkpt>
      <trkpt lat="49.39867" lon="-1.17521">
        <ele>2.7</ele>
        <time>2022-06-02T13:10:30Z</time>
      </trkpt>
      <trkpt lat="49.39867" lon="-1.17521">
        <ele>2.7</ele>
        <time>2022-06-02T13:10:31Z</time>
      </trkpt>
      <trkpt lat="49.39867" lon="-1.17521">
        <ele>2.7</ele>
        <time>2022-06-02T13:10:32Z</time>
      </trkpt>
      <trkpt lat="49.39867" lon="-1.17521">
        <ele>2.7</ele>
        <time>2022-06-02T13:10:33Z</time>
      </trkpt>
      <trkpt lat="49.39867" lon="-1.17521">
        <ele>2.7</ele>
        <time>2022-06-02T13:10:34Z</time>
      </trkpt>
      <trkpt lat="49.39867" lon="-1.17521">
        <ele>2.7</ele>
        <time>2022-06-02T13:10:35Z</time>
      </trkpt>
      <trkpt lat="49.39867" lon="-1.17521">
        <ele>2.7</ele>
        <time>2022-06-02T13:10:36Z</time>
      </trkpt>
      <trkpt lat="49.39867" lon="-1.17521">
        <ele>2.7</ele>
        <time>2022-06-02T13:10:37Z</time>
      </trkpt>
      <trkpt lat="49.39867" lon="-1.17521">
        <ele>2.7</ele>
        <time>2022-06-02T13:10:38Z</time>
      </trkpt>
      <trkpt lat="49.39867" lon="-1.17521">
        <ele>2.7</ele>
        <time>2022-06-02T13:10:39Z</time>
      </trkpt>
      <trkpt lat="49.39867" lon="-1.17521">
        <ele>2.7</ele>
        <time>2022-06-02T13:10:40Z</time>
      </trkpt>
      <trkpt lat="49.39867" lon="-1.17521">
        <ele>2.7</ele>
        <time>2022-06-02T13:10:41Z</time>
      </trkpt>
      <trkpt lat="49.39867" lon="-1.17521">
        <ele>2.7</ele>
        <time>2022-06-02T13:10:42Z</time>
      </trkpt>
      <trkpt lat="49.39867" lon="-1.17521">
        <ele>2.7</ele>
        <time>2022-06-02T13:10:43Z</time>
      </trkpt>
      <trkpt lat="49.39867" lon="-1.17521">
        <ele>2.7</ele>
        <time>2022-06-02T13:10:44Z</time>
      </trkpt>
      <trkpt lat="49.39867" lon="-1.17521">
        <ele>2.7</ele>
        <time>2022-06-02T13:10:45Z</time>
      </trkpt>
      <trkpt lat="49.39867" lon="-1.17521">
        <ele>2.7</ele>
        <time>2022-06-02T13:10:46Z</time>
      </trkpt>
      <trkpt lat="49.39867" lon="-1.17521">
        <ele>2.7</ele>
        <time>2022-06-02T13:10:47Z</time>
      </trkpt>
      <trkpt lat="49.39867" lon="-1.17521">
        <ele>2.7</ele>
        <time>2022-06-02T13:10:48Z</time>
      </trkpt>
      <trkpt lat="49.39867" lon="-1.17521">
        <ele>2.7</ele>
        <time>2022-06-02T13:10:49Z</time>
      </trkpt>
      <trkpt lat="49.39867" lon="-1.17517">
        <ele>2.7</ele>
        <time>2022-06-02T13:10:50Z</time>
      </trkpt>
      <trkpt lat="49.39868" lon="-1.17516">
        <ele>2.7</ele>
        <time>2022-06-02T13:10:51Z</time>
      </trkpt>
      <trkpt lat="49.39868" lon="-1.17516">
        <ele>2.7</ele>
        <time>2022-06-02T13:10:52Z</time>
      </trkpt>
      <trkpt lat="49.39868" lon="-1.17516">
        <ele>2.7</ele>
        <time>2022-06-02T13:10:53Z</time>
      </trkpt>
      <trkpt lat="49.39868" lon="-1.17516">
        <ele>2.7</ele>
        <time>2022-06-02T13:10:54Z</time>
      </trkpt>
      <trkpt lat="49.39868" lon="-1.17516">
        <ele>2.7</ele>
        <time>2022-06-02T13:10:55Z</time>
      </trkpt>
      <trkpt lat="49.39868" lon="-1.17516">
        <ele>2.7</ele>
        <time>2022-06-02T13:10:56Z</time>
      </trkpt>
      <trkpt lat="49.39868" lon="-1.17516">
        <ele>2.7</ele>
        <time>2022-06-02T13:10:57Z</time>
      </trkpt>
      <trkpt lat="49.39868" lon="-1.17516">
        <ele>2.7</ele>
        <time>2022-06-02T13:10:58Z</time>
      </trkpt>
      <trkpt lat="49.39868" lon="-1.17516">
        <ele>2.7</ele>
        <time>2022-06-02T13:10:59Z</time>
      </trkpt>
      <trkpt lat="49.39868" lon="-1.17516">
        <ele>2.7</ele>
        <time>2022-06-02T13:11:00Z</time>
      </trkpt>
      <trkpt lat="49.39868" lon="-1.17516">
        <ele>2.7</ele>
        <time>2022-06-02T13:11:01Z</time>
      </trkpt>
      <trkpt lat="49.39868" lon="-1.17516">
        <ele>2.7</ele>
        <time>2022-06-02T13:11:02Z</time>
      </trkpt>
      <trkpt lat="49.39868" lon="-1.17516">
        <ele>2.7</ele>
        <time>2022-06-02T13:11:03Z</time>
      </trkpt>
      <trkpt lat="49.39868" lon="-1.17516">
        <ele>2.7</ele>
        <time>2022-06-02T13:11:04Z</time>
      </trkpt>
      <trkpt lat="49.39868" lon="-1.17516">
        <ele>2.7</ele>
        <time>2022-06-02T13:11:05Z</time>
      </trkpt>
      <trkpt lat="49.39868" lon="-1.17516">
        <ele>2.7</ele>
        <time>2022-06-02T13:11:06Z</time>
      </trkpt>
      <trkpt lat="49.39868" lon="-1.17516">
        <ele>2.7</ele>
        <time>2022-06-02T13:11:07Z</time>
      </trkpt>
      <trkpt lat="49.39868" lon="-1.17516">
        <ele>2.7</ele>
        <time>2022-06-02T13:11:08Z</time>
      </trkpt>
      <trkpt lat="49.39868" lon="-1.17516">
        <ele>2.7</ele>
        <time>2022-06-02T13:11:09Z</time>
      </trkpt>
      <trkpt lat="49.39868" lon="-1.17516">
        <ele>2.7</ele>
        <time>2022-06-02T13:11:10Z</time>
      </trkpt>
      <trkpt lat="49.39868" lon="-1.17515">
        <ele>2.7</ele>
        <time>2022-06-02T13:11:11Z</time>
      </trkpt>
      <trkpt lat="49.39868" lon="-1.17516">
        <ele>2.7</ele>
        <time>2022-06-02T13:11:12Z</time>
      </trkpt>
      <trkpt lat="49.39869" lon="-1.17516">
        <ele>2.7</ele>
        <time>2022-06-02T13:11:13Z</time>
      </trkpt>
      <trkpt lat="49.39869" lon="-1.17517">
        <ele>2.7</ele>
        <time>2022-06-02T13:11:14Z</time>
      </trkpt>
      <trkpt lat="49.39869" lon="-1.17518">
        <ele>2.7</ele>
        <time>2022-06-02T13:11:15Z</time>
      </trkpt>
      <trkpt lat="49.39869" lon="-1.17518">
        <ele>2.7</ele>
        <time>2022-06-02T13:11:16Z</time>
      </trkpt>
      <trkpt lat="49.39869" lon="-1.17518">
        <ele>2.7</ele>
        <time>2022-06-02T13:11:17Z</time>
      </trkpt>
      <trkpt lat="49.39869" lon="-1.17518">
        <ele>2.7</ele>
        <time>2022-06-02T13:11:18Z</time>
      </trkpt>
      <trkpt lat="49.39869" lon="-1.17518">
        <ele>2.7</ele>
        <time>2022-06-02T13:11:19Z</time>
      </trkpt>
      <trkpt lat="49.39869" lon="-1.17518">
        <ele>2.7</ele>
        <time>2022-06-02T13:11:20Z</time>
      </trkpt>
      <trkpt lat="49.39869" lon="-1.17518">
        <ele>2.7</ele>
        <time>2022-06-02T13:11:21Z</time>
      </trkpt>
      <trkpt lat="49.39869" lon="-1.17518">
        <ele>2.7</ele>
        <time>2022-06-02T13:11:22Z</time>
      </trkpt>
      <trkpt lat="49.39869" lon="-1.17518">
        <ele>2.7</ele>
        <time>2022-06-02T13:11:23Z</time>
      </trkpt>
      <trkpt lat="49.39869" lon="-1.17518">
        <ele>2.7</ele>
        <time>2022-06-02T13:11:24Z</time>
      </trkpt>
      <trkpt lat="49.39869" lon="-1.17518">
        <ele>2.7</ele>
        <time>2022-06-02T13:11:25Z</time>
      </trkpt>
      <trkpt lat="49.39869" lon="-1.17518">
        <ele>2.7</ele>
        <time>2022-06-02T13:11:26Z</time>
      </trkpt>
      <trkpt lat="49.39869" lon="-1.17518">
        <ele>2.7</ele>
        <time>2022-06-02T13:11:27Z</time>
      </trkpt>
      <trkpt lat="49.39869" lon="-1.17518">
        <ele>2.7</ele>
        <time>2022-06-02T13:11:28Z</time>
      </trkpt>
      <trkpt lat="49.39869" lon="-1.17518">
        <ele>2.7</ele>
        <time>2022-06-02T13:11:29Z</time>
      </trkpt>
      <trkpt lat="49.39869" lon="-1.17518">
        <ele>2.7</ele>
        <time>2022-06-02T13:11:30Z</time>
      </trkpt>
      <trkpt lat="49.39869" lon="-1.17518">
        <ele>2.7</ele>
        <time>2022-06-02T13:11:31Z</time>
      </trkpt>
      <trkpt lat="49.39869" lon="-1.17518">
        <ele>2.7</ele>
        <time>2022-06-02T13:11:32Z</time>
      </trkpt>
      <trkpt lat="49.39869" lon="-1.17518">
        <ele>2.7</ele>
        <time>2022-06-02T13:11:33Z</time>
      </trkpt>
      <trkpt lat="49.39869" lon="-1.17518">
        <ele>2.7</ele>
        <time>2022-06-02T13:11:34Z</time>
      </trkpt>
      <trkpt lat="49.39869" lon="-1.17518">
        <ele>2.7</ele>
        <time>2022-06-02T13:11:35Z</time>
      </trkpt>
      <trkpt lat="49.39869" lon="-1.17518">
        <ele>2.7</ele>
        <time>2022-06-02T13:11:36Z</time>
      </trkpt>
      <trkpt lat="49.39869" lon="-1.17518">
        <ele>2.7</ele>
        <time>2022-06-02T13:11:37Z</time>
      </trkpt>
      <trkpt lat="49.39869" lon="-1.17518">
        <ele>2.7</ele>
        <time>2022-06-02T13:11:38Z</time>
      </trkpt>
      <trkpt lat="49.39869" lon="-1.17518">
        <ele>2.7</ele>
        <time>2022-06-02T13:11:39Z</time>
      </trkpt>
      <trkpt lat="49.39869" lon="-1.17518">
        <ele>2.7</ele>
        <time>2022-06-02T13:11:40Z</time>
      </trkpt>
      <trkpt lat="49.39869" lon="-1.17518">
        <ele>2.7</ele>
        <time>2022-06-02T13:11:41Z</time>
      </trkpt>
      <trkpt lat="49.39869" lon="-1.17518">
        <ele>2.7</ele>
        <time>2022-06-02T13:11:42Z</time>
      </trkpt>
      <trkpt lat="49.39869" lon="-1.17518">
        <ele>2.7</ele>
        <time>2022-06-02T13:11:43Z</time>
      </trkpt>
      <trkpt lat="49.39869" lon="-1.17518">
        <ele>2.7</ele>
        <time>2022-06-02T13:11:44Z</time>
      </trkpt>
      <trkpt lat="49.39869" lon="-1.17518">
        <ele>2.7</ele>
        <time>2022-06-02T13:11:45Z</time>
      </trkpt>
      <trkpt lat="49.39869" lon="-1.17518">
        <ele>2.7</ele>
        <time>2022-06-02T13:11:46Z</time>
      </trkpt>
      <trkpt lat="49.39869" lon="-1.17518">
        <ele>2.7</ele>
        <time>2022-06-02T13:11:47Z</time>
      </trkpt>
      <trkpt lat="49.39869" lon="-1.17518">
        <ele>2.7</ele>
        <time>2022-06-02T13:11:48Z</time>
      </trkpt>
      <trkpt lat="49.39869" lon="-1.17518">
        <ele>2.7</ele>
        <time>2022-06-02T13:11:49Z</time>
      </trkpt>
      <trkpt lat="49.39869" lon="-1.17518">
        <ele>2.7</ele>
        <time>2022-06-02T13:11:50Z</time>
      </trkpt>
      <trkpt lat="49.39869" lon="-1.17518">
        <ele>2.7</ele>
        <time>2022-06-02T13:11:51Z</time>
      </trkpt>
      <trkpt lat="49.39869" lon="-1.17518">
        <ele>2.7</ele>
        <time>2022-06-02T13:11:52Z</time>
      </trkpt>
      <trkpt lat="49.39869" lon="-1.17518">
        <ele>2.7</ele>
        <time>2022-06-02T13:11:53Z</time>
      </trkpt>
      <trkpt lat="49.39869" lon="-1.17518">
        <ele>2.7</ele>
        <time>2022-06-02T13:11:54Z</time>
      </trkpt>
      <trkpt lat="49.39869" lon="-1.17518">
        <ele>2.7</ele>
        <time>2022-06-02T13:11:55Z</time>
      </trkpt>
      <trkpt lat="49.39869" lon="-1.17518">
        <ele>2.7</ele>
        <time>2022-06-02T13:11:56Z</time>
      </trkpt>
      <trkpt lat="49.39869" lon="-1.17518">
        <ele>2.7</ele>
        <time>2022-06-02T13:11:57Z</time>
      </trkpt>
      <trkpt lat="49.39869" lon="-1.17518">
        <ele>2.7</ele>
        <time>2022-06-02T13:11:58Z</time>
      </trkpt>
      <trkpt lat="49.39869" lon="-1.17518">
        <ele>2.7</ele>
        <time>2022-06-02T13:11:59Z</time>
      </trkpt>
      <trkpt lat="49.39869" lon="-1.17518">
        <ele>2.7</ele>
        <time>2022-06-02T13:12:00Z</time>
      </trkpt>
      <trkpt lat="49.39869" lon="-1.17518">
        <ele>2.7</ele>
        <time>2022-06-02T13:12:01Z</time>
      </trkpt>
      <trkpt lat="49.39869" lon="-1.17518">
        <ele>2.7</ele>
        <time>2022-06-02T13:12:02Z</time>
      </trkpt>
      <trkpt lat="49.39869" lon="-1.17518">
        <ele>2.7</ele>
        <time>2022-06-02T13:12:03Z</time>
      </trkpt>
      <trkpt lat="49.39869" lon="-1.17518">
        <ele>2.7</ele>
        <time>2022-06-02T13:12:04Z</time>
      </trkpt>
      <trkpt lat="49.39869" lon="-1.17518">
        <ele>2.7</ele>
        <time>2022-06-02T13:12:05Z</time>
      </trkpt>
      <trkpt lat="49.39869" lon="-1.17518">
        <ele>2.7</ele>
        <time>2022-06-02T13:12:06Z</time>
      </trkpt>
      <trkpt lat="49.39869" lon="-1.17518">
        <ele>2.7</ele>
        <time>2022-06-02T13:12:07Z</time>
      </trkpt>
      <trkpt lat="49.39869" lon="-1.17518">
        <ele>2.7</ele>
        <time>2022-06-02T13:12:08Z</time>
      </trkpt>
      <trkpt lat="49.39869" lon="-1.17518">
        <ele>2.7</ele>
        <time>2022-06-02T13:12:09Z</time>
      </trkpt>
      <trkpt lat="49.39869" lon="-1.17518">
        <ele>2.7</ele>
        <time>2022-06-02T13:12:10Z</time>
      </trkpt>
      <trkpt lat="49.39869" lon="-1.17518">
        <ele>2.7</ele>
        <time>2022-06-02T13:12:11Z</time>
      </trkpt>
      <trkpt lat="49.39869" lon="-1.17518">
        <ele>2.7</ele>
        <time>2022-06-02T13:12:12Z</time>
      </trkpt>
      <trkpt lat="49.39869" lon="-1.17518">
        <ele>2.7</ele>
        <time>2022-06-02T13:12:13Z</time>
      </trkpt>
      <trkpt lat="49.39869" lon="-1.17518">
        <ele>2.7</ele>
        <time>2022-06-02T13:12:14Z</time>
      </trkpt>
      <trkpt lat="49.39869" lon="-1.17518">
        <ele>2.7</ele>
        <time>2022-06-02T13:12:15Z</time>
      </trkpt>
      <trkpt lat="49.39869" lon="-1.17518">
        <ele>2.7</ele>
        <time>2022-06-02T13:12:16Z</time>
      </trkpt>
      <trkpt lat="49.39869" lon="-1.17518">
        <ele>2.7</ele>
        <time>2022-06-02T13:12:17Z</time>
      </trkpt>
      <trkpt lat="49.39869" lon="-1.17518">
        <ele>2.7</ele>
        <time>2022-06-02T13:12:18Z</time>
      </trkpt>
      <trkpt lat="49.39869" lon="-1.17518">
        <ele>2.7</ele>
        <time>2022-06-02T13:12:19Z</time>
      </trkpt>
      <trkpt lat="49.39869" lon="-1.17518">
        <ele>2.7</ele>
        <time>2022-06-02T13:12:20Z</time>
      </trkpt>
      <trkpt lat="49.39869" lon="-1.17518">
        <ele>2.7</ele>
        <time>2022-06-02T13:12:21Z</time>
      </trkpt>
      <trkpt lat="49.39869" lon="-1.17518">
        <ele>2.7</ele>
        <time>2022-06-02T13:12:22Z</time>
      </trkpt>
      <trkpt lat="49.39869" lon="-1.17518">
        <ele>2.7</ele>
        <time>2022-06-02T13:12:23Z</time>
      </trkpt>
      <trkpt lat="49.39869" lon="-1.17518">
        <ele>2.7</ele>
        <time>2022-06-02T13:12:24Z</time>
      </trkpt>
      <trkpt lat="49.39869" lon="-1.17518">
        <ele>2.7</ele>
        <time>2022-06-02T13:12:25Z</time>
      </trkpt>
      <trkpt lat="49.39869" lon="-1.17518">
        <ele>2.7</ele>
        <time>2022-06-02T13:12:26Z</time>
      </trkpt>
      <trkpt lat="49.39869" lon="-1.17518">
        <ele>2.7</ele>
        <time>2022-06-02T13:12:27Z</time>
      </trkpt>
      <trkpt lat="49.39869" lon="-1.17518">
        <ele>2.7</ele>
        <time>2022-06-02T13:12:28Z</time>
      </trkpt>
      <trkpt lat="49.39869" lon="-1.17518">
        <ele>2.7</ele>
        <time>2022-06-02T13:12:29Z</time>
      </trkpt>
      <trkpt lat="49.39869" lon="-1.17518">
        <ele>2.7</ele>
        <time>2022-06-02T13:12:30Z</time>
      </trkpt>
      <trkpt lat="49.39869" lon="-1.17518">
        <ele>2.7</ele>
        <time>2022-06-02T13:12:31Z</time>
      </trkpt>
      <trkpt lat="49.39869" lon="-1.17518">
        <ele>2.7</ele>
        <time>2022-06-02T13:12:32Z</time>
      </trkpt>
      <trkpt lat="49.39869" lon="-1.17518">
        <ele>2.7</ele>
        <time>2022-06-02T13:12:33Z</time>
      </trkpt>
      <trkpt lat="49.39869" lon="-1.17518">
        <ele>2.7</ele>
        <time>2022-06-02T13:12:34Z</time>
      </trkpt>
      <trkpt lat="49.39869" lon="-1.17518">
        <ele>2.7</ele>
        <time>2022-06-02T13:12:35Z</time>
      </trkpt>
      <trkpt lat="49.39869" lon="-1.17518">
        <ele>2.7</ele>
        <time>2022-06-02T13:12:36Z</time>
      </trkpt>
      <trkpt lat="49.39869" lon="-1.17518">
        <ele>2.7</ele>
        <time>2022-06-02T13:12:37Z</time>
      </trkpt>
      <trkpt lat="49.39869" lon="-1.17518">
        <ele>2.7</ele>
        <time>2022-06-02T13:12:38Z</time>
      </trkpt>
      <trkpt lat="49.39869" lon="-1.17518">
        <ele>2.7</ele>
        <time>2022-06-02T13:12:39Z</time>
      </trkpt>
      <trkpt lat="49.39869" lon="-1.17518">
        <ele>2.7</ele>
        <time>2022-06-02T13:12:40Z</time>
      </trkpt>
      <trkpt lat="49.39869" lon="-1.17518">
        <ele>2.7</ele>
        <time>2022-06-02T13:12:41Z</time>
      </trkpt>
      <trkpt lat="49.39869" lon="-1.17518">
        <ele>2.7</ele>
        <time>2022-06-02T13:12:42Z</time>
      </trkpt>
      <trkpt lat="49.39869" lon="-1.17518">
        <ele>2.7</ele>
        <time>2022-06-02T13:12:43Z</time>
      </trkpt>
      <trkpt lat="49.39869" lon="-1.17518">
        <ele>2.7</ele>
        <time>2022-06-02T13:12:44Z</time>
      </trkpt>
      <trkpt lat="49.39869" lon="-1.17518">
        <ele>2.7</ele>
        <time>2022-06-02T13:12:45Z</time>
      </trkpt>
      <trkpt lat="49.39869" lon="-1.17518">
        <ele>2.7</ele>
        <time>2022-06-02T13:12:46Z</time>
      </trkpt>
      <trkpt lat="49.39869" lon="-1.17518">
        <ele>2.7</ele>
        <time>2022-06-02T13:12:47Z</time>
      </trkpt>
      <trkpt lat="49.39869" lon="-1.17518">
        <ele>2.7</ele>
        <time>2022-06-02T13:12:48Z</time>
      </trkpt>
      <trkpt lat="49.39869" lon="-1.17518">
        <ele>2.7</ele>
        <time>2022-06-02T13:12:49Z</time>
      </trkpt>
      <trkpt lat="49.39869" lon="-1.17518">
        <ele>2.7</ele>
        <time>2022-06-02T13:12:50Z</time>
      </trkpt>
      <trkpt lat="49.39869" lon="-1.17518">
        <ele>2.7</ele>
        <time>2022-06-02T13:12:51Z</time>
      </trkpt>
      <trkpt lat="49.39869" lon="-1.17518">
        <ele>2.7</ele>
        <time>2022-06-02T13:12:52Z</time>
      </trkpt>
      <trkpt lat="49.39869" lon="-1.17518">
        <ele>2.7</ele>
        <time>2022-06-02T13:12:53Z</time>
      </trkpt>
      <trkpt lat="49.39869" lon="-1.17518">
        <ele>2.7</ele>
        <time>2022-06-02T13:12:54Z</time>
      </trkpt>
      <trkpt lat="49.39869" lon="-1.17518">
        <ele>2.7</ele>
        <time>2022-06-02T13:12:55Z</time>
      </trkpt>
      <trkpt lat="49.39869" lon="-1.17518">
        <ele>2.7</ele>
        <time>2022-06-02T13:12:56Z</time>
      </trkpt>
      <trkpt lat="49.39869" lon="-1.17518">
        <ele>2.7</ele>
        <time>2022-06-02T13:12:57Z</time>
      </trkpt>
      <trkpt lat="49.39869" lon="-1.17518">
        <ele>2.7</ele>
        <time>2022-06-02T13:12:58Z</time>
      </trkpt>
      <trkpt lat="49.39869" lon="-1.17518">
        <ele>2.7</ele>
        <time>2022-06-02T13:12:59Z</time>
      </trkpt>
      <trkpt lat="49.39869" lon="-1.17518">
        <ele>2.7</ele>
        <time>2022-06-02T13:13:00Z</time>
      </trkpt>
      <trkpt lat="49.39869" lon="-1.17518">
        <ele>2.7</ele>
        <time>2022-06-02T13:13:01Z</time>
      </trkpt>
      <trkpt lat="49.39869" lon="-1.17518">
        <ele>2.7</ele>
        <time>2022-06-02T13:13:02Z</time>
      </trkpt>
      <trkpt lat="49.39869" lon="-1.17518">
        <ele>2.7</ele>
        <time>2022-06-02T13:13:03Z</time>
      </trkpt>
      <trkpt lat="49.39869" lon="-1.17518">
        <ele>2.7</ele>
        <time>2022-06-02T13:13:04Z</time>
      </trkpt>
      <trkpt lat="49.39869" lon="-1.17518">
        <ele>2.7</ele>
        <time>2022-06-02T13:13:05Z</time>
      </trkpt>
      <trkpt lat="49.39869" lon="-1.17518">
        <ele>2.7</ele>
        <time>2022-06-02T13:13:06Z</time>
      </trkpt>
      <trkpt lat="49.39869" lon="-1.17518">
        <ele>2.7</ele>
        <time>2022-06-02T13:13:07Z</time>
      </trkpt>
      <trkpt lat="49.39869" lon="-1.17518">
        <ele>2.7</ele>
        <time>2022-06-02T13:13:08Z</time>
      </trkpt>
      <trkpt lat="49.39869" lon="-1.17518">
        <ele>2.7</ele>
        <time>2022-06-02T13:13:09Z</time>
      </trkpt>
      <trkpt lat="49.39869" lon="-1.17518">
        <ele>2.7</ele>
        <time>2022-06-02T13:13:10Z</time>
      </trkpt>
      <trkpt lat="49.39869" lon="-1.17518">
        <ele>2.7</ele>
        <time>2022-06-02T13:13:11Z</time>
      </trkpt>
      <trkpt lat="49.39869" lon="-1.17518">
        <ele>2.7</ele>
        <time>2022-06-02T13:13:12Z</time>
      </trkpt>
      <trkpt lat="49.39869" lon="-1.17518">
        <ele>2.7</ele>
        <time>2022-06-02T13:13:13Z</time>
      </trkpt>
      <trkpt lat="49.39869" lon="-1.17518">
        <ele>2.7</ele>
        <time>2022-06-02T13:13:14Z</time>
      </trkpt>
      <trkpt lat="49.39869" lon="-1.17518">
        <ele>2.7</ele>
        <time>2022-06-02T13:13:15Z</time>
      </trkpt>
      <trkpt lat="49.39869" lon="-1.17517">
        <ele>2.8</ele>
        <time>2022-06-02T13:13:16Z</time>
      </trkpt>
      <trkpt lat="49.39868" lon="-1.17515">
        <ele>2.8</ele>
        <time>2022-06-02T13:13:17Z</time>
      </trkpt>
      <trkpt lat="49.39868" lon="-1.17515">
        <ele>2.8</ele>
        <time>2022-06-02T13:13:18Z</time>
      </trkpt>
      <trkpt lat="49.39868" lon="-1.17514">
        <ele>2.8</ele>
        <time>2022-06-02T13:13:19Z</time>
      </trkpt>
      <trkpt lat="49.39868" lon="-1.17514">
        <ele>2.8</ele>
        <time>2022-06-02T13:13:20Z</time>
      </trkpt>
      <trkpt lat="49.39868" lon="-1.17514">
        <ele>2.8</ele>
        <time>2022-06-02T13:13:21Z</time>
      </trkpt>
      <trkpt lat="49.39868" lon="-1.17514">
        <ele>2.8</ele>
        <time>2022-06-02T13:13:22Z</time>
      </trkpt>
      <trkpt lat="49.39868" lon="-1.17514">
        <ele>2.8</ele>
        <time>2022-06-02T13:13:23Z</time>
      </trkpt>
      <trkpt lat="49.39868" lon="-1.17514">
        <ele>2.8</ele>
        <time>2022-06-02T13:13:24Z</time>
      </trkpt>
      <trkpt lat="49.39868" lon="-1.17514">
        <ele>2.8</ele>
        <time>2022-06-02T13:13:25Z</time>
      </trkpt>
      <trkpt lat="49.39868" lon="-1.17514">
        <ele>2.8</ele>
        <time>2022-06-02T13:13:26Z</time>
      </trkpt>
      <trkpt lat="49.39868" lon="-1.17514">
        <ele>2.8</ele>
        <time>2022-06-02T13:13:27Z</time>
      </trkpt>
      <trkpt lat="49.39868" lon="-1.17514">
        <ele>2.8</ele>
        <time>2022-06-02T13:13:28Z</time>
      </trkpt>
      <trkpt lat="49.39868" lon="-1.17514">
        <ele>2.8</ele>
        <time>2022-06-02T13:13:29Z</time>
      </trkpt>
      <trkpt lat="49.39868" lon="-1.17514">
        <ele>2.8</ele>
        <time>2022-06-02T13:13:30Z</time>
      </trkpt>
      <trkpt lat="49.39868" lon="-1.17514">
        <ele>2.8</ele>
        <time>2022-06-02T13:13:31Z</time>
      </trkpt>
      <trkpt lat="49.39868" lon="-1.17514">
        <ele>2.8</ele>
        <time>2022-06-02T13:13:32Z</time>
      </trkpt>
      <trkpt lat="49.39868" lon="-1.17514">
        <ele>2.8</ele>
        <time>2022-06-02T13:13:33Z</time>
      </trkpt>
      <trkpt lat="49.39868" lon="-1.17514">
        <ele>2.8</ele>
        <time>2022-06-02T13:13:34Z</time>
      </trkpt>
      <trkpt lat="49.39868" lon="-1.17514">
        <ele>2.8</ele>
        <time>2022-06-02T13:13:35Z</time>
      </trkpt>
      <trkpt lat="49.39868" lon="-1.17514">
        <ele>2.8</ele>
        <time>2022-06-02T13:13:36Z</time>
      </trkpt>
      <trkpt lat="49.39868" lon="-1.17514">
        <ele>2.8</ele>
        <time>2022-06-02T13:13:37Z</time>
      </trkpt>
      <trkpt lat="49.39868" lon="-1.17514">
        <ele>2.8</ele>
        <time>2022-06-02T13:13:38Z</time>
      </trkpt>
      <trkpt lat="49.39868" lon="-1.17514">
        <ele>2.8</ele>
        <time>2022-06-02T13:13:39Z</time>
      </trkpt>
      <trkpt lat="49.39868" lon="-1.17514">
        <ele>2.8</ele>
        <time>2022-06-02T13:13:40Z</time>
      </trkpt>
      <trkpt lat="49.39868" lon="-1.17514">
        <ele>2.8</ele>
        <time>2022-06-02T13:13:41Z</time>
      </trkpt>
      <trkpt lat="49.39868" lon="-1.17514">
        <ele>2.8</ele>
        <time>2022-06-02T13:13:42Z</time>
      </trkpt>
      <trkpt lat="49.39868" lon="-1.17514">
        <ele>2.8</ele>
        <time>2022-06-02T13:13:43Z</time>
      </trkpt>
      <trkpt lat="49.39868" lon="-1.17514">
        <ele>2.8</ele>
        <time>2022-06-02T13:13:44Z</time>
      </trkpt>
      <trkpt lat="49.39868" lon="-1.17514">
        <ele>2.8</ele>
        <time>2022-06-02T13:13:45Z</time>
      </trkpt>
      <trkpt lat="49.39868" lon="-1.17514">
        <ele>2.8</ele>
        <time>2022-06-02T13:13:46Z</time>
      </trkpt>
      <trkpt lat="49.39868" lon="-1.17514">
        <ele>2.8</ele>
        <time>2022-06-02T13:13:47Z</time>
      </trkpt>
      <trkpt lat="49.39868" lon="-1.17514">
        <ele>2.8</ele>
        <time>2022-06-02T13:13:48Z</time>
      </trkpt>
      <trkpt lat="49.39868" lon="-1.17514">
        <ele>2.8</ele>
        <time>2022-06-02T13:13:49Z</time>
      </trkpt>
      <trkpt lat="49.39868" lon="-1.17514">
        <ele>2.8</ele>
        <time>2022-06-02T13:13:50Z</time>
      </trkpt>
      <trkpt lat="49.39869" lon="-1.17513">
        <ele>2.8</ele>
        <time>2022-06-02T13:13:51Z</time>
      </trkpt>
      <trkpt lat="49.39869" lon="-1.17512">
        <ele>2.8</ele>
        <time>2022-06-02T13:13:52Z</time>
      </trkpt>
      <trkpt lat="49.39869" lon="-1.17512">
        <ele>2.8</ele>
        <time>2022-06-02T13:13:53Z</time>
      </trkpt>
      <trkpt lat="49.39869" lon="-1.17512">
        <ele>2.8</ele>
        <time>2022-06-02T13:13:54Z</time>
      </trkpt>
      <trkpt lat="49.39869" lon="-1.17512">
        <ele>2.8</ele>
        <time>2022-06-02T13:13:55Z</time>
      </trkpt>
      <trkpt lat="49.39869" lon="-1.17511">
        <ele>2.8</ele>
        <time>2022-06-02T13:13:56Z</time>
      </trkpt>
      <trkpt lat="49.39869" lon="-1.17511">
        <ele>2.8</ele>
        <time>2022-06-02T13:13:57Z</time>
      </trkpt>
      <trkpt lat="49.39869" lon="-1.1751">
        <ele>2.8</ele>
        <time>2022-06-02T13:13:58Z</time>
      </trkpt>
      <trkpt lat="49.39869" lon="-1.17511">
        <ele>2.8</ele>
        <time>2022-06-02T13:13:59Z</time>
      </trkpt>
      <trkpt lat="49.3987" lon="-1.17511">
        <ele>2.8</ele>
        <time>2022-06-02T13:14:00Z</time>
      </trkpt>
      <trkpt lat="49.3987" lon="-1.17512">
        <ele>2.8</ele>
        <time>2022-06-02T13:14:01Z</time>
      </trkpt>
      <trkpt lat="49.3987" lon="-1.17512">
        <ele>2.8</ele>
        <time>2022-06-02T13:14:02Z</time>
      </trkpt>
      <trkpt lat="49.3987" lon="-1.17512">
        <ele>2.8</ele>
        <time>2022-06-02T13:14:03Z</time>
      </trkpt>
      <trkpt lat="49.3987" lon="-1.17512">
        <ele>2.8</ele>
        <time>2022-06-02T13:14:04Z</time>
      </trkpt>
      <trkpt lat="49.3987" lon="-1.17511">
        <ele>2.8</ele>
        <time>2022-06-02T13:14:06Z</time>
      </trkpt>
      <trkpt lat="49.3987" lon="-1.17511">
        <ele>2.8</ele>
        <time>2022-06-02T13:14:07Z</time>
      </trkpt>
      <trkpt lat="49.3987" lon="-1.17511">
        <ele>2.8</ele>
        <time>2022-06-02T13:14:08Z</time>
      </trkpt>
      <trkpt lat="49.3987" lon="-1.17511">
        <ele>2.8</ele>
        <time>2022-06-02T13:14:09Z</time>
      </trkpt>
      <trkpt lat="49.3987" lon="-1.17511">
        <ele>2.8</ele>
        <time>2022-06-02T13:14:11Z</time>
      </trkpt>
      <trkpt lat="49.3987" lon="-1.17511">
        <ele>2.8</ele>
        <time>2022-06-02T13:14:12Z</time>
      </trkpt>
      <trkpt lat="49.3987" lon="-1.17511">
        <ele>2.8</ele>
        <time>2022-06-02T13:14:13Z</time>
      </trkpt>
      <trkpt lat="49.3987" lon="-1.17511">
        <ele>2.8</ele>
        <time>2022-06-02T13:14:14Z</time>
      </trkpt>
      <trkpt lat="49.3987" lon="-1.17511">
        <ele>2.8</ele>
        <time>2022-06-02T13:14:15Z</time>
      </trkpt>
      <trkpt lat="49.3987" lon="-1.17511">
        <ele>2.8</ele>
        <time>2022-06-02T13:14:16Z</time>
      </trkpt>
      <trkpt lat="49.3987" lon="-1.17511">
        <ele>2.8</ele>
        <time>2022-06-02T13:14:17Z</time>
      </trkpt>
      <trkpt lat="49.3987" lon="-1.17511">
        <ele>2.8</ele>
        <time>2022-06-02T13:14:18Z</time>
      </trkpt>
      <trkpt lat="49.3987" lon="-1.17511">
        <ele>2.8</ele>
        <time>2022-06-02T13:14:19Z</time>
      </trkpt>
      <trkpt lat="49.3987" lon="-1.17511">
        <ele>2.8</ele>
        <time>2022-06-02T13:14:20Z</time>
      </trkpt>
      <trkpt lat="49.3987" lon="-1.17511">
        <ele>2.8</ele>
        <time>2022-06-02T13:14:21Z</time>
      </trkpt>
      <trkpt lat="49.3987" lon="-1.17511">
        <ele>2.8</ele>
        <time>2022-06-02T13:14:22Z</time>
      </trkpt>
      <trkpt lat="49.3987" lon="-1.17511">
        <ele>2.8</ele>
        <time>2022-06-02T13:14:23Z</time>
      </trkpt>
      <trkpt lat="49.3987" lon="-1.17511">
        <ele>2.8</ele>
        <time>2022-06-02T13:14:24Z</time>
      </trkpt>
      <trkpt lat="49.3987" lon="-1.17511">
        <ele>2.8</ele>
        <time>2022-06-02T13:14:25Z</time>
      </trkpt>
      <trkpt lat="49.3987" lon="-1.17511">
        <ele>2.8</ele>
        <time>2022-06-02T13:14:26Z</time>
      </trkpt>
      <trkpt lat="49.3987" lon="-1.17511">
        <ele>2.8</ele>
        <time>2022-06-02T13:14:27Z</time>
      </trkpt>
      <trkpt lat="49.3987" lon="-1.17511">
        <ele>2.8</ele>
        <time>2022-06-02T13:14:28Z</time>
      </trkpt>
      <trkpt lat="49.3987" lon="-1.17511">
        <ele>2.8</ele>
        <time>2022-06-02T13:14:29Z</time>
      </trkpt>
      <trkpt lat="49.3987" lon="-1.17511">
        <ele>2.8</ele>
        <time>2022-06-02T13:14:30Z</time>
      </trkpt>
      <trkpt lat="49.3987" lon="-1.17511">
        <ele>2.8</ele>
        <time>2022-06-02T13:14:31Z</time>
      </trkpt>
      <trkpt lat="49.3987" lon="-1.17511">
        <ele>2.8</ele>
        <time>2022-06-02T13:14:32Z</time>
      </trkpt>
      <trkpt lat="49.3987" lon="-1.17511">
        <ele>2.8</ele>
        <time>2022-06-02T13:14:33Z</time>
      </trkpt>
      <trkpt lat="49.3987" lon="-1.17511">
        <ele>2.8</ele>
        <time>2022-06-02T13:14:34Z</time>
      </trkpt>
      <trkpt lat="49.3987" lon="-1.17511">
        <ele>2.8</ele>
        <time>2022-06-02T13:14:35Z</time>
      </trkpt>
      <trkpt lat="49.3987" lon="-1.17511">
        <ele>2.8</ele>
        <time>2022-06-02T13:14:36Z</time>
      </trkpt>
      <trkpt lat="49.3987" lon="-1.17511">
        <ele>2.8</ele>
        <time>2022-06-02T13:14:37Z</time>
      </trkpt>
      <trkpt lat="49.3987" lon="-1.17511">
        <ele>2.8</ele>
        <time>2022-06-02T13:14:38Z</time>
      </trkpt>
      <trkpt lat="49.3987" lon="-1.17511">
        <ele>2.8</ele>
        <time>2022-06-02T13:14:39Z</time>
      </trkpt>
      <trkpt lat="49.3987" lon="-1.17511">
        <ele>2.8</ele>
        <time>2022-06-02T13:14:40Z</time>
      </trkpt>
      <trkpt lat="49.39869" lon="-1.17511">
        <ele>2.8</ele>
        <time>2022-06-02T13:14:41Z</time>
      </trkpt>
      <trkpt lat="49.3987" lon="-1.17511">
        <ele>2.8</ele>
        <time>2022-06-02T13:14:42Z</time>
      </trkpt>
      <trkpt lat="49.3987" lon="-1.17511">
        <ele>2.8</ele>
        <time>2022-06-02T13:14:43Z</time>
      </trkpt>
      <trkpt lat="49.3987" lon="-1.17511">
        <ele>2.8</ele>
        <time>2022-06-02T13:14:44Z</time>
      </trkpt>
      <trkpt lat="49.3987" lon="-1.17511">
        <ele>2.8</ele>
        <time>2022-06-02T13:14:45Z</time>
      </trkpt>
      <trkpt lat="49.3987" lon="-1.17511">
        <ele>2.8</ele>
        <time>2022-06-02T13:14:46Z</time>
      </trkpt>
      <trkpt lat="49.3987" lon="-1.17511">
        <ele>2.8</ele>
        <time>2022-06-02T13:14:47Z</time>
      </trkpt>
      <trkpt lat="49.3987" lon="-1.17511">
        <ele>2.8</ele>
        <time>2022-06-02T13:14:48Z</time>
      </trkpt>
      <trkpt lat="49.3987" lon="-1.17511">
        <ele>2.8</ele>
        <time>2022-06-02T13:14:49Z</time>
      </trkpt>
      <trkpt lat="49.3987" lon="-1.17511">
        <ele>2.8</ele>
        <time>2022-06-02T13:14:50Z</time>
      </trkpt>
      <trkpt lat="49.3987" lon="-1.17511">
        <ele>2.8</ele>
        <time>2022-06-02T13:14:51Z</time>
      </trkpt>
      <trkpt lat="49.3987" lon="-1.17511">
        <ele>2.8</ele>
        <time>2022-06-02T13:14:52Z</time>
      </trkpt>
      <trkpt lat="49.3987" lon="-1.17511">
        <ele>2.8</ele>
        <time>2022-06-02T13:14:53Z</time>
      </trkpt>
      <trkpt lat="49.3987" lon="-1.17511">
        <ele>2.8</ele>
        <time>2022-06-02T13:14:54Z</time>
      </trkpt>
      <trkpt lat="49.3987" lon="-1.17511">
        <ele>2.8</ele>
        <time>2022-06-02T13:14:55Z</time>
      </trkpt>
      <trkpt lat="49.3987" lon="-1.17511">
        <ele>2.8</ele>
        <time>2022-06-02T13:14:56Z</time>
      </trkpt>
      <trkpt lat="49.3987" lon="-1.17511">
        <ele>2.8</ele>
        <time>2022-06-02T13:14:57Z</time>
      </trkpt>
      <trkpt lat="49.3987" lon="-1.17511">
        <ele>2.8</ele>
        <time>2022-06-02T13:14:58Z</time>
      </trkpt>
      <trkpt lat="49.3987" lon="-1.17511">
        <ele>2.8</ele>
        <time>2022-06-02T13:14:59Z</time>
      </trkpt>
      <trkpt lat="49.3987" lon="-1.17511">
        <ele>2.8</ele>
        <time>2022-06-02T13:15:00Z</time>
      </trkpt>
      <trkpt lat="49.3987" lon="-1.17511">
        <ele>2.8</ele>
        <time>2022-06-02T13:15:01Z</time>
      </trkpt>
      <trkpt lat="49.3987" lon="-1.17511">
        <ele>2.8</ele>
        <time>2022-06-02T13:15:02Z</time>
      </trkpt>
      <trkpt lat="49.3987" lon="-1.17511">
        <ele>2.8</ele>
        <time>2022-06-02T13:15:03Z</time>
      </trkpt>
      <trkpt lat="49.3987" lon="-1.17511">
        <ele>2.8</ele>
        <time>2022-06-02T13:15:04Z</time>
      </trkpt>
      <trkpt lat="49.3987" lon="-1.17511">
        <ele>2.8</ele>
        <time>2022-06-02T13:15:05Z</time>
      </trkpt>
      <trkpt lat="49.3987" lon="-1.17511">
        <ele>2.8</ele>
        <time>2022-06-02T13:15:06Z</time>
      </trkpt>
      <trkpt lat="49.3987" lon="-1.17511">
        <ele>2.8</ele>
        <time>2022-06-02T13:15:07Z</time>
      </trkpt>
      <trkpt lat="49.3987" lon="-1.17511">
        <ele>2.8</ele>
        <time>2022-06-02T13:15:08Z</time>
      </trkpt>
      <trkpt lat="49.3987" lon="-1.17511">
        <ele>2.8</ele>
        <time>2022-06-02T13:15:09Z</time>
      </trkpt>
      <trkpt lat="49.3987" lon="-1.17511">
        <ele>2.8</ele>
        <time>2022-06-02T13:15:10Z</time>
      </trkpt>
      <trkpt lat="49.3987" lon="-1.17511">
        <ele>2.8</ele>
        <time>2022-06-02T13:15:11Z</time>
      </trkpt>
      <trkpt lat="49.3987" lon="-1.17511">
        <ele>2.8</ele>
        <time>2022-06-02T13:15:12Z</time>
      </trkpt>
      <trkpt lat="49.3987" lon="-1.17511">
        <ele>2.8</ele>
        <time>2022-06-02T13:15:13Z</time>
      </trkpt>
      <trkpt lat="49.3987" lon="-1.17511">
        <ele>2.8</ele>
        <time>2022-06-02T13:15:14Z</time>
      </trkpt>
      <trkpt lat="49.3987" lon="-1.17511">
        <ele>2.8</ele>
        <time>2022-06-02T13:15:15Z</time>
      </trkpt>
      <trkpt lat="49.3987" lon="-1.17511">
        <ele>2.8</ele>
        <time>2022-06-02T13:15:16Z</time>
      </trkpt>
      <trkpt lat="49.3987" lon="-1.17511">
        <ele>2.8</ele>
        <time>2022-06-02T13:15:17Z</time>
      </trkpt>
      <trkpt lat="49.3987" lon="-1.17511">
        <ele>2.8</ele>
        <time>2022-06-02T13:15:18Z</time>
      </trkpt>
      <trkpt lat="49.3987" lon="-1.17511">
        <ele>2.8</ele>
        <time>2022-06-02T13:15:19Z</time>
      </trkpt>
      <trkpt lat="49.3987" lon="-1.17511">
        <ele>2.8</ele>
        <time>2022-06-02T13:15:20Z</time>
      </trkpt>
      <trkpt lat="49.3987" lon="-1.17511">
        <ele>2.8</ele>
        <time>2022-06-02T13:15:21Z</time>
      </trkpt>
      <trkpt lat="49.3987" lon="-1.17511">
        <ele>2.8</ele>
        <time>2022-06-02T13:15:22Z</time>
      </trkpt>
      <trkpt lat="49.3987" lon="-1.17511">
        <ele>2.8</ele>
        <time>2022-06-02T13:15:23Z</time>
      </trkpt>
      <trkpt lat="49.3987" lon="-1.17511">
        <ele>2.8</ele>
        <time>2022-06-02T13:15:24Z</time>
      </trkpt>
      <trkpt lat="49.3987" lon="-1.17511">
        <ele>2.8</ele>
        <time>2022-06-02T13:15:25Z</time>
      </trkpt>
      <trkpt lat="49.3987" lon="-1.17511">
        <ele>2.8</ele>
        <time>2022-06-02T13:15:26Z</time>
      </trkpt>
      <trkpt lat="49.3987" lon="-1.17511">
        <ele>2.8</ele>
        <time>2022-06-02T13:15:27Z</time>
      </trkpt>
      <trkpt lat="49.3987" lon="-1.17511">
        <ele>2.8</ele>
        <time>2022-06-02T13:15:28Z</time>
      </trkpt>
      <trkpt lat="49.3987" lon="-1.17511">
        <ele>2.8</ele>
        <time>2022-06-02T13:15:29Z</time>
      </trkpt>
      <trkpt lat="49.3987" lon="-1.17511">
        <ele>2.8</ele>
        <time>2022-06-02T13:15:30Z</time>
      </trkpt>
      <trkpt lat="49.3987" lon="-1.17511">
        <ele>2.8</ele>
        <time>2022-06-02T13:15:31Z</time>
      </trkpt>
      <trkpt lat="49.3987" lon="-1.17511">
        <ele>2.8</ele>
        <time>2022-06-02T13:15:32Z</time>
      </trkpt>
      <trkpt lat="49.3987" lon="-1.17511">
        <ele>2.8</ele>
        <time>2022-06-02T13:15:33Z</time>
      </trkpt>
      <trkpt lat="49.3987" lon="-1.17511">
        <ele>2.8</ele>
        <time>2022-06-02T13:15:34Z</time>
      </trkpt>
      <trkpt lat="49.3987" lon="-1.17511">
        <ele>2.8</ele>
        <time>2022-06-02T13:15:35Z</time>
      </trkpt>
      <trkpt lat="49.3987" lon="-1.17511">
        <ele>2.8</ele>
        <time>2022-06-02T13:15:36Z</time>
      </trkpt>
      <trkpt lat="49.3987" lon="-1.17511">
        <ele>2.8</ele>
        <time>2022-06-02T13:15:37Z</time>
      </trkpt>
      <trkpt lat="49.3987" lon="-1.17511">
        <ele>2.8</ele>
        <time>2022-06-02T13:15:38Z</time>
      </trkpt>
      <trkpt lat="49.3987" lon="-1.17511">
        <ele>2.8</ele>
        <time>2022-06-02T13:15:39Z</time>
      </trkpt>
      <trkpt lat="49.3987" lon="-1.17511">
        <ele>2.8</ele>
        <time>2022-06-02T13:15:40Z</time>
      </trkpt>
      <trkpt lat="49.3987" lon="-1.17511">
        <ele>2.8</ele>
        <time>2022-06-02T13:15:41Z</time>
      </trkpt>
      <trkpt lat="49.3987" lon="-1.17511">
        <ele>2.8</ele>
        <time>2022-06-02T13:15:42Z</time>
      </trkpt>
      <trkpt lat="49.3987" lon="-1.17511">
        <ele>2.8</ele>
        <time>2022-06-02T13:15:43Z</time>
      </trkpt>
      <trkpt lat="49.3987" lon="-1.17511">
        <ele>2.8</ele>
        <time>2022-06-02T13:15:44Z</time>
      </trkpt>
      <trkpt lat="49.3987" lon="-1.17511">
        <ele>2.8</ele>
        <time>2022-06-02T13:15:45Z</time>
      </trkpt>
      <trkpt lat="49.3987" lon="-1.17511">
        <ele>2.8</ele>
        <time>2022-06-02T13:15:46Z</time>
      </trkpt>
      <trkpt lat="49.3987" lon="-1.17511">
        <ele>2.8</ele>
        <time>2022-06-02T13:15:47Z</time>
      </trkpt>
      <trkpt lat="49.3987" lon="-1.17511">
        <ele>2.8</ele>
        <time>2022-06-02T13:15:48Z</time>
      </trkpt>
      <trkpt lat="49.39869" lon="-1.17511">
        <ele>2.8</ele>
        <time>2022-06-02T13:15:49Z</time>
      </trkpt>
      <trkpt lat="49.39868" lon="-1.17511">
        <ele>2.8</ele>
        <time>2022-06-02T13:15:50Z</time>
      </trkpt>
      <trkpt lat="49.39867" lon="-1.17511">
        <ele>2.8</ele>
        <time>2022-06-02T13:15:51Z</time>
      </trkpt>
      <trkpt lat="49.39866" lon="-1.17511">
        <ele>2.8</ele>
        <time>2022-06-02T13:15:52Z</time>
      </trkpt>
      <trkpt lat="49.39864" lon="-1.17511">
        <ele>2.8</ele>
        <time>2022-06-02T13:15:53Z</time>
      </trkpt>
      <trkpt lat="49.39863" lon="-1.17511">
        <ele>2.8</ele>
        <time>2022-06-02T13:15:54Z</time>
      </trkpt>
      <trkpt lat="49.39861" lon="-1.17511">
        <ele>2.9</ele>
        <time>2022-06-02T13:15:56Z</time>
      </trkpt>
      <trkpt lat="49.3986" lon="-1.17511">
        <ele>2.9</ele>
        <time>2022-06-02T13:15:57Z</time>
      </trkpt>
      <trkpt lat="49.39859" lon="-1.17511">
        <ele>2.9</ele>
        <time>2022-06-02T13:15:58Z</time>
      </trkpt>
      <trkpt lat="49.39858" lon="-1.17512">
        <ele>2.9</ele>
        <time>2022-06-02T13:15:59Z</time>
      </trkpt>
      <trkpt lat="49.39858" lon="-1.17512">
        <ele>2.9</ele>
        <time>2022-06-02T13:16:00Z</time>
      </trkpt>
      <trkpt lat="49.39857" lon="-1.17512">
        <ele>2.9</ele>
        <time>2022-06-02T13:16:01Z</time>
      </trkpt>
      <trkpt lat="49.39856" lon="-1.17512">
        <ele>2.9</ele>
        <time>2022-06-02T13:16:02Z</time>
      </trkpt>
      <trkpt lat="49.39855" lon="-1.17512">
        <ele>2.9</ele>
        <time>2022-06-02T13:16:03Z</time>
      </trkpt>
      <trkpt lat="49.39854" lon="-1.17512">
        <ele>2.9</ele>
        <time>2022-06-02T13:16:05Z</time>
      </trkpt>
      <trkpt lat="49.39853" lon="-1.17512">
        <ele>2.9</ele>
        <time>2022-06-02T13:16:06Z</time>
      </trkpt>
      <trkpt lat="49.39852" lon="-1.17513">
        <ele>2.9</ele>
        <time>2022-06-02T13:16:07Z</time>
      </trkpt>
      <trkpt lat="49.39852" lon="-1.17513">
        <ele>2.9</ele>
        <time>2022-06-02T13:16:08Z</time>
      </trkpt>
      <trkpt lat="49.39851" lon="-1.17513">
        <ele>2.9</ele>
        <time>2022-06-02T13:16:09Z</time>
      </trkpt>
      <trkpt lat="49.3985" lon="-1.17514">
        <ele>2.9</ele>
        <time>2022-06-02T13:16:10Z</time>
      </trkpt>
      <trkpt lat="49.39848" lon="-1.17514">
        <ele>2.9</ele>
        <time>2022-06-02T13:16:12Z</time>
      </trkpt>
      <trkpt lat="49.39847" lon="-1.17515">
        <ele>2.9</ele>
        <time>2022-06-02T13:16:13Z</time>
      </trkpt>
      <trkpt lat="49.39847" lon="-1.17515">
        <ele>2.9</ele>
        <time>2022-06-02T13:16:14Z</time>
      </trkpt>
      <trkpt lat="49.39846" lon="-1.17515">
        <ele>2.9</ele>
        <time>2022-06-02T13:16:15Z</time>
      </trkpt>
      <trkpt lat="49.39845" lon="-1.17516">
        <ele>2.9</ele>
        <time>2022-06-02T13:16:16Z</time>
      </trkpt>
      <trkpt lat="49.39845" lon="-1.17516">
        <ele>2.9</ele>
        <time>2022-06-02T13:16:17Z</time>
      </trkpt>
      <trkpt lat="49.39844" lon="-1.17517">
        <ele>2.9</ele>
        <time>2022-06-02T13:16:18Z</time>
      </trkpt>
      <trkpt lat="49.39843" lon="-1.17517">
        <ele>2.9</ele>
        <time>2022-06-02T13:16:19Z</time>
      </trkpt>
      <trkpt lat="49.39843" lon="-1.17517">
        <ele>2.9</ele>
        <time>2022-06-02T13:16:20Z</time>
      </trkpt>
      <trkpt lat="49.39842" lon="-1.17517">
        <ele>2.9</ele>
        <time>2022-06-02T13:16:21Z</time>
      </trkpt>
      <trkpt lat="49.39842" lon="-1.17518">
        <ele>2.9</ele>
        <time>2022-06-02T13:16:23Z</time>
      </trkpt>
      <trkpt lat="49.39841" lon="-1.17518">
        <ele>2.9</ele>
        <time>2022-06-02T13:16:24Z</time>
      </trkpt>
      <trkpt lat="49.39839" lon="-1.17518">
        <ele>2.9</ele>
        <time>2022-06-02T13:16:25Z</time>
      </trkpt>
      <trkpt lat="49.39838" lon="-1.17518">
        <ele>2.9</ele>
        <time>2022-06-02T13:16:26Z</time>
      </trkpt>
      <trkpt lat="49.39838" lon="-1.17518">
        <ele>2.9</ele>
        <time>2022-06-02T13:16:27Z</time>
      </trkpt>
      <trkpt lat="49.39836" lon="-1.17518">
        <ele>2.9</ele>
        <time>2022-06-02T13:16:28Z</time>
      </trkpt>
      <trkpt lat="49.39834" lon="-1.17518">
        <ele>2.9</ele>
        <time>2022-06-02T13:16:29Z</time>
      </trkpt>
      <trkpt lat="49.39832" lon="-1.17519">
        <ele>3</ele>
        <time>2022-06-02T13:16:30Z</time>
      </trkpt>
      <trkpt lat="49.3983" lon="-1.17519">
        <ele>3</ele>
        <time>2022-06-02T13:16:31Z</time>
      </trkpt>
      <trkpt lat="49.39827" lon="-1.17521">
        <ele>3</ele>
        <time>2022-06-02T13:16:32Z</time>
      </trkpt>
      <trkpt lat="49.39826" lon="-1.17521">
        <ele>3</ele>
        <time>2022-06-02T13:16:33Z</time>
      </trkpt>
      <trkpt lat="49.39822" lon="-1.17523">
        <ele>3</ele>
        <time>2022-06-02T13:16:34Z</time>
      </trkpt>
      <trkpt lat="49.39821" lon="-1.17523">
        <ele>3</ele>
        <time>2022-06-02T13:16:35Z</time>
      </trkpt>
      <trkpt lat="49.39819" lon="-1.17525">
        <ele>3</ele>
        <time>2022-06-02T13:16:36Z</time>
      </trkpt>
      <trkpt lat="49.39818" lon="-1.17526">
        <ele>3</ele>
        <time>2022-06-02T13:16:37Z</time>
      </trkpt>
      <trkpt lat="49.39816" lon="-1.17527">
        <ele>3</ele>
        <time>2022-06-02T13:16:38Z</time>
      </trkpt>
      <trkpt lat="49.39813" lon="-1.17528">
        <ele>3</ele>
        <time>2022-06-02T13:16:40Z</time>
      </trkpt>
      <trkpt lat="49.39812" lon="-1.17529">
        <ele>3</ele>
        <time>2022-06-02T13:16:41Z</time>
      </trkpt>
      <trkpt lat="49.3981" lon="-1.17529">
        <ele>3</ele>
        <time>2022-06-02T13:16:42Z</time>
      </trkpt>
      <trkpt lat="49.39807" lon="-1.1753">
        <ele>3</ele>
        <time>2022-06-02T13:16:43Z</time>
      </trkpt>
      <trkpt lat="49.39806" lon="-1.17531">
        <ele>3</ele>
        <time>2022-06-02T13:16:44Z</time>
      </trkpt>
      <trkpt lat="49.39803" lon="-1.17532">
        <ele>3</ele>
        <time>2022-06-02T13:16:45Z</time>
      </trkpt>
      <trkpt lat="49.39802" lon="-1.17533">
        <ele>3</ele>
        <time>2022-06-02T13:16:46Z</time>
      </trkpt>
      <trkpt lat="49.398" lon="-1.17534">
        <ele>3</ele>
        <time>2022-06-02T13:16:48Z</time>
      </trkpt>
      <trkpt lat="49.39799" lon="-1.17534">
        <ele>3</ele>
        <time>2022-06-02T13:16:49Z</time>
      </trkpt>
      <trkpt lat="49.39797" lon="-1.17535">
        <ele>3</ele>
        <time>2022-06-02T13:16:50Z</time>
      </trkpt>
      <trkpt lat="49.39797" lon="-1.17535">
        <ele>3</ele>
        <time>2022-06-02T13:16:51Z</time>
      </trkpt>
      <trkpt lat="49.39796" lon="-1.17535">
        <ele>3</ele>
        <time>2022-06-02T13:16:52Z</time>
      </trkpt>
      <trkpt lat="49.39795" lon="-1.17535">
        <ele>3</ele>
        <time>2022-06-02T13:16:53Z</time>
      </trkpt>
      <trkpt lat="49.39794" lon="-1.17536">
        <ele>3</ele>
        <time>2022-06-02T13:16:54Z</time>
      </trkpt>
      <trkpt lat="49.39793" lon="-1.17536">
        <ele>3</ele>
        <time>2022-06-02T13:16:55Z</time>
      </trkpt>
      <trkpt lat="49.39791" lon="-1.17536">
        <ele>3</ele>
        <time>2022-06-02T13:16:56Z</time>
      </trkpt>
      <trkpt lat="49.3979" lon="-1.17537">
        <ele>3</ele>
        <time>2022-06-02T13:16:57Z</time>
      </trkpt>
      <trkpt lat="49.39789" lon="-1.17537">
        <ele>3</ele>
        <time>2022-06-02T13:16:58Z</time>
      </trkpt>
      <trkpt lat="49.39787" lon="-1.17537">
        <ele>3</ele>
        <time>2022-06-02T13:16:59Z</time>
      </trkpt>
      <trkpt lat="49.39785" lon="-1.17537">
        <ele>3</ele>
        <time>2022-06-02T13:17:01Z</time>
      </trkpt>
      <trkpt lat="49.39784" lon="-1.17538">
        <ele>3</ele>
        <time>2022-06-02T13:17:02Z</time>
      </trkpt>
      <trkpt lat="49.39782" lon="-1.17538">
        <ele>3</ele>
        <time>2022-06-02T13:17:03Z</time>
      </trkpt>
      <trkpt lat="49.39781" lon="-1.17539">
        <ele>3</ele>
        <time>2022-06-02T13:17:04Z</time>
      </trkpt>
      <trkpt lat="49.39779" lon="-1.17539">
        <ele>3</ele>
        <time>2022-06-02T13:17:05Z</time>
      </trkpt>
      <trkpt lat="49.39777" lon="-1.17539">
        <ele>3</ele>
        <time>2022-06-02T13:17:06Z</time>
      </trkpt>
      <trkpt lat="49.39776" lon="-1.17539">
        <ele>3</ele>
        <time>2022-06-02T13:17:07Z</time>
      </trkpt>
      <trkpt lat="49.39774" lon="-1.1754">
        <ele>3</ele>
        <time>2022-06-02T13:17:08Z</time>
      </trkpt>
      <trkpt lat="49.39772" lon="-1.1754">
        <ele>3</ele>
        <time>2022-06-02T13:17:10Z</time>
      </trkpt>
      <trkpt lat="49.39771" lon="-1.17541">
        <ele>3</ele>
        <time>2022-06-02T13:17:11Z</time>
      </trkpt>
      <trkpt lat="49.3977" lon="-1.17541">
        <ele>3</ele>
        <time>2022-06-02T13:17:12Z</time>
      </trkpt>
      <trkpt lat="49.39769" lon="-1.17541">
        <ele>3</ele>
        <time>2022-06-02T13:17:13Z</time>
      </trkpt>
      <trkpt lat="49.39767" lon="-1.17541">
        <ele>3</ele>
        <time>2022-06-02T13:17:15Z</time>
      </trkpt>
      <trkpt lat="49.39766" lon="-1.17542">
        <ele>2.9</ele>
        <time>2022-06-02T13:17:16Z</time>
      </trkpt>
      <trkpt lat="49.39764" lon="-1.17542">
        <ele>2.9</ele>
        <time>2022-06-02T13:17:17Z</time>
      </trkpt>
      <trkpt lat="49.39762" lon="-1.17543">
        <ele>2.9</ele>
        <time>2022-06-02T13:17:18Z</time>
      </trkpt>
      <trkpt lat="49.39761" lon="-1.17543">
        <ele>2.9</ele>
        <time>2022-06-02T13:17:19Z</time>
      </trkpt>
      <trkpt lat="49.3976" lon="-1.17543">
        <ele>2.9</ele>
        <time>2022-06-02T13:17:20Z</time>
      </trkpt>
      <trkpt lat="49.39758" lon="-1.17544">
        <ele>2.9</ele>
        <time>2022-06-02T13:17:21Z</time>
      </trkpt>
      <trkpt lat="49.39757" lon="-1.17545">
        <ele>2.9</ele>
        <time>2022-06-02T13:17:22Z</time>
      </trkpt>
      <trkpt lat="49.39756" lon="-1.17545">
        <ele>2.9</ele>
        <time>2022-06-02T13:17:23Z</time>
      </trkpt>
      <trkpt lat="49.39754" lon="-1.17546">
        <ele>2.9</ele>
        <time>2022-06-02T13:17:24Z</time>
      </trkpt>
      <trkpt lat="49.39752" lon="-1.17546">
        <ele>2.9</ele>
        <time>2022-06-02T13:17:26Z</time>
      </trkpt>
      <trkpt lat="49.39751" lon="-1.17547">
        <ele>2.9</ele>
        <time>2022-06-02T13:17:27Z</time>
      </trkpt>
      <trkpt lat="49.3975" lon="-1.17547">
        <ele>2.9</ele>
        <time>2022-06-02T13:17:28Z</time>
      </trkpt>
      <trkpt lat="49.39747" lon="-1.17548">
        <ele>2.9</ele>
        <time>2022-06-02T13:17:29Z</time>
      </trkpt>
      <trkpt lat="49.39746" lon="-1.17548">
        <ele>2.9</ele>
        <time>2022-06-02T13:17:30Z</time>
      </trkpt>
      <trkpt lat="49.39745" lon="-1.17548">
        <ele>2.9</ele>
        <time>2022-06-02T13:17:31Z</time>
      </trkpt>
      <trkpt lat="49.39744" lon="-1.17549">
        <ele>2.9</ele>
        <time>2022-06-02T13:17:32Z</time>
      </trkpt>
      <trkpt lat="49.39743" lon="-1.17549">
        <ele>2.9</ele>
        <time>2022-06-02T13:17:34Z</time>
      </trkpt>
      <trkpt lat="49.39742" lon="-1.17549">
        <ele>2.9</ele>
        <time>2022-06-02T13:17:35Z</time>
      </trkpt>
      <trkpt lat="49.39741" lon="-1.17549">
        <ele>2.9</ele>
        <time>2022-06-02T13:17:36Z</time>
      </trkpt>
      <trkpt lat="49.39739" lon="-1.1755">
        <ele>2.8</ele>
        <time>2022-06-02T13:17:37Z</time>
      </trkpt>
      <trkpt lat="49.39738" lon="-1.1755">
        <ele>2.8</ele>
        <time>2022-06-02T13:17:38Z</time>
      </trkpt>
      <trkpt lat="49.39737" lon="-1.1755">
        <ele>2.8</ele>
        <time>2022-06-02T13:17:39Z</time>
      </trkpt>
      <trkpt lat="49.39735" lon="-1.17551">
        <ele>2.8</ele>
        <time>2022-06-02T13:17:40Z</time>
      </trkpt>
      <trkpt lat="49.39734" lon="-1.17551">
        <ele>2.8</ele>
        <time>2022-06-02T13:17:41Z</time>
      </trkpt>
      <trkpt lat="49.39732" lon="-1.17551">
        <ele>2.8</ele>
        <time>2022-06-02T13:17:42Z</time>
      </trkpt>
      <trkpt lat="49.39731" lon="-1.17551">
        <ele>2.8</ele>
        <time>2022-06-02T13:17:43Z</time>
      </trkpt>
      <trkpt lat="49.3973" lon="-1.17551">
        <ele>2.8</ele>
        <time>2022-06-02T13:17:44Z</time>
      </trkpt>
      <trkpt lat="49.39729" lon="-1.17551">
        <ele>2.8</ele>
        <time>2022-06-02T13:17:45Z</time>
      </trkpt>
      <trkpt lat="49.39728" lon="-1.17551">
        <ele>2.8</ele>
        <time>2022-06-02T13:17:46Z</time>
      </trkpt>
      <trkpt lat="49.39727" lon="-1.17552">
        <ele>2.8</ele>
        <time>2022-06-02T13:17:47Z</time>
      </trkpt>
      <trkpt lat="49.39725" lon="-1.17552">
        <ele>2.8</ele>
        <time>2022-06-02T13:17:49Z</time>
      </trkpt>
      <trkpt lat="49.39723" lon="-1.17553">
        <ele>2.8</ele>
        <time>2022-06-02T13:17:50Z</time>
      </trkpt>
      <trkpt lat="49.39722" lon="-1.17553">
        <ele>2.8</ele>
        <time>2022-06-02T13:17:51Z</time>
      </trkpt>
      <trkpt lat="49.39721" lon="-1.17553">
        <ele>2.8</ele>
        <time>2022-06-02T13:17:52Z</time>
      </trkpt>
      <trkpt lat="49.3972" lon="-1.17554">
        <ele>2.8</ele>
        <time>2022-06-02T13:17:53Z</time>
      </trkpt>
      <trkpt lat="49.39718" lon="-1.17554">
        <ele>2.8</ele>
        <time>2022-06-02T13:17:54Z</time>
      </trkpt>
      <trkpt lat="49.39717" lon="-1.17555">
        <ele>2.8</ele>
        <time>2022-06-02T13:17:55Z</time>
      </trkpt>
      <trkpt lat="49.39716" lon="-1.17555">
        <ele>2.8</ele>
        <time>2022-06-02T13:17:56Z</time>
      </trkpt>
      <trkpt lat="49.39715" lon="-1.17555">
        <ele>2.8</ele>
        <time>2022-06-02T13:17:57Z</time>
      </trkpt>
      <trkpt lat="49.39714" lon="-1.17555">
        <ele>2.8</ele>
        <time>2022-06-02T13:17:58Z</time>
      </trkpt>
      <trkpt lat="49.39712" lon="-1.17556">
        <ele>2.9</ele>
        <time>2022-06-02T13:17:59Z</time>
      </trkpt>
      <trkpt lat="49.3971" lon="-1.17556">
        <ele>2.9</ele>
        <time>2022-06-02T13:18:00Z</time>
      </trkpt>
      <trkpt lat="49.39709" lon="-1.17556">
        <ele>2.9</ele>
        <time>2022-06-02T13:18:02Z</time>
      </trkpt>
      <trkpt lat="49.39708" lon="-1.17555">
        <ele>2.9</ele>
        <time>2022-06-02T13:18:03Z</time>
      </trkpt>
      <trkpt lat="49.39707" lon="-1.17556">
        <ele>2.9</ele>
        <time>2022-06-02T13:18:04Z</time>
      </trkpt>
      <trkpt lat="49.39706" lon="-1.17556">
        <ele>2.9</ele>
        <time>2022-06-02T13:18:05Z</time>
      </trkpt>
      <trkpt lat="49.39704" lon="-1.17556">
        <ele>2.9</ele>
        <time>2022-06-02T13:18:06Z</time>
      </trkpt>
      <trkpt lat="49.39703" lon="-1.17556">
        <ele>2.9</ele>
        <time>2022-06-02T13:18:07Z</time>
      </trkpt>
      <trkpt lat="49.39702" lon="-1.17556">
        <ele>2.9</ele>
        <time>2022-06-02T13:18:08Z</time>
      </trkpt>
      <trkpt lat="49.39701" lon="-1.17557">
        <ele>2.9</ele>
        <time>2022-06-02T13:18:09Z</time>
      </trkpt>
      <trkpt lat="49.397" lon="-1.17557">
        <ele>2.9</ele>
        <time>2022-06-02T13:18:10Z</time>
      </trkpt>
      <trkpt lat="49.39699" lon="-1.17557">
        <ele>2.9</ele>
        <time>2022-06-02T13:18:11Z</time>
      </trkpt>
      <trkpt lat="49.39698" lon="-1.17557">
        <ele>2.9</ele>
        <time>2022-06-02T13:18:13Z</time>
      </trkpt>
      <trkpt lat="49.39697" lon="-1.17557">
        <ele>2.9</ele>
        <time>2022-06-02T13:18:14Z</time>
      </trkpt>
      <trkpt lat="49.39696" lon="-1.17557">
        <ele>2.9</ele>
        <time>2022-06-02T13:18:15Z</time>
      </trkpt>
      <trkpt lat="49.39695" lon="-1.17557">
        <ele>2.9</ele>
        <time>2022-06-02T13:18:16Z</time>
      </trkpt>
      <trkpt lat="49.39695" lon="-1.17557">
        <ele>2.9</ele>
        <time>2022-06-02T13:18:17Z</time>
      </trkpt>
      <trkpt lat="49.39694" lon="-1.17558">
        <ele>2.9</ele>
        <time>2022-06-02T13:18:18Z</time>
      </trkpt>
      <trkpt lat="49.39693" lon="-1.17557">
        <ele>2.9</ele>
        <time>2022-06-02T13:18:19Z</time>
      </trkpt>
      <trkpt lat="49.39692" lon="-1.17557">
        <ele>2.9</ele>
        <time>2022-06-02T13:18:20Z</time>
      </trkpt>
      <trkpt lat="49.3969" lon="-1.17557">
        <ele>2.9</ele>
        <time>2022-06-02T13:18:21Z</time>
      </trkpt>
      <trkpt lat="49.39688" lon="-1.17557">
        <ele>2.9</ele>
        <time>2022-06-02T13:18:23Z</time>
      </trkpt>
      <trkpt lat="49.39687" lon="-1.17557">
        <ele>2.9</ele>
        <time>2022-06-02T13:18:24Z</time>
      </trkpt>
      <trkpt lat="49.39686" lon="-1.17557">
        <ele>2.9</ele>
        <time>2022-06-02T13:18:25Z</time>
      </trkpt>
      <trkpt lat="49.39684" lon="-1.17558">
        <ele>2.9</ele>
        <time>2022-06-02T13:18:26Z</time>
      </trkpt>
      <trkpt lat="49.39683" lon="-1.17558">
        <ele>2.9</ele>
        <time>2022-06-02T13:18:27Z</time>
      </trkpt>
      <trkpt lat="49.39682" lon="-1.17558">
        <ele>2.9</ele>
        <time>2022-06-02T13:18:28Z</time>
      </trkpt>
      <trkpt lat="49.39681" lon="-1.17558">
        <ele>2.9</ele>
        <time>2022-06-02T13:18:29Z</time>
      </trkpt>
      <trkpt lat="49.39679" lon="-1.17559">
        <ele>2.9</ele>
        <time>2022-06-02T13:18:30Z</time>
      </trkpt>
      <trkpt lat="49.39677" lon="-1.17559">
        <ele>2.9</ele>
        <time>2022-06-02T13:18:31Z</time>
      </trkpt>
      <trkpt lat="49.39676" lon="-1.1756">
        <ele>2.9</ele>
        <time>2022-06-02T13:18:32Z</time>
      </trkpt>
      <trkpt lat="49.39673" lon="-1.1756">
        <ele>2.9</ele>
        <time>2022-06-02T13:18:33Z</time>
      </trkpt>
      <trkpt lat="49.39672" lon="-1.1756">
        <ele>2.9</ele>
        <time>2022-06-02T13:18:34Z</time>
      </trkpt>
      <trkpt lat="49.3967" lon="-1.17561">
        <ele>2.9</ele>
        <time>2022-06-02T13:18:35Z</time>
      </trkpt>
      <trkpt lat="49.39668" lon="-1.17561">
        <ele>2.9</ele>
        <time>2022-06-02T13:18:37Z</time>
      </trkpt>
      <trkpt lat="49.39664" lon="-1.17562">
        <ele>2.9</ele>
        <time>2022-06-02T13:18:38Z</time>
      </trkpt>
      <trkpt lat="49.39664" lon="-1.17562">
        <ele>2.9</ele>
        <time>2022-06-02T13:18:39Z</time>
      </trkpt>
      <trkpt lat="49.39662" lon="-1.17563">
        <ele>2.9</ele>
        <time>2022-06-02T13:18:40Z</time>
      </trkpt>
      <trkpt lat="49.3966" lon="-1.17563">
        <ele>2.9</ele>
        <time>2022-06-02T13:18:41Z</time>
      </trkpt>
      <trkpt lat="49.39659" lon="-1.17563">
        <ele>2.9</ele>
        <time>2022-06-02T13:18:42Z</time>
      </trkpt>
      <trkpt lat="49.39656" lon="-1.17564">
        <ele>2.9</ele>
        <time>2022-06-02T13:18:44Z</time>
      </trkpt>
      <trkpt lat="49.39654" lon="-1.17563">
        <ele>2.9</ele>
        <time>2022-06-02T13:18:45Z</time>
      </trkpt>
      <trkpt lat="49.39654" lon="-1.17562">
        <ele>2.9</ele>
        <time>2022-06-02T13:18:46Z</time>
      </trkpt>
      <trkpt lat="49.39653" lon="-1.17561">
        <ele>2.9</ele>
        <time>2022-06-02T13:18:47Z</time>
      </trkpt>
      <trkpt lat="49.39652" lon="-1.17561">
        <ele>2.9</ele>
        <time>2022-06-02T13:18:48Z</time>
      </trkpt>
      <trkpt lat="49.3965" lon="-1.17561">
        <ele>2.9</ele>
        <time>2022-06-02T13:18:49Z</time>
      </trkpt>
      <trkpt lat="49.39649" lon="-1.17561">
        <ele>2.9</ele>
        <time>2022-06-02T13:18:50Z</time>
      </trkpt>
      <trkpt lat="49.39647" lon="-1.17561">
        <ele>2.9</ele>
        <time>2022-06-02T13:18:52Z</time>
      </trkpt>
      <trkpt lat="49.39645" lon="-1.17562">
        <ele>3</ele>
        <time>2022-06-02T13:18:53Z</time>
      </trkpt>
      <trkpt lat="49.39644" lon="-1.17562">
        <ele>3</ele>
        <time>2022-06-02T13:18:54Z</time>
      </trkpt>
      <trkpt lat="49.39643" lon="-1.17562">
        <ele>3</ele>
        <time>2022-06-02T13:18:55Z</time>
      </trkpt>
      <trkpt lat="49.39642" lon="-1.17562">
        <ele>3</ele>
        <time>2022-06-02T13:18:56Z</time>
      </trkpt>
      <trkpt lat="49.39641" lon="-1.17562">
        <ele>3</ele>
        <time>2022-06-02T13:18:57Z</time>
      </trkpt>
      <trkpt lat="49.3964" lon="-1.17563">
        <ele>3</ele>
        <time>2022-06-02T13:18:58Z</time>
      </trkpt>
      <trkpt lat="49.39638" lon="-1.17563">
        <ele>3</ele>
        <time>2022-06-02T13:18:59Z</time>
      </trkpt>
      <trkpt lat="49.39637" lon="-1.17563">
        <ele>3</ele>
        <time>2022-06-02T13:19:00Z</time>
      </trkpt>
      <trkpt lat="49.39635" lon="-1.17564">
        <ele>3</ele>
        <time>2022-06-02T13:19:01Z</time>
      </trkpt>
      <trkpt lat="49.39633" lon="-1.17564">
        <ele>3</ele>
        <time>2022-06-02T13:19:03Z</time>
      </trkpt>
      <trkpt lat="49.39632" lon="-1.17564">
        <ele>3</ele>
        <time>2022-06-02T13:19:04Z</time>
      </trkpt>
      <trkpt lat="49.39631" lon="-1.17565">
        <ele>3</ele>
        <time>2022-06-02T13:19:05Z</time>
      </trkpt>
      <trkpt lat="49.3963" lon="-1.17565">
        <ele>3</ele>
        <time>2022-06-02T13:19:06Z</time>
      </trkpt>
      <trkpt lat="49.39629" lon="-1.17565">
        <ele>3</ele>
        <time>2022-06-02T13:19:07Z</time>
      </trkpt>
      <trkpt lat="49.39627" lon="-1.17566">
        <ele>3.1</ele>
        <time>2022-06-02T13:19:08Z</time>
      </trkpt>
      <trkpt lat="49.39625" lon="-1.17566">
        <ele>3.1</ele>
        <time>2022-06-02T13:19:09Z</time>
      </trkpt>
      <trkpt lat="49.39625" lon="-1.17566">
        <ele>3.1</ele>
        <time>2022-06-02T13:19:10Z</time>
      </trkpt>
      <trkpt lat="49.39624" lon="-1.17566">
        <ele>3.1</ele>
        <time>2022-06-02T13:19:12Z</time>
      </trkpt>
      <trkpt lat="49.39623" lon="-1.17566">
        <ele>3.1</ele>
        <time>2022-06-02T13:19:13Z</time>
      </trkpt>
      <trkpt lat="49.39621" lon="-1.17567">
        <ele>3.1</ele>
        <time>2022-06-02T13:19:14Z</time>
      </trkpt>
      <trkpt lat="49.3962" lon="-1.17567">
        <ele>3.1</ele>
        <time>2022-06-02T13:19:15Z</time>
      </trkpt>
      <trkpt lat="49.39619" lon="-1.17567">
        <ele>3.1</ele>
        <time>2022-06-02T13:19:16Z</time>
      </trkpt>
      <trkpt lat="49.39618" lon="-1.17567">
        <ele>3.1</ele>
        <time>2022-06-02T13:19:17Z</time>
      </trkpt>
      <trkpt lat="49.39617" lon="-1.17567">
        <ele>3.1</ele>
        <time>2022-06-02T13:19:18Z</time>
      </trkpt>
      <trkpt lat="49.39615" lon="-1.17568">
        <ele>3.1</ele>
        <time>2022-06-02T13:19:19Z</time>
      </trkpt>
      <trkpt lat="49.39614" lon="-1.17568">
        <ele>3.1</ele>
        <time>2022-06-02T13:19:20Z</time>
      </trkpt>
      <trkpt lat="49.39613" lon="-1.17569">
        <ele>3.1</ele>
        <time>2022-06-02T13:19:21Z</time>
      </trkpt>
      <trkpt lat="49.39612" lon="-1.17569">
        <ele>3.1</ele>
        <time>2022-06-02T13:19:22Z</time>
      </trkpt>
      <trkpt lat="49.3961" lon="-1.17569">
        <ele>3.1</ele>
        <time>2022-06-02T13:19:24Z</time>
      </trkpt>
      <trkpt lat="49.39609" lon="-1.1757">
        <ele>3.1</ele>
        <time>2022-06-02T13:19:25Z</time>
      </trkpt>
      <trkpt lat="49.39608" lon="-1.1757">
        <ele>3.1</ele>
        <time>2022-06-02T13:19:26Z</time>
      </trkpt>
      <trkpt lat="49.39607" lon="-1.17571">
        <ele>3.1</ele>
        <time>2022-06-02T13:19:27Z</time>
      </trkpt>
      <trkpt lat="49.39606" lon="-1.17571">
        <ele>3.2</ele>
        <time>2022-06-02T13:19:28Z</time>
      </trkpt>
      <trkpt lat="49.39604" lon="-1.17571">
        <ele>3.2</ele>
        <time>2022-06-02T13:19:30Z</time>
      </trkpt>
      <trkpt lat="49.39603" lon="-1.17571">
        <ele>3.2</ele>
        <time>2022-06-02T13:19:31Z</time>
      </trkpt>
      <trkpt lat="49.39601" lon="-1.17571">
        <ele>3.2</ele>
        <time>2022-06-02T13:19:32Z</time>
      </trkpt>
      <trkpt lat="49.396" lon="-1.17572">
        <ele>3.2</ele>
        <time>2022-06-02T13:19:33Z</time>
      </trkpt>
      <trkpt lat="49.39599" lon="-1.17572">
        <ele>3.2</ele>
        <time>2022-06-02T13:19:34Z</time>
      </trkpt>
      <trkpt lat="49.39598" lon="-1.17572">
        <ele>3.2</ele>
        <time>2022-06-02T13:19:35Z</time>
      </trkpt>
      <trkpt lat="49.39597" lon="-1.17573">
        <ele>3.2</ele>
        <time>2022-06-02T13:19:36Z</time>
      </trkpt>
      <trkpt lat="49.39596" lon="-1.17573">
        <ele>3.2</ele>
        <time>2022-06-02T13:19:37Z</time>
      </trkpt>
      <trkpt lat="49.39594" lon="-1.17574">
        <ele>3.2</ele>
        <time>2022-06-02T13:19:38Z</time>
      </trkpt>
      <trkpt lat="49.39593" lon="-1.17574">
        <ele>3.2</ele>
        <time>2022-06-02T13:19:39Z</time>
      </trkpt>
      <trkpt lat="49.39592" lon="-1.17574">
        <ele>3.2</ele>
        <time>2022-06-02T13:19:41Z</time>
      </trkpt>
      <trkpt lat="49.39591" lon="-1.17574">
        <ele>3.2</ele>
        <time>2022-06-02T13:19:42Z</time>
      </trkpt>
      <trkpt lat="49.3959" lon="-1.17574">
        <ele>3.2</ele>
        <time>2022-06-02T13:19:43Z</time>
      </trkpt>
      <trkpt lat="49.39589" lon="-1.17574">
        <ele>3.2</ele>
        <time>2022-06-02T13:19:44Z</time>
      </trkpt>
      <trkpt lat="49.39588" lon="-1.17574">
        <ele>3.2</ele>
        <time>2022-06-02T13:19:45Z</time>
      </trkpt>
      <trkpt lat="49.39588" lon="-1.17575">
        <ele>3.2</ele>
        <time>2022-06-02T13:19:46Z</time>
      </trkpt>
      <trkpt lat="49.39587" lon="-1.17575">
        <ele>3.2</ele>
        <time>2022-06-02T13:19:47Z</time>
      </trkpt>
      <trkpt lat="49.39586" lon="-1.17575">
        <ele>3.2</ele>
        <time>2022-06-02T13:19:48Z</time>
      </trkpt>
      <trkpt lat="49.39584" lon="-1.17575">
        <ele>3.2</ele>
        <time>2022-06-02T13:19:49Z</time>
      </trkpt>
      <trkpt lat="49.39583" lon="-1.17575">
        <ele>3.2</ele>
        <time>2022-06-02T13:19:50Z</time>
      </trkpt>
      <trkpt lat="49.39582" lon="-1.17575">
        <ele>3.2</ele>
        <time>2022-06-02T13:19:51Z</time>
      </trkpt>
      <trkpt lat="49.39581" lon="-1.17576">
        <ele>3.2</ele>
        <time>2022-06-02T13:19:52Z</time>
      </trkpt>
      <trkpt lat="49.3958" lon="-1.17577">
        <ele>3.2</ele>
        <time>2022-06-02T13:19:53Z</time>
      </trkpt>
      <trkpt lat="49.39577" lon="-1.17578">
        <ele>3.2</ele>
        <time>2022-06-02T13:19:54Z</time>
      </trkpt>
      <trkpt lat="49.39576" lon="-1.17578">
        <ele>3.2</ele>
        <time>2022-06-02T13:19:56Z</time>
      </trkpt>
      <trkpt lat="49.39575" lon="-1.17578">
        <ele>3.2</ele>
        <time>2022-06-02T13:19:57Z</time>
      </trkpt>
      <trkpt lat="49.39574" lon="-1.17579">
        <ele>3.2</ele>
        <time>2022-06-02T13:19:58Z</time>
      </trkpt>
      <trkpt lat="49.39573" lon="-1.17579">
        <ele>3.2</ele>
        <time>2022-06-02T13:19:59Z</time>
      </trkpt>
      <trkpt lat="49.39571" lon="-1.1758">
        <ele>3.2</ele>
        <time>2022-06-02T13:20:00Z</time>
      </trkpt>
      <trkpt lat="49.3957" lon="-1.1758">
        <ele>3.2</ele>
        <time>2022-06-02T13:20:02Z</time>
      </trkpt>
      <trkpt lat="49.39569" lon="-1.1758">
        <ele>3.2</ele>
        <time>2022-06-02T13:20:03Z</time>
      </trkpt>
      <trkpt lat="49.39568" lon="-1.1758">
        <ele>3.2</ele>
        <time>2022-06-02T13:20:04Z</time>
      </trkpt>
      <trkpt lat="49.39567" lon="-1.1758">
        <ele>3.2</ele>
        <time>2022-06-02T13:20:05Z</time>
      </trkpt>
      <trkpt lat="49.39564" lon="-1.17581">
        <ele>3.2</ele>
        <time>2022-06-02T13:20:06Z</time>
      </trkpt>
      <trkpt lat="49.39564" lon="-1.17581">
        <ele>3.2</ele>
        <time>2022-06-02T13:20:07Z</time>
      </trkpt>
      <trkpt lat="49.39563" lon="-1.17581">
        <ele>3.2</ele>
        <time>2022-06-02T13:20:08Z</time>
      </trkpt>
      <trkpt lat="49.39561" lon="-1.17581">
        <ele>3.2</ele>
        <time>2022-06-02T13:20:09Z</time>
      </trkpt>
      <trkpt lat="49.3956" lon="-1.17581">
        <ele>3.2</ele>
        <time>2022-06-02T13:20:10Z</time>
      </trkpt>
      <trkpt lat="49.39558" lon="-1.17581">
        <ele>3.2</ele>
        <time>2022-06-02T13:20:11Z</time>
      </trkpt>
      <trkpt lat="49.39555" lon="-1.17582">
        <ele>3.2</ele>
        <time>2022-06-02T13:20:13Z</time>
      </trkpt>
      <trkpt lat="49.39552" lon="-1.17582">
        <ele>3.2</ele>
        <time>2022-06-02T13:20:14Z</time>
      </trkpt>
      <trkpt lat="49.39552" lon="-1.17583">
        <ele>3.2</ele>
        <time>2022-06-02T13:20:15Z</time>
      </trkpt>
      <trkpt lat="49.3955" lon="-1.17583">
        <ele>3.2</ele>
        <time>2022-06-02T13:20:16Z</time>
      </trkpt>
      <trkpt lat="49.39549" lon="-1.17583">
        <ele>3.2</ele>
        <time>2022-06-02T13:20:17Z</time>
      </trkpt>
      <trkpt lat="49.39547" lon="-1.17584">
        <ele>3.2</ele>
        <time>2022-06-02T13:20:18Z</time>
      </trkpt>
      <trkpt lat="49.39545" lon="-1.17584">
        <ele>3.2</ele>
        <time>2022-06-02T13:20:20Z</time>
      </trkpt>
      <trkpt lat="49.39544" lon="-1.17584">
        <ele>3.2</ele>
        <time>2022-06-02T13:20:21Z</time>
      </trkpt>
      <trkpt lat="49.39543" lon="-1.17585">
        <ele>3.2</ele>
        <time>2022-06-02T13:20:22Z</time>
      </trkpt>
      <trkpt lat="49.39542" lon="-1.17585">
        <ele>3.2</ele>
        <time>2022-06-02T13:20:23Z</time>
      </trkpt>
      <trkpt lat="49.39541" lon="-1.17585">
        <ele>3.2</ele>
        <time>2022-06-02T13:20:24Z</time>
      </trkpt>
      <trkpt lat="49.3954" lon="-1.17585">
        <ele>3.2</ele>
        <time>2022-06-02T13:20:25Z</time>
      </trkpt>
      <trkpt lat="49.39539" lon="-1.17586">
        <ele>3.2</ele>
        <time>2022-06-02T13:20:26Z</time>
      </trkpt>
      <trkpt lat="49.39537" lon="-1.17586">
        <ele>3.2</ele>
        <time>2022-06-02T13:20:27Z</time>
      </trkpt>
      <trkpt lat="49.39536" lon="-1.17586">
        <ele>3.2</ele>
        <time>2022-06-02T13:20:29Z</time>
      </trkpt>
      <trkpt lat="49.39535" lon="-1.17586">
        <ele>3.2</ele>
        <time>2022-06-02T13:20:30Z</time>
      </trkpt>
      <trkpt lat="49.39534" lon="-1.17586">
        <ele>3.2</ele>
        <time>2022-06-02T13:20:31Z</time>
      </trkpt>
      <trkpt lat="49.39533" lon="-1.17586">
        <ele>3.2</ele>
        <time>2022-06-02T13:20:32Z</time>
      </trkpt>
      <trkpt lat="49.39531" lon="-1.17586">
        <ele>3.2</ele>
        <time>2022-06-02T13:20:33Z</time>
      </trkpt>
      <trkpt lat="49.3953" lon="-1.17586">
        <ele>3.2</ele>
        <time>2022-06-02T13:20:34Z</time>
      </trkpt>
      <trkpt lat="49.39529" lon="-1.17586">
        <ele>3.2</ele>
        <time>2022-06-02T13:20:35Z</time>
      </trkpt>
      <trkpt lat="49.39528" lon="-1.17587">
        <ele>3.2</ele>
        <time>2022-06-02T13:20:37Z</time>
      </trkpt>
      <trkpt lat="49.39527" lon="-1.17586">
        <ele>3.2</ele>
        <time>2022-06-02T13:20:38Z</time>
      </trkpt>
      <trkpt lat="49.39525" lon="-1.17586">
        <ele>3.2</ele>
        <time>2022-06-02T13:20:39Z</time>
      </trkpt>
      <trkpt lat="49.39524" lon="-1.17586">
        <ele>3.2</ele>
        <time>2022-06-02T13:20:40Z</time>
      </trkpt>
      <trkpt lat="49.39522" lon="-1.17586">
        <ele>3.2</ele>
        <time>2022-06-02T13:20:42Z</time>
      </trkpt>
      <trkpt lat="49.3952" lon="-1.17585">
        <ele>3.2</ele>
        <time>2022-06-02T13:20:43Z</time>
      </trkpt>
      <trkpt lat="49.39518" lon="-1.17585">
        <ele>3.2</ele>
        <time>2022-06-02T13:20:44Z</time>
      </trkpt>
      <trkpt lat="49.39518" lon="-1.17585">
        <ele>3.2</ele>
        <time>2022-06-02T13:20:45Z</time>
      </trkpt>
      <trkpt lat="49.39516" lon="-1.17584">
        <ele>3.2</ele>
        <time>2022-06-02T13:20:46Z</time>
      </trkpt>
      <trkpt lat="49.39515" lon="-1.17584">
        <ele>3.2</ele>
        <time>2022-06-02T13:20:47Z</time>
      </trkpt>
      <trkpt lat="49.39514" lon="-1.17583">
        <ele>3.3</ele>
        <time>2022-06-02T13:20:48Z</time>
      </trkpt>
      <trkpt lat="49.39512" lon="-1.17583">
        <ele>3.3</ele>
        <time>2022-06-02T13:20:49Z</time>
      </trkpt>
      <trkpt lat="49.3951" lon="-1.17582">
        <ele>3.3</ele>
        <time>2022-06-02T13:20:50Z</time>
      </trkpt>
      <trkpt lat="49.39509" lon="-1.17582">
        <ele>3.3</ele>
        <time>2022-06-02T13:20:52Z</time>
      </trkpt>
      <trkpt lat="49.39508" lon="-1.17581">
        <ele>3.3</ele>
        <time>2022-06-02T13:20:53Z</time>
      </trkpt>
      <trkpt lat="49.39506" lon="-1.1758">
        <ele>3.3</ele>
        <time>2022-06-02T13:20:54Z</time>
      </trkpt>
      <trkpt lat="49.39505" lon="-1.1758">
        <ele>3.3</ele>
        <time>2022-06-02T13:20:55Z</time>
      </trkpt>
      <trkpt lat="49.39503" lon="-1.17579">
        <ele>3.3</ele>
        <time>2022-06-02T13:20:56Z</time>
      </trkpt>
      <trkpt lat="49.39502" lon="-1.17578">
        <ele>3.3</ele>
        <time>2022-06-02T13:20:57Z</time>
      </trkpt>
      <trkpt lat="49.39501" lon="-1.17578">
        <ele>3.3</ele>
        <time>2022-06-02T13:20:58Z</time>
      </trkpt>
      <trkpt lat="49.39499" lon="-1.17578">
        <ele>3.3</ele>
        <time>2022-06-02T13:20:59Z</time>
      </trkpt>
      <trkpt lat="49.39498" lon="-1.17578">
        <ele>3.3</ele>
        <time>2022-06-02T13:21:00Z</time>
      </trkpt>
      <trkpt lat="49.39496" lon="-1.17578">
        <ele>3.3</ele>
        <time>2022-06-02T13:21:01Z</time>
      </trkpt>
      <trkpt lat="49.39495" lon="-1.17578">
        <ele>3.3</ele>
        <time>2022-06-02T13:21:02Z</time>
      </trkpt>
      <trkpt lat="49.39494" lon="-1.17578">
        <ele>3.3</ele>
        <time>2022-06-02T13:21:03Z</time>
      </trkpt>
      <trkpt lat="49.39492" lon="-1.17578">
        <ele>3.3</ele>
        <time>2022-06-02T13:21:05Z</time>
      </trkpt>
      <trkpt lat="49.39491" lon="-1.17578">
        <ele>3.3</ele>
        <time>2022-06-02T13:21:06Z</time>
      </trkpt>
      <trkpt lat="49.3949" lon="-1.17577">
        <ele>3.3</ele>
        <time>2022-06-02T13:21:07Z</time>
      </trkpt>
      <trkpt lat="49.39488" lon="-1.17577">
        <ele>3.3</ele>
        <time>2022-06-02T13:21:08Z</time>
      </trkpt>
      <trkpt lat="49.39487" lon="-1.17576">
        <ele>3.3</ele>
        <time>2022-06-02T13:21:09Z</time>
      </trkpt>
      <trkpt lat="49.39485" lon="-1.17576">
        <ele>3.3</ele>
        <time>2022-06-02T13:21:11Z</time>
      </trkpt>
      <trkpt lat="49.39484" lon="-1.17576">
        <ele>3.3</ele>
        <time>2022-06-02T13:21:12Z</time>
      </trkpt>
      <trkpt lat="49.39482" lon="-1.17576">
        <ele>3.3</ele>
        <time>2022-06-02T13:21:13Z</time>
      </trkpt>
      <trkpt lat="49.39479" lon="-1.17577">
        <ele>3.3</ele>
        <time>2022-06-02T13:21:14Z</time>
      </trkpt>
      <trkpt lat="49.39478" lon="-1.17577">
        <ele>3.3</ele>
        <time>2022-06-02T13:21:16Z</time>
      </trkpt>
      <trkpt lat="49.39477" lon="-1.17577">
        <ele>3.3</ele>
        <time>2022-06-02T13:21:17Z</time>
      </trkpt>
      <trkpt lat="49.39476" lon="-1.17577">
        <ele>3.3</ele>
        <time>2022-06-02T13:21:18Z</time>
      </trkpt>
      <trkpt lat="49.39474" lon="-1.17577">
        <ele>3.3</ele>
        <time>2022-06-02T13:21:19Z</time>
      </trkpt>
      <trkpt lat="49.39473" lon="-1.17577">
        <ele>3.3</ele>
        <time>2022-06-02T13:21:20Z</time>
      </trkpt>
      <trkpt lat="49.39472" lon="-1.17577">
        <ele>3.3</ele>
        <time>2022-06-02T13:21:21Z</time>
      </trkpt>
      <trkpt lat="49.39471" lon="-1.17577">
        <ele>3.3</ele>
        <time>2022-06-02T13:21:22Z</time>
      </trkpt>
      <trkpt lat="49.3947" lon="-1.17577">
        <ele>3.3</ele>
        <time>2022-06-02T13:21:24Z</time>
      </trkpt>
      <trkpt lat="49.39468" lon="-1.17577">
        <ele>3.3</ele>
        <time>2022-06-02T13:21:25Z</time>
      </trkpt>
      <trkpt lat="49.39466" lon="-1.17577">
        <ele>3.3</ele>
        <time>2022-06-02T13:21:26Z</time>
      </trkpt>
      <trkpt lat="49.39465" lon="-1.17577">
        <ele>3.3</ele>
        <time>2022-06-02T13:21:27Z</time>
      </trkpt>
      <trkpt lat="49.39464" lon="-1.17578">
        <ele>3.3</ele>
        <time>2022-06-02T13:21:28Z</time>
      </trkpt>
      <trkpt lat="49.39462" lon="-1.17578">
        <ele>3.3</ele>
        <time>2022-06-02T13:21:29Z</time>
      </trkpt>
      <trkpt lat="49.39462" lon="-1.17578">
        <ele>3.3</ele>
        <time>2022-06-02T13:21:30Z</time>
      </trkpt>
      <trkpt lat="49.3946" lon="-1.17578">
        <ele>3.3</ele>
        <time>2022-06-02T13:21:31Z</time>
      </trkpt>
      <trkpt lat="49.39459" lon="-1.17578">
        <ele>3.3</ele>
        <time>2022-06-02T13:21:32Z</time>
      </trkpt>
      <trkpt lat="49.39457" lon="-1.17578">
        <ele>3.3</ele>
        <time>2022-06-02T13:21:33Z</time>
      </trkpt>
      <trkpt lat="49.39455" lon="-1.17578">
        <ele>3.3</ele>
        <time>2022-06-02T13:21:34Z</time>
      </trkpt>
      <trkpt lat="49.39455" lon="-1.17578">
        <ele>3.3</ele>
        <time>2022-06-02T13:21:35Z</time>
      </trkpt>
      <trkpt lat="49.39454" lon="-1.17578">
        <ele>3.3</ele>
        <time>2022-06-02T13:21:36Z</time>
      </trkpt>
      <trkpt lat="49.39452" lon="-1.17579">
        <ele>3.3</ele>
        <time>2022-06-02T13:21:38Z</time>
      </trkpt>
      <trkpt lat="49.39451" lon="-1.17579">
        <ele>3.3</ele>
        <time>2022-06-02T13:21:39Z</time>
      </trkpt>
      <trkpt lat="49.3945" lon="-1.1758">
        <ele>3.3</ele>
        <time>2022-06-02T13:21:40Z</time>
      </trkpt>
      <trkpt lat="49.39448" lon="-1.1758">
        <ele>3.3</ele>
        <time>2022-06-02T13:21:41Z</time>
      </trkpt>
      <trkpt lat="49.39447" lon="-1.1758">
        <ele>3.3</ele>
        <time>2022-06-02T13:21:42Z</time>
      </trkpt>
      <trkpt lat="49.39446" lon="-1.1758">
        <ele>3.3</ele>
        <time>2022-06-02T13:21:43Z</time>
      </trkpt>
      <trkpt lat="49.39444" lon="-1.17581">
        <ele>3.3</ele>
        <time>2022-06-02T13:21:44Z</time>
      </trkpt>
      <trkpt lat="49.39442" lon="-1.17581">
        <ele>3.3</ele>
        <time>2022-06-02T13:21:46Z</time>
      </trkpt>
      <trkpt lat="49.3944" lon="-1.17581">
        <ele>3.3</ele>
        <time>2022-06-02T13:21:47Z</time>
      </trkpt>
      <trkpt lat="49.39439" lon="-1.17581">
        <ele>3.3</ele>
        <time>2022-06-02T13:21:48Z</time>
      </trkpt>
      <trkpt lat="49.39438" lon="-1.17581">
        <ele>3.3</ele>
        <time>2022-06-02T13:21:49Z</time>
      </trkpt>
      <trkpt lat="49.39437" lon="-1.17581">
        <ele>3.3</ele>
        <time>2022-06-02T13:21:50Z</time>
      </trkpt>
      <trkpt lat="49.39436" lon="-1.17581">
        <ele>3.3</ele>
        <time>2022-06-02T13:21:51Z</time>
      </trkpt>
      <trkpt lat="49.39435" lon="-1.17581">
        <ele>3.3</ele>
        <time>2022-06-02T13:21:52Z</time>
      </trkpt>
      <trkpt lat="49.39433" lon="-1.1758">
        <ele>3.4</ele>
        <time>2022-06-02T13:21:54Z</time>
      </trkpt>
      <trkpt lat="49.39432" lon="-1.1758">
        <ele>3.4</ele>
        <time>2022-06-02T13:21:55Z</time>
      </trkpt>
      <trkpt lat="49.39431" lon="-1.1758">
        <ele>3.4</ele>
        <time>2022-06-02T13:21:56Z</time>
      </trkpt>
      <trkpt lat="49.3943" lon="-1.1758">
        <ele>3.4</ele>
        <time>2022-06-02T13:21:57Z</time>
      </trkpt>
      <trkpt lat="49.39429" lon="-1.1758">
        <ele>3.4</ele>
        <time>2022-06-02T13:21:58Z</time>
      </trkpt>
      <trkpt lat="49.39428" lon="-1.1758">
        <ele>3.4</ele>
        <time>2022-06-02T13:21:59Z</time>
      </trkpt>
      <trkpt lat="49.39427" lon="-1.17579">
        <ele>3.4</ele>
        <time>2022-06-02T13:22:00Z</time>
      </trkpt>
      <trkpt lat="49.39426" lon="-1.17579">
        <ele>3.4</ele>
        <time>2022-06-02T13:22:01Z</time>
      </trkpt>
      <trkpt lat="49.39425" lon="-1.17579">
        <ele>3.4</ele>
        <time>2022-06-02T13:22:02Z</time>
      </trkpt>
      <trkpt lat="49.39424" lon="-1.17579">
        <ele>3.4</ele>
        <time>2022-06-02T13:22:03Z</time>
      </trkpt>
      <trkpt lat="49.39422" lon="-1.17579">
        <ele>3.4</ele>
        <time>2022-06-02T13:22:04Z</time>
      </trkpt>
      <trkpt lat="49.39421" lon="-1.17579">
        <ele>3.4</ele>
        <time>2022-06-02T13:22:06Z</time>
      </trkpt>
      <trkpt lat="49.3942" lon="-1.17579">
        <ele>3.4</ele>
        <time>2022-06-02T13:22:07Z</time>
      </trkpt>
      <trkpt lat="49.39419" lon="-1.17579">
        <ele>3.4</ele>
        <time>2022-06-02T13:22:08Z</time>
      </trkpt>
      <trkpt lat="49.39418" lon="-1.17579">
        <ele>3.4</ele>
        <time>2022-06-02T13:22:09Z</time>
      </trkpt>
      <trkpt lat="49.39416" lon="-1.17578">
        <ele>3.4</ele>
        <time>2022-06-02T13:22:10Z</time>
      </trkpt>
      <trkpt lat="49.39414" lon="-1.17578">
        <ele>3.4</ele>
        <time>2022-06-02T13:22:11Z</time>
      </trkpt>
      <trkpt lat="49.39413" lon="-1.17578">
        <ele>3.4</ele>
        <time>2022-06-02T13:22:12Z</time>
      </trkpt>
      <trkpt lat="49.39412" lon="-1.17578">
        <ele>3.4</ele>
        <time>2022-06-02T13:22:13Z</time>
      </trkpt>
      <trkpt lat="49.3941" lon="-1.17578">
        <ele>3.4</ele>
        <time>2022-06-02T13:22:14Z</time>
      </trkpt>
      <trkpt lat="49.39409" lon="-1.17578">
        <ele>3.4</ele>
        <time>2022-06-02T13:22:16Z</time>
      </trkpt>
      <trkpt lat="49.39407" lon="-1.17578">
        <ele>3.4</ele>
        <time>2022-06-02T13:22:17Z</time>
      </trkpt>
      <trkpt lat="49.39406" lon="-1.17578">
        <ele>3.4</ele>
        <time>2022-06-02T13:22:18Z</time>
      </trkpt>
      <trkpt lat="49.39404" lon="-1.17578">
        <ele>3.4</ele>
        <time>2022-06-02T13:22:20Z</time>
      </trkpt>
      <trkpt lat="49.39402" lon="-1.17578">
        <ele>3.4</ele>
        <time>2022-06-02T13:22:21Z</time>
      </trkpt>
      <trkpt lat="49.39402" lon="-1.17578">
        <ele>3.4</ele>
        <time>2022-06-02T13:22:22Z</time>
      </trkpt>
      <trkpt lat="49.39401" lon="-1.17579">
        <ele>3.4</ele>
        <time>2022-06-02T13:22:23Z</time>
      </trkpt>
      <trkpt lat="49.39399" lon="-1.17579">
        <ele>3.4</ele>
        <time>2022-06-02T13:22:24Z</time>
      </trkpt>
      <trkpt lat="49.39397" lon="-1.17578">
        <ele>3.4</ele>
        <time>2022-06-02T13:22:25Z</time>
      </trkpt>
      <trkpt lat="49.39396" lon="-1.17579">
        <ele>3.4</ele>
        <time>2022-06-02T13:22:27Z</time>
      </trkpt>
      <trkpt lat="49.39394" lon="-1.17579">
        <ele>3.4</ele>
        <time>2022-06-02T13:22:28Z</time>
      </trkpt>
      <trkpt lat="49.39393" lon="-1.17579">
        <ele>3.4</ele>
        <time>2022-06-02T13:22:29Z</time>
      </trkpt>
      <trkpt lat="49.39391" lon="-1.17579">
        <ele>3.4</ele>
        <time>2022-06-02T13:22:30Z</time>
      </trkpt>
      <trkpt lat="49.39389" lon="-1.17579">
        <ele>3.4</ele>
        <time>2022-06-02T13:22:31Z</time>
      </trkpt>
      <trkpt lat="49.39388" lon="-1.17579">
        <ele>3.4</ele>
        <time>2022-06-02T13:22:32Z</time>
      </trkpt>
      <trkpt lat="49.39387" lon="-1.17579">
        <ele>3.4</ele>
        <time>2022-06-02T13:22:33Z</time>
      </trkpt>
      <trkpt lat="49.39386" lon="-1.17579">
        <ele>3.4</ele>
        <time>2022-06-02T13:22:34Z</time>
      </trkpt>
      <trkpt lat="49.39384" lon="-1.17579">
        <ele>3.4</ele>
        <time>2022-06-02T13:22:35Z</time>
      </trkpt>
      <trkpt lat="49.39382" lon="-1.1758">
        <ele>3.4</ele>
        <time>2022-06-02T13:22:36Z</time>
      </trkpt>
      <trkpt lat="49.39381" lon="-1.1758">
        <ele>3.4</ele>
        <time>2022-06-02T13:22:37Z</time>
      </trkpt>
      <trkpt lat="49.3938" lon="-1.1758">
        <ele>3.4</ele>
        <time>2022-06-02T13:22:38Z</time>
      </trkpt>
      <trkpt lat="49.39378" lon="-1.1758">
        <ele>3.4</ele>
        <time>2022-06-02T13:22:39Z</time>
      </trkpt>
      <trkpt lat="49.39377" lon="-1.1758">
        <ele>3.4</ele>
        <time>2022-06-02T13:22:40Z</time>
      </trkpt>
      <trkpt lat="49.39375" lon="-1.1758">
        <ele>3.4</ele>
        <time>2022-06-02T13:22:41Z</time>
      </trkpt>
      <trkpt lat="49.39374" lon="-1.1758">
        <ele>3.4</ele>
        <time>2022-06-02T13:22:43Z</time>
      </trkpt>
      <trkpt lat="49.39373" lon="-1.1758">
        <ele>3.4</ele>
        <time>2022-06-02T13:22:44Z</time>
      </trkpt>
      <trkpt lat="49.39371" lon="-1.1758">
        <ele>3.5</ele>
        <time>2022-06-02T13:22:45Z</time>
      </trkpt>
      <trkpt lat="49.3937" lon="-1.1758">
        <ele>3.5</ele>
        <time>2022-06-02T13:22:46Z</time>
      </trkpt>
      <trkpt lat="49.39368" lon="-1.1758">
        <ele>3.5</ele>
        <time>2022-06-02T13:22:47Z</time>
      </trkpt>
      <trkpt lat="49.39367" lon="-1.1758">
        <ele>3.5</ele>
        <time>2022-06-02T13:22:48Z</time>
      </trkpt>
      <trkpt lat="49.39366" lon="-1.1758">
        <ele>3.5</ele>
        <time>2022-06-02T13:22:49Z</time>
      </trkpt>
      <trkpt lat="49.39364" lon="-1.1758">
        <ele>3.5</ele>
        <time>2022-06-02T13:22:50Z</time>
      </trkpt>
      <trkpt lat="49.39363" lon="-1.1758">
        <ele>3.5</ele>
        <time>2022-06-02T13:22:51Z</time>
      </trkpt>
      <trkpt lat="49.3936" lon="-1.1758">
        <ele>3.5</ele>
        <time>2022-06-02T13:22:52Z</time>
      </trkpt>
      <trkpt lat="49.39359" lon="-1.17581">
        <ele>3.5</ele>
        <time>2022-06-02T13:22:54Z</time>
      </trkpt>
      <trkpt lat="49.39358" lon="-1.17581">
        <ele>3.5</ele>
        <time>2022-06-02T13:22:55Z</time>
      </trkpt>
      <trkpt lat="49.39357" lon="-1.17581">
        <ele>3.5</ele>
        <time>2022-06-02T13:22:56Z</time>
      </trkpt>
      <trkpt lat="49.39356" lon="-1.17581">
        <ele>3.5</ele>
        <time>2022-06-02T13:22:57Z</time>
      </trkpt>
      <trkpt lat="49.39354" lon="-1.17581">
        <ele>3.5</ele>
        <time>2022-06-02T13:22:59Z</time>
      </trkpt>
      <trkpt lat="49.39352" lon="-1.17582">
        <ele>3.5</ele>
        <time>2022-06-02T13:23:00Z</time>
      </trkpt>
      <trkpt lat="49.39351" lon="-1.17582">
        <ele>3.5</ele>
        <time>2022-06-02T13:23:01Z</time>
      </trkpt>
      <trkpt lat="49.3935" lon="-1.17582">
        <ele>3.5</ele>
        <time>2022-06-02T13:23:02Z</time>
      </trkpt>
      <trkpt lat="49.39349" lon="-1.17581">
        <ele>3.5</ele>
        <time>2022-06-02T13:23:03Z</time>
      </trkpt>
      <trkpt lat="49.39347" lon="-1.17581">
        <ele>3.5</ele>
        <time>2022-06-02T13:23:04Z</time>
      </trkpt>
      <trkpt lat="49.39346" lon="-1.1758">
        <ele>3.5</ele>
        <time>2022-06-02T13:23:05Z</time>
      </trkpt>
      <trkpt lat="49.39344" lon="-1.17579">
        <ele>3.5</ele>
        <time>2022-06-02T13:23:06Z</time>
      </trkpt>
      <trkpt lat="49.39343" lon="-1.17579">
        <ele>3.6</ele>
        <time>2022-06-02T13:23:07Z</time>
      </trkpt>
      <trkpt lat="49.39342" lon="-1.17579">
        <ele>3.6</ele>
        <time>2022-06-02T13:23:08Z</time>
      </trkpt>
      <trkpt lat="49.3934" lon="-1.17579">
        <ele>3.6</ele>
        <time>2022-06-02T13:23:09Z</time>
      </trkpt>
      <trkpt lat="49.39339" lon="-1.17579">
        <ele>3.6</ele>
        <time>2022-06-02T13:23:10Z</time>
      </trkpt>
      <trkpt lat="49.39338" lon="-1.17579">
        <ele>3.6</ele>
        <time>2022-06-02T13:23:11Z</time>
      </trkpt>
      <trkpt lat="49.39337" lon="-1.17579">
        <ele>3.6</ele>
        <time>2022-06-02T13:23:12Z</time>
      </trkpt>
      <trkpt lat="49.39336" lon="-1.17579">
        <ele>3.6</ele>
        <time>2022-06-02T13:23:14Z</time>
      </trkpt>
      <trkpt lat="49.39334" lon="-1.17578">
        <ele>3.6</ele>
        <time>2022-06-02T13:23:15Z</time>
      </trkpt>
      <trkpt lat="49.39333" lon="-1.17578">
        <ele>3.6</ele>
        <time>2022-06-02T13:23:16Z</time>
      </trkpt>
      <trkpt lat="49.39332" lon="-1.17578">
        <ele>3.6</ele>
        <time>2022-06-02T13:23:17Z</time>
      </trkpt>
      <trkpt lat="49.3933" lon="-1.17578">
        <ele>3.6</ele>
        <time>2022-06-02T13:23:18Z</time>
      </trkpt>
      <trkpt lat="49.39329" lon="-1.17578">
        <ele>3.6</ele>
        <time>2022-06-02T13:23:19Z</time>
      </trkpt>
      <trkpt lat="49.39328" lon="-1.17578">
        <ele>3.6</ele>
        <time>2022-06-02T13:23:20Z</time>
      </trkpt>
      <trkpt lat="49.39327" lon="-1.17578">
        <ele>3.6</ele>
        <time>2022-06-02T13:23:21Z</time>
      </trkpt>
      <trkpt lat="49.39326" lon="-1.17577">
        <ele>3.6</ele>
        <time>2022-06-02T13:23:22Z</time>
      </trkpt>
      <trkpt lat="49.39324" lon="-1.17577">
        <ele>3.6</ele>
        <time>2022-06-02T13:23:23Z</time>
      </trkpt>
      <trkpt lat="49.39323" lon="-1.17577">
        <ele>3.6</ele>
        <time>2022-06-02T13:23:24Z</time>
      </trkpt>
      <trkpt lat="49.39322" lon="-1.17577">
        <ele>3.6</ele>
        <time>2022-06-02T13:23:25Z</time>
      </trkpt>
      <trkpt lat="49.39322" lon="-1.17577">
        <ele>3.6</ele>
        <time>2022-06-02T13:23:26Z</time>
      </trkpt>
      <trkpt lat="49.39321" lon="-1.17576">
        <ele>3.6</ele>
        <time>2022-06-02T13:23:27Z</time>
      </trkpt>
      <trkpt lat="49.39319" lon="-1.17576">
        <ele>3.6</ele>
        <time>2022-06-02T13:23:28Z</time>
      </trkpt>
      <trkpt lat="49.39318" lon="-1.17576">
        <ele>3.6</ele>
        <time>2022-06-02T13:23:30Z</time>
      </trkpt>
      <trkpt lat="49.39317" lon="-1.17576">
        <ele>3.6</ele>
        <time>2022-06-02T13:23:31Z</time>
      </trkpt>
      <trkpt lat="49.39316" lon="-1.17576">
        <ele>3.6</ele>
        <time>2022-06-02T13:23:32Z</time>
      </trkpt>
      <trkpt lat="49.39314" lon="-1.17576">
        <ele>3.6</ele>
        <time>2022-06-02T13:23:33Z</time>
      </trkpt>
      <trkpt lat="49.39313" lon="-1.17576">
        <ele>3.6</ele>
        <time>2022-06-02T13:23:34Z</time>
      </trkpt>
      <trkpt lat="49.39312" lon="-1.17576">
        <ele>3.7</ele>
        <time>2022-06-02T13:23:35Z</time>
      </trkpt>
      <trkpt lat="49.39311" lon="-1.17576">
        <ele>3.7</ele>
        <time>2022-06-02T13:23:36Z</time>
      </trkpt>
      <trkpt lat="49.39309" lon="-1.17576">
        <ele>3.7</ele>
        <time>2022-06-02T13:23:37Z</time>
      </trkpt>
      <trkpt lat="49.39308" lon="-1.17576">
        <ele>3.7</ele>
        <time>2022-06-02T13:23:38Z</time>
      </trkpt>
      <trkpt lat="49.39305" lon="-1.17575">
        <ele>3.7</ele>
        <time>2022-06-02T13:23:40Z</time>
      </trkpt>
      <trkpt lat="49.39304" lon="-1.17575">
        <ele>3.7</ele>
        <time>2022-06-02T13:23:41Z</time>
      </trkpt>
      <trkpt lat="49.39303" lon="-1.17575">
        <ele>3.7</ele>
        <time>2022-06-02T13:23:42Z</time>
      </trkpt>
      <trkpt lat="49.39301" lon="-1.17575">
        <ele>3.7</ele>
        <time>2022-06-02T13:23:43Z</time>
      </trkpt>
      <trkpt lat="49.393" lon="-1.17575">
        <ele>3.7</ele>
        <time>2022-06-02T13:23:44Z</time>
      </trkpt>
      <trkpt lat="49.39299" lon="-1.17575">
        <ele>3.7</ele>
        <time>2022-06-02T13:23:45Z</time>
      </trkpt>
      <trkpt lat="49.39298" lon="-1.17575">
        <ele>3.7</ele>
        <time>2022-06-02T13:23:46Z</time>
      </trkpt>
      <trkpt lat="49.39297" lon="-1.17575">
        <ele>3.7</ele>
        <time>2022-06-02T13:23:48Z</time>
      </trkpt>
      <trkpt lat="49.39295" lon="-1.17575">
        <ele>3.7</ele>
        <time>2022-06-02T13:23:49Z</time>
      </trkpt>
      <trkpt lat="49.39293" lon="-1.17575">
        <ele>3.8</ele>
        <time>2022-06-02T13:23:50Z</time>
      </trkpt>
      <trkpt lat="49.39292" lon="-1.17575">
        <ele>3.8</ele>
        <time>2022-06-02T13:23:51Z</time>
      </trkpt>
      <trkpt lat="49.39292" lon="-1.17575">
        <ele>3.8</ele>
        <time>2022-06-02T13:23:52Z</time>
      </trkpt>
      <trkpt lat="49.3929" lon="-1.17575">
        <ele>3.8</ele>
        <time>2022-06-02T13:23:53Z</time>
      </trkpt>
      <trkpt lat="49.39289" lon="-1.17575">
        <ele>3.8</ele>
        <time>2022-06-02T13:23:54Z</time>
      </trkpt>
      <trkpt lat="49.39288" lon="-1.17575">
        <ele>3.8</ele>
        <time>2022-06-02T13:23:55Z</time>
      </trkpt>
      <trkpt lat="49.39286" lon="-1.17576">
        <ele>3.8</ele>
        <time>2022-06-02T13:23:56Z</time>
      </trkpt>
      <trkpt lat="49.39285" lon="-1.17576">
        <ele>3.8</ele>
        <time>2022-06-02T13:23:57Z</time>
      </trkpt>
      <trkpt lat="49.39284" lon="-1.17576">
        <ele>3.8</ele>
        <time>2022-06-02T13:23:58Z</time>
      </trkpt>
      <trkpt lat="49.39283" lon="-1.17576">
        <ele>3.8</ele>
        <time>2022-06-02T13:23:59Z</time>
      </trkpt>
      <trkpt lat="49.39281" lon="-1.17576">
        <ele>3.8</ele>
        <time>2022-06-02T13:24:00Z</time>
      </trkpt>
      <trkpt lat="49.3928" lon="-1.17576">
        <ele>3.8</ele>
        <time>2022-06-02T13:24:01Z</time>
      </trkpt>
      <trkpt lat="49.39279" lon="-1.17576">
        <ele>3.8</ele>
        <time>2022-06-02T13:24:03Z</time>
      </trkpt>
      <trkpt lat="49.39278" lon="-1.17576">
        <ele>3.8</ele>
        <time>2022-06-02T13:24:04Z</time>
      </trkpt>
      <trkpt lat="49.39275" lon="-1.17576">
        <ele>3.8</ele>
        <time>2022-06-02T13:24:05Z</time>
      </trkpt>
      <trkpt lat="49.39274" lon="-1.17576">
        <ele>3.8</ele>
        <time>2022-06-02T13:24:06Z</time>
      </trkpt>
      <trkpt lat="49.39274" lon="-1.17576">
        <ele>3.8</ele>
        <time>2022-06-02T13:24:07Z</time>
      </trkpt>
      <trkpt lat="49.39271" lon="-1.17576">
        <ele>3.8</ele>
        <time>2022-06-02T13:24:08Z</time>
      </trkpt>
      <trkpt lat="49.3927" lon="-1.17576">
        <ele>3.8</ele>
        <time>2022-06-02T13:24:09Z</time>
      </trkpt>
      <trkpt lat="49.39269" lon="-1.17576">
        <ele>3.8</ele>
        <time>2022-06-02T13:24:10Z</time>
      </trkpt>
      <trkpt lat="49.39268" lon="-1.17576">
        <ele>3.8</ele>
        <time>2022-06-02T13:24:11Z</time>
      </trkpt>
      <trkpt lat="49.39267" lon="-1.17576">
        <ele>3.8</ele>
        <time>2022-06-02T13:24:12Z</time>
      </trkpt>
      <trkpt lat="49.39266" lon="-1.17576">
        <ele>3.7</ele>
        <time>2022-06-02T13:24:13Z</time>
      </trkpt>
      <trkpt lat="49.39263" lon="-1.17576">
        <ele>3.7</ele>
        <time>2022-06-02T13:24:15Z</time>
      </trkpt>
      <trkpt lat="49.39262" lon="-1.17576">
        <ele>3.7</ele>
        <time>2022-06-02T13:24:16Z</time>
      </trkpt>
      <trkpt lat="49.3926" lon="-1.17576">
        <ele>3.7</ele>
        <time>2022-06-02T13:24:17Z</time>
      </trkpt>
      <trkpt lat="49.39259" lon="-1.17576">
        <ele>3.7</ele>
        <time>2022-06-02T13:24:18Z</time>
      </trkpt>
      <trkpt lat="49.39258" lon="-1.17576">
        <ele>3.7</ele>
        <time>2022-06-02T13:24:19Z</time>
      </trkpt>
      <trkpt lat="49.39256" lon="-1.17576">
        <ele>3.7</ele>
        <time>2022-06-02T13:24:21Z</time>
      </trkpt>
      <trkpt lat="49.39255" lon="-1.17576">
        <ele>3.7</ele>
        <time>2022-06-02T13:24:22Z</time>
      </trkpt>
      <trkpt lat="49.39254" lon="-1.17576">
        <ele>3.7</ele>
        <time>2022-06-02T13:24:23Z</time>
      </trkpt>
      <trkpt lat="49.39253" lon="-1.17576">
        <ele>3.7</ele>
        <time>2022-06-02T13:24:24Z</time>
      </trkpt>
      <trkpt lat="49.39251" lon="-1.17576">
        <ele>3.7</ele>
        <time>2022-06-02T13:24:25Z</time>
      </trkpt>
      <trkpt lat="49.39251" lon="-1.17576">
        <ele>3.7</ele>
        <time>2022-06-02T13:24:26Z</time>
      </trkpt>
      <trkpt lat="49.3925" lon="-1.17576">
        <ele>3.7</ele>
        <time>2022-06-02T13:24:27Z</time>
      </trkpt>
      <trkpt lat="49.39248" lon="-1.17576">
        <ele>3.7</ele>
        <time>2022-06-02T13:24:28Z</time>
      </trkpt>
      <trkpt lat="49.39247" lon="-1.17576">
        <ele>3.7</ele>
        <time>2022-06-02T13:24:29Z</time>
      </trkpt>
      <trkpt lat="49.39245" lon="-1.17575">
        <ele>3.7</ele>
        <time>2022-06-02T13:24:30Z</time>
      </trkpt>
      <trkpt lat="49.39244" lon="-1.17576">
        <ele>3.7</ele>
        <time>2022-06-02T13:24:31Z</time>
      </trkpt>
      <trkpt lat="49.39243" lon="-1.17576">
        <ele>3.7</ele>
        <time>2022-06-02T13:24:32Z</time>
      </trkpt>
      <trkpt lat="49.39242" lon="-1.17576">
        <ele>3.7</ele>
        <time>2022-06-02T13:24:33Z</time>
      </trkpt>
      <trkpt lat="49.3924" lon="-1.17577">
        <ele>3.7</ele>
        <time>2022-06-02T13:24:35Z</time>
      </trkpt>
      <trkpt lat="49.39239" lon="-1.17577">
        <ele>3.7</ele>
        <time>2022-06-02T13:24:36Z</time>
      </trkpt>
      <trkpt lat="49.39237" lon="-1.17577">
        <ele>3.7</ele>
        <time>2022-06-02T13:24:37Z</time>
      </trkpt>
      <trkpt lat="49.39236" lon="-1.17577">
        <ele>3.7</ele>
        <time>2022-06-02T13:24:38Z</time>
      </trkpt>
      <trkpt lat="49.39235" lon="-1.17577">
        <ele>3.7</ele>
        <time>2022-06-02T13:24:39Z</time>
      </trkpt>
      <trkpt lat="49.39233" lon="-1.17577">
        <ele>3.7</ele>
        <time>2022-06-02T13:24:41Z</time>
      </trkpt>
      <trkpt lat="49.39232" lon="-1.17578">
        <ele>3.7</ele>
        <time>2022-06-02T13:24:42Z</time>
      </trkpt>
      <trkpt lat="49.3923" lon="-1.17579">
        <ele>3.7</ele>
        <time>2022-06-02T13:24:43Z</time>
      </trkpt>
      <trkpt lat="49.39229" lon="-1.17579">
        <ele>3.7</ele>
        <time>2022-06-02T13:24:44Z</time>
      </trkpt>
      <trkpt lat="49.39228" lon="-1.1758">
        <ele>3.7</ele>
        <time>2022-06-02T13:24:45Z</time>
      </trkpt>
      <trkpt lat="49.39227" lon="-1.1758">
        <ele>3.7</ele>
        <time>2022-06-02T13:24:46Z</time>
      </trkpt>
      <trkpt lat="49.39226" lon="-1.1758">
        <ele>3.7</ele>
        <time>2022-06-02T13:24:47Z</time>
      </trkpt>
      <trkpt lat="49.39225" lon="-1.17581">
        <ele>3.7</ele>
        <time>2022-06-02T13:24:48Z</time>
      </trkpt>
      <trkpt lat="49.39224" lon="-1.17581">
        <ele>3.7</ele>
        <time>2022-06-02T13:24:49Z</time>
      </trkpt>
      <trkpt lat="49.39222" lon="-1.17582">
        <ele>3.7</ele>
        <time>2022-06-02T13:24:50Z</time>
      </trkpt>
      <trkpt lat="49.39221" lon="-1.17582">
        <ele>3.6</ele>
        <time>2022-06-02T13:24:51Z</time>
      </trkpt>
      <trkpt lat="49.3922" lon="-1.17582">
        <ele>3.6</ele>
        <time>2022-06-02T13:24:52Z</time>
      </trkpt>
      <trkpt lat="49.39218" lon="-1.17582">
        <ele>3.6</ele>
        <time>2022-06-02T13:24:53Z</time>
      </trkpt>
      <trkpt lat="49.39217" lon="-1.17582">
        <ele>3.6</ele>
        <time>2022-06-02T13:24:54Z</time>
      </trkpt>
      <trkpt lat="49.39216" lon="-1.17582">
        <ele>3.6</ele>
        <time>2022-06-02T13:24:56Z</time>
      </trkpt>
      <trkpt lat="49.39215" lon="-1.17582">
        <ele>3.6</ele>
        <time>2022-06-02T13:24:57Z</time>
      </trkpt>
      <trkpt lat="49.39214" lon="-1.17582">
        <ele>3.6</ele>
        <time>2022-06-02T13:24:58Z</time>
      </trkpt>
      <trkpt lat="49.39213" lon="-1.17582">
        <ele>3.6</ele>
        <time>2022-06-02T13:24:59Z</time>
      </trkpt>
      <trkpt lat="49.39211" lon="-1.17582">
        <ele>3.6</ele>
        <time>2022-06-02T13:25:01Z</time>
      </trkpt>
      <trkpt lat="49.3921" lon="-1.17582">
        <ele>3.6</ele>
        <time>2022-06-02T13:25:02Z</time>
      </trkpt>
      <trkpt lat="49.39209" lon="-1.17582">
        <ele>3.6</ele>
        <time>2022-06-02T13:25:03Z</time>
      </trkpt>
      <trkpt lat="49.39208" lon="-1.17582">
        <ele>3.5</ele>
        <time>2022-06-02T13:25:04Z</time>
      </trkpt>
      <trkpt lat="49.39207" lon="-1.17581">
        <ele>3.5</ele>
        <time>2022-06-02T13:25:05Z</time>
      </trkpt>
      <trkpt lat="49.39207" lon="-1.17581">
        <ele>3.5</ele>
        <time>2022-06-02T13:25:06Z</time>
      </trkpt>
      <trkpt lat="49.39206" lon="-1.17581">
        <ele>3.5</ele>
        <time>2022-06-02T13:25:07Z</time>
      </trkpt>
      <trkpt lat="49.39205" lon="-1.1758">
        <ele>3.5</ele>
        <time>2022-06-02T13:25:08Z</time>
      </trkpt>
      <trkpt lat="49.39204" lon="-1.1758">
        <ele>3.5</ele>
        <time>2022-06-02T13:25:09Z</time>
      </trkpt>
      <trkpt lat="49.39203" lon="-1.1758">
        <ele>3.5</ele>
        <time>2022-06-02T13:25:10Z</time>
      </trkpt>
      <trkpt lat="49.39201" lon="-1.17581">
        <ele>3.5</ele>
        <time>2022-06-02T13:25:11Z</time>
      </trkpt>
      <trkpt lat="49.392" lon="-1.17581">
        <ele>3.4</ele>
        <time>2022-06-02T13:25:12Z</time>
      </trkpt>
      <trkpt lat="49.39199" lon="-1.17581">
        <ele>3.4</ele>
        <time>2022-06-02T13:25:13Z</time>
      </trkpt>
      <trkpt lat="49.39198" lon="-1.17582">
        <ele>3.4</ele>
        <time>2022-06-02T13:25:15Z</time>
      </trkpt>
      <trkpt lat="49.39197" lon="-1.17582">
        <ele>3.4</ele>
        <time>2022-06-02T13:25:16Z</time>
      </trkpt>
      <trkpt lat="49.39196" lon="-1.17582">
        <ele>3.4</ele>
        <time>2022-06-02T13:25:17Z</time>
      </trkpt>
      <trkpt lat="49.39195" lon="-1.17582">
        <ele>3.4</ele>
        <time>2022-06-02T13:25:18Z</time>
      </trkpt>
      <trkpt lat="49.39194" lon="-1.17582">
        <ele>3.4</ele>
        <time>2022-06-02T13:25:19Z</time>
      </trkpt>
      <trkpt lat="49.39192" lon="-1.17582">
        <ele>3.3</ele>
        <time>2022-06-02T13:25:20Z</time>
      </trkpt>
      <trkpt lat="49.39191" lon="-1.17582">
        <ele>3.3</ele>
        <time>2022-06-02T13:25:21Z</time>
      </trkpt>
      <trkpt lat="49.3919" lon="-1.17581">
        <ele>3.3</ele>
        <time>2022-06-02T13:25:22Z</time>
      </trkpt>
      <trkpt lat="49.39189" lon="-1.17581">
        <ele>3.3</ele>
        <time>2022-06-02T13:25:24Z</time>
      </trkpt>
      <trkpt lat="49.39187" lon="-1.17581">
        <ele>3.3</ele>
        <time>2022-06-02T13:25:25Z</time>
      </trkpt>
      <trkpt lat="49.39186" lon="-1.17581">
        <ele>3.3</ele>
        <time>2022-06-02T13:25:26Z</time>
      </trkpt>
      <trkpt lat="49.39185" lon="-1.17581">
        <ele>3.3</ele>
        <time>2022-06-02T13:25:27Z</time>
      </trkpt>
      <trkpt lat="49.39185" lon="-1.1758">
        <ele>3.3</ele>
        <time>2022-06-02T13:25:28Z</time>
      </trkpt>
      <trkpt lat="49.39185" lon="-1.1758">
        <ele>3.3</ele>
        <time>2022-06-02T13:25:29Z</time>
      </trkpt>
      <trkpt lat="49.39185" lon="-1.1758">
        <ele>3.3</ele>
        <time>2022-06-02T13:25:30Z</time>
      </trkpt>
      <trkpt lat="49.39185" lon="-1.17579">
        <ele>3.3</ele>
        <time>2022-06-02T13:25:31Z</time>
      </trkpt>
      <trkpt lat="49.39185" lon="-1.17579">
        <ele>3.2</ele>
        <time>2022-06-02T13:25:32Z</time>
      </trkpt>
      <trkpt lat="49.39185" lon="-1.1758">
        <ele>3.2</ele>
        <time>2022-06-02T13:25:33Z</time>
      </trkpt>
      <trkpt lat="49.39185" lon="-1.1758">
        <ele>3.2</ele>
        <time>2022-06-02T13:25:34Z</time>
      </trkpt>
      <trkpt lat="49.39184" lon="-1.1758">
        <ele>3.2</ele>
        <time>2022-06-02T13:25:35Z</time>
      </trkpt>
      <trkpt lat="49.39184" lon="-1.1758">
        <ele>3.2</ele>
        <time>2022-06-02T13:25:36Z</time>
      </trkpt>
      <trkpt lat="49.39184" lon="-1.17579">
        <ele>3.2</ele>
        <time>2022-06-02T13:25:37Z</time>
      </trkpt>
      <trkpt lat="49.39183" lon="-1.17579">
        <ele>3.2</ele>
        <time>2022-06-02T13:25:39Z</time>
      </trkpt>
      <trkpt lat="49.39183" lon="-1.1758">
        <ele>3.2</ele>
        <time>2022-06-02T13:25:40Z</time>
      </trkpt>
      <trkpt lat="49.39183" lon="-1.1758">
        <ele>3.2</ele>
        <time>2022-06-02T13:25:41Z</time>
      </trkpt>
      <trkpt lat="49.39182" lon="-1.1758">
        <ele>3.2</ele>
        <time>2022-06-02T13:25:42Z</time>
      </trkpt>
      <trkpt lat="49.39181" lon="-1.1758">
        <ele>3.2</ele>
        <time>2022-06-02T13:25:43Z</time>
      </trkpt>
      <trkpt lat="49.3918" lon="-1.1758">
        <ele>3.2</ele>
        <time>2022-06-02T13:25:44Z</time>
      </trkpt>
      <trkpt lat="49.39178" lon="-1.17582">
        <ele>3.2</ele>
        <time>2022-06-02T13:25:45Z</time>
      </trkpt>
      <trkpt lat="49.39177" lon="-1.17582">
        <ele>3.1</ele>
        <time>2022-06-02T13:25:46Z</time>
      </trkpt>
      <trkpt lat="49.39176" lon="-1.17583">
        <ele>3.1</ele>
        <time>2022-06-02T13:25:47Z</time>
      </trkpt>
      <trkpt lat="49.39175" lon="-1.17584">
        <ele>3.1</ele>
        <time>2022-06-02T13:25:48Z</time>
      </trkpt>
      <trkpt lat="49.39173" lon="-1.17584">
        <ele>3.1</ele>
        <time>2022-06-02T13:25:49Z</time>
      </trkpt>
      <trkpt lat="49.3917" lon="-1.17585">
        <ele>3.1</ele>
        <time>2022-06-02T13:25:51Z</time>
      </trkpt>
      <trkpt lat="49.39169" lon="-1.17586">
        <ele>3.1</ele>
        <time>2022-06-02T13:25:52Z</time>
      </trkpt>
      <trkpt lat="49.39167" lon="-1.17587">
        <ele>3.1</ele>
        <time>2022-06-02T13:25:53Z</time>
      </trkpt>
      <trkpt lat="49.39165" lon="-1.17587">
        <ele>3.1</ele>
        <time>2022-06-02T13:25:54Z</time>
      </trkpt>
      <trkpt lat="49.39164" lon="-1.17587">
        <ele>3</ele>
        <time>2022-06-02T13:25:55Z</time>
      </trkpt>
      <trkpt lat="49.39161" lon="-1.17588">
        <ele>3</ele>
        <time>2022-06-02T13:25:57Z</time>
      </trkpt>
      <trkpt lat="49.3916" lon="-1.17588">
        <ele>3</ele>
        <time>2022-06-02T13:25:58Z</time>
      </trkpt>
      <trkpt lat="49.39159" lon="-1.17588">
        <ele>3</ele>
        <time>2022-06-02T13:25:59Z</time>
      </trkpt>
      <trkpt lat="49.39156" lon="-1.17589">
        <ele>3</ele>
        <time>2022-06-02T13:26:00Z</time>
      </trkpt>
      <trkpt lat="49.39156" lon="-1.17589">
        <ele>3</ele>
        <time>2022-06-02T13:26:01Z</time>
      </trkpt>
      <trkpt lat="49.39155" lon="-1.1759">
        <ele>3</ele>
        <time>2022-06-02T13:26:02Z</time>
      </trkpt>
      <trkpt lat="49.39154" lon="-1.1759">
        <ele>3</ele>
        <time>2022-06-02T13:26:03Z</time>
      </trkpt>
      <trkpt lat="49.39152" lon="-1.1759">
        <ele>3</ele>
        <time>2022-06-02T13:26:04Z</time>
      </trkpt>
      <trkpt lat="49.39152" lon="-1.17591">
        <ele>3</ele>
        <time>2022-06-02T13:26:05Z</time>
      </trkpt>
      <trkpt lat="49.39151" lon="-1.17591">
        <ele>3</ele>
        <time>2022-06-02T13:26:06Z</time>
      </trkpt>
      <trkpt lat="49.3915" lon="-1.17592">
        <ele>3</ele>
        <time>2022-06-02T13:26:07Z</time>
      </trkpt>
      <trkpt lat="49.39148" lon="-1.17592">
        <ele>2.9</ele>
        <time>2022-06-02T13:26:08Z</time>
      </trkpt>
      <trkpt lat="49.39147" lon="-1.17593">
        <ele>2.9</ele>
        <time>2022-06-02T13:26:09Z</time>
      </trkpt>
      <trkpt lat="49.39146" lon="-1.17594">
        <ele>2.9</ele>
        <time>2022-06-02T13:26:10Z</time>
      </trkpt>
      <trkpt lat="49.39144" lon="-1.17594">
        <ele>2.9</ele>
        <time>2022-06-02T13:26:12Z</time>
      </trkpt>
      <trkpt lat="49.39144" lon="-1.17595">
        <ele>2.9</ele>
        <time>2022-06-02T13:26:13Z</time>
      </trkpt>
      <trkpt lat="49.39142" lon="-1.17595">
        <ele>2.9</ele>
        <time>2022-06-02T13:26:14Z</time>
      </trkpt>
      <trkpt lat="49.39141" lon="-1.17595">
        <ele>2.9</ele>
        <time>2022-06-02T13:26:15Z</time>
      </trkpt>
      <trkpt lat="49.39139" lon="-1.17596">
        <ele>2.9</ele>
        <time>2022-06-02T13:26:17Z</time>
      </trkpt>
      <trkpt lat="49.39137" lon="-1.17596">
        <ele>2.9</ele>
        <time>2022-06-02T13:26:18Z</time>
      </trkpt>
      <trkpt lat="49.39136" lon="-1.17596">
        <ele>2.9</ele>
        <time>2022-06-02T13:26:19Z</time>
      </trkpt>
      <trkpt lat="49.39133" lon="-1.17598">
        <ele>2.9</ele>
        <time>2022-06-02T13:26:20Z</time>
      </trkpt>
      <trkpt lat="49.39132" lon="-1.17598">
        <ele>2.9</ele>
        <time>2022-06-02T13:26:21Z</time>
      </trkpt>
      <trkpt lat="49.39128" lon="-1.176">
        <ele>2.9</ele>
        <time>2022-06-02T13:26:22Z</time>
      </trkpt>
      <trkpt lat="49.39127" lon="-1.176">
        <ele>2.9</ele>
        <time>2022-06-02T13:26:23Z</time>
      </trkpt>
      <trkpt lat="49.39125" lon="-1.176">
        <ele>2.9</ele>
        <time>2022-06-02T13:26:24Z</time>
      </trkpt>
      <trkpt lat="49.39124" lon="-1.17601">
        <ele>2.9</ele>
        <time>2022-06-02T13:26:25Z</time>
      </trkpt>
      <trkpt lat="49.39122" lon="-1.17601">
        <ele>2.9</ele>
        <time>2022-06-02T13:26:26Z</time>
      </trkpt>
      <trkpt lat="49.39121" lon="-1.17602">
        <ele>2.9</ele>
        <time>2022-06-02T13:26:27Z</time>
      </trkpt>
      <trkpt lat="49.39118" lon="-1.17602">
        <ele>2.9</ele>
        <time>2022-06-02T13:26:28Z</time>
      </trkpt>
      <trkpt lat="49.39117" lon="-1.17602">
        <ele>2.9</ele>
        <time>2022-06-02T13:26:29Z</time>
      </trkpt>
      <trkpt lat="49.39115" lon="-1.17603">
        <ele>2.9</ele>
        <time>2022-06-02T13:26:30Z</time>
      </trkpt>
      <trkpt lat="49.39113" lon="-1.17603">
        <ele>2.9</ele>
        <time>2022-06-02T13:26:32Z</time>
      </trkpt>
      <trkpt lat="49.39111" lon="-1.17605">
        <ele>2.9</ele>
        <time>2022-06-02T13:26:33Z</time>
      </trkpt>
      <trkpt lat="49.3911" lon="-1.17605">
        <ele>3</ele>
        <time>2022-06-02T13:26:34Z</time>
      </trkpt>
      <trkpt lat="49.39109" lon="-1.17605">
        <ele>3</ele>
        <time>2022-06-02T13:26:35Z</time>
      </trkpt>
      <trkpt lat="49.39108" lon="-1.17605">
        <ele>3</ele>
        <time>2022-06-02T13:26:36Z</time>
      </trkpt>
      <trkpt lat="49.39106" lon="-1.17605">
        <ele>3</ele>
        <time>2022-06-02T13:26:37Z</time>
      </trkpt>
      <trkpt lat="49.39104" lon="-1.17605">
        <ele>3</ele>
        <time>2022-06-02T13:26:38Z</time>
      </trkpt>
      <trkpt lat="49.39103" lon="-1.17605">
        <ele>3</ele>
        <time>2022-06-02T13:26:39Z</time>
      </trkpt>
      <trkpt lat="49.39102" lon="-1.17605">
        <ele>3</ele>
        <time>2022-06-02T13:26:40Z</time>
      </trkpt>
      <trkpt lat="49.391" lon="-1.17605">
        <ele>3</ele>
        <time>2022-06-02T13:26:42Z</time>
      </trkpt>
      <trkpt lat="49.39099" lon="-1.17605">
        <ele>3</ele>
        <time>2022-06-02T13:26:43Z</time>
      </trkpt>
      <trkpt lat="49.39097" lon="-1.17605">
        <ele>3</ele>
        <time>2022-06-02T13:26:44Z</time>
      </trkpt>
      <trkpt lat="49.39096" lon="-1.17606">
        <ele>3</ele>
        <time>2022-06-02T13:26:45Z</time>
      </trkpt>
      <trkpt lat="49.39095" lon="-1.17606">
        <ele>3</ele>
        <time>2022-06-02T13:26:46Z</time>
      </trkpt>
      <trkpt lat="49.39094" lon="-1.17606">
        <ele>3</ele>
        <time>2022-06-02T13:26:47Z</time>
      </trkpt>
      <trkpt lat="49.39092" lon="-1.17606">
        <ele>3</ele>
        <time>2022-06-02T13:26:48Z</time>
      </trkpt>
      <trkpt lat="49.39091" lon="-1.17606">
        <ele>3</ele>
        <time>2022-06-02T13:26:50Z</time>
      </trkpt>
      <trkpt lat="49.3909" lon="-1.17606">
        <ele>3</ele>
        <time>2022-06-02T13:26:51Z</time>
      </trkpt>
      <trkpt lat="49.39089" lon="-1.17606">
        <ele>3</ele>
        <time>2022-06-02T13:26:52Z</time>
      </trkpt>
      <trkpt lat="49.39088" lon="-1.17606">
        <ele>3</ele>
        <time>2022-06-02T13:26:53Z</time>
      </trkpt>
      <trkpt lat="49.39086" lon="-1.17606">
        <ele>3</ele>
        <time>2022-06-02T13:26:55Z</time>
      </trkpt>
      <trkpt lat="49.39085" lon="-1.17606">
        <ele>3</ele>
        <time>2022-06-02T13:26:56Z</time>
      </trkpt>
      <trkpt lat="49.39082" lon="-1.17607">
        <ele>3</ele>
        <time>2022-06-02T13:26:57Z</time>
      </trkpt>
      <trkpt lat="49.39081" lon="-1.17607">
        <ele>3</ele>
        <time>2022-06-02T13:26:58Z</time>
      </trkpt>
      <trkpt lat="49.3908" lon="-1.17607">
        <ele>2.9</ele>
        <time>2022-06-02T13:26:59Z</time>
      </trkpt>
      <trkpt lat="49.39078" lon="-1.17607">
        <ele>2.9</ele>
        <time>2022-06-02T13:27:00Z</time>
      </trkpt>
      <trkpt lat="49.39077" lon="-1.17608">
        <ele>2.9</ele>
        <time>2022-06-02T13:27:01Z</time>
      </trkpt>
      <trkpt lat="49.39076" lon="-1.17608">
        <ele>2.9</ele>
        <time>2022-06-02T13:27:02Z</time>
      </trkpt>
      <trkpt lat="49.39074" lon="-1.17608">
        <ele>2.9</ele>
        <time>2022-06-02T13:27:04Z</time>
      </trkpt>
      <trkpt lat="49.39073" lon="-1.17608">
        <ele>2.9</ele>
        <time>2022-06-02T13:27:05Z</time>
      </trkpt>
      <trkpt lat="49.39072" lon="-1.17609">
        <ele>2.9</ele>
        <time>2022-06-02T13:27:06Z</time>
      </trkpt>
      <trkpt lat="49.39071" lon="-1.17609">
        <ele>2.9</ele>
        <time>2022-06-02T13:27:07Z</time>
      </trkpt>
      <trkpt lat="49.3907" lon="-1.17609">
        <ele>2.9</ele>
        <time>2022-06-02T13:27:08Z</time>
      </trkpt>
      <trkpt lat="49.39068" lon="-1.17609">
        <ele>2.9</ele>
        <time>2022-06-02T13:27:10Z</time>
      </trkpt>
      <trkpt lat="49.39067" lon="-1.1761">
        <ele>2.9</ele>
        <time>2022-06-02T13:27:11Z</time>
      </trkpt>
      <trkpt lat="49.39065" lon="-1.1761">
        <ele>2.9</ele>
        <time>2022-06-02T13:27:12Z</time>
      </trkpt>
      <trkpt lat="49.39064" lon="-1.17611">
        <ele>2.9</ele>
        <time>2022-06-02T13:27:13Z</time>
      </trkpt>
      <trkpt lat="49.39063" lon="-1.17611">
        <ele>2.9</ele>
        <time>2022-06-02T13:27:14Z</time>
      </trkpt>
      <trkpt lat="49.39061" lon="-1.17612">
        <ele>2.9</ele>
        <time>2022-06-02T13:27:15Z</time>
      </trkpt>
      <trkpt lat="49.3906" lon="-1.17612">
        <ele>2.9</ele>
        <time>2022-06-02T13:27:16Z</time>
      </trkpt>
      <trkpt lat="49.3906" lon="-1.17612">
        <ele>2.9</ele>
        <time>2022-06-02T13:27:17Z</time>
      </trkpt>
      <trkpt lat="49.39059" lon="-1.17612">
        <ele>2.9</ele>
        <time>2022-06-02T13:27:18Z</time>
      </trkpt>
      <trkpt lat="49.39057" lon="-1.17613">
        <ele>2.9</ele>
        <time>2022-06-02T13:27:19Z</time>
      </trkpt>
      <trkpt lat="49.39056" lon="-1.17613">
        <ele>2.9</ele>
        <time>2022-06-02T13:27:20Z</time>
      </trkpt>
      <trkpt lat="49.39055" lon="-1.17613">
        <ele>2.9</ele>
        <time>2022-06-02T13:27:21Z</time>
      </trkpt>
      <trkpt lat="49.39054" lon="-1.17613">
        <ele>2.9</ele>
        <time>2022-06-02T13:27:22Z</time>
      </trkpt>
      <trkpt lat="49.39052" lon="-1.17613">
        <ele>2.9</ele>
        <time>2022-06-02T13:27:23Z</time>
      </trkpt>
      <trkpt lat="49.39052" lon="-1.17613">
        <ele>2.9</ele>
        <time>2022-06-02T13:27:25Z</time>
      </trkpt>
      <trkpt lat="49.39051" lon="-1.17614">
        <ele>2.9</ele>
        <time>2022-06-02T13:27:26Z</time>
      </trkpt>
      <trkpt lat="49.3905" lon="-1.17614">
        <ele>2.9</ele>
        <time>2022-06-02T13:27:27Z</time>
      </trkpt>
      <trkpt lat="49.39049" lon="-1.17614">
        <ele>2.9</ele>
        <time>2022-06-02T13:27:28Z</time>
      </trkpt>
      <trkpt lat="49.39047" lon="-1.17614">
        <ele>2.9</ele>
        <time>2022-06-02T13:27:29Z</time>
      </trkpt>
      <trkpt lat="49.39046" lon="-1.17614">
        <ele>2.9</ele>
        <time>2022-06-02T13:27:30Z</time>
      </trkpt>
      <trkpt lat="49.39044" lon="-1.17614">
        <ele>2.9</ele>
        <time>2022-06-02T13:27:32Z</time>
      </trkpt>
      <trkpt lat="49.39043" lon="-1.17615">
        <ele>2.9</ele>
        <time>2022-06-02T13:27:33Z</time>
      </trkpt>
      <trkpt lat="49.39042" lon="-1.17615">
        <ele>2.9</ele>
        <time>2022-06-02T13:27:34Z</time>
      </trkpt>
      <trkpt lat="49.3904" lon="-1.17616">
        <ele>2.9</ele>
        <time>2022-06-02T13:27:35Z</time>
      </trkpt>
      <trkpt lat="49.3904" lon="-1.17617">
        <ele>2.9</ele>
        <time>2022-06-02T13:27:36Z</time>
      </trkpt>
      <trkpt lat="49.39039" lon="-1.17618">
        <ele>2.9</ele>
        <time>2022-06-02T13:27:37Z</time>
      </trkpt>
      <trkpt lat="49.39037" lon="-1.17619">
        <ele>2.9</ele>
        <time>2022-06-02T13:27:38Z</time>
      </trkpt>
      <trkpt lat="49.39036" lon="-1.17619">
        <ele>2.9</ele>
        <time>2022-06-02T13:27:39Z</time>
      </trkpt>
      <trkpt lat="49.39036" lon="-1.1762">
        <ele>2.9</ele>
        <time>2022-06-02T13:27:40Z</time>
      </trkpt>
      <trkpt lat="49.39034" lon="-1.1762">
        <ele>2.9</ele>
        <time>2022-06-02T13:27:41Z</time>
      </trkpt>
      <trkpt lat="49.39033" lon="-1.1762">
        <ele>2.9</ele>
        <time>2022-06-02T13:27:43Z</time>
      </trkpt>
      <trkpt lat="49.39032" lon="-1.1762">
        <ele>2.9</ele>
        <time>2022-06-02T13:27:44Z</time>
      </trkpt>
      <trkpt lat="49.39031" lon="-1.1762">
        <ele>2.9</ele>
        <time>2022-06-02T13:27:45Z</time>
      </trkpt>
      <trkpt lat="49.3903" lon="-1.17619">
        <ele>2.9</ele>
        <time>2022-06-02T13:27:47Z</time>
      </trkpt>
      <trkpt lat="49.39029" lon="-1.17618">
        <ele>2.9</ele>
        <time>2022-06-02T13:27:48Z</time>
      </trkpt>
      <trkpt lat="49.39028" lon="-1.17618">
        <ele>2.9</ele>
        <time>2022-06-02T13:27:49Z</time>
      </trkpt>
      <trkpt lat="49.39028" lon="-1.17617">
        <ele>2.9</ele>
        <time>2022-06-02T13:27:51Z</time>
      </trkpt>
      <trkpt lat="49.39027" lon="-1.17617">
        <ele>2.8</ele>
        <time>2022-06-02T13:27:52Z</time>
      </trkpt>
      <trkpt lat="49.39027" lon="-1.17618">
        <ele>2.8</ele>
        <time>2022-06-02T13:27:53Z</time>
      </trkpt>
      <trkpt lat="49.39026" lon="-1.17618">
        <ele>2.8</ele>
        <time>2022-06-02T13:27:54Z</time>
      </trkpt>
      <trkpt lat="49.39026" lon="-1.17619">
        <ele>2.8</ele>
        <time>2022-06-02T13:27:55Z</time>
      </trkpt>
      <trkpt lat="49.39026" lon="-1.1762">
        <ele>2.8</ele>
        <time>2022-06-02T13:27:56Z</time>
      </trkpt>
      <trkpt lat="49.39027" lon="-1.1762">
        <ele>2.8</ele>
        <time>2022-06-02T13:27:57Z</time>
      </trkpt>
      <trkpt lat="49.39028" lon="-1.1762">
        <ele>2.8</ele>
        <time>2022-06-02T13:27:59Z</time>
      </trkpt>
      <trkpt lat="49.39028" lon="-1.1762">
        <ele>2.8</ele>
        <time>2022-06-02T13:28:00Z</time>
      </trkpt>
      <trkpt lat="49.39029" lon="-1.1762">
        <ele>2.8</ele>
        <time>2022-06-02T13:28:01Z</time>
      </trkpt>
      <trkpt lat="49.39029" lon="-1.1762">
        <ele>2.8</ele>
        <time>2022-06-02T13:28:02Z</time>
      </trkpt>
      <trkpt lat="49.39029" lon="-1.17621">
        <ele>2.8</ele>
        <time>2022-06-02T13:28:04Z</time>
      </trkpt>
      <trkpt lat="49.39029" lon="-1.17621">
        <ele>2.8</ele>
        <time>2022-06-02T13:28:05Z</time>
      </trkpt>
      <trkpt lat="49.3903" lon="-1.17621">
        <ele>2.8</ele>
        <time>2022-06-02T13:28:06Z</time>
      </trkpt>
      <trkpt lat="49.3903" lon="-1.17621">
        <ele>2.8</ele>
        <time>2022-06-02T13:28:07Z</time>
      </trkpt>
      <trkpt lat="49.3903" lon="-1.17621">
        <ele>2.8</ele>
        <time>2022-06-02T13:28:09Z</time>
      </trkpt>
      <trkpt lat="49.3903" lon="-1.17621">
        <ele>2.8</ele>
        <time>2022-06-02T13:28:10Z</time>
      </trkpt>
      <trkpt lat="49.3903" lon="-1.17621">
        <ele>2.8</ele>
        <time>2022-06-02T13:28:11Z</time>
      </trkpt>
      <trkpt lat="49.3903" lon="-1.17621">
        <ele>2.8</ele>
        <time>2022-06-02T13:28:12Z</time>
      </trkpt>
      <trkpt lat="49.3903" lon="-1.17621">
        <ele>2.8</ele>
        <time>2022-06-02T13:28:13Z</time>
      </trkpt>
      <trkpt lat="49.3903" lon="-1.17621">
        <ele>2.8</ele>
        <time>2022-06-02T13:28:14Z</time>
      </trkpt>
      <trkpt lat="49.3903" lon="-1.17621">
        <ele>2.8</ele>
        <time>2022-06-02T13:28:15Z</time>
      </trkpt>
      <trkpt lat="49.3903" lon="-1.17621">
        <ele>2.8</ele>
        <time>2022-06-02T13:28:16Z</time>
      </trkpt>
      <trkpt lat="49.3903" lon="-1.17621">
        <ele>2.8</ele>
        <time>2022-06-02T13:28:17Z</time>
      </trkpt>
      <trkpt lat="49.3903" lon="-1.17621">
        <ele>2.8</ele>
        <time>2022-06-02T13:28:18Z</time>
      </trkpt>
      <trkpt lat="49.3903" lon="-1.17621">
        <ele>2.8</ele>
        <time>2022-06-02T13:28:19Z</time>
      </trkpt>
      <trkpt lat="49.3903" lon="-1.17621">
        <ele>2.8</ele>
        <time>2022-06-02T13:28:20Z</time>
      </trkpt>
      <trkpt lat="49.3903" lon="-1.17621">
        <ele>2.8</ele>
        <time>2022-06-02T13:28:21Z</time>
      </trkpt>
      <trkpt lat="49.3903" lon="-1.17621">
        <ele>2.8</ele>
        <time>2022-06-02T13:28:22Z</time>
      </trkpt>
      <trkpt lat="49.3903" lon="-1.17621">
        <ele>2.8</ele>
        <time>2022-06-02T13:28:23Z</time>
      </trkpt>
      <trkpt lat="49.3903" lon="-1.17621">
        <ele>2.8</ele>
        <time>2022-06-02T13:28:24Z</time>
      </trkpt>
      <trkpt lat="49.3903" lon="-1.17621">
        <ele>2.8</ele>
        <time>2022-06-02T13:28:25Z</time>
      </trkpt>
      <trkpt lat="49.3903" lon="-1.17621">
        <ele>2.8</ele>
        <time>2022-06-02T13:28:26Z</time>
      </trkpt>
      <trkpt lat="49.3903" lon="-1.17621">
        <ele>2.8</ele>
        <time>2022-06-02T13:28:27Z</time>
      </trkpt>
      <trkpt lat="49.3903" lon="-1.17621">
        <ele>2.8</ele>
        <time>2022-06-02T13:28:28Z</time>
      </trkpt>
      <trkpt lat="49.3903" lon="-1.17621">
        <ele>2.8</ele>
        <time>2022-06-02T13:28:29Z</time>
      </trkpt>
      <trkpt lat="49.39031" lon="-1.17622">
        <ele>2.8</ele>
        <time>2022-06-02T13:28:30Z</time>
      </trkpt>
      <trkpt lat="49.39032" lon="-1.17623">
        <ele>2.8</ele>
        <time>2022-06-02T13:28:31Z</time>
      </trkpt>
      <trkpt lat="49.39033" lon="-1.17623">
        <ele>2.8</ele>
        <time>2022-06-02T13:28:32Z</time>
      </trkpt>
      <trkpt lat="49.39033" lon="-1.17623">
        <ele>2.8</ele>
        <time>2022-06-02T13:28:33Z</time>
      </trkpt>
      <trkpt lat="49.39033" lon="-1.17623">
        <ele>2.8</ele>
        <time>2022-06-02T13:28:34Z</time>
      </trkpt>
      <trkpt lat="49.39033" lon="-1.17623">
        <ele>2.8</ele>
        <time>2022-06-02T13:28:35Z</time>
      </trkpt>
      <trkpt lat="49.39033" lon="-1.17623">
        <ele>2.8</ele>
        <time>2022-06-02T13:28:36Z</time>
      </trkpt>
      <trkpt lat="49.39033" lon="-1.17623">
        <ele>2.8</ele>
        <time>2022-06-02T13:28:37Z</time>
      </trkpt>
      <trkpt lat="49.39033" lon="-1.17623">
        <ele>2.8</ele>
        <time>2022-06-02T13:28:38Z</time>
      </trkpt>
      <trkpt lat="49.39033" lon="-1.17623">
        <ele>2.8</ele>
        <time>2022-06-02T13:28:39Z</time>
      </trkpt>
      <trkpt lat="49.39033" lon="-1.17623">
        <ele>2.8</ele>
        <time>2022-06-02T13:28:40Z</time>
      </trkpt>
      <trkpt lat="49.39033" lon="-1.17623">
        <ele>2.8</ele>
        <time>2022-06-02T13:28:41Z</time>
      </trkpt>
      <trkpt lat="49.39033" lon="-1.17623">
        <ele>2.8</ele>
        <time>2022-06-02T13:28:42Z</time>
      </trkpt>
      <trkpt lat="49.39033" lon="-1.17623">
        <ele>2.8</ele>
        <time>2022-06-02T13:28:43Z</time>
      </trkpt>
      <trkpt lat="49.39033" lon="-1.17623">
        <ele>2.8</ele>
        <time>2022-06-02T13:28:44Z</time>
      </trkpt>
      <trkpt lat="49.39033" lon="-1.17623">
        <ele>2.8</ele>
        <time>2022-06-02T13:28:45Z</time>
      </trkpt>
      <trkpt lat="49.39033" lon="-1.17623">
        <ele>2.8</ele>
        <time>2022-06-02T13:28:46Z</time>
      </trkpt>
      <trkpt lat="49.39033" lon="-1.17623">
        <ele>2.8</ele>
        <time>2022-06-02T13:28:47Z</time>
      </trkpt>
      <trkpt lat="49.39033" lon="-1.17623">
        <ele>2.8</ele>
        <time>2022-06-02T13:28:48Z</time>
      </trkpt>
      <trkpt lat="49.39033" lon="-1.17623">
        <ele>2.8</ele>
        <time>2022-06-02T13:28:49Z</time>
      </trkpt>
      <trkpt lat="49.39033" lon="-1.17623">
        <ele>2.8</ele>
        <time>2022-06-02T13:28:50Z</time>
      </trkpt>
      <trkpt lat="49.39033" lon="-1.17623">
        <ele>2.8</ele>
        <time>2022-06-02T13:28:51Z</time>
      </trkpt>
      <trkpt lat="49.39033" lon="-1.17623">
        <ele>2.8</ele>
        <time>2022-06-02T13:28:52Z</time>
      </trkpt>
      <trkpt lat="49.39033" lon="-1.17622">
        <ele>2.8</ele>
        <time>2022-06-02T13:28:53Z</time>
      </trkpt>
      <trkpt lat="49.39032" lon="-1.17621">
        <ele>2.8</ele>
        <time>2022-06-02T13:28:54Z</time>
      </trkpt>
      <trkpt lat="49.39032" lon="-1.1762">
        <ele>2.8</ele>
        <time>2022-06-02T13:28:55Z</time>
      </trkpt>
      <trkpt lat="49.39032" lon="-1.17618">
        <ele>2.8</ele>
        <time>2022-06-02T13:28:56Z</time>
      </trkpt>
      <trkpt lat="49.39031" lon="-1.17618">
        <ele>2.8</ele>
        <time>2022-06-02T13:28:58Z</time>
      </trkpt>
      <trkpt lat="49.39031" lon="-1.17618">
        <ele>2.8</ele>
        <time>2022-06-02T13:28:59Z</time>
      </trkpt>
      <trkpt lat="49.39031" lon="-1.17618">
        <ele>2.8</ele>
        <time>2022-06-02T13:29:00Z</time>
      </trkpt>
      <trkpt lat="49.39031" lon="-1.17618">
        <ele>2.8</ele>
        <time>2022-06-02T13:29:01Z</time>
      </trkpt>
      <trkpt lat="49.39031" lon="-1.17618">
        <ele>2.8</ele>
        <time>2022-06-02T13:29:03Z</time>
      </trkpt>
      <trkpt lat="49.39031" lon="-1.17618">
        <ele>2.8</ele>
        <time>2022-06-02T13:29:04Z</time>
      </trkpt>
      <trkpt lat="49.39031" lon="-1.17618">
        <ele>2.8</ele>
        <time>2022-06-02T13:29:05Z</time>
      </trkpt>
      <trkpt lat="49.39031" lon="-1.17617">
        <ele>2.8</ele>
        <time>2022-06-02T13:29:07Z</time>
      </trkpt>
      <trkpt lat="49.39031" lon="-1.17616">
        <ele>2.8</ele>
        <time>2022-06-02T13:29:09Z</time>
      </trkpt>
      <trkpt lat="49.39031" lon="-1.17615">
        <ele>2.8</ele>
        <time>2022-06-02T13:29:10Z</time>
      </trkpt>
      <trkpt lat="49.3903" lon="-1.17614">
        <ele>2.8</ele>
        <time>2022-06-02T13:29:11Z</time>
      </trkpt>
      <trkpt lat="49.3903" lon="-1.17613">
        <ele>2.8</ele>
        <time>2022-06-02T13:29:12Z</time>
      </trkpt>
      <trkpt lat="49.3903" lon="-1.17613">
        <ele>2.8</ele>
        <time>2022-06-02T13:29:13Z</time>
      </trkpt>
      <trkpt lat="49.3903" lon="-1.17613">
        <ele>2.8</ele>
        <time>2022-06-02T13:29:14Z</time>
      </trkpt>
      <trkpt lat="49.3903" lon="-1.17612">
        <ele>2.8</ele>
        <time>2022-06-02T13:29:15Z</time>
      </trkpt>
      <trkpt lat="49.3903" lon="-1.17612">
        <ele>2.8</ele>
        <time>2022-06-02T13:29:16Z</time>
      </trkpt>
      <trkpt lat="49.3903" lon="-1.17612">
        <ele>2.8</ele>
        <time>2022-06-02T13:29:18Z</time>
      </trkpt>
      <trkpt lat="49.3903" lon="-1.17612">
        <ele>2.8</ele>
        <time>2022-06-02T13:29:19Z</time>
      </trkpt>
      <trkpt lat="49.3903" lon="-1.17611">
        <ele>2.8</ele>
        <time>2022-06-02T13:29:20Z</time>
      </trkpt>
      <trkpt lat="49.3903" lon="-1.17611">
        <ele>2.8</ele>
        <time>2022-06-02T13:29:21Z</time>
      </trkpt>
      <trkpt lat="49.39029" lon="-1.17611">
        <ele>2.8</ele>
        <time>2022-06-02T13:29:22Z</time>
      </trkpt>
      <trkpt lat="49.39029" lon="-1.17611">
        <ele>2.8</ele>
        <time>2022-06-02T13:29:23Z</time>
      </trkpt>
      <trkpt lat="49.39029" lon="-1.1761">
        <ele>2.8</ele>
        <time>2022-06-02T13:29:24Z</time>
      </trkpt>
      <trkpt lat="49.39029" lon="-1.1761">
        <ele>2.8</ele>
        <time>2022-06-02T13:29:25Z</time>
      </trkpt>
      <trkpt lat="49.39029" lon="-1.1761">
        <ele>2.8</ele>
        <time>2022-06-02T13:29:26Z</time>
      </trkpt>
      <trkpt lat="49.39029" lon="-1.17609">
        <ele>2.8</ele>
        <time>2022-06-02T13:29:27Z</time>
      </trkpt>
      <trkpt lat="49.39029" lon="-1.17609">
        <ele>2.8</ele>
        <time>2022-06-02T13:29:28Z</time>
      </trkpt>
      <trkpt lat="49.39029" lon="-1.17609">
        <ele>2.8</ele>
        <time>2022-06-02T13:29:29Z</time>
      </trkpt>
      <trkpt lat="49.39029" lon="-1.17609">
        <ele>2.8</ele>
        <time>2022-06-02T13:29:30Z</time>
      </trkpt>
      <trkpt lat="49.39029" lon="-1.17608">
        <ele>2.8</ele>
        <time>2022-06-02T13:29:31Z</time>
      </trkpt>
      <trkpt lat="49.39029" lon="-1.17608">
        <ele>2.8</ele>
        <time>2022-06-02T13:29:32Z</time>
      </trkpt>
      <trkpt lat="49.39029" lon="-1.17608">
        <ele>2.8</ele>
        <time>2022-06-02T13:29:33Z</time>
      </trkpt>
      <trkpt lat="49.39029" lon="-1.17608">
        <ele>2.8</ele>
        <time>2022-06-02T13:29:34Z</time>
      </trkpt>
      <trkpt lat="49.39029" lon="-1.17607">
        <ele>2.8</ele>
        <time>2022-06-02T13:29:35Z</time>
      </trkpt>
      <trkpt lat="49.39029" lon="-1.17607">
        <ele>2.8</ele>
        <time>2022-06-02T13:29:36Z</time>
      </trkpt>
      <trkpt lat="49.39029" lon="-1.17607">
        <ele>2.8</ele>
        <time>2022-06-02T13:29:37Z</time>
      </trkpt>
      <trkpt lat="49.39029" lon="-1.17607">
        <ele>2.8</ele>
        <time>2022-06-02T13:29:38Z</time>
      </trkpt>
      <trkpt lat="49.39029" lon="-1.17606">
        <ele>2.8</ele>
        <time>2022-06-02T13:29:39Z</time>
      </trkpt>
      <trkpt lat="49.39029" lon="-1.17606">
        <ele>2.8</ele>
        <time>2022-06-02T13:29:40Z</time>
      </trkpt>
      <trkpt lat="49.39029" lon="-1.17606">
        <ele>2.8</ele>
        <time>2022-06-02T13:29:41Z</time>
      </trkpt>
      <trkpt lat="49.39029" lon="-1.17606">
        <ele>2.8</ele>
        <time>2022-06-02T13:29:42Z</time>
      </trkpt>
      <trkpt lat="49.39029" lon="-1.17605">
        <ele>2.8</ele>
        <time>2022-06-02T13:29:43Z</time>
      </trkpt>
      <trkpt lat="49.39029" lon="-1.17605">
        <ele>2.8</ele>
        <time>2022-06-02T13:29:44Z</time>
      </trkpt>
      <trkpt lat="49.39029" lon="-1.17605">
        <ele>2.8</ele>
        <time>2022-06-02T13:29:45Z</time>
      </trkpt>
      <trkpt lat="49.39029" lon="-1.17604">
        <ele>2.8</ele>
        <time>2022-06-02T13:29:46Z</time>
      </trkpt>
      <trkpt lat="49.39029" lon="-1.17604">
        <ele>2.8</ele>
        <time>2022-06-02T13:29:48Z</time>
      </trkpt>
      <trkpt lat="49.39029" lon="-1.17604">
        <ele>2.8</ele>
        <time>2022-06-02T13:29:49Z</time>
      </trkpt>
      <trkpt lat="49.39029" lon="-1.17604">
        <ele>2.8</ele>
        <time>2022-06-02T13:29:50Z</time>
      </trkpt>
      <trkpt lat="49.39029" lon="-1.17603">
        <ele>2.8</ele>
        <time>2022-06-02T13:29:52Z</time>
      </trkpt>
      <trkpt lat="49.39029" lon="-1.17603">
        <ele>2.8</ele>
        <time>2022-06-02T13:29:53Z</time>
      </trkpt>
      <trkpt lat="49.39029" lon="-1.17603">
        <ele>2.8</ele>
        <time>2022-06-02T13:29:54Z</time>
      </trkpt>
      <trkpt lat="49.39028" lon="-1.17602">
        <ele>2.8</ele>
        <time>2022-06-02T13:29:56Z</time>
      </trkpt>
      <trkpt lat="49.39028" lon="-1.17601">
        <ele>2.5</ele>
        <time>2022-06-02T13:29:57Z</time>
      </trkpt>
      <trkpt lat="49.39027" lon="-1.176">
        <ele>2.5</ele>
        <time>2022-06-02T13:29:58Z</time>
      </trkpt>
      <trkpt lat="49.39027" lon="-1.17599">
        <ele>2.5</ele>
        <time>2022-06-02T13:29:59Z</time>
      </trkpt>
      <trkpt lat="49.39026" lon="-1.17598">
        <ele>2.5</ele>
        <time>2022-06-02T13:30:00Z</time>
      </trkpt>
      <trkpt lat="49.39026" lon="-1.17597">
        <ele>2.4</ele>
        <time>2022-06-02T13:30:01Z</time>
      </trkpt>
      <trkpt lat="49.39026" lon="-1.17596">
        <ele>2.4</ele>
        <time>2022-06-02T13:30:02Z</time>
      </trkpt>
      <trkpt lat="49.39025" lon="-1.17595">
        <ele>2.4</ele>
        <time>2022-06-02T13:30:03Z</time>
      </trkpt>
      <trkpt lat="49.39025" lon="-1.17594">
        <ele>2.4</ele>
        <time>2022-06-02T13:30:04Z</time>
      </trkpt>
      <trkpt lat="49.39024" lon="-1.17593">
        <ele>2.4</ele>
        <time>2022-06-02T13:30:05Z</time>
      </trkpt>
      <trkpt lat="49.39024" lon="-1.17592">
        <ele>2.4</ele>
        <time>2022-06-02T13:30:06Z</time>
      </trkpt>
      <trkpt lat="49.39024" lon="-1.17592">
        <ele>2.4</ele>
        <time>2022-06-02T13:30:07Z</time>
      </trkpt>
      <trkpt lat="49.39024" lon="-1.17592">
        <ele>2.4</ele>
        <time>2022-06-02T13:30:08Z</time>
      </trkpt>
      <trkpt lat="49.39024" lon="-1.17593">
        <ele>2.3</ele>
        <time>2022-06-02T13:30:09Z</time>
      </trkpt>
      <trkpt lat="49.39024" lon="-1.17593">
        <ele>2.3</ele>
        <time>2022-06-02T13:30:10Z</time>
      </trkpt>
      <trkpt lat="49.39024" lon="-1.17593">
        <ele>2.3</ele>
        <time>2022-06-02T13:30:11Z</time>
      </trkpt>
      <trkpt lat="49.39024" lon="-1.17593">
        <ele>2.3</ele>
        <time>2022-06-02T13:30:12Z</time>
      </trkpt>
      <trkpt lat="49.39024" lon="-1.17593">
        <ele>2.3</ele>
        <time>2022-06-02T13:30:13Z</time>
      </trkpt>
      <trkpt lat="49.39024" lon="-1.17593">
        <ele>2.3</ele>
        <time>2022-06-02T13:30:14Z</time>
      </trkpt>
      <trkpt lat="49.39024" lon="-1.17593">
        <ele>2.3</ele>
        <time>2022-06-02T13:30:15Z</time>
      </trkpt>
      <trkpt lat="49.39024" lon="-1.17593">
        <ele>2.3</ele>
        <time>2022-06-02T13:30:16Z</time>
      </trkpt>
      <trkpt lat="49.39024" lon="-1.17593">
        <ele>2.3</ele>
        <time>2022-06-02T13:30:17Z</time>
      </trkpt>
      <trkpt lat="49.39024" lon="-1.17593">
        <ele>2.3</ele>
        <time>2022-06-02T13:30:18Z</time>
      </trkpt>
      <trkpt lat="49.39024" lon="-1.17593">
        <ele>2.3</ele>
        <time>2022-06-02T13:30:19Z</time>
      </trkpt>
      <trkpt lat="49.39024" lon="-1.17593">
        <ele>2.3</ele>
        <time>2022-06-02T13:30:20Z</time>
      </trkpt>
      <trkpt lat="49.39024" lon="-1.17593">
        <ele>2.3</ele>
        <time>2022-06-02T13:30:21Z</time>
      </trkpt>
      <trkpt lat="49.39024" lon="-1.17594">
        <ele>2.3</ele>
        <time>2022-06-02T13:30:22Z</time>
      </trkpt>
      <trkpt lat="49.39025" lon="-1.17594">
        <ele>2.3</ele>
        <time>2022-06-02T13:30:23Z</time>
      </trkpt>
      <trkpt lat="49.39025" lon="-1.17594">
        <ele>2.3</ele>
        <time>2022-06-02T13:30:24Z</time>
      </trkpt>
      <trkpt lat="49.39025" lon="-1.17594">
        <ele>2.3</ele>
        <time>2022-06-02T13:30:25Z</time>
      </trkpt>
      <trkpt lat="49.39025" lon="-1.17594">
        <ele>2.3</ele>
        <time>2022-06-02T13:30:26Z</time>
      </trkpt>
      <trkpt lat="49.39025" lon="-1.17594">
        <ele>2.3</ele>
        <time>2022-06-02T13:30:27Z</time>
      </trkpt>
      <trkpt lat="49.39025" lon="-1.17593">
        <ele>2.3</ele>
        <time>2022-06-02T13:30:28Z</time>
      </trkpt>
      <trkpt lat="49.39024" lon="-1.17592">
        <ele>2.3</ele>
        <time>2022-06-02T13:30:29Z</time>
      </trkpt>
      <trkpt lat="49.39024" lon="-1.17591">
        <ele>2.3</ele>
        <time>2022-06-02T13:30:30Z</time>
      </trkpt>
      <trkpt lat="49.39024" lon="-1.17591">
        <ele>2.3</ele>
        <time>2022-06-02T13:30:31Z</time>
      </trkpt>
      <trkpt lat="49.39024" lon="-1.17591">
        <ele>2.3</ele>
        <time>2022-06-02T13:30:32Z</time>
      </trkpt>
      <trkpt lat="49.39024" lon="-1.17591">
        <ele>2.3</ele>
        <time>2022-06-02T13:30:33Z</time>
      </trkpt>
      <trkpt lat="49.39024" lon="-1.17591">
        <ele>2.3</ele>
        <time>2022-06-02T13:30:34Z</time>
      </trkpt>
      <trkpt lat="49.39024" lon="-1.17591">
        <ele>2.3</ele>
        <time>2022-06-02T13:30:35Z</time>
      </trkpt>
      <trkpt lat="49.39024" lon="-1.17591">
        <ele>2.3</ele>
        <time>2022-06-02T13:30:36Z</time>
      </trkpt>
      <trkpt lat="49.39024" lon="-1.17591">
        <ele>2.3</ele>
        <time>2022-06-02T13:30:37Z</time>
      </trkpt>
      <trkpt lat="49.39024" lon="-1.17591">
        <ele>2.3</ele>
        <time>2022-06-02T13:30:38Z</time>
      </trkpt>
      <trkpt lat="49.39024" lon="-1.17591">
        <ele>2.3</ele>
        <time>2022-06-02T13:30:39Z</time>
      </trkpt>
      <trkpt lat="49.39024" lon="-1.17592">
        <ele>2.3</ele>
        <time>2022-06-02T13:30:40Z</time>
      </trkpt>
      <trkpt lat="49.39024" lon="-1.17592">
        <ele>2.3</ele>
        <time>2022-06-02T13:30:41Z</time>
      </trkpt>
      <trkpt lat="49.39024" lon="-1.17592">
        <ele>2.3</ele>
        <time>2022-06-02T13:30:42Z</time>
      </trkpt>
      <trkpt lat="49.39024" lon="-1.17592">
        <ele>2.3</ele>
        <time>2022-06-02T13:30:43Z</time>
      </trkpt>
      <trkpt lat="49.39024" lon="-1.17592">
        <ele>2.3</ele>
        <time>2022-06-02T13:30:44Z</time>
      </trkpt>
      <trkpt lat="49.39024" lon="-1.17592">
        <ele>2.3</ele>
        <time>2022-06-02T13:30:45Z</time>
      </trkpt>
      <trkpt lat="49.39024" lon="-1.17592">
        <ele>2.3</ele>
        <time>2022-06-02T13:30:46Z</time>
      </trkpt>
      <trkpt lat="49.39024" lon="-1.17592">
        <ele>2.3</ele>
        <time>2022-06-02T13:30:47Z</time>
      </trkpt>
      <trkpt lat="49.39024" lon="-1.17592">
        <ele>2.3</ele>
        <time>2022-06-02T13:30:48Z</time>
      </trkpt>
      <trkpt lat="49.39024" lon="-1.17592">
        <ele>2.3</ele>
        <time>2022-06-02T13:30:49Z</time>
      </trkpt>
      <trkpt lat="49.39024" lon="-1.17592">
        <ele>2.3</ele>
        <time>2022-06-02T13:30:50Z</time>
      </trkpt>
      <trkpt lat="49.39024" lon="-1.17592">
        <ele>2.3</ele>
        <time>2022-06-02T13:30:51Z</time>
      </trkpt>
      <trkpt lat="49.39024" lon="-1.17592">
        <ele>2.3</ele>
        <time>2022-06-02T13:30:52Z</time>
      </trkpt>
      <trkpt lat="49.39024" lon="-1.17592">
        <ele>2.3</ele>
        <time>2022-06-02T13:30:53Z</time>
      </trkpt>
      <trkpt lat="49.39024" lon="-1.17592">
        <ele>2.3</ele>
        <time>2022-06-02T13:30:54Z</time>
      </trkpt>
      <trkpt lat="49.39024" lon="-1.17592">
        <ele>2.3</ele>
        <time>2022-06-02T13:30:55Z</time>
      </trkpt>
      <trkpt lat="49.39024" lon="-1.17592">
        <ele>2.3</ele>
        <time>2022-06-02T13:30:56Z</time>
      </trkpt>
      <trkpt lat="49.39024" lon="-1.17592">
        <ele>2.3</ele>
        <time>2022-06-02T13:30:57Z</time>
      </trkpt>
      <trkpt lat="49.39024" lon="-1.17592">
        <ele>2.3</ele>
        <time>2022-06-02T13:30:58Z</time>
      </trkpt>
      <trkpt lat="49.39024" lon="-1.17592">
        <ele>2.3</ele>
        <time>2022-06-02T13:30:59Z</time>
      </trkpt>
      <trkpt lat="49.39024" lon="-1.17592">
        <ele>2.3</ele>
        <time>2022-06-02T13:31:00Z</time>
      </trkpt>
      <trkpt lat="49.39024" lon="-1.17592">
        <ele>2.3</ele>
        <time>2022-06-02T13:31:01Z</time>
      </trkpt>
      <trkpt lat="49.39024" lon="-1.17592">
        <ele>2.3</ele>
        <time>2022-06-02T13:31:02Z</time>
      </trkpt>
      <trkpt lat="49.39024" lon="-1.17592">
        <ele>2.3</ele>
        <time>2022-06-02T13:31:03Z</time>
      </trkpt>
      <trkpt lat="49.39024" lon="-1.17592">
        <ele>2.3</ele>
        <time>2022-06-02T13:31:04Z</time>
      </trkpt>
      <trkpt lat="49.39024" lon="-1.17592">
        <ele>2.3</ele>
        <time>2022-06-02T13:31:05Z</time>
      </trkpt>
      <trkpt lat="49.39024" lon="-1.17592">
        <ele>2.3</ele>
        <time>2022-06-02T13:31:06Z</time>
      </trkpt>
      <trkpt lat="49.39024" lon="-1.17592">
        <ele>2.3</ele>
        <time>2022-06-02T13:31:07Z</time>
      </trkpt>
      <trkpt lat="49.39024" lon="-1.17592">
        <ele>2.3</ele>
        <time>2022-06-02T13:31:08Z</time>
      </trkpt>
      <trkpt lat="49.39024" lon="-1.17592">
        <ele>2.3</ele>
        <time>2022-06-02T13:31:09Z</time>
      </trkpt>
      <trkpt lat="49.39024" lon="-1.17592">
        <ele>2.3</ele>
        <time>2022-06-02T13:31:10Z</time>
      </trkpt>
      <trkpt lat="49.39024" lon="-1.17592">
        <ele>2.3</ele>
        <time>2022-06-02T13:31:11Z</time>
      </trkpt>
      <trkpt lat="49.39024" lon="-1.17592">
        <ele>2.3</ele>
        <time>2022-06-02T13:31:12Z</time>
      </trkpt>
      <trkpt lat="49.39024" lon="-1.17592">
        <ele>2.3</ele>
        <time>2022-06-02T13:31:13Z</time>
      </trkpt>
      <trkpt lat="49.39024" lon="-1.17592">
        <ele>2.3</ele>
        <time>2022-06-02T13:31:14Z</time>
      </trkpt>
      <trkpt lat="49.39024" lon="-1.17592">
        <ele>2.3</ele>
        <time>2022-06-02T13:31:15Z</time>
      </trkpt>
      <trkpt lat="49.39024" lon="-1.17592">
        <ele>2.3</ele>
        <time>2022-06-02T13:31:16Z</time>
      </trkpt>
      <trkpt lat="49.39024" lon="-1.17592">
        <ele>2.3</ele>
        <time>2022-06-02T13:31:17Z</time>
      </trkpt>
      <trkpt lat="49.39024" lon="-1.17592">
        <ele>2.3</ele>
        <time>2022-06-02T13:31:18Z</time>
      </trkpt>
      <trkpt lat="49.39024" lon="-1.17592">
        <ele>2.3</ele>
        <time>2022-06-02T13:31:19Z</time>
      </trkpt>
      <trkpt lat="49.39024" lon="-1.17592">
        <ele>2.3</ele>
        <time>2022-06-02T13:31:20Z</time>
      </trkpt>
      <trkpt lat="49.39024" lon="-1.17592">
        <ele>2.3</ele>
        <time>2022-06-02T13:31:21Z</time>
      </trkpt>
      <trkpt lat="49.39024" lon="-1.17592">
        <ele>2.3</ele>
        <time>2022-06-02T13:31:22Z</time>
      </trkpt>
      <trkpt lat="49.39024" lon="-1.17592">
        <ele>2.3</ele>
        <time>2022-06-02T13:31:23Z</time>
      </trkpt>
      <trkpt lat="49.39024" lon="-1.17592">
        <ele>2.3</ele>
        <time>2022-06-02T13:31:24Z</time>
      </trkpt>
      <trkpt lat="49.39024" lon="-1.17592">
        <ele>2.3</ele>
        <time>2022-06-02T13:31:25Z</time>
      </trkpt>
      <trkpt lat="49.39024" lon="-1.17592">
        <ele>2.3</ele>
        <time>2022-06-02T13:31:26Z</time>
      </trkpt>
      <trkpt lat="49.39024" lon="-1.17592">
        <ele>2.3</ele>
        <time>2022-06-02T13:31:27Z</time>
      </trkpt>
      <trkpt lat="49.39024" lon="-1.17592">
        <ele>2.3</ele>
        <time>2022-06-02T13:31:28Z</time>
      </trkpt>
      <trkpt lat="49.39024" lon="-1.17592">
        <ele>2.3</ele>
        <time>2022-06-02T13:31:29Z</time>
      </trkpt>
      <trkpt lat="49.39024" lon="-1.17592">
        <ele>2.3</ele>
        <time>2022-06-02T13:31:30Z</time>
      </trkpt>
      <trkpt lat="49.39024" lon="-1.17592">
        <ele>2.3</ele>
        <time>2022-06-02T13:31:31Z</time>
      </trkpt>
      <trkpt lat="49.39024" lon="-1.17592">
        <ele>2.3</ele>
        <time>2022-06-02T13:31:32Z</time>
      </trkpt>
      <trkpt lat="49.39024" lon="-1.17592">
        <ele>2.3</ele>
        <time>2022-06-02T13:31:33Z</time>
      </trkpt>
      <trkpt lat="49.39024" lon="-1.17592">
        <ele>2.3</ele>
        <time>2022-06-02T13:31:34Z</time>
      </trkpt>
      <trkpt lat="49.39024" lon="-1.17592">
        <ele>2.3</ele>
        <time>2022-06-02T13:31:35Z</time>
      </trkpt>
      <trkpt lat="49.39024" lon="-1.17592">
        <ele>2.3</ele>
        <time>2022-06-02T13:31:36Z</time>
      </trkpt>
      <trkpt lat="49.39024" lon="-1.17592">
        <ele>2.3</ele>
        <time>2022-06-02T13:31:37Z</time>
      </trkpt>
      <trkpt lat="49.39024" lon="-1.17592">
        <ele>2.3</ele>
        <time>2022-06-02T13:31:38Z</time>
      </trkpt>
      <trkpt lat="49.39024" lon="-1.17592">
        <ele>2.3</ele>
        <time>2022-06-02T13:31:39Z</time>
      </trkpt>
      <trkpt lat="49.39024" lon="-1.17592">
        <ele>2.3</ele>
        <time>2022-06-02T13:31:40Z</time>
      </trkpt>
      <trkpt lat="49.39024" lon="-1.17592">
        <ele>2.3</ele>
        <time>2022-06-02T13:31:41Z</time>
      </trkpt>
      <trkpt lat="49.39024" lon="-1.17592">
        <ele>2.3</ele>
        <time>2022-06-02T13:31:42Z</time>
      </trkpt>
      <trkpt lat="49.39024" lon="-1.17592">
        <ele>2.3</ele>
        <time>2022-06-02T13:31:43Z</time>
      </trkpt>
      <trkpt lat="49.39024" lon="-1.17592">
        <ele>2.3</ele>
        <time>2022-06-02T13:31:44Z</time>
      </trkpt>
      <trkpt lat="49.39024" lon="-1.17592">
        <ele>2.3</ele>
        <time>2022-06-02T13:31:45Z</time>
      </trkpt>
      <trkpt lat="49.39024" lon="-1.17592">
        <ele>2.3</ele>
        <time>2022-06-02T13:31:46Z</time>
      </trkpt>
      <trkpt lat="49.39024" lon="-1.17592">
        <ele>2.3</ele>
        <time>2022-06-02T13:31:47Z</time>
      </trkpt>
      <trkpt lat="49.39024" lon="-1.17592">
        <ele>2.3</ele>
        <time>2022-06-02T13:31:48Z</time>
      </trkpt>
      <trkpt lat="49.39024" lon="-1.17592">
        <ele>2.3</ele>
        <time>2022-06-02T13:31:49Z</time>
      </trkpt>
      <trkpt lat="49.39024" lon="-1.17592">
        <ele>2.3</ele>
        <time>2022-06-02T13:31:50Z</time>
      </trkpt>
      <trkpt lat="49.39024" lon="-1.17592">
        <ele>2.3</ele>
        <time>2022-06-02T13:31:51Z</time>
      </trkpt>
      <trkpt lat="49.39024" lon="-1.17592">
        <ele>2.3</ele>
        <time>2022-06-02T13:31:52Z</time>
      </trkpt>
      <trkpt lat="49.39024" lon="-1.17592">
        <ele>2.3</ele>
        <time>2022-06-02T13:31:53Z</time>
      </trkpt>
      <trkpt lat="49.39024" lon="-1.17592">
        <ele>2.3</ele>
        <time>2022-06-02T13:31:54Z</time>
      </trkpt>
      <trkpt lat="49.39024" lon="-1.17592">
        <ele>2.3</ele>
        <time>2022-06-02T13:31:55Z</time>
      </trkpt>
      <trkpt lat="49.39024" lon="-1.17592">
        <ele>2.3</ele>
        <time>2022-06-02T13:31:56Z</time>
      </trkpt>
      <trkpt lat="49.39024" lon="-1.17592">
        <ele>2.3</ele>
        <time>2022-06-02T13:31:57Z</time>
      </trkpt>
      <trkpt lat="49.39024" lon="-1.17592">
        <ele>2.3</ele>
        <time>2022-06-02T13:31:58Z</time>
      </trkpt>
      <trkpt lat="49.39024" lon="-1.17592">
        <ele>2.3</ele>
        <time>2022-06-02T13:31:59Z</time>
      </trkpt>
      <trkpt lat="49.39024" lon="-1.17592">
        <ele>2.3</ele>
        <time>2022-06-02T13:32:00Z</time>
      </trkpt>
      <trkpt lat="49.39024" lon="-1.17592">
        <ele>2.3</ele>
        <time>2022-06-02T13:32:01Z</time>
      </trkpt>
      <trkpt lat="49.39024" lon="-1.17592">
        <ele>2.3</ele>
        <time>2022-06-02T13:32:02Z</time>
      </trkpt>
      <trkpt lat="49.39024" lon="-1.17592">
        <ele>2.3</ele>
        <time>2022-06-02T13:32:03Z</time>
      </trkpt>
      <trkpt lat="49.39024" lon="-1.17592">
        <ele>2.3</ele>
        <time>2022-06-02T13:32:04Z</time>
      </trkpt>
      <trkpt lat="49.39024" lon="-1.17592">
        <ele>2.3</ele>
        <time>2022-06-02T13:32:05Z</time>
      </trkpt>
      <trkpt lat="49.39024" lon="-1.17592">
        <ele>2.3</ele>
        <time>2022-06-02T13:32:06Z</time>
      </trkpt>
      <trkpt lat="49.39024" lon="-1.17592">
        <ele>2.3</ele>
        <time>2022-06-02T13:32:07Z</time>
      </trkpt>
      <trkpt lat="49.39024" lon="-1.17592">
        <ele>2.3</ele>
        <time>2022-06-02T13:32:08Z</time>
      </trkpt>
      <trkpt lat="49.39024" lon="-1.17592">
        <ele>2.3</ele>
        <time>2022-06-02T13:32:09Z</time>
      </trkpt>
      <trkpt lat="49.39024" lon="-1.17592">
        <ele>2.3</ele>
        <time>2022-06-02T13:32:10Z</time>
      </trkpt>
      <trkpt lat="49.39024" lon="-1.17592">
        <ele>2.3</ele>
        <time>2022-06-02T13:32:11Z</time>
      </trkpt>
      <trkpt lat="49.39024" lon="-1.17592">
        <ele>2.3</ele>
        <time>2022-06-02T13:32:12Z</time>
      </trkpt>
      <trkpt lat="49.39024" lon="-1.17592">
        <ele>2.3</ele>
        <time>2022-06-02T13:32:13Z</time>
      </trkpt>
      <trkpt lat="49.39024" lon="-1.17592">
        <ele>2.3</ele>
        <time>2022-06-02T13:32:14Z</time>
      </trkpt>
      <trkpt lat="49.39024" lon="-1.17592">
        <ele>2.3</ele>
        <time>2022-06-02T13:32:15Z</time>
      </trkpt>
      <trkpt lat="49.39024" lon="-1.17592">
        <ele>2.3</ele>
        <time>2022-06-02T13:32:16Z</time>
      </trkpt>
      <trkpt lat="49.39024" lon="-1.17592">
        <ele>2.3</ele>
        <time>2022-06-02T13:32:17Z</time>
      </trkpt>
      <trkpt lat="49.39024" lon="-1.17592">
        <ele>2.3</ele>
        <time>2022-06-02T13:32:18Z</time>
      </trkpt>
      <trkpt lat="49.39024" lon="-1.17592">
        <ele>2.3</ele>
        <time>2022-06-02T13:32:19Z</time>
      </trkpt>
      <trkpt lat="49.39024" lon="-1.17592">
        <ele>2.3</ele>
        <time>2022-06-02T13:32:20Z</time>
      </trkpt>
      <trkpt lat="49.39024" lon="-1.17592">
        <ele>2.3</ele>
        <time>2022-06-02T13:32:21Z</time>
      </trkpt>
      <trkpt lat="49.39024" lon="-1.17592">
        <ele>2.3</ele>
        <time>2022-06-02T13:32:22Z</time>
      </trkpt>
      <trkpt lat="49.39024" lon="-1.17592">
        <ele>2.3</ele>
        <time>2022-06-02T13:32:23Z</time>
      </trkpt>
      <trkpt lat="49.39024" lon="-1.17591">
        <ele>2.3</ele>
        <time>2022-06-02T13:32:24Z</time>
      </trkpt>
      <trkpt lat="49.39024" lon="-1.17591">
        <ele>2.3</ele>
        <time>2022-06-02T13:32:25Z</time>
      </trkpt>
      <trkpt lat="49.39024" lon="-1.17591">
        <ele>2.3</ele>
        <time>2022-06-02T13:32:26Z</time>
      </trkpt>
      <trkpt lat="49.39024" lon="-1.17591">
        <ele>2.3</ele>
        <time>2022-06-02T13:32:27Z</time>
      </trkpt>
      <trkpt lat="49.39024" lon="-1.17591">
        <ele>2.3</ele>
        <time>2022-06-02T13:32:28Z</time>
      </trkpt>
      <trkpt lat="49.39024" lon="-1.17591">
        <ele>2.3</ele>
        <time>2022-06-02T13:32:29Z</time>
      </trkpt>
      <trkpt lat="49.39024" lon="-1.17591">
        <ele>2.3</ele>
        <time>2022-06-02T13:32:30Z</time>
      </trkpt>
      <trkpt lat="49.39024" lon="-1.17591">
        <ele>2.3</ele>
        <time>2022-06-02T13:32:31Z</time>
      </trkpt>
      <trkpt lat="49.39024" lon="-1.17592">
        <ele>2.2</ele>
        <time>2022-06-02T13:32:32Z</time>
      </trkpt>
      <trkpt lat="49.39024" lon="-1.17592">
        <ele>2.2</ele>
        <time>2022-06-02T13:32:33Z</time>
      </trkpt>
      <trkpt lat="49.39024" lon="-1.17592">
        <ele>2.2</ele>
        <time>2022-06-02T13:32:34Z</time>
      </trkpt>
      <trkpt lat="49.39024" lon="-1.17592">
        <ele>2.2</ele>
        <time>2022-06-02T13:32:35Z</time>
      </trkpt>
      <trkpt lat="49.39024" lon="-1.17592">
        <ele>2.2</ele>
        <time>2022-06-02T13:32:36Z</time>
      </trkpt>
      <trkpt lat="49.39024" lon="-1.17592">
        <ele>2.2</ele>
        <time>2022-06-02T13:32:37Z</time>
      </trkpt>
      <trkpt lat="49.39024" lon="-1.17592">
        <ele>2.2</ele>
        <time>2022-06-02T13:32:38Z</time>
      </trkpt>
      <trkpt lat="49.39024" lon="-1.17592">
        <ele>2.2</ele>
        <time>2022-06-02T13:32:39Z</time>
      </trkpt>
      <trkpt lat="49.39024" lon="-1.17592">
        <ele>2.2</ele>
        <time>2022-06-02T13:32:40Z</time>
      </trkpt>
      <trkpt lat="49.39024" lon="-1.17592">
        <ele>2.2</ele>
        <time>2022-06-02T13:32:41Z</time>
      </trkpt>
      <trkpt lat="49.39024" lon="-1.17592">
        <ele>2.2</ele>
        <time>2022-06-02T13:32:42Z</time>
      </trkpt>
      <trkpt lat="49.39024" lon="-1.17592">
        <ele>2.2</ele>
        <time>2022-06-02T13:32:43Z</time>
      </trkpt>
      <trkpt lat="49.39024" lon="-1.17592">
        <ele>2.2</ele>
        <time>2022-06-02T13:32:44Z</time>
      </trkpt>
      <trkpt lat="49.39024" lon="-1.17592">
        <ele>2.2</ele>
        <time>2022-06-02T13:32:45Z</time>
      </trkpt>
      <trkpt lat="49.39024" lon="-1.17592">
        <ele>2.2</ele>
        <time>2022-06-02T13:32:46Z</time>
      </trkpt>
      <trkpt lat="49.39024" lon="-1.17592">
        <ele>2.2</ele>
        <time>2022-06-02T13:32:47Z</time>
      </trkpt>
      <trkpt lat="49.39024" lon="-1.17592">
        <ele>2.2</ele>
        <time>2022-06-02T13:32:48Z</time>
      </trkpt>
      <trkpt lat="49.39024" lon="-1.17592">
        <ele>2.2</ele>
        <time>2022-06-02T13:32:49Z</time>
      </trkpt>
      <trkpt lat="49.39024" lon="-1.17592">
        <ele>2.2</ele>
        <time>2022-06-02T13:32:50Z</time>
      </trkpt>
      <trkpt lat="49.39024" lon="-1.17592">
        <ele>2.2</ele>
        <time>2022-06-02T13:32:51Z</time>
      </trkpt>
      <trkpt lat="49.39024" lon="-1.17592">
        <ele>2.2</ele>
        <time>2022-06-02T13:32:52Z</time>
      </trkpt>
      <trkpt lat="49.39024" lon="-1.17592">
        <ele>2.2</ele>
        <time>2022-06-02T13:32:53Z</time>
      </trkpt>
      <trkpt lat="49.39024" lon="-1.17592">
        <ele>2.2</ele>
        <time>2022-06-02T13:32:54Z</time>
      </trkpt>
      <trkpt lat="49.39024" lon="-1.17592">
        <ele>2.2</ele>
        <time>2022-06-02T13:32:55Z</time>
      </trkpt>
      <trkpt lat="49.39024" lon="-1.17592">
        <ele>2.2</ele>
        <time>2022-06-02T13:32:56Z</time>
      </trkpt>
      <trkpt lat="49.39024" lon="-1.17592">
        <ele>2.2</ele>
        <time>2022-06-02T13:32:57Z</time>
      </trkpt>
      <trkpt lat="49.39024" lon="-1.17592">
        <ele>2.2</ele>
        <time>2022-06-02T13:32:58Z</time>
      </trkpt>
      <trkpt lat="49.39024" lon="-1.17592">
        <ele>2.2</ele>
        <time>2022-06-02T13:32:59Z</time>
      </trkpt>
      <trkpt lat="49.39024" lon="-1.17592">
        <ele>2.2</ele>
        <time>2022-06-02T13:33:00Z</time>
      </trkpt>
      <trkpt lat="49.39024" lon="-1.17591">
        <ele>2.2</ele>
        <time>2022-06-02T13:33:01Z</time>
      </trkpt>
      <trkpt lat="49.39024" lon="-1.17591">
        <ele>2.2</ele>
        <time>2022-06-02T13:33:02Z</time>
      </trkpt>
      <trkpt lat="49.39025" lon="-1.17592">
        <ele>2.2</ele>
        <time>2022-06-02T13:33:04Z</time>
      </trkpt>
      <trkpt lat="49.39024" lon="-1.17592">
        <ele>2.2</ele>
        <time>2022-06-02T13:33:05Z</time>
      </trkpt>
      <trkpt lat="49.39024" lon="-1.17592">
        <ele>2.2</ele>
        <time>2022-06-02T13:33:06Z</time>
      </trkpt>
      <trkpt lat="49.39024" lon="-1.17592">
        <ele>2.2</ele>
        <time>2022-06-02T13:33:07Z</time>
      </trkpt>
      <trkpt lat="49.39024" lon="-1.17592">
        <ele>2.2</ele>
        <time>2022-06-02T13:33:08Z</time>
      </trkpt>
      <trkpt lat="49.39024" lon="-1.17592">
        <ele>2.2</ele>
        <time>2022-06-02T13:33:09Z</time>
      </trkpt>
      <trkpt lat="49.39024" lon="-1.17592">
        <ele>2.2</ele>
        <time>2022-06-02T13:33:10Z</time>
      </trkpt>
      <trkpt lat="49.39024" lon="-1.17592">
        <ele>2.2</ele>
        <time>2022-06-02T13:33:11Z</time>
      </trkpt>
      <trkpt lat="49.39024" lon="-1.17591">
        <ele>2.2</ele>
        <time>2022-06-02T13:33:12Z</time>
      </trkpt>
      <trkpt lat="49.39024" lon="-1.17591">
        <ele>2.2</ele>
        <time>2022-06-02T13:33:13Z</time>
      </trkpt>
      <trkpt lat="49.39024" lon="-1.17591">
        <ele>2.2</ele>
        <time>2022-06-02T13:33:14Z</time>
      </trkpt>
      <trkpt lat="49.39024" lon="-1.17592">
        <ele>2.2</ele>
        <time>2022-06-02T13:33:15Z</time>
      </trkpt>
      <trkpt lat="49.39024" lon="-1.17592">
        <ele>2.2</ele>
        <time>2022-06-02T13:33:16Z</time>
      </trkpt>
      <trkpt lat="49.39024" lon="-1.17592">
        <ele>2.2</ele>
        <time>2022-06-02T13:33:17Z</time>
      </trkpt>
      <trkpt lat="49.39024" lon="-1.17592">
        <ele>2.2</ele>
        <time>2022-06-02T13:33:18Z</time>
      </trkpt>
      <trkpt lat="49.39024" lon="-1.17592">
        <ele>2.2</ele>
        <time>2022-06-02T13:33:19Z</time>
      </trkpt>
      <trkpt lat="49.39024" lon="-1.17592">
        <ele>2.2</ele>
        <time>2022-06-02T13:33:20Z</time>
      </trkpt>
      <trkpt lat="49.39024" lon="-1.17592">
        <ele>2.2</ele>
        <time>2022-06-02T13:33:21Z</time>
      </trkpt>
      <trkpt lat="49.39024" lon="-1.17592">
        <ele>2.2</ele>
        <time>2022-06-02T13:33:22Z</time>
      </trkpt>
      <trkpt lat="49.39024" lon="-1.17592">
        <ele>2.2</ele>
        <time>2022-06-02T13:33:23Z</time>
      </trkpt>
      <trkpt lat="49.39024" lon="-1.17592">
        <ele>2.2</ele>
        <time>2022-06-02T13:33:24Z</time>
      </trkpt>
      <trkpt lat="49.39024" lon="-1.17592">
        <ele>2.2</ele>
        <time>2022-06-02T13:33:25Z</time>
      </trkpt>
      <trkpt lat="49.39024" lon="-1.17592">
        <ele>2.2</ele>
        <time>2022-06-02T13:33:26Z</time>
      </trkpt>
      <trkpt lat="49.39024" lon="-1.17592">
        <ele>2.2</ele>
        <time>2022-06-02T13:33:27Z</time>
      </trkpt>
      <trkpt lat="49.39024" lon="-1.17592">
        <ele>2.2</ele>
        <time>2022-06-02T13:33:28Z</time>
      </trkpt>
      <trkpt lat="49.39024" lon="-1.17592">
        <ele>2.2</ele>
        <time>2022-06-02T13:33:29Z</time>
      </trkpt>
      <trkpt lat="49.39024" lon="-1.17592">
        <ele>2.2</ele>
        <time>2022-06-02T13:33:30Z</time>
      </trkpt>
      <trkpt lat="49.39024" lon="-1.17592">
        <ele>2.2</ele>
        <time>2022-06-02T13:33:31Z</time>
      </trkpt>
      <trkpt lat="49.39024" lon="-1.17592">
        <ele>2.2</ele>
        <time>2022-06-02T13:33:32Z</time>
      </trkpt>
      <trkpt lat="49.39024" lon="-1.17592">
        <ele>2.2</ele>
        <time>2022-06-02T13:33:33Z</time>
      </trkpt>
      <trkpt lat="49.39024" lon="-1.17592">
        <ele>2.2</ele>
        <time>2022-06-02T13:33:34Z</time>
      </trkpt>
      <trkpt lat="49.39024" lon="-1.17592">
        <ele>2.2</ele>
        <time>2022-06-02T13:33:35Z</time>
      </trkpt>
      <trkpt lat="49.39024" lon="-1.17592">
        <ele>2.2</ele>
        <time>2022-06-02T13:33:36Z</time>
      </trkpt>
      <trkpt lat="49.39024" lon="-1.17592">
        <ele>2.2</ele>
        <time>2022-06-02T13:33:37Z</time>
      </trkpt>
      <trkpt lat="49.39024" lon="-1.17592">
        <ele>2.2</ele>
        <time>2022-06-02T13:33:38Z</time>
      </trkpt>
      <trkpt lat="49.39024" lon="-1.17592">
        <ele>2.2</ele>
        <time>2022-06-02T13:33:39Z</time>
      </trkpt>
      <trkpt lat="49.39024" lon="-1.17592">
        <ele>2.2</ele>
        <time>2022-06-02T13:33:40Z</time>
      </trkpt>
      <trkpt lat="49.39024" lon="-1.17592">
        <ele>2.2</ele>
        <time>2022-06-02T13:33:41Z</time>
      </trkpt>
      <trkpt lat="49.39024" lon="-1.17592">
        <ele>2.2</ele>
        <time>2022-06-02T13:33:42Z</time>
      </trkpt>
      <trkpt lat="49.39024" lon="-1.17592">
        <ele>2.2</ele>
        <time>2022-06-02T13:33:43Z</time>
      </trkpt>
      <trkpt lat="49.39024" lon="-1.17592">
        <ele>2.2</ele>
        <time>2022-06-02T13:33:44Z</time>
      </trkpt>
      <trkpt lat="49.39024" lon="-1.17592">
        <ele>2.2</ele>
        <time>2022-06-02T13:33:45Z</time>
      </trkpt>
      <trkpt lat="49.39024" lon="-1.17591">
        <ele>2.2</ele>
        <time>2022-06-02T13:33:46Z</time>
      </trkpt>
      <trkpt lat="49.39024" lon="-1.17591">
        <ele>2.2</ele>
        <time>2022-06-02T13:33:47Z</time>
      </trkpt>
      <trkpt lat="49.39025" lon="-1.17592">
        <ele>2.2</ele>
        <time>2022-06-02T13:33:48Z</time>
      </trkpt>
      <trkpt lat="49.39025" lon="-1.17592">
        <ele>2.2</ele>
        <time>2022-06-02T13:33:49Z</time>
      </trkpt>
      <trkpt lat="49.39025" lon="-1.17593">
        <ele>2.2</ele>
        <time>2022-06-02T13:33:50Z</time>
      </trkpt>
      <trkpt lat="49.39025" lon="-1.17593">
        <ele>2.2</ele>
        <time>2022-06-02T13:33:51Z</time>
      </trkpt>
      <trkpt lat="49.39025" lon="-1.17592">
        <ele>2.2</ele>
        <time>2022-06-02T13:33:52Z</time>
      </trkpt>
      <trkpt lat="49.39025" lon="-1.17592">
        <ele>2.2</ele>
        <time>2022-06-02T13:33:53Z</time>
      </trkpt>
      <trkpt lat="49.39024" lon="-1.17592">
        <ele>2.2</ele>
        <time>2022-06-02T13:33:54Z</time>
      </trkpt>
      <trkpt lat="49.39024" lon="-1.17592">
        <ele>2.2</ele>
        <time>2022-06-02T13:33:55Z</time>
      </trkpt>
      <trkpt lat="49.39024" lon="-1.17592">
        <ele>2.2</ele>
        <time>2022-06-02T13:33:56Z</time>
      </trkpt>
      <trkpt lat="49.39024" lon="-1.17592">
        <ele>2.2</ele>
        <time>2022-06-02T13:33:57Z</time>
      </trkpt>
      <trkpt lat="49.39024" lon="-1.17592">
        <ele>2.2</ele>
        <time>2022-06-02T13:33:58Z</time>
      </trkpt>
      <trkpt lat="49.39024" lon="-1.17591">
        <ele>2.2</ele>
        <time>2022-06-02T13:33:59Z</time>
      </trkpt>
      <trkpt lat="49.39024" lon="-1.17591">
        <ele>2.2</ele>
        <time>2022-06-02T13:34:00Z</time>
      </trkpt>
      <trkpt lat="49.39024" lon="-1.17591">
        <ele>2.2</ele>
        <time>2022-06-02T13:34:01Z</time>
      </trkpt>
      <trkpt lat="49.39024" lon="-1.17591">
        <ele>2.2</ele>
        <time>2022-06-02T13:34:02Z</time>
      </trkpt>
      <trkpt lat="49.39024" lon="-1.17591">
        <ele>2.2</ele>
        <time>2022-06-02T13:34:03Z</time>
      </trkpt>
      <trkpt lat="49.39024" lon="-1.17591">
        <ele>2.2</ele>
        <time>2022-06-02T13:34:04Z</time>
      </trkpt>
      <trkpt lat="49.39024" lon="-1.17591">
        <ele>2.1</ele>
        <time>2022-06-02T13:34:05Z</time>
      </trkpt>
      <trkpt lat="49.39024" lon="-1.17591">
        <ele>2.1</ele>
        <time>2022-06-02T13:34:06Z</time>
      </trkpt>
      <trkpt lat="49.39024" lon="-1.17591">
        <ele>2.1</ele>
        <time>2022-06-02T13:34:07Z</time>
      </trkpt>
      <trkpt lat="49.39024" lon="-1.17591">
        <ele>2.1</ele>
        <time>2022-06-02T13:34:08Z</time>
      </trkpt>
      <trkpt lat="49.39024" lon="-1.17592">
        <ele>2.1</ele>
        <time>2022-06-02T13:34:09Z</time>
      </trkpt>
      <trkpt lat="49.39024" lon="-1.17592">
        <ele>2.1</ele>
        <time>2022-06-02T13:34:10Z</time>
      </trkpt>
      <trkpt lat="49.39024" lon="-1.17592">
        <ele>2.1</ele>
        <time>2022-06-02T13:34:11Z</time>
      </trkpt>
      <trkpt lat="49.39024" lon="-1.17592">
        <ele>2.1</ele>
        <time>2022-06-02T13:34:12Z</time>
      </trkpt>
      <trkpt lat="49.39024" lon="-1.17592">
        <ele>2.1</ele>
        <time>2022-06-02T13:34:13Z</time>
      </trkpt>
      <trkpt lat="49.39024" lon="-1.17592">
        <ele>2.1</ele>
        <time>2022-06-02T13:34:14Z</time>
      </trkpt>
      <trkpt lat="49.39024" lon="-1.17592">
        <ele>2.1</ele>
        <time>2022-06-02T13:34:15Z</time>
      </trkpt>
      <trkpt lat="49.39024" lon="-1.17592">
        <ele>2.1</ele>
        <time>2022-06-02T13:34:16Z</time>
      </trkpt>
      <trkpt lat="49.39024" lon="-1.17592">
        <ele>2.1</ele>
        <time>2022-06-02T13:34:17Z</time>
      </trkpt>
      <trkpt lat="49.39024" lon="-1.17592">
        <ele>2.1</ele>
        <time>2022-06-02T13:34:18Z</time>
      </trkpt>
      <trkpt lat="49.39024" lon="-1.17592">
        <ele>2.1</ele>
        <time>2022-06-02T13:34:19Z</time>
      </trkpt>
      <trkpt lat="49.39024" lon="-1.17592">
        <ele>2.1</ele>
        <time>2022-06-02T13:34:20Z</time>
      </trkpt>
      <trkpt lat="49.39024" lon="-1.17592">
        <ele>2.1</ele>
        <time>2022-06-02T13:34:21Z</time>
      </trkpt>
      <trkpt lat="49.39024" lon="-1.17591">
        <ele>2.1</ele>
        <time>2022-06-02T13:34:22Z</time>
      </trkpt>
      <trkpt lat="49.39024" lon="-1.17591">
        <ele>2.1</ele>
        <time>2022-06-02T13:34:23Z</time>
      </trkpt>
      <trkpt lat="49.39024" lon="-1.17591">
        <ele>2.1</ele>
        <time>2022-06-02T13:34:24Z</time>
      </trkpt>
      <trkpt lat="49.39024" lon="-1.17591">
        <ele>2.1</ele>
        <time>2022-06-02T13:34:25Z</time>
      </trkpt>
      <trkpt lat="49.39025" lon="-1.17591">
        <ele>2.1</ele>
        <time>2022-06-02T13:34:26Z</time>
      </trkpt>
      <trkpt lat="49.39025" lon="-1.17592">
        <ele>2.1</ele>
        <time>2022-06-02T13:34:27Z</time>
      </trkpt>
      <trkpt lat="49.39024" lon="-1.17593">
        <ele>2.1</ele>
        <time>2022-06-02T13:34:29Z</time>
      </trkpt>
      <trkpt lat="49.39023" lon="-1.17593">
        <ele>2.1</ele>
        <time>2022-06-02T13:34:30Z</time>
      </trkpt>
      <trkpt lat="49.39023" lon="-1.17593">
        <ele>2.1</ele>
        <time>2022-06-02T13:34:31Z</time>
      </trkpt>
      <trkpt lat="49.39022" lon="-1.17594">
        <ele>2.1</ele>
        <time>2022-06-02T13:34:32Z</time>
      </trkpt>
      <trkpt lat="49.39021" lon="-1.17594">
        <ele>2.1</ele>
        <time>2022-06-02T13:34:34Z</time>
      </trkpt>
      <trkpt lat="49.39021" lon="-1.17594">
        <ele>2.1</ele>
        <time>2022-06-02T13:34:35Z</time>
      </trkpt>
      <trkpt lat="49.39021" lon="-1.17594">
        <ele>2</ele>
        <time>2022-06-02T13:34:36Z</time>
      </trkpt>
      <trkpt lat="49.3902" lon="-1.17594">
        <ele>2</ele>
        <time>2022-06-02T13:34:37Z</time>
      </trkpt>
      <trkpt lat="49.3902" lon="-1.17594">
        <ele>2</ele>
        <time>2022-06-02T13:34:38Z</time>
      </trkpt>
      <trkpt lat="49.39019" lon="-1.17594">
        <ele>2</ele>
        <time>2022-06-02T13:34:40Z</time>
      </trkpt>
      <trkpt lat="49.39018" lon="-1.17594">
        <ele>2</ele>
        <time>2022-06-02T13:34:41Z</time>
      </trkpt>
      <trkpt lat="49.39017" lon="-1.17593">
        <ele>2</ele>
        <time>2022-06-02T13:34:42Z</time>
      </trkpt>
      <trkpt lat="49.39016" lon="-1.17593">
        <ele>2</ele>
        <time>2022-06-02T13:34:43Z</time>
      </trkpt>
      <trkpt lat="49.39015" lon="-1.17592">
        <ele>2</ele>
        <time>2022-06-02T13:34:44Z</time>
      </trkpt>
      <trkpt lat="49.39015" lon="-1.17591">
        <ele>1.9</ele>
        <time>2022-06-02T13:34:45Z</time>
      </trkpt>
      <trkpt lat="49.39014" lon="-1.17591">
        <ele>1.9</ele>
        <time>2022-06-02T13:34:46Z</time>
      </trkpt>
      <trkpt lat="49.39013" lon="-1.17592">
        <ele>1.9</ele>
        <time>2022-06-02T13:34:47Z</time>
      </trkpt>
      <trkpt lat="49.39011" lon="-1.17592">
        <ele>1.9</ele>
        <time>2022-06-02T13:34:48Z</time>
      </trkpt>
      <trkpt lat="49.39011" lon="-1.17593">
        <ele>1.9</ele>
        <time>2022-06-02T13:34:50Z</time>
      </trkpt>
      <trkpt lat="49.3901" lon="-1.17593">
        <ele>1.9</ele>
        <time>2022-06-02T13:34:51Z</time>
      </trkpt>
      <trkpt lat="49.39008" lon="-1.17593">
        <ele>1.9</ele>
        <time>2022-06-02T13:34:52Z</time>
      </trkpt>
      <trkpt lat="49.39007" lon="-1.17593">
        <ele>1.8</ele>
        <time>2022-06-02T13:34:53Z</time>
      </trkpt>
      <trkpt lat="49.39005" lon="-1.17593">
        <ele>1.8</ele>
        <time>2022-06-02T13:34:54Z</time>
      </trkpt>
      <trkpt lat="49.39004" lon="-1.17593">
        <ele>1.8</ele>
        <time>2022-06-02T13:34:55Z</time>
      </trkpt>
      <trkpt lat="49.39002" lon="-1.17594">
        <ele>1.8</ele>
        <time>2022-06-02T13:34:56Z</time>
      </trkpt>
      <trkpt lat="49.39001" lon="-1.17594">
        <ele>1.8</ele>
        <time>2022-06-02T13:34:57Z</time>
      </trkpt>
      <trkpt lat="49.39" lon="-1.17595">
        <ele>1.8</ele>
        <time>2022-06-02T13:34:58Z</time>
      </trkpt>
      <trkpt lat="49.39" lon="-1.17595">
        <ele>1.8</ele>
        <time>2022-06-02T13:34:59Z</time>
      </trkpt>
      <trkpt lat="49.38999" lon="-1.17596">
        <ele>1.7</ele>
        <time>2022-06-02T13:35:01Z</time>
      </trkpt>
      <trkpt lat="49.38998" lon="-1.17596">
        <ele>1.7</ele>
        <time>2022-06-02T13:35:02Z</time>
      </trkpt>
      <trkpt lat="49.38996" lon="-1.17597">
        <ele>1.7</ele>
        <time>2022-06-02T13:35:03Z</time>
      </trkpt>
      <trkpt lat="49.38995" lon="-1.17597">
        <ele>1.7</ele>
        <time>2022-06-02T13:35:04Z</time>
      </trkpt>
      <trkpt lat="49.38994" lon="-1.17597">
        <ele>1.7</ele>
        <time>2022-06-02T13:35:05Z</time>
      </trkpt>
      <trkpt lat="49.38993" lon="-1.17597">
        <ele>1.7</ele>
        <time>2022-06-02T13:35:07Z</time>
      </trkpt>
      <trkpt lat="49.38992" lon="-1.17597">
        <ele>1.6</ele>
        <time>2022-06-02T13:35:08Z</time>
      </trkpt>
      <trkpt lat="49.38991" lon="-1.17597">
        <ele>1.6</ele>
        <time>2022-06-02T13:35:09Z</time>
      </trkpt>
      <trkpt lat="49.38991" lon="-1.17597">
        <ele>1.6</ele>
        <time>2022-06-02T13:35:10Z</time>
      </trkpt>
      <trkpt lat="49.38989" lon="-1.17598">
        <ele>1.6</ele>
        <time>2022-06-02T13:35:11Z</time>
      </trkpt>
      <trkpt lat="49.38989" lon="-1.17598">
        <ele>1.6</ele>
        <time>2022-06-02T13:35:12Z</time>
      </trkpt>
      <trkpt lat="49.38988" lon="-1.17598">
        <ele>1.6</ele>
        <time>2022-06-02T13:35:14Z</time>
      </trkpt>
      <trkpt lat="49.38986" lon="-1.17598">
        <ele>1.6</ele>
        <time>2022-06-02T13:35:15Z</time>
      </trkpt>
      <trkpt lat="49.38985" lon="-1.17598">
        <ele>1.5</ele>
        <time>2022-06-02T13:35:16Z</time>
      </trkpt>
      <trkpt lat="49.38984" lon="-1.17598">
        <ele>1.5</ele>
        <time>2022-06-02T13:35:17Z</time>
      </trkpt>
      <trkpt lat="49.38982" lon="-1.17599">
        <ele>1.5</ele>
        <time>2022-06-02T13:35:18Z</time>
      </trkpt>
      <trkpt lat="49.3898" lon="-1.176">
        <ele>1.5</ele>
        <time>2022-06-02T13:35:20Z</time>
      </trkpt>
      <trkpt lat="49.38978" lon="-1.176">
        <ele>1.4</ele>
        <time>2022-06-02T13:35:21Z</time>
      </trkpt>
      <trkpt lat="49.38977" lon="-1.17601">
        <ele>1.4</ele>
        <time>2022-06-02T13:35:22Z</time>
      </trkpt>
      <trkpt lat="49.38975" lon="-1.17602">
        <ele>1.4</ele>
        <time>2022-06-02T13:35:23Z</time>
      </trkpt>
      <trkpt lat="49.38974" lon="-1.17603">
        <ele>1.4</ele>
        <time>2022-06-02T13:35:24Z</time>
      </trkpt>
      <trkpt lat="49.38972" lon="-1.17604">
        <ele>1.4</ele>
        <time>2022-06-02T13:35:26Z</time>
      </trkpt>
      <trkpt lat="49.3897" lon="-1.17604">
        <ele>1.4</ele>
        <time>2022-06-02T13:35:27Z</time>
      </trkpt>
      <trkpt lat="49.38968" lon="-1.17604">
        <ele>1.3</ele>
        <time>2022-06-02T13:35:28Z</time>
      </trkpt>
      <trkpt lat="49.38967" lon="-1.17604">
        <ele>1.3</ele>
        <time>2022-06-02T13:35:29Z</time>
      </trkpt>
      <trkpt lat="49.38965" lon="-1.17605">
        <ele>1.3</ele>
        <time>2022-06-02T13:35:30Z</time>
      </trkpt>
      <trkpt lat="49.38964" lon="-1.17605">
        <ele>1.3</ele>
        <time>2022-06-02T13:35:31Z</time>
      </trkpt>
      <trkpt lat="49.38963" lon="-1.17605">
        <ele>1.3</ele>
        <time>2022-06-02T13:35:32Z</time>
      </trkpt>
      <trkpt lat="49.3896" lon="-1.17605">
        <ele>1.3</ele>
        <time>2022-06-02T13:35:34Z</time>
      </trkpt>
      <trkpt lat="49.38959" lon="-1.17605">
        <ele>1.3</ele>
        <time>2022-06-02T13:35:35Z</time>
      </trkpt>
      <trkpt lat="49.38957" lon="-1.17605">
        <ele>1.3</ele>
        <time>2022-06-02T13:35:36Z</time>
      </trkpt>
      <trkpt lat="49.38956" lon="-1.17605">
        <ele>1.3</ele>
        <time>2022-06-02T13:35:37Z</time>
      </trkpt>
      <trkpt lat="49.38955" lon="-1.17605">
        <ele>1.3</ele>
        <time>2022-06-02T13:35:38Z</time>
      </trkpt>
      <trkpt lat="49.38954" lon="-1.17605">
        <ele>1.3</ele>
        <time>2022-06-02T13:35:39Z</time>
      </trkpt>
      <trkpt lat="49.38952" lon="-1.17604">
        <ele>1.3</ele>
        <time>2022-06-02T13:35:41Z</time>
      </trkpt>
      <trkpt lat="49.38951" lon="-1.17604">
        <ele>1.3</ele>
        <time>2022-06-02T13:35:42Z</time>
      </trkpt>
      <trkpt lat="49.3895" lon="-1.17604">
        <ele>1.3</ele>
        <time>2022-06-02T13:35:43Z</time>
      </trkpt>
      <trkpt lat="49.38948" lon="-1.17604">
        <ele>1.3</ele>
        <time>2022-06-02T13:35:44Z</time>
      </trkpt>
      <trkpt lat="49.38947" lon="-1.17604">
        <ele>1.3</ele>
        <time>2022-06-02T13:35:45Z</time>
      </trkpt>
      <trkpt lat="49.38945" lon="-1.17604">
        <ele>1.3</ele>
        <time>2022-06-02T13:35:46Z</time>
      </trkpt>
      <trkpt lat="49.38943" lon="-1.17604">
        <ele>1.3</ele>
        <time>2022-06-02T13:35:47Z</time>
      </trkpt>
      <trkpt lat="49.38942" lon="-1.17604">
        <ele>1.3</ele>
        <time>2022-06-02T13:35:48Z</time>
      </trkpt>
      <trkpt lat="49.38941" lon="-1.17605">
        <ele>1.3</ele>
        <time>2022-06-02T13:35:49Z</time>
      </trkpt>
      <trkpt lat="49.38939" lon="-1.17605">
        <ele>1.4</ele>
        <time>2022-06-02T13:35:51Z</time>
      </trkpt>
      <trkpt lat="49.38939" lon="-1.17606">
        <ele>1.4</ele>
        <time>2022-06-02T13:35:52Z</time>
      </trkpt>
      <trkpt lat="49.38936" lon="-1.17607">
        <ele>1.4</ele>
        <time>2022-06-02T13:35:53Z</time>
      </trkpt>
      <trkpt lat="49.38935" lon="-1.17607">
        <ele>1.4</ele>
        <time>2022-06-02T13:35:54Z</time>
      </trkpt>
      <trkpt lat="49.38934" lon="-1.17608">
        <ele>1.4</ele>
        <time>2022-06-02T13:35:55Z</time>
      </trkpt>
      <trkpt lat="49.38933" lon="-1.17608">
        <ele>1.4</ele>
        <time>2022-06-02T13:35:56Z</time>
      </trkpt>
      <trkpt lat="49.38932" lon="-1.17608">
        <ele>1.4</ele>
        <time>2022-06-02T13:35:57Z</time>
      </trkpt>
      <trkpt lat="49.38931" lon="-1.17609">
        <ele>1.4</ele>
        <time>2022-06-02T13:35:58Z</time>
      </trkpt>
      <trkpt lat="49.38929" lon="-1.17609">
        <ele>1.4</ele>
        <time>2022-06-02T13:36:00Z</time>
      </trkpt>
      <trkpt lat="49.38928" lon="-1.1761">
        <ele>1.4</ele>
        <time>2022-06-02T13:36:01Z</time>
      </trkpt>
      <trkpt lat="49.38927" lon="-1.1761">
        <ele>1.4</ele>
        <time>2022-06-02T13:36:02Z</time>
      </trkpt>
      <trkpt lat="49.38925" lon="-1.17611">
        <ele>1.4</ele>
        <time>2022-06-02T13:36:03Z</time>
      </trkpt>
      <trkpt lat="49.38924" lon="-1.17612">
        <ele>1.4</ele>
        <time>2022-06-02T13:36:04Z</time>
      </trkpt>
      <trkpt lat="49.38924" lon="-1.17612">
        <ele>1.4</ele>
        <time>2022-06-02T13:36:05Z</time>
      </trkpt>
      <trkpt lat="49.38922" lon="-1.17612">
        <ele>1.5</ele>
        <time>2022-06-02T13:36:06Z</time>
      </trkpt>
      <trkpt lat="49.38921" lon="-1.17612">
        <ele>1.5</ele>
        <time>2022-06-02T13:36:07Z</time>
      </trkpt>
      <trkpt lat="49.38921" lon="-1.17613">
        <ele>1.5</ele>
        <time>2022-06-02T13:36:08Z</time>
      </trkpt>
      <trkpt lat="49.38919" lon="-1.17613">
        <ele>1.5</ele>
        <time>2022-06-02T13:36:09Z</time>
      </trkpt>
      <trkpt lat="49.38918" lon="-1.17613">
        <ele>1.5</ele>
        <time>2022-06-02T13:36:10Z</time>
      </trkpt>
      <trkpt lat="49.38917" lon="-1.17613">
        <ele>1.5</ele>
        <time>2022-06-02T13:36:11Z</time>
      </trkpt>
      <trkpt lat="49.38916" lon="-1.17613">
        <ele>1.5</ele>
        <time>2022-06-02T13:36:12Z</time>
      </trkpt>
      <trkpt lat="49.38915" lon="-1.17613">
        <ele>1.5</ele>
        <time>2022-06-02T13:36:13Z</time>
      </trkpt>
      <trkpt lat="49.38913" lon="-1.17613">
        <ele>1.5</ele>
        <time>2022-06-02T13:36:14Z</time>
      </trkpt>
      <trkpt lat="49.38911" lon="-1.17613">
        <ele>1.5</ele>
        <time>2022-06-02T13:36:16Z</time>
      </trkpt>
      <trkpt lat="49.3891" lon="-1.17613">
        <ele>1.5</ele>
        <time>2022-06-02T13:36:17Z</time>
      </trkpt>
      <trkpt lat="49.38909" lon="-1.17613">
        <ele>1.5</ele>
        <time>2022-06-02T13:36:18Z</time>
      </trkpt>
      <trkpt lat="49.38908" lon="-1.17613">
        <ele>1.5</ele>
        <time>2022-06-02T13:36:19Z</time>
      </trkpt>
      <trkpt lat="49.38907" lon="-1.17613">
        <ele>1.5</ele>
        <time>2022-06-02T13:36:20Z</time>
      </trkpt>
      <trkpt lat="49.38905" lon="-1.17614">
        <ele>1.5</ele>
        <time>2022-06-02T13:36:21Z</time>
      </trkpt>
      <trkpt lat="49.38904" lon="-1.17614">
        <ele>1.6</ele>
        <time>2022-06-02T13:36:22Z</time>
      </trkpt>
      <trkpt lat="49.38902" lon="-1.17614">
        <ele>1.6</ele>
        <time>2022-06-02T13:36:23Z</time>
      </trkpt>
      <trkpt lat="49.38901" lon="-1.17614">
        <ele>1.6</ele>
        <time>2022-06-02T13:36:24Z</time>
      </trkpt>
      <trkpt lat="49.389" lon="-1.17614">
        <ele>1.6</ele>
        <time>2022-06-02T13:36:25Z</time>
      </trkpt>
      <trkpt lat="49.38899" lon="-1.17614">
        <ele>1.6</ele>
        <time>2022-06-02T13:36:27Z</time>
      </trkpt>
      <trkpt lat="49.38898" lon="-1.17614">
        <ele>1.6</ele>
        <time>2022-06-02T13:36:28Z</time>
      </trkpt>
      <trkpt lat="49.38896" lon="-1.17615">
        <ele>1.6</ele>
        <time>2022-06-02T13:36:29Z</time>
      </trkpt>
      <trkpt lat="49.38895" lon="-1.17615">
        <ele>1.6</ele>
        <time>2022-06-02T13:36:30Z</time>
      </trkpt>
      <trkpt lat="49.38893" lon="-1.17616">
        <ele>1.6</ele>
        <time>2022-06-02T13:36:31Z</time>
      </trkpt>
      <trkpt lat="49.38892" lon="-1.17616">
        <ele>1.6</ele>
        <time>2022-06-02T13:36:32Z</time>
      </trkpt>
      <trkpt lat="49.38891" lon="-1.17616">
        <ele>1.6</ele>
        <time>2022-06-02T13:36:33Z</time>
      </trkpt>
      <trkpt lat="49.3889" lon="-1.17616">
        <ele>1.6</ele>
        <time>2022-06-02T13:36:34Z</time>
      </trkpt>
      <trkpt lat="49.38889" lon="-1.17617">
        <ele>1.6</ele>
        <time>2022-06-02T13:36:35Z</time>
      </trkpt>
      <trkpt lat="49.38888" lon="-1.17617">
        <ele>1.6</ele>
        <time>2022-06-02T13:36:36Z</time>
      </trkpt>
      <trkpt lat="49.38887" lon="-1.17617">
        <ele>1.6</ele>
        <time>2022-06-02T13:36:37Z</time>
      </trkpt>
      <trkpt lat="49.38885" lon="-1.17618">
        <ele>1.6</ele>
        <time>2022-06-02T13:36:39Z</time>
      </trkpt>
      <trkpt lat="49.38884" lon="-1.17618">
        <ele>1.6</ele>
        <time>2022-06-02T13:36:40Z</time>
      </trkpt>
      <trkpt lat="49.38882" lon="-1.17619">
        <ele>1.6</ele>
        <time>2022-06-02T13:36:41Z</time>
      </trkpt>
      <trkpt lat="49.38881" lon="-1.17619">
        <ele>1.6</ele>
        <time>2022-06-02T13:36:42Z</time>
      </trkpt>
      <trkpt lat="49.38879" lon="-1.17619">
        <ele>1.6</ele>
        <time>2022-06-02T13:36:44Z</time>
      </trkpt>
      <trkpt lat="49.38878" lon="-1.1762">
        <ele>1.6</ele>
        <time>2022-06-02T13:36:45Z</time>
      </trkpt>
      <trkpt lat="49.38876" lon="-1.1762">
        <ele>1.7</ele>
        <time>2022-06-02T13:36:46Z</time>
      </trkpt>
      <trkpt lat="49.38876" lon="-1.1762">
        <ele>1.7</ele>
        <time>2022-06-02T13:36:47Z</time>
      </trkpt>
      <trkpt lat="49.38875" lon="-1.17621">
        <ele>1.7</ele>
        <time>2022-06-02T13:36:48Z</time>
      </trkpt>
      <trkpt lat="49.38873" lon="-1.17621">
        <ele>1.7</ele>
        <time>2022-06-02T13:36:49Z</time>
      </trkpt>
      <trkpt lat="49.38872" lon="-1.17622">
        <ele>1.7</ele>
        <time>2022-06-02T13:36:50Z</time>
      </trkpt>
      <trkpt lat="49.3887" lon="-1.17622">
        <ele>1.7</ele>
        <time>2022-06-02T13:36:51Z</time>
      </trkpt>
      <trkpt lat="49.38869" lon="-1.17622">
        <ele>1.7</ele>
        <time>2022-06-02T13:36:52Z</time>
      </trkpt>
      <trkpt lat="49.38867" lon="-1.17623">
        <ele>1.7</ele>
        <time>2022-06-02T13:36:53Z</time>
      </trkpt>
      <trkpt lat="49.38866" lon="-1.17623">
        <ele>1.7</ele>
        <time>2022-06-02T13:36:55Z</time>
      </trkpt>
      <trkpt lat="49.38864" lon="-1.17623">
        <ele>1.7</ele>
        <time>2022-06-02T13:36:56Z</time>
      </trkpt>
      <trkpt lat="49.38864" lon="-1.17623">
        <ele>1.7</ele>
        <time>2022-06-02T13:36:57Z</time>
      </trkpt>
      <trkpt lat="49.38862" lon="-1.17624">
        <ele>1.7</ele>
        <time>2022-06-02T13:36:58Z</time>
      </trkpt>
      <trkpt lat="49.38861" lon="-1.17624">
        <ele>1.7</ele>
        <time>2022-06-02T13:36:59Z</time>
      </trkpt>
      <trkpt lat="49.38859" lon="-1.17625">
        <ele>1.8</ele>
        <time>2022-06-02T13:37:01Z</time>
      </trkpt>
      <trkpt lat="49.38858" lon="-1.17625">
        <ele>1.8</ele>
        <time>2022-06-02T13:37:02Z</time>
      </trkpt>
      <trkpt lat="49.38857" lon="-1.17625">
        <ele>1.8</ele>
        <time>2022-06-02T13:37:03Z</time>
      </trkpt>
      <trkpt lat="49.38855" lon="-1.17625">
        <ele>1.8</ele>
        <time>2022-06-02T13:37:04Z</time>
      </trkpt>
      <trkpt lat="49.38854" lon="-1.17625">
        <ele>1.8</ele>
        <time>2022-06-02T13:37:05Z</time>
      </trkpt>
      <trkpt lat="49.38852" lon="-1.17626">
        <ele>1.8</ele>
        <time>2022-06-02T13:37:06Z</time>
      </trkpt>
      <trkpt lat="49.3885" lon="-1.17626">
        <ele>1.8</ele>
        <time>2022-06-02T13:37:07Z</time>
      </trkpt>
      <trkpt lat="49.38849" lon="-1.17626">
        <ele>1.8</ele>
        <time>2022-06-02T13:37:09Z</time>
      </trkpt>
      <trkpt lat="49.38848" lon="-1.17627">
        <ele>1.8</ele>
        <time>2022-06-02T13:37:10Z</time>
      </trkpt>
      <trkpt lat="49.38846" lon="-1.17627">
        <ele>1.8</ele>
        <time>2022-06-02T13:37:11Z</time>
      </trkpt>
      <trkpt lat="49.38845" lon="-1.17628">
        <ele>1.9</ele>
        <time>2022-06-02T13:37:12Z</time>
      </trkpt>
      <trkpt lat="49.38845" lon="-1.17628">
        <ele>1.9</ele>
        <time>2022-06-02T13:37:13Z</time>
      </trkpt>
      <trkpt lat="49.38844" lon="-1.17628">
        <ele>1.9</ele>
        <time>2022-06-02T13:37:14Z</time>
      </trkpt>
      <trkpt lat="49.38842" lon="-1.17629">
        <ele>1.9</ele>
        <time>2022-06-02T13:37:15Z</time>
      </trkpt>
      <trkpt lat="49.38841" lon="-1.1763">
        <ele>1.9</ele>
        <time>2022-06-02T13:37:16Z</time>
      </trkpt>
      <trkpt lat="49.3884" lon="-1.17631">
        <ele>1.9</ele>
        <time>2022-06-02T13:37:17Z</time>
      </trkpt>
      <trkpt lat="49.38838" lon="-1.17631">
        <ele>1.9</ele>
        <time>2022-06-02T13:37:18Z</time>
      </trkpt>
      <trkpt lat="49.38837" lon="-1.17632">
        <ele>1.9</ele>
        <time>2022-06-02T13:37:19Z</time>
      </trkpt>
      <trkpt lat="49.38835" lon="-1.17633">
        <ele>1.9</ele>
        <time>2022-06-02T13:37:21Z</time>
      </trkpt>
      <trkpt lat="49.38834" lon="-1.17633">
        <ele>1.8</ele>
        <time>2022-06-02T13:37:22Z</time>
      </trkpt>
      <trkpt lat="49.38833" lon="-1.17634">
        <ele>1.8</ele>
        <time>2022-06-02T13:37:23Z</time>
      </trkpt>
      <trkpt lat="49.38832" lon="-1.17634">
        <ele>1.8</ele>
        <time>2022-06-02T13:37:24Z</time>
      </trkpt>
      <trkpt lat="49.38831" lon="-1.17635">
        <ele>1.8</ele>
        <time>2022-06-02T13:37:25Z</time>
      </trkpt>
      <trkpt lat="49.3883" lon="-1.17636">
        <ele>1.8</ele>
        <time>2022-06-02T13:37:27Z</time>
      </trkpt>
      <trkpt lat="49.38829" lon="-1.17636">
        <ele>1.8</ele>
        <time>2022-06-02T13:37:28Z</time>
      </trkpt>
      <trkpt lat="49.38827" lon="-1.17637">
        <ele>1.8</ele>
        <time>2022-06-02T13:37:29Z</time>
      </trkpt>
      <trkpt lat="49.38826" lon="-1.17637">
        <ele>1.8</ele>
        <time>2022-06-02T13:37:30Z</time>
      </trkpt>
      <trkpt lat="49.38825" lon="-1.17637">
        <ele>1.8</ele>
        <time>2022-06-02T13:37:31Z</time>
      </trkpt>
      <trkpt lat="49.38824" lon="-1.17637">
        <ele>1.8</ele>
        <time>2022-06-02T13:37:32Z</time>
      </trkpt>
      <trkpt lat="49.38823" lon="-1.17637">
        <ele>1.8</ele>
        <time>2022-06-02T13:37:33Z</time>
      </trkpt>
      <trkpt lat="49.38822" lon="-1.17638">
        <ele>1.8</ele>
        <time>2022-06-02T13:37:34Z</time>
      </trkpt>
      <trkpt lat="49.3882" lon="-1.17638">
        <ele>1.8</ele>
        <time>2022-06-02T13:37:36Z</time>
      </trkpt>
      <trkpt lat="49.3882" lon="-1.17639">
        <ele>1.8</ele>
        <time>2022-06-02T13:37:37Z</time>
      </trkpt>
      <trkpt lat="49.38819" lon="-1.17639">
        <ele>1.8</ele>
        <time>2022-06-02T13:37:38Z</time>
      </trkpt>
      <trkpt lat="49.38817" lon="-1.1764">
        <ele>1.8</ele>
        <time>2022-06-02T13:37:39Z</time>
      </trkpt>
      <trkpt lat="49.38816" lon="-1.1764">
        <ele>1.8</ele>
        <time>2022-06-02T13:37:40Z</time>
      </trkpt>
      <trkpt lat="49.38815" lon="-1.1764">
        <ele>1.8</ele>
        <time>2022-06-02T13:37:41Z</time>
      </trkpt>
      <trkpt lat="49.38814" lon="-1.17641">
        <ele>1.8</ele>
        <time>2022-06-02T13:37:42Z</time>
      </trkpt>
      <trkpt lat="49.38813" lon="-1.17641">
        <ele>1.8</ele>
        <time>2022-06-02T13:37:43Z</time>
      </trkpt>
      <trkpt lat="49.38812" lon="-1.17641">
        <ele>1.8</ele>
        <time>2022-06-02T13:37:45Z</time>
      </trkpt>
      <trkpt lat="49.3881" lon="-1.17642">
        <ele>1.8</ele>
        <time>2022-06-02T13:37:46Z</time>
      </trkpt>
      <trkpt lat="49.38808" lon="-1.17642">
        <ele>1.8</ele>
        <time>2022-06-02T13:37:47Z</time>
      </trkpt>
      <trkpt lat="49.38807" lon="-1.17643">
        <ele>1.8</ele>
        <time>2022-06-02T13:37:48Z</time>
      </trkpt>
      <trkpt lat="49.38806" lon="-1.17643">
        <ele>1.8</ele>
        <time>2022-06-02T13:37:49Z</time>
      </trkpt>
      <trkpt lat="49.38805" lon="-1.17644">
        <ele>1.8</ele>
        <time>2022-06-02T13:37:50Z</time>
      </trkpt>
      <trkpt lat="49.38803" lon="-1.17645">
        <ele>1.8</ele>
        <time>2022-06-02T13:37:51Z</time>
      </trkpt>
      <trkpt lat="49.38802" lon="-1.17645">
        <ele>1.8</ele>
        <time>2022-06-02T13:37:53Z</time>
      </trkpt>
      <trkpt lat="49.38801" lon="-1.17645">
        <ele>1.8</ele>
        <time>2022-06-02T13:37:54Z</time>
      </trkpt>
      <trkpt lat="49.388" lon="-1.17646">
        <ele>1.8</ele>
        <time>2022-06-02T13:37:55Z</time>
      </trkpt>
      <trkpt lat="49.38799" lon="-1.17646">
        <ele>1.8</ele>
        <time>2022-06-02T13:37:56Z</time>
      </trkpt>
      <trkpt lat="49.38797" lon="-1.17646">
        <ele>1.8</ele>
        <time>2022-06-02T13:37:58Z</time>
      </trkpt>
      <trkpt lat="49.38796" lon="-1.17647">
        <ele>1.8</ele>
        <time>2022-06-02T13:37:59Z</time>
      </trkpt>
      <trkpt lat="49.38795" lon="-1.17647">
        <ele>1.8</ele>
        <time>2022-06-02T13:38:00Z</time>
      </trkpt>
      <trkpt lat="49.38793" lon="-1.17647">
        <ele>1.8</ele>
        <time>2022-06-02T13:38:01Z</time>
      </trkpt>
      <trkpt lat="49.38792" lon="-1.17647">
        <ele>1.8</ele>
        <time>2022-06-02T13:38:02Z</time>
      </trkpt>
      <trkpt lat="49.3879" lon="-1.17648">
        <ele>1.8</ele>
        <time>2022-06-02T13:38:03Z</time>
      </trkpt>
      <trkpt lat="49.38789" lon="-1.17648">
        <ele>1.8</ele>
        <time>2022-06-02T13:38:04Z</time>
      </trkpt>
      <trkpt lat="49.38788" lon="-1.17648">
        <ele>1.9</ele>
        <time>2022-06-02T13:38:05Z</time>
      </trkpt>
      <trkpt lat="49.38786" lon="-1.17648">
        <ele>1.9</ele>
        <time>2022-06-02T13:38:06Z</time>
      </trkpt>
      <trkpt lat="49.38785" lon="-1.17649">
        <ele>1.9</ele>
        <time>2022-06-02T13:38:07Z</time>
      </trkpt>
      <trkpt lat="49.38784" lon="-1.17649">
        <ele>1.9</ele>
        <time>2022-06-02T13:38:09Z</time>
      </trkpt>
      <trkpt lat="49.38783" lon="-1.1765">
        <ele>1.9</ele>
        <time>2022-06-02T13:38:10Z</time>
      </trkpt>
      <trkpt lat="49.3878" lon="-1.1765">
        <ele>1.9</ele>
        <time>2022-06-02T13:38:12Z</time>
      </trkpt>
      <trkpt lat="49.38778" lon="-1.17651">
        <ele>1.9</ele>
        <time>2022-06-02T13:38:13Z</time>
      </trkpt>
      <trkpt lat="49.38777" lon="-1.17651">
        <ele>1.9</ele>
        <time>2022-06-02T13:38:14Z</time>
      </trkpt>
      <trkpt lat="49.38777" lon="-1.17651">
        <ele>1.9</ele>
        <time>2022-06-02T13:38:15Z</time>
      </trkpt>
      <trkpt lat="49.38775" lon="-1.17651">
        <ele>1.9</ele>
        <time>2022-06-02T13:38:16Z</time>
      </trkpt>
      <trkpt lat="49.38774" lon="-1.17652">
        <ele>1.9</ele>
        <time>2022-06-02T13:38:17Z</time>
      </trkpt>
      <trkpt lat="49.38773" lon="-1.17652">
        <ele>1.9</ele>
        <time>2022-06-02T13:38:18Z</time>
      </trkpt>
      <trkpt lat="49.38772" lon="-1.17652">
        <ele>1.8</ele>
        <time>2022-06-02T13:38:19Z</time>
      </trkpt>
      <trkpt lat="49.3877" lon="-1.17652">
        <ele>1.8</ele>
        <time>2022-06-02T13:38:21Z</time>
      </trkpt>
      <trkpt lat="49.38768" lon="-1.17652">
        <ele>1.8</ele>
        <time>2022-06-02T13:38:22Z</time>
      </trkpt>
      <trkpt lat="49.38767" lon="-1.17652">
        <ele>1.8</ele>
        <time>2022-06-02T13:38:23Z</time>
      </trkpt>
      <trkpt lat="49.38766" lon="-1.17653">
        <ele>1.8</ele>
        <time>2022-06-02T13:38:24Z</time>
      </trkpt>
      <trkpt lat="49.38764" lon="-1.17653">
        <ele>1.8</ele>
        <time>2022-06-02T13:38:25Z</time>
      </trkpt>
      <trkpt lat="49.38763" lon="-1.17654">
        <ele>1.8</ele>
        <time>2022-06-02T13:38:26Z</time>
      </trkpt>
      <trkpt lat="49.38761" lon="-1.17655">
        <ele>1.8</ele>
        <time>2022-06-02T13:38:27Z</time>
      </trkpt>
      <trkpt lat="49.3876" lon="-1.17655">
        <ele>1.8</ele>
        <time>2022-06-02T13:38:29Z</time>
      </trkpt>
      <trkpt lat="49.38758" lon="-1.17655">
        <ele>1.8</ele>
        <time>2022-06-02T13:38:30Z</time>
      </trkpt>
      <trkpt lat="49.38757" lon="-1.17656">
        <ele>1.8</ele>
        <time>2022-06-02T13:38:31Z</time>
      </trkpt>
      <trkpt lat="49.38755" lon="-1.17656">
        <ele>1.8</ele>
        <time>2022-06-02T13:38:32Z</time>
      </trkpt>
      <trkpt lat="49.38754" lon="-1.17656">
        <ele>1.8</ele>
        <time>2022-06-02T13:38:33Z</time>
      </trkpt>
      <trkpt lat="49.38753" lon="-1.17656">
        <ele>1.8</ele>
        <time>2022-06-02T13:38:34Z</time>
      </trkpt>
      <trkpt lat="49.38752" lon="-1.17656">
        <ele>1.8</ele>
        <time>2022-06-02T13:38:35Z</time>
      </trkpt>
      <trkpt lat="49.3875" lon="-1.17657">
        <ele>1.8</ele>
        <time>2022-06-02T13:38:36Z</time>
      </trkpt>
      <trkpt lat="49.38749" lon="-1.17657">
        <ele>1.8</ele>
        <time>2022-06-02T13:38:37Z</time>
      </trkpt>
      <trkpt lat="49.38748" lon="-1.17658">
        <ele>1.8</ele>
        <time>2022-06-02T13:38:38Z</time>
      </trkpt>
      <trkpt lat="49.38746" lon="-1.17658">
        <ele>1.7</ele>
        <time>2022-06-02T13:38:39Z</time>
      </trkpt>
      <trkpt lat="49.38745" lon="-1.17659">
        <ele>1.7</ele>
        <time>2022-06-02T13:38:40Z</time>
      </trkpt>
      <trkpt lat="49.38744" lon="-1.17659">
        <ele>1.7</ele>
        <time>2022-06-02T13:38:41Z</time>
      </trkpt>
      <trkpt lat="49.38743" lon="-1.17659">
        <ele>1.7</ele>
        <time>2022-06-02T13:38:42Z</time>
      </trkpt>
      <trkpt lat="49.38741" lon="-1.1766">
        <ele>1.7</ele>
        <time>2022-06-02T13:38:44Z</time>
      </trkpt>
      <trkpt lat="49.3874" lon="-1.17661">
        <ele>1.7</ele>
        <time>2022-06-02T13:38:45Z</time>
      </trkpt>
      <trkpt lat="49.38738" lon="-1.17662">
        <ele>1.7</ele>
        <time>2022-06-02T13:38:47Z</time>
      </trkpt>
      <trkpt lat="49.38736" lon="-1.17663">
        <ele>1.7</ele>
        <time>2022-06-02T13:38:48Z</time>
      </trkpt>
      <trkpt lat="49.38735" lon="-1.17663">
        <ele>1.7</ele>
        <time>2022-06-02T13:38:49Z</time>
      </trkpt>
      <trkpt lat="49.38734" lon="-1.17664">
        <ele>1.7</ele>
        <time>2022-06-02T13:38:50Z</time>
      </trkpt>
      <trkpt lat="49.38733" lon="-1.17664">
        <ele>1.7</ele>
        <time>2022-06-02T13:38:51Z</time>
      </trkpt>
      <trkpt lat="49.38731" lon="-1.17665">
        <ele>1.7</ele>
        <time>2022-06-02T13:38:52Z</time>
      </trkpt>
      <trkpt lat="49.3873" lon="-1.17665">
        <ele>1.7</ele>
        <time>2022-06-02T13:38:53Z</time>
      </trkpt>
      <trkpt lat="49.38728" lon="-1.17666">
        <ele>1.7</ele>
        <time>2022-06-02T13:38:54Z</time>
      </trkpt>
      <trkpt lat="49.38727" lon="-1.17666">
        <ele>1.7</ele>
        <time>2022-06-02T13:38:56Z</time>
      </trkpt>
      <trkpt lat="49.38725" lon="-1.17666">
        <ele>1.7</ele>
        <time>2022-06-02T13:38:57Z</time>
      </trkpt>
      <trkpt lat="49.38723" lon="-1.17667">
        <ele>1.7</ele>
        <time>2022-06-02T13:38:58Z</time>
      </trkpt>
      <trkpt lat="49.38722" lon="-1.17667">
        <ele>1.7</ele>
        <time>2022-06-02T13:38:59Z</time>
      </trkpt>
      <trkpt lat="49.38721" lon="-1.17667">
        <ele>1.7</ele>
        <time>2022-06-02T13:39:00Z</time>
      </trkpt>
      <trkpt lat="49.3872" lon="-1.17668">
        <ele>1.7</ele>
        <time>2022-06-02T13:39:01Z</time>
      </trkpt>
      <trkpt lat="49.38718" lon="-1.17669">
        <ele>1.7</ele>
        <time>2022-06-02T13:39:02Z</time>
      </trkpt>
      <trkpt lat="49.38717" lon="-1.17669">
        <ele>1.7</ele>
        <time>2022-06-02T13:39:03Z</time>
      </trkpt>
      <trkpt lat="49.38716" lon="-1.1767">
        <ele>1.7</ele>
        <time>2022-06-02T13:39:04Z</time>
      </trkpt>
      <trkpt lat="49.38714" lon="-1.1767">
        <ele>1.7</ele>
        <time>2022-06-02T13:39:06Z</time>
      </trkpt>
      <trkpt lat="49.38712" lon="-1.17671">
        <ele>1.7</ele>
        <time>2022-06-02T13:39:07Z</time>
      </trkpt>
      <trkpt lat="49.38711" lon="-1.17671">
        <ele>1.7</ele>
        <time>2022-06-02T13:39:08Z</time>
      </trkpt>
      <trkpt lat="49.38709" lon="-1.17672">
        <ele>1.7</ele>
        <time>2022-06-02T13:39:09Z</time>
      </trkpt>
      <trkpt lat="49.38708" lon="-1.17672">
        <ele>1.7</ele>
        <time>2022-06-02T13:39:10Z</time>
      </trkpt>
      <trkpt lat="49.38707" lon="-1.17672">
        <ele>1.7</ele>
        <time>2022-06-02T13:39:11Z</time>
      </trkpt>
      <trkpt lat="49.38706" lon="-1.17672">
        <ele>1.7</ele>
        <time>2022-06-02T13:39:12Z</time>
      </trkpt>
      <trkpt lat="49.38705" lon="-1.17673">
        <ele>1.7</ele>
        <time>2022-06-02T13:39:13Z</time>
      </trkpt>
      <trkpt lat="49.38703" lon="-1.17673">
        <ele>1.8</ele>
        <time>2022-06-02T13:39:15Z</time>
      </trkpt>
      <trkpt lat="49.38702" lon="-1.17674">
        <ele>1.8</ele>
        <time>2022-06-02T13:39:16Z</time>
      </trkpt>
      <trkpt lat="49.387" lon="-1.17675">
        <ele>1.8</ele>
        <time>2022-06-02T13:39:17Z</time>
      </trkpt>
      <trkpt lat="49.38699" lon="-1.17675">
        <ele>1.8</ele>
        <time>2022-06-02T13:39:18Z</time>
      </trkpt>
      <trkpt lat="49.38698" lon="-1.17676">
        <ele>1.8</ele>
        <time>2022-06-02T13:39:20Z</time>
      </trkpt>
      <trkpt lat="49.38697" lon="-1.17677">
        <ele>1.8</ele>
        <time>2022-06-02T13:39:21Z</time>
      </trkpt>
      <trkpt lat="49.38695" lon="-1.17677">
        <ele>1.8</ele>
        <time>2022-06-02T13:39:22Z</time>
      </trkpt>
      <trkpt lat="49.38694" lon="-1.17678">
        <ele>1.9</ele>
        <time>2022-06-02T13:39:23Z</time>
      </trkpt>
      <trkpt lat="49.38693" lon="-1.17678">
        <ele>1.9</ele>
        <time>2022-06-02T13:39:24Z</time>
      </trkpt>
      <trkpt lat="49.38692" lon="-1.17679">
        <ele>1.9</ele>
        <time>2022-06-02T13:39:25Z</time>
      </trkpt>
      <trkpt lat="49.38691" lon="-1.17679">
        <ele>1.9</ele>
        <time>2022-06-02T13:39:26Z</time>
      </trkpt>
      <trkpt lat="49.3869" lon="-1.1768">
        <ele>1.9</ele>
        <time>2022-06-02T13:39:27Z</time>
      </trkpt>
      <trkpt lat="49.38688" lon="-1.1768">
        <ele>1.9</ele>
        <time>2022-06-02T13:39:28Z</time>
      </trkpt>
      <trkpt lat="49.38687" lon="-1.1768">
        <ele>1.9</ele>
        <time>2022-06-02T13:39:29Z</time>
      </trkpt>
      <trkpt lat="49.38685" lon="-1.17681">
        <ele>1.9</ele>
        <time>2022-06-02T13:39:31Z</time>
      </trkpt>
      <trkpt lat="49.38683" lon="-1.17681">
        <ele>1.9</ele>
        <time>2022-06-02T13:39:32Z</time>
      </trkpt>
      <trkpt lat="49.38683" lon="-1.17682">
        <ele>1.9</ele>
        <time>2022-06-02T13:39:33Z</time>
      </trkpt>
      <trkpt lat="49.38681" lon="-1.17682">
        <ele>1.9</ele>
        <time>2022-06-02T13:39:34Z</time>
      </trkpt>
      <trkpt lat="49.3868" lon="-1.17682">
        <ele>1.9</ele>
        <time>2022-06-02T13:39:35Z</time>
      </trkpt>
      <trkpt lat="49.38678" lon="-1.17682">
        <ele>1.9</ele>
        <time>2022-06-02T13:39:36Z</time>
      </trkpt>
      <trkpt lat="49.38677" lon="-1.17682">
        <ele>1.9</ele>
        <time>2022-06-02T13:39:37Z</time>
      </trkpt>
      <trkpt lat="49.38674" lon="-1.17682">
        <ele>1.9</ele>
        <time>2022-06-02T13:39:39Z</time>
      </trkpt>
      <trkpt lat="49.38674" lon="-1.17682">
        <ele>1.9</ele>
        <time>2022-06-02T13:39:40Z</time>
      </trkpt>
      <trkpt lat="49.38673" lon="-1.17682">
        <ele>1.9</ele>
        <time>2022-06-02T13:39:41Z</time>
      </trkpt>
      <trkpt lat="49.38671" lon="-1.17682">
        <ele>1.9</ele>
        <time>2022-06-02T13:39:42Z</time>
      </trkpt>
      <trkpt lat="49.3867" lon="-1.17682">
        <ele>1.9</ele>
        <time>2022-06-02T13:39:43Z</time>
      </trkpt>
      <trkpt lat="49.38667" lon="-1.17683">
        <ele>1.9</ele>
        <time>2022-06-02T13:39:44Z</time>
      </trkpt>
      <trkpt lat="49.38666" lon="-1.17683">
        <ele>1.9</ele>
        <time>2022-06-02T13:39:45Z</time>
      </trkpt>
      <trkpt lat="49.38665" lon="-1.17684">
        <ele>1.9</ele>
        <time>2022-06-02T13:39:46Z</time>
      </trkpt>
      <trkpt lat="49.38664" lon="-1.17684">
        <ele>1.8</ele>
        <time>2022-06-02T13:39:48Z</time>
      </trkpt>
      <trkpt lat="49.38663" lon="-1.17685">
        <ele>1.8</ele>
        <time>2022-06-02T13:39:49Z</time>
      </trkpt>
      <trkpt lat="49.38662" lon="-1.17685">
        <ele>1.8</ele>
        <time>2022-06-02T13:39:50Z</time>
      </trkpt>
      <trkpt lat="49.38661" lon="-1.17686">
        <ele>1.8</ele>
        <time>2022-06-02T13:39:51Z</time>
      </trkpt>
      <trkpt lat="49.38659" lon="-1.17686">
        <ele>1.8</ele>
        <time>2022-06-02T13:39:52Z</time>
      </trkpt>
      <trkpt lat="49.38657" lon="-1.17686">
        <ele>1.8</ele>
        <time>2022-06-02T13:39:53Z</time>
      </trkpt>
      <trkpt lat="49.38656" lon="-1.17687">
        <ele>1.8</ele>
        <time>2022-06-02T13:39:54Z</time>
      </trkpt>
      <trkpt lat="49.38655" lon="-1.17687">
        <ele>1.8</ele>
        <time>2022-06-02T13:39:56Z</time>
      </trkpt>
      <trkpt lat="49.38654" lon="-1.17688">
        <ele>1.8</ele>
        <time>2022-06-02T13:39:57Z</time>
      </trkpt>
      <trkpt lat="49.38653" lon="-1.17688">
        <ele>1.8</ele>
        <time>2022-06-02T13:39:58Z</time>
      </trkpt>
      <trkpt lat="49.38652" lon="-1.17688">
        <ele>1.8</ele>
        <time>2022-06-02T13:39:59Z</time>
      </trkpt>
      <trkpt lat="49.3865" lon="-1.1769">
        <ele>1.8</ele>
        <time>2022-06-02T13:40:00Z</time>
      </trkpt>
      <trkpt lat="49.38649" lon="-1.1769">
        <ele>1.8</ele>
        <time>2022-06-02T13:40:01Z</time>
      </trkpt>
      <trkpt lat="49.38649" lon="-1.1769">
        <ele>1.8</ele>
        <time>2022-06-02T13:40:02Z</time>
      </trkpt>
      <trkpt lat="49.38647" lon="-1.17691">
        <ele>1.8</ele>
        <time>2022-06-02T13:40:03Z</time>
      </trkpt>
      <trkpt lat="49.38646" lon="-1.17691">
        <ele>1.7</ele>
        <time>2022-06-02T13:40:04Z</time>
      </trkpt>
      <trkpt lat="49.38645" lon="-1.17692">
        <ele>1.7</ele>
        <time>2022-06-02T13:40:05Z</time>
      </trkpt>
      <trkpt lat="49.38643" lon="-1.17692">
        <ele>1.7</ele>
        <time>2022-06-02T13:40:07Z</time>
      </trkpt>
      <trkpt lat="49.38642" lon="-1.17693">
        <ele>1.7</ele>
        <time>2022-06-02T13:40:08Z</time>
      </trkpt>
      <trkpt lat="49.38642" lon="-1.17693">
        <ele>1.7</ele>
        <time>2022-06-02T13:40:09Z</time>
      </trkpt>
      <trkpt lat="49.38641" lon="-1.17694">
        <ele>1.7</ele>
        <time>2022-06-02T13:40:10Z</time>
      </trkpt>
      <trkpt lat="49.3864" lon="-1.17695">
        <ele>1.7</ele>
        <time>2022-06-02T13:40:11Z</time>
      </trkpt>
      <trkpt lat="49.38639" lon="-1.17695">
        <ele>1.7</ele>
        <time>2022-06-02T13:40:12Z</time>
      </trkpt>
      <trkpt lat="49.38638" lon="-1.17695">
        <ele>1.7</ele>
        <time>2022-06-02T13:40:13Z</time>
      </trkpt>
      <trkpt lat="49.38637" lon="-1.17696">
        <ele>1.7</ele>
        <time>2022-06-02T13:40:14Z</time>
      </trkpt>
      <trkpt lat="49.38635" lon="-1.17696">
        <ele>1.7</ele>
        <time>2022-06-02T13:40:15Z</time>
      </trkpt>
      <trkpt lat="49.38633" lon="-1.17697">
        <ele>1.6</ele>
        <time>2022-06-02T13:40:17Z</time>
      </trkpt>
      <trkpt lat="49.38632" lon="-1.17697">
        <ele>1.6</ele>
        <time>2022-06-02T13:40:18Z</time>
      </trkpt>
      <trkpt lat="49.38631" lon="-1.17697">
        <ele>1.6</ele>
        <time>2022-06-02T13:40:19Z</time>
      </trkpt>
      <trkpt lat="49.38629" lon="-1.17697">
        <ele>1.6</ele>
        <time>2022-06-02T13:40:20Z</time>
      </trkpt>
      <trkpt lat="49.38626" lon="-1.17698">
        <ele>1.6</ele>
        <time>2022-06-02T13:40:21Z</time>
      </trkpt>
      <trkpt lat="49.38625" lon="-1.17699">
        <ele>1.6</ele>
        <time>2022-06-02T13:40:23Z</time>
      </trkpt>
      <trkpt lat="49.38624" lon="-1.17699">
        <ele>1.6</ele>
        <time>2022-06-02T13:40:24Z</time>
      </trkpt>
      <trkpt lat="49.38623" lon="-1.17699">
        <ele>1.5</ele>
        <time>2022-06-02T13:40:25Z</time>
      </trkpt>
      <trkpt lat="49.38622" lon="-1.177">
        <ele>1.5</ele>
        <time>2022-06-02T13:40:26Z</time>
      </trkpt>
      <trkpt lat="49.3862" lon="-1.17701">
        <ele>1.5</ele>
        <time>2022-06-02T13:40:27Z</time>
      </trkpt>
      <trkpt lat="49.38619" lon="-1.17702">
        <ele>1.5</ele>
        <time>2022-06-02T13:40:28Z</time>
      </trkpt>
      <trkpt lat="49.38619" lon="-1.17702">
        <ele>1.5</ele>
        <time>2022-06-02T13:40:29Z</time>
      </trkpt>
      <trkpt lat="49.38617" lon="-1.17703">
        <ele>1.5</ele>
        <time>2022-06-02T13:40:30Z</time>
      </trkpt>
      <trkpt lat="49.38616" lon="-1.17703">
        <ele>1.5</ele>
        <time>2022-06-02T13:40:31Z</time>
      </trkpt>
      <trkpt lat="49.38614" lon="-1.17704">
        <ele>1.5</ele>
        <time>2022-06-02T13:40:32Z</time>
      </trkpt>
      <trkpt lat="49.38612" lon="-1.17704">
        <ele>1.5</ele>
        <time>2022-06-02T13:40:33Z</time>
      </trkpt>
      <trkpt lat="49.38611" lon="-1.17704">
        <ele>1.5</ele>
        <time>2022-06-02T13:40:34Z</time>
      </trkpt>
      <trkpt lat="49.3861" lon="-1.17705">
        <ele>1.5</ele>
        <time>2022-06-02T13:40:35Z</time>
      </trkpt>
      <trkpt lat="49.38607" lon="-1.17705">
        <ele>1.6</ele>
        <time>2022-06-02T13:40:37Z</time>
      </trkpt>
      <trkpt lat="49.38607" lon="-1.17706">
        <ele>1.6</ele>
        <time>2022-06-02T13:40:38Z</time>
      </trkpt>
      <trkpt lat="49.38606" lon="-1.17706">
        <ele>1.6</ele>
        <time>2022-06-02T13:40:39Z</time>
      </trkpt>
      <trkpt lat="49.38604" lon="-1.17707">
        <ele>1.6</ele>
        <time>2022-06-02T13:40:40Z</time>
      </trkpt>
      <trkpt lat="49.38602" lon="-1.17707">
        <ele>1.6</ele>
        <time>2022-06-02T13:40:41Z</time>
      </trkpt>
      <trkpt lat="49.38601" lon="-1.17708">
        <ele>1.6</ele>
        <time>2022-06-02T13:40:42Z</time>
      </trkpt>
      <trkpt lat="49.386" lon="-1.17708">
        <ele>1.6</ele>
        <time>2022-06-02T13:40:43Z</time>
      </trkpt>
      <trkpt lat="49.38598" lon="-1.17709">
        <ele>1.6</ele>
        <time>2022-06-02T13:40:45Z</time>
      </trkpt>
      <trkpt lat="49.38597" lon="-1.17709">
        <ele>1.7</ele>
        <time>2022-06-02T13:40:46Z</time>
      </trkpt>
      <trkpt lat="49.38595" lon="-1.1771">
        <ele>1.7</ele>
        <time>2022-06-02T13:40:47Z</time>
      </trkpt>
      <trkpt lat="49.38594" lon="-1.1771">
        <ele>1.7</ele>
        <time>2022-06-02T13:40:48Z</time>
      </trkpt>
      <trkpt lat="49.38593" lon="-1.1771">
        <ele>1.7</ele>
        <time>2022-06-02T13:40:49Z</time>
      </trkpt>
      <trkpt lat="49.38592" lon="-1.1771">
        <ele>1.7</ele>
        <time>2022-06-02T13:40:50Z</time>
      </trkpt>
      <trkpt lat="49.38591" lon="-1.17711">
        <ele>1.8</ele>
        <time>2022-06-02T13:40:51Z</time>
      </trkpt>
      <trkpt lat="49.3859" lon="-1.17711">
        <ele>1.8</ele>
        <time>2022-06-02T13:40:52Z</time>
      </trkpt>
      <trkpt lat="49.38589" lon="-1.17711">
        <ele>1.8</ele>
        <time>2022-06-02T13:40:53Z</time>
      </trkpt>
      <trkpt lat="49.38588" lon="-1.17712">
        <ele>1.8</ele>
        <time>2022-06-02T13:40:54Z</time>
      </trkpt>
      <trkpt lat="49.38586" lon="-1.17712">
        <ele>1.8</ele>
        <time>2022-06-02T13:40:55Z</time>
      </trkpt>
      <trkpt lat="49.38584" lon="-1.17713">
        <ele>1.9</ele>
        <time>2022-06-02T13:40:56Z</time>
      </trkpt>
      <trkpt lat="49.38583" lon="-1.17713">
        <ele>1.9</ele>
        <time>2022-06-02T13:40:57Z</time>
      </trkpt>
      <trkpt lat="49.38581" lon="-1.17714">
        <ele>1.9</ele>
        <time>2022-06-02T13:40:58Z</time>
      </trkpt>
      <trkpt lat="49.3858" lon="-1.17715">
        <ele>1.9</ele>
        <time>2022-06-02T13:40:59Z</time>
      </trkpt>
      <trkpt lat="49.38579" lon="-1.17715">
        <ele>1.9</ele>
        <time>2022-06-02T13:41:01Z</time>
      </trkpt>
      <trkpt lat="49.38576" lon="-1.17716">
        <ele>2</ele>
        <time>2022-06-02T13:41:02Z</time>
      </trkpt>
      <trkpt lat="49.38575" lon="-1.17716">
        <ele>2</ele>
        <time>2022-06-02T13:41:03Z</time>
      </trkpt>
      <trkpt lat="49.38574" lon="-1.17717">
        <ele>2</ele>
        <time>2022-06-02T13:41:04Z</time>
      </trkpt>
      <trkpt lat="49.38573" lon="-1.17717">
        <ele>2</ele>
        <time>2022-06-02T13:41:05Z</time>
      </trkpt>
      <trkpt lat="49.38572" lon="-1.17717">
        <ele>1.9</ele>
        <time>2022-06-02T13:41:06Z</time>
      </trkpt>
      <trkpt lat="49.38571" lon="-1.17718">
        <ele>1.9</ele>
        <time>2022-06-02T13:41:07Z</time>
      </trkpt>
      <trkpt lat="49.38569" lon="-1.17718">
        <ele>1.9</ele>
        <time>2022-06-02T13:41:09Z</time>
      </trkpt>
      <trkpt lat="49.38568" lon="-1.17719">
        <ele>2</ele>
        <time>2022-06-02T13:41:10Z</time>
      </trkpt>
      <trkpt lat="49.38566" lon="-1.17719">
        <ele>2</ele>
        <time>2022-06-02T13:41:11Z</time>
      </trkpt>
      <trkpt lat="49.38564" lon="-1.17721">
        <ele>2</ele>
        <time>2022-06-02T13:41:12Z</time>
      </trkpt>
      <trkpt lat="49.38564" lon="-1.17721">
        <ele>2</ele>
        <time>2022-06-02T13:41:13Z</time>
      </trkpt>
      <trkpt lat="49.38562" lon="-1.17722">
        <ele>2</ele>
        <time>2022-06-02T13:41:14Z</time>
      </trkpt>
      <trkpt lat="49.3856" lon="-1.17722">
        <ele>2</ele>
        <time>2022-06-02T13:41:16Z</time>
      </trkpt>
      <trkpt lat="49.38558" lon="-1.17723">
        <ele>2</ele>
        <time>2022-06-02T13:41:17Z</time>
      </trkpt>
      <trkpt lat="49.38557" lon="-1.17723">
        <ele>2</ele>
        <time>2022-06-02T13:41:18Z</time>
      </trkpt>
      <trkpt lat="49.38556" lon="-1.17724">
        <ele>2</ele>
        <time>2022-06-02T13:41:19Z</time>
      </trkpt>
      <trkpt lat="49.38555" lon="-1.17724">
        <ele>2</ele>
        <time>2022-06-02T13:41:20Z</time>
      </trkpt>
      <trkpt lat="49.38554" lon="-1.17724">
        <ele>2</ele>
        <time>2022-06-02T13:41:21Z</time>
      </trkpt>
      <trkpt lat="49.38552" lon="-1.17725">
        <ele>2</ele>
        <time>2022-06-02T13:41:22Z</time>
      </trkpt>
      <trkpt lat="49.38551" lon="-1.17725">
        <ele>2</ele>
        <time>2022-06-02T13:41:23Z</time>
      </trkpt>
      <trkpt lat="49.3855" lon="-1.17725">
        <ele>2</ele>
        <time>2022-06-02T13:41:24Z</time>
      </trkpt>
      <trkpt lat="49.38548" lon="-1.17725">
        <ele>2</ele>
        <time>2022-06-02T13:41:25Z</time>
      </trkpt>
      <trkpt lat="49.38547" lon="-1.17725">
        <ele>2</ele>
        <time>2022-06-02T13:41:26Z</time>
      </trkpt>
      <trkpt lat="49.38547" lon="-1.17725">
        <ele>2</ele>
        <time>2022-06-02T13:41:27Z</time>
      </trkpt>
      <trkpt lat="49.38546" lon="-1.17725">
        <ele>2</ele>
        <time>2022-06-02T13:41:28Z</time>
      </trkpt>
      <trkpt lat="49.38545" lon="-1.17726">
        <ele>2</ele>
        <time>2022-06-02T13:41:30Z</time>
      </trkpt>
      <trkpt lat="49.38544" lon="-1.17726">
        <ele>2</ele>
        <time>2022-06-02T13:41:31Z</time>
      </trkpt>
      <trkpt lat="49.38541" lon="-1.17726">
        <ele>2</ele>
        <time>2022-06-02T13:41:32Z</time>
      </trkpt>
      <trkpt lat="49.38541" lon="-1.17726">
        <ele>1.9</ele>
        <time>2022-06-02T13:41:33Z</time>
      </trkpt>
      <trkpt lat="49.3854" lon="-1.17726">
        <ele>1.9</ele>
        <time>2022-06-02T13:41:34Z</time>
      </trkpt>
      <trkpt lat="49.38539" lon="-1.17727">
        <ele>1.9</ele>
        <time>2022-06-02T13:41:35Z</time>
      </trkpt>
      <trkpt lat="49.38538" lon="-1.17727">
        <ele>1.9</ele>
        <time>2022-06-02T13:41:36Z</time>
      </trkpt>
      <trkpt lat="49.38537" lon="-1.17728">
        <ele>1.9</ele>
        <time>2022-06-02T13:41:37Z</time>
      </trkpt>
      <trkpt lat="49.38536" lon="-1.17728">
        <ele>1.9</ele>
        <time>2022-06-02T13:41:38Z</time>
      </trkpt>
      <trkpt lat="49.38535" lon="-1.17728">
        <ele>1.9</ele>
        <time>2022-06-02T13:41:39Z</time>
      </trkpt>
      <trkpt lat="49.38533" lon="-1.17728">
        <ele>1.9</ele>
        <time>2022-06-02T13:41:40Z</time>
      </trkpt>
      <trkpt lat="49.3853" lon="-1.17729">
        <ele>1.9</ele>
        <time>2022-06-02T13:41:42Z</time>
      </trkpt>
      <trkpt lat="49.38529" lon="-1.17729">
        <ele>1.9</ele>
        <time>2022-06-02T13:41:44Z</time>
      </trkpt>
      <trkpt lat="49.38528" lon="-1.17729">
        <ele>1.9</ele>
        <time>2022-06-02T13:41:45Z</time>
      </trkpt>
      <trkpt lat="49.38527" lon="-1.1773">
        <ele>1.9</ele>
        <time>2022-06-02T13:41:46Z</time>
      </trkpt>
      <trkpt lat="49.38525" lon="-1.1773">
        <ele>1.9</ele>
        <time>2022-06-02T13:41:47Z</time>
      </trkpt>
      <trkpt lat="49.38524" lon="-1.1773">
        <ele>1.9</ele>
        <time>2022-06-02T13:41:48Z</time>
      </trkpt>
      <trkpt lat="49.38523" lon="-1.1773">
        <ele>1.9</ele>
        <time>2022-06-02T13:41:49Z</time>
      </trkpt>
      <trkpt lat="49.38522" lon="-1.1773">
        <ele>1.9</ele>
        <time>2022-06-02T13:41:50Z</time>
      </trkpt>
      <trkpt lat="49.38521" lon="-1.17731">
        <ele>1.9</ele>
        <time>2022-06-02T13:41:51Z</time>
      </trkpt>
      <trkpt lat="49.38519" lon="-1.17731">
        <ele>1.9</ele>
        <time>2022-06-02T13:41:52Z</time>
      </trkpt>
      <trkpt lat="49.38517" lon="-1.17732">
        <ele>1.9</ele>
        <time>2022-06-02T13:41:53Z</time>
      </trkpt>
      <trkpt lat="49.38516" lon="-1.17732">
        <ele>1.9</ele>
        <time>2022-06-02T13:41:55Z</time>
      </trkpt>
      <trkpt lat="49.38515" lon="-1.17733">
        <ele>1.9</ele>
        <time>2022-06-02T13:41:56Z</time>
      </trkpt>
      <trkpt lat="49.38513" lon="-1.17733">
        <ele>1.9</ele>
        <time>2022-06-02T13:41:57Z</time>
      </trkpt>
      <trkpt lat="49.38512" lon="-1.17734">
        <ele>1.9</ele>
        <time>2022-06-02T13:41:58Z</time>
      </trkpt>
      <trkpt lat="49.38509" lon="-1.17734">
        <ele>1.9</ele>
        <time>2022-06-02T13:41:59Z</time>
      </trkpt>
      <trkpt lat="49.38509" lon="-1.17734">
        <ele>1.9</ele>
        <time>2022-06-02T13:42:01Z</time>
      </trkpt>
      <trkpt lat="49.38508" lon="-1.17734">
        <ele>2</ele>
        <time>2022-06-02T13:42:02Z</time>
      </trkpt>
      <trkpt lat="49.38505" lon="-1.17734">
        <ele>2</ele>
        <time>2022-06-02T13:42:03Z</time>
      </trkpt>
      <trkpt lat="49.38505" lon="-1.17735">
        <ele>2</ele>
        <time>2022-06-02T13:42:04Z</time>
      </trkpt>
      <trkpt lat="49.38504" lon="-1.17735">
        <ele>2</ele>
        <time>2022-06-02T13:42:05Z</time>
      </trkpt>
      <trkpt lat="49.38503" lon="-1.17735">
        <ele>2</ele>
        <time>2022-06-02T13:42:06Z</time>
      </trkpt>
      <trkpt lat="49.38502" lon="-1.17736">
        <ele>2</ele>
        <time>2022-06-02T13:42:07Z</time>
      </trkpt>
      <trkpt lat="49.385" lon="-1.17736">
        <ele>2</ele>
        <time>2022-06-02T13:42:08Z</time>
      </trkpt>
      <trkpt lat="49.38499" lon="-1.17736">
        <ele>2</ele>
        <time>2022-06-02T13:42:09Z</time>
      </trkpt>
      <trkpt lat="49.38498" lon="-1.17736">
        <ele>2</ele>
        <time>2022-06-02T13:42:10Z</time>
      </trkpt>
      <trkpt lat="49.38497" lon="-1.17736">
        <ele>2</ele>
        <time>2022-06-02T13:42:11Z</time>
      </trkpt>
      <trkpt lat="49.38496" lon="-1.17737">
        <ele>2</ele>
        <time>2022-06-02T13:42:13Z</time>
      </trkpt>
      <trkpt lat="49.38495" lon="-1.17737">
        <ele>2</ele>
        <time>2022-06-02T13:42:14Z</time>
      </trkpt>
      <trkpt lat="49.38494" lon="-1.17737">
        <ele>2</ele>
        <time>2022-06-02T13:42:15Z</time>
      </trkpt>
      <trkpt lat="49.38492" lon="-1.17737">
        <ele>2</ele>
        <time>2022-06-02T13:42:16Z</time>
      </trkpt>
      <trkpt lat="49.38491" lon="-1.17737">
        <ele>2</ele>
        <time>2022-06-02T13:42:17Z</time>
      </trkpt>
      <trkpt lat="49.3849" lon="-1.17738">
        <ele>2</ele>
        <time>2022-06-02T13:42:18Z</time>
      </trkpt>
      <trkpt lat="49.38489" lon="-1.17738">
        <ele>2</ele>
        <time>2022-06-02T13:42:19Z</time>
      </trkpt>
      <trkpt lat="49.38488" lon="-1.17739">
        <ele>2</ele>
        <time>2022-06-02T13:42:20Z</time>
      </trkpt>
      <trkpt lat="49.38486" lon="-1.17739">
        <ele>2</ele>
        <time>2022-06-02T13:42:21Z</time>
      </trkpt>
      <trkpt lat="49.38485" lon="-1.17739">
        <ele>2</ele>
        <time>2022-06-02T13:42:22Z</time>
      </trkpt>
      <trkpt lat="49.38484" lon="-1.17739">
        <ele>2</ele>
        <time>2022-06-02T13:42:23Z</time>
      </trkpt>
      <trkpt lat="49.38482" lon="-1.17739">
        <ele>2</ele>
        <time>2022-06-02T13:42:25Z</time>
      </trkpt>
      <trkpt lat="49.38481" lon="-1.17739">
        <ele>2</ele>
        <time>2022-06-02T13:42:26Z</time>
      </trkpt>
      <trkpt lat="49.3848" lon="-1.1774">
        <ele>2</ele>
        <time>2022-06-02T13:42:27Z</time>
      </trkpt>
      <trkpt lat="49.38479" lon="-1.1774">
        <ele>2</ele>
        <time>2022-06-02T13:42:28Z</time>
      </trkpt>
      <trkpt lat="49.38478" lon="-1.1774">
        <ele>2</ele>
        <time>2022-06-02T13:42:29Z</time>
      </trkpt>
      <trkpt lat="49.38476" lon="-1.1774">
        <ele>2</ele>
        <time>2022-06-02T13:42:31Z</time>
      </trkpt>
      <trkpt lat="49.38475" lon="-1.1774">
        <ele>2</ele>
        <time>2022-06-02T13:42:32Z</time>
      </trkpt>
      <trkpt lat="49.38474" lon="-1.1774">
        <ele>2</ele>
        <time>2022-06-02T13:42:33Z</time>
      </trkpt>
      <trkpt lat="49.38472" lon="-1.17741">
        <ele>2</ele>
        <time>2022-06-02T13:42:34Z</time>
      </trkpt>
      <trkpt lat="49.38471" lon="-1.17741">
        <ele>2</ele>
        <time>2022-06-02T13:42:35Z</time>
      </trkpt>
      <trkpt lat="49.3847" lon="-1.17741">
        <ele>2</ele>
        <time>2022-06-02T13:42:36Z</time>
      </trkpt>
      <trkpt lat="49.38469" lon="-1.17742">
        <ele>2</ele>
        <time>2022-06-02T13:42:37Z</time>
      </trkpt>
      <trkpt lat="49.38469" lon="-1.17742">
        <ele>2</ele>
        <time>2022-06-02T13:42:38Z</time>
      </trkpt>
      <trkpt lat="49.38468" lon="-1.17742">
        <ele>2</ele>
        <time>2022-06-02T13:42:39Z</time>
      </trkpt>
      <trkpt lat="49.38467" lon="-1.17742">
        <ele>2</ele>
        <time>2022-06-02T13:42:40Z</time>
      </trkpt>
      <trkpt lat="49.38464" lon="-1.17743">
        <ele>2</ele>
        <time>2022-06-02T13:42:41Z</time>
      </trkpt>
      <trkpt lat="49.38463" lon="-1.17743">
        <ele>2</ele>
        <time>2022-06-02T13:42:43Z</time>
      </trkpt>
      <trkpt lat="49.38462" lon="-1.17744">
        <ele>2</ele>
        <time>2022-06-02T13:42:44Z</time>
      </trkpt>
      <trkpt lat="49.38461" lon="-1.17744">
        <ele>2</ele>
        <time>2022-06-02T13:42:45Z</time>
      </trkpt>
      <trkpt lat="49.3846" lon="-1.17744">
        <ele>2</ele>
        <time>2022-06-02T13:42:46Z</time>
      </trkpt>
      <trkpt lat="49.38459" lon="-1.17745">
        <ele>2</ele>
        <time>2022-06-02T13:42:47Z</time>
      </trkpt>
      <trkpt lat="49.38458" lon="-1.17745">
        <ele>2</ele>
        <time>2022-06-02T13:42:49Z</time>
      </trkpt>
      <trkpt lat="49.38457" lon="-1.17745">
        <ele>2</ele>
        <time>2022-06-02T13:42:50Z</time>
      </trkpt>
      <trkpt lat="49.38455" lon="-1.17746">
        <ele>2.1</ele>
        <time>2022-06-02T13:42:51Z</time>
      </trkpt>
      <trkpt lat="49.38454" lon="-1.17747">
        <ele>2.1</ele>
        <time>2022-06-02T13:42:52Z</time>
      </trkpt>
      <trkpt lat="49.38453" lon="-1.17748">
        <ele>2.1</ele>
        <time>2022-06-02T13:42:53Z</time>
      </trkpt>
      <trkpt lat="49.38451" lon="-1.17749">
        <ele>2.1</ele>
        <time>2022-06-02T13:42:54Z</time>
      </trkpt>
      <trkpt lat="49.3845" lon="-1.17749">
        <ele>2.1</ele>
        <time>2022-06-02T13:42:55Z</time>
      </trkpt>
      <trkpt lat="49.3845" lon="-1.1775">
        <ele>2.1</ele>
        <time>2022-06-02T13:42:56Z</time>
      </trkpt>
      <trkpt lat="49.38448" lon="-1.17751">
        <ele>2.1</ele>
        <time>2022-06-02T13:42:57Z</time>
      </trkpt>
      <trkpt lat="49.38447" lon="-1.17751">
        <ele>2.1</ele>
        <time>2022-06-02T13:42:59Z</time>
      </trkpt>
      <trkpt lat="49.38446" lon="-1.17752">
        <ele>2.1</ele>
        <time>2022-06-02T13:43:00Z</time>
      </trkpt>
      <trkpt lat="49.38444" lon="-1.17753">
        <ele>2.1</ele>
        <time>2022-06-02T13:43:01Z</time>
      </trkpt>
      <trkpt lat="49.38443" lon="-1.17753">
        <ele>2.1</ele>
        <time>2022-06-02T13:43:02Z</time>
      </trkpt>
      <trkpt lat="49.38442" lon="-1.17753">
        <ele>2.1</ele>
        <time>2022-06-02T13:43:03Z</time>
      </trkpt>
      <trkpt lat="49.3844" lon="-1.17753">
        <ele>2.1</ele>
        <time>2022-06-02T13:43:04Z</time>
      </trkpt>
      <trkpt lat="49.3844" lon="-1.17754">
        <ele>2.1</ele>
        <time>2022-06-02T13:43:05Z</time>
      </trkpt>
      <trkpt lat="49.38439" lon="-1.17754">
        <ele>2.1</ele>
        <time>2022-06-02T13:43:06Z</time>
      </trkpt>
      <trkpt lat="49.38437" lon="-1.17754">
        <ele>2.1</ele>
        <time>2022-06-02T13:43:07Z</time>
      </trkpt>
      <trkpt lat="49.38436" lon="-1.17754">
        <ele>2.1</ele>
        <time>2022-06-02T13:43:08Z</time>
      </trkpt>
      <trkpt lat="49.38435" lon="-1.17754">
        <ele>2.1</ele>
        <time>2022-06-02T13:43:10Z</time>
      </trkpt>
      <trkpt lat="49.38434" lon="-1.17754">
        <ele>2.1</ele>
        <time>2022-06-02T13:43:11Z</time>
      </trkpt>
      <trkpt lat="49.38432" lon="-1.17754">
        <ele>2.1</ele>
        <time>2022-06-02T13:43:12Z</time>
      </trkpt>
      <trkpt lat="49.38431" lon="-1.17754">
        <ele>2.1</ele>
        <time>2022-06-02T13:43:13Z</time>
      </trkpt>
      <trkpt lat="49.3843" lon="-1.17754">
        <ele>2.1</ele>
        <time>2022-06-02T13:43:14Z</time>
      </trkpt>
      <trkpt lat="49.38428" lon="-1.17754">
        <ele>2.1</ele>
        <time>2022-06-02T13:43:15Z</time>
      </trkpt>
      <trkpt lat="49.38427" lon="-1.17755">
        <ele>2.1</ele>
        <time>2022-06-02T13:43:16Z</time>
      </trkpt>
      <trkpt lat="49.38425" lon="-1.17755">
        <ele>2.1</ele>
        <time>2022-06-02T13:43:17Z</time>
      </trkpt>
      <trkpt lat="49.38424" lon="-1.17755">
        <ele>2.1</ele>
        <time>2022-06-02T13:43:18Z</time>
      </trkpt>
      <trkpt lat="49.38423" lon="-1.17755">
        <ele>2.1</ele>
        <time>2022-06-02T13:43:20Z</time>
      </trkpt>
      <trkpt lat="49.38421" lon="-1.17756">
        <ele>2.1</ele>
        <time>2022-06-02T13:43:21Z</time>
      </trkpt>
      <trkpt lat="49.3842" lon="-1.17756">
        <ele>2.1</ele>
        <time>2022-06-02T13:43:22Z</time>
      </trkpt>
      <trkpt lat="49.38418" lon="-1.17756">
        <ele>2.1</ele>
        <time>2022-06-02T13:43:23Z</time>
      </trkpt>
      <trkpt lat="49.38416" lon="-1.17756">
        <ele>2.1</ele>
        <time>2022-06-02T13:43:24Z</time>
      </trkpt>
      <trkpt lat="49.38415" lon="-1.17756">
        <ele>2.1</ele>
        <time>2022-06-02T13:43:26Z</time>
      </trkpt>
      <trkpt lat="49.38415" lon="-1.17755">
        <ele>2.1</ele>
        <time>2022-06-02T13:43:27Z</time>
      </trkpt>
      <trkpt lat="49.38414" lon="-1.17754">
        <ele>2.1</ele>
        <time>2022-06-02T13:43:28Z</time>
      </trkpt>
      <trkpt lat="49.38414" lon="-1.17753">
        <ele>2.1</ele>
        <time>2022-06-02T13:43:29Z</time>
      </trkpt>
      <trkpt lat="49.38413" lon="-1.1775">
        <ele>2.1</ele>
        <time>2022-06-02T13:43:30Z</time>
      </trkpt>
      <trkpt lat="49.38413" lon="-1.17748">
        <ele>2.1</ele>
        <time>2022-06-02T13:43:32Z</time>
      </trkpt>
      <trkpt lat="49.38412" lon="-1.17747">
        <ele>2.1</ele>
        <time>2022-06-02T13:43:33Z</time>
      </trkpt>
      <trkpt lat="49.38412" lon="-1.17746">
        <ele>2.1</ele>
        <time>2022-06-02T13:43:34Z</time>
      </trkpt>
      <trkpt lat="49.38412" lon="-1.17744">
        <ele>2.1</ele>
        <time>2022-06-02T13:43:35Z</time>
      </trkpt>
      <trkpt lat="49.38412" lon="-1.17743">
        <ele>2.1</ele>
        <time>2022-06-02T13:43:36Z</time>
      </trkpt>
      <trkpt lat="49.38412" lon="-1.17743">
        <ele>2.1</ele>
        <time>2022-06-02T13:43:37Z</time>
      </trkpt>
      <trkpt lat="49.38412" lon="-1.17743">
        <ele>2.1</ele>
        <time>2022-06-02T13:43:38Z</time>
      </trkpt>
      <trkpt lat="49.38412" lon="-1.17743">
        <ele>2.1</ele>
        <time>2022-06-02T13:43:39Z</time>
      </trkpt>
      <trkpt lat="49.38412" lon="-1.17743">
        <ele>2.1</ele>
        <time>2022-06-02T13:43:40Z</time>
      </trkpt>
      <trkpt lat="49.38413" lon="-1.17743">
        <ele>2.1</ele>
        <time>2022-06-02T13:43:41Z</time>
      </trkpt>
      <trkpt lat="49.38413" lon="-1.17743">
        <ele>2.1</ele>
        <time>2022-06-02T13:43:42Z</time>
      </trkpt>
      <trkpt lat="49.38413" lon="-1.17743">
        <ele>2.1</ele>
        <time>2022-06-02T13:43:43Z</time>
      </trkpt>
      <trkpt lat="49.38413" lon="-1.17743">
        <ele>2.1</ele>
        <time>2022-06-02T13:43:44Z</time>
      </trkpt>
      <trkpt lat="49.38413" lon="-1.17743">
        <ele>2.1</ele>
        <time>2022-06-02T13:43:45Z</time>
      </trkpt>
      <trkpt lat="49.38413" lon="-1.17743">
        <ele>2.1</ele>
        <time>2022-06-02T13:43:46Z</time>
      </trkpt>
      <trkpt lat="49.38413" lon="-1.17743">
        <ele>2.1</ele>
        <time>2022-06-02T13:43:47Z</time>
      </trkpt>
      <trkpt lat="49.38413" lon="-1.17743">
        <ele>2.1</ele>
        <time>2022-06-02T13:43:48Z</time>
      </trkpt>
      <trkpt lat="49.38413" lon="-1.17743">
        <ele>2.1</ele>
        <time>2022-06-02T13:43:49Z</time>
      </trkpt>
      <trkpt lat="49.38413" lon="-1.17743">
        <ele>2.1</ele>
        <time>2022-06-02T13:43:50Z</time>
      </trkpt>
      <trkpt lat="49.38413" lon="-1.17744">
        <ele>2.1</ele>
        <time>2022-06-02T13:43:51Z</time>
      </trkpt>
      <trkpt lat="49.38413" lon="-1.17744">
        <ele>2.1</ele>
        <time>2022-06-02T13:43:52Z</time>
      </trkpt>
      <trkpt lat="49.38413" lon="-1.17744">
        <ele>2.1</ele>
        <time>2022-06-02T13:43:53Z</time>
      </trkpt>
      <trkpt lat="49.38413" lon="-1.17744">
        <ele>2.1</ele>
        <time>2022-06-02T13:43:54Z</time>
      </trkpt>
      <trkpt lat="49.38413" lon="-1.17744">
        <ele>2.1</ele>
        <time>2022-06-02T13:43:55Z</time>
      </trkpt>
      <trkpt lat="49.38414" lon="-1.17745">
        <ele>2.1</ele>
        <time>2022-06-02T13:43:56Z</time>
      </trkpt>
      <trkpt lat="49.38414" lon="-1.17746">
        <ele>2.1</ele>
        <time>2022-06-02T13:43:57Z</time>
      </trkpt>
      <trkpt lat="49.38414" lon="-1.17747">
        <ele>2.1</ele>
        <time>2022-06-02T13:43:58Z</time>
      </trkpt>
      <trkpt lat="49.38415" lon="-1.17747">
        <ele>2.1</ele>
        <time>2022-06-02T13:43:59Z</time>
      </trkpt>
      <trkpt lat="49.38415" lon="-1.17747">
        <ele>2.1</ele>
        <time>2022-06-02T13:44:00Z</time>
      </trkpt>
      <trkpt lat="49.38415" lon="-1.17747">
        <ele>2.1</ele>
        <time>2022-06-02T13:44:01Z</time>
      </trkpt>
      <trkpt lat="49.38415" lon="-1.17747">
        <ele>2.1</ele>
        <time>2022-06-02T13:44:02Z</time>
      </trkpt>
      <trkpt lat="49.38415" lon="-1.17747">
        <ele>2.1</ele>
        <time>2022-06-02T13:44:03Z</time>
      </trkpt>
      <trkpt lat="49.38415" lon="-1.17747">
        <ele>2.1</ele>
        <time>2022-06-02T13:44:04Z</time>
      </trkpt>
      <trkpt lat="49.38415" lon="-1.17747">
        <ele>2.1</ele>
        <time>2022-06-02T13:44:05Z</time>
      </trkpt>
      <trkpt lat="49.38415" lon="-1.17747">
        <ele>2.1</ele>
        <time>2022-06-02T13:44:06Z</time>
      </trkpt>
      <trkpt lat="49.38415" lon="-1.17747">
        <ele>2.1</ele>
        <time>2022-06-02T13:44:07Z</time>
      </trkpt>
      <trkpt lat="49.38415" lon="-1.17747">
        <ele>2.1</ele>
        <time>2022-06-02T13:44:08Z</time>
      </trkpt>
      <trkpt lat="49.38415" lon="-1.17747">
        <ele>2.1</ele>
        <time>2022-06-02T13:44:09Z</time>
      </trkpt>
      <trkpt lat="49.38415" lon="-1.17747">
        <ele>2.1</ele>
        <time>2022-06-02T13:44:10Z</time>
      </trkpt>
      <trkpt lat="49.38415" lon="-1.17747">
        <ele>2.1</ele>
        <time>2022-06-02T13:44:11Z</time>
      </trkpt>
      <trkpt lat="49.38415" lon="-1.17747">
        <ele>2.1</ele>
        <time>2022-06-02T13:44:12Z</time>
      </trkpt>
      <trkpt lat="49.38415" lon="-1.17747">
        <ele>2.1</ele>
        <time>2022-06-02T13:44:13Z</time>
      </trkpt>
      <trkpt lat="49.38415" lon="-1.17747">
        <ele>2.1</ele>
        <time>2022-06-02T13:44:14Z</time>
      </trkpt>
      <trkpt lat="49.38415" lon="-1.17747">
        <ele>2.1</ele>
        <time>2022-06-02T13:44:15Z</time>
      </trkpt>
      <trkpt lat="49.38415" lon="-1.17747">
        <ele>2.1</ele>
        <time>2022-06-02T13:44:16Z</time>
      </trkpt>
      <trkpt lat="49.38415" lon="-1.17747">
        <ele>2.1</ele>
        <time>2022-06-02T13:44:17Z</time>
      </trkpt>
      <trkpt lat="49.38415" lon="-1.17747">
        <ele>2.1</ele>
        <time>2022-06-02T13:44:18Z</time>
      </trkpt>
      <trkpt lat="49.38415" lon="-1.17747">
        <ele>2.1</ele>
        <time>2022-06-02T13:44:19Z</time>
      </trkpt>
      <trkpt lat="49.38415" lon="-1.17747">
        <ele>2.1</ele>
        <time>2022-06-02T13:44:20Z</time>
      </trkpt>
      <trkpt lat="49.38415" lon="-1.17747">
        <ele>2.1</ele>
        <time>2022-06-02T13:44:21Z</time>
      </trkpt>
      <trkpt lat="49.38415" lon="-1.17747">
        <ele>2.1</ele>
        <time>2022-06-02T13:44:22Z</time>
      </trkpt>
      <trkpt lat="49.38415" lon="-1.17747">
        <ele>2.1</ele>
        <time>2022-06-02T13:44:23Z</time>
      </trkpt>
      <trkpt lat="49.38415" lon="-1.17747">
        <ele>2.1</ele>
        <time>2022-06-02T13:44:24Z</time>
      </trkpt>
      <trkpt lat="49.38415" lon="-1.17747">
        <ele>2.1</ele>
        <time>2022-06-02T13:44:25Z</time>
      </trkpt>
      <trkpt lat="49.38415" lon="-1.17747">
        <ele>2.1</ele>
        <time>2022-06-02T13:44:26Z</time>
      </trkpt>
      <trkpt lat="49.38415" lon="-1.17747">
        <ele>2.1</ele>
        <time>2022-06-02T13:44:27Z</time>
      </trkpt>
      <trkpt lat="49.38415" lon="-1.17747">
        <ele>2.1</ele>
        <time>2022-06-02T13:44:28Z</time>
      </trkpt>
      <trkpt lat="49.38415" lon="-1.17747">
        <ele>2.1</ele>
        <time>2022-06-02T13:44:29Z</time>
      </trkpt>
      <trkpt lat="49.38415" lon="-1.17747">
        <ele>2.1</ele>
        <time>2022-06-02T13:44:30Z</time>
      </trkpt>
      <trkpt lat="49.38415" lon="-1.17747">
        <ele>2.1</ele>
        <time>2022-06-02T13:44:31Z</time>
      </trkpt>
      <trkpt lat="49.38415" lon="-1.17747">
        <ele>2.1</ele>
        <time>2022-06-02T13:44:32Z</time>
      </trkpt>
      <trkpt lat="49.38415" lon="-1.17747">
        <ele>2.1</ele>
        <time>2022-06-02T13:44:33Z</time>
      </trkpt>
      <trkpt lat="49.38415" lon="-1.17747">
        <ele>2.1</ele>
        <time>2022-06-02T13:44:34Z</time>
      </trkpt>
      <trkpt lat="49.38415" lon="-1.17747">
        <ele>2.1</ele>
        <time>2022-06-02T13:44:35Z</time>
      </trkpt>
      <trkpt lat="49.38415" lon="-1.17747">
        <ele>2.1</ele>
        <time>2022-06-02T13:44:36Z</time>
      </trkpt>
      <trkpt lat="49.38415" lon="-1.17747">
        <ele>2.1</ele>
        <time>2022-06-02T13:44:37Z</time>
      </trkpt>
      <trkpt lat="49.38415" lon="-1.17747">
        <ele>2.1</ele>
        <time>2022-06-02T13:44:38Z</time>
      </trkpt>
      <trkpt lat="49.38415" lon="-1.17747">
        <ele>2.1</ele>
        <time>2022-06-02T13:44:39Z</time>
      </trkpt>
      <trkpt lat="49.38415" lon="-1.17747">
        <ele>2.1</ele>
        <time>2022-06-02T13:44:40Z</time>
      </trkpt>
      <trkpt lat="49.38415" lon="-1.17747">
        <ele>2.1</ele>
        <time>2022-06-02T13:44:41Z</time>
      </trkpt>
      <trkpt lat="49.38415" lon="-1.17747">
        <ele>2.1</ele>
        <time>2022-06-02T13:44:42Z</time>
      </trkpt>
      <trkpt lat="49.38415" lon="-1.17747">
        <ele>2.1</ele>
        <time>2022-06-02T13:44:43Z</time>
      </trkpt>
      <trkpt lat="49.38415" lon="-1.17747">
        <ele>2.1</ele>
        <time>2022-06-02T13:44:44Z</time>
      </trkpt>
      <trkpt lat="49.38415" lon="-1.17747">
        <ele>2.1</ele>
        <time>2022-06-02T13:44:45Z</time>
      </trkpt>
      <trkpt lat="49.38415" lon="-1.17747">
        <ele>2.1</ele>
        <time>2022-06-02T13:44:46Z</time>
      </trkpt>
      <trkpt lat="49.38415" lon="-1.17747">
        <ele>2.1</ele>
        <time>2022-06-02T13:44:47Z</time>
      </trkpt>
      <trkpt lat="49.38415" lon="-1.17747">
        <ele>2.1</ele>
        <time>2022-06-02T13:44:48Z</time>
      </trkpt>
      <trkpt lat="49.38415" lon="-1.17747">
        <ele>2.1</ele>
        <time>2022-06-02T13:44:49Z</time>
      </trkpt>
      <trkpt lat="49.38415" lon="-1.17747">
        <ele>2.1</ele>
        <time>2022-06-02T13:44:50Z</time>
      </trkpt>
      <trkpt lat="49.38415" lon="-1.17747">
        <ele>2.1</ele>
        <time>2022-06-02T13:44:51Z</time>
      </trkpt>
      <trkpt lat="49.38415" lon="-1.17747">
        <ele>2.1</ele>
        <time>2022-06-02T13:44:52Z</time>
      </trkpt>
      <trkpt lat="49.38415" lon="-1.17747">
        <ele>2.1</ele>
        <time>2022-06-02T13:44:53Z</time>
      </trkpt>
      <trkpt lat="49.38415" lon="-1.17747">
        <ele>2.1</ele>
        <time>2022-06-02T13:44:54Z</time>
      </trkpt>
      <trkpt lat="49.38415" lon="-1.17747">
        <ele>2.1</ele>
        <time>2022-06-02T13:44:55Z</time>
      </trkpt>
      <trkpt lat="49.38415" lon="-1.17747">
        <ele>2.1</ele>
        <time>2022-06-02T13:44:56Z</time>
      </trkpt>
      <trkpt lat="49.38415" lon="-1.17747">
        <ele>2.1</ele>
        <time>2022-06-02T13:44:57Z</time>
      </trkpt>
      <trkpt lat="49.38415" lon="-1.17747">
        <ele>2.1</ele>
        <time>2022-06-02T13:44:58Z</time>
      </trkpt>
      <trkpt lat="49.38415" lon="-1.17747">
        <ele>2.1</ele>
        <time>2022-06-02T13:44:59Z</time>
      </trkpt>
      <trkpt lat="49.38415" lon="-1.17747">
        <ele>2.1</ele>
        <time>2022-06-02T13:45:00Z</time>
      </trkpt>
      <trkpt lat="49.38415" lon="-1.17747">
        <ele>2.1</ele>
        <time>2022-06-02T13:45:01Z</time>
      </trkpt>
      <trkpt lat="49.38415" lon="-1.17747">
        <ele>2.1</ele>
        <time>2022-06-02T13:45:02Z</time>
      </trkpt>
      <trkpt lat="49.38415" lon="-1.17747">
        <ele>2.1</ele>
        <time>2022-06-02T13:45:03Z</time>
      </trkpt>
      <trkpt lat="49.38415" lon="-1.17747">
        <ele>2.1</ele>
        <time>2022-06-02T13:45:04Z</time>
      </trkpt>
      <trkpt lat="49.38415" lon="-1.17747">
        <ele>2.1</ele>
        <time>2022-06-02T13:45:05Z</time>
      </trkpt>
      <trkpt lat="49.38415" lon="-1.17747">
        <ele>2.1</ele>
        <time>2022-06-02T13:45:06Z</time>
      </trkpt>
      <trkpt lat="49.38415" lon="-1.17747">
        <ele>2.1</ele>
        <time>2022-06-02T13:45:07Z</time>
      </trkpt>
      <trkpt lat="49.38415" lon="-1.17747">
        <ele>2.1</ele>
        <time>2022-06-02T13:45:08Z</time>
      </trkpt>
      <trkpt lat="49.38415" lon="-1.17747">
        <ele>2.1</ele>
        <time>2022-06-02T13:45:09Z</time>
      </trkpt>
      <trkpt lat="49.38415" lon="-1.17747">
        <ele>2.1</ele>
        <time>2022-06-02T13:45:10Z</time>
      </trkpt>
      <trkpt lat="49.38415" lon="-1.17747">
        <ele>2.1</ele>
        <time>2022-06-02T13:45:11Z</time>
      </trkpt>
      <trkpt lat="49.38415" lon="-1.17747">
        <ele>2.1</ele>
        <time>2022-06-02T13:45:12Z</time>
      </trkpt>
      <trkpt lat="49.38415" lon="-1.17747">
        <ele>2.1</ele>
        <time>2022-06-02T13:45:13Z</time>
      </trkpt>
      <trkpt lat="49.38415" lon="-1.17747">
        <ele>2.1</ele>
        <time>2022-06-02T13:45:14Z</time>
      </trkpt>
      <trkpt lat="49.38415" lon="-1.17747">
        <ele>2.1</ele>
        <time>2022-06-02T13:45:15Z</time>
      </trkpt>
      <trkpt lat="49.38415" lon="-1.17747">
        <ele>2.1</ele>
        <time>2022-06-02T13:45:16Z</time>
      </trkpt>
      <trkpt lat="49.38415" lon="-1.17747">
        <ele>2.1</ele>
        <time>2022-06-02T13:45:17Z</time>
      </trkpt>
      <trkpt lat="49.38415" lon="-1.17747">
        <ele>2.1</ele>
        <time>2022-06-02T13:45:18Z</time>
      </trkpt>
      <trkpt lat="49.38415" lon="-1.17747">
        <ele>2.1</ele>
        <time>2022-06-02T13:45:19Z</time>
      </trkpt>
      <trkpt lat="49.38415" lon="-1.17747">
        <ele>2.1</ele>
        <time>2022-06-02T13:45:20Z</time>
      </trkpt>
      <trkpt lat="49.38415" lon="-1.17747">
        <ele>2.1</ele>
        <time>2022-06-02T13:45:21Z</time>
      </trkpt>
      <trkpt lat="49.38415" lon="-1.17747">
        <ele>2.1</ele>
        <time>2022-06-02T13:45:22Z</time>
      </trkpt>
      <trkpt lat="49.38415" lon="-1.17747">
        <ele>2.1</ele>
        <time>2022-06-02T13:45:23Z</time>
      </trkpt>
      <trkpt lat="49.38415" lon="-1.17747">
        <ele>2.1</ele>
        <time>2022-06-02T13:45:24Z</time>
      </trkpt>
      <trkpt lat="49.38415" lon="-1.17747">
        <ele>2.1</ele>
        <time>2022-06-02T13:45:25Z</time>
      </trkpt>
      <trkpt lat="49.38416" lon="-1.17748">
        <ele>2.1</ele>
        <time>2022-06-02T13:45:26Z</time>
      </trkpt>
      <trkpt lat="49.38416" lon="-1.17748">
        <ele>2.1</ele>
        <time>2022-06-02T13:45:27Z</time>
      </trkpt>
      <trkpt lat="49.38416" lon="-1.17749">
        <ele>2.1</ele>
        <time>2022-06-02T13:45:28Z</time>
      </trkpt>
      <trkpt lat="49.38416" lon="-1.17749">
        <ele>2.1</ele>
        <time>2022-06-02T13:45:29Z</time>
      </trkpt>
      <trkpt lat="49.38416" lon="-1.17749">
        <ele>2.1</ele>
        <time>2022-06-02T13:45:30Z</time>
      </trkpt>
      <trkpt lat="49.38416" lon="-1.1775">
        <ele>2.1</ele>
        <time>2022-06-02T13:45:31Z</time>
      </trkpt>
      <trkpt lat="49.38416" lon="-1.1775">
        <ele>2.1</ele>
        <time>2022-06-02T13:45:32Z</time>
      </trkpt>
      <trkpt lat="49.38417" lon="-1.1775">
        <ele>2.1</ele>
        <time>2022-06-02T13:45:33Z</time>
      </trkpt>
      <trkpt lat="49.38416" lon="-1.17751">
        <ele>2.1</ele>
        <time>2022-06-02T13:45:34Z</time>
      </trkpt>
      <trkpt lat="49.38415" lon="-1.17752">
        <ele>2.1</ele>
        <time>2022-06-02T13:45:35Z</time>
      </trkpt>
      <trkpt lat="49.38415" lon="-1.17752">
        <ele>2.1</ele>
        <time>2022-06-02T13:45:36Z</time>
      </trkpt>
      <trkpt lat="49.38415" lon="-1.17752">
        <ele>2.1</ele>
        <time>2022-06-02T13:45:37Z</time>
      </trkpt>
      <trkpt lat="49.38415" lon="-1.17752">
        <ele>2.1</ele>
        <time>2022-06-02T13:45:38Z</time>
      </trkpt>
      <trkpt lat="49.38416" lon="-1.17752">
        <ele>2.1</ele>
        <time>2022-06-02T13:45:39Z</time>
      </trkpt>
      <trkpt lat="49.38416" lon="-1.17752">
        <ele>2.1</ele>
        <time>2022-06-02T13:45:40Z</time>
      </trkpt>
      <trkpt lat="49.38416" lon="-1.17752">
        <ele>2.1</ele>
        <time>2022-06-02T13:45:41Z</time>
      </trkpt>
      <trkpt lat="49.38416" lon="-1.17752">
        <ele>2.1</ele>
        <time>2022-06-02T13:45:42Z</time>
      </trkpt>
      <trkpt lat="49.38416" lon="-1.17752">
        <ele>2.1</ele>
        <time>2022-06-02T13:45:43Z</time>
      </trkpt>
      <trkpt lat="49.38416" lon="-1.17752">
        <ele>2.1</ele>
        <time>2022-06-02T13:45:44Z</time>
      </trkpt>
      <trkpt lat="49.38416" lon="-1.17752">
        <ele>2.1</ele>
        <time>2022-06-02T13:45:45Z</time>
      </trkpt>
      <trkpt lat="49.38416" lon="-1.17752">
        <ele>2.1</ele>
        <time>2022-06-02T13:45:46Z</time>
      </trkpt>
      <trkpt lat="49.38416" lon="-1.17752">
        <ele>2.1</ele>
        <time>2022-06-02T13:45:47Z</time>
      </trkpt>
      <trkpt lat="49.38416" lon="-1.17752">
        <ele>2.1</ele>
        <time>2022-06-02T13:45:48Z</time>
      </trkpt>
      <trkpt lat="49.38416" lon="-1.17752">
        <ele>2.1</ele>
        <time>2022-06-02T13:45:49Z</time>
      </trkpt>
      <trkpt lat="49.38416" lon="-1.17752">
        <ele>2.1</ele>
        <time>2022-06-02T13:45:50Z</time>
      </trkpt>
      <trkpt lat="49.38415" lon="-1.17751">
        <ele>2.1</ele>
        <time>2022-06-02T13:45:51Z</time>
      </trkpt>
      <trkpt lat="49.38415" lon="-1.17751">
        <ele>2.1</ele>
        <time>2022-06-02T13:45:52Z</time>
      </trkpt>
      <trkpt lat="49.38415" lon="-1.17751">
        <ele>2.1</ele>
        <time>2022-06-02T13:45:53Z</time>
      </trkpt>
      <trkpt lat="49.38415" lon="-1.17751">
        <ele>2.1</ele>
        <time>2022-06-02T13:45:54Z</time>
      </trkpt>
      <trkpt lat="49.38415" lon="-1.17751">
        <ele>2.1</ele>
        <time>2022-06-02T13:45:55Z</time>
      </trkpt>
      <trkpt lat="49.38415" lon="-1.17751">
        <ele>2.1</ele>
        <time>2022-06-02T13:45:56Z</time>
      </trkpt>
      <trkpt lat="49.38414" lon="-1.17752">
        <ele>2.1</ele>
        <time>2022-06-02T13:45:57Z</time>
      </trkpt>
      <trkpt lat="49.38414" lon="-1.17753">
        <ele>2.1</ele>
        <time>2022-06-02T13:45:58Z</time>
      </trkpt>
      <trkpt lat="49.38413" lon="-1.17753">
        <ele>2.1</ele>
        <time>2022-06-02T13:45:59Z</time>
      </trkpt>
      <trkpt lat="49.38412" lon="-1.17754">
        <ele>2.1</ele>
        <time>2022-06-02T13:46:00Z</time>
      </trkpt>
      <trkpt lat="49.38412" lon="-1.17754">
        <ele>2.1</ele>
        <time>2022-06-02T13:46:02Z</time>
      </trkpt>
      <trkpt lat="49.38412" lon="-1.17755">
        <ele>2.2</ele>
        <time>2022-06-02T13:46:03Z</time>
      </trkpt>
      <trkpt lat="49.38411" lon="-1.17755">
        <ele>2.2</ele>
        <time>2022-06-02T13:46:04Z</time>
      </trkpt>
      <trkpt lat="49.38411" lon="-1.17756">
        <ele>2.2</ele>
        <time>2022-06-02T13:46:05Z</time>
      </trkpt>
      <trkpt lat="49.3841" lon="-1.17756">
        <ele>2.2</ele>
        <time>2022-06-02T13:46:06Z</time>
      </trkpt>
      <trkpt lat="49.38409" lon="-1.17756">
        <ele>2.2</ele>
        <time>2022-06-02T13:46:07Z</time>
      </trkpt>
      <trkpt lat="49.38408" lon="-1.17757">
        <ele>2.2</ele>
        <time>2022-06-02T13:46:08Z</time>
      </trkpt>
      <trkpt lat="49.38408" lon="-1.17758">
        <ele>2.2</ele>
        <time>2022-06-02T13:46:09Z</time>
      </trkpt>
      <trkpt lat="49.38407" lon="-1.17758">
        <ele>2.2</ele>
        <time>2022-06-02T13:46:10Z</time>
      </trkpt>
      <trkpt lat="49.38405" lon="-1.1776">
        <ele>2.2</ele>
        <time>2022-06-02T13:46:11Z</time>
      </trkpt>
      <trkpt lat="49.38404" lon="-1.1776">
        <ele>2.2</ele>
        <time>2022-06-02T13:46:12Z</time>
      </trkpt>
      <trkpt lat="49.38403" lon="-1.17761">
        <ele>2.2</ele>
        <time>2022-06-02T13:46:14Z</time>
      </trkpt>
      <trkpt lat="49.38402" lon="-1.17761">
        <ele>2.2</ele>
        <time>2022-06-02T13:46:15Z</time>
      </trkpt>
      <trkpt lat="49.38401" lon="-1.17761">
        <ele>2.3</ele>
        <time>2022-06-02T13:46:16Z</time>
      </trkpt>
      <trkpt lat="49.384" lon="-1.1776">
        <ele>2.3</ele>
        <time>2022-06-02T13:46:17Z</time>
      </trkpt>
      <trkpt lat="49.38399" lon="-1.1776">
        <ele>2.3</ele>
        <time>2022-06-02T13:46:18Z</time>
      </trkpt>
      <trkpt lat="49.38399" lon="-1.1776">
        <ele>2.3</ele>
        <time>2022-06-02T13:46:19Z</time>
      </trkpt>
      <trkpt lat="49.38398" lon="-1.1776">
        <ele>2.3</ele>
        <time>2022-06-02T13:46:20Z</time>
      </trkpt>
      <trkpt lat="49.38398" lon="-1.1776">
        <ele>2.3</ele>
        <time>2022-06-02T13:46:22Z</time>
      </trkpt>
      <trkpt lat="49.38398" lon="-1.17761">
        <ele>2.3</ele>
        <time>2022-06-02T13:46:24Z</time>
      </trkpt>
      <trkpt lat="49.38398" lon="-1.17761">
        <ele>2.3</ele>
        <time>2022-06-02T13:46:25Z</time>
      </trkpt>
      <trkpt lat="49.38398" lon="-1.17761">
        <ele>2.3</ele>
        <time>2022-06-02T13:46:26Z</time>
      </trkpt>
      <trkpt lat="49.38397" lon="-1.17761">
        <ele>2.3</ele>
        <time>2022-06-02T13:46:27Z</time>
      </trkpt>
      <trkpt lat="49.38397" lon="-1.17761">
        <ele>2.3</ele>
        <time>2022-06-02T13:46:28Z</time>
      </trkpt>
      <trkpt lat="49.38397" lon="-1.17761">
        <ele>2.3</ele>
        <time>2022-06-02T13:46:29Z</time>
      </trkpt>
      <trkpt lat="49.38397" lon="-1.17761">
        <ele>2.3</ele>
        <time>2022-06-02T13:46:30Z</time>
      </trkpt>
      <trkpt lat="49.38396" lon="-1.17761">
        <ele>2.3</ele>
        <time>2022-06-02T13:46:32Z</time>
      </trkpt>
      <trkpt lat="49.38396" lon="-1.17761">
        <ele>2.3</ele>
        <time>2022-06-02T13:46:33Z</time>
      </trkpt>
      <trkpt lat="49.38396" lon="-1.17761">
        <ele>2.3</ele>
        <time>2022-06-02T13:46:34Z</time>
      </trkpt>
      <trkpt lat="49.38396" lon="-1.17761">
        <ele>2.3</ele>
        <time>2022-06-02T13:46:35Z</time>
      </trkpt>
      <trkpt lat="49.38395" lon="-1.17761">
        <ele>2.3</ele>
        <time>2022-06-02T13:46:36Z</time>
      </trkpt>
      <trkpt lat="49.38393" lon="-1.17762">
        <ele>2.3</ele>
        <time>2022-06-02T13:46:37Z</time>
      </trkpt>
      <trkpt lat="49.38396" lon="-1.17761">
        <ele>2.3</ele>
        <time>2022-06-02T13:46:38Z</time>
      </trkpt>
      <trkpt lat="49.38396" lon="-1.17762">
        <ele>2.3</ele>
        <time>2022-06-02T13:46:39Z</time>
      </trkpt>
      <trkpt lat="49.38395" lon="-1.17762">
        <ele>2.3</ele>
        <time>2022-06-02T13:46:41Z</time>
      </trkpt>
      <trkpt lat="49.38394" lon="-1.17762">
        <ele>2.3</ele>
        <time>2022-06-02T13:46:42Z</time>
      </trkpt>
      <trkpt lat="49.38393" lon="-1.17762">
        <ele>2.3</ele>
        <time>2022-06-02T13:46:43Z</time>
      </trkpt>
      <trkpt lat="49.38391" lon="-1.17762">
        <ele>2.3</ele>
        <time>2022-06-02T13:46:44Z</time>
      </trkpt>
      <trkpt lat="49.3839" lon="-1.17762">
        <ele>2.3</ele>
        <time>2022-06-02T13:46:45Z</time>
      </trkpt>
      <trkpt lat="49.38388" lon="-1.17763">
        <ele>2.3</ele>
        <time>2022-06-02T13:46:47Z</time>
      </trkpt>
      <trkpt lat="49.38387" lon="-1.17763">
        <ele>2.3</ele>
        <time>2022-06-02T13:46:48Z</time>
      </trkpt>
      <trkpt lat="49.38386" lon="-1.17763">
        <ele>2.3</ele>
        <time>2022-06-02T13:46:49Z</time>
      </trkpt>
      <trkpt lat="49.38385" lon="-1.17764">
        <ele>2.3</ele>
        <time>2022-06-02T13:46:50Z</time>
      </trkpt>
      <trkpt lat="49.38384" lon="-1.17765">
        <ele>2.3</ele>
        <time>2022-06-02T13:46:51Z</time>
      </trkpt>
      <trkpt lat="49.38382" lon="-1.17765">
        <ele>2.3</ele>
        <time>2022-06-02T13:46:52Z</time>
      </trkpt>
      <trkpt lat="49.3838" lon="-1.17767">
        <ele>2.3</ele>
        <time>2022-06-02T13:46:53Z</time>
      </trkpt>
      <trkpt lat="49.3838" lon="-1.17767">
        <ele>2.3</ele>
        <time>2022-06-02T13:46:54Z</time>
      </trkpt>
      <trkpt lat="49.38379" lon="-1.17768">
        <ele>2.3</ele>
        <time>2022-06-02T13:46:55Z</time>
      </trkpt>
      <trkpt lat="49.38378" lon="-1.17768">
        <ele>2.3</ele>
        <time>2022-06-02T13:46:56Z</time>
      </trkpt>
      <trkpt lat="49.38378" lon="-1.17768">
        <ele>2.3</ele>
        <time>2022-06-02T13:46:58Z</time>
      </trkpt>
      <trkpt lat="49.38378" lon="-1.17769">
        <ele>2.3</ele>
        <time>2022-06-02T13:46:59Z</time>
      </trkpt>
      <trkpt lat="49.38377" lon="-1.17769">
        <ele>2.3</ele>
        <time>2022-06-02T13:47:00Z</time>
      </trkpt>
      <trkpt lat="49.38376" lon="-1.17769">
        <ele>2.3</ele>
        <time>2022-06-02T13:47:01Z</time>
      </trkpt>
      <trkpt lat="49.38374" lon="-1.17769">
        <ele>2.3</ele>
        <time>2022-06-02T13:47:02Z</time>
      </trkpt>
      <trkpt lat="49.38373" lon="-1.1777">
        <ele>2.3</ele>
        <time>2022-06-02T13:47:03Z</time>
      </trkpt>
      <trkpt lat="49.38372" lon="-1.1777">
        <ele>2.3</ele>
        <time>2022-06-02T13:47:04Z</time>
      </trkpt>
      <trkpt lat="49.3837" lon="-1.1777">
        <ele>2.3</ele>
        <time>2022-06-02T13:47:05Z</time>
      </trkpt>
      <trkpt lat="49.38369" lon="-1.1777">
        <ele>2.3</ele>
        <time>2022-06-02T13:47:06Z</time>
      </trkpt>
      <trkpt lat="49.38367" lon="-1.1777">
        <ele>2.3</ele>
        <time>2022-06-02T13:47:07Z</time>
      </trkpt>
      <trkpt lat="49.38366" lon="-1.1777">
        <ele>2.3</ele>
        <time>2022-06-02T13:47:08Z</time>
      </trkpt>
      <trkpt lat="49.38365" lon="-1.17769">
        <ele>2.3</ele>
        <time>2022-06-02T13:47:09Z</time>
      </trkpt>
      <trkpt lat="49.38365" lon="-1.17769">
        <ele>2.3</ele>
        <time>2022-06-02T13:47:10Z</time>
      </trkpt>
      <trkpt lat="49.38364" lon="-1.17769">
        <ele>2.3</ele>
        <time>2022-06-02T13:47:12Z</time>
      </trkpt>
      <trkpt lat="49.38364" lon="-1.17769">
        <ele>2.3</ele>
        <time>2022-06-02T13:47:13Z</time>
      </trkpt>
      <trkpt lat="49.38364" lon="-1.17769">
        <ele>2.3</ele>
        <time>2022-06-02T13:47:14Z</time>
      </trkpt>
      <trkpt lat="49.38362" lon="-1.17769">
        <ele>2.3</ele>
        <time>2022-06-02T13:47:15Z</time>
      </trkpt>
      <trkpt lat="49.38361" lon="-1.17769">
        <ele>2.3</ele>
        <time>2022-06-02T13:47:16Z</time>
      </trkpt>
      <trkpt lat="49.38359" lon="-1.17769">
        <ele>2.3</ele>
        <time>2022-06-02T13:47:17Z</time>
      </trkpt>
      <trkpt lat="49.38358" lon="-1.17769">
        <ele>2.3</ele>
        <time>2022-06-02T13:47:18Z</time>
      </trkpt>
      <trkpt lat="49.38355" lon="-1.1777">
        <ele>2.3</ele>
        <time>2022-06-02T13:47:19Z</time>
      </trkpt>
      <trkpt lat="49.38354" lon="-1.1777">
        <ele>2.3</ele>
        <time>2022-06-02T13:47:21Z</time>
      </trkpt>
      <trkpt lat="49.38353" lon="-1.1777">
        <ele>2.3</ele>
        <time>2022-06-02T13:47:22Z</time>
      </trkpt>
      <trkpt lat="49.38352" lon="-1.1777">
        <ele>2.3</ele>
        <time>2022-06-02T13:47:23Z</time>
      </trkpt>
      <trkpt lat="49.38351" lon="-1.1777">
        <ele>2.2</ele>
        <time>2022-06-02T13:47:24Z</time>
      </trkpt>
      <trkpt lat="49.38349" lon="-1.17771">
        <ele>2.2</ele>
        <time>2022-06-02T13:47:25Z</time>
      </trkpt>
      <trkpt lat="49.38348" lon="-1.17771">
        <ele>2.2</ele>
        <time>2022-06-02T13:47:26Z</time>
      </trkpt>
      <trkpt lat="49.38347" lon="-1.17771">
        <ele>2.2</ele>
        <time>2022-06-02T13:47:27Z</time>
      </trkpt>
      <trkpt lat="49.38345" lon="-1.17771">
        <ele>2.2</ele>
        <time>2022-06-02T13:47:28Z</time>
      </trkpt>
      <trkpt lat="49.38343" lon="-1.17771">
        <ele>2.2</ele>
        <time>2022-06-02T13:47:30Z</time>
      </trkpt>
      <trkpt lat="49.38341" lon="-1.17771">
        <ele>2.2</ele>
        <time>2022-06-02T13:47:31Z</time>
      </trkpt>
      <trkpt lat="49.3834" lon="-1.17771">
        <ele>2.2</ele>
        <time>2022-06-02T13:47:32Z</time>
      </trkpt>
      <trkpt lat="49.38338" lon="-1.17771">
        <ele>2.2</ele>
        <time>2022-06-02T13:47:33Z</time>
      </trkpt>
      <trkpt lat="49.38336" lon="-1.17771">
        <ele>2.2</ele>
        <time>2022-06-02T13:47:34Z</time>
      </trkpt>
      <trkpt lat="49.38334" lon="-1.17771">
        <ele>2.2</ele>
        <time>2022-06-02T13:47:35Z</time>
      </trkpt>
      <trkpt lat="49.38333" lon="-1.17771">
        <ele>2.2</ele>
        <time>2022-06-02T13:47:36Z</time>
      </trkpt>
      <trkpt lat="49.38333" lon="-1.17771">
        <ele>2.2</ele>
        <time>2022-06-02T13:47:37Z</time>
      </trkpt>
      <trkpt lat="49.3833" lon="-1.17771">
        <ele>2.2</ele>
        <time>2022-06-02T13:47:39Z</time>
      </trkpt>
      <trkpt lat="49.38329" lon="-1.1777">
        <ele>2.2</ele>
        <time>2022-06-02T13:47:40Z</time>
      </trkpt>
      <trkpt lat="49.38327" lon="-1.1777">
        <ele>2.2</ele>
        <time>2022-06-02T13:47:41Z</time>
      </trkpt>
      <trkpt lat="49.38326" lon="-1.1777">
        <ele>2.2</ele>
        <time>2022-06-02T13:47:42Z</time>
      </trkpt>
      <trkpt lat="49.38325" lon="-1.1777">
        <ele>2.2</ele>
        <time>2022-06-02T13:47:43Z</time>
      </trkpt>
      <trkpt lat="49.38323" lon="-1.1777">
        <ele>2.3</ele>
        <time>2022-06-02T13:47:45Z</time>
      </trkpt>
      <trkpt lat="49.38321" lon="-1.1777">
        <ele>2.3</ele>
        <time>2022-06-02T13:47:46Z</time>
      </trkpt>
      <trkpt lat="49.3832" lon="-1.1777">
        <ele>2.3</ele>
        <time>2022-06-02T13:47:47Z</time>
      </trkpt>
      <trkpt lat="49.38319" lon="-1.1777">
        <ele>2.3</ele>
        <time>2022-06-02T13:47:48Z</time>
      </trkpt>
      <trkpt lat="49.38317" lon="-1.1777">
        <ele>2.3</ele>
        <time>2022-06-02T13:47:49Z</time>
      </trkpt>
      <trkpt lat="49.38316" lon="-1.17769">
        <ele>2.3</ele>
        <time>2022-06-02T13:47:50Z</time>
      </trkpt>
      <trkpt lat="49.38314" lon="-1.1777">
        <ele>2.3</ele>
        <time>2022-06-02T13:47:51Z</time>
      </trkpt>
      <trkpt lat="49.38313" lon="-1.1777">
        <ele>2.3</ele>
        <time>2022-06-02T13:47:52Z</time>
      </trkpt>
      <trkpt lat="49.38312" lon="-1.1777">
        <ele>2.3</ele>
        <time>2022-06-02T13:47:53Z</time>
      </trkpt>
      <trkpt lat="49.38309" lon="-1.1777">
        <ele>2.3</ele>
        <time>2022-06-02T13:47:54Z</time>
      </trkpt>
      <trkpt lat="49.38308" lon="-1.1777">
        <ele>2.3</ele>
        <time>2022-06-02T13:47:56Z</time>
      </trkpt>
      <trkpt lat="49.38307" lon="-1.1777">
        <ele>2.3</ele>
        <time>2022-06-02T13:47:57Z</time>
      </trkpt>
      <trkpt lat="49.38306" lon="-1.1777">
        <ele>2.3</ele>
        <time>2022-06-02T13:47:58Z</time>
      </trkpt>
      <trkpt lat="49.38305" lon="-1.1777">
        <ele>2.3</ele>
        <time>2022-06-02T13:47:59Z</time>
      </trkpt>
      <trkpt lat="49.38303" lon="-1.17771">
        <ele>2.3</ele>
        <time>2022-06-02T13:48:00Z</time>
      </trkpt>
      <trkpt lat="49.38302" lon="-1.17772">
        <ele>2.3</ele>
        <time>2022-06-02T13:48:02Z</time>
      </trkpt>
      <trkpt lat="49.38302" lon="-1.17772">
        <ele>2.3</ele>
        <time>2022-06-02T13:48:03Z</time>
      </trkpt>
      <trkpt lat="49.38299" lon="-1.17772">
        <ele>2.3</ele>
        <time>2022-06-02T13:48:04Z</time>
      </trkpt>
      <trkpt lat="49.38298" lon="-1.17772">
        <ele>2.3</ele>
        <time>2022-06-02T13:48:05Z</time>
      </trkpt>
      <trkpt lat="49.38298" lon="-1.17772">
        <ele>2.3</ele>
        <time>2022-06-02T13:48:06Z</time>
      </trkpt>
      <trkpt lat="49.38296" lon="-1.17771">
        <ele>2.3</ele>
        <time>2022-06-02T13:48:07Z</time>
      </trkpt>
      <trkpt lat="49.38295" lon="-1.17771">
        <ele>2.3</ele>
        <time>2022-06-02T13:48:08Z</time>
      </trkpt>
      <trkpt lat="49.38294" lon="-1.17771">
        <ele>2.4</ele>
        <time>2022-06-02T13:48:09Z</time>
      </trkpt>
      <trkpt lat="49.38292" lon="-1.17771">
        <ele>2.4</ele>
        <time>2022-06-02T13:48:10Z</time>
      </trkpt>
      <trkpt lat="49.38291" lon="-1.17771">
        <ele>2.4</ele>
        <time>2022-06-02T13:48:11Z</time>
      </trkpt>
      <trkpt lat="49.3829" lon="-1.17771">
        <ele>2.4</ele>
        <time>2022-06-02T13:48:13Z</time>
      </trkpt>
      <trkpt lat="49.38289" lon="-1.17771">
        <ele>2.4</ele>
        <time>2022-06-02T13:48:14Z</time>
      </trkpt>
      <trkpt lat="49.38288" lon="-1.17771">
        <ele>2.4</ele>
        <time>2022-06-02T13:48:15Z</time>
      </trkpt>
      <trkpt lat="49.38287" lon="-1.17771">
        <ele>2.4</ele>
        <time>2022-06-02T13:48:16Z</time>
      </trkpt>
      <trkpt lat="49.38284" lon="-1.17771">
        <ele>2.4</ele>
        <time>2022-06-02T13:48:17Z</time>
      </trkpt>
      <trkpt lat="49.38283" lon="-1.17771">
        <ele>2.4</ele>
        <time>2022-06-02T13:48:18Z</time>
      </trkpt>
      <trkpt lat="49.38282" lon="-1.17771">
        <ele>2.4</ele>
        <time>2022-06-02T13:48:19Z</time>
      </trkpt>
      <trkpt lat="49.38281" lon="-1.17771">
        <ele>2.4</ele>
        <time>2022-06-02T13:48:20Z</time>
      </trkpt>
      <trkpt lat="49.3828" lon="-1.17771">
        <ele>2.4</ele>
        <time>2022-06-02T13:48:21Z</time>
      </trkpt>
      <trkpt lat="49.38278" lon="-1.17771">
        <ele>2.4</ele>
        <time>2022-06-02T13:48:23Z</time>
      </trkpt>
      <trkpt lat="49.38276" lon="-1.17771">
        <ele>2.4</ele>
        <time>2022-06-02T13:48:24Z</time>
      </trkpt>
      <trkpt lat="49.38275" lon="-1.17771">
        <ele>2.4</ele>
        <time>2022-06-02T13:48:25Z</time>
      </trkpt>
      <trkpt lat="49.38274" lon="-1.17771">
        <ele>2.4</ele>
        <time>2022-06-02T13:48:26Z</time>
      </trkpt>
      <trkpt lat="49.38273" lon="-1.17771">
        <ele>2.4</ele>
        <time>2022-06-02T13:48:27Z</time>
      </trkpt>
      <trkpt lat="49.38272" lon="-1.17771">
        <ele>2.4</ele>
        <time>2022-06-02T13:48:28Z</time>
      </trkpt>
      <trkpt lat="49.3827" lon="-1.1777">
        <ele>2.4</ele>
        <time>2022-06-02T13:48:30Z</time>
      </trkpt>
      <trkpt lat="49.38269" lon="-1.1777">
        <ele>2.4</ele>
        <time>2022-06-02T13:48:31Z</time>
      </trkpt>
      <trkpt lat="49.38268" lon="-1.1777">
        <ele>2.4</ele>
        <time>2022-06-02T13:48:32Z</time>
      </trkpt>
      <trkpt lat="49.38267" lon="-1.1777">
        <ele>2.4</ele>
        <time>2022-06-02T13:48:33Z</time>
      </trkpt>
      <trkpt lat="49.38266" lon="-1.1777">
        <ele>2.4</ele>
        <time>2022-06-02T13:48:34Z</time>
      </trkpt>
      <trkpt lat="49.38264" lon="-1.1777">
        <ele>2.4</ele>
        <time>2022-06-02T13:48:35Z</time>
      </trkpt>
      <trkpt lat="49.38263" lon="-1.1777">
        <ele>2.4</ele>
        <time>2022-06-02T13:48:36Z</time>
      </trkpt>
      <trkpt lat="49.38261" lon="-1.1777">
        <ele>2.4</ele>
        <time>2022-06-02T13:48:38Z</time>
      </trkpt>
      <trkpt lat="49.3826" lon="-1.1777">
        <ele>2.4</ele>
        <time>2022-06-02T13:48:39Z</time>
      </trkpt>
      <trkpt lat="49.38257" lon="-1.1777">
        <ele>2.4</ele>
        <time>2022-06-02T13:48:40Z</time>
      </trkpt>
      <trkpt lat="49.38256" lon="-1.1777">
        <ele>2.4</ele>
        <time>2022-06-02T13:48:41Z</time>
      </trkpt>
      <trkpt lat="49.38256" lon="-1.1777">
        <ele>2.4</ele>
        <time>2022-06-02T13:48:42Z</time>
      </trkpt>
      <trkpt lat="49.38255" lon="-1.1777">
        <ele>2.4</ele>
        <time>2022-06-02T13:48:43Z</time>
      </trkpt>
      <trkpt lat="49.38253" lon="-1.1777">
        <ele>2.5</ele>
        <time>2022-06-02T13:48:44Z</time>
      </trkpt>
      <trkpt lat="49.38252" lon="-1.1777">
        <ele>2.5</ele>
        <time>2022-06-02T13:48:46Z</time>
      </trkpt>
      <trkpt lat="49.38251" lon="-1.1777">
        <ele>2.5</ele>
        <time>2022-06-02T13:48:47Z</time>
      </trkpt>
      <trkpt lat="49.3825" lon="-1.1777">
        <ele>2.5</ele>
        <time>2022-06-02T13:48:48Z</time>
      </trkpt>
      <trkpt lat="49.38249" lon="-1.1777">
        <ele>2.5</ele>
        <time>2022-06-02T13:48:49Z</time>
      </trkpt>
      <trkpt lat="49.38247" lon="-1.1777">
        <ele>2.5</ele>
        <time>2022-06-02T13:48:50Z</time>
      </trkpt>
      <trkpt lat="49.38246" lon="-1.1777">
        <ele>2.5</ele>
        <time>2022-06-02T13:48:51Z</time>
      </trkpt>
      <trkpt lat="49.38244" lon="-1.17769">
        <ele>2.5</ele>
        <time>2022-06-02T13:48:52Z</time>
      </trkpt>
      <trkpt lat="49.38243" lon="-1.17769">
        <ele>2.5</ele>
        <time>2022-06-02T13:48:53Z</time>
      </trkpt>
      <trkpt lat="49.38242" lon="-1.17769">
        <ele>2.5</ele>
        <time>2022-06-02T13:48:54Z</time>
      </trkpt>
      <trkpt lat="49.38241" lon="-1.17769">
        <ele>2.5</ele>
        <time>2022-06-02T13:48:56Z</time>
      </trkpt>
      <trkpt lat="49.3824" lon="-1.17769">
        <ele>2.5</ele>
        <time>2022-06-02T13:48:57Z</time>
      </trkpt>
      <trkpt lat="49.38239" lon="-1.17769">
        <ele>2.5</ele>
        <time>2022-06-02T13:48:58Z</time>
      </trkpt>
      <trkpt lat="49.38237" lon="-1.17769">
        <ele>2.5</ele>
        <time>2022-06-02T13:48:59Z</time>
      </trkpt>
      <trkpt lat="49.38235" lon="-1.17769">
        <ele>2.5</ele>
        <time>2022-06-02T13:49:01Z</time>
      </trkpt>
      <trkpt lat="49.38234" lon="-1.17769">
        <ele>2.5</ele>
        <time>2022-06-02T13:49:02Z</time>
      </trkpt>
      <trkpt lat="49.38233" lon="-1.17769">
        <ele>2.6</ele>
        <time>2022-06-02T13:49:03Z</time>
      </trkpt>
      <trkpt lat="49.38231" lon="-1.17769">
        <ele>2.6</ele>
        <time>2022-06-02T13:49:04Z</time>
      </trkpt>
      <trkpt lat="49.3823" lon="-1.17769">
        <ele>2.6</ele>
        <time>2022-06-02T13:49:05Z</time>
      </trkpt>
      <trkpt lat="49.38229" lon="-1.17769">
        <ele>2.6</ele>
        <time>2022-06-02T13:49:06Z</time>
      </trkpt>
      <trkpt lat="49.38226" lon="-1.17769">
        <ele>2.6</ele>
        <time>2022-06-02T13:49:07Z</time>
      </trkpt>
      <trkpt lat="49.38225" lon="-1.17769">
        <ele>2.6</ele>
        <time>2022-06-02T13:49:09Z</time>
      </trkpt>
      <trkpt lat="49.38224" lon="-1.1777">
        <ele>2.6</ele>
        <time>2022-06-02T13:49:10Z</time>
      </trkpt>
      <trkpt lat="49.38223" lon="-1.1777">
        <ele>2.6</ele>
        <time>2022-06-02T13:49:11Z</time>
      </trkpt>
      <trkpt lat="49.38222" lon="-1.1777">
        <ele>2.6</ele>
        <time>2022-06-02T13:49:12Z</time>
      </trkpt>
      <trkpt lat="49.3822" lon="-1.1777">
        <ele>2.6</ele>
        <time>2022-06-02T13:49:13Z</time>
      </trkpt>
      <trkpt lat="49.38219" lon="-1.17771">
        <ele>2.6</ele>
        <time>2022-06-02T13:49:14Z</time>
      </trkpt>
      <trkpt lat="49.38218" lon="-1.17771">
        <ele>2.6</ele>
        <time>2022-06-02T13:49:15Z</time>
      </trkpt>
      <trkpt lat="49.38217" lon="-1.17771">
        <ele>2.6</ele>
        <time>2022-06-02T13:49:17Z</time>
      </trkpt>
      <trkpt lat="49.38216" lon="-1.17771">
        <ele>2.6</ele>
        <time>2022-06-02T13:49:18Z</time>
      </trkpt>
      <trkpt lat="49.38214" lon="-1.17771">
        <ele>2.6</ele>
        <time>2022-06-02T13:49:19Z</time>
      </trkpt>
      <trkpt lat="49.38212" lon="-1.17772">
        <ele>2.6</ele>
        <time>2022-06-02T13:49:20Z</time>
      </trkpt>
      <trkpt lat="49.38211" lon="-1.17772">
        <ele>2.6</ele>
        <time>2022-06-02T13:49:21Z</time>
      </trkpt>
      <trkpt lat="49.38209" lon="-1.17772">
        <ele>2.6</ele>
        <time>2022-06-02T13:49:22Z</time>
      </trkpt>
      <trkpt lat="49.38208" lon="-1.17772">
        <ele>2.6</ele>
        <time>2022-06-02T13:49:24Z</time>
      </trkpt>
      <trkpt lat="49.38207" lon="-1.17772">
        <ele>2.6</ele>
        <time>2022-06-02T13:49:25Z</time>
      </trkpt>
      <trkpt lat="49.38206" lon="-1.17772">
        <ele>2.6</ele>
        <time>2022-06-02T13:49:26Z</time>
      </trkpt>
      <trkpt lat="49.38205" lon="-1.17772">
        <ele>2.6</ele>
        <time>2022-06-02T13:49:27Z</time>
      </trkpt>
      <trkpt lat="49.38203" lon="-1.17772">
        <ele>2.6</ele>
        <time>2022-06-02T13:49:28Z</time>
      </trkpt>
      <trkpt lat="49.38201" lon="-1.17772">
        <ele>2.6</ele>
        <time>2022-06-02T13:49:30Z</time>
      </trkpt>
      <trkpt lat="49.382" lon="-1.17772">
        <ele>2.6</ele>
        <time>2022-06-02T13:49:31Z</time>
      </trkpt>
      <trkpt lat="49.382" lon="-1.17771">
        <ele>2.6</ele>
        <time>2022-06-02T13:49:32Z</time>
      </trkpt>
      <trkpt lat="49.38197" lon="-1.17771">
        <ele>2.6</ele>
        <time>2022-06-02T13:49:33Z</time>
      </trkpt>
      <trkpt lat="49.38196" lon="-1.1777">
        <ele>2.6</ele>
        <time>2022-06-02T13:49:34Z</time>
      </trkpt>
      <trkpt lat="49.38195" lon="-1.1777">
        <ele>2.6</ele>
        <time>2022-06-02T13:49:35Z</time>
      </trkpt>
      <trkpt lat="49.38194" lon="-1.1777">
        <ele>2.6</ele>
        <time>2022-06-02T13:49:36Z</time>
      </trkpt>
      <trkpt lat="49.38193" lon="-1.1777">
        <ele>2.6</ele>
        <time>2022-06-02T13:49:37Z</time>
      </trkpt>
      <trkpt lat="49.38192" lon="-1.1777">
        <ele>2.6</ele>
        <time>2022-06-02T13:49:38Z</time>
      </trkpt>
      <trkpt lat="49.3819" lon="-1.17771">
        <ele>2.6</ele>
        <time>2022-06-02T13:49:39Z</time>
      </trkpt>
      <trkpt lat="49.38188" lon="-1.1777">
        <ele>2.6</ele>
        <time>2022-06-02T13:49:40Z</time>
      </trkpt>
      <trkpt lat="49.38187" lon="-1.1777">
        <ele>2.6</ele>
        <time>2022-06-02T13:49:42Z</time>
      </trkpt>
      <trkpt lat="49.38186" lon="-1.1777">
        <ele>2.6</ele>
        <time>2022-06-02T13:49:43Z</time>
      </trkpt>
      <trkpt lat="49.38185" lon="-1.1777">
        <ele>2.6</ele>
        <time>2022-06-02T13:49:44Z</time>
      </trkpt>
      <trkpt lat="49.38183" lon="-1.1777">
        <ele>2.6</ele>
        <time>2022-06-02T13:49:45Z</time>
      </trkpt>
      <trkpt lat="49.38182" lon="-1.17769">
        <ele>2.6</ele>
        <time>2022-06-02T13:49:46Z</time>
      </trkpt>
      <trkpt lat="49.38181" lon="-1.17769">
        <ele>2.6</ele>
        <time>2022-06-02T13:49:47Z</time>
      </trkpt>
      <trkpt lat="49.38179" lon="-1.1777">
        <ele>2.6</ele>
        <time>2022-06-02T13:49:48Z</time>
      </trkpt>
      <trkpt lat="49.38178" lon="-1.1777">
        <ele>2.6</ele>
        <time>2022-06-02T13:49:50Z</time>
      </trkpt>
      <trkpt lat="49.38177" lon="-1.1777">
        <ele>2.6</ele>
        <time>2022-06-02T13:49:51Z</time>
      </trkpt>
      <trkpt lat="49.38176" lon="-1.1777">
        <ele>2.6</ele>
        <time>2022-06-02T13:49:52Z</time>
      </trkpt>
      <trkpt lat="49.38174" lon="-1.1777">
        <ele>2.6</ele>
        <time>2022-06-02T13:49:53Z</time>
      </trkpt>
      <trkpt lat="49.38173" lon="-1.1777">
        <ele>2.6</ele>
        <time>2022-06-02T13:49:54Z</time>
      </trkpt>
      <trkpt lat="49.38171" lon="-1.1777">
        <ele>2.6</ele>
        <time>2022-06-02T13:49:55Z</time>
      </trkpt>
      <trkpt lat="49.3817" lon="-1.1777">
        <ele>2.6</ele>
        <time>2022-06-02T13:49:56Z</time>
      </trkpt>
      <trkpt lat="49.38169" lon="-1.1777">
        <ele>2.6</ele>
        <time>2022-06-02T13:49:57Z</time>
      </trkpt>
      <trkpt lat="49.38168" lon="-1.1777">
        <ele>2.6</ele>
        <time>2022-06-02T13:49:58Z</time>
      </trkpt>
      <trkpt lat="49.38167" lon="-1.1777">
        <ele>2.6</ele>
        <time>2022-06-02T13:49:59Z</time>
      </trkpt>
      <trkpt lat="49.38165" lon="-1.1777">
        <ele>2.6</ele>
        <time>2022-06-02T13:50:00Z</time>
      </trkpt>
      <trkpt lat="49.38164" lon="-1.17769">
        <ele>2.6</ele>
        <time>2022-06-02T13:50:02Z</time>
      </trkpt>
      <trkpt lat="49.38163" lon="-1.17769">
        <ele>2.6</ele>
        <time>2022-06-02T13:50:03Z</time>
      </trkpt>
      <trkpt lat="49.38161" lon="-1.17769">
        <ele>2.6</ele>
        <time>2022-06-02T13:50:04Z</time>
      </trkpt>
      <trkpt lat="49.3816" lon="-1.17769">
        <ele>2.6</ele>
        <time>2022-06-02T13:50:05Z</time>
      </trkpt>
      <trkpt lat="49.38158" lon="-1.17769">
        <ele>2.6</ele>
        <time>2022-06-02T13:50:06Z</time>
      </trkpt>
      <trkpt lat="49.38157" lon="-1.17769">
        <ele>2.6</ele>
        <time>2022-06-02T13:50:07Z</time>
      </trkpt>
      <trkpt lat="49.38156" lon="-1.17769">
        <ele>2.7</ele>
        <time>2022-06-02T13:50:08Z</time>
      </trkpt>
      <trkpt lat="49.38155" lon="-1.17769">
        <ele>2.7</ele>
        <time>2022-06-02T13:50:09Z</time>
      </trkpt>
      <trkpt lat="49.38153" lon="-1.17768">
        <ele>2.7</ele>
        <time>2022-06-02T13:50:10Z</time>
      </trkpt>
      <trkpt lat="49.38152" lon="-1.17768">
        <ele>2.7</ele>
        <time>2022-06-02T13:50:11Z</time>
      </trkpt>
      <trkpt lat="49.38151" lon="-1.17768">
        <ele>2.7</ele>
        <time>2022-06-02T13:50:12Z</time>
      </trkpt>
      <trkpt lat="49.3815" lon="-1.17767">
        <ele>2.7</ele>
        <time>2022-06-02T13:50:13Z</time>
      </trkpt>
      <trkpt lat="49.38148" lon="-1.17767">
        <ele>2.7</ele>
        <time>2022-06-02T13:50:15Z</time>
      </trkpt>
      <trkpt lat="49.38147" lon="-1.17766">
        <ele>2.7</ele>
        <time>2022-06-02T13:50:16Z</time>
      </trkpt>
      <trkpt lat="49.38146" lon="-1.17766">
        <ele>2.7</ele>
        <time>2022-06-02T13:50:17Z</time>
      </trkpt>
      <trkpt lat="49.38145" lon="-1.17766">
        <ele>2.7</ele>
        <time>2022-06-02T13:50:18Z</time>
      </trkpt>
      <trkpt lat="49.38143" lon="-1.17766">
        <ele>2.7</ele>
        <time>2022-06-02T13:50:19Z</time>
      </trkpt>
      <trkpt lat="49.38142" lon="-1.17766">
        <ele>2.7</ele>
        <time>2022-06-02T13:50:20Z</time>
      </trkpt>
      <trkpt lat="49.38141" lon="-1.17766">
        <ele>2.7</ele>
        <time>2022-06-02T13:50:21Z</time>
      </trkpt>
      <trkpt lat="49.3814" lon="-1.17767">
        <ele>2.6</ele>
        <time>2022-06-02T13:50:22Z</time>
      </trkpt>
      <trkpt lat="49.38139" lon="-1.17767">
        <ele>2.6</ele>
        <time>2022-06-02T13:50:23Z</time>
      </trkpt>
      <trkpt lat="49.38138" lon="-1.17767">
        <ele>2.6</ele>
        <time>2022-06-02T13:50:24Z</time>
      </trkpt>
      <trkpt lat="49.38136" lon="-1.17766">
        <ele>2.6</ele>
        <time>2022-06-02T13:50:25Z</time>
      </trkpt>
      <trkpt lat="49.38135" lon="-1.17766">
        <ele>2.6</ele>
        <time>2022-06-02T13:50:26Z</time>
      </trkpt>
      <trkpt lat="49.38133" lon="-1.17767">
        <ele>2.6</ele>
        <time>2022-06-02T13:50:28Z</time>
      </trkpt>
      <trkpt lat="49.38132" lon="-1.17767">
        <ele>2.6</ele>
        <time>2022-06-02T13:50:29Z</time>
      </trkpt>
      <trkpt lat="49.38131" lon="-1.17766">
        <ele>2.6</ele>
        <time>2022-06-02T13:50:30Z</time>
      </trkpt>
      <trkpt lat="49.3813" lon="-1.17766">
        <ele>2.6</ele>
        <time>2022-06-02T13:50:31Z</time>
      </trkpt>
      <trkpt lat="49.38129" lon="-1.17766">
        <ele>2.6</ele>
        <time>2022-06-02T13:50:32Z</time>
      </trkpt>
      <trkpt lat="49.38128" lon="-1.17766">
        <ele>2.6</ele>
        <time>2022-06-02T13:50:33Z</time>
      </trkpt>
      <trkpt lat="49.38127" lon="-1.17766">
        <ele>2.6</ele>
        <time>2022-06-02T13:50:34Z</time>
      </trkpt>
      <trkpt lat="49.38125" lon="-1.17765">
        <ele>2.6</ele>
        <time>2022-06-02T13:50:35Z</time>
      </trkpt>
      <trkpt lat="49.38124" lon="-1.17765">
        <ele>2.6</ele>
        <time>2022-06-02T13:50:36Z</time>
      </trkpt>
      <trkpt lat="49.38123" lon="-1.17765">
        <ele>2.6</ele>
        <time>2022-06-02T13:50:37Z</time>
      </trkpt>
      <trkpt lat="49.38121" lon="-1.17764">
        <ele>2.6</ele>
        <time>2022-06-02T13:50:38Z</time>
      </trkpt>
      <trkpt lat="49.3812" lon="-1.17763">
        <ele>2.6</ele>
        <time>2022-06-02T13:50:40Z</time>
      </trkpt>
      <trkpt lat="49.38119" lon="-1.17763">
        <ele>2.6</ele>
        <time>2022-06-02T13:50:41Z</time>
      </trkpt>
      <trkpt lat="49.38119" lon="-1.17763">
        <ele>2.6</ele>
        <time>2022-06-02T13:50:42Z</time>
      </trkpt>
      <trkpt lat="49.38118" lon="-1.17763">
        <ele>2.6</ele>
        <time>2022-06-02T13:50:43Z</time>
      </trkpt>
      <trkpt lat="49.38117" lon="-1.17762">
        <ele>2.6</ele>
        <time>2022-06-02T13:50:44Z</time>
      </trkpt>
      <trkpt lat="49.38116" lon="-1.17762">
        <ele>2.6</ele>
        <time>2022-06-02T13:50:45Z</time>
      </trkpt>
      <trkpt lat="49.38115" lon="-1.1776">
        <ele>2.6</ele>
        <time>2022-06-02T13:50:47Z</time>
      </trkpt>
      <trkpt lat="49.38115" lon="-1.1776">
        <ele>2.6</ele>
        <time>2022-06-02T13:50:48Z</time>
      </trkpt>
      <trkpt lat="49.38115" lon="-1.17759">
        <ele>2.6</ele>
        <time>2022-06-02T13:50:49Z</time>
      </trkpt>
      <trkpt lat="49.38115" lon="-1.17758">
        <ele>2.6</ele>
        <time>2022-06-02T13:50:50Z</time>
      </trkpt>
      <trkpt lat="49.38115" lon="-1.17758">
        <ele>2.6</ele>
        <time>2022-06-02T13:50:52Z</time>
      </trkpt>
      <trkpt lat="49.38116" lon="-1.17758">
        <ele>2.6</ele>
        <time>2022-06-02T13:50:53Z</time>
      </trkpt>
      <trkpt lat="49.38116" lon="-1.17758">
        <ele>2.6</ele>
        <time>2022-06-02T13:50:54Z</time>
      </trkpt>
      <trkpt lat="49.38116" lon="-1.17758">
        <ele>2.6</ele>
        <time>2022-06-02T13:50:55Z</time>
      </trkpt>
      <trkpt lat="49.38116" lon="-1.17758">
        <ele>2.6</ele>
        <time>2022-06-02T13:50:56Z</time>
      </trkpt>
      <trkpt lat="49.38116" lon="-1.17758">
        <ele>2.6</ele>
        <time>2022-06-02T13:50:57Z</time>
      </trkpt>
      <trkpt lat="49.38116" lon="-1.17758">
        <ele>2.6</ele>
        <time>2022-06-02T13:50:58Z</time>
      </trkpt>
      <trkpt lat="49.38115" lon="-1.17759">
        <ele>2.6</ele>
        <time>2022-06-02T13:51:00Z</time>
      </trkpt>
      <trkpt lat="49.38114" lon="-1.1776">
        <ele>2.6</ele>
        <time>2022-06-02T13:51:01Z</time>
      </trkpt>
      <trkpt lat="49.38113" lon="-1.1776">
        <ele>2.5</ele>
        <time>2022-06-02T13:51:03Z</time>
      </trkpt>
      <trkpt lat="49.38112" lon="-1.17761">
        <ele>2.5</ele>
        <time>2022-06-02T13:51:04Z</time>
      </trkpt>
      <trkpt lat="49.38111" lon="-1.17761">
        <ele>2.5</ele>
        <time>2022-06-02T13:51:05Z</time>
      </trkpt>
      <trkpt lat="49.3811" lon="-1.17761">
        <ele>2.5</ele>
        <time>2022-06-02T13:51:06Z</time>
      </trkpt>
      <trkpt lat="49.38109" lon="-1.17761">
        <ele>2.5</ele>
        <time>2022-06-02T13:51:07Z</time>
      </trkpt>
      <trkpt lat="49.38108" lon="-1.17761">
        <ele>2.5</ele>
        <time>2022-06-02T13:51:08Z</time>
      </trkpt>
      <trkpt lat="49.38108" lon="-1.17761">
        <ele>2.5</ele>
        <time>2022-06-02T13:51:09Z</time>
      </trkpt>
      <trkpt lat="49.38107" lon="-1.17761">
        <ele>2.5</ele>
        <time>2022-06-02T13:51:10Z</time>
      </trkpt>
      <trkpt lat="49.38107" lon="-1.17761">
        <ele>2.5</ele>
        <time>2022-06-02T13:51:12Z</time>
      </trkpt>
      <trkpt lat="49.38106" lon="-1.17761">
        <ele>2.5</ele>
        <time>2022-06-02T13:51:13Z</time>
      </trkpt>
      <trkpt lat="49.38106" lon="-1.17761">
        <ele>2.5</ele>
        <time>2022-06-02T13:51:14Z</time>
      </trkpt>
      <trkpt lat="49.38106" lon="-1.17761">
        <ele>2.5</ele>
        <time>2022-06-02T13:51:15Z</time>
      </trkpt>
      <trkpt lat="49.38105" lon="-1.17762">
        <ele>2.5</ele>
        <time>2022-06-02T13:51:17Z</time>
      </trkpt>
      <trkpt lat="49.38105" lon="-1.17762">
        <ele>2.5</ele>
        <time>2022-06-02T13:51:18Z</time>
      </trkpt>
      <trkpt lat="49.38104" lon="-1.17762">
        <ele>2.5</ele>
        <time>2022-06-02T13:51:19Z</time>
      </trkpt>
      <trkpt lat="49.38104" lon="-1.17762">
        <ele>2.5</ele>
        <time>2022-06-02T13:51:20Z</time>
      </trkpt>
      <trkpt lat="49.38103" lon="-1.17762">
        <ele>2.5</ele>
        <time>2022-06-02T13:51:21Z</time>
      </trkpt>
      <trkpt lat="49.38103" lon="-1.17762">
        <ele>2.5</ele>
        <time>2022-06-02T13:51:22Z</time>
      </trkpt>
      <trkpt lat="49.38102" lon="-1.17762">
        <ele>2.5</ele>
        <time>2022-06-02T13:51:24Z</time>
      </trkpt>
      <trkpt lat="49.38102" lon="-1.17762">
        <ele>2.5</ele>
        <time>2022-06-02T13:51:25Z</time>
      </trkpt>
      <trkpt lat="49.38101" lon="-1.17762">
        <ele>2.5</ele>
        <time>2022-06-02T13:51:26Z</time>
      </trkpt>
      <trkpt lat="49.38101" lon="-1.17762">
        <ele>2.5</ele>
        <time>2022-06-02T13:51:27Z</time>
      </trkpt>
      <trkpt lat="49.38099" lon="-1.17762">
        <ele>2.5</ele>
        <time>2022-06-02T13:51:28Z</time>
      </trkpt>
      <trkpt lat="49.38098" lon="-1.17763">
        <ele>2.4</ele>
        <time>2022-06-02T13:51:29Z</time>
      </trkpt>
      <trkpt lat="49.38095" lon="-1.17764">
        <ele>2.4</ele>
        <time>2022-06-02T13:51:30Z</time>
      </trkpt>
      <trkpt lat="49.38094" lon="-1.17765">
        <ele>2.4</ele>
        <time>2022-06-02T13:51:31Z</time>
      </trkpt>
      <trkpt lat="49.38093" lon="-1.17766">
        <ele>2.4</ele>
        <time>2022-06-02T13:51:33Z</time>
      </trkpt>
      <trkpt lat="49.38091" lon="-1.17767">
        <ele>2.4</ele>
        <time>2022-06-02T13:51:34Z</time>
      </trkpt>
      <trkpt lat="49.38089" lon="-1.17767">
        <ele>2.4</ele>
        <time>2022-06-02T13:51:35Z</time>
      </trkpt>
      <trkpt lat="49.38087" lon="-1.17767">
        <ele>2.4</ele>
        <time>2022-06-02T13:51:36Z</time>
      </trkpt>
      <trkpt lat="49.38085" lon="-1.17767">
        <ele>2.4</ele>
        <time>2022-06-02T13:51:38Z</time>
      </trkpt>
      <trkpt lat="49.38084" lon="-1.17767">
        <ele>2.4</ele>
        <time>2022-06-02T13:51:39Z</time>
      </trkpt>
      <trkpt lat="49.38082" lon="-1.17767">
        <ele>2.4</ele>
        <time>2022-06-02T13:51:40Z</time>
      </trkpt>
      <trkpt lat="49.38081" lon="-1.17768">
        <ele>2.4</ele>
        <time>2022-06-02T13:51:41Z</time>
      </trkpt>
      <trkpt lat="49.38079" lon="-1.17768">
        <ele>2.4</ele>
        <time>2022-06-02T13:51:42Z</time>
      </trkpt>
      <trkpt lat="49.38078" lon="-1.17768">
        <ele>2.4</ele>
        <time>2022-06-02T13:51:43Z</time>
      </trkpt>
      <trkpt lat="49.38077" lon="-1.17768">
        <ele>2.4</ele>
        <time>2022-06-02T13:51:44Z</time>
      </trkpt>
      <trkpt lat="49.38076" lon="-1.17768">
        <ele>2.3</ele>
        <time>2022-06-02T13:51:46Z</time>
      </trkpt>
      <trkpt lat="49.38074" lon="-1.17768">
        <ele>2.3</ele>
        <time>2022-06-02T13:51:47Z</time>
      </trkpt>
      <trkpt lat="49.38073" lon="-1.17768">
        <ele>2.3</ele>
        <time>2022-06-02T13:51:48Z</time>
      </trkpt>
      <trkpt lat="49.38072" lon="-1.17767">
        <ele>2.3</ele>
        <time>2022-06-02T13:51:49Z</time>
      </trkpt>
      <trkpt lat="49.38071" lon="-1.17767">
        <ele>2.3</ele>
        <time>2022-06-02T13:51:50Z</time>
      </trkpt>
      <trkpt lat="49.38069" lon="-1.17767">
        <ele>2.3</ele>
        <time>2022-06-02T13:51:52Z</time>
      </trkpt>
      <trkpt lat="49.38068" lon="-1.17767">
        <ele>2.3</ele>
        <time>2022-06-02T13:51:53Z</time>
      </trkpt>
      <trkpt lat="49.38067" lon="-1.17766">
        <ele>2.3</ele>
        <time>2022-06-02T13:51:54Z</time>
      </trkpt>
      <trkpt lat="49.38067" lon="-1.17766">
        <ele>2.3</ele>
        <time>2022-06-02T13:51:55Z</time>
      </trkpt>
      <trkpt lat="49.38065" lon="-1.17766">
        <ele>2.3</ele>
        <time>2022-06-02T13:51:56Z</time>
      </trkpt>
      <trkpt lat="49.38064" lon="-1.17765">
        <ele>2.3</ele>
        <time>2022-06-02T13:51:57Z</time>
      </trkpt>
      <trkpt lat="49.38063" lon="-1.17765">
        <ele>2.3</ele>
        <time>2022-06-02T13:51:58Z</time>
      </trkpt>
      <trkpt lat="49.38062" lon="-1.17764">
        <ele>2.2</ele>
        <time>2022-06-02T13:52:00Z</time>
      </trkpt>
      <trkpt lat="49.38061" lon="-1.17764">
        <ele>2.2</ele>
        <time>2022-06-02T13:52:01Z</time>
      </trkpt>
      <trkpt lat="49.3806" lon="-1.17763">
        <ele>2.2</ele>
        <time>2022-06-02T13:52:02Z</time>
      </trkpt>
      <trkpt lat="49.38058" lon="-1.17763">
        <ele>2.2</ele>
        <time>2022-06-02T13:52:03Z</time>
      </trkpt>
      <trkpt lat="49.38057" lon="-1.17762">
        <ele>2.2</ele>
        <time>2022-06-02T13:52:04Z</time>
      </trkpt>
      <trkpt lat="49.38056" lon="-1.17762">
        <ele>2.2</ele>
        <time>2022-06-02T13:52:05Z</time>
      </trkpt>
      <trkpt lat="49.38055" lon="-1.17762">
        <ele>2.2</ele>
        <time>2022-06-02T13:52:06Z</time>
      </trkpt>
      <trkpt lat="49.38053" lon="-1.17762">
        <ele>2.2</ele>
        <time>2022-06-02T13:52:07Z</time>
      </trkpt>
      <trkpt lat="49.38052" lon="-1.17762">
        <ele>2.2</ele>
        <time>2022-06-02T13:52:09Z</time>
      </trkpt>
      <trkpt lat="49.38051" lon="-1.17761">
        <ele>2.1</ele>
        <time>2022-06-02T13:52:10Z</time>
      </trkpt>
      <trkpt lat="49.3805" lon="-1.1776">
        <ele>2.1</ele>
        <time>2022-06-02T13:52:11Z</time>
      </trkpt>
      <trkpt lat="49.3805" lon="-1.17759">
        <ele>2.1</ele>
        <time>2022-06-02T13:52:12Z</time>
      </trkpt>
      <trkpt lat="49.3805" lon="-1.17757">
        <ele>2.1</ele>
        <time>2022-06-02T13:52:13Z</time>
      </trkpt>
      <trkpt lat="49.38049" lon="-1.17756">
        <ele>2.1</ele>
        <time>2022-06-02T13:52:14Z</time>
      </trkpt>
      <trkpt lat="49.38048" lon="-1.17755">
        <ele>2.1</ele>
        <time>2022-06-02T13:52:16Z</time>
      </trkpt>
      <trkpt lat="49.38047" lon="-1.17755">
        <ele>2.1</ele>
        <time>2022-06-02T13:52:17Z</time>
      </trkpt>
      <trkpt lat="49.38046" lon="-1.17755">
        <ele>2.1</ele>
        <time>2022-06-02T13:52:18Z</time>
      </trkpt>
      <trkpt lat="49.38045" lon="-1.17754">
        <ele>2.1</ele>
        <time>2022-06-02T13:52:19Z</time>
      </trkpt>
      <trkpt lat="49.38043" lon="-1.17754">
        <ele>2.1</ele>
        <time>2022-06-02T13:52:20Z</time>
      </trkpt>
      <trkpt lat="49.38042" lon="-1.17754">
        <ele>2.1</ele>
        <time>2022-06-02T13:52:21Z</time>
      </trkpt>
      <trkpt lat="49.38041" lon="-1.17754">
        <ele>2.1</ele>
        <time>2022-06-02T13:52:22Z</time>
      </trkpt>
      <trkpt lat="49.38039" lon="-1.17753">
        <ele>2.1</ele>
        <time>2022-06-02T13:52:24Z</time>
      </trkpt>
      <trkpt lat="49.38038" lon="-1.17753">
        <ele>2.2</ele>
        <time>2022-06-02T13:52:25Z</time>
      </trkpt>
      <trkpt lat="49.38037" lon="-1.17753">
        <ele>2.2</ele>
        <time>2022-06-02T13:52:26Z</time>
      </trkpt>
      <trkpt lat="49.38035" lon="-1.17752">
        <ele>2.2</ele>
        <time>2022-06-02T13:52:28Z</time>
      </trkpt>
      <trkpt lat="49.38034" lon="-1.17752">
        <ele>2.2</ele>
        <time>2022-06-02T13:52:29Z</time>
      </trkpt>
      <trkpt lat="49.38033" lon="-1.17751">
        <ele>2.2</ele>
        <time>2022-06-02T13:52:30Z</time>
      </trkpt>
      <trkpt lat="49.38032" lon="-1.17751">
        <ele>2.2</ele>
        <time>2022-06-02T13:52:31Z</time>
      </trkpt>
      <trkpt lat="49.3803" lon="-1.1775">
        <ele>2.2</ele>
        <time>2022-06-02T13:52:32Z</time>
      </trkpt>
      <trkpt lat="49.38029" lon="-1.17749">
        <ele>2.2</ele>
        <time>2022-06-02T13:52:33Z</time>
      </trkpt>
      <trkpt lat="49.38027" lon="-1.17748">
        <ele>2.2</ele>
        <time>2022-06-02T13:52:34Z</time>
      </trkpt>
      <trkpt lat="49.38026" lon="-1.17748">
        <ele>2.2</ele>
        <time>2022-06-02T13:52:35Z</time>
      </trkpt>
      <trkpt lat="49.38025" lon="-1.17747">
        <ele>2.2</ele>
        <time>2022-06-02T13:52:37Z</time>
      </trkpt>
      <trkpt lat="49.38024" lon="-1.17747">
        <ele>2.2</ele>
        <time>2022-06-02T13:52:38Z</time>
      </trkpt>
      <trkpt lat="49.38023" lon="-1.17746">
        <ele>2.3</ele>
        <time>2022-06-02T13:52:39Z</time>
      </trkpt>
      <trkpt lat="49.38022" lon="-1.17746">
        <ele>2.3</ele>
        <time>2022-06-02T13:52:40Z</time>
      </trkpt>
      <trkpt lat="49.38021" lon="-1.17746">
        <ele>2.3</ele>
        <time>2022-06-02T13:52:41Z</time>
      </trkpt>
      <trkpt lat="49.38019" lon="-1.17745">
        <ele>2.3</ele>
        <time>2022-06-02T13:52:43Z</time>
      </trkpt>
      <trkpt lat="49.38018" lon="-1.17744">
        <ele>2.3</ele>
        <time>2022-06-02T13:52:44Z</time>
      </trkpt>
      <trkpt lat="49.38017" lon="-1.17744">
        <ele>2.4</ele>
        <time>2022-06-02T13:52:45Z</time>
      </trkpt>
      <trkpt lat="49.38016" lon="-1.17743">
        <ele>2.4</ele>
        <time>2022-06-02T13:52:46Z</time>
      </trkpt>
      <trkpt lat="49.38015" lon="-1.17743">
        <ele>2.4</ele>
        <time>2022-06-02T13:52:47Z</time>
      </trkpt>
      <trkpt lat="49.38013" lon="-1.17742">
        <ele>2.5</ele>
        <time>2022-06-02T13:52:48Z</time>
      </trkpt>
      <trkpt lat="49.38012" lon="-1.17742">
        <ele>2.5</ele>
        <time>2022-06-02T13:52:49Z</time>
      </trkpt>
      <trkpt lat="49.38011" lon="-1.17742">
        <ele>2.5</ele>
        <time>2022-06-02T13:52:50Z</time>
      </trkpt>
      <trkpt lat="49.3801" lon="-1.17741">
        <ele>2.6</ele>
        <time>2022-06-02T13:52:52Z</time>
      </trkpt>
      <trkpt lat="49.38008" lon="-1.17741">
        <ele>2.7</ele>
        <time>2022-06-02T13:52:53Z</time>
      </trkpt>
      <trkpt lat="49.38007" lon="-1.17741">
        <ele>2.7</ele>
        <time>2022-06-02T13:52:54Z</time>
      </trkpt>
      <trkpt lat="49.38006" lon="-1.17741">
        <ele>2.7</ele>
        <time>2022-06-02T13:52:55Z</time>
      </trkpt>
      <trkpt lat="49.38005" lon="-1.17742">
        <ele>2.8</ele>
        <time>2022-06-02T13:52:56Z</time>
      </trkpt>
      <trkpt lat="49.38003" lon="-1.17742">
        <ele>2.8</ele>
        <time>2022-06-02T13:52:57Z</time>
      </trkpt>
      <trkpt lat="49.38001" lon="-1.17743">
        <ele>3</ele>
        <time>2022-06-02T13:52:58Z</time>
      </trkpt>
      <trkpt lat="49.38" lon="-1.17743">
        <ele>3</ele>
        <time>2022-06-02T13:53:00Z</time>
      </trkpt>
      <trkpt lat="49.37999" lon="-1.17744">
        <ele>3.1</ele>
        <time>2022-06-02T13:53:01Z</time>
      </trkpt>
      <trkpt lat="49.37998" lon="-1.17744">
        <ele>3.1</ele>
        <time>2022-06-02T13:53:02Z</time>
      </trkpt>
      <trkpt lat="49.37997" lon="-1.17745">
        <ele>3.1</ele>
        <time>2022-06-02T13:53:03Z</time>
      </trkpt>
      <trkpt lat="49.37996" lon="-1.17745">
        <ele>3.2</ele>
        <time>2022-06-02T13:53:04Z</time>
      </trkpt>
      <trkpt lat="49.37995" lon="-1.17746">
        <ele>3.2</ele>
        <time>2022-06-02T13:53:05Z</time>
      </trkpt>
      <trkpt lat="49.37994" lon="-1.17746">
        <ele>3.3</ele>
        <time>2022-06-02T13:53:07Z</time>
      </trkpt>
      <trkpt lat="49.37993" lon="-1.17747">
        <ele>3.3</ele>
        <time>2022-06-02T13:53:08Z</time>
      </trkpt>
      <trkpt lat="49.37992" lon="-1.17747">
        <ele>3.3</ele>
        <time>2022-06-02T13:53:09Z</time>
      </trkpt>
      <trkpt lat="49.37991" lon="-1.17748">
        <ele>3.4</ele>
        <time>2022-06-02T13:53:10Z</time>
      </trkpt>
      <trkpt lat="49.3799" lon="-1.17748">
        <ele>3.4</ele>
        <time>2022-06-02T13:53:11Z</time>
      </trkpt>
      <trkpt lat="49.37989" lon="-1.17749">
        <ele>3.5</ele>
        <time>2022-06-02T13:53:12Z</time>
      </trkpt>
      <trkpt lat="49.37988" lon="-1.1775">
        <ele>3.5</ele>
        <time>2022-06-02T13:53:13Z</time>
      </trkpt>
      <trkpt lat="49.37988" lon="-1.17752">
        <ele>3.5</ele>
        <time>2022-06-02T13:53:15Z</time>
      </trkpt>
      <trkpt lat="49.37987" lon="-1.17753">
        <ele>3.6</ele>
        <time>2022-06-02T13:53:16Z</time>
      </trkpt>
      <trkpt lat="49.37986" lon="-1.17754">
        <ele>3.6</ele>
        <time>2022-06-02T13:53:17Z</time>
      </trkpt>
      <trkpt lat="49.37985" lon="-1.17755">
        <ele>3.6</ele>
        <time>2022-06-02T13:53:18Z</time>
      </trkpt>
      <trkpt lat="49.37985" lon="-1.17757">
        <ele>3.6</ele>
        <time>2022-06-02T13:53:19Z</time>
      </trkpt>
      <trkpt lat="49.37984" lon="-1.17758">
        <ele>3.6</ele>
        <time>2022-06-02T13:53:21Z</time>
      </trkpt>
      <trkpt lat="49.37984" lon="-1.17759">
        <ele>3.6</ele>
        <time>2022-06-02T13:53:22Z</time>
      </trkpt>
      <trkpt lat="49.37983" lon="-1.17761">
        <ele>3.7</ele>
        <time>2022-06-02T13:53:23Z</time>
      </trkpt>
      <trkpt lat="49.37982" lon="-1.17762">
        <ele>3.7</ele>
        <time>2022-06-02T13:53:24Z</time>
      </trkpt>
      <trkpt lat="49.37981" lon="-1.17762">
        <ele>3.7</ele>
        <time>2022-06-02T13:53:26Z</time>
      </trkpt>
      <trkpt lat="49.3798" lon="-1.17762">
        <ele>3.7</ele>
        <time>2022-06-02T13:53:27Z</time>
      </trkpt>
      <trkpt lat="49.37979" lon="-1.17761">
        <ele>3.7</ele>
        <time>2022-06-02T13:53:28Z</time>
      </trkpt>
      <trkpt lat="49.37979" lon="-1.17761">
        <ele>3.7</ele>
        <time>2022-06-02T13:53:29Z</time>
      </trkpt>
      <trkpt lat="49.37979" lon="-1.17761">
        <ele>3.7</ele>
        <time>2022-06-02T13:53:30Z</time>
      </trkpt>
      <trkpt lat="49.37979" lon="-1.17761">
        <ele>3.7</ele>
        <time>2022-06-02T13:53:31Z</time>
      </trkpt>
      <trkpt lat="49.37979" lon="-1.17761">
        <ele>3.7</ele>
        <time>2022-06-02T13:53:32Z</time>
      </trkpt>
      <trkpt lat="49.37979" lon="-1.17761">
        <ele>3.7</ele>
        <time>2022-06-02T13:53:33Z</time>
      </trkpt>
      <trkpt lat="49.37979" lon="-1.17761">
        <ele>3.7</ele>
        <time>2022-06-02T13:53:34Z</time>
      </trkpt>
      <trkpt lat="49.37979" lon="-1.17761">
        <ele>3.7</ele>
        <time>2022-06-02T13:53:35Z</time>
      </trkpt>
      <trkpt lat="49.37979" lon="-1.17761">
        <ele>3.7</ele>
        <time>2022-06-02T13:53:36Z</time>
      </trkpt>
      <trkpt lat="49.37979" lon="-1.17761">
        <ele>3.7</ele>
        <time>2022-06-02T13:53:37Z</time>
      </trkpt>
      <trkpt lat="49.37979" lon="-1.17761">
        <ele>3.7</ele>
        <time>2022-06-02T13:53:38Z</time>
      </trkpt>
      <trkpt lat="49.37979" lon="-1.17761">
        <ele>3.7</ele>
        <time>2022-06-02T13:53:39Z</time>
      </trkpt>
      <trkpt lat="49.37979" lon="-1.17761">
        <ele>3.7</ele>
        <time>2022-06-02T13:53:40Z</time>
      </trkpt>
      <trkpt lat="49.37979" lon="-1.17761">
        <ele>3.7</ele>
        <time>2022-06-02T13:53:41Z</time>
      </trkpt>
      <trkpt lat="49.37979" lon="-1.17761">
        <ele>3.7</ele>
        <time>2022-06-02T13:53:42Z</time>
      </trkpt>
      <trkpt lat="49.37979" lon="-1.17761">
        <ele>3.7</ele>
        <time>2022-06-02T13:53:43Z</time>
      </trkpt>
      <trkpt lat="49.37979" lon="-1.17761">
        <ele>3.7</ele>
        <time>2022-06-02T13:53:44Z</time>
      </trkpt>
      <trkpt lat="49.37979" lon="-1.17761">
        <ele>3.7</ele>
        <time>2022-06-02T13:53:45Z</time>
      </trkpt>
      <trkpt lat="49.37979" lon="-1.17761">
        <ele>3.7</ele>
        <time>2022-06-02T13:53:46Z</time>
      </trkpt>
      <trkpt lat="49.37979" lon="-1.17761">
        <ele>3.7</ele>
        <time>2022-06-02T13:53:47Z</time>
      </trkpt>
      <trkpt lat="49.37979" lon="-1.17761">
        <ele>3.7</ele>
        <time>2022-06-02T13:53:48Z</time>
      </trkpt>
      <trkpt lat="49.37979" lon="-1.17761">
        <ele>3.7</ele>
        <time>2022-06-02T13:53:49Z</time>
      </trkpt>
      <trkpt lat="49.37979" lon="-1.17761">
        <ele>3.7</ele>
        <time>2022-06-02T13:53:50Z</time>
      </trkpt>
      <trkpt lat="49.37979" lon="-1.17761">
        <ele>3.7</ele>
        <time>2022-06-02T13:53:51Z</time>
      </trkpt>
      <trkpt lat="49.37979" lon="-1.17761">
        <ele>3.7</ele>
        <time>2022-06-02T13:53:52Z</time>
      </trkpt>
      <trkpt lat="49.37979" lon="-1.17761">
        <ele>3.7</ele>
        <time>2022-06-02T13:53:53Z</time>
      </trkpt>
      <trkpt lat="49.37979" lon="-1.17761">
        <ele>3.7</ele>
        <time>2022-06-02T13:53:54Z</time>
      </trkpt>
      <trkpt lat="49.37979" lon="-1.17761">
        <ele>3.7</ele>
        <time>2022-06-02T13:53:55Z</time>
      </trkpt>
      <trkpt lat="49.37979" lon="-1.17761">
        <ele>3.7</ele>
        <time>2022-06-02T13:53:56Z</time>
      </trkpt>
      <trkpt lat="49.37979" lon="-1.17761">
        <ele>3.7</ele>
        <time>2022-06-02T13:53:57Z</time>
      </trkpt>
      <trkpt lat="49.37979" lon="-1.17761">
        <ele>3.7</ele>
        <time>2022-06-02T13:53:58Z</time>
      </trkpt>
      <trkpt lat="49.37979" lon="-1.17761">
        <ele>3.7</ele>
        <time>2022-06-02T13:53:59Z</time>
      </trkpt>
      <trkpt lat="49.37979" lon="-1.17761">
        <ele>3.7</ele>
        <time>2022-06-02T13:54:00Z</time>
      </trkpt>
      <trkpt lat="49.37979" lon="-1.17761">
        <ele>3.7</ele>
        <time>2022-06-02T13:54:01Z</time>
      </trkpt>
      <trkpt lat="49.37979" lon="-1.17761">
        <ele>3.7</ele>
        <time>2022-06-02T13:54:02Z</time>
      </trkpt>
      <trkpt lat="49.37979" lon="-1.17761">
        <ele>3.7</ele>
        <time>2022-06-02T13:54:03Z</time>
      </trkpt>
      <trkpt lat="49.37979" lon="-1.17761">
        <ele>3.7</ele>
        <time>2022-06-02T13:54:04Z</time>
      </trkpt>
      <trkpt lat="49.37979" lon="-1.17761">
        <ele>3.7</ele>
        <time>2022-06-02T13:54:05Z</time>
      </trkpt>
      <trkpt lat="49.37979" lon="-1.17761">
        <ele>3.7</ele>
        <time>2022-06-02T13:54:06Z</time>
      </trkpt>
      <trkpt lat="49.37979" lon="-1.17761">
        <ele>3.7</ele>
        <time>2022-06-02T13:54:07Z</time>
      </trkpt>
      <trkpt lat="49.37979" lon="-1.17761">
        <ele>3.7</ele>
        <time>2022-06-02T13:54:08Z</time>
      </trkpt>
      <trkpt lat="49.37979" lon="-1.17761">
        <ele>3.7</ele>
        <time>2022-06-02T13:54:09Z</time>
      </trkpt>
      <trkpt lat="49.37979" lon="-1.17761">
        <ele>3.7</ele>
        <time>2022-06-02T13:54:10Z</time>
      </trkpt>
      <trkpt lat="49.37979" lon="-1.17761">
        <ele>3.7</ele>
        <time>2022-06-02T13:54:11Z</time>
      </trkpt>
      <trkpt lat="49.37979" lon="-1.17761">
        <ele>3.7</ele>
        <time>2022-06-02T13:54:12Z</time>
      </trkpt>
      <trkpt lat="49.37979" lon="-1.17761">
        <ele>3.7</ele>
        <time>2022-06-02T13:54:13Z</time>
      </trkpt>
      <trkpt lat="49.37979" lon="-1.17761">
        <ele>3.7</ele>
        <time>2022-06-02T13:54:14Z</time>
      </trkpt>
      <trkpt lat="49.37979" lon="-1.17761">
        <ele>3.7</ele>
        <time>2022-06-02T13:54:15Z</time>
      </trkpt>
      <trkpt lat="49.37979" lon="-1.17761">
        <ele>3.7</ele>
        <time>2022-06-02T13:54:16Z</time>
      </trkpt>
      <trkpt lat="49.37979" lon="-1.17761">
        <ele>3.7</ele>
        <time>2022-06-02T13:54:17Z</time>
      </trkpt>
      <trkpt lat="49.37979" lon="-1.17761">
        <ele>3.7</ele>
        <time>2022-06-02T13:54:18Z</time>
      </trkpt>
      <trkpt lat="49.37979" lon="-1.17761">
        <ele>3.7</ele>
        <time>2022-06-02T13:54:19Z</time>
      </trkpt>
      <trkpt lat="49.37979" lon="-1.17761">
        <ele>3.7</ele>
        <time>2022-06-02T13:54:20Z</time>
      </trkpt>
      <trkpt lat="49.37979" lon="-1.17761">
        <ele>3.7</ele>
        <time>2022-06-02T13:54:21Z</time>
      </trkpt>
      <trkpt lat="49.37979" lon="-1.17761">
        <ele>3.7</ele>
        <time>2022-06-02T13:54:22Z</time>
      </trkpt>
      <trkpt lat="49.37979" lon="-1.17761">
        <ele>3.7</ele>
        <time>2022-06-02T13:54:23Z</time>
      </trkpt>
      <trkpt lat="49.37979" lon="-1.17761">
        <ele>3.7</ele>
        <time>2022-06-02T13:54:24Z</time>
      </trkpt>
      <trkpt lat="49.37979" lon="-1.17761">
        <ele>3.7</ele>
        <time>2022-06-02T13:54:25Z</time>
      </trkpt>
      <trkpt lat="49.37979" lon="-1.17761">
        <ele>3.7</ele>
        <time>2022-06-02T13:54:26Z</time>
      </trkpt>
      <trkpt lat="49.37979" lon="-1.17761">
        <ele>3.7</ele>
        <time>2022-06-02T13:54:27Z</time>
      </trkpt>
      <trkpt lat="49.37979" lon="-1.17761">
        <ele>3.7</ele>
        <time>2022-06-02T13:54:28Z</time>
      </trkpt>
      <trkpt lat="49.37979" lon="-1.17761">
        <ele>3.7</ele>
        <time>2022-06-02T13:54:29Z</time>
      </trkpt>
      <trkpt lat="49.37979" lon="-1.17761">
        <ele>3.7</ele>
        <time>2022-06-02T13:54:30Z</time>
      </trkpt>
      <trkpt lat="49.37979" lon="-1.17761">
        <ele>3.7</ele>
        <time>2022-06-02T13:54:31Z</time>
      </trkpt>
      <trkpt lat="49.37979" lon="-1.17761">
        <ele>3.7</ele>
        <time>2022-06-02T13:54:32Z</time>
      </trkpt>
      <trkpt lat="49.37979" lon="-1.17761">
        <ele>3.7</ele>
        <time>2022-06-02T13:54:33Z</time>
      </trkpt>
      <trkpt lat="49.37979" lon="-1.17761">
        <ele>3.7</ele>
        <time>2022-06-02T13:54:34Z</time>
      </trkpt>
      <trkpt lat="49.37979" lon="-1.17761">
        <ele>3.7</ele>
        <time>2022-06-02T13:54:35Z</time>
      </trkpt>
      <trkpt lat="49.37979" lon="-1.17761">
        <ele>3.7</ele>
        <time>2022-06-02T13:54:36Z</time>
      </trkpt>
      <trkpt lat="49.37979" lon="-1.17761">
        <ele>3.7</ele>
        <time>2022-06-02T13:54:37Z</time>
      </trkpt>
      <trkpt lat="49.37979" lon="-1.17761">
        <ele>3.7</ele>
        <time>2022-06-02T13:54:38Z</time>
      </trkpt>
      <trkpt lat="49.37979" lon="-1.17761">
        <ele>3.7</ele>
        <time>2022-06-02T13:54:39Z</time>
      </trkpt>
      <trkpt lat="49.37979" lon="-1.17761">
        <ele>3.7</ele>
        <time>2022-06-02T13:54:40Z</time>
      </trkpt>
      <trkpt lat="49.37979" lon="-1.17761">
        <ele>3.7</ele>
        <time>2022-06-02T13:54:41Z</time>
      </trkpt>
      <trkpt lat="49.37979" lon="-1.17761">
        <ele>3.7</ele>
        <time>2022-06-02T13:54:42Z</time>
      </trkpt>
      <trkpt lat="49.3798" lon="-1.17761">
        <ele>3.7</ele>
        <time>2022-06-02T13:54:43Z</time>
      </trkpt>
      <trkpt lat="49.3798" lon="-1.17761">
        <ele>3.7</ele>
        <time>2022-06-02T13:54:44Z</time>
      </trkpt>
      <trkpt lat="49.3798" lon="-1.17761">
        <ele>3.7</ele>
        <time>2022-06-02T13:54:45Z</time>
      </trkpt>
      <trkpt lat="49.3798" lon="-1.17761">
        <ele>3.7</ele>
        <time>2022-06-02T13:54:46Z</time>
      </trkpt>
      <trkpt lat="49.3798" lon="-1.17761">
        <ele>3.7</ele>
        <time>2022-06-02T13:54:47Z</time>
      </trkpt>
      <trkpt lat="49.3798" lon="-1.17761">
        <ele>3.7</ele>
        <time>2022-06-02T13:54:48Z</time>
      </trkpt>
      <trkpt lat="49.3798" lon="-1.17761">
        <ele>3.7</ele>
        <time>2022-06-02T13:54:49Z</time>
      </trkpt>
      <trkpt lat="49.3798" lon="-1.17761">
        <ele>3.7</ele>
        <time>2022-06-02T13:54:50Z</time>
      </trkpt>
      <trkpt lat="49.3798" lon="-1.17761">
        <ele>3.7</ele>
        <time>2022-06-02T13:54:51Z</time>
      </trkpt>
      <trkpt lat="49.3798" lon="-1.17761">
        <ele>3.7</ele>
        <time>2022-06-02T13:54:52Z</time>
      </trkpt>
      <trkpt lat="49.3798" lon="-1.17761">
        <ele>3.7</ele>
        <time>2022-06-02T13:54:53Z</time>
      </trkpt>
      <trkpt lat="49.3798" lon="-1.17761">
        <ele>3.7</ele>
        <time>2022-06-02T13:54:54Z</time>
      </trkpt>
      <trkpt lat="49.3798" lon="-1.17761">
        <ele>3.7</ele>
        <time>2022-06-02T13:54:55Z</time>
      </trkpt>
      <trkpt lat="49.3798" lon="-1.17761">
        <ele>3.7</ele>
        <time>2022-06-02T13:54:56Z</time>
      </trkpt>
      <trkpt lat="49.3798" lon="-1.17761">
        <ele>3.7</ele>
        <time>2022-06-02T13:54:57Z</time>
      </trkpt>
      <trkpt lat="49.3798" lon="-1.17761">
        <ele>3.7</ele>
        <time>2022-06-02T13:54:58Z</time>
      </trkpt>
      <trkpt lat="49.3798" lon="-1.17761">
        <ele>3.7</ele>
        <time>2022-06-02T13:54:59Z</time>
      </trkpt>
      <trkpt lat="49.3798" lon="-1.17761">
        <ele>3.7</ele>
        <time>2022-06-02T13:55:00Z</time>
      </trkpt>
      <trkpt lat="49.3798" lon="-1.17761">
        <ele>3.7</ele>
        <time>2022-06-02T13:55:01Z</time>
      </trkpt>
      <trkpt lat="49.3798" lon="-1.17761">
        <ele>3.7</ele>
        <time>2022-06-02T13:55:02Z</time>
      </trkpt>
      <trkpt lat="49.3798" lon="-1.17761">
        <ele>3.7</ele>
        <time>2022-06-02T13:55:03Z</time>
      </trkpt>
      <trkpt lat="49.3798" lon="-1.17761">
        <ele>3.7</ele>
        <time>2022-06-02T13:55:04Z</time>
      </trkpt>
      <trkpt lat="49.3798" lon="-1.17761">
        <ele>3.7</ele>
        <time>2022-06-02T13:55:05Z</time>
      </trkpt>
      <trkpt lat="49.3798" lon="-1.17761">
        <ele>3.7</ele>
        <time>2022-06-02T13:55:06Z</time>
      </trkpt>
      <trkpt lat="49.3798" lon="-1.17761">
        <ele>3.7</ele>
        <time>2022-06-02T13:55:07Z</time>
      </trkpt>
      <trkpt lat="49.3798" lon="-1.17761">
        <ele>3.7</ele>
        <time>2022-06-02T13:55:08Z</time>
      </trkpt>
      <trkpt lat="49.3798" lon="-1.17761">
        <ele>3.7</ele>
        <time>2022-06-02T13:55:09Z</time>
      </trkpt>
      <trkpt lat="49.3798" lon="-1.17761">
        <ele>3.7</ele>
        <time>2022-06-02T13:55:10Z</time>
      </trkpt>
      <trkpt lat="49.3798" lon="-1.17761">
        <ele>3.7</ele>
        <time>2022-06-02T13:55:11Z</time>
      </trkpt>
      <trkpt lat="49.3798" lon="-1.17761">
        <ele>3.7</ele>
        <time>2022-06-02T13:55:12Z</time>
      </trkpt>
      <trkpt lat="49.3798" lon="-1.17761">
        <ele>3.7</ele>
        <time>2022-06-02T13:55:13Z</time>
      </trkpt>
      <trkpt lat="49.3798" lon="-1.17761">
        <ele>3.7</ele>
        <time>2022-06-02T13:55:14Z</time>
      </trkpt>
      <trkpt lat="49.3798" lon="-1.17761">
        <ele>3.7</ele>
        <time>2022-06-02T13:55:15Z</time>
      </trkpt>
      <trkpt lat="49.3798" lon="-1.17761">
        <ele>3.7</ele>
        <time>2022-06-02T13:55:16Z</time>
      </trkpt>
      <trkpt lat="49.3798" lon="-1.17761">
        <ele>3.7</ele>
        <time>2022-06-02T13:55:17Z</time>
      </trkpt>
      <trkpt lat="49.3798" lon="-1.17761">
        <ele>3.7</ele>
        <time>2022-06-02T13:55:18Z</time>
      </trkpt>
      <trkpt lat="49.3798" lon="-1.17761">
        <ele>3.7</ele>
        <time>2022-06-02T13:55:19Z</time>
      </trkpt>
      <trkpt lat="49.3798" lon="-1.17761">
        <ele>3.7</ele>
        <time>2022-06-02T13:55:20Z</time>
      </trkpt>
      <trkpt lat="49.3798" lon="-1.17761">
        <ele>3.7</ele>
        <time>2022-06-02T13:55:21Z</time>
      </trkpt>
      <trkpt lat="49.3798" lon="-1.17761">
        <ele>3.7</ele>
        <time>2022-06-02T13:55:22Z</time>
      </trkpt>
      <trkpt lat="49.3798" lon="-1.17761">
        <ele>3.7</ele>
        <time>2022-06-02T13:55:23Z</time>
      </trkpt>
      <trkpt lat="49.3798" lon="-1.17761">
        <ele>3.7</ele>
        <time>2022-06-02T13:55:24Z</time>
      </trkpt>
      <trkpt lat="49.3798" lon="-1.17761">
        <ele>3.7</ele>
        <time>2022-06-02T13:55:25Z</time>
      </trkpt>
      <trkpt lat="49.3798" lon="-1.17761">
        <ele>3.7</ele>
        <time>2022-06-02T13:55:26Z</time>
      </trkpt>
      <trkpt lat="49.3798" lon="-1.17761">
        <ele>3.7</ele>
        <time>2022-06-02T13:55:27Z</time>
      </trkpt>
      <trkpt lat="49.3798" lon="-1.17761">
        <ele>3.7</ele>
        <time>2022-06-02T13:55:28Z</time>
      </trkpt>
      <trkpt lat="49.3798" lon="-1.17761">
        <ele>3.7</ele>
        <time>2022-06-02T13:55:29Z</time>
      </trkpt>
      <trkpt lat="49.3798" lon="-1.17761">
        <ele>3.7</ele>
        <time>2022-06-02T13:55:30Z</time>
      </trkpt>
      <trkpt lat="49.3798" lon="-1.17761">
        <ele>3.7</ele>
        <time>2022-06-02T13:55:31Z</time>
      </trkpt>
      <trkpt lat="49.3798" lon="-1.17761">
        <ele>3.7</ele>
        <time>2022-06-02T13:55:32Z</time>
      </trkpt>
      <trkpt lat="49.3798" lon="-1.17761">
        <ele>3.7</ele>
        <time>2022-06-02T13:55:33Z</time>
      </trkpt>
      <trkpt lat="49.3798" lon="-1.17761">
        <ele>3.7</ele>
        <time>2022-06-02T13:55:34Z</time>
      </trkpt>
      <trkpt lat="49.3798" lon="-1.17761">
        <ele>3.7</ele>
        <time>2022-06-02T13:55:35Z</time>
      </trkpt>
      <trkpt lat="49.3798" lon="-1.17761">
        <ele>3.7</ele>
        <time>2022-06-02T13:55:36Z</time>
      </trkpt>
      <trkpt lat="49.3798" lon="-1.17761">
        <ele>3.7</ele>
        <time>2022-06-02T13:55:37Z</time>
      </trkpt>
      <trkpt lat="49.3798" lon="-1.17761">
        <ele>3.7</ele>
        <time>2022-06-02T13:55:38Z</time>
      </trkpt>
      <trkpt lat="49.3798" lon="-1.17761">
        <ele>3.7</ele>
        <time>2022-06-02T13:55:39Z</time>
      </trkpt>
      <trkpt lat="49.3798" lon="-1.17761">
        <ele>3.7</ele>
        <time>2022-06-02T13:55:40Z</time>
      </trkpt>
      <trkpt lat="49.3798" lon="-1.17761">
        <ele>3.7</ele>
        <time>2022-06-02T13:55:41Z</time>
      </trkpt>
      <trkpt lat="49.3798" lon="-1.17761">
        <ele>3.7</ele>
        <time>2022-06-02T13:55:42Z</time>
      </trkpt>
      <trkpt lat="49.3798" lon="-1.17761">
        <ele>3.7</ele>
        <time>2022-06-02T13:55:43Z</time>
      </trkpt>
      <trkpt lat="49.3798" lon="-1.17761">
        <ele>3.7</ele>
        <time>2022-06-02T13:55:44Z</time>
      </trkpt>
      <trkpt lat="49.3798" lon="-1.17761">
        <ele>3.7</ele>
        <time>2022-06-02T13:55:45Z</time>
      </trkpt>
      <trkpt lat="49.3798" lon="-1.17761">
        <ele>3.7</ele>
        <time>2022-06-02T13:55:46Z</time>
      </trkpt>
      <trkpt lat="49.3798" lon="-1.17761">
        <ele>3.7</ele>
        <time>2022-06-02T13:55:47Z</time>
      </trkpt>
      <trkpt lat="49.3798" lon="-1.17761">
        <ele>3.7</ele>
        <time>2022-06-02T13:55:48Z</time>
      </trkpt>
      <trkpt lat="49.3798" lon="-1.17761">
        <ele>3.7</ele>
        <time>2022-06-02T13:55:49Z</time>
      </trkpt>
      <trkpt lat="49.3798" lon="-1.17761">
        <ele>3.7</ele>
        <time>2022-06-02T13:55:50Z</time>
      </trkpt>
      <trkpt lat="49.3798" lon="-1.17761">
        <ele>3.7</ele>
        <time>2022-06-02T13:55:51Z</time>
      </trkpt>
      <trkpt lat="49.3798" lon="-1.17761">
        <ele>3.7</ele>
        <time>2022-06-02T13:55:52Z</time>
      </trkpt>
      <trkpt lat="49.3798" lon="-1.17761">
        <ele>3.7</ele>
        <time>2022-06-02T13:55:53Z</time>
      </trkpt>
      <trkpt lat="49.3798" lon="-1.17761">
        <ele>3.7</ele>
        <time>2022-06-02T13:55:54Z</time>
      </trkpt>
      <trkpt lat="49.3798" lon="-1.17761">
        <ele>3.7</ele>
        <time>2022-06-02T13:55:55Z</time>
      </trkpt>
      <trkpt lat="49.3798" lon="-1.17761">
        <ele>3.7</ele>
        <time>2022-06-02T13:55:56Z</time>
      </trkpt>
      <trkpt lat="49.3798" lon="-1.17761">
        <ele>3.7</ele>
        <time>2022-06-02T13:55:57Z</time>
      </trkpt>
      <trkpt lat="49.3798" lon="-1.17761">
        <ele>3.7</ele>
        <time>2022-06-02T13:55:58Z</time>
      </trkpt>
      <trkpt lat="49.3798" lon="-1.17761">
        <ele>3.7</ele>
        <time>2022-06-02T13:55:59Z</time>
      </trkpt>
      <trkpt lat="49.3798" lon="-1.17761">
        <ele>3.7</ele>
        <time>2022-06-02T13:56:00Z</time>
      </trkpt>
      <trkpt lat="49.3798" lon="-1.17761">
        <ele>3.7</ele>
        <time>2022-06-02T13:56:01Z</time>
      </trkpt>
      <trkpt lat="49.3798" lon="-1.17761">
        <ele>3.7</ele>
        <time>2022-06-02T13:56:02Z</time>
      </trkpt>
      <trkpt lat="49.3798" lon="-1.17761">
        <ele>3.7</ele>
        <time>2022-06-02T13:56:03Z</time>
      </trkpt>
      <trkpt lat="49.3798" lon="-1.17761">
        <ele>3.7</ele>
        <time>2022-06-02T13:56:04Z</time>
      </trkpt>
      <trkpt lat="49.3798" lon="-1.17761">
        <ele>3.7</ele>
        <time>2022-06-02T13:56:05Z</time>
      </trkpt>
      <trkpt lat="49.3798" lon="-1.17761">
        <ele>3.7</ele>
        <time>2022-06-02T13:56:06Z</time>
      </trkpt>
      <trkpt lat="49.3798" lon="-1.17761">
        <ele>3.7</ele>
        <time>2022-06-02T13:56:07Z</time>
      </trkpt>
      <trkpt lat="49.3798" lon="-1.17761">
        <ele>3.7</ele>
        <time>2022-06-02T13:56:08Z</time>
      </trkpt>
      <trkpt lat="49.3798" lon="-1.17761">
        <ele>3.7</ele>
        <time>2022-06-02T13:56:09Z</time>
      </trkpt>
      <trkpt lat="49.3798" lon="-1.17761">
        <ele>3.7</ele>
        <time>2022-06-02T13:56:10Z</time>
      </trkpt>
      <trkpt lat="49.3798" lon="-1.17761">
        <ele>3.7</ele>
        <time>2022-06-02T13:56:11Z</time>
      </trkpt>
      <trkpt lat="49.3798" lon="-1.17761">
        <ele>3.7</ele>
        <time>2022-06-02T13:56:12Z</time>
      </trkpt>
      <trkpt lat="49.3798" lon="-1.17761">
        <ele>3.7</ele>
        <time>2022-06-02T13:56:13Z</time>
      </trkpt>
      <trkpt lat="49.3798" lon="-1.17761">
        <ele>3.7</ele>
        <time>2022-06-02T13:56:14Z</time>
      </trkpt>
      <trkpt lat="49.3798" lon="-1.17761">
        <ele>3.7</ele>
        <time>2022-06-02T13:56:15Z</time>
      </trkpt>
      <trkpt lat="49.3798" lon="-1.17761">
        <ele>3.7</ele>
        <time>2022-06-02T13:56:16Z</time>
      </trkpt>
      <trkpt lat="49.3798" lon="-1.17761">
        <ele>3.7</ele>
        <time>2022-06-02T13:56:17Z</time>
      </trkpt>
      <trkpt lat="49.3798" lon="-1.17761">
        <ele>3.7</ele>
        <time>2022-06-02T13:56:18Z</time>
      </trkpt>
      <trkpt lat="49.3798" lon="-1.17761">
        <ele>3.7</ele>
        <time>2022-06-02T13:56:19Z</time>
      </trkpt>
      <trkpt lat="49.3798" lon="-1.17761">
        <ele>3.7</ele>
        <time>2022-06-02T13:56:20Z</time>
      </trkpt>
      <trkpt lat="49.3798" lon="-1.17761">
        <ele>3.7</ele>
        <time>2022-06-02T13:56:21Z</time>
      </trkpt>
      <trkpt lat="49.3798" lon="-1.17761">
        <ele>3.7</ele>
        <time>2022-06-02T13:56:22Z</time>
      </trkpt>
      <trkpt lat="49.3798" lon="-1.17761">
        <ele>3.7</ele>
        <time>2022-06-02T13:56:23Z</time>
      </trkpt>
      <trkpt lat="49.3798" lon="-1.17761">
        <ele>3.7</ele>
        <time>2022-06-02T13:56:24Z</time>
      </trkpt>
      <trkpt lat="49.3798" lon="-1.17761">
        <ele>3.7</ele>
        <time>2022-06-02T13:56:25Z</time>
      </trkpt>
      <trkpt lat="49.3798" lon="-1.17761">
        <ele>3.7</ele>
        <time>2022-06-02T13:56:26Z</time>
      </trkpt>
      <trkpt lat="49.3798" lon="-1.17761">
        <ele>3.7</ele>
        <time>2022-06-02T13:56:27Z</time>
      </trkpt>
      <trkpt lat="49.3798" lon="-1.17761">
        <ele>3.7</ele>
        <time>2022-06-02T13:56:28Z</time>
      </trkpt>
      <trkpt lat="49.3798" lon="-1.17761">
        <ele>3.7</ele>
        <time>2022-06-02T13:56:29Z</time>
      </trkpt>
      <trkpt lat="49.3798" lon="-1.17761">
        <ele>3.7</ele>
        <time>2022-06-02T13:56:30Z</time>
      </trkpt>
      <trkpt lat="49.3798" lon="-1.17761">
        <ele>3.7</ele>
        <time>2022-06-02T13:56:31Z</time>
      </trkpt>
      <trkpt lat="49.3798" lon="-1.17761">
        <ele>3.7</ele>
        <time>2022-06-02T13:56:32Z</time>
      </trkpt>
      <trkpt lat="49.3798" lon="-1.17761">
        <ele>3.7</ele>
        <time>2022-06-02T13:56:33Z</time>
      </trkpt>
      <trkpt lat="49.3798" lon="-1.17761">
        <ele>3.7</ele>
        <time>2022-06-02T13:56:34Z</time>
      </trkpt>
      <trkpt lat="49.3798" lon="-1.17761">
        <ele>3.7</ele>
        <time>2022-06-02T13:56:35Z</time>
      </trkpt>
      <trkpt lat="49.3798" lon="-1.17761">
        <ele>3.7</ele>
        <time>2022-06-02T13:56:36Z</time>
      </trkpt>
      <trkpt lat="49.3798" lon="-1.17761">
        <ele>3.7</ele>
        <time>2022-06-02T13:56:37Z</time>
      </trkpt>
      <trkpt lat="49.3798" lon="-1.17761">
        <ele>3.7</ele>
        <time>2022-06-02T13:56:38Z</time>
      </trkpt>
      <trkpt lat="49.3798" lon="-1.17761">
        <ele>3.7</ele>
        <time>2022-06-02T13:56:39Z</time>
      </trkpt>
      <trkpt lat="49.3798" lon="-1.17761">
        <ele>3.7</ele>
        <time>2022-06-02T13:56:40Z</time>
      </trkpt>
      <trkpt lat="49.3798" lon="-1.17761">
        <ele>3.7</ele>
        <time>2022-06-02T13:56:41Z</time>
      </trkpt>
      <trkpt lat="49.3798" lon="-1.17761">
        <ele>3.7</ele>
        <time>2022-06-02T13:56:42Z</time>
      </trkpt>
      <trkpt lat="49.3798" lon="-1.17761">
        <ele>3.7</ele>
        <time>2022-06-02T13:56:43Z</time>
      </trkpt>
      <trkpt lat="49.3798" lon="-1.17761">
        <ele>3.7</ele>
        <time>2022-06-02T13:56:44Z</time>
      </trkpt>
      <trkpt lat="49.3798" lon="-1.17761">
        <ele>3.7</ele>
        <time>2022-06-02T13:56:45Z</time>
      </trkpt>
      <trkpt lat="49.3798" lon="-1.17761">
        <ele>3.7</ele>
        <time>2022-06-02T13:56:46Z</time>
      </trkpt>
      <trkpt lat="49.3798" lon="-1.17761">
        <ele>3.7</ele>
        <time>2022-06-02T13:56:47Z</time>
      </trkpt>
      <trkpt lat="49.3798" lon="-1.17761">
        <ele>3.7</ele>
        <time>2022-06-02T13:56:48Z</time>
      </trkpt>
      <trkpt lat="49.3798" lon="-1.17761">
        <ele>3.7</ele>
        <time>2022-06-02T13:56:49Z</time>
      </trkpt>
      <trkpt lat="49.3798" lon="-1.17761">
        <ele>3.7</ele>
        <time>2022-06-02T13:56:50Z</time>
      </trkpt>
      <trkpt lat="49.3798" lon="-1.17761">
        <ele>3.7</ele>
        <time>2022-06-02T13:56:51Z</time>
      </trkpt>
      <trkpt lat="49.3798" lon="-1.17761">
        <ele>3.7</ele>
        <time>2022-06-02T13:56:52Z</time>
      </trkpt>
      <trkpt lat="49.3798" lon="-1.17761">
        <ele>3.7</ele>
        <time>2022-06-02T13:56:53Z</time>
      </trkpt>
      <trkpt lat="49.3798" lon="-1.17761">
        <ele>3.7</ele>
        <time>2022-06-02T13:56:54Z</time>
      </trkpt>
      <trkpt lat="49.3798" lon="-1.17761">
        <ele>3.7</ele>
        <time>2022-06-02T13:56:55Z</time>
      </trkpt>
      <trkpt lat="49.3798" lon="-1.17761">
        <ele>3.7</ele>
        <time>2022-06-02T13:56:56Z</time>
      </trkpt>
      <trkpt lat="49.3798" lon="-1.17761">
        <ele>3.7</ele>
        <time>2022-06-02T13:56:57Z</time>
      </trkpt>
      <trkpt lat="49.3798" lon="-1.17761">
        <ele>3.7</ele>
        <time>2022-06-02T13:56:58Z</time>
      </trkpt>
      <trkpt lat="49.3798" lon="-1.17761">
        <ele>3.7</ele>
        <time>2022-06-02T13:56:59Z</time>
      </trkpt>
      <trkpt lat="49.3798" lon="-1.17761">
        <ele>3.7</ele>
        <time>2022-06-02T13:57:00Z</time>
      </trkpt>
      <trkpt lat="49.3798" lon="-1.17761">
        <ele>3.7</ele>
        <time>2022-06-02T13:57:01Z</time>
      </trkpt>
      <trkpt lat="49.3798" lon="-1.17761">
        <ele>3.7</ele>
        <time>2022-06-02T13:57:02Z</time>
      </trkpt>
      <trkpt lat="49.3798" lon="-1.17761">
        <ele>3.7</ele>
        <time>2022-06-02T13:57:03Z</time>
      </trkpt>
      <trkpt lat="49.3798" lon="-1.17761">
        <ele>3.7</ele>
        <time>2022-06-02T13:57:04Z</time>
      </trkpt>
      <trkpt lat="49.3798" lon="-1.17761">
        <ele>3.7</ele>
        <time>2022-06-02T13:57:05Z</time>
      </trkpt>
      <trkpt lat="49.3798" lon="-1.17761">
        <ele>3.7</ele>
        <time>2022-06-02T13:57:06Z</time>
      </trkpt>
      <trkpt lat="49.3798" lon="-1.17761">
        <ele>3.7</ele>
        <time>2022-06-02T13:57:07Z</time>
      </trkpt>
      <trkpt lat="49.3798" lon="-1.17761">
        <ele>3.7</ele>
        <time>2022-06-02T13:57:08Z</time>
      </trkpt>
      <trkpt lat="49.3798" lon="-1.17761">
        <ele>3.7</ele>
        <time>2022-06-02T13:57:09Z</time>
      </trkpt>
      <trkpt lat="49.3798" lon="-1.17761">
        <ele>3.7</ele>
        <time>2022-06-02T13:57:10Z</time>
      </trkpt>
      <trkpt lat="49.3798" lon="-1.17761">
        <ele>3.7</ele>
        <time>2022-06-02T13:57:11Z</time>
      </trkpt>
      <trkpt lat="49.3798" lon="-1.17761">
        <ele>3.7</ele>
        <time>2022-06-02T13:57:12Z</time>
      </trkpt>
      <trkpt lat="49.3798" lon="-1.17761">
        <ele>3.7</ele>
        <time>2022-06-02T13:57:13Z</time>
      </trkpt>
      <trkpt lat="49.3798" lon="-1.17761">
        <ele>3.7</ele>
        <time>2022-06-02T13:57:14Z</time>
      </trkpt>
      <trkpt lat="49.3798" lon="-1.17761">
        <ele>3.7</ele>
        <time>2022-06-02T13:57:15Z</time>
      </trkpt>
      <trkpt lat="49.3798" lon="-1.17761">
        <ele>3.7</ele>
        <time>2022-06-02T13:57:16Z</time>
      </trkpt>
      <trkpt lat="49.3798" lon="-1.17761">
        <ele>3.7</ele>
        <time>2022-06-02T13:57:17Z</time>
      </trkpt>
      <trkpt lat="49.3798" lon="-1.17761">
        <ele>3.7</ele>
        <time>2022-06-02T13:57:18Z</time>
      </trkpt>
      <trkpt lat="49.3798" lon="-1.17761">
        <ele>3.7</ele>
        <time>2022-06-02T13:57:19Z</time>
      </trkpt>
      <trkpt lat="49.3798" lon="-1.17761">
        <ele>3.7</ele>
        <time>2022-06-02T13:57:20Z</time>
      </trkpt>
      <trkpt lat="49.3798" lon="-1.17761">
        <ele>3.7</ele>
        <time>2022-06-02T13:57:21Z</time>
      </trkpt>
      <trkpt lat="49.3798" lon="-1.17761">
        <ele>3.7</ele>
        <time>2022-06-02T13:57:22Z</time>
      </trkpt>
      <trkpt lat="49.3798" lon="-1.17761">
        <ele>3.7</ele>
        <time>2022-06-02T13:57:23Z</time>
      </trkpt>
      <trkpt lat="49.3798" lon="-1.17761">
        <ele>3.7</ele>
        <time>2022-06-02T13:57:24Z</time>
      </trkpt>
      <trkpt lat="49.3798" lon="-1.17761">
        <ele>3.7</ele>
        <time>2022-06-02T13:57:25Z</time>
      </trkpt>
      <trkpt lat="49.3798" lon="-1.17761">
        <ele>3.7</ele>
        <time>2022-06-02T13:57:26Z</time>
      </trkpt>
      <trkpt lat="49.3798" lon="-1.17761">
        <ele>3.7</ele>
        <time>2022-06-02T13:57:27Z</time>
      </trkpt>
      <trkpt lat="49.3798" lon="-1.17761">
        <ele>3.7</ele>
        <time>2022-06-02T13:57:28Z</time>
      </trkpt>
      <trkpt lat="49.3798" lon="-1.17761">
        <ele>3.7</ele>
        <time>2022-06-02T13:57:29Z</time>
      </trkpt>
      <trkpt lat="49.3798" lon="-1.17761">
        <ele>3.7</ele>
        <time>2022-06-02T13:57:30Z</time>
      </trkpt>
      <trkpt lat="49.3798" lon="-1.17761">
        <ele>3.7</ele>
        <time>2022-06-02T13:57:31Z</time>
      </trkpt>
      <trkpt lat="49.3798" lon="-1.17761">
        <ele>3.7</ele>
        <time>2022-06-02T13:57:32Z</time>
      </trkpt>
      <trkpt lat="49.3798" lon="-1.17761">
        <ele>3.7</ele>
        <time>2022-06-02T13:57:33Z</time>
      </trkpt>
      <trkpt lat="49.3798" lon="-1.17761">
        <ele>3.7</ele>
        <time>2022-06-02T13:57:34Z</time>
      </trkpt>
      <trkpt lat="49.3798" lon="-1.17761">
        <ele>3.7</ele>
        <time>2022-06-02T13:57:35Z</time>
      </trkpt>
      <trkpt lat="49.3798" lon="-1.17761">
        <ele>3.7</ele>
        <time>2022-06-02T13:57:36Z</time>
      </trkpt>
      <trkpt lat="49.37981" lon="-1.17761">
        <ele>3.7</ele>
        <time>2022-06-02T13:57:37Z</time>
      </trkpt>
      <trkpt lat="49.37981" lon="-1.17761">
        <ele>3.7</ele>
        <time>2022-06-02T13:57:38Z</time>
      </trkpt>
      <trkpt lat="49.37981" lon="-1.17761">
        <ele>3.7</ele>
        <time>2022-06-02T13:57:39Z</time>
      </trkpt>
      <trkpt lat="49.37981" lon="-1.17761">
        <ele>3.7</ele>
        <time>2022-06-02T13:57:40Z</time>
      </trkpt>
      <trkpt lat="49.37981" lon="-1.17761">
        <ele>3.7</ele>
        <time>2022-06-02T13:57:41Z</time>
      </trkpt>
      <trkpt lat="49.37981" lon="-1.17761">
        <ele>3.7</ele>
        <time>2022-06-02T13:57:42Z</time>
      </trkpt>
      <trkpt lat="49.37981" lon="-1.17761">
        <ele>3.7</ele>
        <time>2022-06-02T13:57:43Z</time>
      </trkpt>
      <trkpt lat="49.37981" lon="-1.17761">
        <ele>3.7</ele>
        <time>2022-06-02T13:57:44Z</time>
      </trkpt>
      <trkpt lat="49.37981" lon="-1.17761">
        <ele>3.7</ele>
        <time>2022-06-02T13:57:45Z</time>
      </trkpt>
      <trkpt lat="49.37981" lon="-1.17761">
        <ele>3.7</ele>
        <time>2022-06-02T13:57:46Z</time>
      </trkpt>
      <trkpt lat="49.37981" lon="-1.17761">
        <ele>3.7</ele>
        <time>2022-06-02T13:57:47Z</time>
      </trkpt>
      <trkpt lat="49.37981" lon="-1.17761">
        <ele>3.7</ele>
        <time>2022-06-02T13:57:48Z</time>
      </trkpt>
      <trkpt lat="49.37981" lon="-1.17761">
        <ele>3.7</ele>
        <time>2022-06-02T13:57:49Z</time>
      </trkpt>
      <trkpt lat="49.37981" lon="-1.17761">
        <ele>3.7</ele>
        <time>2022-06-02T13:57:50Z</time>
      </trkpt>
      <trkpt lat="49.37981" lon="-1.17761">
        <ele>3.7</ele>
        <time>2022-06-02T13:57:51Z</time>
      </trkpt>
      <trkpt lat="49.37981" lon="-1.17761">
        <ele>3.7</ele>
        <time>2022-06-02T13:57:52Z</time>
      </trkpt>
      <trkpt lat="49.37981" lon="-1.17761">
        <ele>3.7</ele>
        <time>2022-06-02T13:57:53Z</time>
      </trkpt>
      <trkpt lat="49.37981" lon="-1.17761">
        <ele>3.7</ele>
        <time>2022-06-02T13:57:54Z</time>
      </trkpt>
      <trkpt lat="49.37981" lon="-1.17761">
        <ele>3.7</ele>
        <time>2022-06-02T13:57:55Z</time>
      </trkpt>
      <trkpt lat="49.37981" lon="-1.17761">
        <ele>3.7</ele>
        <time>2022-06-02T13:57:56Z</time>
      </trkpt>
      <trkpt lat="49.37981" lon="-1.17761">
        <ele>3.7</ele>
        <time>2022-06-02T13:57:57Z</time>
      </trkpt>
      <trkpt lat="49.37981" lon="-1.17761">
        <ele>3.7</ele>
        <time>2022-06-02T13:57:58Z</time>
      </trkpt>
      <trkpt lat="49.37981" lon="-1.17761">
        <ele>3.7</ele>
        <time>2022-06-02T13:57:59Z</time>
      </trkpt>
      <trkpt lat="49.37981" lon="-1.17761">
        <ele>3.7</ele>
        <time>2022-06-02T13:58:00Z</time>
      </trkpt>
      <trkpt lat="49.37981" lon="-1.17761">
        <ele>3.7</ele>
        <time>2022-06-02T13:58:01Z</time>
      </trkpt>
      <trkpt lat="49.37981" lon="-1.17761">
        <ele>3.7</ele>
        <time>2022-06-02T13:58:02Z</time>
      </trkpt>
      <trkpt lat="49.37981" lon="-1.17761">
        <ele>3.7</ele>
        <time>2022-06-02T13:58:03Z</time>
      </trkpt>
      <trkpt lat="49.37981" lon="-1.17761">
        <ele>3.7</ele>
        <time>2022-06-02T13:58:04Z</time>
      </trkpt>
      <trkpt lat="49.37981" lon="-1.17761">
        <ele>3.7</ele>
        <time>2022-06-02T13:58:05Z</time>
      </trkpt>
      <trkpt lat="49.37981" lon="-1.17761">
        <ele>3.7</ele>
        <time>2022-06-02T13:58:06Z</time>
      </trkpt>
      <trkpt lat="49.37981" lon="-1.17761">
        <ele>3.7</ele>
        <time>2022-06-02T13:58:07Z</time>
      </trkpt>
      <trkpt lat="49.37981" lon="-1.17761">
        <ele>3.7</ele>
        <time>2022-06-02T13:58:08Z</time>
      </trkpt>
      <trkpt lat="49.37981" lon="-1.17761">
        <ele>3.7</ele>
        <time>2022-06-02T13:58:09Z</time>
      </trkpt>
      <trkpt lat="49.37981" lon="-1.17761">
        <ele>3.7</ele>
        <time>2022-06-02T13:58:10Z</time>
      </trkpt>
      <trkpt lat="49.37981" lon="-1.17761">
        <ele>3.7</ele>
        <time>2022-06-02T13:58:11Z</time>
      </trkpt>
      <trkpt lat="49.37981" lon="-1.17761">
        <ele>3.7</ele>
        <time>2022-06-02T13:58:12Z</time>
      </trkpt>
      <trkpt lat="49.37981" lon="-1.17761">
        <ele>3.7</ele>
        <time>2022-06-02T13:58:13Z</time>
      </trkpt>
      <trkpt lat="49.37981" lon="-1.17761">
        <ele>3.7</ele>
        <time>2022-06-02T13:58:14Z</time>
      </trkpt>
      <trkpt lat="49.37981" lon="-1.17761">
        <ele>3.7</ele>
        <time>2022-06-02T13:58:15Z</time>
      </trkpt>
      <trkpt lat="49.37981" lon="-1.17761">
        <ele>3.7</ele>
        <time>2022-06-02T13:58:16Z</time>
      </trkpt>
      <trkpt lat="49.37981" lon="-1.17761">
        <ele>3.7</ele>
        <time>2022-06-02T13:58:17Z</time>
      </trkpt>
      <trkpt lat="49.37981" lon="-1.17761">
        <ele>3.7</ele>
        <time>2022-06-02T13:58:18Z</time>
      </trkpt>
      <trkpt lat="49.37981" lon="-1.17761">
        <ele>3.7</ele>
        <time>2022-06-02T13:58:19Z</time>
      </trkpt>
      <trkpt lat="49.37981" lon="-1.17761">
        <ele>3.7</ele>
        <time>2022-06-02T13:58:20Z</time>
      </trkpt>
      <trkpt lat="49.37981" lon="-1.17761">
        <ele>3.7</ele>
        <time>2022-06-02T13:58:21Z</time>
      </trkpt>
      <trkpt lat="49.37981" lon="-1.17761">
        <ele>3.7</ele>
        <time>2022-06-02T13:58:22Z</time>
      </trkpt>
      <trkpt lat="49.37981" lon="-1.17761">
        <ele>3.7</ele>
        <time>2022-06-02T13:58:23Z</time>
      </trkpt>
      <trkpt lat="49.37981" lon="-1.17761">
        <ele>3.7</ele>
        <time>2022-06-02T13:58:24Z</time>
      </trkpt>
      <trkpt lat="49.37981" lon="-1.17761">
        <ele>3.7</ele>
        <time>2022-06-02T13:58:25Z</time>
      </trkpt>
      <trkpt lat="49.37981" lon="-1.17761">
        <ele>3.7</ele>
        <time>2022-06-02T13:58:26Z</time>
      </trkpt>
      <trkpt lat="49.37981" lon="-1.17761">
        <ele>3.7</ele>
        <time>2022-06-02T13:58:27Z</time>
      </trkpt>
      <trkpt lat="49.37981" lon="-1.17761">
        <ele>3.7</ele>
        <time>2022-06-02T13:58:28Z</time>
      </trkpt>
      <trkpt lat="49.37981" lon="-1.17761">
        <ele>3.7</ele>
        <time>2022-06-02T13:58:29Z</time>
      </trkpt>
      <trkpt lat="49.37981" lon="-1.17761">
        <ele>3.7</ele>
        <time>2022-06-02T13:58:30Z</time>
      </trkpt>
      <trkpt lat="49.37981" lon="-1.17761">
        <ele>3.7</ele>
        <time>2022-06-02T13:58:31Z</time>
      </trkpt>
      <trkpt lat="49.37981" lon="-1.17761">
        <ele>3.7</ele>
        <time>2022-06-02T13:58:32Z</time>
      </trkpt>
      <trkpt lat="49.37981" lon="-1.17761">
        <ele>3.7</ele>
        <time>2022-06-02T13:58:33Z</time>
      </trkpt>
      <trkpt lat="49.37981" lon="-1.17761">
        <ele>3.7</ele>
        <time>2022-06-02T13:58:34Z</time>
      </trkpt>
      <trkpt lat="49.37981" lon="-1.17761">
        <ele>3.7</ele>
        <time>2022-06-02T13:58:35Z</time>
      </trkpt>
      <trkpt lat="49.37981" lon="-1.17761">
        <ele>3.7</ele>
        <time>2022-06-02T13:58:36Z</time>
      </trkpt>
      <trkpt lat="49.37981" lon="-1.17761">
        <ele>3.7</ele>
        <time>2022-06-02T13:58:37Z</time>
      </trkpt>
      <trkpt lat="49.37981" lon="-1.17761">
        <ele>3.7</ele>
        <time>2022-06-02T13:58:38Z</time>
      </trkpt>
      <trkpt lat="49.37981" lon="-1.17761">
        <ele>3.7</ele>
        <time>2022-06-02T13:58:39Z</time>
      </trkpt>
      <trkpt lat="49.37981" lon="-1.17761">
        <ele>3.7</ele>
        <time>2022-06-02T13:58:40Z</time>
      </trkpt>
      <trkpt lat="49.37981" lon="-1.17761">
        <ele>3.7</ele>
        <time>2022-06-02T13:58:41Z</time>
      </trkpt>
      <trkpt lat="49.37981" lon="-1.17761">
        <ele>3.7</ele>
        <time>2022-06-02T13:58:42Z</time>
      </trkpt>
      <trkpt lat="49.37981" lon="-1.17761">
        <ele>3.7</ele>
        <time>2022-06-02T13:58:43Z</time>
      </trkpt>
      <trkpt lat="49.37981" lon="-1.17761">
        <ele>3.7</ele>
        <time>2022-06-02T13:58:44Z</time>
      </trkpt>
      <trkpt lat="49.37981" lon="-1.17761">
        <ele>3.7</ele>
        <time>2022-06-02T13:58:45Z</time>
      </trkpt>
      <trkpt lat="49.37981" lon="-1.17761">
        <ele>3.7</ele>
        <time>2022-06-02T13:58:46Z</time>
      </trkpt>
      <trkpt lat="49.37981" lon="-1.17761">
        <ele>3.7</ele>
        <time>2022-06-02T13:58:47Z</time>
      </trkpt>
      <trkpt lat="49.37981" lon="-1.17761">
        <ele>3.7</ele>
        <time>2022-06-02T13:58:48Z</time>
      </trkpt>
      <trkpt lat="49.37981" lon="-1.17761">
        <ele>3.7</ele>
        <time>2022-06-02T13:58:49Z</time>
      </trkpt>
      <trkpt lat="49.37981" lon="-1.17761">
        <ele>3.7</ele>
        <time>2022-06-02T13:58:50Z</time>
      </trkpt>
      <trkpt lat="49.37981" lon="-1.17761">
        <ele>3.7</ele>
        <time>2022-06-02T13:58:51Z</time>
      </trkpt>
      <trkpt lat="49.37981" lon="-1.17761">
        <ele>3.7</ele>
        <time>2022-06-02T13:58:52Z</time>
      </trkpt>
      <trkpt lat="49.37981" lon="-1.17761">
        <ele>3.7</ele>
        <time>2022-06-02T13:58:53Z</time>
      </trkpt>
      <trkpt lat="49.37981" lon="-1.17761">
        <ele>3.7</ele>
        <time>2022-06-02T13:58:54Z</time>
      </trkpt>
      <trkpt lat="49.37981" lon="-1.17761">
        <ele>3.7</ele>
        <time>2022-06-02T13:58:55Z</time>
      </trkpt>
      <trkpt lat="49.37981" lon="-1.17761">
        <ele>3.7</ele>
        <time>2022-06-02T13:58:56Z</time>
      </trkpt>
      <trkpt lat="49.37981" lon="-1.17761">
        <ele>3.7</ele>
        <time>2022-06-02T13:58:57Z</time>
      </trkpt>
      <trkpt lat="49.37981" lon="-1.17761">
        <ele>3.7</ele>
        <time>2022-06-02T13:58:58Z</time>
      </trkpt>
      <trkpt lat="49.37981" lon="-1.17761">
        <ele>3.7</ele>
        <time>2022-06-02T13:58:59Z</time>
      </trkpt>
      <trkpt lat="49.37981" lon="-1.17761">
        <ele>3.7</ele>
        <time>2022-06-02T13:59:00Z</time>
      </trkpt>
      <trkpt lat="49.37981" lon="-1.17761">
        <ele>3.7</ele>
        <time>2022-06-02T13:59:01Z</time>
      </trkpt>
      <trkpt lat="49.37981" lon="-1.17761">
        <ele>3.7</ele>
        <time>2022-06-02T13:59:02Z</time>
      </trkpt>
      <trkpt lat="49.37981" lon="-1.17761">
        <ele>3.7</ele>
        <time>2022-06-02T13:59:03Z</time>
      </trkpt>
      <trkpt lat="49.37981" lon="-1.17761">
        <ele>3.7</ele>
        <time>2022-06-02T13:59:04Z</time>
      </trkpt>
      <trkpt lat="49.37981" lon="-1.17761">
        <ele>3.7</ele>
        <time>2022-06-02T13:59:05Z</time>
      </trkpt>
      <trkpt lat="49.37981" lon="-1.17761">
        <ele>3.7</ele>
        <time>2022-06-02T13:59:06Z</time>
      </trkpt>
      <trkpt lat="49.37981" lon="-1.17761">
        <ele>3.7</ele>
        <time>2022-06-02T13:59:07Z</time>
      </trkpt>
      <trkpt lat="49.37981" lon="-1.17761">
        <ele>3.7</ele>
        <time>2022-06-02T13:59:08Z</time>
      </trkpt>
      <trkpt lat="49.37981" lon="-1.17761">
        <ele>3.7</ele>
        <time>2022-06-02T13:59:09Z</time>
      </trkpt>
      <trkpt lat="49.37981" lon="-1.17761">
        <ele>3.7</ele>
        <time>2022-06-02T13:59:10Z</time>
      </trkpt>
      <trkpt lat="49.37981" lon="-1.17761">
        <ele>3.7</ele>
        <time>2022-06-02T13:59:11Z</time>
      </trkpt>
      <trkpt lat="49.37981" lon="-1.17761">
        <ele>3.7</ele>
        <time>2022-06-02T13:59:12Z</time>
      </trkpt>
      <trkpt lat="49.37981" lon="-1.17761">
        <ele>3.7</ele>
        <time>2022-06-02T13:59:13Z</time>
      </trkpt>
      <trkpt lat="49.37981" lon="-1.17761">
        <ele>3.7</ele>
        <time>2022-06-02T13:59:14Z</time>
      </trkpt>
      <trkpt lat="49.37981" lon="-1.17761">
        <ele>3.7</ele>
        <time>2022-06-02T13:59:15Z</time>
      </trkpt>
      <trkpt lat="49.37981" lon="-1.17761">
        <ele>3.7</ele>
        <time>2022-06-02T13:59:16Z</time>
      </trkpt>
      <trkpt lat="49.37981" lon="-1.17761">
        <ele>3.7</ele>
        <time>2022-06-02T13:59:17Z</time>
      </trkpt>
      <trkpt lat="49.37981" lon="-1.17761">
        <ele>3.7</ele>
        <time>2022-06-02T13:59:18Z</time>
      </trkpt>
      <trkpt lat="49.37981" lon="-1.17761">
        <ele>3.7</ele>
        <time>2022-06-02T13:59:19Z</time>
      </trkpt>
      <trkpt lat="49.37981" lon="-1.17761">
        <ele>3.7</ele>
        <time>2022-06-02T13:59:20Z</time>
      </trkpt>
      <trkpt lat="49.37981" lon="-1.17761">
        <ele>3.7</ele>
        <time>2022-06-02T13:59:21Z</time>
      </trkpt>
      <trkpt lat="49.37981" lon="-1.17761">
        <ele>3.7</ele>
        <time>2022-06-02T13:59:22Z</time>
      </trkpt>
      <trkpt lat="49.37981" lon="-1.17761">
        <ele>3.7</ele>
        <time>2022-06-02T13:59:23Z</time>
      </trkpt>
      <trkpt lat="49.37981" lon="-1.17761">
        <ele>3.7</ele>
        <time>2022-06-02T13:59:24Z</time>
      </trkpt>
      <trkpt lat="49.37981" lon="-1.17761">
        <ele>3.7</ele>
        <time>2022-06-02T13:59:25Z</time>
      </trkpt>
      <trkpt lat="49.37981" lon="-1.17761">
        <ele>3.7</ele>
        <time>2022-06-02T13:59:26Z</time>
      </trkpt>
      <trkpt lat="49.37981" lon="-1.17761">
        <ele>3.7</ele>
        <time>2022-06-02T13:59:27Z</time>
      </trkpt>
      <trkpt lat="49.37981" lon="-1.17761">
        <ele>3.7</ele>
        <time>2022-06-02T13:59:28Z</time>
      </trkpt>
      <trkpt lat="49.37981" lon="-1.17761">
        <ele>3.7</ele>
        <time>2022-06-02T13:59:29Z</time>
      </trkpt>
      <trkpt lat="49.37981" lon="-1.17761">
        <ele>3.7</ele>
        <time>2022-06-02T13:59:30Z</time>
      </trkpt>
      <trkpt lat="49.37981" lon="-1.17761">
        <ele>3.7</ele>
        <time>2022-06-02T13:59:31Z</time>
      </trkpt>
      <trkpt lat="49.37981" lon="-1.17761">
        <ele>3.7</ele>
        <time>2022-06-02T13:59:32Z</time>
      </trkpt>
      <trkpt lat="49.37981" lon="-1.17761">
        <ele>3.7</ele>
        <time>2022-06-02T13:59:33Z</time>
      </trkpt>
      <trkpt lat="49.37981" lon="-1.17761">
        <ele>3.7</ele>
        <time>2022-06-02T13:59:34Z</time>
      </trkpt>
      <trkpt lat="49.37981" lon="-1.17761">
        <ele>3.7</ele>
        <time>2022-06-02T13:59:35Z</time>
      </trkpt>
      <trkpt lat="49.37981" lon="-1.17761">
        <ele>3.7</ele>
        <time>2022-06-02T13:59:36Z</time>
      </trkpt>
      <trkpt lat="49.37981" lon="-1.17761">
        <ele>3.7</ele>
        <time>2022-06-02T13:59:37Z</time>
      </trkpt>
      <trkpt lat="49.37981" lon="-1.17761">
        <ele>3.7</ele>
        <time>2022-06-02T13:59:38Z</time>
      </trkpt>
      <trkpt lat="49.37981" lon="-1.17761">
        <ele>3.7</ele>
        <time>2022-06-02T13:59:39Z</time>
      </trkpt>
      <trkpt lat="49.37981" lon="-1.17761">
        <ele>3.7</ele>
        <time>2022-06-02T13:59:40Z</time>
      </trkpt>
      <trkpt lat="49.37981" lon="-1.17761">
        <ele>3.7</ele>
        <time>2022-06-02T13:59:41Z</time>
      </trkpt>
      <trkpt lat="49.37981" lon="-1.17761">
        <ele>3.7</ele>
        <time>2022-06-02T13:59:42Z</time>
      </trkpt>
      <trkpt lat="49.37981" lon="-1.17761">
        <ele>3.7</ele>
        <time>2022-06-02T13:59:43Z</time>
      </trkpt>
      <trkpt lat="49.37981" lon="-1.17761">
        <ele>3.7</ele>
        <time>2022-06-02T13:59:44Z</time>
      </trkpt>
      <trkpt lat="49.37981" lon="-1.17761">
        <ele>3.7</ele>
        <time>2022-06-02T13:59:45Z</time>
      </trkpt>
      <trkpt lat="49.37981" lon="-1.17761">
        <ele>3.7</ele>
        <time>2022-06-02T13:59:46Z</time>
      </trkpt>
      <trkpt lat="49.37981" lon="-1.17761">
        <ele>3.7</ele>
        <time>2022-06-02T13:59:47Z</time>
      </trkpt>
      <trkpt lat="49.37981" lon="-1.17761">
        <ele>3.7</ele>
        <time>2022-06-02T13:59:48Z</time>
      </trkpt>
      <trkpt lat="49.37981" lon="-1.17761">
        <ele>3.7</ele>
        <time>2022-06-02T13:59:49Z</time>
      </trkpt>
      <trkpt lat="49.37981" lon="-1.17761">
        <ele>3.7</ele>
        <time>2022-06-02T13:59:50Z</time>
      </trkpt>
      <trkpt lat="49.37981" lon="-1.17761">
        <ele>3.7</ele>
        <time>2022-06-02T13:59:51Z</time>
      </trkpt>
      <trkpt lat="49.37981" lon="-1.17761">
        <ele>3.7</ele>
        <time>2022-06-02T13:59:52Z</time>
      </trkpt>
      <trkpt lat="49.37981" lon="-1.17761">
        <ele>3.7</ele>
        <time>2022-06-02T13:59:53Z</time>
      </trkpt>
      <trkpt lat="49.37981" lon="-1.17761">
        <ele>3.7</ele>
        <time>2022-06-02T13:59:54Z</time>
      </trkpt>
      <trkpt lat="49.37981" lon="-1.17761">
        <ele>3.7</ele>
        <time>2022-06-02T13:59:55Z</time>
      </trkpt>
      <trkpt lat="49.37981" lon="-1.17761">
        <ele>3.7</ele>
        <time>2022-06-02T13:59:56Z</time>
      </trkpt>
      <trkpt lat="49.37981" lon="-1.17761">
        <ele>3.7</ele>
        <time>2022-06-02T13:59:57Z</time>
      </trkpt>
      <trkpt lat="49.37981" lon="-1.17761">
        <ele>3.7</ele>
        <time>2022-06-02T13:59:58Z</time>
      </trkpt>
      <trkpt lat="49.37981" lon="-1.17761">
        <ele>3.7</ele>
        <time>2022-06-02T13:59:59Z</time>
      </trkpt>
      <trkpt lat="49.37981" lon="-1.17761">
        <ele>3.7</ele>
        <time>2022-06-02T14:00:00Z</time>
      </trkpt>
      <trkpt lat="49.37981" lon="-1.17761">
        <ele>3.7</ele>
        <time>2022-06-02T14:00:01Z</time>
      </trkpt>
      <trkpt lat="49.37981" lon="-1.17761">
        <ele>3.7</ele>
        <time>2022-06-02T14:00:02Z</time>
      </trkpt>
      <trkpt lat="49.37981" lon="-1.17761">
        <ele>3.7</ele>
        <time>2022-06-02T14:00:03Z</time>
      </trkpt>
      <trkpt lat="49.37981" lon="-1.17761">
        <ele>3.7</ele>
        <time>2022-06-02T14:00:04Z</time>
      </trkpt>
      <trkpt lat="49.37981" lon="-1.17761">
        <ele>3.7</ele>
        <time>2022-06-02T14:00:05Z</time>
      </trkpt>
      <trkpt lat="49.37981" lon="-1.17761">
        <ele>3.7</ele>
        <time>2022-06-02T14:00:06Z</time>
      </trkpt>
      <trkpt lat="49.37981" lon="-1.17761">
        <ele>3.7</ele>
        <time>2022-06-02T14:00:07Z</time>
      </trkpt>
      <trkpt lat="49.37981" lon="-1.17761">
        <ele>3.7</ele>
        <time>2022-06-02T14:00:08Z</time>
      </trkpt>
      <trkpt lat="49.37981" lon="-1.17761">
        <ele>3.7</ele>
        <time>2022-06-02T14:00:09Z</time>
      </trkpt>
      <trkpt lat="49.37981" lon="-1.17761">
        <ele>3.7</ele>
        <time>2022-06-02T14:00:10Z</time>
      </trkpt>
      <trkpt lat="49.37981" lon="-1.17761">
        <ele>3.7</ele>
        <time>2022-06-02T14:00:11Z</time>
      </trkpt>
      <trkpt lat="49.37981" lon="-1.17761">
        <ele>3.7</ele>
        <time>2022-06-02T14:00:12Z</time>
      </trkpt>
      <trkpt lat="49.37981" lon="-1.17761">
        <ele>3.7</ele>
        <time>2022-06-02T14:00:13Z</time>
      </trkpt>
      <trkpt lat="49.37981" lon="-1.17761">
        <ele>3.7</ele>
        <time>2022-06-02T14:00:14Z</time>
      </trkpt>
      <trkpt lat="49.37981" lon="-1.17761">
        <ele>3.7</ele>
        <time>2022-06-02T14:00:15Z</time>
      </trkpt>
      <trkpt lat="49.37981" lon="-1.17761">
        <ele>3.7</ele>
        <time>2022-06-02T14:00:16Z</time>
      </trkpt>
      <trkpt lat="49.37981" lon="-1.17761">
        <ele>3.7</ele>
        <time>2022-06-02T14:00:17Z</time>
      </trkpt>
      <trkpt lat="49.37981" lon="-1.17761">
        <ele>3.7</ele>
        <time>2022-06-02T14:00:18Z</time>
      </trkpt>
      <trkpt lat="49.37981" lon="-1.17761">
        <ele>3.7</ele>
        <time>2022-06-02T14:00:19Z</time>
      </trkpt>
      <trkpt lat="49.37981" lon="-1.17761">
        <ele>3.7</ele>
        <time>2022-06-02T14:00:20Z</time>
      </trkpt>
      <trkpt lat="49.37981" lon="-1.17761">
        <ele>3.7</ele>
        <time>2022-06-02T14:00:21Z</time>
      </trkpt>
      <trkpt lat="49.37981" lon="-1.17761">
        <ele>3.7</ele>
        <time>2022-06-02T14:00:22Z</time>
      </trkpt>
      <trkpt lat="49.37981" lon="-1.17761">
        <ele>3.7</ele>
        <time>2022-06-02T14:00:23Z</time>
      </trkpt>
      <trkpt lat="49.37981" lon="-1.17761">
        <ele>3.7</ele>
        <time>2022-06-02T14:00:24Z</time>
      </trkpt>
      <trkpt lat="49.37981" lon="-1.17761">
        <ele>3.7</ele>
        <time>2022-06-02T14:00:25Z</time>
      </trkpt>
      <trkpt lat="49.37981" lon="-1.17761">
        <ele>3.7</ele>
        <time>2022-06-02T14:00:26Z</time>
      </trkpt>
      <trkpt lat="49.37981" lon="-1.17761">
        <ele>3.7</ele>
        <time>2022-06-02T14:00:27Z</time>
      </trkpt>
      <trkpt lat="49.37981" lon="-1.17761">
        <ele>3.7</ele>
        <time>2022-06-02T14:00:28Z</time>
      </trkpt>
      <trkpt lat="49.37981" lon="-1.17761">
        <ele>3.7</ele>
        <time>2022-06-02T14:00:29Z</time>
      </trkpt>
      <trkpt lat="49.37981" lon="-1.17761">
        <ele>3.7</ele>
        <time>2022-06-02T14:00:30Z</time>
      </trkpt>
      <trkpt lat="49.37981" lon="-1.17761">
        <ele>3.7</ele>
        <time>2022-06-02T14:00:31Z</time>
      </trkpt>
      <trkpt lat="49.37982" lon="-1.17761">
        <ele>3.7</ele>
        <time>2022-06-02T14:00:32Z</time>
      </trkpt>
      <trkpt lat="49.37982" lon="-1.17761">
        <ele>3.7</ele>
        <time>2022-06-02T14:00:33Z</time>
      </trkpt>
      <trkpt lat="49.37982" lon="-1.17761">
        <ele>3.7</ele>
        <time>2022-06-02T14:00:34Z</time>
      </trkpt>
      <trkpt lat="49.37982" lon="-1.17761">
        <ele>3.7</ele>
        <time>2022-06-02T14:00:35Z</time>
      </trkpt>
      <trkpt lat="49.37982" lon="-1.17761">
        <ele>3.7</ele>
        <time>2022-06-02T14:00:36Z</time>
      </trkpt>
      <trkpt lat="49.37982" lon="-1.17761">
        <ele>3.7</ele>
        <time>2022-06-02T14:00:37Z</time>
      </trkpt>
      <trkpt lat="49.37982" lon="-1.17761">
        <ele>3.7</ele>
        <time>2022-06-02T14:00:38Z</time>
      </trkpt>
      <trkpt lat="49.37982" lon="-1.17761">
        <ele>3.7</ele>
        <time>2022-06-02T14:00:39Z</time>
      </trkpt>
      <trkpt lat="49.37982" lon="-1.17761">
        <ele>3.7</ele>
        <time>2022-06-02T14:00:40Z</time>
      </trkpt>
      <trkpt lat="49.37982" lon="-1.17761">
        <ele>3.7</ele>
        <time>2022-06-02T14:00:41Z</time>
      </trkpt>
      <trkpt lat="49.37982" lon="-1.17761">
        <ele>3.7</ele>
        <time>2022-06-02T14:00:42Z</time>
      </trkpt>
      <trkpt lat="49.37982" lon="-1.17761">
        <ele>3.7</ele>
        <time>2022-06-02T14:00:43Z</time>
      </trkpt>
      <trkpt lat="49.37982" lon="-1.17761">
        <ele>3.7</ele>
        <time>2022-06-02T14:00:44Z</time>
      </trkpt>
      <trkpt lat="49.37982" lon="-1.17761">
        <ele>3.7</ele>
        <time>2022-06-02T14:00:45Z</time>
      </trkpt>
      <trkpt lat="49.37982" lon="-1.17761">
        <ele>3.7</ele>
        <time>2022-06-02T14:00:46Z</time>
      </trkpt>
      <trkpt lat="49.37982" lon="-1.17761">
        <ele>3.7</ele>
        <time>2022-06-02T14:00:47Z</time>
      </trkpt>
      <trkpt lat="49.37982" lon="-1.17761">
        <ele>3.7</ele>
        <time>2022-06-02T14:00:48Z</time>
      </trkpt>
      <trkpt lat="49.37982" lon="-1.17761">
        <ele>3.7</ele>
        <time>2022-06-02T14:00:49Z</time>
      </trkpt>
      <trkpt lat="49.37982" lon="-1.17761">
        <ele>3.7</ele>
        <time>2022-06-02T14:00:50Z</time>
      </trkpt>
      <trkpt lat="49.37982" lon="-1.17761">
        <ele>3.7</ele>
        <time>2022-06-02T14:00:51Z</time>
      </trkpt>
      <trkpt lat="49.37982" lon="-1.17761">
        <ele>3.7</ele>
        <time>2022-06-02T14:00:52Z</time>
      </trkpt>
      <trkpt lat="49.37982" lon="-1.17761">
        <ele>3.7</ele>
        <time>2022-06-02T14:00:53Z</time>
      </trkpt>
      <trkpt lat="49.37982" lon="-1.17761">
        <ele>3.7</ele>
        <time>2022-06-02T14:00:54Z</time>
      </trkpt>
      <trkpt lat="49.37982" lon="-1.17761">
        <ele>3.7</ele>
        <time>2022-06-02T14:00:55Z</time>
      </trkpt>
      <trkpt lat="49.37982" lon="-1.17761">
        <ele>3.7</ele>
        <time>2022-06-02T14:00:56Z</time>
      </trkpt>
      <trkpt lat="49.37982" lon="-1.17761">
        <ele>3.7</ele>
        <time>2022-06-02T14:00:57Z</time>
      </trkpt>
      <trkpt lat="49.37982" lon="-1.17761">
        <ele>3.7</ele>
        <time>2022-06-02T14:00:58Z</time>
      </trkpt>
      <trkpt lat="49.37982" lon="-1.17761">
        <ele>3.7</ele>
        <time>2022-06-02T14:00:59Z</time>
      </trkpt>
      <trkpt lat="49.37982" lon="-1.17761">
        <ele>3.7</ele>
        <time>2022-06-02T14:01:00Z</time>
      </trkpt>
      <trkpt lat="49.37982" lon="-1.17761">
        <ele>3.7</ele>
        <time>2022-06-02T14:01:01Z</time>
      </trkpt>
      <trkpt lat="49.37982" lon="-1.17761">
        <ele>3.7</ele>
        <time>2022-06-02T14:01:02Z</time>
      </trkpt>
      <trkpt lat="49.37982" lon="-1.17761">
        <ele>3.7</ele>
        <time>2022-06-02T14:01:03Z</time>
      </trkpt>
      <trkpt lat="49.37982" lon="-1.17761">
        <ele>3.7</ele>
        <time>2022-06-02T14:01:04Z</time>
      </trkpt>
      <trkpt lat="49.37982" lon="-1.17761">
        <ele>3.7</ele>
        <time>2022-06-02T14:01:05Z</time>
      </trkpt>
      <trkpt lat="49.37982" lon="-1.17761">
        <ele>3.7</ele>
        <time>2022-06-02T14:01:06Z</time>
      </trkpt>
      <trkpt lat="49.37982" lon="-1.17761">
        <ele>3.7</ele>
        <time>2022-06-02T14:01:07Z</time>
      </trkpt>
      <trkpt lat="49.37982" lon="-1.17761">
        <ele>3.7</ele>
        <time>2022-06-02T14:01:08Z</time>
      </trkpt>
      <trkpt lat="49.37982" lon="-1.17761">
        <ele>3.7</ele>
        <time>2022-06-02T14:01:09Z</time>
      </trkpt>
      <trkpt lat="49.37982" lon="-1.17761">
        <ele>3.7</ele>
        <time>2022-06-02T14:01:10Z</time>
      </trkpt>
      <trkpt lat="49.37982" lon="-1.17761">
        <ele>3.7</ele>
        <time>2022-06-02T14:01:11Z</time>
      </trkpt>
      <trkpt lat="49.37982" lon="-1.17761">
        <ele>3.7</ele>
        <time>2022-06-02T14:01:12Z</time>
      </trkpt>
      <trkpt lat="49.37982" lon="-1.17761">
        <ele>3.7</ele>
        <time>2022-06-02T14:01:13Z</time>
      </trkpt>
      <trkpt lat="49.37982" lon="-1.17761">
        <ele>3.7</ele>
        <time>2022-06-02T14:01:14Z</time>
      </trkpt>
      <trkpt lat="49.37982" lon="-1.17761">
        <ele>3.7</ele>
        <time>2022-06-02T14:01:15Z</time>
      </trkpt>
      <trkpt lat="49.37982" lon="-1.17761">
        <ele>3.7</ele>
        <time>2022-06-02T14:01:16Z</time>
      </trkpt>
      <trkpt lat="49.37982" lon="-1.17761">
        <ele>3.7</ele>
        <time>2022-06-02T14:01:17Z</time>
      </trkpt>
      <trkpt lat="49.37982" lon="-1.17761">
        <ele>3.7</ele>
        <time>2022-06-02T14:01:18Z</time>
      </trkpt>
      <trkpt lat="49.37982" lon="-1.17761">
        <ele>3.7</ele>
        <time>2022-06-02T14:01:19Z</time>
      </trkpt>
      <trkpt lat="49.37982" lon="-1.17761">
        <ele>3.7</ele>
        <time>2022-06-02T14:01:20Z</time>
      </trkpt>
      <trkpt lat="49.37982" lon="-1.17761">
        <ele>3.7</ele>
        <time>2022-06-02T14:01:21Z</time>
      </trkpt>
      <trkpt lat="49.37982" lon="-1.17761">
        <ele>3.7</ele>
        <time>2022-06-02T14:01:22Z</time>
      </trkpt>
      <trkpt lat="49.37982" lon="-1.17761">
        <ele>3.7</ele>
        <time>2022-06-02T14:01:23Z</time>
      </trkpt>
      <trkpt lat="49.37982" lon="-1.17761">
        <ele>3.7</ele>
        <time>2022-06-02T14:01:24Z</time>
      </trkpt>
      <trkpt lat="49.37982" lon="-1.17761">
        <ele>3.7</ele>
        <time>2022-06-02T14:01:25Z</time>
      </trkpt>
      <trkpt lat="49.37982" lon="-1.17761">
        <ele>3.7</ele>
        <time>2022-06-02T14:01:26Z</time>
      </trkpt>
      <trkpt lat="49.37982" lon="-1.17761">
        <ele>3.7</ele>
        <time>2022-06-02T14:01:27Z</time>
      </trkpt>
      <trkpt lat="49.37982" lon="-1.17761">
        <ele>3.7</ele>
        <time>2022-06-02T14:01:28Z</time>
      </trkpt>
      <trkpt lat="49.37982" lon="-1.17761">
        <ele>3.7</ele>
        <time>2022-06-02T14:01:29Z</time>
      </trkpt>
      <trkpt lat="49.37982" lon="-1.17761">
        <ele>3.7</ele>
        <time>2022-06-02T14:01:30Z</time>
      </trkpt>
      <trkpt lat="49.37982" lon="-1.17761">
        <ele>3.7</ele>
        <time>2022-06-02T14:01:31Z</time>
      </trkpt>
      <trkpt lat="49.37982" lon="-1.17761">
        <ele>3.7</ele>
        <time>2022-06-02T14:01:32Z</time>
      </trkpt>
      <trkpt lat="49.37982" lon="-1.17761">
        <ele>3.7</ele>
        <time>2022-06-02T14:01:33Z</time>
      </trkpt>
      <trkpt lat="49.37982" lon="-1.17761">
        <ele>3.7</ele>
        <time>2022-06-02T14:01:34Z</time>
      </trkpt>
      <trkpt lat="49.37982" lon="-1.17761">
        <ele>3.7</ele>
        <time>2022-06-02T14:01:35Z</time>
      </trkpt>
      <trkpt lat="49.37982" lon="-1.17761">
        <ele>3.7</ele>
        <time>2022-06-02T14:01:36Z</time>
      </trkpt>
      <trkpt lat="49.37982" lon="-1.17761">
        <ele>3.7</ele>
        <time>2022-06-02T14:01:37Z</time>
      </trkpt>
      <trkpt lat="49.37982" lon="-1.17761">
        <ele>3.7</ele>
        <time>2022-06-02T14:01:38Z</time>
      </trkpt>
      <trkpt lat="49.37982" lon="-1.17761">
        <ele>3.7</ele>
        <time>2022-06-02T14:01:39Z</time>
      </trkpt>
      <trkpt lat="49.37982" lon="-1.17761">
        <ele>3.7</ele>
        <time>2022-06-02T14:01:40Z</time>
      </trkpt>
      <trkpt lat="49.37982" lon="-1.17761">
        <ele>3.7</ele>
        <time>2022-06-02T14:01:41Z</time>
      </trkpt>
      <trkpt lat="49.37982" lon="-1.17761">
        <ele>3.7</ele>
        <time>2022-06-02T14:01:42Z</time>
      </trkpt>
      <trkpt lat="49.37982" lon="-1.17761">
        <ele>3.7</ele>
        <time>2022-06-02T14:01:43Z</time>
      </trkpt>
      <trkpt lat="49.37982" lon="-1.17761">
        <ele>3.7</ele>
        <time>2022-06-02T14:01:44Z</time>
      </trkpt>
      <trkpt lat="49.37982" lon="-1.17761">
        <ele>3.7</ele>
        <time>2022-06-02T14:01:45Z</time>
      </trkpt>
      <trkpt lat="49.37982" lon="-1.17761">
        <ele>3.7</ele>
        <time>2022-06-02T14:01:46Z</time>
      </trkpt>
      <trkpt lat="49.37982" lon="-1.17761">
        <ele>3.7</ele>
        <time>2022-06-02T14:01:47Z</time>
      </trkpt>
      <trkpt lat="49.37982" lon="-1.17761">
        <ele>3.7</ele>
        <time>2022-06-02T14:01:48Z</time>
      </trkpt>
      <trkpt lat="49.37982" lon="-1.17761">
        <ele>3.7</ele>
        <time>2022-06-02T14:01:49Z</time>
      </trkpt>
      <trkpt lat="49.37982" lon="-1.17761">
        <ele>3.7</ele>
        <time>2022-06-02T14:01:50Z</time>
      </trkpt>
      <trkpt lat="49.37982" lon="-1.17761">
        <ele>3.7</ele>
        <time>2022-06-02T14:01:51Z</time>
      </trkpt>
      <trkpt lat="49.37982" lon="-1.17761">
        <ele>3.7</ele>
        <time>2022-06-02T14:01:52Z</time>
      </trkpt>
      <trkpt lat="49.37982" lon="-1.17761">
        <ele>3.7</ele>
        <time>2022-06-02T14:01:53Z</time>
      </trkpt>
      <trkpt lat="49.37982" lon="-1.17761">
        <ele>3.7</ele>
        <time>2022-06-02T14:01:54Z</time>
      </trkpt>
      <trkpt lat="49.37982" lon="-1.17761">
        <ele>3.7</ele>
        <time>2022-06-02T14:01:55Z</time>
      </trkpt>
      <trkpt lat="49.37982" lon="-1.17761">
        <ele>3.7</ele>
        <time>2022-06-02T14:01:56Z</time>
      </trkpt>
      <trkpt lat="49.37982" lon="-1.17761">
        <ele>3.7</ele>
        <time>2022-06-02T14:01:57Z</time>
      </trkpt>
      <trkpt lat="49.37982" lon="-1.17761">
        <ele>3.7</ele>
        <time>2022-06-02T14:01:58Z</time>
      </trkpt>
      <trkpt lat="49.37982" lon="-1.17761">
        <ele>3.7</ele>
        <time>2022-06-02T14:01:59Z</time>
      </trkpt>
      <trkpt lat="49.37982" lon="-1.17761">
        <ele>3.7</ele>
        <time>2022-06-02T14:02:00Z</time>
      </trkpt>
      <trkpt lat="49.37982" lon="-1.17761">
        <ele>3.7</ele>
        <time>2022-06-02T14:02:01Z</time>
      </trkpt>
      <trkpt lat="49.37982" lon="-1.17761">
        <ele>3.7</ele>
        <time>2022-06-02T14:02:02Z</time>
      </trkpt>
      <trkpt lat="49.37982" lon="-1.17761">
        <ele>3.7</ele>
        <time>2022-06-02T14:02:03Z</time>
      </trkpt>
      <trkpt lat="49.37982" lon="-1.17761">
        <ele>3.7</ele>
        <time>2022-06-02T14:02:04Z</time>
      </trkpt>
      <trkpt lat="49.37982" lon="-1.17761">
        <ele>3.7</ele>
        <time>2022-06-02T14:02:05Z</time>
      </trkpt>
      <trkpt lat="49.37982" lon="-1.17761">
        <ele>3.7</ele>
        <time>2022-06-02T14:02:06Z</time>
      </trkpt>
      <trkpt lat="49.37982" lon="-1.17761">
        <ele>3.7</ele>
        <time>2022-06-02T14:02:07Z</time>
      </trkpt>
      <trkpt lat="49.37982" lon="-1.17761">
        <ele>3.7</ele>
        <time>2022-06-02T14:02:08Z</time>
      </trkpt>
      <trkpt lat="49.37982" lon="-1.17761">
        <ele>3.7</ele>
        <time>2022-06-02T14:02:09Z</time>
      </trkpt>
      <trkpt lat="49.37982" lon="-1.17761">
        <ele>3.7</ele>
        <time>2022-06-02T14:02:10Z</time>
      </trkpt>
      <trkpt lat="49.37982" lon="-1.17761">
        <ele>3.7</ele>
        <time>2022-06-02T14:02:11Z</time>
      </trkpt>
      <trkpt lat="49.37982" lon="-1.17761">
        <ele>3.7</ele>
        <time>2022-06-02T14:02:12Z</time>
      </trkpt>
      <trkpt lat="49.37982" lon="-1.17761">
        <ele>3.7</ele>
        <time>2022-06-02T14:02:13Z</time>
      </trkpt>
      <trkpt lat="49.37982" lon="-1.17761">
        <ele>3.7</ele>
        <time>2022-06-02T14:02:14Z</time>
      </trkpt>
      <trkpt lat="49.37982" lon="-1.17761">
        <ele>3.7</ele>
        <time>2022-06-02T14:02:15Z</time>
      </trkpt>
      <trkpt lat="49.37982" lon="-1.17761">
        <ele>3.7</ele>
        <time>2022-06-02T14:02:16Z</time>
      </trkpt>
      <trkpt lat="49.37982" lon="-1.17761">
        <ele>3.7</ele>
        <time>2022-06-02T14:02:17Z</time>
      </trkpt>
      <trkpt lat="49.37982" lon="-1.17761">
        <ele>3.7</ele>
        <time>2022-06-02T14:02:18Z</time>
      </trkpt>
      <trkpt lat="49.37982" lon="-1.17761">
        <ele>3.7</ele>
        <time>2022-06-02T14:02:19Z</time>
      </trkpt>
      <trkpt lat="49.37982" lon="-1.17761">
        <ele>3.7</ele>
        <time>2022-06-02T14:02:20Z</time>
      </trkpt>
      <trkpt lat="49.37982" lon="-1.17761">
        <ele>3.7</ele>
        <time>2022-06-02T14:02:21Z</time>
      </trkpt>
      <trkpt lat="49.37982" lon="-1.17761">
        <ele>3.7</ele>
        <time>2022-06-02T14:02:22Z</time>
      </trkpt>
      <trkpt lat="49.37982" lon="-1.17761">
        <ele>3.7</ele>
        <time>2022-06-02T14:02:23Z</time>
      </trkpt>
      <trkpt lat="49.37982" lon="-1.17761">
        <ele>3.7</ele>
        <time>2022-06-02T14:02:24Z</time>
      </trkpt>
      <trkpt lat="49.37982" lon="-1.17761">
        <ele>3.7</ele>
        <time>2022-06-02T14:02:25Z</time>
      </trkpt>
      <trkpt lat="49.37982" lon="-1.17761">
        <ele>3.7</ele>
        <time>2022-06-02T14:02:26Z</time>
      </trkpt>
      <trkpt lat="49.37982" lon="-1.17761">
        <ele>3.7</ele>
        <time>2022-06-02T14:02:27Z</time>
      </trkpt>
      <trkpt lat="49.37982" lon="-1.17761">
        <ele>3.7</ele>
        <time>2022-06-02T14:02:28Z</time>
      </trkpt>
      <trkpt lat="49.37982" lon="-1.17761">
        <ele>3.7</ele>
        <time>2022-06-02T14:02:29Z</time>
      </trkpt>
      <trkpt lat="49.37982" lon="-1.17761">
        <ele>3.7</ele>
        <time>2022-06-02T14:02:30Z</time>
      </trkpt>
      <trkpt lat="49.37982" lon="-1.17761">
        <ele>3.7</ele>
        <time>2022-06-02T14:02:31Z</time>
      </trkpt>
      <trkpt lat="49.37982" lon="-1.17761">
        <ele>3.7</ele>
        <time>2022-06-02T14:02:32Z</time>
      </trkpt>
      <trkpt lat="49.37982" lon="-1.17761">
        <ele>3.7</ele>
        <time>2022-06-02T14:02:33Z</time>
      </trkpt>
      <trkpt lat="49.37982" lon="-1.17761">
        <ele>3.7</ele>
        <time>2022-06-02T14:02:34Z</time>
      </trkpt>
      <trkpt lat="49.37982" lon="-1.17761">
        <ele>3.7</ele>
        <time>2022-06-02T14:02:35Z</time>
      </trkpt>
      <trkpt lat="49.37982" lon="-1.17761">
        <ele>3.7</ele>
        <time>2022-06-02T14:02:36Z</time>
      </trkpt>
      <trkpt lat="49.37982" lon="-1.17761">
        <ele>3.7</ele>
        <time>2022-06-02T14:02:37Z</time>
      </trkpt>
      <trkpt lat="49.37982" lon="-1.17761">
        <ele>3.7</ele>
        <time>2022-06-02T14:02:38Z</time>
      </trkpt>
      <trkpt lat="49.37982" lon="-1.17761">
        <ele>3.7</ele>
        <time>2022-06-02T14:02:39Z</time>
      </trkpt>
      <trkpt lat="49.37982" lon="-1.17761">
        <ele>3.7</ele>
        <time>2022-06-02T14:02:40Z</time>
      </trkpt>
      <trkpt lat="49.37982" lon="-1.17761">
        <ele>3.7</ele>
        <time>2022-06-02T14:02:41Z</time>
      </trkpt>
      <trkpt lat="49.37982" lon="-1.17761">
        <ele>3.7</ele>
        <time>2022-06-02T14:02:42Z</time>
      </trkpt>
      <trkpt lat="49.37982" lon="-1.17761">
        <ele>3.7</ele>
        <time>2022-06-02T14:02:43Z</time>
      </trkpt>
      <trkpt lat="49.37982" lon="-1.17761">
        <ele>3.7</ele>
        <time>2022-06-02T14:02:44Z</time>
      </trkpt>
      <trkpt lat="49.37982" lon="-1.17761">
        <ele>3.7</ele>
        <time>2022-06-02T14:02:45Z</time>
      </trkpt>
      <trkpt lat="49.37982" lon="-1.17761">
        <ele>3.7</ele>
        <time>2022-06-02T14:02:46Z</time>
      </trkpt>
      <trkpt lat="49.37982" lon="-1.17761">
        <ele>3.7</ele>
        <time>2022-06-02T14:02:47Z</time>
      </trkpt>
      <trkpt lat="49.37982" lon="-1.17761">
        <ele>3.7</ele>
        <time>2022-06-02T14:02:48Z</time>
      </trkpt>
      <trkpt lat="49.37982" lon="-1.17761">
        <ele>3.7</ele>
        <time>2022-06-02T14:02:49Z</time>
      </trkpt>
      <trkpt lat="49.37982" lon="-1.17761">
        <ele>3.7</ele>
        <time>2022-06-02T14:02:50Z</time>
      </trkpt>
      <trkpt lat="49.37982" lon="-1.17761">
        <ele>3.7</ele>
        <time>2022-06-02T14:02:51Z</time>
      </trkpt>
      <trkpt lat="49.37982" lon="-1.17761">
        <ele>3.7</ele>
        <time>2022-06-02T14:02:52Z</time>
      </trkpt>
      <trkpt lat="49.37982" lon="-1.17761">
        <ele>3.7</ele>
        <time>2022-06-02T14:02:53Z</time>
      </trkpt>
      <trkpt lat="49.37982" lon="-1.17761">
        <ele>3.7</ele>
        <time>2022-06-02T14:02:54Z</time>
      </trkpt>
      <trkpt lat="49.37982" lon="-1.17761">
        <ele>3.7</ele>
        <time>2022-06-02T14:02:55Z</time>
      </trkpt>
      <trkpt lat="49.37982" lon="-1.17761">
        <ele>3.7</ele>
        <time>2022-06-02T14:02:56Z</time>
      </trkpt>
      <trkpt lat="49.37982" lon="-1.17761">
        <ele>3.7</ele>
        <time>2022-06-02T14:02:57Z</time>
      </trkpt>
      <trkpt lat="49.37982" lon="-1.17761">
        <ele>3.7</ele>
        <time>2022-06-02T14:02:58Z</time>
      </trkpt>
      <trkpt lat="49.37982" lon="-1.17761">
        <ele>3.7</ele>
        <time>2022-06-02T14:02:59Z</time>
      </trkpt>
      <trkpt lat="49.37982" lon="-1.17761">
        <ele>3.7</ele>
        <time>2022-06-02T14:03:00Z</time>
      </trkpt>
      <trkpt lat="49.37982" lon="-1.17761">
        <ele>3.7</ele>
        <time>2022-06-02T14:03:01Z</time>
      </trkpt>
      <trkpt lat="49.37982" lon="-1.17761">
        <ele>3.7</ele>
        <time>2022-06-02T14:03:02Z</time>
      </trkpt>
      <trkpt lat="49.37982" lon="-1.17761">
        <ele>3.7</ele>
        <time>2022-06-02T14:03:03Z</time>
      </trkpt>
      <trkpt lat="49.37982" lon="-1.17761">
        <ele>3.7</ele>
        <time>2022-06-02T14:03:04Z</time>
      </trkpt>
      <trkpt lat="49.37982" lon="-1.17761">
        <ele>3.7</ele>
        <time>2022-06-02T14:03:05Z</time>
      </trkpt>
      <trkpt lat="49.37982" lon="-1.17761">
        <ele>3.7</ele>
        <time>2022-06-02T14:03:06Z</time>
      </trkpt>
      <trkpt lat="49.37982" lon="-1.17761">
        <ele>3.7</ele>
        <time>2022-06-02T14:03:07Z</time>
      </trkpt>
      <trkpt lat="49.37982" lon="-1.17761">
        <ele>3.7</ele>
        <time>2022-06-02T14:03:08Z</time>
      </trkpt>
      <trkpt lat="49.37982" lon="-1.17761">
        <ele>3.7</ele>
        <time>2022-06-02T14:03:09Z</time>
      </trkpt>
      <trkpt lat="49.37982" lon="-1.17761">
        <ele>3.7</ele>
        <time>2022-06-02T14:03:10Z</time>
      </trkpt>
      <trkpt lat="49.37982" lon="-1.17761">
        <ele>3.7</ele>
        <time>2022-06-02T14:03:11Z</time>
      </trkpt>
      <trkpt lat="49.37982" lon="-1.17761">
        <ele>3.7</ele>
        <time>2022-06-02T14:03:12Z</time>
      </trkpt>
      <trkpt lat="49.37982" lon="-1.17761">
        <ele>3.7</ele>
        <time>2022-06-02T14:03:13Z</time>
      </trkpt>
      <trkpt lat="49.37982" lon="-1.17761">
        <ele>3.7</ele>
        <time>2022-06-02T14:03:14Z</time>
      </trkpt>
      <trkpt lat="49.37982" lon="-1.17761">
        <ele>3.7</ele>
        <time>2022-06-02T14:03:15Z</time>
      </trkpt>
      <trkpt lat="49.37982" lon="-1.17761">
        <ele>3.7</ele>
        <time>2022-06-02T14:03:16Z</time>
      </trkpt>
      <trkpt lat="49.37982" lon="-1.17761">
        <ele>3.7</ele>
        <time>2022-06-02T14:03:17Z</time>
      </trkpt>
      <trkpt lat="49.37982" lon="-1.17761">
        <ele>3.7</ele>
        <time>2022-06-02T14:03:18Z</time>
      </trkpt>
      <trkpt lat="49.37982" lon="-1.17761">
        <ele>3.7</ele>
        <time>2022-06-02T14:03:19Z</time>
      </trkpt>
      <trkpt lat="49.37982" lon="-1.17761">
        <ele>3.7</ele>
        <time>2022-06-02T14:03:20Z</time>
      </trkpt>
      <trkpt lat="49.37982" lon="-1.17761">
        <ele>3.7</ele>
        <time>2022-06-02T14:03:21Z</time>
      </trkpt>
      <trkpt lat="49.37982" lon="-1.17761">
        <ele>3.7</ele>
        <time>2022-06-02T14:03:22Z</time>
      </trkpt>
      <trkpt lat="49.37982" lon="-1.17761">
        <ele>3.7</ele>
        <time>2022-06-02T14:03:23Z</time>
      </trkpt>
      <trkpt lat="49.37982" lon="-1.17761">
        <ele>3.7</ele>
        <time>2022-06-02T14:03:24Z</time>
      </trkpt>
      <trkpt lat="49.37982" lon="-1.17761">
        <ele>3.7</ele>
        <time>2022-06-02T14:03:25Z</time>
      </trkpt>
      <trkpt lat="49.37982" lon="-1.17761">
        <ele>3.7</ele>
        <time>2022-06-02T14:03:26Z</time>
      </trkpt>
      <trkpt lat="49.37983" lon="-1.17761">
        <ele>3.7</ele>
        <time>2022-06-02T14:03:27Z</time>
      </trkpt>
      <trkpt lat="49.37983" lon="-1.17761">
        <ele>3.7</ele>
        <time>2022-06-02T14:03:28Z</time>
      </trkpt>
      <trkpt lat="49.37983" lon="-1.17761">
        <ele>3.7</ele>
        <time>2022-06-02T14:03:29Z</time>
      </trkpt>
      <trkpt lat="49.37983" lon="-1.17761">
        <ele>3.7</ele>
        <time>2022-06-02T14:03:30Z</time>
      </trkpt>
      <trkpt lat="49.37983" lon="-1.17761">
        <ele>3.7</ele>
        <time>2022-06-02T14:03:31Z</time>
      </trkpt>
      <trkpt lat="49.37983" lon="-1.17761">
        <ele>3.7</ele>
        <time>2022-06-02T14:03:32Z</time>
      </trkpt>
      <trkpt lat="49.37983" lon="-1.17761">
        <ele>3.7</ele>
        <time>2022-06-02T14:03:33Z</time>
      </trkpt>
      <trkpt lat="49.37983" lon="-1.17761">
        <ele>3.7</ele>
        <time>2022-06-02T14:03:34Z</time>
      </trkpt>
      <trkpt lat="49.37983" lon="-1.17761">
        <ele>3.7</ele>
        <time>2022-06-02T14:03:35Z</time>
      </trkpt>
      <trkpt lat="49.37983" lon="-1.17761">
        <ele>3.7</ele>
        <time>2022-06-02T14:03:36Z</time>
      </trkpt>
      <trkpt lat="49.37983" lon="-1.17761">
        <ele>3.7</ele>
        <time>2022-06-02T14:03:37Z</time>
      </trkpt>
      <trkpt lat="49.37983" lon="-1.17761">
        <ele>3.7</ele>
        <time>2022-06-02T14:03:38Z</time>
      </trkpt>
      <trkpt lat="49.37983" lon="-1.17761">
        <ele>3.7</ele>
        <time>2022-06-02T14:03:39Z</time>
      </trkpt>
      <trkpt lat="49.37983" lon="-1.17761">
        <ele>3.7</ele>
        <time>2022-06-02T14:03:40Z</time>
      </trkpt>
      <trkpt lat="49.37983" lon="-1.17761">
        <ele>3.7</ele>
        <time>2022-06-02T14:03:41Z</time>
      </trkpt>
      <trkpt lat="49.37983" lon="-1.17761">
        <ele>3.7</ele>
        <time>2022-06-02T14:03:42Z</time>
      </trkpt>
      <trkpt lat="49.37983" lon="-1.17761">
        <ele>3.7</ele>
        <time>2022-06-02T14:03:43Z</time>
      </trkpt>
      <trkpt lat="49.37983" lon="-1.17761">
        <ele>3.7</ele>
        <time>2022-06-02T14:03:44Z</time>
      </trkpt>
      <trkpt lat="49.37983" lon="-1.17761">
        <ele>3.7</ele>
        <time>2022-06-02T14:03:45Z</time>
      </trkpt>
      <trkpt lat="49.37983" lon="-1.17761">
        <ele>3.7</ele>
        <time>2022-06-02T14:03:46Z</time>
      </trkpt>
      <trkpt lat="49.37983" lon="-1.17761">
        <ele>3.7</ele>
        <time>2022-06-02T14:03:47Z</time>
      </trkpt>
      <trkpt lat="49.37983" lon="-1.17761">
        <ele>3.7</ele>
        <time>2022-06-02T14:03:48Z</time>
      </trkpt>
      <trkpt lat="49.37983" lon="-1.17761">
        <ele>3.7</ele>
        <time>2022-06-02T14:03:49Z</time>
      </trkpt>
      <trkpt lat="49.37983" lon="-1.17761">
        <ele>3.7</ele>
        <time>2022-06-02T14:03:50Z</time>
      </trkpt>
      <trkpt lat="49.37983" lon="-1.17761">
        <ele>3.7</ele>
        <time>2022-06-02T14:03:51Z</time>
      </trkpt>
      <trkpt lat="49.37983" lon="-1.17761">
        <ele>3.7</ele>
        <time>2022-06-02T14:03:52Z</time>
      </trkpt>
      <trkpt lat="49.37983" lon="-1.17761">
        <ele>3.7</ele>
        <time>2022-06-02T14:03:53Z</time>
      </trkpt>
      <trkpt lat="49.37983" lon="-1.17761">
        <ele>3.7</ele>
        <time>2022-06-02T14:03:54Z</time>
      </trkpt>
      <trkpt lat="49.37983" lon="-1.17761">
        <ele>3.7</ele>
        <time>2022-06-02T14:03:55Z</time>
      </trkpt>
      <trkpt lat="49.37983" lon="-1.17761">
        <ele>3.7</ele>
        <time>2022-06-02T14:03:56Z</time>
      </trkpt>
      <trkpt lat="49.37983" lon="-1.17761">
        <ele>3.7</ele>
        <time>2022-06-02T14:03:57Z</time>
      </trkpt>
      <trkpt lat="49.37983" lon="-1.17761">
        <ele>3.7</ele>
        <time>2022-06-02T14:03:58Z</time>
      </trkpt>
      <trkpt lat="49.37983" lon="-1.17761">
        <ele>3.7</ele>
        <time>2022-06-02T14:03:59Z</time>
      </trkpt>
      <trkpt lat="49.37983" lon="-1.17761">
        <ele>3.7</ele>
        <time>2022-06-02T14:04:00Z</time>
      </trkpt>
      <trkpt lat="49.37983" lon="-1.17761">
        <ele>3.7</ele>
        <time>2022-06-02T14:04:01Z</time>
      </trkpt>
      <trkpt lat="49.37983" lon="-1.17761">
        <ele>3.7</ele>
        <time>2022-06-02T14:04:02Z</time>
      </trkpt>
      <trkpt lat="49.37983" lon="-1.17761">
        <ele>3.7</ele>
        <time>2022-06-02T14:04:03Z</time>
      </trkpt>
      <trkpt lat="49.37983" lon="-1.17761">
        <ele>3.7</ele>
        <time>2022-06-02T14:04:04Z</time>
      </trkpt>
      <trkpt lat="49.37983" lon="-1.17761">
        <ele>3.7</ele>
        <time>2022-06-02T14:04:05Z</time>
      </trkpt>
      <trkpt lat="49.37983" lon="-1.17761">
        <ele>3.7</ele>
        <time>2022-06-02T14:04:06Z</time>
      </trkpt>
      <trkpt lat="49.37983" lon="-1.17761">
        <ele>3.7</ele>
        <time>2022-06-02T14:04:07Z</time>
      </trkpt>
      <trkpt lat="49.37983" lon="-1.17761">
        <ele>3.7</ele>
        <time>2022-06-02T14:04:08Z</time>
      </trkpt>
      <trkpt lat="49.37983" lon="-1.17761">
        <ele>3.7</ele>
        <time>2022-06-02T14:04:09Z</time>
      </trkpt>
      <trkpt lat="49.37983" lon="-1.17761">
        <ele>3.7</ele>
        <time>2022-06-02T14:04:10Z</time>
      </trkpt>
      <trkpt lat="49.37983" lon="-1.17761">
        <ele>3.7</ele>
        <time>2022-06-02T14:04:11Z</time>
      </trkpt>
      <trkpt lat="49.37983" lon="-1.17761">
        <ele>3.7</ele>
        <time>2022-06-02T14:04:12Z</time>
      </trkpt>
      <trkpt lat="49.37983" lon="-1.17761">
        <ele>3.7</ele>
        <time>2022-06-02T14:04:13Z</time>
      </trkpt>
      <trkpt lat="49.37983" lon="-1.17761">
        <ele>3.7</ele>
        <time>2022-06-02T14:04:14Z</time>
      </trkpt>
      <trkpt lat="49.37983" lon="-1.17761">
        <ele>3.7</ele>
        <time>2022-06-02T14:04:15Z</time>
      </trkpt>
      <trkpt lat="49.37983" lon="-1.17761">
        <ele>3.7</ele>
        <time>2022-06-02T14:04:16Z</time>
      </trkpt>
      <trkpt lat="49.37983" lon="-1.17761">
        <ele>3.7</ele>
        <time>2022-06-02T14:04:17Z</time>
      </trkpt>
      <trkpt lat="49.37983" lon="-1.17761">
        <ele>3.7</ele>
        <time>2022-06-02T14:04:18Z</time>
      </trkpt>
      <trkpt lat="49.37983" lon="-1.17761">
        <ele>3.7</ele>
        <time>2022-06-02T14:04:19Z</time>
      </trkpt>
      <trkpt lat="49.37983" lon="-1.17761">
        <ele>3.7</ele>
        <time>2022-06-02T14:04:20Z</time>
      </trkpt>
      <trkpt lat="49.37983" lon="-1.17761">
        <ele>3.7</ele>
        <time>2022-06-02T14:04:21Z</time>
      </trkpt>
      <trkpt lat="49.37983" lon="-1.17761">
        <ele>3.7</ele>
        <time>2022-06-02T14:04:22Z</time>
      </trkpt>
      <trkpt lat="49.37983" lon="-1.17761">
        <ele>3.7</ele>
        <time>2022-06-02T14:04:23Z</time>
      </trkpt>
      <trkpt lat="49.37983" lon="-1.17761">
        <ele>3.7</ele>
        <time>2022-06-02T14:04:24Z</time>
      </trkpt>
      <trkpt lat="49.37983" lon="-1.17761">
        <ele>3.7</ele>
        <time>2022-06-02T14:04:25Z</time>
      </trkpt>
      <trkpt lat="49.37983" lon="-1.17761">
        <ele>3.7</ele>
        <time>2022-06-02T14:04:26Z</time>
      </trkpt>
      <trkpt lat="49.37983" lon="-1.17761">
        <ele>3.7</ele>
        <time>2022-06-02T14:04:27Z</time>
      </trkpt>
      <trkpt lat="49.37983" lon="-1.17761">
        <ele>3.7</ele>
        <time>2022-06-02T14:04:28Z</time>
      </trkpt>
      <trkpt lat="49.37983" lon="-1.17761">
        <ele>3.7</ele>
        <time>2022-06-02T14:04:29Z</time>
      </trkpt>
      <trkpt lat="49.37983" lon="-1.17761">
        <ele>3.7</ele>
        <time>2022-06-02T14:04:30Z</time>
      </trkpt>
      <trkpt lat="49.37983" lon="-1.17761">
        <ele>3.7</ele>
        <time>2022-06-02T14:04:31Z</time>
      </trkpt>
      <trkpt lat="49.37983" lon="-1.17761">
        <ele>3.7</ele>
        <time>2022-06-02T14:04:32Z</time>
      </trkpt>
      <trkpt lat="49.37983" lon="-1.17761">
        <ele>3.7</ele>
        <time>2022-06-02T14:04:33Z</time>
      </trkpt>
      <trkpt lat="49.37983" lon="-1.17761">
        <ele>3.7</ele>
        <time>2022-06-02T14:04:34Z</time>
      </trkpt>
      <trkpt lat="49.37983" lon="-1.17761">
        <ele>3.7</ele>
        <time>2022-06-02T14:04:35Z</time>
      </trkpt>
      <trkpt lat="49.37983" lon="-1.17761">
        <ele>3.7</ele>
        <time>2022-06-02T14:04:36Z</time>
      </trkpt>
      <trkpt lat="49.37983" lon="-1.17761">
        <ele>3.7</ele>
        <time>2022-06-02T14:04:37Z</time>
      </trkpt>
      <trkpt lat="49.37983" lon="-1.17761">
        <ele>3.7</ele>
        <time>2022-06-02T14:04:38Z</time>
      </trkpt>
      <trkpt lat="49.37983" lon="-1.17761">
        <ele>3.7</ele>
        <time>2022-06-02T14:04:39Z</time>
      </trkpt>
      <trkpt lat="49.37983" lon="-1.17761">
        <ele>3.7</ele>
        <time>2022-06-02T14:04:40Z</time>
      </trkpt>
      <trkpt lat="49.37983" lon="-1.17761">
        <ele>3.7</ele>
        <time>2022-06-02T14:04:41Z</time>
      </trkpt>
      <trkpt lat="49.37983" lon="-1.17761">
        <ele>3.7</ele>
        <time>2022-06-02T14:04:42Z</time>
      </trkpt>
      <trkpt lat="49.37983" lon="-1.17761">
        <ele>3.7</ele>
        <time>2022-06-02T14:04:43Z</time>
      </trkpt>
      <trkpt lat="49.37983" lon="-1.17761">
        <ele>3.7</ele>
        <time>2022-06-02T14:04:44Z</time>
      </trkpt>
      <trkpt lat="49.37983" lon="-1.17761">
        <ele>3.7</ele>
        <time>2022-06-02T14:04:45Z</time>
      </trkpt>
      <trkpt lat="49.37983" lon="-1.17761">
        <ele>3.7</ele>
        <time>2022-06-02T14:04:46Z</time>
      </trkpt>
      <trkpt lat="49.37983" lon="-1.17761">
        <ele>3.7</ele>
        <time>2022-06-02T14:04:47Z</time>
      </trkpt>
      <trkpt lat="49.37983" lon="-1.17761">
        <ele>3.7</ele>
        <time>2022-06-02T14:04:48Z</time>
      </trkpt>
      <trkpt lat="49.37983" lon="-1.17761">
        <ele>3.7</ele>
        <time>2022-06-02T14:04:49Z</time>
      </trkpt>
      <trkpt lat="49.37983" lon="-1.17761">
        <ele>3.7</ele>
        <time>2022-06-02T14:04:50Z</time>
      </trkpt>
      <trkpt lat="49.37983" lon="-1.17761">
        <ele>3.7</ele>
        <time>2022-06-02T14:04:51Z</time>
      </trkpt>
      <trkpt lat="49.37983" lon="-1.17761">
        <ele>3.7</ele>
        <time>2022-06-02T14:04:52Z</time>
      </trkpt>
      <trkpt lat="49.37983" lon="-1.17761">
        <ele>3.7</ele>
        <time>2022-06-02T14:04:53Z</time>
      </trkpt>
      <trkpt lat="49.37983" lon="-1.17761">
        <ele>3.7</ele>
        <time>2022-06-02T14:04:54Z</time>
      </trkpt>
      <trkpt lat="49.37983" lon="-1.17761">
        <ele>3.7</ele>
        <time>2022-06-02T14:04:55Z</time>
      </trkpt>
      <trkpt lat="49.37983" lon="-1.17761">
        <ele>3.7</ele>
        <time>2022-06-02T14:04:56Z</time>
      </trkpt>
      <trkpt lat="49.37983" lon="-1.17761">
        <ele>3.7</ele>
        <time>2022-06-02T14:04:57Z</time>
      </trkpt>
      <trkpt lat="49.37983" lon="-1.17761">
        <ele>3.7</ele>
        <time>2022-06-02T14:04:58Z</time>
      </trkpt>
      <trkpt lat="49.37983" lon="-1.17761">
        <ele>3.7</ele>
        <time>2022-06-02T14:04:59Z</time>
      </trkpt>
      <trkpt lat="49.37983" lon="-1.17761">
        <ele>3.7</ele>
        <time>2022-06-02T14:05:00Z</time>
      </trkpt>
      <trkpt lat="49.37983" lon="-1.17761">
        <ele>3.7</ele>
        <time>2022-06-02T14:05:01Z</time>
      </trkpt>
      <trkpt lat="49.37983" lon="-1.17761">
        <ele>3.7</ele>
        <time>2022-06-02T14:05:02Z</time>
      </trkpt>
      <trkpt lat="49.37983" lon="-1.17761">
        <ele>3.7</ele>
        <time>2022-06-02T14:05:03Z</time>
      </trkpt>
      <trkpt lat="49.37983" lon="-1.17761">
        <ele>3.7</ele>
        <time>2022-06-02T14:05:04Z</time>
      </trkpt>
      <trkpt lat="49.37983" lon="-1.17761">
        <ele>3.7</ele>
        <time>2022-06-02T14:05:05Z</time>
      </trkpt>
      <trkpt lat="49.37983" lon="-1.17761">
        <ele>3.7</ele>
        <time>2022-06-02T14:05:06Z</time>
      </trkpt>
      <trkpt lat="49.37983" lon="-1.17761">
        <ele>3.7</ele>
        <time>2022-06-02T14:05:07Z</time>
      </trkpt>
      <trkpt lat="49.37983" lon="-1.17761">
        <ele>3.7</ele>
        <time>2022-06-02T14:05:08Z</time>
      </trkpt>
      <trkpt lat="49.37983" lon="-1.17761">
        <ele>3.7</ele>
        <time>2022-06-02T14:05:09Z</time>
      </trkpt>
      <trkpt lat="49.37983" lon="-1.17761">
        <ele>3.7</ele>
        <time>2022-06-02T14:05:10Z</time>
      </trkpt>
      <trkpt lat="49.37983" lon="-1.17761">
        <ele>3.7</ele>
        <time>2022-06-02T14:05:11Z</time>
      </trkpt>
      <trkpt lat="49.37983" lon="-1.17761">
        <ele>3.7</ele>
        <time>2022-06-02T14:05:12Z</time>
      </trkpt>
      <trkpt lat="49.37983" lon="-1.17761">
        <ele>3.7</ele>
        <time>2022-06-02T14:05:13Z</time>
      </trkpt>
      <trkpt lat="49.37983" lon="-1.17761">
        <ele>3.7</ele>
        <time>2022-06-02T14:05:14Z</time>
      </trkpt>
      <trkpt lat="49.37983" lon="-1.17761">
        <ele>3.7</ele>
        <time>2022-06-02T14:05:15Z</time>
      </trkpt>
      <trkpt lat="49.37983" lon="-1.17761">
        <ele>3.7</ele>
        <time>2022-06-02T14:05:16Z</time>
      </trkpt>
      <trkpt lat="49.37983" lon="-1.17761">
        <ele>3.7</ele>
        <time>2022-06-02T14:05:17Z</time>
      </trkpt>
      <trkpt lat="49.37983" lon="-1.17761">
        <ele>3.7</ele>
        <time>2022-06-02T14:05:18Z</time>
      </trkpt>
      <trkpt lat="49.37983" lon="-1.17761">
        <ele>3.7</ele>
        <time>2022-06-02T14:05:19Z</time>
      </trkpt>
      <trkpt lat="49.37983" lon="-1.17761">
        <ele>3.7</ele>
        <time>2022-06-02T14:05:20Z</time>
      </trkpt>
      <trkpt lat="49.37983" lon="-1.17761">
        <ele>3.7</ele>
        <time>2022-06-02T14:05:21Z</time>
      </trkpt>
      <trkpt lat="49.37983" lon="-1.17761">
        <ele>3.7</ele>
        <time>2022-06-02T14:05:22Z</time>
      </trkpt>
      <trkpt lat="49.37983" lon="-1.17761">
        <ele>3.7</ele>
        <time>2022-06-02T14:05:23Z</time>
      </trkpt>
      <trkpt lat="49.37983" lon="-1.17761">
        <ele>3.7</ele>
        <time>2022-06-02T14:05:24Z</time>
      </trkpt>
      <trkpt lat="49.37983" lon="-1.17761">
        <ele>3.7</ele>
        <time>2022-06-02T14:05:25Z</time>
      </trkpt>
      <trkpt lat="49.37983" lon="-1.17761">
        <ele>3.7</ele>
        <time>2022-06-02T14:05:26Z</time>
      </trkpt>
      <trkpt lat="49.37983" lon="-1.17761">
        <ele>3.7</ele>
        <time>2022-06-02T14:05:27Z</time>
      </trkpt>
      <trkpt lat="49.37983" lon="-1.17761">
        <ele>3.7</ele>
        <time>2022-06-02T14:05:28Z</time>
      </trkpt>
      <trkpt lat="49.37983" lon="-1.17761">
        <ele>3.7</ele>
        <time>2022-06-02T14:05:29Z</time>
      </trkpt>
      <trkpt lat="49.37983" lon="-1.17761">
        <ele>3.7</ele>
        <time>2022-06-02T14:05:30Z</time>
      </trkpt>
      <trkpt lat="49.37983" lon="-1.17761">
        <ele>3.7</ele>
        <time>2022-06-02T14:05:31Z</time>
      </trkpt>
      <trkpt lat="49.37983" lon="-1.17761">
        <ele>3.7</ele>
        <time>2022-06-02T14:05:32Z</time>
      </trkpt>
      <trkpt lat="49.37983" lon="-1.17761">
        <ele>3.7</ele>
        <time>2022-06-02T14:05:33Z</time>
      </trkpt>
      <trkpt lat="49.37983" lon="-1.17761">
        <ele>3.7</ele>
        <time>2022-06-02T14:05:34Z</time>
      </trkpt>
      <trkpt lat="49.37983" lon="-1.17761">
        <ele>3.7</ele>
        <time>2022-06-02T14:05:35Z</time>
      </trkpt>
      <trkpt lat="49.37983" lon="-1.17761">
        <ele>3.7</ele>
        <time>2022-06-02T14:05:36Z</time>
      </trkpt>
      <trkpt lat="49.37983" lon="-1.17761">
        <ele>3.7</ele>
        <time>2022-06-02T14:05:37Z</time>
      </trkpt>
      <trkpt lat="49.37983" lon="-1.17761">
        <ele>3.7</ele>
        <time>2022-06-02T14:05:38Z</time>
      </trkpt>
      <trkpt lat="49.37983" lon="-1.17761">
        <ele>3.7</ele>
        <time>2022-06-02T14:05:39Z</time>
      </trkpt>
      <trkpt lat="49.37983" lon="-1.17761">
        <ele>3.7</ele>
        <time>2022-06-02T14:05:40Z</time>
      </trkpt>
      <trkpt lat="49.37983" lon="-1.17761">
        <ele>3.7</ele>
        <time>2022-06-02T14:05:41Z</time>
      </trkpt>
      <trkpt lat="49.37983" lon="-1.17761">
        <ele>3.7</ele>
        <time>2022-06-02T14:05:42Z</time>
      </trkpt>
      <trkpt lat="49.37983" lon="-1.17761">
        <ele>3.7</ele>
        <time>2022-06-02T14:05:43Z</time>
      </trkpt>
      <trkpt lat="49.37983" lon="-1.17761">
        <ele>3.7</ele>
        <time>2022-06-02T14:05:44Z</time>
      </trkpt>
      <trkpt lat="49.37983" lon="-1.17761">
        <ele>3.7</ele>
        <time>2022-06-02T14:05:45Z</time>
      </trkpt>
      <trkpt lat="49.37983" lon="-1.17761">
        <ele>3.7</ele>
        <time>2022-06-02T14:05:46Z</time>
      </trkpt>
      <trkpt lat="49.37983" lon="-1.17761">
        <ele>3.7</ele>
        <time>2022-06-02T14:05:47Z</time>
      </trkpt>
      <trkpt lat="49.37983" lon="-1.17761">
        <ele>3.7</ele>
        <time>2022-06-02T14:05:48Z</time>
      </trkpt>
      <trkpt lat="49.37983" lon="-1.17761">
        <ele>3.7</ele>
        <time>2022-06-02T14:05:49Z</time>
      </trkpt>
      <trkpt lat="49.37983" lon="-1.17761">
        <ele>3.7</ele>
        <time>2022-06-02T14:05:50Z</time>
      </trkpt>
      <trkpt lat="49.37984" lon="-1.17761">
        <ele>3.7</ele>
        <time>2022-06-02T14:05:51Z</time>
      </trkpt>
      <trkpt lat="49.37984" lon="-1.17761">
        <ele>3.7</ele>
        <time>2022-06-02T14:05:52Z</time>
      </trkpt>
      <trkpt lat="49.37984" lon="-1.17761">
        <ele>3.7</ele>
        <time>2022-06-02T14:05:53Z</time>
      </trkpt>
      <trkpt lat="49.37984" lon="-1.17762">
        <ele>3.7</ele>
        <time>2022-06-02T14:05:54Z</time>
      </trkpt>
      <trkpt lat="49.37983" lon="-1.17762">
        <ele>3.7</ele>
        <time>2022-06-02T14:05:55Z</time>
      </trkpt>
      <trkpt lat="49.37983" lon="-1.17764">
        <ele>3.7</ele>
        <time>2022-06-02T14:05:56Z</time>
      </trkpt>
      <trkpt lat="49.37983" lon="-1.17764">
        <ele>3.7</ele>
        <time>2022-06-02T14:05:57Z</time>
      </trkpt>
      <trkpt lat="49.37982" lon="-1.17765">
        <ele>3.7</ele>
        <time>2022-06-02T14:05:58Z</time>
      </trkpt>
      <trkpt lat="49.37981" lon="-1.17768">
        <ele>3.7</ele>
        <time>2022-06-02T14:06:00Z</time>
      </trkpt>
      <trkpt lat="49.3798" lon="-1.17769">
        <ele>3.7</ele>
        <time>2022-06-02T14:06:01Z</time>
      </trkpt>
      <trkpt lat="49.3798" lon="-1.1777">
        <ele>3.8</ele>
        <time>2022-06-02T14:06:02Z</time>
      </trkpt>
      <trkpt lat="49.37978" lon="-1.17773">
        <ele>3.8</ele>
        <time>2022-06-02T14:06:03Z</time>
      </trkpt>
      <trkpt lat="49.37977" lon="-1.17773">
        <ele>3.8</ele>
        <time>2022-06-02T14:06:04Z</time>
      </trkpt>
      <trkpt lat="49.37977" lon="-1.17774">
        <ele>3.8</ele>
        <time>2022-06-02T14:06:05Z</time>
      </trkpt>
      <trkpt lat="49.37976" lon="-1.17776">
        <ele>3.8</ele>
        <time>2022-06-02T14:06:06Z</time>
      </trkpt>
      <trkpt lat="49.37975" lon="-1.17777">
        <ele>3.8</ele>
        <time>2022-06-02T14:06:08Z</time>
      </trkpt>
      <trkpt lat="49.37974" lon="-1.17777">
        <ele>3.8</ele>
        <time>2022-06-02T14:06:09Z</time>
      </trkpt>
      <trkpt lat="49.37973" lon="-1.17777">
        <ele>3.8</ele>
        <time>2022-06-02T14:06:10Z</time>
      </trkpt>
      <trkpt lat="49.37974" lon="-1.17777">
        <ele>3.8</ele>
        <time>2022-06-02T14:06:11Z</time>
      </trkpt>
      <trkpt lat="49.37974" lon="-1.17778">
        <ele>3.8</ele>
        <time>2022-06-02T14:06:13Z</time>
      </trkpt>
      <trkpt lat="49.37973" lon="-1.1778">
        <ele>3.8</ele>
        <time>2022-06-02T14:06:14Z</time>
      </trkpt>
      <trkpt lat="49.37973" lon="-1.17781">
        <ele>3.8</ele>
        <time>2022-06-02T14:06:15Z</time>
      </trkpt>
      <trkpt lat="49.37973" lon="-1.17782">
        <ele>3.8</ele>
        <time>2022-06-02T14:06:16Z</time>
      </trkpt>
      <trkpt lat="49.37973" lon="-1.17782">
        <ele>3.8</ele>
        <time>2022-06-02T14:06:17Z</time>
      </trkpt>
      <trkpt lat="49.37973" lon="-1.17783">
        <ele>3.8</ele>
        <time>2022-06-02T14:06:18Z</time>
      </trkpt>
      <trkpt lat="49.37972" lon="-1.17784">
        <ele>3.9</ele>
        <time>2022-06-02T14:06:19Z</time>
      </trkpt>
      <trkpt lat="49.37972" lon="-1.17784">
        <ele>3.9</ele>
        <time>2022-06-02T14:06:20Z</time>
      </trkpt>
      <trkpt lat="49.37971" lon="-1.17783">
        <ele>3.9</ele>
        <time>2022-06-02T14:06:21Z</time>
      </trkpt>
      <trkpt lat="49.3797" lon="-1.17782">
        <ele>3.9</ele>
        <time>2022-06-02T14:06:22Z</time>
      </trkpt>
      <trkpt lat="49.37969" lon="-1.17781">
        <ele>3.9</ele>
        <time>2022-06-02T14:06:23Z</time>
      </trkpt>
      <trkpt lat="49.37968" lon="-1.17781">
        <ele>3.9</ele>
        <time>2022-06-02T14:06:25Z</time>
      </trkpt>
      <trkpt lat="49.37967" lon="-1.17781">
        <ele>3.9</ele>
        <time>2022-06-02T14:06:26Z</time>
      </trkpt>
      <trkpt lat="49.37966" lon="-1.17781">
        <ele>3.9</ele>
        <time>2022-06-02T14:06:27Z</time>
      </trkpt>
      <trkpt lat="49.37964" lon="-1.17782">
        <ele>3.9</ele>
        <time>2022-06-02T14:06:28Z</time>
      </trkpt>
      <trkpt lat="49.37962" lon="-1.17783">
        <ele>3.9</ele>
        <time>2022-06-02T14:06:29Z</time>
      </trkpt>
      <trkpt lat="49.37961" lon="-1.17784">
        <ele>3.9</ele>
        <time>2022-06-02T14:06:30Z</time>
      </trkpt>
      <trkpt lat="49.37961" lon="-1.17785">
        <ele>3.9</ele>
        <time>2022-06-02T14:06:31Z</time>
      </trkpt>
      <trkpt lat="49.3796" lon="-1.17785">
        <ele>3.9</ele>
        <time>2022-06-02T14:06:32Z</time>
      </trkpt>
      <trkpt lat="49.37958" lon="-1.17786">
        <ele>3.9</ele>
        <time>2022-06-02T14:06:33Z</time>
      </trkpt>
      <trkpt lat="49.37957" lon="-1.17787">
        <ele>3.9</ele>
        <time>2022-06-02T14:06:35Z</time>
      </trkpt>
      <trkpt lat="49.37955" lon="-1.17788">
        <ele>3.9</ele>
        <time>2022-06-02T14:06:36Z</time>
      </trkpt>
      <trkpt lat="49.37954" lon="-1.17789">
        <ele>3.9</ele>
        <time>2022-06-02T14:06:37Z</time>
      </trkpt>
      <trkpt lat="49.37953" lon="-1.1779">
        <ele>3.9</ele>
        <time>2022-06-02T14:06:38Z</time>
      </trkpt>
      <trkpt lat="49.37951" lon="-1.17791">
        <ele>3.8</ele>
        <time>2022-06-02T14:06:39Z</time>
      </trkpt>
      <trkpt lat="49.3795" lon="-1.17793">
        <ele>3.8</ele>
        <time>2022-06-02T14:06:40Z</time>
      </trkpt>
      <trkpt lat="49.37948" lon="-1.17794">
        <ele>3.8</ele>
        <time>2022-06-02T14:06:41Z</time>
      </trkpt>
      <trkpt lat="49.37947" lon="-1.17794">
        <ele>3.8</ele>
        <time>2022-06-02T14:06:42Z</time>
      </trkpt>
      <trkpt lat="49.37945" lon="-1.17796">
        <ele>3.8</ele>
        <time>2022-06-02T14:06:44Z</time>
      </trkpt>
      <trkpt lat="49.37945" lon="-1.17797">
        <ele>3.8</ele>
        <time>2022-06-02T14:06:45Z</time>
      </trkpt>
      <trkpt lat="49.37946" lon="-1.17798">
        <ele>3.8</ele>
        <time>2022-06-02T14:06:46Z</time>
      </trkpt>
      <trkpt lat="49.37947" lon="-1.17799">
        <ele>3.8</ele>
        <time>2022-06-02T14:06:47Z</time>
      </trkpt>
      <trkpt lat="49.37947" lon="-1.17799">
        <ele>3.8</ele>
        <time>2022-06-02T14:06:48Z</time>
      </trkpt>
      <trkpt lat="49.37947" lon="-1.17799">
        <ele>3.8</ele>
        <time>2022-06-02T14:06:50Z</time>
      </trkpt>
      <trkpt lat="49.37947" lon="-1.17799">
        <ele>3.8</ele>
        <time>2022-06-02T14:06:51Z</time>
      </trkpt>
      <trkpt lat="49.37947" lon="-1.17798">
        <ele>3.8</ele>
        <time>2022-06-02T14:06:52Z</time>
      </trkpt>
      <trkpt lat="49.37947" lon="-1.17799">
        <ele>3.8</ele>
        <time>2022-06-02T14:06:53Z</time>
      </trkpt>
      <trkpt lat="49.37947" lon="-1.17799">
        <ele>3.8</ele>
        <time>2022-06-02T14:06:54Z</time>
      </trkpt>
      <trkpt lat="49.37946" lon="-1.178">
        <ele>3.8</ele>
        <time>2022-06-02T14:06:56Z</time>
      </trkpt>
      <trkpt lat="49.37945" lon="-1.17801">
        <ele>3.7</ele>
        <time>2022-06-02T14:06:57Z</time>
      </trkpt>
      <trkpt lat="49.37944" lon="-1.17802">
        <ele>3.7</ele>
        <time>2022-06-02T14:06:58Z</time>
      </trkpt>
      <trkpt lat="49.37943" lon="-1.17803">
        <ele>3.7</ele>
        <time>2022-06-02T14:06:59Z</time>
      </trkpt>
      <trkpt lat="49.37941" lon="-1.17804">
        <ele>3.7</ele>
        <time>2022-06-02T14:07:00Z</time>
      </trkpt>
      <trkpt lat="49.3794" lon="-1.17805">
        <ele>3.7</ele>
        <time>2022-06-02T14:07:02Z</time>
      </trkpt>
      <trkpt lat="49.37938" lon="-1.17807">
        <ele>3.7</ele>
        <time>2022-06-02T14:07:03Z</time>
      </trkpt>
      <trkpt lat="49.37937" lon="-1.17808">
        <ele>3.7</ele>
        <time>2022-06-02T14:07:04Z</time>
      </trkpt>
      <trkpt lat="49.37936" lon="-1.17809">
        <ele>3.7</ele>
        <time>2022-06-02T14:07:05Z</time>
      </trkpt>
      <trkpt lat="49.37934" lon="-1.1781">
        <ele>3.7</ele>
        <time>2022-06-02T14:07:06Z</time>
      </trkpt>
      <trkpt lat="49.37933" lon="-1.17811">
        <ele>3.7</ele>
        <time>2022-06-02T14:07:07Z</time>
      </trkpt>
      <trkpt lat="49.37931" lon="-1.17812">
        <ele>3.7</ele>
        <time>2022-06-02T14:07:09Z</time>
      </trkpt>
      <trkpt lat="49.3793" lon="-1.17813">
        <ele>3.7</ele>
        <time>2022-06-02T14:07:10Z</time>
      </trkpt>
      <trkpt lat="49.37929" lon="-1.17814">
        <ele>3.7</ele>
        <time>2022-06-02T14:07:11Z</time>
      </trkpt>
      <trkpt lat="49.37927" lon="-1.17815">
        <ele>3.7</ele>
        <time>2022-06-02T14:07:12Z</time>
      </trkpt>
      <trkpt lat="49.37926" lon="-1.17816">
        <ele>3.7</ele>
        <time>2022-06-02T14:07:13Z</time>
      </trkpt>
      <trkpt lat="49.37925" lon="-1.17817">
        <ele>3.7</ele>
        <time>2022-06-02T14:07:14Z</time>
      </trkpt>
      <trkpt lat="49.37922" lon="-1.17819">
        <ele>3.7</ele>
        <time>2022-06-02T14:07:15Z</time>
      </trkpt>
      <trkpt lat="49.37921" lon="-1.17819">
        <ele>3.7</ele>
        <time>2022-06-02T14:07:17Z</time>
      </trkpt>
      <trkpt lat="49.3792" lon="-1.1782">
        <ele>3.7</ele>
        <time>2022-06-02T14:07:18Z</time>
      </trkpt>
      <trkpt lat="49.37918" lon="-1.17821">
        <ele>3.7</ele>
        <time>2022-06-02T14:07:19Z</time>
      </trkpt>
      <trkpt lat="49.37917" lon="-1.17821">
        <ele>3.7</ele>
        <time>2022-06-02T14:07:20Z</time>
      </trkpt>
      <trkpt lat="49.37916" lon="-1.17822">
        <ele>3.7</ele>
        <time>2022-06-02T14:07:21Z</time>
      </trkpt>
      <trkpt lat="49.37914" lon="-1.17823">
        <ele>3.7</ele>
        <time>2022-06-02T14:07:22Z</time>
      </trkpt>
      <trkpt lat="49.37913" lon="-1.17824">
        <ele>3.7</ele>
        <time>2022-06-02T14:07:23Z</time>
      </trkpt>
      <trkpt lat="49.37912" lon="-1.17824">
        <ele>3.7</ele>
        <time>2022-06-02T14:07:25Z</time>
      </trkpt>
      <trkpt lat="49.3791" lon="-1.17825">
        <ele>3.7</ele>
        <time>2022-06-02T14:07:26Z</time>
      </trkpt>
      <trkpt lat="49.37909" lon="-1.17825">
        <ele>3.7</ele>
        <time>2022-06-02T14:07:27Z</time>
      </trkpt>
      <trkpt lat="49.37907" lon="-1.17827">
        <ele>3.7</ele>
        <time>2022-06-02T14:07:28Z</time>
      </trkpt>
      <trkpt lat="49.37906" lon="-1.17827">
        <ele>3.7</ele>
        <time>2022-06-02T14:07:29Z</time>
      </trkpt>
      <trkpt lat="49.37905" lon="-1.17828">
        <ele>3.7</ele>
        <time>2022-06-02T14:07:30Z</time>
      </trkpt>
      <trkpt lat="49.37905" lon="-1.17829">
        <ele>3.7</ele>
        <time>2022-06-02T14:07:31Z</time>
      </trkpt>
      <trkpt lat="49.37903" lon="-1.17829">
        <ele>3.7</ele>
        <time>2022-06-02T14:07:32Z</time>
      </trkpt>
      <trkpt lat="49.37902" lon="-1.1783">
        <ele>3.7</ele>
        <time>2022-06-02T14:07:33Z</time>
      </trkpt>
      <trkpt lat="49.37901" lon="-1.17831">
        <ele>3.7</ele>
        <time>2022-06-02T14:07:35Z</time>
      </trkpt>
      <trkpt lat="49.37899" lon="-1.17832">
        <ele>3.7</ele>
        <time>2022-06-02T14:07:36Z</time>
      </trkpt>
      <trkpt lat="49.37898" lon="-1.17833">
        <ele>3.7</ele>
        <time>2022-06-02T14:07:37Z</time>
      </trkpt>
      <trkpt lat="49.37897" lon="-1.17833">
        <ele>3.7</ele>
        <time>2022-06-02T14:07:38Z</time>
      </trkpt>
      <trkpt lat="49.37896" lon="-1.17834">
        <ele>3.7</ele>
        <time>2022-06-02T14:07:39Z</time>
      </trkpt>
      <trkpt lat="49.37894" lon="-1.17835">
        <ele>3.7</ele>
        <time>2022-06-02T14:07:40Z</time>
      </trkpt>
      <trkpt lat="49.37893" lon="-1.17836">
        <ele>3.7</ele>
        <time>2022-06-02T14:07:41Z</time>
      </trkpt>
      <trkpt lat="49.37892" lon="-1.17836">
        <ele>3.7</ele>
        <time>2022-06-02T14:07:42Z</time>
      </trkpt>
      <trkpt lat="49.37891" lon="-1.17837">
        <ele>3.7</ele>
        <time>2022-06-02T14:07:43Z</time>
      </trkpt>
      <trkpt lat="49.37889" lon="-1.17838">
        <ele>3.8</ele>
        <time>2022-06-02T14:07:45Z</time>
      </trkpt>
      <trkpt lat="49.37888" lon="-1.17839">
        <ele>3.8</ele>
        <time>2022-06-02T14:07:46Z</time>
      </trkpt>
      <trkpt lat="49.37887" lon="-1.17841">
        <ele>3.8</ele>
        <time>2022-06-02T14:07:48Z</time>
      </trkpt>
      <trkpt lat="49.37886" lon="-1.17842">
        <ele>3.8</ele>
        <time>2022-06-02T14:07:49Z</time>
      </trkpt>
      <trkpt lat="49.37884" lon="-1.17844">
        <ele>3.8</ele>
        <time>2022-06-02T14:07:50Z</time>
      </trkpt>
      <trkpt lat="49.37883" lon="-1.17845">
        <ele>3.8</ele>
        <time>2022-06-02T14:07:51Z</time>
      </trkpt>
      <trkpt lat="49.37883" lon="-1.17845">
        <ele>3.8</ele>
        <time>2022-06-02T14:07:52Z</time>
      </trkpt>
      <trkpt lat="49.37881" lon="-1.17848">
        <ele>3.8</ele>
        <time>2022-06-02T14:07:53Z</time>
      </trkpt>
      <trkpt lat="49.37881" lon="-1.17849">
        <ele>3.8</ele>
        <time>2022-06-02T14:07:54Z</time>
      </trkpt>
      <trkpt lat="49.3788" lon="-1.1785">
        <ele>3.8</ele>
        <time>2022-06-02T14:07:55Z</time>
      </trkpt>
      <trkpt lat="49.37879" lon="-1.17851">
        <ele>3.8</ele>
        <time>2022-06-02T14:07:57Z</time>
      </trkpt>
      <trkpt lat="49.37878" lon="-1.17852">
        <ele>3.8</ele>
        <time>2022-06-02T14:07:58Z</time>
      </trkpt>
      <trkpt lat="49.37878" lon="-1.17854">
        <ele>3.8</ele>
        <time>2022-06-02T14:07:59Z</time>
      </trkpt>
      <trkpt lat="49.37876" lon="-1.17856">
        <ele>3.8</ele>
        <time>2022-06-02T14:08:00Z</time>
      </trkpt>
      <trkpt lat="49.37876" lon="-1.17857">
        <ele>3.8</ele>
        <time>2022-06-02T14:08:01Z</time>
      </trkpt>
      <trkpt lat="49.37875" lon="-1.17857">
        <ele>3.8</ele>
        <time>2022-06-02T14:08:02Z</time>
      </trkpt>
      <trkpt lat="49.37874" lon="-1.17859">
        <ele>3.8</ele>
        <time>2022-06-02T14:08:03Z</time>
      </trkpt>
      <trkpt lat="49.37873" lon="-1.1786">
        <ele>3.8</ele>
        <time>2022-06-02T14:08:04Z</time>
      </trkpt>
      <trkpt lat="49.37873" lon="-1.17861">
        <ele>3.8</ele>
        <time>2022-06-02T14:08:05Z</time>
      </trkpt>
      <trkpt lat="49.37872" lon="-1.17863">
        <ele>3.9</ele>
        <time>2022-06-02T14:08:06Z</time>
      </trkpt>
      <trkpt lat="49.37871" lon="-1.17864">
        <ele>3.9</ele>
        <time>2022-06-02T14:08:07Z</time>
      </trkpt>
      <trkpt lat="49.3787" lon="-1.17865">
        <ele>3.9</ele>
        <time>2022-06-02T14:08:09Z</time>
      </trkpt>
      <trkpt lat="49.37869" lon="-1.17866">
        <ele>3.9</ele>
        <time>2022-06-02T14:08:10Z</time>
      </trkpt>
      <trkpt lat="49.37869" lon="-1.17867">
        <ele>3.9</ele>
        <time>2022-06-02T14:08:11Z</time>
      </trkpt>
      <trkpt lat="49.37868" lon="-1.17868">
        <ele>3.9</ele>
        <time>2022-06-02T14:08:12Z</time>
      </trkpt>
      <trkpt lat="49.37867" lon="-1.17869">
        <ele>3.9</ele>
        <time>2022-06-02T14:08:13Z</time>
      </trkpt>
      <trkpt lat="49.37866" lon="-1.17869">
        <ele>3.9</ele>
        <time>2022-06-02T14:08:14Z</time>
      </trkpt>
      <trkpt lat="49.37865" lon="-1.17869">
        <ele>3.9</ele>
        <time>2022-06-02T14:08:15Z</time>
      </trkpt>
      <trkpt lat="49.37865" lon="-1.17869">
        <ele>3.9</ele>
        <time>2022-06-02T14:08:16Z</time>
      </trkpt>
      <trkpt lat="49.37864" lon="-1.17869">
        <ele>3.9</ele>
        <time>2022-06-02T14:08:17Z</time>
      </trkpt>
      <trkpt lat="49.37864" lon="-1.1787">
        <ele>3.9</ele>
        <time>2022-06-02T14:08:18Z</time>
      </trkpt>
      <trkpt lat="49.37864" lon="-1.1787">
        <ele>3.9</ele>
        <time>2022-06-02T14:08:19Z</time>
      </trkpt>
      <trkpt lat="49.37864" lon="-1.1787">
        <ele>3.9</ele>
        <time>2022-06-02T14:08:21Z</time>
      </trkpt>
      <trkpt lat="49.37864" lon="-1.1787">
        <ele>3.9</ele>
        <time>2022-06-02T14:08:22Z</time>
      </trkpt>
      <trkpt lat="49.37864" lon="-1.17871">
        <ele>3.9</ele>
        <time>2022-06-02T14:08:23Z</time>
      </trkpt>
      <trkpt lat="49.37864" lon="-1.17871">
        <ele>3.9</ele>
        <time>2022-06-02T14:08:24Z</time>
      </trkpt>
      <trkpt lat="49.37864" lon="-1.17871">
        <ele>3.9</ele>
        <time>2022-06-02T14:08:25Z</time>
      </trkpt>
      <trkpt lat="49.37863" lon="-1.17871">
        <ele>3.9</ele>
        <time>2022-06-02T14:08:26Z</time>
      </trkpt>
      <trkpt lat="49.37863" lon="-1.17871">
        <ele>3.9</ele>
        <time>2022-06-02T14:08:27Z</time>
      </trkpt>
      <trkpt lat="49.37863" lon="-1.17872">
        <ele>3.9</ele>
        <time>2022-06-02T14:08:28Z</time>
      </trkpt>
      <trkpt lat="49.37863" lon="-1.17872">
        <ele>3.9</ele>
        <time>2022-06-02T14:08:29Z</time>
      </trkpt>
      <trkpt lat="49.37863" lon="-1.17872">
        <ele>3.9</ele>
        <time>2022-06-02T14:08:30Z</time>
      </trkpt>
      <trkpt lat="49.37863" lon="-1.17872">
        <ele>3.9</ele>
        <time>2022-06-02T14:08:31Z</time>
      </trkpt>
      <trkpt lat="49.37863" lon="-1.17873">
        <ele>3.9</ele>
        <time>2022-06-02T14:08:33Z</time>
      </trkpt>
      <trkpt lat="49.37863" lon="-1.17873">
        <ele>3.9</ele>
        <time>2022-06-02T14:08:34Z</time>
      </trkpt>
      <trkpt lat="49.37863" lon="-1.17873">
        <ele>3.9</ele>
        <time>2022-06-02T14:08:35Z</time>
      </trkpt>
      <trkpt lat="49.37863" lon="-1.17873">
        <ele>3.9</ele>
        <time>2022-06-02T14:08:36Z</time>
      </trkpt>
      <trkpt lat="49.37863" lon="-1.17874">
        <ele>3.9</ele>
        <time>2022-06-02T14:08:37Z</time>
      </trkpt>
      <trkpt lat="49.37863" lon="-1.17874">
        <ele>3.9</ele>
        <time>2022-06-02T14:08:39Z</time>
      </trkpt>
      <trkpt lat="49.37863" lon="-1.17874">
        <ele>3.9</ele>
        <time>2022-06-02T14:08:40Z</time>
      </trkpt>
      <trkpt lat="49.37862" lon="-1.17874">
        <ele>3.9</ele>
        <time>2022-06-02T14:08:41Z</time>
      </trkpt>
      <trkpt lat="49.37862" lon="-1.17874">
        <ele>3.9</ele>
        <time>2022-06-02T14:08:42Z</time>
      </trkpt>
      <trkpt lat="49.37861" lon="-1.17877">
        <ele>3.9</ele>
        <time>2022-06-02T14:08:43Z</time>
      </trkpt>
      <trkpt lat="49.37861" lon="-1.17878">
        <ele>3.9</ele>
        <time>2022-06-02T14:08:44Z</time>
      </trkpt>
      <trkpt lat="49.3786" lon="-1.17879">
        <ele>3.9</ele>
        <time>2022-06-02T14:08:45Z</time>
      </trkpt>
      <trkpt lat="49.37858" lon="-1.17883">
        <ele>3.9</ele>
        <time>2022-06-02T14:08:46Z</time>
      </trkpt>
      <trkpt lat="49.37858" lon="-1.17884">
        <ele>3.9</ele>
        <time>2022-06-02T14:08:47Z</time>
      </trkpt>
      <trkpt lat="49.37857" lon="-1.17887">
        <ele>3.9</ele>
        <time>2022-06-02T14:08:48Z</time>
      </trkpt>
      <trkpt lat="49.37856" lon="-1.17889">
        <ele>3.9</ele>
        <time>2022-06-02T14:08:49Z</time>
      </trkpt>
      <trkpt lat="49.37855" lon="-1.17892">
        <ele>4</ele>
        <time>2022-06-02T14:08:50Z</time>
      </trkpt>
      <trkpt lat="49.37854" lon="-1.17894">
        <ele>4</ele>
        <time>2022-06-02T14:08:52Z</time>
      </trkpt>
      <trkpt lat="49.37853" lon="-1.17897">
        <ele>4</ele>
        <time>2022-06-02T14:08:53Z</time>
      </trkpt>
      <trkpt lat="49.37852" lon="-1.17898">
        <ele>4</ele>
        <time>2022-06-02T14:08:54Z</time>
      </trkpt>
      <trkpt lat="49.37852" lon="-1.17899">
        <ele>4</ele>
        <time>2022-06-02T14:08:55Z</time>
      </trkpt>
      <trkpt lat="49.37851" lon="-1.179">
        <ele>4</ele>
        <time>2022-06-02T14:08:56Z</time>
      </trkpt>
      <trkpt lat="49.3785" lon="-1.17902">
        <ele>4</ele>
        <time>2022-06-02T14:08:57Z</time>
      </trkpt>
      <trkpt lat="49.37849" lon="-1.17904">
        <ele>4</ele>
        <time>2022-06-02T14:08:59Z</time>
      </trkpt>
      <trkpt lat="49.37848" lon="-1.17905">
        <ele>4</ele>
        <time>2022-06-02T14:09:00Z</time>
      </trkpt>
      <trkpt lat="49.37847" lon="-1.17906">
        <ele>4</ele>
        <time>2022-06-02T14:09:01Z</time>
      </trkpt>
      <trkpt lat="49.37846" lon="-1.17907">
        <ele>4</ele>
        <time>2022-06-02T14:09:02Z</time>
      </trkpt>
      <trkpt lat="49.37846" lon="-1.17908">
        <ele>4</ele>
        <time>2022-06-02T14:09:03Z</time>
      </trkpt>
      <trkpt lat="49.37845" lon="-1.17908">
        <ele>4</ele>
        <time>2022-06-02T14:09:04Z</time>
      </trkpt>
      <trkpt lat="49.37845" lon="-1.17908">
        <ele>4</ele>
        <time>2022-06-02T14:09:05Z</time>
      </trkpt>
      <trkpt lat="49.37844" lon="-1.1791">
        <ele>4</ele>
        <time>2022-06-02T14:09:06Z</time>
      </trkpt>
      <trkpt lat="49.37843" lon="-1.17911">
        <ele>4</ele>
        <time>2022-06-02T14:09:08Z</time>
      </trkpt>
      <trkpt lat="49.37841" lon="-1.17912">
        <ele>4</ele>
        <time>2022-06-02T14:09:09Z</time>
      </trkpt>
      <trkpt lat="49.3784" lon="-1.17914">
        <ele>4</ele>
        <time>2022-06-02T14:09:10Z</time>
      </trkpt>
      <trkpt lat="49.37839" lon="-1.17916">
        <ele>4</ele>
        <time>2022-06-02T14:09:11Z</time>
      </trkpt>
      <trkpt lat="49.37838" lon="-1.17918">
        <ele>4</ele>
        <time>2022-06-02T14:09:12Z</time>
      </trkpt>
      <trkpt lat="49.37837" lon="-1.17919">
        <ele>4</ele>
        <time>2022-06-02T14:09:13Z</time>
      </trkpt>
      <trkpt lat="49.37835" lon="-1.17921">
        <ele>4</ele>
        <time>2022-06-02T14:09:14Z</time>
      </trkpt>
      <trkpt lat="49.37834" lon="-1.17923">
        <ele>4</ele>
        <time>2022-06-02T14:09:15Z</time>
      </trkpt>
      <trkpt lat="49.37833" lon="-1.17925">
        <ele>4</ele>
        <time>2022-06-02T14:09:16Z</time>
      </trkpt>
      <trkpt lat="49.37832" lon="-1.17927">
        <ele>4</ele>
        <time>2022-06-02T14:09:17Z</time>
      </trkpt>
      <trkpt lat="49.37831" lon="-1.17929">
        <ele>4</ele>
        <time>2022-06-02T14:09:18Z</time>
      </trkpt>
      <trkpt lat="49.3783" lon="-1.17931">
        <ele>4</ele>
        <time>2022-06-02T14:09:19Z</time>
      </trkpt>
      <trkpt lat="49.37829" lon="-1.17933">
        <ele>4</ele>
        <time>2022-06-02T14:09:21Z</time>
      </trkpt>
      <trkpt lat="49.37828" lon="-1.17935">
        <ele>4</ele>
        <time>2022-06-02T14:09:22Z</time>
      </trkpt>
      <trkpt lat="49.37827" lon="-1.17937">
        <ele>4</ele>
        <time>2022-06-02T14:09:23Z</time>
      </trkpt>
      <trkpt lat="49.37826" lon="-1.17938">
        <ele>4</ele>
        <time>2022-06-02T14:09:24Z</time>
      </trkpt>
      <trkpt lat="49.37824" lon="-1.17941">
        <ele>3.9</ele>
        <time>2022-06-02T14:09:25Z</time>
      </trkpt>
      <trkpt lat="49.37823" lon="-1.17944">
        <ele>3.9</ele>
        <time>2022-06-02T14:09:26Z</time>
      </trkpt>
      <trkpt lat="49.37822" lon="-1.17945">
        <ele>3.9</ele>
        <time>2022-06-02T14:09:27Z</time>
      </trkpt>
      <trkpt lat="49.37821" lon="-1.17946">
        <ele>3.9</ele>
        <time>2022-06-02T14:09:28Z</time>
      </trkpt>
      <trkpt lat="49.3782" lon="-1.17948">
        <ele>3.9</ele>
        <time>2022-06-02T14:09:29Z</time>
      </trkpt>
      <trkpt lat="49.37819" lon="-1.17949">
        <ele>3.9</ele>
        <time>2022-06-02T14:09:30Z</time>
      </trkpt>
      <trkpt lat="49.37818" lon="-1.17952">
        <ele>3.9</ele>
        <time>2022-06-02T14:09:31Z</time>
      </trkpt>
      <trkpt lat="49.37817" lon="-1.17954">
        <ele>3.9</ele>
        <time>2022-06-02T14:09:33Z</time>
      </trkpt>
      <trkpt lat="49.37816" lon="-1.17955">
        <ele>3.9</ele>
        <time>2022-06-02T14:09:34Z</time>
      </trkpt>
      <trkpt lat="49.37815" lon="-1.17956">
        <ele>3.9</ele>
        <time>2022-06-02T14:09:35Z</time>
      </trkpt>
      <trkpt lat="49.37814" lon="-1.17958">
        <ele>3.9</ele>
        <time>2022-06-02T14:09:36Z</time>
      </trkpt>
      <trkpt lat="49.37811" lon="-1.17962">
        <ele>3.9</ele>
        <time>2022-06-02T14:09:38Z</time>
      </trkpt>
      <trkpt lat="49.37811" lon="-1.17963">
        <ele>3.9</ele>
        <time>2022-06-02T14:09:39Z</time>
      </trkpt>
      <trkpt lat="49.3781" lon="-1.17964">
        <ele>3.9</ele>
        <time>2022-06-02T14:09:40Z</time>
      </trkpt>
      <trkpt lat="49.37809" lon="-1.17965">
        <ele>3.9</ele>
        <time>2022-06-02T14:09:41Z</time>
      </trkpt>
      <trkpt lat="49.37808" lon="-1.17967">
        <ele>3.9</ele>
        <time>2022-06-02T14:09:42Z</time>
      </trkpt>
      <trkpt lat="49.37807" lon="-1.17968">
        <ele>3.9</ele>
        <time>2022-06-02T14:09:43Z</time>
      </trkpt>
      <trkpt lat="49.37806" lon="-1.17969">
        <ele>3.9</ele>
        <time>2022-06-02T14:09:44Z</time>
      </trkpt>
      <trkpt lat="49.37805" lon="-1.1797">
        <ele>3.9</ele>
        <time>2022-06-02T14:09:46Z</time>
      </trkpt>
      <trkpt lat="49.37804" lon="-1.17971">
        <ele>3.9</ele>
        <time>2022-06-02T14:09:47Z</time>
      </trkpt>
      <trkpt lat="49.37802" lon="-1.17974">
        <ele>3.8</ele>
        <time>2022-06-02T14:09:48Z</time>
      </trkpt>
      <trkpt lat="49.37802" lon="-1.17975">
        <ele>3.8</ele>
        <time>2022-06-02T14:09:49Z</time>
      </trkpt>
      <trkpt lat="49.378" lon="-1.17977">
        <ele>3.8</ele>
        <time>2022-06-02T14:09:50Z</time>
      </trkpt>
      <trkpt lat="49.378" lon="-1.17978">
        <ele>3.8</ele>
        <time>2022-06-02T14:09:51Z</time>
      </trkpt>
      <trkpt lat="49.37799" lon="-1.17979">
        <ele>3.8</ele>
        <time>2022-06-02T14:09:52Z</time>
      </trkpt>
      <trkpt lat="49.37798" lon="-1.17981">
        <ele>3.8</ele>
        <time>2022-06-02T14:09:53Z</time>
      </trkpt>
      <trkpt lat="49.37797" lon="-1.17982">
        <ele>3.8</ele>
        <time>2022-06-02T14:09:54Z</time>
      </trkpt>
      <trkpt lat="49.37796" lon="-1.17983">
        <ele>3.8</ele>
        <time>2022-06-02T14:09:55Z</time>
      </trkpt>
      <trkpt lat="49.37795" lon="-1.17985">
        <ele>3.8</ele>
        <time>2022-06-02T14:09:56Z</time>
      </trkpt>
      <trkpt lat="49.37793" lon="-1.17988">
        <ele>3.8</ele>
        <time>2022-06-02T14:09:58Z</time>
      </trkpt>
      <trkpt lat="49.37793" lon="-1.17989">
        <ele>3.8</ele>
        <time>2022-06-02T14:09:59Z</time>
      </trkpt>
      <trkpt lat="49.37792" lon="-1.1799">
        <ele>3.8</ele>
        <time>2022-06-02T14:10:00Z</time>
      </trkpt>
      <trkpt lat="49.37791" lon="-1.17992">
        <ele>3.8</ele>
        <time>2022-06-02T14:10:01Z</time>
      </trkpt>
      <trkpt lat="49.3779" lon="-1.17993">
        <ele>3.8</ele>
        <time>2022-06-02T14:10:02Z</time>
      </trkpt>
      <trkpt lat="49.37788" lon="-1.17996">
        <ele>3.8</ele>
        <time>2022-06-02T14:10:03Z</time>
      </trkpt>
      <trkpt lat="49.37787" lon="-1.17998">
        <ele>3.8</ele>
        <time>2022-06-02T14:10:05Z</time>
      </trkpt>
      <trkpt lat="49.37786" lon="-1.17999">
        <ele>3.8</ele>
        <time>2022-06-02T14:10:06Z</time>
      </trkpt>
      <trkpt lat="49.37786" lon="-1.18">
        <ele>3.8</ele>
        <time>2022-06-02T14:10:07Z</time>
      </trkpt>
      <trkpt lat="49.37784" lon="-1.18001">
        <ele>3.9</ele>
        <time>2022-06-02T14:10:08Z</time>
      </trkpt>
      <trkpt lat="49.37783" lon="-1.18002">
        <ele>3.9</ele>
        <time>2022-06-02T14:10:09Z</time>
      </trkpt>
      <trkpt lat="49.37783" lon="-1.18003">
        <ele>3.9</ele>
        <time>2022-06-02T14:10:10Z</time>
      </trkpt>
      <trkpt lat="49.37782" lon="-1.18004">
        <ele>3.9</ele>
        <time>2022-06-02T14:10:11Z</time>
      </trkpt>
      <trkpt lat="49.3778" lon="-1.18003">
        <ele>3.9</ele>
        <time>2022-06-02T14:10:13Z</time>
      </trkpt>
      <trkpt lat="49.37779" lon="-1.18002">
        <ele>3.9</ele>
        <time>2022-06-02T14:10:14Z</time>
      </trkpt>
      <trkpt lat="49.37779" lon="-1.18001">
        <ele>3.9</ele>
        <time>2022-06-02T14:10:15Z</time>
      </trkpt>
      <trkpt lat="49.37778" lon="-1.17999">
        <ele>3.9</ele>
        <time>2022-06-02T14:10:16Z</time>
      </trkpt>
      <trkpt lat="49.37778" lon="-1.17997">
        <ele>3.9</ele>
        <time>2022-06-02T14:10:17Z</time>
      </trkpt>
      <trkpt lat="49.37777" lon="-1.17994">
        <ele>3.9</ele>
        <time>2022-06-02T14:10:19Z</time>
      </trkpt>
      <trkpt lat="49.37777" lon="-1.17993">
        <ele>3.9</ele>
        <time>2022-06-02T14:10:20Z</time>
      </trkpt>
      <trkpt lat="49.37777" lon="-1.17991">
        <ele>3.9</ele>
        <time>2022-06-02T14:10:21Z</time>
      </trkpt>
      <trkpt lat="49.37777" lon="-1.1799">
        <ele>3.9</ele>
        <time>2022-06-02T14:10:22Z</time>
      </trkpt>
      <trkpt lat="49.37777" lon="-1.1799">
        <ele>3.9</ele>
        <time>2022-06-02T14:10:23Z</time>
      </trkpt>
      <trkpt lat="49.37777" lon="-1.1799">
        <ele>3.9</ele>
        <time>2022-06-02T14:10:24Z</time>
      </trkpt>
      <trkpt lat="49.37777" lon="-1.1799">
        <ele>3.9</ele>
        <time>2022-06-02T14:10:25Z</time>
      </trkpt>
      <trkpt lat="49.37778" lon="-1.1799">
        <ele>3.9</ele>
        <time>2022-06-02T14:10:26Z</time>
      </trkpt>
      <trkpt lat="49.37778" lon="-1.17991">
        <ele>3.9</ele>
        <time>2022-06-02T14:10:27Z</time>
      </trkpt>
      <trkpt lat="49.37778" lon="-1.17991">
        <ele>3.9</ele>
        <time>2022-06-02T14:10:28Z</time>
      </trkpt>
      <trkpt lat="49.37778" lon="-1.17991">
        <ele>3.9</ele>
        <time>2022-06-02T14:10:29Z</time>
      </trkpt>
      <trkpt lat="49.37778" lon="-1.17991">
        <ele>3.9</ele>
        <time>2022-06-02T14:10:31Z</time>
      </trkpt>
      <trkpt lat="49.37778" lon="-1.17992">
        <ele>3.9</ele>
        <time>2022-06-02T14:10:32Z</time>
      </trkpt>
      <trkpt lat="49.37778" lon="-1.17992">
        <ele>3.9</ele>
        <time>2022-06-02T14:10:33Z</time>
      </trkpt>
      <trkpt lat="49.37778" lon="-1.17992">
        <ele>3.9</ele>
        <time>2022-06-02T14:10:34Z</time>
      </trkpt>
      <trkpt lat="49.37778" lon="-1.17993">
        <ele>3.9</ele>
        <time>2022-06-02T14:10:35Z</time>
      </trkpt>
      <trkpt lat="49.37778" lon="-1.17993">
        <ele>3.9</ele>
        <time>2022-06-02T14:10:36Z</time>
      </trkpt>
      <trkpt lat="49.37778" lon="-1.17993">
        <ele>3.9</ele>
        <time>2022-06-02T14:10:37Z</time>
      </trkpt>
      <trkpt lat="49.37778" lon="-1.17993">
        <ele>3.9</ele>
        <time>2022-06-02T14:10:38Z</time>
      </trkpt>
      <trkpt lat="49.37778" lon="-1.17994">
        <ele>3.9</ele>
        <time>2022-06-02T14:10:39Z</time>
      </trkpt>
      <trkpt lat="49.37778" lon="-1.17994">
        <ele>3.9</ele>
        <time>2022-06-02T14:10:40Z</time>
      </trkpt>
      <trkpt lat="49.37779" lon="-1.17994">
        <ele>3.9</ele>
        <time>2022-06-02T14:10:41Z</time>
      </trkpt>
      <trkpt lat="49.37779" lon="-1.17994">
        <ele>3.9</ele>
        <time>2022-06-02T14:10:43Z</time>
      </trkpt>
      <trkpt lat="49.37779" lon="-1.17995">
        <ele>3.9</ele>
        <time>2022-06-02T14:10:44Z</time>
      </trkpt>
      <trkpt lat="49.37779" lon="-1.17995">
        <ele>3.9</ele>
        <time>2022-06-02T14:10:45Z</time>
      </trkpt>
      <trkpt lat="49.3778" lon="-1.17998">
        <ele>3.9</ele>
        <time>2022-06-02T14:10:46Z</time>
      </trkpt>
      <trkpt lat="49.3778" lon="-1.17999">
        <ele>3.9</ele>
        <time>2022-06-02T14:10:47Z</time>
      </trkpt>
      <trkpt lat="49.3778" lon="-1.18">
        <ele>3.9</ele>
        <time>2022-06-02T14:10:49Z</time>
      </trkpt>
      <trkpt lat="49.37781" lon="-1.18002">
        <ele>3.9</ele>
        <time>2022-06-02T14:10:50Z</time>
      </trkpt>
      <trkpt lat="49.37781" lon="-1.18003">
        <ele>3.9</ele>
        <time>2022-06-02T14:10:51Z</time>
      </trkpt>
      <trkpt lat="49.37782" lon="-1.18005">
        <ele>3.9</ele>
        <time>2022-06-02T14:10:52Z</time>
      </trkpt>
      <trkpt lat="49.37782" lon="-1.18007">
        <ele>3.9</ele>
        <time>2022-06-02T14:10:54Z</time>
      </trkpt>
      <trkpt lat="49.37783" lon="-1.18008">
        <ele>3.9</ele>
        <time>2022-06-02T14:10:55Z</time>
      </trkpt>
      <trkpt lat="49.37783" lon="-1.18009">
        <ele>3.9</ele>
        <time>2022-06-02T14:10:56Z</time>
      </trkpt>
      <trkpt lat="49.37784" lon="-1.18009">
        <ele>3.9</ele>
        <time>2022-06-02T14:10:57Z</time>
      </trkpt>
      <trkpt lat="49.37784" lon="-1.18009">
        <ele>4</ele>
        <time>2022-06-02T14:10:58Z</time>
      </trkpt>
      <trkpt lat="49.37784" lon="-1.1801">
        <ele>4</ele>
        <time>2022-06-02T14:10:59Z</time>
      </trkpt>
      <trkpt lat="49.37783" lon="-1.1801">
        <ele>4</ele>
        <time>2022-06-02T14:11:00Z</time>
      </trkpt>
      <trkpt lat="49.37783" lon="-1.1801">
        <ele>4</ele>
        <time>2022-06-02T14:11:01Z</time>
      </trkpt>
      <trkpt lat="49.37783" lon="-1.1801">
        <ele>4</ele>
        <time>2022-06-02T14:11:02Z</time>
      </trkpt>
      <trkpt lat="49.37783" lon="-1.1801">
        <ele>4</ele>
        <time>2022-06-02T14:11:03Z</time>
      </trkpt>
      <trkpt lat="49.37783" lon="-1.1801">
        <ele>4</ele>
        <time>2022-06-02T14:11:04Z</time>
      </trkpt>
      <trkpt lat="49.37783" lon="-1.18011">
        <ele>4</ele>
        <time>2022-06-02T14:11:05Z</time>
      </trkpt>
      <trkpt lat="49.37783" lon="-1.18011">
        <ele>4</ele>
        <time>2022-06-02T14:11:06Z</time>
      </trkpt>
      <trkpt lat="49.37783" lon="-1.18011">
        <ele>4</ele>
        <time>2022-06-02T14:11:07Z</time>
      </trkpt>
      <trkpt lat="49.37783" lon="-1.18011">
        <ele>4</ele>
        <time>2022-06-02T14:11:08Z</time>
      </trkpt>
      <trkpt lat="49.37783" lon="-1.18011">
        <ele>4</ele>
        <time>2022-06-02T14:11:09Z</time>
      </trkpt>
      <trkpt lat="49.37783" lon="-1.18011">
        <ele>4</ele>
        <time>2022-06-02T14:11:10Z</time>
      </trkpt>
      <trkpt lat="49.37783" lon="-1.18011">
        <ele>4</ele>
        <time>2022-06-02T14:11:11Z</time>
      </trkpt>
      <trkpt lat="49.37783" lon="-1.18011">
        <ele>4</ele>
        <time>2022-06-02T14:11:12Z</time>
      </trkpt>
      <trkpt lat="49.37783" lon="-1.1801">
        <ele>4</ele>
        <time>2022-06-02T14:11:13Z</time>
      </trkpt>
      <trkpt lat="49.37783" lon="-1.18009">
        <ele>4</ele>
        <time>2022-06-02T14:11:14Z</time>
      </trkpt>
      <trkpt lat="49.37783" lon="-1.18008">
        <ele>4</ele>
        <time>2022-06-02T14:11:15Z</time>
      </trkpt>
      <trkpt lat="49.37783" lon="-1.18008">
        <ele>4</ele>
        <time>2022-06-02T14:11:16Z</time>
      </trkpt>
      <trkpt lat="49.37783" lon="-1.18008">
        <ele>4</ele>
        <time>2022-06-02T14:11:17Z</time>
      </trkpt>
      <trkpt lat="49.37783" lon="-1.18008">
        <ele>4</ele>
        <time>2022-06-02T14:11:18Z</time>
      </trkpt>
      <trkpt lat="49.37783" lon="-1.18008">
        <ele>4</ele>
        <time>2022-06-02T14:11:19Z</time>
      </trkpt>
      <trkpt lat="49.37783" lon="-1.18008">
        <ele>4</ele>
        <time>2022-06-02T14:11:20Z</time>
      </trkpt>
      <trkpt lat="49.37783" lon="-1.18008">
        <ele>4</ele>
        <time>2022-06-02T14:11:21Z</time>
      </trkpt>
      <trkpt lat="49.37783" lon="-1.18008">
        <ele>4</ele>
        <time>2022-06-02T14:11:22Z</time>
      </trkpt>
      <trkpt lat="49.37783" lon="-1.18007">
        <ele>4</ele>
        <time>2022-06-02T14:11:23Z</time>
      </trkpt>
      <trkpt lat="49.37783" lon="-1.18007">
        <ele>4</ele>
        <time>2022-06-02T14:11:24Z</time>
      </trkpt>
      <trkpt lat="49.37783" lon="-1.18007">
        <ele>4</ele>
        <time>2022-06-02T14:11:25Z</time>
      </trkpt>
      <trkpt lat="49.37783" lon="-1.18007">
        <ele>4</ele>
        <time>2022-06-02T14:11:26Z</time>
      </trkpt>
      <trkpt lat="49.37783" lon="-1.18007">
        <ele>4</ele>
        <time>2022-06-02T14:11:27Z</time>
      </trkpt>
      <trkpt lat="49.37783" lon="-1.18007">
        <ele>4</ele>
        <time>2022-06-02T14:11:28Z</time>
      </trkpt>
      <trkpt lat="49.37783" lon="-1.18007">
        <ele>4</ele>
        <time>2022-06-02T14:11:29Z</time>
      </trkpt>
      <trkpt lat="49.37783" lon="-1.18007">
        <ele>4</ele>
        <time>2022-06-02T14:11:30Z</time>
      </trkpt>
      <trkpt lat="49.37783" lon="-1.18007">
        <ele>4</ele>
        <time>2022-06-02T14:11:31Z</time>
      </trkpt>
      <trkpt lat="49.37783" lon="-1.18007">
        <ele>4</ele>
        <time>2022-06-02T14:11:32Z</time>
      </trkpt>
      <trkpt lat="49.37783" lon="-1.18007">
        <ele>4</ele>
        <time>2022-06-02T14:11:33Z</time>
      </trkpt>
      <trkpt lat="49.37783" lon="-1.18007">
        <ele>4</ele>
        <time>2022-06-02T14:11:34Z</time>
      </trkpt>
      <trkpt lat="49.37783" lon="-1.18007">
        <ele>4</ele>
        <time>2022-06-02T14:11:35Z</time>
      </trkpt>
      <trkpt lat="49.37783" lon="-1.18007">
        <ele>4</ele>
        <time>2022-06-02T14:11:36Z</time>
      </trkpt>
      <trkpt lat="49.37783" lon="-1.18007">
        <ele>4</ele>
        <time>2022-06-02T14:11:37Z</time>
      </trkpt>
      <trkpt lat="49.37783" lon="-1.18007">
        <ele>4</ele>
        <time>2022-06-02T14:11:38Z</time>
      </trkpt>
      <trkpt lat="49.37783" lon="-1.18007">
        <ele>4</ele>
        <time>2022-06-02T14:11:39Z</time>
      </trkpt>
      <trkpt lat="49.37783" lon="-1.18007">
        <ele>4</ele>
        <time>2022-06-02T14:11:40Z</time>
      </trkpt>
      <trkpt lat="49.37783" lon="-1.18007">
        <ele>4</ele>
        <time>2022-06-02T14:11:41Z</time>
      </trkpt>
      <trkpt lat="49.37783" lon="-1.18007">
        <ele>4</ele>
        <time>2022-06-02T14:11:42Z</time>
      </trkpt>
      <trkpt lat="49.37783" lon="-1.18007">
        <ele>4</ele>
        <time>2022-06-02T14:11:43Z</time>
      </trkpt>
      <trkpt lat="49.37783" lon="-1.18007">
        <ele>4</ele>
        <time>2022-06-02T14:11:44Z</time>
      </trkpt>
      <trkpt lat="49.37783" lon="-1.18007">
        <ele>4</ele>
        <time>2022-06-02T14:11:45Z</time>
      </trkpt>
      <trkpt lat="49.37783" lon="-1.18007">
        <ele>4</ele>
        <time>2022-06-02T14:11:46Z</time>
      </trkpt>
      <trkpt lat="49.37783" lon="-1.18007">
        <ele>4</ele>
        <time>2022-06-02T14:11:47Z</time>
      </trkpt>
      <trkpt lat="49.37783" lon="-1.18007">
        <ele>4</ele>
        <time>2022-06-02T14:11:48Z</time>
      </trkpt>
      <trkpt lat="49.37783" lon="-1.18007">
        <ele>4</ele>
        <time>2022-06-02T14:11:49Z</time>
      </trkpt>
      <trkpt lat="49.37783" lon="-1.18007">
        <ele>4</ele>
        <time>2022-06-02T14:11:50Z</time>
      </trkpt>
      <trkpt lat="49.37783" lon="-1.18007">
        <ele>4</ele>
        <time>2022-06-02T14:11:51Z</time>
      </trkpt>
      <trkpt lat="49.37783" lon="-1.18007">
        <ele>4</ele>
        <time>2022-06-02T14:11:52Z</time>
      </trkpt>
      <trkpt lat="49.37783" lon="-1.18007">
        <ele>4</ele>
        <time>2022-06-02T14:11:53Z</time>
      </trkpt>
      <trkpt lat="49.37783" lon="-1.18007">
        <ele>4</ele>
        <time>2022-06-02T14:11:54Z</time>
      </trkpt>
      <trkpt lat="49.37783" lon="-1.18007">
        <ele>4</ele>
        <time>2022-06-02T14:11:55Z</time>
      </trkpt>
      <trkpt lat="49.37783" lon="-1.18007">
        <ele>4</ele>
        <time>2022-06-02T14:11:56Z</time>
      </trkpt>
      <trkpt lat="49.37783" lon="-1.18007">
        <ele>4</ele>
        <time>2022-06-02T14:11:57Z</time>
      </trkpt>
      <trkpt lat="49.37783" lon="-1.18007">
        <ele>4</ele>
        <time>2022-06-02T14:11:58Z</time>
      </trkpt>
      <trkpt lat="49.37783" lon="-1.18007">
        <ele>4</ele>
        <time>2022-06-02T14:11:59Z</time>
      </trkpt>
      <trkpt lat="49.37783" lon="-1.18007">
        <ele>4</ele>
        <time>2022-06-02T14:12:00Z</time>
      </trkpt>
      <trkpt lat="49.37783" lon="-1.18007">
        <ele>4</ele>
        <time>2022-06-02T14:12:01Z</time>
      </trkpt>
      <trkpt lat="49.37783" lon="-1.18007">
        <ele>4</ele>
        <time>2022-06-02T14:12:02Z</time>
      </trkpt>
      <trkpt lat="49.37783" lon="-1.18007">
        <ele>4</ele>
        <time>2022-06-02T14:12:03Z</time>
      </trkpt>
      <trkpt lat="49.37783" lon="-1.18007">
        <ele>4</ele>
        <time>2022-06-02T14:12:04Z</time>
      </trkpt>
      <trkpt lat="49.37783" lon="-1.18007">
        <ele>4</ele>
        <time>2022-06-02T14:12:05Z</time>
      </trkpt>
      <trkpt lat="49.37783" lon="-1.18007">
        <ele>4</ele>
        <time>2022-06-02T14:12:06Z</time>
      </trkpt>
      <trkpt lat="49.37783" lon="-1.18007">
        <ele>4</ele>
        <time>2022-06-02T14:12:07Z</time>
      </trkpt>
      <trkpt lat="49.37783" lon="-1.18007">
        <ele>4</ele>
        <time>2022-06-02T14:12:08Z</time>
      </trkpt>
      <trkpt lat="49.37783" lon="-1.18007">
        <ele>4</ele>
        <time>2022-06-02T14:12:09Z</time>
      </trkpt>
      <trkpt lat="49.37783" lon="-1.18007">
        <ele>4</ele>
        <time>2022-06-02T14:12:10Z</time>
      </trkpt>
      <trkpt lat="49.37783" lon="-1.18007">
        <ele>4</ele>
        <time>2022-06-02T14:12:11Z</time>
      </trkpt>
      <trkpt lat="49.37783" lon="-1.18007">
        <ele>4</ele>
        <time>2022-06-02T14:12:12Z</time>
      </trkpt>
      <trkpt lat="49.37783" lon="-1.18007">
        <ele>4</ele>
        <time>2022-06-02T14:12:13Z</time>
      </trkpt>
      <trkpt lat="49.37783" lon="-1.18007">
        <ele>4</ele>
        <time>2022-06-02T14:12:14Z</time>
      </trkpt>
      <trkpt lat="49.37783" lon="-1.18008">
        <ele>4</ele>
        <time>2022-06-02T14:12:15Z</time>
      </trkpt>
      <trkpt lat="49.37783" lon="-1.18009">
        <ele>4</ele>
        <time>2022-06-02T14:12:17Z</time>
      </trkpt>
      <trkpt lat="49.37783" lon="-1.1801">
        <ele>4</ele>
        <time>2022-06-02T14:12:18Z</time>
      </trkpt>
      <trkpt lat="49.37783" lon="-1.18012">
        <ele>4</ele>
        <time>2022-06-02T14:12:19Z</time>
      </trkpt>
      <trkpt lat="49.37783" lon="-1.18014">
        <ele>4</ele>
        <time>2022-06-02T14:12:21Z</time>
      </trkpt>
      <trkpt lat="49.37783" lon="-1.18015">
        <ele>4</ele>
        <time>2022-06-02T14:12:22Z</time>
      </trkpt>
      <trkpt lat="49.37783" lon="-1.18016">
        <ele>4</ele>
        <time>2022-06-02T14:12:23Z</time>
      </trkpt>
      <trkpt lat="49.37783" lon="-1.18017">
        <ele>4</ele>
        <time>2022-06-02T14:12:24Z</time>
      </trkpt>
      <trkpt lat="49.37783" lon="-1.18017">
        <ele>4</ele>
        <time>2022-06-02T14:12:26Z</time>
      </trkpt>
      <trkpt lat="49.37783" lon="-1.18017">
        <ele>4</ele>
        <time>2022-06-02T14:12:27Z</time>
      </trkpt>
      <trkpt lat="49.37783" lon="-1.18018">
        <ele>4</ele>
        <time>2022-06-02T14:12:28Z</time>
      </trkpt>
      <trkpt lat="49.37783" lon="-1.18018">
        <ele>4</ele>
        <time>2022-06-02T14:12:29Z</time>
      </trkpt>
      <trkpt lat="49.37782" lon="-1.18019">
        <ele>4</ele>
        <time>2022-06-02T14:12:30Z</time>
      </trkpt>
      <trkpt lat="49.37783" lon="-1.1802">
        <ele>4</ele>
        <time>2022-06-02T14:12:31Z</time>
      </trkpt>
      <trkpt lat="49.37783" lon="-1.18022">
        <ele>4</ele>
        <time>2022-06-02T14:12:32Z</time>
      </trkpt>
      <trkpt lat="49.37783" lon="-1.18024">
        <ele>4</ele>
        <time>2022-06-02T14:12:34Z</time>
      </trkpt>
      <trkpt lat="49.37783" lon="-1.18026">
        <ele>4</ele>
        <time>2022-06-02T14:12:35Z</time>
      </trkpt>
      <trkpt lat="49.37783" lon="-1.18027">
        <ele>4</ele>
        <time>2022-06-02T14:12:36Z</time>
      </trkpt>
      <trkpt lat="49.37782" lon="-1.18029">
        <ele>4</ele>
        <time>2022-06-02T14:12:37Z</time>
      </trkpt>
      <trkpt lat="49.37782" lon="-1.1803">
        <ele>4</ele>
        <time>2022-06-02T14:12:38Z</time>
      </trkpt>
      <trkpt lat="49.37782" lon="-1.18032">
        <ele>4.1</ele>
        <time>2022-06-02T14:12:40Z</time>
      </trkpt>
      <trkpt lat="49.37783" lon="-1.18034">
        <ele>4.1</ele>
        <time>2022-06-02T14:12:41Z</time>
      </trkpt>
      <trkpt lat="49.37783" lon="-1.18035">
        <ele>4.1</ele>
        <time>2022-06-02T14:12:42Z</time>
      </trkpt>
      <trkpt lat="49.37783" lon="-1.18036">
        <ele>4.1</ele>
        <time>2022-06-02T14:12:43Z</time>
      </trkpt>
      <trkpt lat="49.37783" lon="-1.18038">
        <ele>4.1</ele>
        <time>2022-06-02T14:12:44Z</time>
      </trkpt>
      <trkpt lat="49.37783" lon="-1.18039">
        <ele>4.1</ele>
        <time>2022-06-02T14:12:45Z</time>
      </trkpt>
      <trkpt lat="49.37783" lon="-1.18041">
        <ele>4.1</ele>
        <time>2022-06-02T14:12:46Z</time>
      </trkpt>
      <trkpt lat="49.37783" lon="-1.18043">
        <ele>4.1</ele>
        <time>2022-06-02T14:12:47Z</time>
      </trkpt>
      <trkpt lat="49.37783" lon="-1.18046">
        <ele>4.1</ele>
        <time>2022-06-02T14:12:48Z</time>
      </trkpt>
      <trkpt lat="49.37782" lon="-1.18048">
        <ele>4.1</ele>
        <time>2022-06-02T14:12:50Z</time>
      </trkpt>
      <trkpt lat="49.37782" lon="-1.1805">
        <ele>4.1</ele>
        <time>2022-06-02T14:12:51Z</time>
      </trkpt>
      <trkpt lat="49.37783" lon="-1.18052">
        <ele>4.1</ele>
        <time>2022-06-02T14:12:52Z</time>
      </trkpt>
      <trkpt lat="49.37782" lon="-1.18053">
        <ele>4.1</ele>
        <time>2022-06-02T14:12:53Z</time>
      </trkpt>
      <trkpt lat="49.37781" lon="-1.18054">
        <ele>4.1</ele>
        <time>2022-06-02T14:12:54Z</time>
      </trkpt>
      <trkpt lat="49.37781" lon="-1.18056">
        <ele>4.1</ele>
        <time>2022-06-02T14:12:55Z</time>
      </trkpt>
      <trkpt lat="49.3778" lon="-1.18059">
        <ele>4.2</ele>
        <time>2022-06-02T14:12:57Z</time>
      </trkpt>
      <trkpt lat="49.3778" lon="-1.1806">
        <ele>4.2</ele>
        <time>2022-06-02T14:12:58Z</time>
      </trkpt>
      <trkpt lat="49.3778" lon="-1.18061">
        <ele>4.2</ele>
        <time>2022-06-02T14:12:59Z</time>
      </trkpt>
      <trkpt lat="49.3778" lon="-1.18063">
        <ele>4.2</ele>
        <time>2022-06-02T14:13:00Z</time>
      </trkpt>
      <trkpt lat="49.3778" lon="-1.18064">
        <ele>4.2</ele>
        <time>2022-06-02T14:13:01Z</time>
      </trkpt>
      <trkpt lat="49.37779" lon="-1.18066">
        <ele>4.2</ele>
        <time>2022-06-02T14:13:02Z</time>
      </trkpt>
      <trkpt lat="49.37779" lon="-1.18068">
        <ele>4.2</ele>
        <time>2022-06-02T14:13:04Z</time>
      </trkpt>
      <trkpt lat="49.37778" lon="-1.1807">
        <ele>4.2</ele>
        <time>2022-06-02T14:13:05Z</time>
      </trkpt>
      <trkpt lat="49.37778" lon="-1.18071">
        <ele>4.2</ele>
        <time>2022-06-02T14:13:06Z</time>
      </trkpt>
      <trkpt lat="49.37777" lon="-1.18074">
        <ele>4.2</ele>
        <time>2022-06-02T14:13:07Z</time>
      </trkpt>
      <trkpt lat="49.37776" lon="-1.18076">
        <ele>4.2</ele>
        <time>2022-06-02T14:13:09Z</time>
      </trkpt>
      <trkpt lat="49.37775" lon="-1.18078">
        <ele>4.2</ele>
        <time>2022-06-02T14:13:10Z</time>
      </trkpt>
      <trkpt lat="49.37774" lon="-1.1808">
        <ele>4.2</ele>
        <time>2022-06-02T14:13:11Z</time>
      </trkpt>
      <trkpt lat="49.37774" lon="-1.18082">
        <ele>4.3</ele>
        <time>2022-06-02T14:13:12Z</time>
      </trkpt>
      <trkpt lat="49.37773" lon="-1.18083">
        <ele>4.3</ele>
        <time>2022-06-02T14:13:13Z</time>
      </trkpt>
      <trkpt lat="49.37773" lon="-1.18084">
        <ele>4.3</ele>
        <time>2022-06-02T14:13:14Z</time>
      </trkpt>
      <trkpt lat="49.37772" lon="-1.18086">
        <ele>4.3</ele>
        <time>2022-06-02T14:13:15Z</time>
      </trkpt>
      <trkpt lat="49.37771" lon="-1.18089">
        <ele>4.3</ele>
        <time>2022-06-02T14:13:16Z</time>
      </trkpt>
      <trkpt lat="49.3777" lon="-1.1809">
        <ele>4.3</ele>
        <time>2022-06-02T14:13:17Z</time>
      </trkpt>
      <trkpt lat="49.3777" lon="-1.18091">
        <ele>4.3</ele>
        <time>2022-06-02T14:13:18Z</time>
      </trkpt>
      <trkpt lat="49.37768" lon="-1.18094">
        <ele>4.3</ele>
        <time>2022-06-02T14:13:19Z</time>
      </trkpt>
      <trkpt lat="49.37768" lon="-1.18095">
        <ele>4.3</ele>
        <time>2022-06-02T14:13:21Z</time>
      </trkpt>
      <trkpt lat="49.37767" lon="-1.18097">
        <ele>4.3</ele>
        <time>2022-06-02T14:13:22Z</time>
      </trkpt>
      <trkpt lat="49.37767" lon="-1.18098">
        <ele>4.3</ele>
        <time>2022-06-02T14:13:23Z</time>
      </trkpt>
      <trkpt lat="49.37767" lon="-1.181">
        <ele>4.3</ele>
        <time>2022-06-02T14:13:24Z</time>
      </trkpt>
      <trkpt lat="49.37767" lon="-1.18102">
        <ele>4.3</ele>
        <time>2022-06-02T14:13:26Z</time>
      </trkpt>
      <trkpt lat="49.37767" lon="-1.18104">
        <ele>4.3</ele>
        <time>2022-06-02T14:13:27Z</time>
      </trkpt>
      <trkpt lat="49.37766" lon="-1.18105">
        <ele>4.3</ele>
        <time>2022-06-02T14:13:28Z</time>
      </trkpt>
      <trkpt lat="49.37766" lon="-1.18107">
        <ele>4.4</ele>
        <time>2022-06-02T14:13:30Z</time>
      </trkpt>
      <trkpt lat="49.37766" lon="-1.18108">
        <ele>4.4</ele>
        <time>2022-06-02T14:13:31Z</time>
      </trkpt>
      <trkpt lat="49.37765" lon="-1.18109">
        <ele>4.4</ele>
        <time>2022-06-02T14:13:32Z</time>
      </trkpt>
      <trkpt lat="49.37764" lon="-1.18108">
        <ele>4.4</ele>
        <time>2022-06-02T14:13:33Z</time>
      </trkpt>
      <trkpt lat="49.37763" lon="-1.18108">
        <ele>4.4</ele>
        <time>2022-06-02T14:13:34Z</time>
      </trkpt>
      <trkpt lat="49.37762" lon="-1.18108">
        <ele>4.4</ele>
        <time>2022-06-02T14:13:35Z</time>
      </trkpt>
      <trkpt lat="49.37762" lon="-1.18108">
        <ele>4.4</ele>
        <time>2022-06-02T14:13:36Z</time>
      </trkpt>
      <trkpt lat="49.37761" lon="-1.18108">
        <ele>4.4</ele>
        <time>2022-06-02T14:13:37Z</time>
      </trkpt>
      <trkpt lat="49.37761" lon="-1.18107">
        <ele>4.4</ele>
        <time>2022-06-02T14:13:38Z</time>
      </trkpt>
      <trkpt lat="49.37761" lon="-1.18107">
        <ele>4.4</ele>
        <time>2022-06-02T14:13:39Z</time>
      </trkpt>
      <trkpt lat="49.37761" lon="-1.18106">
        <ele>4.4</ele>
        <time>2022-06-02T14:13:40Z</time>
      </trkpt>
      <trkpt lat="49.37761" lon="-1.18106">
        <ele>4.4</ele>
        <time>2022-06-02T14:13:41Z</time>
      </trkpt>
      <trkpt lat="49.37761" lon="-1.18106">
        <ele>4.4</ele>
        <time>2022-06-02T14:13:42Z</time>
      </trkpt>
      <trkpt lat="49.37761" lon="-1.18106">
        <ele>4.4</ele>
        <time>2022-06-02T14:13:43Z</time>
      </trkpt>
      <trkpt lat="49.37761" lon="-1.18106">
        <ele>4.3</ele>
        <time>2022-06-02T14:13:44Z</time>
      </trkpt>
      <trkpt lat="49.37761" lon="-1.18106">
        <ele>4.3</ele>
        <time>2022-06-02T14:13:45Z</time>
      </trkpt>
      <trkpt lat="49.37761" lon="-1.18106">
        <ele>4.3</ele>
        <time>2022-06-02T14:13:46Z</time>
      </trkpt>
      <trkpt lat="49.37761" lon="-1.18106">
        <ele>4.3</ele>
        <time>2022-06-02T14:13:47Z</time>
      </trkpt>
      <trkpt lat="49.37761" lon="-1.18106">
        <ele>4.3</ele>
        <time>2022-06-02T14:13:48Z</time>
      </trkpt>
      <trkpt lat="49.37761" lon="-1.18106">
        <ele>4.3</ele>
        <time>2022-06-02T14:13:49Z</time>
      </trkpt>
      <trkpt lat="49.37762" lon="-1.18106">
        <ele>4.3</ele>
        <time>2022-06-02T14:13:50Z</time>
      </trkpt>
      <trkpt lat="49.37762" lon="-1.18106">
        <ele>4.3</ele>
        <time>2022-06-02T14:13:51Z</time>
      </trkpt>
      <trkpt lat="49.37764" lon="-1.18106">
        <ele>4.3</ele>
        <time>2022-06-02T14:13:52Z</time>
      </trkpt>
      <trkpt lat="49.37765" lon="-1.18106">
        <ele>4.3</ele>
        <time>2022-06-02T14:13:53Z</time>
      </trkpt>
      <trkpt lat="49.37765" lon="-1.18105">
        <ele>4.3</ele>
        <time>2022-06-02T14:13:54Z</time>
      </trkpt>
      <trkpt lat="49.37765" lon="-1.18105">
        <ele>4.3</ele>
        <time>2022-06-02T14:13:55Z</time>
      </trkpt>
      <trkpt lat="49.37765" lon="-1.18105">
        <ele>4.3</ele>
        <time>2022-06-02T14:13:56Z</time>
      </trkpt>
      <trkpt lat="49.37765" lon="-1.18105">
        <ele>4.3</ele>
        <time>2022-06-02T14:13:57Z</time>
      </trkpt>
      <trkpt lat="49.37765" lon="-1.18105">
        <ele>4.3</ele>
        <time>2022-06-02T14:13:58Z</time>
      </trkpt>
      <trkpt lat="49.37765" lon="-1.18105">
        <ele>4.3</ele>
        <time>2022-06-02T14:13:59Z</time>
      </trkpt>
      <trkpt lat="49.37765" lon="-1.18105">
        <ele>4.3</ele>
        <time>2022-06-02T14:14:00Z</time>
      </trkpt>
      <trkpt lat="49.3776" lon="-1.18109">
        <ele>4.3</ele>
        <time>2022-06-02T14:14:14Z</time>
      </trkpt>
      <trkpt lat="49.37762" lon="-1.18109">
        <ele>4.3</ele>
        <time>2022-06-02T14:14:15Z</time>
      </trkpt>
      <trkpt lat="49.37763" lon="-1.18107">
        <ele>4.3</ele>
        <time>2022-06-02T14:14:16Z</time>
      </trkpt>
      <trkpt lat="49.37764" lon="-1.18108">
        <ele>4.3</ele>
        <time>2022-06-02T14:14:17Z</time>
      </trkpt>
      <trkpt lat="49.37765" lon="-1.18109">
        <ele>4.3</ele>
        <time>2022-06-02T14:14:18Z</time>
      </trkpt>
      <trkpt lat="49.37766" lon="-1.18109">
        <ele>4.3</ele>
        <time>2022-06-02T14:14:19Z</time>
      </trkpt>
      <trkpt lat="49.37766" lon="-1.18109">
        <ele>4.3</ele>
        <time>2022-06-02T14:14:20Z</time>
      </trkpt>
      <trkpt lat="49.37766" lon="-1.18109">
        <ele>4.3</ele>
        <time>2022-06-02T14:14:21Z</time>
      </trkpt>
      <trkpt lat="49.37766" lon="-1.18109">
        <ele>4.3</ele>
        <time>2022-06-02T14:14:22Z</time>
      </trkpt>
      <trkpt lat="49.37766" lon="-1.18109">
        <ele>4.3</ele>
        <time>2022-06-02T14:14:24Z</time>
      </trkpt>
      <trkpt lat="49.37766" lon="-1.18109">
        <ele>4.3</ele>
        <time>2022-06-02T14:14:26Z</time>
      </trkpt>
      <trkpt lat="49.37766" lon="-1.18109">
        <ele>4.3</ele>
        <time>2022-06-02T14:14:27Z</time>
      </trkpt>
      <trkpt lat="49.37765" lon="-1.1811">
        <ele>4.3</ele>
        <time>2022-06-02T14:14:28Z</time>
      </trkpt>
      <trkpt lat="49.37765" lon="-1.1811">
        <ele>4.3</ele>
        <time>2022-06-02T14:14:29Z</time>
      </trkpt>
      <trkpt lat="49.37765" lon="-1.1811">
        <ele>4.3</ele>
        <time>2022-06-02T14:14:30Z</time>
      </trkpt>
      <trkpt lat="49.37765" lon="-1.18111">
        <ele>4.3</ele>
        <time>2022-06-02T14:14:31Z</time>
      </trkpt>
      <trkpt lat="49.37766" lon="-1.18111">
        <ele>4.3</ele>
        <time>2022-06-02T14:14:32Z</time>
      </trkpt>
      <trkpt lat="49.37766" lon="-1.18111">
        <ele>4.3</ele>
        <time>2022-06-02T14:14:33Z</time>
      </trkpt>
      <trkpt lat="49.37766" lon="-1.18111">
        <ele>4.3</ele>
        <time>2022-06-02T14:14:34Z</time>
      </trkpt>
      <trkpt lat="49.37766" lon="-1.18111">
        <ele>4.3</ele>
        <time>2022-06-02T14:14:35Z</time>
      </trkpt>
      <trkpt lat="49.37766" lon="-1.18111">
        <ele>4.3</ele>
        <time>2022-06-02T14:14:36Z</time>
      </trkpt>
      <trkpt lat="49.37766" lon="-1.18111">
        <ele>4.3</ele>
        <time>2022-06-02T14:14:37Z</time>
      </trkpt>
      <trkpt lat="49.37766" lon="-1.18111">
        <ele>4.3</ele>
        <time>2022-06-02T14:14:38Z</time>
      </trkpt>
      <trkpt lat="49.37766" lon="-1.18111">
        <ele>4.3</ele>
        <time>2022-06-02T14:14:39Z</time>
      </trkpt>
      <trkpt lat="49.37766" lon="-1.1811">
        <ele>4.3</ele>
        <time>2022-06-02T14:14:40Z</time>
      </trkpt>
      <trkpt lat="49.37766" lon="-1.1811">
        <ele>4.3</ele>
        <time>2022-06-02T14:14:41Z</time>
      </trkpt>
      <trkpt lat="49.37766" lon="-1.1811">
        <ele>4.3</ele>
        <time>2022-06-02T14:14:42Z</time>
      </trkpt>
      <trkpt lat="49.37766" lon="-1.1811">
        <ele>4.3</ele>
        <time>2022-06-02T14:14:43Z</time>
      </trkpt>
      <trkpt lat="49.37766" lon="-1.1811">
        <ele>4.3</ele>
        <time>2022-06-02T14:14:44Z</time>
      </trkpt>
      <trkpt lat="49.37766" lon="-1.1811">
        <ele>4.3</ele>
        <time>2022-06-02T14:14:45Z</time>
      </trkpt>
      <trkpt lat="49.37766" lon="-1.1811">
        <ele>4.3</ele>
        <time>2022-06-02T14:14:46Z</time>
      </trkpt>
      <trkpt lat="49.37766" lon="-1.1811">
        <ele>4.3</ele>
        <time>2022-06-02T14:14:47Z</time>
      </trkpt>
      <trkpt lat="49.37766" lon="-1.1811">
        <ele>4.3</ele>
        <time>2022-06-02T14:14:48Z</time>
      </trkpt>
      <trkpt lat="49.37766" lon="-1.1811">
        <ele>4.3</ele>
        <time>2022-06-02T14:14:49Z</time>
      </trkpt>
      <trkpt lat="49.37766" lon="-1.1811">
        <ele>4.3</ele>
        <time>2022-06-02T14:14:50Z</time>
      </trkpt>
      <trkpt lat="49.37766" lon="-1.1811">
        <ele>4.3</ele>
        <time>2022-06-02T14:14:51Z</time>
      </trkpt>
      <trkpt lat="49.37766" lon="-1.1811">
        <ele>4.3</ele>
        <time>2022-06-02T14:14:52Z</time>
      </trkpt>
      <trkpt lat="49.37766" lon="-1.1811">
        <ele>4.3</ele>
        <time>2022-06-02T14:14:53Z</time>
      </trkpt>
      <trkpt lat="49.37766" lon="-1.1811">
        <ele>4.3</ele>
        <time>2022-06-02T14:14:54Z</time>
      </trkpt>
      <trkpt lat="49.37766" lon="-1.1811">
        <ele>4.3</ele>
        <time>2022-06-02T14:14:55Z</time>
      </trkpt>
      <trkpt lat="49.37766" lon="-1.1811">
        <ele>4.3</ele>
        <time>2022-06-02T14:14:56Z</time>
      </trkpt>
      <trkpt lat="49.37766" lon="-1.1811">
        <ele>4.3</ele>
        <time>2022-06-02T14:14:57Z</time>
      </trkpt>
      <trkpt lat="49.37766" lon="-1.1811">
        <ele>4.3</ele>
        <time>2022-06-02T14:14:58Z</time>
      </trkpt>
      <trkpt lat="49.37766" lon="-1.1811">
        <ele>4.3</ele>
        <time>2022-06-02T14:14:59Z</time>
      </trkpt>
      <trkpt lat="49.37766" lon="-1.1811">
        <ele>4.3</ele>
        <time>2022-06-02T14:15:00Z</time>
      </trkpt>
      <trkpt lat="49.37766" lon="-1.1811">
        <ele>4.3</ele>
        <time>2022-06-02T14:15:01Z</time>
      </trkpt>
      <trkpt lat="49.37766" lon="-1.1811">
        <ele>4.3</ele>
        <time>2022-06-02T14:15:02Z</time>
      </trkpt>
      <trkpt lat="49.37766" lon="-1.1811">
        <ele>4.3</ele>
        <time>2022-06-02T14:15:03Z</time>
      </trkpt>
      <trkpt lat="49.37766" lon="-1.1811">
        <ele>4.3</ele>
        <time>2022-06-02T14:15:04Z</time>
      </trkpt>
      <trkpt lat="49.37766" lon="-1.1811">
        <ele>4.3</ele>
        <time>2022-06-02T14:15:05Z</time>
      </trkpt>
      <trkpt lat="49.37766" lon="-1.1811">
        <ele>4.3</ele>
        <time>2022-06-02T14:15:06Z</time>
      </trkpt>
      <trkpt lat="49.37766" lon="-1.1811">
        <ele>4.3</ele>
        <time>2022-06-02T14:15:07Z</time>
      </trkpt>
      <trkpt lat="49.37766" lon="-1.1811">
        <ele>4.3</ele>
        <time>2022-06-02T14:15:08Z</time>
      </trkpt>
      <trkpt lat="49.37766" lon="-1.1811">
        <ele>4.3</ele>
        <time>2022-06-02T14:15:09Z</time>
      </trkpt>
      <trkpt lat="49.37766" lon="-1.1811">
        <ele>4.3</ele>
        <time>2022-06-02T14:15:10Z</time>
      </trkpt>
      <trkpt lat="49.37766" lon="-1.1811">
        <ele>4.3</ele>
        <time>2022-06-02T14:15:11Z</time>
      </trkpt>
      <trkpt lat="49.37766" lon="-1.1811">
        <ele>4.3</ele>
        <time>2022-06-02T14:15:12Z</time>
      </trkpt>
      <trkpt lat="49.37766" lon="-1.1811">
        <ele>4.3</ele>
        <time>2022-06-02T14:15:13Z</time>
      </trkpt>
      <trkpt lat="49.37766" lon="-1.1811">
        <ele>4.3</ele>
        <time>2022-06-02T14:15:14Z</time>
      </trkpt>
      <trkpt lat="49.37766" lon="-1.1811">
        <ele>4.3</ele>
        <time>2022-06-02T14:15:15Z</time>
      </trkpt>
      <trkpt lat="49.37766" lon="-1.1811">
        <ele>4.3</ele>
        <time>2022-06-02T14:15:16Z</time>
      </trkpt>
      <trkpt lat="49.37766" lon="-1.1811">
        <ele>4.3</ele>
        <time>2022-06-02T14:15:17Z</time>
      </trkpt>
      <trkpt lat="49.37766" lon="-1.1811">
        <ele>4.3</ele>
        <time>2022-06-02T14:15:18Z</time>
      </trkpt>
      <trkpt lat="49.37766" lon="-1.1811">
        <ele>4.3</ele>
        <time>2022-06-02T14:15:19Z</time>
      </trkpt>
      <trkpt lat="49.37766" lon="-1.1811">
        <ele>4.3</ele>
        <time>2022-06-02T14:15:20Z</time>
      </trkpt>
      <trkpt lat="49.37764" lon="-1.18105">
        <ele>4.4</ele>
        <time>2022-06-02T14:15:21Z</time>
      </trkpt>
      <trkpt lat="49.37763" lon="-1.18103">
        <ele>4.4</ele>
        <time>2022-06-02T14:15:22Z</time>
      </trkpt>
      <trkpt lat="49.37763" lon="-1.18101">
        <ele>4.4</ele>
        <time>2022-06-02T14:15:23Z</time>
      </trkpt>
      <trkpt lat="49.37763" lon="-1.181">
        <ele>4.4</ele>
        <time>2022-06-02T14:15:24Z</time>
      </trkpt>
      <trkpt lat="49.37763" lon="-1.181">
        <ele>4.4</ele>
        <time>2022-06-02T14:15:25Z</time>
      </trkpt>
      <trkpt lat="49.37763" lon="-1.181">
        <ele>4.4</ele>
        <time>2022-06-02T14:15:26Z</time>
      </trkpt>
      <trkpt lat="49.37763" lon="-1.181">
        <ele>4.4</ele>
        <time>2022-06-02T14:15:27Z</time>
      </trkpt>
      <trkpt lat="49.37762" lon="-1.181">
        <ele>4.4</ele>
        <time>2022-06-02T14:15:28Z</time>
      </trkpt>
      <trkpt lat="49.37762" lon="-1.181">
        <ele>4.4</ele>
        <time>2022-06-02T14:15:29Z</time>
      </trkpt>
      <trkpt lat="49.37762" lon="-1.181">
        <ele>4.4</ele>
        <time>2022-06-02T14:15:30Z</time>
      </trkpt>
      <trkpt lat="49.37762" lon="-1.181">
        <ele>4.4</ele>
        <time>2022-06-02T14:15:31Z</time>
      </trkpt>
      <trkpt lat="49.37762" lon="-1.181">
        <ele>4.4</ele>
        <time>2022-06-02T14:15:32Z</time>
      </trkpt>
      <trkpt lat="49.37762" lon="-1.181">
        <ele>4.4</ele>
        <time>2022-06-02T14:15:33Z</time>
      </trkpt>
      <trkpt lat="49.37762" lon="-1.181">
        <ele>4.4</ele>
        <time>2022-06-02T14:15:34Z</time>
      </trkpt>
      <trkpt lat="49.37762" lon="-1.18099">
        <ele>4.4</ele>
        <time>2022-06-02T14:15:35Z</time>
      </trkpt>
      <trkpt lat="49.37762" lon="-1.18099">
        <ele>4.4</ele>
        <time>2022-06-02T14:15:36Z</time>
      </trkpt>
      <trkpt lat="49.37762" lon="-1.18099">
        <ele>4.4</ele>
        <time>2022-06-02T14:15:37Z</time>
      </trkpt>
      <trkpt lat="49.37762" lon="-1.18099">
        <ele>4.4</ele>
        <time>2022-06-02T14:15:38Z</time>
      </trkpt>
      <trkpt lat="49.37762" lon="-1.18099">
        <ele>4.4</ele>
        <time>2022-06-02T14:15:39Z</time>
      </trkpt>
      <trkpt lat="49.37762" lon="-1.18099">
        <ele>4.4</ele>
        <time>2022-06-02T14:15:40Z</time>
      </trkpt>
      <trkpt lat="49.37762" lon="-1.18099">
        <ele>4.4</ele>
        <time>2022-06-02T14:15:41Z</time>
      </trkpt>
      <trkpt lat="49.37762" lon="-1.18099">
        <ele>4.4</ele>
        <time>2022-06-02T14:15:42Z</time>
      </trkpt>
      <trkpt lat="49.37762" lon="-1.18099">
        <ele>4.4</ele>
        <time>2022-06-02T14:15:43Z</time>
      </trkpt>
      <trkpt lat="49.37762" lon="-1.18099">
        <ele>4.4</ele>
        <time>2022-06-02T14:15:44Z</time>
      </trkpt>
      <trkpt lat="49.37762" lon="-1.18099">
        <ele>4.4</ele>
        <time>2022-06-02T14:15:45Z</time>
      </trkpt>
      <trkpt lat="49.37762" lon="-1.18099">
        <ele>4.4</ele>
        <time>2022-06-02T14:15:46Z</time>
      </trkpt>
      <trkpt lat="49.37762" lon="-1.18099">
        <ele>4.4</ele>
        <time>2022-06-02T14:15:47Z</time>
      </trkpt>
      <trkpt lat="49.37762" lon="-1.18099">
        <ele>4.4</ele>
        <time>2022-06-02T14:15:48Z</time>
      </trkpt>
      <trkpt lat="49.37762" lon="-1.18098">
        <ele>4.4</ele>
        <time>2022-06-02T14:15:49Z</time>
      </trkpt>
      <trkpt lat="49.37762" lon="-1.18098">
        <ele>4.4</ele>
        <time>2022-06-02T14:15:50Z</time>
      </trkpt>
      <trkpt lat="49.37762" lon="-1.18098">
        <ele>4.4</ele>
        <time>2022-06-02T14:15:51Z</time>
      </trkpt>
      <trkpt lat="49.37762" lon="-1.18098">
        <ele>4.4</ele>
        <time>2022-06-02T14:15:52Z</time>
      </trkpt>
      <trkpt lat="49.37762" lon="-1.18098">
        <ele>4.4</ele>
        <time>2022-06-02T14:15:53Z</time>
      </trkpt>
      <trkpt lat="49.37762" lon="-1.18098">
        <ele>4.4</ele>
        <time>2022-06-02T14:15:54Z</time>
      </trkpt>
      <trkpt lat="49.37762" lon="-1.18098">
        <ele>4.4</ele>
        <time>2022-06-02T14:15:55Z</time>
      </trkpt>
      <trkpt lat="49.37761" lon="-1.18098">
        <ele>4.4</ele>
        <time>2022-06-02T14:15:56Z</time>
      </trkpt>
      <trkpt lat="49.37761" lon="-1.18098">
        <ele>4.4</ele>
        <time>2022-06-02T14:15:57Z</time>
      </trkpt>
      <trkpt lat="49.37761" lon="-1.18098">
        <ele>4.4</ele>
        <time>2022-06-02T14:15:58Z</time>
      </trkpt>
      <trkpt lat="49.37761" lon="-1.18098">
        <ele>4.4</ele>
        <time>2022-06-02T14:15:59Z</time>
      </trkpt>
      <trkpt lat="49.37761" lon="-1.18098">
        <ele>4.4</ele>
        <time>2022-06-02T14:16:00Z</time>
      </trkpt>
      <trkpt lat="49.37761" lon="-1.18098">
        <ele>4.4</ele>
        <time>2022-06-02T14:16:01Z</time>
      </trkpt>
      <trkpt lat="49.37761" lon="-1.18098">
        <ele>4.4</ele>
        <time>2022-06-02T14:16:02Z</time>
      </trkpt>
      <trkpt lat="49.37761" lon="-1.18098">
        <ele>4.4</ele>
        <time>2022-06-02T14:16:03Z</time>
      </trkpt>
      <trkpt lat="49.37761" lon="-1.18097">
        <ele>4.4</ele>
        <time>2022-06-02T14:16:04Z</time>
      </trkpt>
      <trkpt lat="49.37761" lon="-1.18097">
        <ele>4.4</ele>
        <time>2022-06-02T14:16:05Z</time>
      </trkpt>
      <trkpt lat="49.37761" lon="-1.18097">
        <ele>4.4</ele>
        <time>2022-06-02T14:16:06Z</time>
      </trkpt>
      <trkpt lat="49.37761" lon="-1.18097">
        <ele>4.4</ele>
        <time>2022-06-02T14:16:07Z</time>
      </trkpt>
      <trkpt lat="49.37761" lon="-1.18097">
        <ele>4.4</ele>
        <time>2022-06-02T14:16:08Z</time>
      </trkpt>
      <trkpt lat="49.37761" lon="-1.18097">
        <ele>4.4</ele>
        <time>2022-06-02T14:16:09Z</time>
      </trkpt>
      <trkpt lat="49.37761" lon="-1.18097">
        <ele>4.4</ele>
        <time>2022-06-02T14:16:10Z</time>
      </trkpt>
      <trkpt lat="49.37761" lon="-1.18097">
        <ele>4.4</ele>
        <time>2022-06-02T14:16:11Z</time>
      </trkpt>
      <trkpt lat="49.37761" lon="-1.18097">
        <ele>4.4</ele>
        <time>2022-06-02T14:16:12Z</time>
      </trkpt>
      <trkpt lat="49.37761" lon="-1.18097">
        <ele>4.4</ele>
        <time>2022-06-02T14:16:13Z</time>
      </trkpt>
      <trkpt lat="49.37761" lon="-1.18097">
        <ele>4.4</ele>
        <time>2022-06-02T14:16:14Z</time>
      </trkpt>
      <trkpt lat="49.37761" lon="-1.18097">
        <ele>4.4</ele>
        <time>2022-06-02T14:16:15Z</time>
      </trkpt>
      <trkpt lat="49.37761" lon="-1.18097">
        <ele>4.4</ele>
        <time>2022-06-02T14:16:16Z</time>
      </trkpt>
      <trkpt lat="49.37761" lon="-1.18097">
        <ele>4.4</ele>
        <time>2022-06-02T14:16:17Z</time>
      </trkpt>
      <trkpt lat="49.37761" lon="-1.18096">
        <ele>4.4</ele>
        <time>2022-06-02T14:16:18Z</time>
      </trkpt>
      <trkpt lat="49.37761" lon="-1.18096">
        <ele>4.4</ele>
        <time>2022-06-02T14:16:19Z</time>
      </trkpt>
      <trkpt lat="49.37761" lon="-1.18096">
        <ele>4.4</ele>
        <time>2022-06-02T14:16:20Z</time>
      </trkpt>
      <trkpt lat="49.37761" lon="-1.18096">
        <ele>4.4</ele>
        <time>2022-06-02T14:16:21Z</time>
      </trkpt>
      <trkpt lat="49.37761" lon="-1.18096">
        <ele>4.4</ele>
        <time>2022-06-02T14:16:22Z</time>
      </trkpt>
      <trkpt lat="49.37761" lon="-1.18096">
        <ele>4.4</ele>
        <time>2022-06-02T14:16:23Z</time>
      </trkpt>
      <trkpt lat="49.37761" lon="-1.18096">
        <ele>4.4</ele>
        <time>2022-06-02T14:16:24Z</time>
      </trkpt>
      <trkpt lat="49.3776" lon="-1.18096">
        <ele>4.4</ele>
        <time>2022-06-02T14:16:25Z</time>
      </trkpt>
      <trkpt lat="49.3776" lon="-1.18096">
        <ele>4.4</ele>
        <time>2022-06-02T14:16:26Z</time>
      </trkpt>
      <trkpt lat="49.3776" lon="-1.18096">
        <ele>4.4</ele>
        <time>2022-06-02T14:16:27Z</time>
      </trkpt>
      <trkpt lat="49.3776" lon="-1.18096">
        <ele>4.4</ele>
        <time>2022-06-02T14:16:28Z</time>
      </trkpt>
      <trkpt lat="49.3776" lon="-1.18096">
        <ele>4.4</ele>
        <time>2022-06-02T14:16:29Z</time>
      </trkpt>
      <trkpt lat="49.3776" lon="-1.18096">
        <ele>4.4</ele>
        <time>2022-06-02T14:16:30Z</time>
      </trkpt>
      <trkpt lat="49.3776" lon="-1.18096">
        <ele>4.4</ele>
        <time>2022-06-02T14:16:31Z</time>
      </trkpt>
      <trkpt lat="49.3776" lon="-1.18095">
        <ele>4.4</ele>
        <time>2022-06-02T14:16:32Z</time>
      </trkpt>
      <trkpt lat="49.3776" lon="-1.18095">
        <ele>4.4</ele>
        <time>2022-06-02T14:16:33Z</time>
      </trkpt>
      <trkpt lat="49.3776" lon="-1.18095">
        <ele>4.4</ele>
        <time>2022-06-02T14:16:34Z</time>
      </trkpt>
      <trkpt lat="49.3776" lon="-1.18095">
        <ele>4.4</ele>
        <time>2022-06-02T14:16:35Z</time>
      </trkpt>
      <trkpt lat="49.3776" lon="-1.18095">
        <ele>4.4</ele>
        <time>2022-06-02T14:16:36Z</time>
      </trkpt>
      <trkpt lat="49.3776" lon="-1.18095">
        <ele>4.4</ele>
        <time>2022-06-02T14:16:37Z</time>
      </trkpt>
      <trkpt lat="49.3776" lon="-1.18095">
        <ele>4.4</ele>
        <time>2022-06-02T14:16:38Z</time>
      </trkpt>
      <trkpt lat="49.3776" lon="-1.18095">
        <ele>4.4</ele>
        <time>2022-06-02T14:16:39Z</time>
      </trkpt>
      <trkpt lat="49.3776" lon="-1.18095">
        <ele>4.4</ele>
        <time>2022-06-02T14:16:40Z</time>
      </trkpt>
      <trkpt lat="49.3776" lon="-1.18095">
        <ele>4.4</ele>
        <time>2022-06-02T14:16:41Z</time>
      </trkpt>
      <trkpt lat="49.3776" lon="-1.18095">
        <ele>4.4</ele>
        <time>2022-06-02T14:16:42Z</time>
      </trkpt>
      <trkpt lat="49.3776" lon="-1.18095">
        <ele>4.4</ele>
        <time>2022-06-02T14:16:43Z</time>
      </trkpt>
      <trkpt lat="49.3776" lon="-1.18095">
        <ele>4.4</ele>
        <time>2022-06-02T14:16:44Z</time>
      </trkpt>
      <trkpt lat="49.3776" lon="-1.18095">
        <ele>4.4</ele>
        <time>2022-06-02T14:16:45Z</time>
      </trkpt>
      <trkpt lat="49.3776" lon="-1.18094">
        <ele>4.4</ele>
        <time>2022-06-02T14:16:46Z</time>
      </trkpt>
      <trkpt lat="49.3776" lon="-1.18094">
        <ele>4.4</ele>
        <time>2022-06-02T14:16:47Z</time>
      </trkpt>
      <trkpt lat="49.3776" lon="-1.18094">
        <ele>4.4</ele>
        <time>2022-06-02T14:16:48Z</time>
      </trkpt>
      <trkpt lat="49.3776" lon="-1.18094">
        <ele>4.4</ele>
        <time>2022-06-02T14:16:49Z</time>
      </trkpt>
      <trkpt lat="49.3776" lon="-1.18094">
        <ele>4.4</ele>
        <time>2022-06-02T14:16:50Z</time>
      </trkpt>
      <trkpt lat="49.3776" lon="-1.18094">
        <ele>4.4</ele>
        <time>2022-06-02T14:16:51Z</time>
      </trkpt>
      <trkpt lat="49.3776" lon="-1.18094">
        <ele>4.4</ele>
        <time>2022-06-02T14:16:52Z</time>
      </trkpt>
      <trkpt lat="49.37759" lon="-1.18094">
        <ele>4.4</ele>
        <time>2022-06-02T14:16:53Z</time>
      </trkpt>
      <trkpt lat="49.37759" lon="-1.18094">
        <ele>4.4</ele>
        <time>2022-06-02T14:16:54Z</time>
      </trkpt>
      <trkpt lat="49.37759" lon="-1.18094">
        <ele>4.4</ele>
        <time>2022-06-02T14:16:55Z</time>
      </trkpt>
      <trkpt lat="49.37759" lon="-1.18094">
        <ele>4.4</ele>
        <time>2022-06-02T14:16:56Z</time>
      </trkpt>
      <trkpt lat="49.37759" lon="-1.18094">
        <ele>4.4</ele>
        <time>2022-06-02T14:16:57Z</time>
      </trkpt>
      <trkpt lat="49.37759" lon="-1.18094">
        <ele>4.4</ele>
        <time>2022-06-02T14:16:58Z</time>
      </trkpt>
      <trkpt lat="49.37759" lon="-1.18094">
        <ele>4.4</ele>
        <time>2022-06-02T14:16:59Z</time>
      </trkpt>
      <trkpt lat="49.37759" lon="-1.18093">
        <ele>4.4</ele>
        <time>2022-06-02T14:17:00Z</time>
      </trkpt>
      <trkpt lat="49.37759" lon="-1.18093">
        <ele>4.4</ele>
        <time>2022-06-02T14:17:01Z</time>
      </trkpt>
      <trkpt lat="49.37759" lon="-1.18093">
        <ele>4.4</ele>
        <time>2022-06-02T14:17:02Z</time>
      </trkpt>
      <trkpt lat="49.37759" lon="-1.18093">
        <ele>4.4</ele>
        <time>2022-06-02T14:17:03Z</time>
      </trkpt>
      <trkpt lat="49.37759" lon="-1.18093">
        <ele>4.4</ele>
        <time>2022-06-02T14:17:04Z</time>
      </trkpt>
      <trkpt lat="49.37759" lon="-1.18093">
        <ele>4.4</ele>
        <time>2022-06-02T14:17:05Z</time>
      </trkpt>
      <trkpt lat="49.37759" lon="-1.18093">
        <ele>4.4</ele>
        <time>2022-06-02T14:17:06Z</time>
      </trkpt>
      <trkpt lat="49.37759" lon="-1.18093">
        <ele>4.4</ele>
        <time>2022-06-02T14:17:07Z</time>
      </trkpt>
      <trkpt lat="49.37759" lon="-1.18093">
        <ele>4.4</ele>
        <time>2022-06-02T14:17:08Z</time>
      </trkpt>
      <trkpt lat="49.37759" lon="-1.18093">
        <ele>4.4</ele>
        <time>2022-06-02T14:17:09Z</time>
      </trkpt>
      <trkpt lat="49.37759" lon="-1.18093">
        <ele>4.4</ele>
        <time>2022-06-02T14:17:10Z</time>
      </trkpt>
      <trkpt lat="49.37759" lon="-1.18093">
        <ele>4.4</ele>
        <time>2022-06-02T14:17:11Z</time>
      </trkpt>
      <trkpt lat="49.37759" lon="-1.18093">
        <ele>4.4</ele>
        <time>2022-06-02T14:17:12Z</time>
      </trkpt>
      <trkpt lat="49.37759" lon="-1.18093">
        <ele>4.4</ele>
        <time>2022-06-02T14:17:13Z</time>
      </trkpt>
      <trkpt lat="49.37759" lon="-1.18093">
        <ele>4.4</ele>
        <time>2022-06-02T14:17:14Z</time>
      </trkpt>
      <trkpt lat="49.37759" lon="-1.18092">
        <ele>4.4</ele>
        <time>2022-06-02T14:17:15Z</time>
      </trkpt>
      <trkpt lat="49.37759" lon="-1.18092">
        <ele>4.4</ele>
        <time>2022-06-02T14:17:16Z</time>
      </trkpt>
      <trkpt lat="49.37759" lon="-1.18092">
        <ele>4.4</ele>
        <time>2022-06-02T14:17:17Z</time>
      </trkpt>
      <trkpt lat="49.37759" lon="-1.18092">
        <ele>4.4</ele>
        <time>2022-06-02T14:17:18Z</time>
      </trkpt>
      <trkpt lat="49.37759" lon="-1.18092">
        <ele>4.4</ele>
        <time>2022-06-02T14:17:19Z</time>
      </trkpt>
      <trkpt lat="49.37759" lon="-1.18092">
        <ele>4.4</ele>
        <time>2022-06-02T14:17:20Z</time>
      </trkpt>
      <trkpt lat="49.37759" lon="-1.18092">
        <ele>4.4</ele>
        <time>2022-06-02T14:17:21Z</time>
      </trkpt>
      <trkpt lat="49.37758" lon="-1.18092">
        <ele>4.4</ele>
        <time>2022-06-02T14:17:22Z</time>
      </trkpt>
      <trkpt lat="49.37758" lon="-1.18092">
        <ele>4.4</ele>
        <time>2022-06-02T14:17:23Z</time>
      </trkpt>
      <trkpt lat="49.37758" lon="-1.18092">
        <ele>4.4</ele>
        <time>2022-06-02T14:17:24Z</time>
      </trkpt>
      <trkpt lat="49.37758" lon="-1.18092">
        <ele>4.4</ele>
        <time>2022-06-02T14:17:25Z</time>
      </trkpt>
      <trkpt lat="49.37758" lon="-1.18092">
        <ele>4.4</ele>
        <time>2022-06-02T14:17:26Z</time>
      </trkpt>
      <trkpt lat="49.37758" lon="-1.18092">
        <ele>4.4</ele>
        <time>2022-06-02T14:17:27Z</time>
      </trkpt>
      <trkpt lat="49.37758" lon="-1.18092">
        <ele>4.4</ele>
        <time>2022-06-02T14:17:28Z</time>
      </trkpt>
      <trkpt lat="49.37758" lon="-1.18091">
        <ele>4.4</ele>
        <time>2022-06-02T14:17:29Z</time>
      </trkpt>
      <trkpt lat="49.37758" lon="-1.18091">
        <ele>4.4</ele>
        <time>2022-06-02T14:17:30Z</time>
      </trkpt>
      <trkpt lat="49.37758" lon="-1.18091">
        <ele>4.4</ele>
        <time>2022-06-02T14:17:31Z</time>
      </trkpt>
      <trkpt lat="49.37758" lon="-1.18091">
        <ele>4.4</ele>
        <time>2022-06-02T14:17:32Z</time>
      </trkpt>
      <trkpt lat="49.37758" lon="-1.18091">
        <ele>4.4</ele>
        <time>2022-06-02T14:17:33Z</time>
      </trkpt>
      <trkpt lat="49.37758" lon="-1.18091">
        <ele>4.4</ele>
        <time>2022-06-02T14:17:34Z</time>
      </trkpt>
      <trkpt lat="49.37758" lon="-1.18091">
        <ele>4.4</ele>
        <time>2022-06-02T14:17:35Z</time>
      </trkpt>
      <trkpt lat="49.37758" lon="-1.18091">
        <ele>4.4</ele>
        <time>2022-06-02T14:17:36Z</time>
      </trkpt>
      <trkpt lat="49.37758" lon="-1.18091">
        <ele>4.4</ele>
        <time>2022-06-02T14:17:37Z</time>
      </trkpt>
      <trkpt lat="49.37758" lon="-1.18091">
        <ele>4.4</ele>
        <time>2022-06-02T14:17:38Z</time>
      </trkpt>
      <trkpt lat="49.37758" lon="-1.18091">
        <ele>4.4</ele>
        <time>2022-06-02T14:17:39Z</time>
      </trkpt>
      <trkpt lat="49.37758" lon="-1.18091">
        <ele>4.4</ele>
        <time>2022-06-02T14:17:40Z</time>
      </trkpt>
      <trkpt lat="49.37758" lon="-1.18091">
        <ele>4.4</ele>
        <time>2022-06-02T14:17:41Z</time>
      </trkpt>
      <trkpt lat="49.37758" lon="-1.18091">
        <ele>4.4</ele>
        <time>2022-06-02T14:17:42Z</time>
      </trkpt>
      <trkpt lat="49.37758" lon="-1.1809">
        <ele>4.4</ele>
        <time>2022-06-02T14:17:43Z</time>
      </trkpt>
      <trkpt lat="49.37758" lon="-1.1809">
        <ele>4.4</ele>
        <time>2022-06-02T14:17:44Z</time>
      </trkpt>
      <trkpt lat="49.37758" lon="-1.1809">
        <ele>4.4</ele>
        <time>2022-06-02T14:17:45Z</time>
      </trkpt>
      <trkpt lat="49.37758" lon="-1.1809">
        <ele>4.4</ele>
        <time>2022-06-02T14:17:46Z</time>
      </trkpt>
      <trkpt lat="49.37758" lon="-1.1809">
        <ele>4.4</ele>
        <time>2022-06-02T14:17:47Z</time>
      </trkpt>
      <trkpt lat="49.37758" lon="-1.1809">
        <ele>4.4</ele>
        <time>2022-06-02T14:17:48Z</time>
      </trkpt>
      <trkpt lat="49.37758" lon="-1.1809">
        <ele>4.4</ele>
        <time>2022-06-02T14:17:49Z</time>
      </trkpt>
      <trkpt lat="49.37757" lon="-1.1809">
        <ele>4.4</ele>
        <time>2022-06-02T14:17:50Z</time>
      </trkpt>
      <trkpt lat="49.37757" lon="-1.1809">
        <ele>4.4</ele>
        <time>2022-06-02T14:17:51Z</time>
      </trkpt>
      <trkpt lat="49.37757" lon="-1.1809">
        <ele>4.4</ele>
        <time>2022-06-02T14:17:52Z</time>
      </trkpt>
      <trkpt lat="49.37757" lon="-1.1809">
        <ele>4.4</ele>
        <time>2022-06-02T14:17:53Z</time>
      </trkpt>
      <trkpt lat="49.37757" lon="-1.1809">
        <ele>4.4</ele>
        <time>2022-06-02T14:17:54Z</time>
      </trkpt>
      <trkpt lat="49.37757" lon="-1.1809">
        <ele>4.4</ele>
        <time>2022-06-02T14:17:55Z</time>
      </trkpt>
      <trkpt lat="49.37757" lon="-1.1809">
        <ele>4.4</ele>
        <time>2022-06-02T14:17:56Z</time>
      </trkpt>
      <trkpt lat="49.37757" lon="-1.18089">
        <ele>4.4</ele>
        <time>2022-06-02T14:17:57Z</time>
      </trkpt>
      <trkpt lat="49.37757" lon="-1.18089">
        <ele>4.4</ele>
        <time>2022-06-02T14:17:58Z</time>
      </trkpt>
      <trkpt lat="49.37757" lon="-1.18089">
        <ele>4.4</ele>
        <time>2022-06-02T14:17:59Z</time>
      </trkpt>
      <trkpt lat="49.37757" lon="-1.18089">
        <ele>4.4</ele>
        <time>2022-06-02T14:18:00Z</time>
      </trkpt>
      <trkpt lat="49.37757" lon="-1.18089">
        <ele>4.4</ele>
        <time>2022-06-02T14:18:01Z</time>
      </trkpt>
      <trkpt lat="49.37757" lon="-1.18089">
        <ele>4.4</ele>
        <time>2022-06-02T14:18:02Z</time>
      </trkpt>
      <trkpt lat="49.37757" lon="-1.18089">
        <ele>4.4</ele>
        <time>2022-06-02T14:18:03Z</time>
      </trkpt>
      <trkpt lat="49.37757" lon="-1.18089">
        <ele>4.4</ele>
        <time>2022-06-02T14:18:04Z</time>
      </trkpt>
      <trkpt lat="49.37757" lon="-1.18089">
        <ele>4.4</ele>
        <time>2022-06-02T14:18:05Z</time>
      </trkpt>
      <trkpt lat="49.37757" lon="-1.18089">
        <ele>4.4</ele>
        <time>2022-06-02T14:18:06Z</time>
      </trkpt>
      <trkpt lat="49.37757" lon="-1.18089">
        <ele>4.4</ele>
        <time>2022-06-02T14:18:07Z</time>
      </trkpt>
      <trkpt lat="49.37757" lon="-1.18089">
        <ele>4.4</ele>
        <time>2022-06-02T14:18:08Z</time>
      </trkpt>
      <trkpt lat="49.37757" lon="-1.18089">
        <ele>4.4</ele>
        <time>2022-06-02T14:18:09Z</time>
      </trkpt>
      <trkpt lat="49.37757" lon="-1.18089">
        <ele>4.4</ele>
        <time>2022-06-02T14:18:10Z</time>
      </trkpt>
      <trkpt lat="49.37757" lon="-1.18089">
        <ele>4.4</ele>
        <time>2022-06-02T14:18:11Z</time>
      </trkpt>
      <trkpt lat="49.37757" lon="-1.18088">
        <ele>4.4</ele>
        <time>2022-06-02T14:18:12Z</time>
      </trkpt>
      <trkpt lat="49.37757" lon="-1.18088">
        <ele>4.4</ele>
        <time>2022-06-02T14:18:13Z</time>
      </trkpt>
      <trkpt lat="49.37757" lon="-1.18088">
        <ele>4.4</ele>
        <time>2022-06-02T14:18:14Z</time>
      </trkpt>
      <trkpt lat="49.37757" lon="-1.18088">
        <ele>4.4</ele>
        <time>2022-06-02T14:18:15Z</time>
      </trkpt>
      <trkpt lat="49.37757" lon="-1.18088">
        <ele>4.4</ele>
        <time>2022-06-02T14:18:16Z</time>
      </trkpt>
      <trkpt lat="49.37757" lon="-1.18088">
        <ele>4.4</ele>
        <time>2022-06-02T14:18:17Z</time>
      </trkpt>
      <trkpt lat="49.37756" lon="-1.18088">
        <ele>4.4</ele>
        <time>2022-06-02T14:18:18Z</time>
      </trkpt>
      <trkpt lat="49.37756" lon="-1.18088">
        <ele>4.4</ele>
        <time>2022-06-02T14:18:19Z</time>
      </trkpt>
      <trkpt lat="49.37756" lon="-1.18088">
        <ele>4.4</ele>
        <time>2022-06-02T14:18:20Z</time>
      </trkpt>
      <trkpt lat="49.37756" lon="-1.18088">
        <ele>4.4</ele>
        <time>2022-06-02T14:18:21Z</time>
      </trkpt>
      <trkpt lat="49.37756" lon="-1.18088">
        <ele>4.4</ele>
        <time>2022-06-02T14:18:22Z</time>
      </trkpt>
      <trkpt lat="49.37756" lon="-1.18088">
        <ele>4.4</ele>
        <time>2022-06-02T14:18:23Z</time>
      </trkpt>
      <trkpt lat="49.37756" lon="-1.18088">
        <ele>4.4</ele>
        <time>2022-06-02T14:18:24Z</time>
      </trkpt>
      <trkpt lat="49.37756" lon="-1.18088">
        <ele>4.4</ele>
        <time>2022-06-02T14:18:25Z</time>
      </trkpt>
      <trkpt lat="49.37756" lon="-1.18087">
        <ele>4.4</ele>
        <time>2022-06-02T14:18:26Z</time>
      </trkpt>
      <trkpt lat="49.37756" lon="-1.18087">
        <ele>4.4</ele>
        <time>2022-06-02T14:18:27Z</time>
      </trkpt>
      <trkpt lat="49.37756" lon="-1.18087">
        <ele>4.4</ele>
        <time>2022-06-02T14:18:28Z</time>
      </trkpt>
      <trkpt lat="49.37756" lon="-1.18087">
        <ele>4.4</ele>
        <time>2022-06-02T14:18:29Z</time>
      </trkpt>
      <trkpt lat="49.37756" lon="-1.18087">
        <ele>4.4</ele>
        <time>2022-06-02T14:18:30Z</time>
      </trkpt>
      <trkpt lat="49.37756" lon="-1.18087">
        <ele>4.4</ele>
        <time>2022-06-02T14:18:31Z</time>
      </trkpt>
      <trkpt lat="49.37756" lon="-1.18087">
        <ele>4.4</ele>
        <time>2022-06-02T14:18:32Z</time>
      </trkpt>
      <trkpt lat="49.37756" lon="-1.18087">
        <ele>4.4</ele>
        <time>2022-06-02T14:18:33Z</time>
      </trkpt>
      <trkpt lat="49.37756" lon="-1.18087">
        <ele>4.4</ele>
        <time>2022-06-02T14:18:34Z</time>
      </trkpt>
      <trkpt lat="49.37756" lon="-1.18087">
        <ele>4.4</ele>
        <time>2022-06-02T14:18:35Z</time>
      </trkpt>
      <trkpt lat="49.37756" lon="-1.18087">
        <ele>4.4</ele>
        <time>2022-06-02T14:18:36Z</time>
      </trkpt>
      <trkpt lat="49.37756" lon="-1.18087">
        <ele>4.4</ele>
        <time>2022-06-02T14:18:37Z</time>
      </trkpt>
      <trkpt lat="49.37756" lon="-1.18087">
        <ele>4.4</ele>
        <time>2022-06-02T14:18:38Z</time>
      </trkpt>
      <trkpt lat="49.37756" lon="-1.18087">
        <ele>4.4</ele>
        <time>2022-06-02T14:18:39Z</time>
      </trkpt>
      <trkpt lat="49.37756" lon="-1.18086">
        <ele>4.4</ele>
        <time>2022-06-02T14:18:40Z</time>
      </trkpt>
      <trkpt lat="49.37756" lon="-1.18086">
        <ele>4.4</ele>
        <time>2022-06-02T14:18:41Z</time>
      </trkpt>
      <trkpt lat="49.37756" lon="-1.18086">
        <ele>4.4</ele>
        <time>2022-06-02T14:18:42Z</time>
      </trkpt>
      <trkpt lat="49.37756" lon="-1.18086">
        <ele>4.4</ele>
        <time>2022-06-02T14:18:43Z</time>
      </trkpt>
      <trkpt lat="49.37756" lon="-1.18086">
        <ele>4.4</ele>
        <time>2022-06-02T14:18:44Z</time>
      </trkpt>
      <trkpt lat="49.37756" lon="-1.18086">
        <ele>4.4</ele>
        <time>2022-06-02T14:18:45Z</time>
      </trkpt>
      <trkpt lat="49.37756" lon="-1.18086">
        <ele>4.4</ele>
        <time>2022-06-02T14:18:46Z</time>
      </trkpt>
      <trkpt lat="49.37755" lon="-1.18086">
        <ele>4.4</ele>
        <time>2022-06-02T14:18:47Z</time>
      </trkpt>
      <trkpt lat="49.37755" lon="-1.18086">
        <ele>4.4</ele>
        <time>2022-06-02T14:18:48Z</time>
      </trkpt>
      <trkpt lat="49.37755" lon="-1.18086">
        <ele>4.4</ele>
        <time>2022-06-02T14:18:49Z</time>
      </trkpt>
      <trkpt lat="49.37755" lon="-1.18086">
        <ele>4.4</ele>
        <time>2022-06-02T14:18:50Z</time>
      </trkpt>
      <trkpt lat="49.37755" lon="-1.18086">
        <ele>4.4</ele>
        <time>2022-06-02T14:18:51Z</time>
      </trkpt>
      <trkpt lat="49.37755" lon="-1.18086">
        <ele>4.4</ele>
        <time>2022-06-02T14:18:52Z</time>
      </trkpt>
      <trkpt lat="49.37755" lon="-1.18086">
        <ele>4.4</ele>
        <time>2022-06-02T14:18:53Z</time>
      </trkpt>
      <trkpt lat="49.37755" lon="-1.18085">
        <ele>4.4</ele>
        <time>2022-06-02T14:18:54Z</time>
      </trkpt>
      <trkpt lat="49.37755" lon="-1.18085">
        <ele>4.4</ele>
        <time>2022-06-02T14:18:55Z</time>
      </trkpt>
      <trkpt lat="49.37755" lon="-1.18085">
        <ele>4.4</ele>
        <time>2022-06-02T14:18:56Z</time>
      </trkpt>
      <trkpt lat="49.37755" lon="-1.18085">
        <ele>4.4</ele>
        <time>2022-06-02T14:18:57Z</time>
      </trkpt>
      <trkpt lat="49.37755" lon="-1.18085">
        <ele>4.4</ele>
        <time>2022-06-02T14:18:58Z</time>
      </trkpt>
      <trkpt lat="49.37755" lon="-1.18085">
        <ele>4.4</ele>
        <time>2022-06-02T14:18:59Z</time>
      </trkpt>
      <trkpt lat="49.37755" lon="-1.18085">
        <ele>4.4</ele>
        <time>2022-06-02T14:19:00Z</time>
      </trkpt>
      <trkpt lat="49.37755" lon="-1.18085">
        <ele>4.4</ele>
        <time>2022-06-02T14:19:01Z</time>
      </trkpt>
      <trkpt lat="49.37755" lon="-1.18085">
        <ele>4.4</ele>
        <time>2022-06-02T14:19:02Z</time>
      </trkpt>
      <trkpt lat="49.37755" lon="-1.18085">
        <ele>4.4</ele>
        <time>2022-06-02T14:19:03Z</time>
      </trkpt>
      <trkpt lat="49.37755" lon="-1.18085">
        <ele>4.4</ele>
        <time>2022-06-02T14:19:04Z</time>
      </trkpt>
      <trkpt lat="49.37755" lon="-1.18085">
        <ele>4.4</ele>
        <time>2022-06-02T14:19:05Z</time>
      </trkpt>
      <trkpt lat="49.37755" lon="-1.18085">
        <ele>4.4</ele>
        <time>2022-06-02T14:19:06Z</time>
      </trkpt>
      <trkpt lat="49.37755" lon="-1.18085">
        <ele>4.4</ele>
        <time>2022-06-02T14:19:08Z</time>
      </trkpt>
      <trkpt lat="49.37755" lon="-1.18084">
        <ele>4.4</ele>
        <time>2022-06-02T14:19:09Z</time>
      </trkpt>
      <trkpt lat="49.37755" lon="-1.18084">
        <ele>4.4</ele>
        <time>2022-06-02T14:19:10Z</time>
      </trkpt>
      <trkpt lat="49.37755" lon="-1.18084">
        <ele>4.4</ele>
        <time>2022-06-02T14:19:11Z</time>
      </trkpt>
      <trkpt lat="49.37755" lon="-1.18084">
        <ele>4.4</ele>
        <time>2022-06-02T14:19:12Z</time>
      </trkpt>
      <trkpt lat="49.37755" lon="-1.18084">
        <ele>4.4</ele>
        <time>2022-06-02T14:19:13Z</time>
      </trkpt>
      <trkpt lat="49.37755" lon="-1.18084">
        <ele>4.4</ele>
        <time>2022-06-02T14:19:14Z</time>
      </trkpt>
      <trkpt lat="49.37755" lon="-1.18084">
        <ele>4.4</ele>
        <time>2022-06-02T14:19:15Z</time>
      </trkpt>
      <trkpt lat="49.37754" lon="-1.18084">
        <ele>4.4</ele>
        <time>2022-06-02T14:19:16Z</time>
      </trkpt>
      <trkpt lat="49.37754" lon="-1.18084">
        <ele>4.4</ele>
        <time>2022-06-02T14:19:17Z</time>
      </trkpt>
      <trkpt lat="49.37754" lon="-1.18084">
        <ele>4.4</ele>
        <time>2022-06-02T14:19:18Z</time>
      </trkpt>
      <trkpt lat="49.37754" lon="-1.18084">
        <ele>4.4</ele>
        <time>2022-06-02T14:19:19Z</time>
      </trkpt>
      <trkpt lat="49.37754" lon="-1.18084">
        <ele>4.4</ele>
        <time>2022-06-02T14:19:20Z</time>
      </trkpt>
      <trkpt lat="49.37754" lon="-1.18084">
        <ele>4.4</ele>
        <time>2022-06-02T14:19:21Z</time>
      </trkpt>
      <trkpt lat="49.37754" lon="-1.18084">
        <ele>4.4</ele>
        <time>2022-06-02T14:19:22Z</time>
      </trkpt>
      <trkpt lat="49.37754" lon="-1.18084">
        <ele>4.4</ele>
        <time>2022-06-02T14:19:23Z</time>
      </trkpt>
      <trkpt lat="49.37754" lon="-1.18083">
        <ele>4.4</ele>
        <time>2022-06-02T14:19:24Z</time>
      </trkpt>
      <trkpt lat="49.37754" lon="-1.18083">
        <ele>4.4</ele>
        <time>2022-06-02T14:19:25Z</time>
      </trkpt>
      <trkpt lat="49.37754" lon="-1.18083">
        <ele>4.4</ele>
        <time>2022-06-02T14:19:26Z</time>
      </trkpt>
      <trkpt lat="49.37754" lon="-1.18083">
        <ele>4.4</ele>
        <time>2022-06-02T14:19:27Z</time>
      </trkpt>
      <trkpt lat="49.37754" lon="-1.18083">
        <ele>4.4</ele>
        <time>2022-06-02T14:19:28Z</time>
      </trkpt>
      <trkpt lat="49.37754" lon="-1.18083">
        <ele>4.4</ele>
        <time>2022-06-02T14:19:29Z</time>
      </trkpt>
      <trkpt lat="49.37754" lon="-1.18083">
        <ele>4.4</ele>
        <time>2022-06-02T14:19:30Z</time>
      </trkpt>
      <trkpt lat="49.37754" lon="-1.18083">
        <ele>4.4</ele>
        <time>2022-06-02T14:19:31Z</time>
      </trkpt>
      <trkpt lat="49.37754" lon="-1.18083">
        <ele>4.4</ele>
        <time>2022-06-02T14:19:32Z</time>
      </trkpt>
      <trkpt lat="49.37754" lon="-1.18083">
        <ele>4.4</ele>
        <time>2022-06-02T14:19:33Z</time>
      </trkpt>
      <trkpt lat="49.37754" lon="-1.18083">
        <ele>4.4</ele>
        <time>2022-06-02T14:19:34Z</time>
      </trkpt>
      <trkpt lat="49.37754" lon="-1.18083">
        <ele>4.4</ele>
        <time>2022-06-02T14:19:35Z</time>
      </trkpt>
      <trkpt lat="49.37754" lon="-1.18083">
        <ele>4.4</ele>
        <time>2022-06-02T14:19:36Z</time>
      </trkpt>
      <trkpt lat="49.37754" lon="-1.18083">
        <ele>4.4</ele>
        <time>2022-06-02T14:19:37Z</time>
      </trkpt>
      <trkpt lat="49.37754" lon="-1.18082">
        <ele>4.4</ele>
        <time>2022-06-02T14:19:38Z</time>
      </trkpt>
      <trkpt lat="49.37754" lon="-1.18082">
        <ele>4.4</ele>
        <time>2022-06-02T14:19:39Z</time>
      </trkpt>
      <trkpt lat="49.37754" lon="-1.18082">
        <ele>4.4</ele>
        <time>2022-06-02T14:19:40Z</time>
      </trkpt>
      <trkpt lat="49.37754" lon="-1.18082">
        <ele>4.4</ele>
        <time>2022-06-02T14:19:41Z</time>
      </trkpt>
      <trkpt lat="49.37754" lon="-1.18082">
        <ele>4.4</ele>
        <time>2022-06-02T14:19:42Z</time>
      </trkpt>
      <trkpt lat="49.37754" lon="-1.18082">
        <ele>4.4</ele>
        <time>2022-06-02T14:19:43Z</time>
      </trkpt>
      <trkpt lat="49.37754" lon="-1.18082">
        <ele>4.4</ele>
        <time>2022-06-02T14:19:44Z</time>
      </trkpt>
      <trkpt lat="49.37753" lon="-1.18082">
        <ele>4.4</ele>
        <time>2022-06-02T14:19:45Z</time>
      </trkpt>
      <trkpt lat="49.37753" lon="-1.18082">
        <ele>4.4</ele>
        <time>2022-06-02T14:19:46Z</time>
      </trkpt>
      <trkpt lat="49.37753" lon="-1.18082">
        <ele>4.4</ele>
        <time>2022-06-02T14:19:47Z</time>
      </trkpt>
      <trkpt lat="49.37753" lon="-1.18082">
        <ele>4.4</ele>
        <time>2022-06-02T14:19:48Z</time>
      </trkpt>
      <trkpt lat="49.37753" lon="-1.18082">
        <ele>4.4</ele>
        <time>2022-06-02T14:19:49Z</time>
      </trkpt>
      <trkpt lat="49.37753" lon="-1.18082">
        <ele>4.4</ele>
        <time>2022-06-02T14:19:50Z</time>
      </trkpt>
      <trkpt lat="49.37753" lon="-1.18082">
        <ele>4.4</ele>
        <time>2022-06-02T14:19:51Z</time>
      </trkpt>
      <trkpt lat="49.37753" lon="-1.18081">
        <ele>4.4</ele>
        <time>2022-06-02T14:19:52Z</time>
      </trkpt>
      <trkpt lat="49.37753" lon="-1.18081">
        <ele>4.4</ele>
        <time>2022-06-02T14:19:53Z</time>
      </trkpt>
      <trkpt lat="49.37753" lon="-1.18081">
        <ele>4.4</ele>
        <time>2022-06-02T14:19:54Z</time>
      </trkpt>
      <trkpt lat="49.37753" lon="-1.18081">
        <ele>4.4</ele>
        <time>2022-06-02T14:19:55Z</time>
      </trkpt>
      <trkpt lat="49.37753" lon="-1.18081">
        <ele>4.4</ele>
        <time>2022-06-02T14:20:17Z</time>
      </trkpt>
      <trkpt lat="49.37753" lon="-1.18081">
        <ele>4.4</ele>
        <time>2022-06-02T14:20:18Z</time>
      </trkpt>
      <trkpt lat="49.37755" lon="-1.18094">
        <ele>4.5</ele>
        <time>2022-06-02T14:20:19Z</time>
      </trkpt>
      <trkpt lat="49.37755" lon="-1.18096">
        <ele>4.5</ele>
        <time>2022-06-02T14:20:20Z</time>
      </trkpt>
      <trkpt lat="49.37755" lon="-1.18096">
        <ele>4.5</ele>
        <time>2022-06-02T14:20:21Z</time>
      </trkpt>
      <trkpt lat="49.37755" lon="-1.18096">
        <ele>4.5</ele>
        <time>2022-06-02T14:20:22Z</time>
      </trkpt>
      <trkpt lat="49.37755" lon="-1.18096">
        <ele>4.5</ele>
        <time>2022-06-02T14:20:23Z</time>
      </trkpt>
      <trkpt lat="49.37755" lon="-1.18096">
        <ele>4.5</ele>
        <time>2022-06-02T14:20:24Z</time>
      </trkpt>
      <trkpt lat="49.37755" lon="-1.18096">
        <ele>4.5</ele>
        <time>2022-06-02T14:20:25Z</time>
      </trkpt>
      <trkpt lat="49.37755" lon="-1.18096">
        <ele>4.5</ele>
        <time>2022-06-02T14:20:26Z</time>
      </trkpt>
      <trkpt lat="49.37755" lon="-1.18096">
        <ele>4.5</ele>
        <time>2022-06-02T14:20:27Z</time>
      </trkpt>
      <trkpt lat="49.37755" lon="-1.18096">
        <ele>4.5</ele>
        <time>2022-06-02T14:20:28Z</time>
      </trkpt>
      <trkpt lat="49.37755" lon="-1.18096">
        <ele>4.5</ele>
        <time>2022-06-02T14:20:29Z</time>
      </trkpt>
      <trkpt lat="49.37755" lon="-1.18096">
        <ele>4.5</ele>
        <time>2022-06-02T14:20:30Z</time>
      </trkpt>
      <trkpt lat="49.37755" lon="-1.18096">
        <ele>4.5</ele>
        <time>2022-06-02T14:20:31Z</time>
      </trkpt>
      <trkpt lat="49.37755" lon="-1.18096">
        <ele>4.5</ele>
        <time>2022-06-02T14:20:32Z</time>
      </trkpt>
      <trkpt lat="49.37755" lon="-1.18096">
        <ele>4.5</ele>
        <time>2022-06-02T14:20:33Z</time>
      </trkpt>
      <trkpt lat="49.37755" lon="-1.18096">
        <ele>4.5</ele>
        <time>2022-06-02T14:20:34Z</time>
      </trkpt>
      <trkpt lat="49.37755" lon="-1.18096">
        <ele>4.5</ele>
        <time>2022-06-02T14:20:35Z</time>
      </trkpt>
      <trkpt lat="49.37755" lon="-1.18096">
        <ele>4.5</ele>
        <time>2022-06-02T14:20:36Z</time>
      </trkpt>
      <trkpt lat="49.37755" lon="-1.18096">
        <ele>4.5</ele>
        <time>2022-06-02T14:20:37Z</time>
      </trkpt>
      <trkpt lat="49.37755" lon="-1.18096">
        <ele>4.5</ele>
        <time>2022-06-02T14:20:38Z</time>
      </trkpt>
      <trkpt lat="49.37755" lon="-1.18096">
        <ele>4.5</ele>
        <time>2022-06-02T14:20:39Z</time>
      </trkpt>
      <trkpt lat="49.37755" lon="-1.18096">
        <ele>4.5</ele>
        <time>2022-06-02T14:20:40Z</time>
      </trkpt>
      <trkpt lat="49.37755" lon="-1.18096">
        <ele>4.5</ele>
        <time>2022-06-02T14:20:41Z</time>
      </trkpt>
      <trkpt lat="49.37755" lon="-1.18096">
        <ele>4.5</ele>
        <time>2022-06-02T14:20:42Z</time>
      </trkpt>
      <trkpt lat="49.37755" lon="-1.18096">
        <ele>4.5</ele>
        <time>2022-06-02T14:20:43Z</time>
      </trkpt>
      <trkpt lat="49.37755" lon="-1.18096">
        <ele>4.5</ele>
        <time>2022-06-02T14:20:44Z</time>
      </trkpt>
      <trkpt lat="49.37755" lon="-1.18096">
        <ele>4.5</ele>
        <time>2022-06-02T14:20:45Z</time>
      </trkpt>
      <trkpt lat="49.37755" lon="-1.18096">
        <ele>4.5</ele>
        <time>2022-06-02T14:20:46Z</time>
      </trkpt>
      <trkpt lat="49.37755" lon="-1.18096">
        <ele>4.5</ele>
        <time>2022-06-02T14:20:47Z</time>
      </trkpt>
      <trkpt lat="49.37755" lon="-1.18096">
        <ele>4.5</ele>
        <time>2022-06-02T14:20:48Z</time>
      </trkpt>
      <trkpt lat="49.37755" lon="-1.18096">
        <ele>4.5</ele>
        <time>2022-06-02T14:20:49Z</time>
      </trkpt>
      <trkpt lat="49.37755" lon="-1.18096">
        <ele>4.5</ele>
        <time>2022-06-02T14:20:50Z</time>
      </trkpt>
      <trkpt lat="49.37755" lon="-1.18096">
        <ele>4.5</ele>
        <time>2022-06-02T14:20:51Z</time>
      </trkpt>
      <trkpt lat="49.37755" lon="-1.18096">
        <ele>4.5</ele>
        <time>2022-06-02T14:20:52Z</time>
      </trkpt>
      <trkpt lat="49.37755" lon="-1.18096">
        <ele>4.5</ele>
        <time>2022-06-02T14:20:53Z</time>
      </trkpt>
      <trkpt lat="49.37755" lon="-1.18096">
        <ele>4.5</ele>
        <time>2022-06-02T14:20:54Z</time>
      </trkpt>
      <trkpt lat="49.37755" lon="-1.18096">
        <ele>4.5</ele>
        <time>2022-06-02T14:20:55Z</time>
      </trkpt>
      <trkpt lat="49.37755" lon="-1.18096">
        <ele>4.5</ele>
        <time>2022-06-02T14:20:56Z</time>
      </trkpt>
      <trkpt lat="49.37755" lon="-1.18096">
        <ele>4.5</ele>
        <time>2022-06-02T14:20:57Z</time>
      </trkpt>
      <trkpt lat="49.37755" lon="-1.18096">
        <ele>4.5</ele>
        <time>2022-06-02T14:20:58Z</time>
      </trkpt>
      <trkpt lat="49.37755" lon="-1.18096">
        <ele>4.5</ele>
        <time>2022-06-02T14:20:59Z</time>
      </trkpt>
      <trkpt lat="49.37755" lon="-1.18096">
        <ele>4.5</ele>
        <time>2022-06-02T14:21:00Z</time>
      </trkpt>
      <trkpt lat="49.37755" lon="-1.18096">
        <ele>4.5</ele>
        <time>2022-06-02T14:21:01Z</time>
      </trkpt>
      <trkpt lat="49.37755" lon="-1.18096">
        <ele>4.5</ele>
        <time>2022-06-02T14:21:02Z</time>
      </trkpt>
      <trkpt lat="49.37755" lon="-1.18096">
        <ele>4.5</ele>
        <time>2022-06-02T14:21:03Z</time>
      </trkpt>
      <trkpt lat="49.37755" lon="-1.18096">
        <ele>4.5</ele>
        <time>2022-06-02T14:21:04Z</time>
      </trkpt>
      <trkpt lat="49.37755" lon="-1.18096">
        <ele>4.5</ele>
        <time>2022-06-02T14:21:05Z</time>
      </trkpt>
      <trkpt lat="49.37755" lon="-1.18096">
        <ele>4.5</ele>
        <time>2022-06-02T14:21:06Z</time>
      </trkpt>
      <trkpt lat="49.37755" lon="-1.18096">
        <ele>4.5</ele>
        <time>2022-06-02T14:21:07Z</time>
      </trkpt>
      <trkpt lat="49.37755" lon="-1.18096">
        <ele>4.5</ele>
        <time>2022-06-02T14:21:08Z</time>
      </trkpt>
      <trkpt lat="49.37755" lon="-1.18096">
        <ele>4.5</ele>
        <time>2022-06-02T14:21:09Z</time>
      </trkpt>
      <trkpt lat="49.37755" lon="-1.18096">
        <ele>4.5</ele>
        <time>2022-06-02T14:21:10Z</time>
      </trkpt>
      <trkpt lat="49.37755" lon="-1.18096">
        <ele>4.5</ele>
        <time>2022-06-02T14:21:11Z</time>
      </trkpt>
      <trkpt lat="49.37755" lon="-1.18096">
        <ele>4.5</ele>
        <time>2022-06-02T14:21:12Z</time>
      </trkpt>
      <trkpt lat="49.37755" lon="-1.18096">
        <ele>4.5</ele>
        <time>2022-06-02T14:21:13Z</time>
      </trkpt>
      <trkpt lat="49.37755" lon="-1.18096">
        <ele>4.5</ele>
        <time>2022-06-02T14:21:14Z</time>
      </trkpt>
      <trkpt lat="49.37755" lon="-1.18096">
        <ele>4.5</ele>
        <time>2022-06-02T14:21:15Z</time>
      </trkpt>
      <trkpt lat="49.37755" lon="-1.18096">
        <ele>4.5</ele>
        <time>2022-06-02T14:21:16Z</time>
      </trkpt>
      <trkpt lat="49.37755" lon="-1.18096">
        <ele>4.5</ele>
        <time>2022-06-02T14:21:17Z</time>
      </trkpt>
      <trkpt lat="49.37755" lon="-1.18096">
        <ele>4.5</ele>
        <time>2022-06-02T14:21:18Z</time>
      </trkpt>
      <trkpt lat="49.37755" lon="-1.18096">
        <ele>4.5</ele>
        <time>2022-06-02T14:21:19Z</time>
      </trkpt>
      <trkpt lat="49.37755" lon="-1.18096">
        <ele>4.5</ele>
        <time>2022-06-02T14:21:20Z</time>
      </trkpt>
      <trkpt lat="49.37755" lon="-1.18096">
        <ele>4.5</ele>
        <time>2022-06-02T14:21:21Z</time>
      </trkpt>
      <trkpt lat="49.37755" lon="-1.18096">
        <ele>4.5</ele>
        <time>2022-06-02T14:21:22Z</time>
      </trkpt>
      <trkpt lat="49.37755" lon="-1.18096">
        <ele>4.5</ele>
        <time>2022-06-02T14:21:23Z</time>
      </trkpt>
      <trkpt lat="49.37755" lon="-1.18096">
        <ele>4.5</ele>
        <time>2022-06-02T14:21:24Z</time>
      </trkpt>
      <trkpt lat="49.37755" lon="-1.18096">
        <ele>4.5</ele>
        <time>2022-06-02T14:21:25Z</time>
      </trkpt>
      <trkpt lat="49.37755" lon="-1.18096">
        <ele>4.5</ele>
        <time>2022-06-02T14:21:26Z</time>
      </trkpt>
      <trkpt lat="49.37755" lon="-1.18096">
        <ele>4.5</ele>
        <time>2022-06-02T14:21:27Z</time>
      </trkpt>
      <trkpt lat="49.37755" lon="-1.18096">
        <ele>4.5</ele>
        <time>2022-06-02T14:21:28Z</time>
      </trkpt>
      <trkpt lat="49.37755" lon="-1.18096">
        <ele>4.5</ele>
        <time>2022-06-02T14:21:29Z</time>
      </trkpt>
      <trkpt lat="49.37755" lon="-1.18096">
        <ele>4.5</ele>
        <time>2022-06-02T14:21:30Z</time>
      </trkpt>
      <trkpt lat="49.37755" lon="-1.18096">
        <ele>4.5</ele>
        <time>2022-06-02T14:21:31Z</time>
      </trkpt>
      <trkpt lat="49.37755" lon="-1.18096">
        <ele>4.5</ele>
        <time>2022-06-02T14:21:32Z</time>
      </trkpt>
      <trkpt lat="49.37755" lon="-1.18096">
        <ele>4.5</ele>
        <time>2022-06-02T14:21:33Z</time>
      </trkpt>
      <trkpt lat="49.37755" lon="-1.18096">
        <ele>4.5</ele>
        <time>2022-06-02T14:21:34Z</time>
      </trkpt>
      <trkpt lat="49.37755" lon="-1.18096">
        <ele>4.5</ele>
        <time>2022-06-02T14:21:35Z</time>
      </trkpt>
      <trkpt lat="49.37755" lon="-1.18096">
        <ele>4.5</ele>
        <time>2022-06-02T14:21:36Z</time>
      </trkpt>
      <trkpt lat="49.37755" lon="-1.18096">
        <ele>4.5</ele>
        <time>2022-06-02T14:21:37Z</time>
      </trkpt>
      <trkpt lat="49.37755" lon="-1.18096">
        <ele>4.5</ele>
        <time>2022-06-02T14:21:38Z</time>
      </trkpt>
      <trkpt lat="49.37755" lon="-1.18096">
        <ele>4.5</ele>
        <time>2022-06-02T14:21:39Z</time>
      </trkpt>
      <trkpt lat="49.37755" lon="-1.18096">
        <ele>4.5</ele>
        <time>2022-06-02T14:21:40Z</time>
      </trkpt>
      <trkpt lat="49.37755" lon="-1.18096">
        <ele>4.5</ele>
        <time>2022-06-02T14:21:41Z</time>
      </trkpt>
      <trkpt lat="49.37755" lon="-1.18096">
        <ele>4.5</ele>
        <time>2022-06-02T14:21:42Z</time>
      </trkpt>
      <trkpt lat="49.37755" lon="-1.18096">
        <ele>4.5</ele>
        <time>2022-06-02T14:21:43Z</time>
      </trkpt>
      <trkpt lat="49.37755" lon="-1.18096">
        <ele>4.5</ele>
        <time>2022-06-02T14:21:44Z</time>
      </trkpt>
      <trkpt lat="49.37755" lon="-1.18096">
        <ele>4.5</ele>
        <time>2022-06-02T14:21:45Z</time>
      </trkpt>
      <trkpt lat="49.37755" lon="-1.18096">
        <ele>4.5</ele>
        <time>2022-06-02T14:21:46Z</time>
      </trkpt>
      <trkpt lat="49.37755" lon="-1.18096">
        <ele>4.5</ele>
        <time>2022-06-02T14:21:47Z</time>
      </trkpt>
      <trkpt lat="49.37755" lon="-1.18096">
        <ele>4.5</ele>
        <time>2022-06-02T14:21:48Z</time>
      </trkpt>
      <trkpt lat="49.37755" lon="-1.18096">
        <ele>4.5</ele>
        <time>2022-06-02T14:21:49Z</time>
      </trkpt>
      <trkpt lat="49.37755" lon="-1.18096">
        <ele>4.5</ele>
        <time>2022-06-02T14:21:50Z</time>
      </trkpt>
      <trkpt lat="49.37755" lon="-1.18096">
        <ele>4.5</ele>
        <time>2022-06-02T14:21:51Z</time>
      </trkpt>
      <trkpt lat="49.37755" lon="-1.18096">
        <ele>4.5</ele>
        <time>2022-06-02T14:21:52Z</time>
      </trkpt>
      <trkpt lat="49.37755" lon="-1.18096">
        <ele>4.5</ele>
        <time>2022-06-02T14:21:53Z</time>
      </trkpt>
      <trkpt lat="49.37755" lon="-1.18096">
        <ele>4.5</ele>
        <time>2022-06-02T14:21:54Z</time>
      </trkpt>
      <trkpt lat="49.37755" lon="-1.18096">
        <ele>4.5</ele>
        <time>2022-06-02T14:21:55Z</time>
      </trkpt>
      <trkpt lat="49.37755" lon="-1.18096">
        <ele>4.5</ele>
        <time>2022-06-02T14:21:56Z</time>
      </trkpt>
      <trkpt lat="49.37755" lon="-1.18096">
        <ele>4.5</ele>
        <time>2022-06-02T14:21:57Z</time>
      </trkpt>
      <trkpt lat="49.37755" lon="-1.18096">
        <ele>4.5</ele>
        <time>2022-06-02T14:21:58Z</time>
      </trkpt>
      <trkpt lat="49.37755" lon="-1.18096">
        <ele>4.5</ele>
        <time>2022-06-02T14:21:59Z</time>
      </trkpt>
      <trkpt lat="49.37755" lon="-1.18096">
        <ele>4.5</ele>
        <time>2022-06-02T14:22:00Z</time>
      </trkpt>
      <trkpt lat="49.37755" lon="-1.18096">
        <ele>4.5</ele>
        <time>2022-06-02T14:22:01Z</time>
      </trkpt>
      <trkpt lat="49.37755" lon="-1.18096">
        <ele>4.5</ele>
        <time>2022-06-02T14:22:02Z</time>
      </trkpt>
      <trkpt lat="49.37755" lon="-1.18096">
        <ele>4.5</ele>
        <time>2022-06-02T14:22:03Z</time>
      </trkpt>
      <trkpt lat="49.37755" lon="-1.18096">
        <ele>4.5</ele>
        <time>2022-06-02T14:22:04Z</time>
      </trkpt>
      <trkpt lat="49.37755" lon="-1.18096">
        <ele>4.5</ele>
        <time>2022-06-02T14:22:05Z</time>
      </trkpt>
      <trkpt lat="49.37755" lon="-1.18096">
        <ele>4.5</ele>
        <time>2022-06-02T14:22:06Z</time>
      </trkpt>
      <trkpt lat="49.37755" lon="-1.18096">
        <ele>4.5</ele>
        <time>2022-06-02T14:22:07Z</time>
      </trkpt>
      <trkpt lat="49.37755" lon="-1.18096">
        <ele>4.5</ele>
        <time>2022-06-02T14:22:08Z</time>
      </trkpt>
      <trkpt lat="49.37755" lon="-1.18096">
        <ele>4.5</ele>
        <time>2022-06-02T14:22:09Z</time>
      </trkpt>
      <trkpt lat="49.37755" lon="-1.18096">
        <ele>4.5</ele>
        <time>2022-06-02T14:22:10Z</time>
      </trkpt>
      <trkpt lat="49.37755" lon="-1.18096">
        <ele>4.5</ele>
        <time>2022-06-02T14:22:11Z</time>
      </trkpt>
      <trkpt lat="49.37755" lon="-1.18096">
        <ele>4.5</ele>
        <time>2022-06-02T14:22:12Z</time>
      </trkpt>
      <trkpt lat="49.37755" lon="-1.18096">
        <ele>4.5</ele>
        <time>2022-06-02T14:22:13Z</time>
      </trkpt>
      <trkpt lat="49.37755" lon="-1.18096">
        <ele>4.5</ele>
        <time>2022-06-02T14:22:14Z</time>
      </trkpt>
      <trkpt lat="49.37755" lon="-1.18096">
        <ele>4.5</ele>
        <time>2022-06-02T14:22:15Z</time>
      </trkpt>
      <trkpt lat="49.37755" lon="-1.18096">
        <ele>4.5</ele>
        <time>2022-06-02T14:22:16Z</time>
      </trkpt>
      <trkpt lat="49.37755" lon="-1.18096">
        <ele>4.5</ele>
        <time>2022-06-02T14:22:17Z</time>
      </trkpt>
      <trkpt lat="49.37755" lon="-1.18096">
        <ele>4.5</ele>
        <time>2022-06-02T14:22:18Z</time>
      </trkpt>
      <trkpt lat="49.37755" lon="-1.18096">
        <ele>4.5</ele>
        <time>2022-06-02T14:22:19Z</time>
      </trkpt>
      <trkpt lat="49.37755" lon="-1.18096">
        <ele>4.5</ele>
        <time>2022-06-02T14:22:20Z</time>
      </trkpt>
      <trkpt lat="49.37755" lon="-1.18096">
        <ele>4.5</ele>
        <time>2022-06-02T14:22:21Z</time>
      </trkpt>
      <trkpt lat="49.37755" lon="-1.18096">
        <ele>4.5</ele>
        <time>2022-06-02T14:22:22Z</time>
      </trkpt>
      <trkpt lat="49.37755" lon="-1.18096">
        <ele>4.5</ele>
        <time>2022-06-02T14:22:23Z</time>
      </trkpt>
      <trkpt lat="49.37755" lon="-1.18096">
        <ele>4.5</ele>
        <time>2022-06-02T14:22:24Z</time>
      </trkpt>
      <trkpt lat="49.37755" lon="-1.18096">
        <ele>4.5</ele>
        <time>2022-06-02T14:22:25Z</time>
      </trkpt>
      <trkpt lat="49.37755" lon="-1.18096">
        <ele>4.5</ele>
        <time>2022-06-02T14:22:26Z</time>
      </trkpt>
      <trkpt lat="49.37755" lon="-1.18096">
        <ele>4.5</ele>
        <time>2022-06-02T14:22:27Z</time>
      </trkpt>
      <trkpt lat="49.37755" lon="-1.18096">
        <ele>4.5</ele>
        <time>2022-06-02T14:22:28Z</time>
      </trkpt>
      <trkpt lat="49.37755" lon="-1.18096">
        <ele>4.5</ele>
        <time>2022-06-02T14:22:29Z</time>
      </trkpt>
      <trkpt lat="49.37755" lon="-1.18096">
        <ele>4.5</ele>
        <time>2022-06-02T14:22:30Z</time>
      </trkpt>
      <trkpt lat="49.37755" lon="-1.18096">
        <ele>4.5</ele>
        <time>2022-06-02T14:22:31Z</time>
      </trkpt>
      <trkpt lat="49.37755" lon="-1.18096">
        <ele>4.5</ele>
        <time>2022-06-02T14:22:32Z</time>
      </trkpt>
      <trkpt lat="49.37755" lon="-1.18096">
        <ele>4.5</ele>
        <time>2022-06-02T14:22:33Z</time>
      </trkpt>
      <trkpt lat="49.37755" lon="-1.18096">
        <ele>4.5</ele>
        <time>2022-06-02T14:22:34Z</time>
      </trkpt>
      <trkpt lat="49.37755" lon="-1.18096">
        <ele>4.5</ele>
        <time>2022-06-02T14:22:35Z</time>
      </trkpt>
      <trkpt lat="49.37755" lon="-1.18096">
        <ele>4.5</ele>
        <time>2022-06-02T14:22:36Z</time>
      </trkpt>
      <trkpt lat="49.37755" lon="-1.18096">
        <ele>4.5</ele>
        <time>2022-06-02T14:22:37Z</time>
      </trkpt>
      <trkpt lat="49.37755" lon="-1.18096">
        <ele>4.5</ele>
        <time>2022-06-02T14:22:38Z</time>
      </trkpt>
      <trkpt lat="49.37755" lon="-1.18096">
        <ele>4.5</ele>
        <time>2022-06-02T14:22:39Z</time>
      </trkpt>
      <trkpt lat="49.37755" lon="-1.18096">
        <ele>4.5</ele>
        <time>2022-06-02T14:22:40Z</time>
      </trkpt>
      <trkpt lat="49.37755" lon="-1.18096">
        <ele>4.5</ele>
        <time>2022-06-02T14:22:41Z</time>
      </trkpt>
      <trkpt lat="49.37755" lon="-1.18096">
        <ele>4.5</ele>
        <time>2022-06-02T14:22:42Z</time>
      </trkpt>
      <trkpt lat="49.37755" lon="-1.18096">
        <ele>4.5</ele>
        <time>2022-06-02T14:22:43Z</time>
      </trkpt>
      <trkpt lat="49.37755" lon="-1.18096">
        <ele>4.5</ele>
        <time>2022-06-02T14:22:44Z</time>
      </trkpt>
      <trkpt lat="49.37755" lon="-1.18096">
        <ele>4.5</ele>
        <time>2022-06-02T14:22:45Z</time>
      </trkpt>
      <trkpt lat="49.37755" lon="-1.18096">
        <ele>4.5</ele>
        <time>2022-06-02T14:22:46Z</time>
      </trkpt>
      <trkpt lat="49.37755" lon="-1.18096">
        <ele>4.5</ele>
        <time>2022-06-02T14:22:47Z</time>
      </trkpt>
      <trkpt lat="49.37755" lon="-1.18096">
        <ele>4.5</ele>
        <time>2022-06-02T14:22:48Z</time>
      </trkpt>
      <trkpt lat="49.37755" lon="-1.18096">
        <ele>4.5</ele>
        <time>2022-06-02T14:22:49Z</time>
      </trkpt>
      <trkpt lat="49.37755" lon="-1.18096">
        <ele>4.5</ele>
        <time>2022-06-02T14:22:50Z</time>
      </trkpt>
      <trkpt lat="49.37755" lon="-1.18096">
        <ele>4.5</ele>
        <time>2022-06-02T14:22:51Z</time>
      </trkpt>
      <trkpt lat="49.37755" lon="-1.18096">
        <ele>4.5</ele>
        <time>2022-06-02T14:22:52Z</time>
      </trkpt>
      <trkpt lat="49.37755" lon="-1.18096">
        <ele>4.5</ele>
        <time>2022-06-02T14:22:53Z</time>
      </trkpt>
      <trkpt lat="49.37755" lon="-1.18096">
        <ele>4.5</ele>
        <time>2022-06-02T14:22:54Z</time>
      </trkpt>
      <trkpt lat="49.37755" lon="-1.18096">
        <ele>4.5</ele>
        <time>2022-06-02T14:22:55Z</time>
      </trkpt>
      <trkpt lat="49.37755" lon="-1.18096">
        <ele>4.5</ele>
        <time>2022-06-02T14:22:56Z</time>
      </trkpt>
      <trkpt lat="49.37755" lon="-1.18096">
        <ele>4.5</ele>
        <time>2022-06-02T14:22:57Z</time>
      </trkpt>
      <trkpt lat="49.37755" lon="-1.18096">
        <ele>4.5</ele>
        <time>2022-06-02T14:22:58Z</time>
      </trkpt>
      <trkpt lat="49.37755" lon="-1.18096">
        <ele>4.5</ele>
        <time>2022-06-02T14:22:59Z</time>
      </trkpt>
      <trkpt lat="49.37755" lon="-1.18096">
        <ele>4.5</ele>
        <time>2022-06-02T14:23:00Z</time>
      </trkpt>
      <trkpt lat="49.37755" lon="-1.18096">
        <ele>4.5</ele>
        <time>2022-06-02T14:23:01Z</time>
      </trkpt>
      <trkpt lat="49.37755" lon="-1.18096">
        <ele>4.5</ele>
        <time>2022-06-02T14:23:02Z</time>
      </trkpt>
      <trkpt lat="49.37755" lon="-1.18096">
        <ele>4.5</ele>
        <time>2022-06-02T14:23:03Z</time>
      </trkpt>
      <trkpt lat="49.37755" lon="-1.18096">
        <ele>4.5</ele>
        <time>2022-06-02T14:23:04Z</time>
      </trkpt>
      <trkpt lat="49.37755" lon="-1.18096">
        <ele>4.5</ele>
        <time>2022-06-02T14:23:05Z</time>
      </trkpt>
      <trkpt lat="49.37755" lon="-1.18096">
        <ele>4.5</ele>
        <time>2022-06-02T14:23:06Z</time>
      </trkpt>
      <trkpt lat="49.37755" lon="-1.18096">
        <ele>4.5</ele>
        <time>2022-06-02T14:23:07Z</time>
      </trkpt>
      <trkpt lat="49.37755" lon="-1.18096">
        <ele>4.5</ele>
        <time>2022-06-02T14:23:08Z</time>
      </trkpt>
      <trkpt lat="49.37755" lon="-1.18096">
        <ele>4.5</ele>
        <time>2022-06-02T14:23:09Z</time>
      </trkpt>
      <trkpt lat="49.37755" lon="-1.18096">
        <ele>4.5</ele>
        <time>2022-06-02T14:23:10Z</time>
      </trkpt>
      <trkpt lat="49.37755" lon="-1.18096">
        <ele>4.5</ele>
        <time>2022-06-02T14:23:11Z</time>
      </trkpt>
      <trkpt lat="49.37755" lon="-1.18096">
        <ele>4.5</ele>
        <time>2022-06-02T14:23:12Z</time>
      </trkpt>
      <trkpt lat="49.37755" lon="-1.18096">
        <ele>4.5</ele>
        <time>2022-06-02T14:23:13Z</time>
      </trkpt>
      <trkpt lat="49.37755" lon="-1.18096">
        <ele>4.5</ele>
        <time>2022-06-02T14:23:14Z</time>
      </trkpt>
      <trkpt lat="49.37755" lon="-1.18096">
        <ele>4.5</ele>
        <time>2022-06-02T14:23:15Z</time>
      </trkpt>
      <trkpt lat="49.37755" lon="-1.18096">
        <ele>4.5</ele>
        <time>2022-06-02T14:23:16Z</time>
      </trkpt>
      <trkpt lat="49.37755" lon="-1.18096">
        <ele>4.5</ele>
        <time>2022-06-02T14:23:17Z</time>
      </trkpt>
      <trkpt lat="49.37755" lon="-1.18096">
        <ele>4.5</ele>
        <time>2022-06-02T14:23:18Z</time>
      </trkpt>
      <trkpt lat="49.37755" lon="-1.18096">
        <ele>4.5</ele>
        <time>2022-06-02T14:23:19Z</time>
      </trkpt>
      <trkpt lat="49.37755" lon="-1.18096">
        <ele>4.5</ele>
        <time>2022-06-02T14:23:20Z</time>
      </trkpt>
      <trkpt lat="49.37755" lon="-1.18096">
        <ele>4.5</ele>
        <time>2022-06-02T14:23:21Z</time>
      </trkpt>
      <trkpt lat="49.37755" lon="-1.18096">
        <ele>4.5</ele>
        <time>2022-06-02T14:23:22Z</time>
      </trkpt>
      <trkpt lat="49.37755" lon="-1.18096">
        <ele>4.5</ele>
        <time>2022-06-02T14:23:23Z</time>
      </trkpt>
      <trkpt lat="49.37755" lon="-1.18096">
        <ele>4.5</ele>
        <time>2022-06-02T14:23:24Z</time>
      </trkpt>
      <trkpt lat="49.37755" lon="-1.18096">
        <ele>4.5</ele>
        <time>2022-06-02T14:23:25Z</time>
      </trkpt>
      <trkpt lat="49.37755" lon="-1.18096">
        <ele>4.5</ele>
        <time>2022-06-02T14:23:26Z</time>
      </trkpt>
      <trkpt lat="49.37755" lon="-1.18096">
        <ele>4.5</ele>
        <time>2022-06-02T14:23:27Z</time>
      </trkpt>
      <trkpt lat="49.37755" lon="-1.18096">
        <ele>4.5</ele>
        <time>2022-06-02T14:23:28Z</time>
      </trkpt>
      <trkpt lat="49.37755" lon="-1.18097">
        <ele>4.5</ele>
        <time>2022-06-02T14:23:29Z</time>
      </trkpt>
      <trkpt lat="49.37755" lon="-1.18097">
        <ele>4.5</ele>
        <time>2022-06-02T14:23:30Z</time>
      </trkpt>
      <trkpt lat="49.37755" lon="-1.18098">
        <ele>4.5</ele>
        <time>2022-06-02T14:23:31Z</time>
      </trkpt>
      <trkpt lat="49.37755" lon="-1.18098">
        <ele>4.5</ele>
        <time>2022-06-02T14:23:32Z</time>
      </trkpt>
      <trkpt lat="49.37754" lon="-1.18099">
        <ele>4.5</ele>
        <time>2022-06-02T14:23:33Z</time>
      </trkpt>
      <trkpt lat="49.37754" lon="-1.18099">
        <ele>4.5</ele>
        <time>2022-06-02T14:23:34Z</time>
      </trkpt>
      <trkpt lat="49.37754" lon="-1.18099">
        <ele>4.5</ele>
        <time>2022-06-02T14:23:35Z</time>
      </trkpt>
      <trkpt lat="49.37754" lon="-1.181">
        <ele>4.5</ele>
        <time>2022-06-02T14:23:36Z</time>
      </trkpt>
      <trkpt lat="49.37753" lon="-1.18101">
        <ele>4.5</ele>
        <time>2022-06-02T14:23:37Z</time>
      </trkpt>
      <trkpt lat="49.37753" lon="-1.18101">
        <ele>4.5</ele>
        <time>2022-06-02T14:23:38Z</time>
      </trkpt>
      <trkpt lat="49.37753" lon="-1.18102">
        <ele>4.5</ele>
        <time>2022-06-02T14:23:39Z</time>
      </trkpt>
      <trkpt lat="49.37753" lon="-1.18103">
        <ele>4.5</ele>
        <time>2022-06-02T14:23:40Z</time>
      </trkpt>
      <trkpt lat="49.37752" lon="-1.18106">
        <ele>4.5</ele>
        <time>2022-06-02T14:23:41Z</time>
      </trkpt>
      <trkpt lat="49.37751" lon="-1.18107">
        <ele>4.5</ele>
        <time>2022-06-02T14:23:42Z</time>
      </trkpt>
      <trkpt lat="49.37751" lon="-1.18108">
        <ele>4.5</ele>
        <time>2022-06-02T14:23:43Z</time>
      </trkpt>
      <trkpt lat="49.3775" lon="-1.1811">
        <ele>4.5</ele>
        <time>2022-06-02T14:23:44Z</time>
      </trkpt>
      <trkpt lat="49.37749" lon="-1.18113">
        <ele>4.5</ele>
        <time>2022-06-02T14:23:45Z</time>
      </trkpt>
      <trkpt lat="49.37748" lon="-1.18115">
        <ele>4.5</ele>
        <time>2022-06-02T14:23:46Z</time>
      </trkpt>
      <trkpt lat="49.37747" lon="-1.18117">
        <ele>4.6</ele>
        <time>2022-06-02T14:23:47Z</time>
      </trkpt>
      <trkpt lat="49.37746" lon="-1.18119">
        <ele>4.6</ele>
        <time>2022-06-02T14:23:49Z</time>
      </trkpt>
      <trkpt lat="49.37745" lon="-1.18121">
        <ele>4.6</ele>
        <time>2022-06-02T14:23:50Z</time>
      </trkpt>
      <trkpt lat="49.37744" lon="-1.18123">
        <ele>4.6</ele>
        <time>2022-06-02T14:23:51Z</time>
      </trkpt>
      <trkpt lat="49.37744" lon="-1.18123">
        <ele>4.6</ele>
        <time>2022-06-02T14:23:52Z</time>
      </trkpt>
      <trkpt lat="49.37743" lon="-1.18124">
        <ele>4.6</ele>
        <time>2022-06-02T14:23:53Z</time>
      </trkpt>
      <trkpt lat="49.37743" lon="-1.18126">
        <ele>4.6</ele>
        <time>2022-06-02T14:23:54Z</time>
      </trkpt>
      <trkpt lat="49.37742" lon="-1.18128">
        <ele>4.6</ele>
        <time>2022-06-02T14:23:55Z</time>
      </trkpt>
      <trkpt lat="49.37741" lon="-1.1813">
        <ele>4.6</ele>
        <time>2022-06-02T14:23:57Z</time>
      </trkpt>
      <trkpt lat="49.3774" lon="-1.18132">
        <ele>4.6</ele>
        <time>2022-06-02T14:23:58Z</time>
      </trkpt>
      <trkpt lat="49.37739" lon="-1.18134">
        <ele>4.6</ele>
        <time>2022-06-02T14:23:59Z</time>
      </trkpt>
      <trkpt lat="49.37738" lon="-1.18135">
        <ele>4.7</ele>
        <time>2022-06-02T14:24:00Z</time>
      </trkpt>
      <trkpt lat="49.37738" lon="-1.18135">
        <ele>4.7</ele>
        <time>2022-06-02T14:24:01Z</time>
      </trkpt>
      <trkpt lat="49.37737" lon="-1.18136">
        <ele>4.7</ele>
        <time>2022-06-02T14:24:02Z</time>
      </trkpt>
      <trkpt lat="49.37736" lon="-1.18138">
        <ele>4.7</ele>
        <time>2022-06-02T14:24:03Z</time>
      </trkpt>
      <trkpt lat="49.37735" lon="-1.18139">
        <ele>4.7</ele>
        <time>2022-06-02T14:24:05Z</time>
      </trkpt>
      <trkpt lat="49.37735" lon="-1.18141">
        <ele>4.7</ele>
        <time>2022-06-02T14:24:06Z</time>
      </trkpt>
      <trkpt lat="49.37734" lon="-1.18142">
        <ele>4.7</ele>
        <time>2022-06-02T14:24:07Z</time>
      </trkpt>
      <trkpt lat="49.37733" lon="-1.18143">
        <ele>4.7</ele>
        <time>2022-06-02T14:24:08Z</time>
      </trkpt>
      <trkpt lat="49.37733" lon="-1.18144">
        <ele>4.7</ele>
        <time>2022-06-02T14:24:09Z</time>
      </trkpt>
      <trkpt lat="49.37732" lon="-1.18145">
        <ele>4.7</ele>
        <time>2022-06-02T14:24:10Z</time>
      </trkpt>
      <trkpt lat="49.37731" lon="-1.18147">
        <ele>4.8</ele>
        <time>2022-06-02T14:24:11Z</time>
      </trkpt>
      <trkpt lat="49.3773" lon="-1.18149">
        <ele>4.8</ele>
        <time>2022-06-02T14:24:13Z</time>
      </trkpt>
      <trkpt lat="49.37729" lon="-1.1815">
        <ele>4.8</ele>
        <time>2022-06-02T14:24:14Z</time>
      </trkpt>
      <trkpt lat="49.37727" lon="-1.18153">
        <ele>4.8</ele>
        <time>2022-06-02T14:24:15Z</time>
      </trkpt>
      <trkpt lat="49.37727" lon="-1.18154">
        <ele>4.8</ele>
        <time>2022-06-02T14:24:16Z</time>
      </trkpt>
      <trkpt lat="49.37726" lon="-1.18155">
        <ele>4.9</ele>
        <time>2022-06-02T14:24:17Z</time>
      </trkpt>
      <trkpt lat="49.37725" lon="-1.18156">
        <ele>4.9</ele>
        <time>2022-06-02T14:24:18Z</time>
      </trkpt>
      <trkpt lat="49.37723" lon="-1.18158">
        <ele>4.9</ele>
        <time>2022-06-02T14:24:19Z</time>
      </trkpt>
      <trkpt lat="49.37722" lon="-1.18159">
        <ele>4.9</ele>
        <time>2022-06-02T14:24:21Z</time>
      </trkpt>
      <trkpt lat="49.37722" lon="-1.18161">
        <ele>4.9</ele>
        <time>2022-06-02T14:24:22Z</time>
      </trkpt>
      <trkpt lat="49.37721" lon="-1.18162">
        <ele>5</ele>
        <time>2022-06-02T14:24:23Z</time>
      </trkpt>
      <trkpt lat="49.3772" lon="-1.18163">
        <ele>5</ele>
        <time>2022-06-02T14:24:24Z</time>
      </trkpt>
      <trkpt lat="49.37719" lon="-1.18165">
        <ele>5</ele>
        <time>2022-06-02T14:24:25Z</time>
      </trkpt>
      <trkpt lat="49.37718" lon="-1.18166">
        <ele>5</ele>
        <time>2022-06-02T14:24:26Z</time>
      </trkpt>
      <trkpt lat="49.37716" lon="-1.18169">
        <ele>5.1</ele>
        <time>2022-06-02T14:24:27Z</time>
      </trkpt>
      <trkpt lat="49.37716" lon="-1.1817">
        <ele>5</ele>
        <time>2022-06-02T14:24:29Z</time>
      </trkpt>
      <trkpt lat="49.37715" lon="-1.18171">
        <ele>5</ele>
        <time>2022-06-02T14:24:30Z</time>
      </trkpt>
      <trkpt lat="49.37714" lon="-1.18173">
        <ele>5.1</ele>
        <time>2022-06-02T14:24:31Z</time>
      </trkpt>
      <trkpt lat="49.37713" lon="-1.18174">
        <ele>5.1</ele>
        <time>2022-06-02T14:24:32Z</time>
      </trkpt>
      <trkpt lat="49.37712" lon="-1.18175">
        <ele>5.1</ele>
        <time>2022-06-02T14:24:33Z</time>
      </trkpt>
      <trkpt lat="49.3771" lon="-1.18178">
        <ele>5.2</ele>
        <time>2022-06-02T14:24:34Z</time>
      </trkpt>
      <trkpt lat="49.3771" lon="-1.18179">
        <ele>5.2</ele>
        <time>2022-06-02T14:24:36Z</time>
      </trkpt>
      <trkpt lat="49.37709" lon="-1.1818">
        <ele>5.2</ele>
        <time>2022-06-02T14:24:37Z</time>
      </trkpt>
      <trkpt lat="49.37708" lon="-1.18181">
        <ele>5.2</ele>
        <time>2022-06-02T14:24:38Z</time>
      </trkpt>
      <trkpt lat="49.37707" lon="-1.18182">
        <ele>5.2</ele>
        <time>2022-06-02T14:24:39Z</time>
      </trkpt>
      <trkpt lat="49.37706" lon="-1.18184">
        <ele>5.3</ele>
        <time>2022-06-02T14:24:40Z</time>
      </trkpt>
      <trkpt lat="49.37705" lon="-1.18186">
        <ele>5.2</ele>
        <time>2022-06-02T14:24:41Z</time>
      </trkpt>
      <trkpt lat="49.37705" lon="-1.18187">
        <ele>5.3</ele>
        <time>2022-06-02T14:24:42Z</time>
      </trkpt>
      <trkpt lat="49.37704" lon="-1.18189">
        <ele>5.3</ele>
        <time>2022-06-02T14:24:43Z</time>
      </trkpt>
      <trkpt lat="49.37703" lon="-1.1819">
        <ele>5.3</ele>
        <time>2022-06-02T14:24:45Z</time>
      </trkpt>
      <trkpt lat="49.37702" lon="-1.18193">
        <ele>5.3</ele>
        <time>2022-06-02T14:24:46Z</time>
      </trkpt>
      <trkpt lat="49.37701" lon="-1.18194">
        <ele>5.3</ele>
        <time>2022-06-02T14:24:47Z</time>
      </trkpt>
      <trkpt lat="49.37701" lon="-1.18195">
        <ele>5.3</ele>
        <time>2022-06-02T14:24:48Z</time>
      </trkpt>
      <trkpt lat="49.37698" lon="-1.18198">
        <ele>5.4</ele>
        <time>2022-06-02T14:24:49Z</time>
      </trkpt>
      <trkpt lat="49.37696" lon="-1.18199">
        <ele>5.4</ele>
        <time>2022-06-02T14:25:59Z</time>
      </trkpt>
      <trkpt lat="49.37694" lon="-1.182">
        <ele>5.4</ele>
        <time>2022-06-02T14:26:00Z</time>
      </trkpt>
      <trkpt lat="49.37692" lon="-1.18202">
        <ele>5.5</ele>
        <time>2022-06-02T14:26:02Z</time>
      </trkpt>
      <trkpt lat="49.37689" lon="-1.18205">
        <ele>5.5</ele>
        <time>2022-06-02T14:26:03Z</time>
      </trkpt>
      <trkpt lat="49.37669" lon="-1.18226">
        <ele>6</ele>
        <time>2022-06-02T14:26:04Z</time>
      </trkpt>
      <trkpt lat="49.37664" lon="-1.18234">
        <ele>6.1</ele>
        <time>2022-06-02T14:26:05Z</time>
      </trkpt>
      <trkpt lat="49.37661" lon="-1.18242">
        <ele>6.2</ele>
        <time>2022-06-02T14:26:07Z</time>
      </trkpt>
      <trkpt lat="49.37659" lon="-1.1826">
        <ele>6.3</ele>
        <time>2022-06-02T14:26:08Z</time>
      </trkpt>
      <trkpt lat="49.37659" lon="-1.1826">
        <ele>6.3</ele>
        <time>2022-06-02T14:26:09Z</time>
      </trkpt>
      <trkpt lat="49.37658" lon="-1.18262">
        <ele>6.3</ele>
        <time>2022-06-02T14:26:10Z</time>
      </trkpt>
      <trkpt lat="49.37658" lon="-1.18263">
        <ele>6.3</ele>
        <time>2022-06-02T14:26:11Z</time>
      </trkpt>
      <trkpt lat="49.37658" lon="-1.18263">
        <ele>6.3</ele>
        <time>2022-06-02T14:26:12Z</time>
      </trkpt>
      <trkpt lat="49.37658" lon="-1.18263">
        <ele>6.3</ele>
        <time>2022-06-02T14:26:13Z</time>
      </trkpt>
      <trkpt lat="49.37658" lon="-1.18263">
        <ele>6.3</ele>
        <time>2022-06-02T14:26:14Z</time>
      </trkpt>
      <trkpt lat="49.37658" lon="-1.18263">
        <ele>6.3</ele>
        <time>2022-06-02T14:26:15Z</time>
      </trkpt>
      <trkpt lat="49.37658" lon="-1.18263">
        <ele>6.3</ele>
        <time>2022-06-02T14:26:16Z</time>
      </trkpt>
      <trkpt lat="49.37658" lon="-1.18263">
        <ele>6.3</ele>
        <time>2022-06-02T14:26:17Z</time>
      </trkpt>
      <trkpt lat="49.37658" lon="-1.18263">
        <ele>6.3</ele>
        <time>2022-06-02T14:26:18Z</time>
      </trkpt>
      <trkpt lat="49.37658" lon="-1.18263">
        <ele>6.3</ele>
        <time>2022-06-02T14:26:19Z</time>
      </trkpt>
      <trkpt lat="49.37658" lon="-1.18263">
        <ele>6.3</ele>
        <time>2022-06-02T14:26:20Z</time>
      </trkpt>
      <trkpt lat="49.37658" lon="-1.18263">
        <ele>6.3</ele>
        <time>2022-06-02T14:26:21Z</time>
      </trkpt>
      <trkpt lat="49.37658" lon="-1.18263">
        <ele>6.3</ele>
        <time>2022-06-02T14:26:22Z</time>
      </trkpt>
      <trkpt lat="49.37658" lon="-1.18263">
        <ele>6.3</ele>
        <time>2022-06-02T14:26:23Z</time>
      </trkpt>
      <trkpt lat="49.37658" lon="-1.18263">
        <ele>6.3</ele>
        <time>2022-06-02T14:26:24Z</time>
      </trkpt>
      <trkpt lat="49.37658" lon="-1.18263">
        <ele>6.3</ele>
        <time>2022-06-02T14:26:25Z</time>
      </trkpt>
      <trkpt lat="49.37658" lon="-1.18263">
        <ele>6.3</ele>
        <time>2022-06-02T14:26:26Z</time>
      </trkpt>
      <trkpt lat="49.37658" lon="-1.18263">
        <ele>6.3</ele>
        <time>2022-06-02T14:26:27Z</time>
      </trkpt>
      <trkpt lat="49.37658" lon="-1.18263">
        <ele>6.3</ele>
        <time>2022-06-02T14:26:28Z</time>
      </trkpt>
      <trkpt lat="49.37658" lon="-1.18263">
        <ele>6.3</ele>
        <time>2022-06-02T14:26:29Z</time>
      </trkpt>
      <trkpt lat="49.37658" lon="-1.18263">
        <ele>6.3</ele>
        <time>2022-06-02T14:26:30Z</time>
      </trkpt>
      <trkpt lat="49.37658" lon="-1.18263">
        <ele>6.3</ele>
        <time>2022-06-02T14:26:31Z</time>
      </trkpt>
      <trkpt lat="49.37658" lon="-1.18263">
        <ele>6.3</ele>
        <time>2022-06-02T14:26:32Z</time>
      </trkpt>
      <trkpt lat="49.37658" lon="-1.18263">
        <ele>6.3</ele>
        <time>2022-06-02T14:26:33Z</time>
      </trkpt>
      <trkpt lat="49.37658" lon="-1.18262">
        <ele>6.3</ele>
        <time>2022-06-02T14:26:34Z</time>
      </trkpt>
      <trkpt lat="49.37658" lon="-1.18262">
        <ele>6.3</ele>
        <time>2022-06-02T14:26:35Z</time>
      </trkpt>
      <trkpt lat="49.37658" lon="-1.18262">
        <ele>6.3</ele>
        <time>2022-06-02T14:26:36Z</time>
      </trkpt>
      <trkpt lat="49.37657" lon="-1.18262">
        <ele>6.3</ele>
        <time>2022-06-02T14:26:37Z</time>
      </trkpt>
      <trkpt lat="49.37657" lon="-1.18262">
        <ele>6.3</ele>
        <time>2022-06-02T14:26:38Z</time>
      </trkpt>
      <trkpt lat="49.37656" lon="-1.18262">
        <ele>6.3</ele>
        <time>2022-06-02T14:26:39Z</time>
      </trkpt>
      <trkpt lat="49.37654" lon="-1.18263">
        <ele>6.3</ele>
        <time>2022-06-02T14:26:41Z</time>
      </trkpt>
      <trkpt lat="49.37653" lon="-1.18264">
        <ele>6.3</ele>
        <time>2022-06-02T14:26:42Z</time>
      </trkpt>
      <trkpt lat="49.37652" lon="-1.18264">
        <ele>6.3</ele>
        <time>2022-06-02T14:26:43Z</time>
      </trkpt>
      <trkpt lat="49.37652" lon="-1.18265">
        <ele>6.3</ele>
        <time>2022-06-02T14:26:44Z</time>
      </trkpt>
      <trkpt lat="49.37651" lon="-1.18266">
        <ele>6.3</ele>
        <time>2022-06-02T14:26:45Z</time>
      </trkpt>
      <trkpt lat="49.3765" lon="-1.18267">
        <ele>6.3</ele>
        <time>2022-06-02T14:26:46Z</time>
      </trkpt>
      <trkpt lat="49.37649" lon="-1.18268">
        <ele>6.4</ele>
        <time>2022-06-02T14:26:47Z</time>
      </trkpt>
      <trkpt lat="49.37647" lon="-1.18269">
        <ele>6.4</ele>
        <time>2022-06-02T14:26:49Z</time>
      </trkpt>
      <trkpt lat="49.37646" lon="-1.1827">
        <ele>6.4</ele>
        <time>2022-06-02T14:26:50Z</time>
      </trkpt>
      <trkpt lat="49.37645" lon="-1.18271">
        <ele>6.4</ele>
        <time>2022-06-02T14:26:51Z</time>
      </trkpt>
      <trkpt lat="49.37644" lon="-1.18272">
        <ele>6.4</ele>
        <time>2022-06-02T14:26:52Z</time>
      </trkpt>
      <trkpt lat="49.37644" lon="-1.18273">
        <ele>6.4</ele>
        <time>2022-06-02T14:26:53Z</time>
      </trkpt>
      <trkpt lat="49.37643" lon="-1.18274">
        <ele>6.4</ele>
        <time>2022-06-02T14:26:55Z</time>
      </trkpt>
      <trkpt lat="49.37644" lon="-1.18275">
        <ele>6.4</ele>
        <time>2022-06-02T14:26:56Z</time>
      </trkpt>
      <trkpt lat="49.37644" lon="-1.18276">
        <ele>6.4</ele>
        <time>2022-06-02T14:26:57Z</time>
      </trkpt>
      <trkpt lat="49.37644" lon="-1.18276">
        <ele>6.4</ele>
        <time>2022-06-02T14:26:58Z</time>
      </trkpt>
      <trkpt lat="49.37644" lon="-1.18276">
        <ele>6.4</ele>
        <time>2022-06-02T14:26:59Z</time>
      </trkpt>
      <trkpt lat="49.37644" lon="-1.18276">
        <ele>6.4</ele>
        <time>2022-06-02T14:27:00Z</time>
      </trkpt>
      <trkpt lat="49.37644" lon="-1.18276">
        <ele>6.4</ele>
        <time>2022-06-02T14:27:01Z</time>
      </trkpt>
      <trkpt lat="49.37644" lon="-1.18276">
        <ele>6.4</ele>
        <time>2022-06-02T14:27:02Z</time>
      </trkpt>
      <trkpt lat="49.37643" lon="-1.18276">
        <ele>6.4</ele>
        <time>2022-06-02T14:27:03Z</time>
      </trkpt>
      <trkpt lat="49.37643" lon="-1.18276">
        <ele>6.4</ele>
        <time>2022-06-02T14:27:04Z</time>
      </trkpt>
      <trkpt lat="49.37643" lon="-1.18276">
        <ele>6.4</ele>
        <time>2022-06-02T14:27:05Z</time>
      </trkpt>
      <trkpt lat="49.37643" lon="-1.18276">
        <ele>6.4</ele>
        <time>2022-06-02T14:27:06Z</time>
      </trkpt>
      <trkpt lat="49.37643" lon="-1.18276">
        <ele>6.4</ele>
        <time>2022-06-02T14:27:07Z</time>
      </trkpt>
      <trkpt lat="49.37643" lon="-1.18276">
        <ele>6.4</ele>
        <time>2022-06-02T14:27:08Z</time>
      </trkpt>
      <trkpt lat="49.37642" lon="-1.18276">
        <ele>6.4</ele>
        <time>2022-06-02T14:27:09Z</time>
      </trkpt>
      <trkpt lat="49.37642" lon="-1.18277">
        <ele>6.4</ele>
        <time>2022-06-02T14:27:10Z</time>
      </trkpt>
      <trkpt lat="49.37642" lon="-1.18277">
        <ele>6.4</ele>
        <time>2022-06-02T14:27:11Z</time>
      </trkpt>
      <trkpt lat="49.37642" lon="-1.18277">
        <ele>6.4</ele>
        <time>2022-06-02T14:27:12Z</time>
      </trkpt>
      <trkpt lat="49.37642" lon="-1.18277">
        <ele>6.4</ele>
        <time>2022-06-02T14:27:13Z</time>
      </trkpt>
      <trkpt lat="49.37641" lon="-1.18277">
        <ele>6.4</ele>
        <time>2022-06-02T14:27:14Z</time>
      </trkpt>
      <trkpt lat="49.37641" lon="-1.18277">
        <ele>6.4</ele>
        <time>2022-06-02T14:27:15Z</time>
      </trkpt>
      <trkpt lat="49.37641" lon="-1.18277">
        <ele>6.4</ele>
        <time>2022-06-02T14:27:16Z</time>
      </trkpt>
      <trkpt lat="49.37641" lon="-1.18277">
        <ele>6.4</ele>
        <time>2022-06-02T14:27:17Z</time>
      </trkpt>
      <trkpt lat="49.37641" lon="-1.18277">
        <ele>6.4</ele>
        <time>2022-06-02T14:27:18Z</time>
      </trkpt>
      <trkpt lat="49.37641" lon="-1.18277">
        <ele>6.4</ele>
        <time>2022-06-02T14:27:20Z</time>
      </trkpt>
      <trkpt lat="49.3764" lon="-1.18277">
        <ele>6.4</ele>
        <time>2022-06-02T14:27:21Z</time>
      </trkpt>
      <trkpt lat="49.37639" lon="-1.18278">
        <ele>6.4</ele>
        <time>2022-06-02T14:27:22Z</time>
      </trkpt>
      <trkpt lat="49.37638" lon="-1.1828">
        <ele>6.4</ele>
        <time>2022-06-02T14:27:23Z</time>
      </trkpt>
      <trkpt lat="49.37636" lon="-1.18282">
        <ele>6.4</ele>
        <time>2022-06-02T14:27:24Z</time>
      </trkpt>
      <trkpt lat="49.37635" lon="-1.18284">
        <ele>6.4</ele>
        <time>2022-06-02T14:27:25Z</time>
      </trkpt>
      <trkpt lat="49.37634" lon="-1.18286">
        <ele>6.4</ele>
        <time>2022-06-02T14:27:26Z</time>
      </trkpt>
      <trkpt lat="49.37633" lon="-1.18288">
        <ele>6.4</ele>
        <time>2022-06-02T14:27:28Z</time>
      </trkpt>
      <trkpt lat="49.37632" lon="-1.18289">
        <ele>6.4</ele>
        <time>2022-06-02T14:27:29Z</time>
      </trkpt>
      <trkpt lat="49.37632" lon="-1.1829">
        <ele>6.4</ele>
        <time>2022-06-02T14:27:30Z</time>
      </trkpt>
      <trkpt lat="49.37631" lon="-1.18291">
        <ele>6.4</ele>
        <time>2022-06-02T14:27:31Z</time>
      </trkpt>
      <trkpt lat="49.3763" lon="-1.18292">
        <ele>6.4</ele>
        <time>2022-06-02T14:27:32Z</time>
      </trkpt>
      <trkpt lat="49.37629" lon="-1.18294">
        <ele>6.4</ele>
        <time>2022-06-02T14:27:34Z</time>
      </trkpt>
      <trkpt lat="49.37628" lon="-1.18295">
        <ele>6.4</ele>
        <time>2022-06-02T14:27:35Z</time>
      </trkpt>
      <trkpt lat="49.37627" lon="-1.18296">
        <ele>6.4</ele>
        <time>2022-06-02T14:27:36Z</time>
      </trkpt>
      <trkpt lat="49.37627" lon="-1.18296">
        <ele>6.4</ele>
        <time>2022-06-02T14:27:37Z</time>
      </trkpt>
      <trkpt lat="49.37627" lon="-1.18297">
        <ele>6.4</ele>
        <time>2022-06-02T14:27:38Z</time>
      </trkpt>
      <trkpt lat="49.37625" lon="-1.18299">
        <ele>6.4</ele>
        <time>2022-06-02T14:27:39Z</time>
      </trkpt>
      <trkpt lat="49.37625" lon="-1.183">
        <ele>6.4</ele>
        <time>2022-06-02T14:27:40Z</time>
      </trkpt>
      <trkpt lat="49.37624" lon="-1.18301">
        <ele>6.4</ele>
        <time>2022-06-02T14:27:41Z</time>
      </trkpt>
      <trkpt lat="49.37623" lon="-1.18302">
        <ele>6.4</ele>
        <time>2022-06-02T14:27:43Z</time>
      </trkpt>
      <trkpt lat="49.37622" lon="-1.18304">
        <ele>6.4</ele>
        <time>2022-06-02T14:27:44Z</time>
      </trkpt>
      <trkpt lat="49.37621" lon="-1.18305">
        <ele>6.4</ele>
        <time>2022-06-02T14:27:45Z</time>
      </trkpt>
      <trkpt lat="49.37619" lon="-1.18307">
        <ele>6.4</ele>
        <time>2022-06-02T14:27:46Z</time>
      </trkpt>
      <trkpt lat="49.37618" lon="-1.18309">
        <ele>6.4</ele>
        <time>2022-06-02T14:27:47Z</time>
      </trkpt>
      <trkpt lat="49.37617" lon="-1.1831">
        <ele>6.4</ele>
        <time>2022-06-02T14:27:48Z</time>
      </trkpt>
      <trkpt lat="49.37615" lon="-1.18312">
        <ele>6.4</ele>
        <time>2022-06-02T14:27:49Z</time>
      </trkpt>
      <trkpt lat="49.37614" lon="-1.18314">
        <ele>6.4</ele>
        <time>2022-06-02T14:27:50Z</time>
      </trkpt>
      <trkpt lat="49.37612" lon="-1.18316">
        <ele>6.4</ele>
        <time>2022-06-02T14:27:51Z</time>
      </trkpt>
      <trkpt lat="49.37611" lon="-1.18318">
        <ele>6.4</ele>
        <time>2022-06-02T14:27:53Z</time>
      </trkpt>
      <trkpt lat="49.3761" lon="-1.1832">
        <ele>6.4</ele>
        <time>2022-06-02T14:27:54Z</time>
      </trkpt>
      <trkpt lat="49.37609" lon="-1.18321">
        <ele>6.4</ele>
        <time>2022-06-02T14:27:55Z</time>
      </trkpt>
      <trkpt lat="49.37608" lon="-1.18323">
        <ele>6.4</ele>
        <time>2022-06-02T14:27:56Z</time>
      </trkpt>
      <trkpt lat="49.37607" lon="-1.18324">
        <ele>6.4</ele>
        <time>2022-06-02T14:27:57Z</time>
      </trkpt>
      <trkpt lat="49.37605" lon="-1.18327">
        <ele>6.4</ele>
        <time>2022-06-02T14:27:58Z</time>
      </trkpt>
      <trkpt lat="49.37604" lon="-1.18328">
        <ele>6.4</ele>
        <time>2022-06-02T14:27:59Z</time>
      </trkpt>
      <trkpt lat="49.37603" lon="-1.18329">
        <ele>6.4</ele>
        <time>2022-06-02T14:28:01Z</time>
      </trkpt>
      <trkpt lat="49.37602" lon="-1.1833">
        <ele>6.4</ele>
        <time>2022-06-02T14:28:02Z</time>
      </trkpt>
      <trkpt lat="49.37601" lon="-1.18332">
        <ele>6.4</ele>
        <time>2022-06-02T14:28:03Z</time>
      </trkpt>
      <trkpt lat="49.376" lon="-1.18333">
        <ele>6.4</ele>
        <time>2022-06-02T14:28:04Z</time>
      </trkpt>
      <trkpt lat="49.37599" lon="-1.18335">
        <ele>6.4</ele>
        <time>2022-06-02T14:28:05Z</time>
      </trkpt>
      <trkpt lat="49.37598" lon="-1.18335">
        <ele>6.4</ele>
        <time>2022-06-02T14:28:06Z</time>
      </trkpt>
      <trkpt lat="49.37598" lon="-1.18337">
        <ele>6.4</ele>
        <time>2022-06-02T14:28:07Z</time>
      </trkpt>
      <trkpt lat="49.37596" lon="-1.18338">
        <ele>6.4</ele>
        <time>2022-06-02T14:28:08Z</time>
      </trkpt>
      <trkpt lat="49.37595" lon="-1.1834">
        <ele>6.4</ele>
        <time>2022-06-02T14:28:10Z</time>
      </trkpt>
      <trkpt lat="49.37595" lon="-1.18341">
        <ele>6.4</ele>
        <time>2022-06-02T14:28:11Z</time>
      </trkpt>
      <trkpt lat="49.37595" lon="-1.18342">
        <ele>6.4</ele>
        <time>2022-06-02T14:28:12Z</time>
      </trkpt>
      <trkpt lat="49.37595" lon="-1.18343">
        <ele>6.4</ele>
        <time>2022-06-02T14:28:13Z</time>
      </trkpt>
      <trkpt lat="49.37595" lon="-1.18343">
        <ele>6.4</ele>
        <time>2022-06-02T14:28:14Z</time>
      </trkpt>
      <trkpt lat="49.37595" lon="-1.18344">
        <ele>6.4</ele>
        <time>2022-06-02T14:28:15Z</time>
      </trkpt>
      <trkpt lat="49.37595" lon="-1.18344">
        <ele>6.4</ele>
        <time>2022-06-02T14:28:16Z</time>
      </trkpt>
      <trkpt lat="49.37595" lon="-1.18344">
        <ele>6.4</ele>
        <time>2022-06-02T14:28:17Z</time>
      </trkpt>
      <trkpt lat="49.37595" lon="-1.18343">
        <ele>6.4</ele>
        <time>2022-06-02T14:28:18Z</time>
      </trkpt>
      <trkpt lat="49.37595" lon="-1.18343">
        <ele>6.4</ele>
        <time>2022-06-02T14:28:19Z</time>
      </trkpt>
      <trkpt lat="49.37595" lon="-1.18343">
        <ele>6.4</ele>
        <time>2022-06-02T14:28:20Z</time>
      </trkpt>
      <trkpt lat="49.37595" lon="-1.18342">
        <ele>6.4</ele>
        <time>2022-06-02T14:28:21Z</time>
      </trkpt>
      <trkpt lat="49.37595" lon="-1.18342">
        <ele>6.4</ele>
        <time>2022-06-02T14:28:22Z</time>
      </trkpt>
      <trkpt lat="49.37596" lon="-1.18341">
        <ele>6.4</ele>
        <time>2022-06-02T14:28:23Z</time>
      </trkpt>
      <trkpt lat="49.37596" lon="-1.18341">
        <ele>6.4</ele>
        <time>2022-06-02T14:28:24Z</time>
      </trkpt>
      <trkpt lat="49.37596" lon="-1.18341">
        <ele>6.4</ele>
        <time>2022-06-02T14:28:25Z</time>
      </trkpt>
      <trkpt lat="49.37596" lon="-1.18341">
        <ele>6.4</ele>
        <time>2022-06-02T14:28:26Z</time>
      </trkpt>
      <trkpt lat="49.37596" lon="-1.18341">
        <ele>6.4</ele>
        <time>2022-06-02T14:28:27Z</time>
      </trkpt>
      <trkpt lat="49.37596" lon="-1.18341">
        <ele>6.4</ele>
        <time>2022-06-02T14:28:28Z</time>
      </trkpt>
      <trkpt lat="49.37596" lon="-1.18341">
        <ele>6.4</ele>
        <time>2022-06-02T14:28:29Z</time>
      </trkpt>
      <trkpt lat="49.37596" lon="-1.18341">
        <ele>6.4</ele>
        <time>2022-06-02T14:28:30Z</time>
      </trkpt>
      <trkpt lat="49.37596" lon="-1.1834">
        <ele>6.5</ele>
        <time>2022-06-02T14:28:31Z</time>
      </trkpt>
      <trkpt lat="49.37596" lon="-1.1834">
        <ele>6.5</ele>
        <time>2022-06-02T14:28:32Z</time>
      </trkpt>
      <trkpt lat="49.37596" lon="-1.1834">
        <ele>6.5</ele>
        <time>2022-06-02T14:28:33Z</time>
      </trkpt>
      <trkpt lat="49.37331" lon="-1.18133">
        <ele>7.7</ele>
        <time>2022-06-02T14:53:42Z</time>
      </trkpt>
      <trkpt lat="49.37333" lon="-1.18124">
        <ele>7.6</ele>
        <time>2022-06-02T14:53:45Z</time>
      </trkpt>
      <trkpt lat="49.37335" lon="-1.18119">
        <ele>7.6</ele>
        <time>2022-06-02T14:53:46Z</time>
      </trkpt>
      <trkpt lat="49.37335" lon="-1.18118">
        <ele>7.6</ele>
        <time>2022-06-02T14:53:47Z</time>
      </trkpt>
      <trkpt lat="49.37335" lon="-1.18118">
        <ele>7.6</ele>
        <time>2022-06-02T14:53:48Z</time>
      </trkpt>
      <trkpt lat="49.37335" lon="-1.18118">
        <ele>7.6</ele>
        <time>2022-06-02T14:53:49Z</time>
      </trkpt>
      <trkpt lat="49.37335" lon="-1.18118">
        <ele>7.6</ele>
        <time>2022-06-02T14:53:50Z</time>
      </trkpt>
      <trkpt lat="49.37335" lon="-1.18118">
        <ele>7.6</ele>
        <time>2022-06-02T14:53:51Z</time>
      </trkpt>
      <trkpt lat="49.37335" lon="-1.18118">
        <ele>7.6</ele>
        <time>2022-06-02T14:53:52Z</time>
      </trkpt>
      <trkpt lat="49.37335" lon="-1.18118">
        <ele>7.6</ele>
        <time>2022-06-02T14:53:53Z</time>
      </trkpt>
      <trkpt lat="49.37335" lon="-1.18118">
        <ele>7.6</ele>
        <time>2022-06-02T14:53:54Z</time>
      </trkpt>
      <trkpt lat="49.37335" lon="-1.18118">
        <ele>7.6</ele>
        <time>2022-06-02T14:53:55Z</time>
      </trkpt>
      <trkpt lat="49.37335" lon="-1.18118">
        <ele>7.6</ele>
        <time>2022-06-02T14:53:56Z</time>
      </trkpt>
      <trkpt lat="49.37335" lon="-1.18118">
        <ele>7.6</ele>
        <time>2022-06-02T14:53:57Z</time>
      </trkpt>
      <trkpt lat="49.37335" lon="-1.18118">
        <ele>7.6</ele>
        <time>2022-06-02T14:53:58Z</time>
      </trkpt>
      <trkpt lat="49.37335" lon="-1.18118">
        <ele>7.6</ele>
        <time>2022-06-02T14:53:59Z</time>
      </trkpt>
      <trkpt lat="49.37335" lon="-1.18118">
        <ele>7.6</ele>
        <time>2022-06-02T14:54:00Z</time>
      </trkpt>
      <trkpt lat="49.37335" lon="-1.18118">
        <ele>7.6</ele>
        <time>2022-06-02T14:54:01Z</time>
      </trkpt>
      <trkpt lat="49.37335" lon="-1.18118">
        <ele>7.6</ele>
        <time>2022-06-02T14:54:02Z</time>
      </trkpt>
      <trkpt lat="49.37335" lon="-1.18118">
        <ele>7.6</ele>
        <time>2022-06-02T14:54:03Z</time>
      </trkpt>
      <trkpt lat="49.37335" lon="-1.18118">
        <ele>7.6</ele>
        <time>2022-06-02T14:54:04Z</time>
      </trkpt>
      <trkpt lat="49.37335" lon="-1.18118">
        <ele>7.6</ele>
        <time>2022-06-02T14:54:05Z</time>
      </trkpt>
      <trkpt lat="49.37335" lon="-1.18118">
        <ele>7.6</ele>
        <time>2022-06-02T14:54:06Z</time>
      </trkpt>
      <trkpt lat="49.37335" lon="-1.18118">
        <ele>7.6</ele>
        <time>2022-06-02T14:54:07Z</time>
      </trkpt>
      <trkpt lat="49.37335" lon="-1.18118">
        <ele>7.6</ele>
        <time>2022-06-02T14:54:08Z</time>
      </trkpt>
      <trkpt lat="49.37335" lon="-1.18118">
        <ele>7.6</ele>
        <time>2022-06-02T14:54:09Z</time>
      </trkpt>
      <trkpt lat="49.37335" lon="-1.18118">
        <ele>7.6</ele>
        <time>2022-06-02T14:54:10Z</time>
      </trkpt>
      <trkpt lat="49.37335" lon="-1.18118">
        <ele>7.6</ele>
        <time>2022-06-02T14:54:11Z</time>
      </trkpt>
      <trkpt lat="49.37335" lon="-1.18118">
        <ele>7.6</ele>
        <time>2022-06-02T14:54:12Z</time>
      </trkpt>
      <trkpt lat="49.37335" lon="-1.18118">
        <ele>7.6</ele>
        <time>2022-06-02T14:54:13Z</time>
      </trkpt>
      <trkpt lat="49.37335" lon="-1.18118">
        <ele>7.6</ele>
        <time>2022-06-02T14:54:14Z</time>
      </trkpt>
      <trkpt lat="49.37335" lon="-1.18118">
        <ele>7.6</ele>
        <time>2022-06-02T14:54:15Z</time>
      </trkpt>
      <trkpt lat="49.37335" lon="-1.18118">
        <ele>7.6</ele>
        <time>2022-06-02T14:54:16Z</time>
      </trkpt>
      <trkpt lat="49.37335" lon="-1.18118">
        <ele>7.6</ele>
        <time>2022-06-02T14:54:17Z</time>
      </trkpt>
      <trkpt lat="49.37335" lon="-1.18118">
        <ele>7.6</ele>
        <time>2022-06-02T14:54:18Z</time>
      </trkpt>
      <trkpt lat="49.37335" lon="-1.18118">
        <ele>7.6</ele>
        <time>2022-06-02T14:54:19Z</time>
      </trkpt>
      <trkpt lat="49.37335" lon="-1.18118">
        <ele>7.6</ele>
        <time>2022-06-02T14:54:20Z</time>
      </trkpt>
      <trkpt lat="49.37335" lon="-1.18118">
        <ele>7.6</ele>
        <time>2022-06-02T14:54:21Z</time>
      </trkpt>
      <trkpt lat="49.37335" lon="-1.18118">
        <ele>7.6</ele>
        <time>2022-06-02T14:54:22Z</time>
      </trkpt>
      <trkpt lat="49.37335" lon="-1.18118">
        <ele>7.6</ele>
        <time>2022-06-02T14:54:23Z</time>
      </trkpt>
      <trkpt lat="49.37335" lon="-1.18118">
        <ele>7.6</ele>
        <time>2022-06-02T14:54:24Z</time>
      </trkpt>
      <trkpt lat="49.37334" lon="-1.18118">
        <ele>7.6</ele>
        <time>2022-06-02T14:54:25Z</time>
      </trkpt>
      <trkpt lat="49.37334" lon="-1.18117">
        <ele>7.6</ele>
        <time>2022-06-02T14:54:26Z</time>
      </trkpt>
      <trkpt lat="49.37333" lon="-1.18117">
        <ele>7.6</ele>
        <time>2022-06-02T14:54:27Z</time>
      </trkpt>
      <trkpt lat="49.37333" lon="-1.18116">
        <ele>7.6</ele>
        <time>2022-06-02T14:54:28Z</time>
      </trkpt>
      <trkpt lat="49.37332" lon="-1.18116">
        <ele>7.6</ele>
        <time>2022-06-02T14:54:29Z</time>
      </trkpt>
      <trkpt lat="49.3733" lon="-1.18116">
        <ele>7.5</ele>
        <time>2022-06-02T14:54:31Z</time>
      </trkpt>
      <trkpt lat="49.37329" lon="-1.18116">
        <ele>7.5</ele>
        <time>2022-06-02T14:54:33Z</time>
      </trkpt>
      <trkpt lat="49.37327" lon="-1.18115">
        <ele>7.5</ele>
        <time>2022-06-02T14:54:34Z</time>
      </trkpt>
      <trkpt lat="49.37325" lon="-1.18114">
        <ele>7.5</ele>
        <time>2022-06-02T14:54:36Z</time>
      </trkpt>
      <trkpt lat="49.37324" lon="-1.18113">
        <ele>7.5</ele>
        <time>2022-06-02T14:54:37Z</time>
      </trkpt>
      <trkpt lat="49.37323" lon="-1.18112">
        <ele>7.5</ele>
        <time>2022-06-02T14:54:38Z</time>
      </trkpt>
      <trkpt lat="49.37323" lon="-1.18111">
        <ele>7.5</ele>
        <time>2022-06-02T14:54:39Z</time>
      </trkpt>
      <trkpt lat="49.37322" lon="-1.1811">
        <ele>7.5</ele>
        <time>2022-06-02T14:54:40Z</time>
      </trkpt>
      <trkpt lat="49.37321" lon="-1.18109">
        <ele>7.5</ele>
        <time>2022-06-02T14:54:42Z</time>
      </trkpt>
      <trkpt lat="49.37321" lon="-1.18108">
        <ele>7.5</ele>
        <time>2022-06-02T14:54:43Z</time>
      </trkpt>
      <trkpt lat="49.37321" lon="-1.18107">
        <ele>7.5</ele>
        <time>2022-06-02T14:54:44Z</time>
      </trkpt>
      <trkpt lat="49.3732" lon="-1.18105">
        <ele>7.5</ele>
        <time>2022-06-02T14:54:45Z</time>
      </trkpt>
      <trkpt lat="49.37319" lon="-1.18104">
        <ele>7.4</ele>
        <time>2022-06-02T14:54:46Z</time>
      </trkpt>
      <trkpt lat="49.37318" lon="-1.18103">
        <ele>7.4</ele>
        <time>2022-06-02T14:54:47Z</time>
      </trkpt>
      <trkpt lat="49.37317" lon="-1.18103">
        <ele>7.4</ele>
        <time>2022-06-02T14:54:48Z</time>
      </trkpt>
      <trkpt lat="49.37316" lon="-1.18102">
        <ele>7.4</ele>
        <time>2022-06-02T14:54:50Z</time>
      </trkpt>
      <trkpt lat="49.37316" lon="-1.18101">
        <ele>7.4</ele>
        <time>2022-06-02T14:54:51Z</time>
      </trkpt>
      <trkpt lat="49.37315" lon="-1.181">
        <ele>7.4</ele>
        <time>2022-06-02T14:54:52Z</time>
      </trkpt>
      <trkpt lat="49.37314" lon="-1.18099">
        <ele>7.4</ele>
        <time>2022-06-02T14:54:53Z</time>
      </trkpt>
      <trkpt lat="49.37313" lon="-1.18098">
        <ele>7.4</ele>
        <time>2022-06-02T14:54:54Z</time>
      </trkpt>
      <trkpt lat="49.37313" lon="-1.18097">
        <ele>7.4</ele>
        <time>2022-06-02T14:54:55Z</time>
      </trkpt>
      <trkpt lat="49.37311" lon="-1.18097">
        <ele>7.4</ele>
        <time>2022-06-02T14:54:56Z</time>
      </trkpt>
      <trkpt lat="49.3731" lon="-1.18096">
        <ele>7.4</ele>
        <time>2022-06-02T14:54:57Z</time>
      </trkpt>
      <trkpt lat="49.3731" lon="-1.18095">
        <ele>7.4</ele>
        <time>2022-06-02T14:54:59Z</time>
      </trkpt>
      <trkpt lat="49.37309" lon="-1.18094">
        <ele>7.4</ele>
        <time>2022-06-02T14:55:00Z</time>
      </trkpt>
      <trkpt lat="49.37308" lon="-1.18093">
        <ele>7.4</ele>
        <time>2022-06-02T14:55:01Z</time>
      </trkpt>
      <trkpt lat="49.37306" lon="-1.18092">
        <ele>7.3</ele>
        <time>2022-06-02T14:55:02Z</time>
      </trkpt>
      <trkpt lat="49.37304" lon="-1.1809">
        <ele>7.3</ele>
        <time>2022-06-02T14:55:03Z</time>
      </trkpt>
      <trkpt lat="49.37304" lon="-1.18089">
        <ele>7.3</ele>
        <time>2022-06-02T14:55:04Z</time>
      </trkpt>
      <trkpt lat="49.37303" lon="-1.18088">
        <ele>7.3</ele>
        <time>2022-06-02T14:55:05Z</time>
      </trkpt>
      <trkpt lat="49.37302" lon="-1.18087">
        <ele>7.3</ele>
        <time>2022-06-02T14:55:06Z</time>
      </trkpt>
      <trkpt lat="49.373" lon="-1.18086">
        <ele>7.3</ele>
        <time>2022-06-02T14:55:07Z</time>
      </trkpt>
      <trkpt lat="49.37299" lon="-1.18085">
        <ele>7.3</ele>
        <time>2022-06-02T14:55:09Z</time>
      </trkpt>
      <trkpt lat="49.37298" lon="-1.18084">
        <ele>7.3</ele>
        <time>2022-06-02T14:55:10Z</time>
      </trkpt>
      <trkpt lat="49.37297" lon="-1.18083">
        <ele>7.3</ele>
        <time>2022-06-02T14:55:11Z</time>
      </trkpt>
      <trkpt lat="49.37296" lon="-1.18081">
        <ele>7.3</ele>
        <time>2022-06-02T14:55:12Z</time>
      </trkpt>
      <trkpt lat="49.37294" lon="-1.1808">
        <ele>7.3</ele>
        <time>2022-06-02T14:55:13Z</time>
      </trkpt>
      <trkpt lat="49.37293" lon="-1.18079">
        <ele>7.3</ele>
        <time>2022-06-02T14:55:14Z</time>
      </trkpt>
      <trkpt lat="49.37292" lon="-1.18078">
        <ele>7.3</ele>
        <time>2022-06-02T14:55:15Z</time>
      </trkpt>
      <trkpt lat="49.37291" lon="-1.18078">
        <ele>7.2</ele>
        <time>2022-06-02T14:55:16Z</time>
      </trkpt>
      <trkpt lat="49.37289" lon="-1.18077">
        <ele>7.2</ele>
        <time>2022-06-02T14:55:17Z</time>
      </trkpt>
      <trkpt lat="49.37288" lon="-1.18076">
        <ele>7.2</ele>
        <time>2022-06-02T14:55:19Z</time>
      </trkpt>
      <trkpt lat="49.37287" lon="-1.18075">
        <ele>7.2</ele>
        <time>2022-06-02T14:55:20Z</time>
      </trkpt>
      <trkpt lat="49.37286" lon="-1.18074">
        <ele>7.2</ele>
        <time>2022-06-02T14:55:21Z</time>
      </trkpt>
      <trkpt lat="49.37285" lon="-1.18073">
        <ele>7.2</ele>
        <time>2022-06-02T14:55:22Z</time>
      </trkpt>
      <trkpt lat="49.37284" lon="-1.18072">
        <ele>7.2</ele>
        <time>2022-06-02T14:55:24Z</time>
      </trkpt>
      <trkpt lat="49.37283" lon="-1.18071">
        <ele>7.2</ele>
        <time>2022-06-02T14:55:25Z</time>
      </trkpt>
      <trkpt lat="49.37281" lon="-1.1807">
        <ele>7.2</ele>
        <time>2022-06-02T14:55:26Z</time>
      </trkpt>
      <trkpt lat="49.3728" lon="-1.18069">
        <ele>7.2</ele>
        <time>2022-06-02T14:55:27Z</time>
      </trkpt>
      <trkpt lat="49.37279" lon="-1.18068">
        <ele>7.2</ele>
        <time>2022-06-02T14:55:28Z</time>
      </trkpt>
      <trkpt lat="49.37278" lon="-1.18068">
        <ele>7.2</ele>
        <time>2022-06-02T14:55:29Z</time>
      </trkpt>
      <trkpt lat="49.37276" lon="-1.18066">
        <ele>7.2</ele>
        <time>2022-06-02T14:55:30Z</time>
      </trkpt>
      <trkpt lat="49.37276" lon="-1.18065">
        <ele>7.2</ele>
        <time>2022-06-02T14:55:31Z</time>
      </trkpt>
      <trkpt lat="49.37275" lon="-1.18064">
        <ele>7.2</ele>
        <time>2022-06-02T14:55:33Z</time>
      </trkpt>
      <trkpt lat="49.37274" lon="-1.18063">
        <ele>7.2</ele>
        <time>2022-06-02T14:55:34Z</time>
      </trkpt>
      <trkpt lat="49.37273" lon="-1.18063">
        <ele>7.2</ele>
        <time>2022-06-02T14:55:35Z</time>
      </trkpt>
      <trkpt lat="49.37272" lon="-1.18062">
        <ele>7.2</ele>
        <time>2022-06-02T14:55:36Z</time>
      </trkpt>
      <trkpt lat="49.37271" lon="-1.18061">
        <ele>7.2</ele>
        <time>2022-06-02T14:55:37Z</time>
      </trkpt>
      <trkpt lat="49.3727" lon="-1.1806">
        <ele>7.2</ele>
        <time>2022-06-02T14:55:38Z</time>
      </trkpt>
      <trkpt lat="49.37269" lon="-1.18059">
        <ele>7.2</ele>
        <time>2022-06-02T14:55:39Z</time>
      </trkpt>
      <trkpt lat="49.37268" lon="-1.18058">
        <ele>7.2</ele>
        <time>2022-06-02T14:55:40Z</time>
      </trkpt>
      <trkpt lat="49.37267" lon="-1.18057">
        <ele>7.2</ele>
        <time>2022-06-02T14:55:41Z</time>
      </trkpt>
      <trkpt lat="49.37266" lon="-1.18056">
        <ele>7.2</ele>
        <time>2022-06-02T14:55:43Z</time>
      </trkpt>
      <trkpt lat="49.37265" lon="-1.18055">
        <ele>7.2</ele>
        <time>2022-06-02T14:55:44Z</time>
      </trkpt>
      <trkpt lat="49.37264" lon="-1.18054">
        <ele>7.2</ele>
        <time>2022-06-02T14:55:45Z</time>
      </trkpt>
      <trkpt lat="49.37262" lon="-1.18053">
        <ele>7.2</ele>
        <time>2022-06-02T14:55:47Z</time>
      </trkpt>
      <trkpt lat="49.37262" lon="-1.18052">
        <ele>7.1</ele>
        <time>2022-06-02T14:55:48Z</time>
      </trkpt>
      <trkpt lat="49.37261" lon="-1.18051">
        <ele>7.1</ele>
        <time>2022-06-02T14:55:49Z</time>
      </trkpt>
      <trkpt lat="49.3726" lon="-1.1805">
        <ele>7.1</ele>
        <time>2022-06-02T14:55:50Z</time>
      </trkpt>
      <trkpt lat="49.37259" lon="-1.18049">
        <ele>7.1</ele>
        <time>2022-06-02T14:55:51Z</time>
      </trkpt>
      <trkpt lat="49.37257" lon="-1.18048">
        <ele>7.1</ele>
        <time>2022-06-02T14:55:52Z</time>
      </trkpt>
      <trkpt lat="49.37256" lon="-1.18046">
        <ele>7.1</ele>
        <time>2022-06-02T14:55:53Z</time>
      </trkpt>
      <trkpt lat="49.37255" lon="-1.18045">
        <ele>7.1</ele>
        <time>2022-06-02T14:55:54Z</time>
      </trkpt>
      <trkpt lat="49.37253" lon="-1.18043">
        <ele>7.1</ele>
        <time>2022-06-02T14:55:55Z</time>
      </trkpt>
      <trkpt lat="49.37252" lon="-1.18043">
        <ele>7.1</ele>
        <time>2022-06-02T14:55:57Z</time>
      </trkpt>
      <trkpt lat="49.37252" lon="-1.18042">
        <ele>7.1</ele>
        <time>2022-06-02T14:55:58Z</time>
      </trkpt>
      <trkpt lat="49.3725" lon="-1.1804">
        <ele>7.1</ele>
        <time>2022-06-02T14:55:59Z</time>
      </trkpt>
      <trkpt lat="49.37249" lon="-1.1804">
        <ele>7.1</ele>
        <time>2022-06-02T14:56:00Z</time>
      </trkpt>
      <trkpt lat="49.37248" lon="-1.18039">
        <ele>7.1</ele>
        <time>2022-06-02T14:56:01Z</time>
      </trkpt>
      <trkpt lat="49.37247" lon="-1.18037">
        <ele>7.1</ele>
        <time>2022-06-02T14:56:02Z</time>
      </trkpt>
      <trkpt lat="49.37246" lon="-1.18036">
        <ele>7.1</ele>
        <time>2022-06-02T14:56:03Z</time>
      </trkpt>
      <trkpt lat="49.37245" lon="-1.18036">
        <ele>7.1</ele>
        <time>2022-06-02T14:56:04Z</time>
      </trkpt>
      <trkpt lat="49.37244" lon="-1.18035">
        <ele>7.2</ele>
        <time>2022-06-02T14:56:06Z</time>
      </trkpt>
      <trkpt lat="49.37243" lon="-1.18034">
        <ele>7.2</ele>
        <time>2022-06-02T14:56:07Z</time>
      </trkpt>
      <trkpt lat="49.37242" lon="-1.18033">
        <ele>7.2</ele>
        <time>2022-06-02T14:56:08Z</time>
      </trkpt>
      <trkpt lat="49.3724" lon="-1.18031">
        <ele>7.2</ele>
        <time>2022-06-02T14:56:09Z</time>
      </trkpt>
      <trkpt lat="49.37239" lon="-1.18031">
        <ele>7.2</ele>
        <time>2022-06-02T14:56:10Z</time>
      </trkpt>
      <trkpt lat="49.37239" lon="-1.1803">
        <ele>7.2</ele>
        <time>2022-06-02T14:56:11Z</time>
      </trkpt>
      <trkpt lat="49.37238" lon="-1.18029">
        <ele>7.2</ele>
        <time>2022-06-02T14:56:12Z</time>
      </trkpt>
      <trkpt lat="49.37237" lon="-1.18028">
        <ele>7.2</ele>
        <time>2022-06-02T14:56:13Z</time>
      </trkpt>
      <trkpt lat="49.37236" lon="-1.18027">
        <ele>7.2</ele>
        <time>2022-06-02T14:56:14Z</time>
      </trkpt>
      <trkpt lat="49.37235" lon="-1.18026">
        <ele>7.2</ele>
        <time>2022-06-02T14:56:16Z</time>
      </trkpt>
      <trkpt lat="49.37234" lon="-1.18025">
        <ele>7.2</ele>
        <time>2022-06-02T14:56:17Z</time>
      </trkpt>
      <trkpt lat="49.37233" lon="-1.18024">
        <ele>7.2</ele>
        <time>2022-06-02T14:56:18Z</time>
      </trkpt>
      <trkpt lat="49.37232" lon="-1.18023">
        <ele>7.2</ele>
        <time>2022-06-02T14:56:19Z</time>
      </trkpt>
      <trkpt lat="49.3723" lon="-1.18022">
        <ele>7.2</ele>
        <time>2022-06-02T14:56:20Z</time>
      </trkpt>
      <trkpt lat="49.3723" lon="-1.18021">
        <ele>7.2</ele>
        <time>2022-06-02T14:56:21Z</time>
      </trkpt>
      <trkpt lat="49.37229" lon="-1.1802">
        <ele>7.2</ele>
        <time>2022-06-02T14:56:22Z</time>
      </trkpt>
      <trkpt lat="49.37228" lon="-1.18019">
        <ele>7.2</ele>
        <time>2022-06-02T14:56:23Z</time>
      </trkpt>
      <trkpt lat="49.37226" lon="-1.18017">
        <ele>7.2</ele>
        <time>2022-06-02T14:56:25Z</time>
      </trkpt>
      <trkpt lat="49.37225" lon="-1.18016">
        <ele>7.2</ele>
        <time>2022-06-02T14:56:27Z</time>
      </trkpt>
      <trkpt lat="49.37223" lon="-1.18014">
        <ele>7.2</ele>
        <time>2022-06-02T14:56:28Z</time>
      </trkpt>
      <trkpt lat="49.37222" lon="-1.18013">
        <ele>7.2</ele>
        <time>2022-06-02T14:56:29Z</time>
      </trkpt>
      <trkpt lat="49.37221" lon="-1.18012">
        <ele>7.2</ele>
        <time>2022-06-02T14:56:30Z</time>
      </trkpt>
      <trkpt lat="49.3722" lon="-1.1801">
        <ele>7.2</ele>
        <time>2022-06-02T14:56:31Z</time>
      </trkpt>
      <trkpt lat="49.37219" lon="-1.1801">
        <ele>7.2</ele>
        <time>2022-06-02T14:56:32Z</time>
      </trkpt>
      <trkpt lat="49.37218" lon="-1.18009">
        <ele>7.2</ele>
        <time>2022-06-02T14:56:33Z</time>
      </trkpt>
      <trkpt lat="49.37217" lon="-1.18007">
        <ele>7.2</ele>
        <time>2022-06-02T14:56:34Z</time>
      </trkpt>
      <trkpt lat="49.37215" lon="-1.18006">
        <ele>7.2</ele>
        <time>2022-06-02T14:56:36Z</time>
      </trkpt>
      <trkpt lat="49.37214" lon="-1.18005">
        <ele>7.2</ele>
        <time>2022-06-02T14:56:38Z</time>
      </trkpt>
      <trkpt lat="49.37213" lon="-1.18004">
        <ele>7.2</ele>
        <time>2022-06-02T14:56:39Z</time>
      </trkpt>
      <trkpt lat="49.37212" lon="-1.18002">
        <ele>7.2</ele>
        <time>2022-06-02T14:56:40Z</time>
      </trkpt>
      <trkpt lat="49.37211" lon="-1.18001">
        <ele>7.2</ele>
        <time>2022-06-02T14:56:41Z</time>
      </trkpt>
      <trkpt lat="49.3721" lon="-1.18">
        <ele>7.2</ele>
        <time>2022-06-02T14:56:42Z</time>
      </trkpt>
      <trkpt lat="49.37209" lon="-1.17999">
        <ele>7.2</ele>
        <time>2022-06-02T14:56:43Z</time>
      </trkpt>
      <trkpt lat="49.37207" lon="-1.17997">
        <ele>7.2</ele>
        <time>2022-06-02T14:56:44Z</time>
      </trkpt>
      <trkpt lat="49.37206" lon="-1.17996">
        <ele>7.2</ele>
        <time>2022-06-02T14:56:45Z</time>
      </trkpt>
      <trkpt lat="49.37205" lon="-1.17995">
        <ele>7.2</ele>
        <time>2022-06-02T14:56:46Z</time>
      </trkpt>
      <trkpt lat="49.37204" lon="-1.17994">
        <ele>7.2</ele>
        <time>2022-06-02T14:56:48Z</time>
      </trkpt>
      <trkpt lat="49.37203" lon="-1.17993">
        <ele>7.2</ele>
        <time>2022-06-02T14:56:49Z</time>
      </trkpt>
      <trkpt lat="49.37201" lon="-1.17991">
        <ele>7.2</ele>
        <time>2022-06-02T14:56:50Z</time>
      </trkpt>
      <trkpt lat="49.37201" lon="-1.1799">
        <ele>7.2</ele>
        <time>2022-06-02T14:56:51Z</time>
      </trkpt>
      <trkpt lat="49.372" lon="-1.1799">
        <ele>7.2</ele>
        <time>2022-06-02T14:56:52Z</time>
      </trkpt>
      <trkpt lat="49.37199" lon="-1.17988">
        <ele>7.1</ele>
        <time>2022-06-02T14:56:53Z</time>
      </trkpt>
      <trkpt lat="49.37199" lon="-1.17987">
        <ele>7.1</ele>
        <time>2022-06-02T14:56:54Z</time>
      </trkpt>
      <trkpt lat="49.37198" lon="-1.17986">
        <ele>7.1</ele>
        <time>2022-06-02T14:56:55Z</time>
      </trkpt>
      <trkpt lat="49.37197" lon="-1.17985">
        <ele>7.1</ele>
        <time>2022-06-02T14:56:56Z</time>
      </trkpt>
      <trkpt lat="49.37196" lon="-1.17984">
        <ele>7.1</ele>
        <time>2022-06-02T14:56:58Z</time>
      </trkpt>
      <trkpt lat="49.37195" lon="-1.17983">
        <ele>7.1</ele>
        <time>2022-06-02T14:56:59Z</time>
      </trkpt>
      <trkpt lat="49.37193" lon="-1.17982">
        <ele>7.1</ele>
        <time>2022-06-02T14:57:00Z</time>
      </trkpt>
      <trkpt lat="49.37192" lon="-1.17982">
        <ele>7.1</ele>
        <time>2022-06-02T14:57:01Z</time>
      </trkpt>
      <trkpt lat="49.37192" lon="-1.17981">
        <ele>7.1</ele>
        <time>2022-06-02T14:57:02Z</time>
      </trkpt>
      <trkpt lat="49.3719" lon="-1.1798">
        <ele>7.1</ele>
        <time>2022-06-02T14:57:03Z</time>
      </trkpt>
      <trkpt lat="49.37189" lon="-1.17978">
        <ele>7.1</ele>
        <time>2022-06-02T14:57:05Z</time>
      </trkpt>
      <trkpt lat="49.37188" lon="-1.17978">
        <ele>7.1</ele>
        <time>2022-06-02T14:57:06Z</time>
      </trkpt>
      <trkpt lat="49.37187" lon="-1.17977">
        <ele>7.1</ele>
        <time>2022-06-02T14:57:07Z</time>
      </trkpt>
      <trkpt lat="49.37186" lon="-1.17976">
        <ele>7.1</ele>
        <time>2022-06-02T14:57:08Z</time>
      </trkpt>
      <trkpt lat="49.37185" lon="-1.17974">
        <ele>7.1</ele>
        <time>2022-06-02T14:57:09Z</time>
      </trkpt>
      <trkpt lat="49.37184" lon="-1.17973">
        <ele>7.1</ele>
        <time>2022-06-02T14:57:11Z</time>
      </trkpt>
      <trkpt lat="49.37183" lon="-1.17972">
        <ele>7.1</ele>
        <time>2022-06-02T14:57:12Z</time>
      </trkpt>
      <trkpt lat="49.37182" lon="-1.1797">
        <ele>7.1</ele>
        <time>2022-06-02T14:57:13Z</time>
      </trkpt>
      <trkpt lat="49.37181" lon="-1.17968">
        <ele>7.1</ele>
        <time>2022-06-02T14:57:14Z</time>
      </trkpt>
      <trkpt lat="49.3718" lon="-1.17967">
        <ele>7.1</ele>
        <time>2022-06-02T14:57:15Z</time>
      </trkpt>
      <trkpt lat="49.3718" lon="-1.17966">
        <ele>7.1</ele>
        <time>2022-06-02T14:57:16Z</time>
      </trkpt>
      <trkpt lat="49.37179" lon="-1.17965">
        <ele>7.1</ele>
        <time>2022-06-02T14:57:18Z</time>
      </trkpt>
      <trkpt lat="49.37178" lon="-1.17964">
        <ele>7</ele>
        <time>2022-06-02T14:57:19Z</time>
      </trkpt>
      <trkpt lat="49.37177" lon="-1.17961">
        <ele>7</ele>
        <time>2022-06-02T14:57:20Z</time>
      </trkpt>
      <trkpt lat="49.37176" lon="-1.1796">
        <ele>7</ele>
        <time>2022-06-02T14:57:21Z</time>
      </trkpt>
      <trkpt lat="49.37176" lon="-1.1796">
        <ele>7</ele>
        <time>2022-06-02T14:57:22Z</time>
      </trkpt>
      <trkpt lat="49.37174" lon="-1.17957">
        <ele>7</ele>
        <time>2022-06-02T14:57:24Z</time>
      </trkpt>
      <trkpt lat="49.37174" lon="-1.17956">
        <ele>7</ele>
        <time>2022-06-02T14:57:25Z</time>
      </trkpt>
      <trkpt lat="49.37173" lon="-1.17955">
        <ele>7</ele>
        <time>2022-06-02T14:57:26Z</time>
      </trkpt>
      <trkpt lat="49.37172" lon="-1.17954">
        <ele>7</ele>
        <time>2022-06-02T14:57:27Z</time>
      </trkpt>
      <trkpt lat="49.37172" lon="-1.17953">
        <ele>7</ele>
        <time>2022-06-02T14:57:28Z</time>
      </trkpt>
      <trkpt lat="49.37171" lon="-1.17951">
        <ele>7</ele>
        <time>2022-06-02T14:57:29Z</time>
      </trkpt>
      <trkpt lat="49.3717" lon="-1.1795">
        <ele>7</ele>
        <time>2022-06-02T14:57:30Z</time>
      </trkpt>
      <trkpt lat="49.37169" lon="-1.1795">
        <ele>7</ele>
        <time>2022-06-02T14:57:32Z</time>
      </trkpt>
      <trkpt lat="49.37169" lon="-1.1795">
        <ele>7</ele>
        <time>2022-06-02T14:57:33Z</time>
      </trkpt>
      <trkpt lat="49.37169" lon="-1.17951">
        <ele>7</ele>
        <time>2022-06-02T14:57:34Z</time>
      </trkpt>
      <trkpt lat="49.37169" lon="-1.17951">
        <ele>7</ele>
        <time>2022-06-02T14:57:35Z</time>
      </trkpt>
      <trkpt lat="49.37169" lon="-1.17951">
        <ele>7</ele>
        <time>2022-06-02T14:57:36Z</time>
      </trkpt>
      <trkpt lat="49.37169" lon="-1.17952">
        <ele>7</ele>
        <time>2022-06-02T14:57:37Z</time>
      </trkpt>
      <trkpt lat="49.37169" lon="-1.17952">
        <ele>7</ele>
        <time>2022-06-02T14:57:38Z</time>
      </trkpt>
      <trkpt lat="49.37169" lon="-1.17952">
        <ele>7</ele>
        <time>2022-06-02T14:57:39Z</time>
      </trkpt>
      <trkpt lat="49.37169" lon="-1.17952">
        <ele>7</ele>
        <time>2022-06-02T14:57:40Z</time>
      </trkpt>
      <trkpt lat="49.3717" lon="-1.17952">
        <ele>7</ele>
        <time>2022-06-02T14:57:41Z</time>
      </trkpt>
      <trkpt lat="49.3717" lon="-1.17952">
        <ele>7</ele>
        <time>2022-06-02T14:57:42Z</time>
      </trkpt>
      <trkpt lat="49.3717" lon="-1.17952">
        <ele>7</ele>
        <time>2022-06-02T14:57:43Z</time>
      </trkpt>
      <trkpt lat="49.3717" lon="-1.17952">
        <ele>7</ele>
        <time>2022-06-02T14:57:44Z</time>
      </trkpt>
      <trkpt lat="49.3717" lon="-1.17952">
        <ele>7</ele>
        <time>2022-06-02T14:57:45Z</time>
      </trkpt>
      <trkpt lat="49.3717" lon="-1.17952">
        <ele>7</ele>
        <time>2022-06-02T14:57:46Z</time>
      </trkpt>
      <trkpt lat="49.3717" lon="-1.17952">
        <ele>7</ele>
        <time>2022-06-02T14:57:47Z</time>
      </trkpt>
      <trkpt lat="49.3717" lon="-1.17952">
        <ele>7</ele>
        <time>2022-06-02T14:57:48Z</time>
      </trkpt>
      <trkpt lat="49.3717" lon="-1.17952">
        <ele>7</ele>
        <time>2022-06-02T14:57:49Z</time>
      </trkpt>
      <trkpt lat="49.3717" lon="-1.17952">
        <ele>7</ele>
        <time>2022-06-02T14:57:51Z</time>
      </trkpt>
      <trkpt lat="49.3717" lon="-1.17952">
        <ele>7</ele>
        <time>2022-06-02T14:57:52Z</time>
      </trkpt>
      <trkpt lat="49.3717" lon="-1.17952">
        <ele>7</ele>
        <time>2022-06-02T14:57:53Z</time>
      </trkpt>
      <trkpt lat="49.3717" lon="-1.17951">
        <ele>7</ele>
        <time>2022-06-02T14:57:54Z</time>
      </trkpt>
      <trkpt lat="49.3717" lon="-1.17951">
        <ele>7</ele>
        <time>2022-06-02T14:57:55Z</time>
      </trkpt>
      <trkpt lat="49.3717" lon="-1.17951">
        <ele>7</ele>
        <time>2022-06-02T14:57:56Z</time>
      </trkpt>
      <trkpt lat="49.3717" lon="-1.17951">
        <ele>7</ele>
        <time>2022-06-02T14:57:57Z</time>
      </trkpt>
      <trkpt lat="49.3717" lon="-1.17951">
        <ele>7</ele>
        <time>2022-06-02T14:57:58Z</time>
      </trkpt>
      <trkpt lat="49.3717" lon="-1.17951">
        <ele>7</ele>
        <time>2022-06-02T14:57:59Z</time>
      </trkpt>
      <trkpt lat="49.3717" lon="-1.17951">
        <ele>7</ele>
        <time>2022-06-02T14:58:00Z</time>
      </trkpt>
      <trkpt lat="49.3717" lon="-1.17952">
        <ele>7</ele>
        <time>2022-06-02T14:58:01Z</time>
      </trkpt>
      <trkpt lat="49.3717" lon="-1.17953">
        <ele>7</ele>
        <time>2022-06-02T14:58:02Z</time>
      </trkpt>
      <trkpt lat="49.3717" lon="-1.17953">
        <ele>7</ele>
        <time>2022-06-02T14:58:03Z</time>
      </trkpt>
      <trkpt lat="49.3717" lon="-1.17952">
        <ele>7</ele>
        <time>2022-06-02T14:58:04Z</time>
      </trkpt>
      <trkpt lat="49.3717" lon="-1.17953">
        <ele>7</ele>
        <time>2022-06-02T14:58:05Z</time>
      </trkpt>
      <trkpt lat="49.3717" lon="-1.17953">
        <ele>7</ele>
        <time>2022-06-02T14:58:06Z</time>
      </trkpt>
      <trkpt lat="49.3717" lon="-1.17953">
        <ele>7</ele>
        <time>2022-06-02T14:58:07Z</time>
      </trkpt>
      <trkpt lat="49.3717" lon="-1.17952">
        <ele>7</ele>
        <time>2022-06-02T14:58:08Z</time>
      </trkpt>
      <trkpt lat="49.37169" lon="-1.17951">
        <ele>7</ele>
        <time>2022-06-02T14:58:09Z</time>
      </trkpt>
      <trkpt lat="49.37168" lon="-1.17951">
        <ele>7</ele>
        <time>2022-06-02T14:58:11Z</time>
      </trkpt>
      <trkpt lat="49.37168" lon="-1.1795">
        <ele>7</ele>
        <time>2022-06-02T14:58:12Z</time>
      </trkpt>
      <trkpt lat="49.37168" lon="-1.17949">
        <ele>7</ele>
        <time>2022-06-02T14:58:13Z</time>
      </trkpt>
      <trkpt lat="49.37167" lon="-1.17947">
        <ele>7</ele>
        <time>2022-06-02T14:58:15Z</time>
      </trkpt>
      <trkpt lat="49.37167" lon="-1.17946">
        <ele>7</ele>
        <time>2022-06-02T14:58:16Z</time>
      </trkpt>
      <trkpt lat="49.37165" lon="-1.17944">
        <ele>7</ele>
        <time>2022-06-02T14:58:18Z</time>
      </trkpt>
      <trkpt lat="49.37165" lon="-1.17944">
        <ele>7</ele>
        <time>2022-06-02T14:58:19Z</time>
      </trkpt>
      <trkpt lat="49.37164" lon="-1.17943">
        <ele>7</ele>
        <time>2022-06-02T14:58:21Z</time>
      </trkpt>
      <trkpt lat="49.37165" lon="-1.17943">
        <ele>7</ele>
        <time>2022-06-02T14:58:22Z</time>
      </trkpt>
      <trkpt lat="49.37165" lon="-1.17943">
        <ele>7</ele>
        <time>2022-06-02T14:58:23Z</time>
      </trkpt>
      <trkpt lat="49.37165" lon="-1.17943">
        <ele>7</ele>
        <time>2022-06-02T14:58:24Z</time>
      </trkpt>
      <trkpt lat="49.37165" lon="-1.17943">
        <ele>7</ele>
        <time>2022-06-02T14:58:25Z</time>
      </trkpt>
      <trkpt lat="49.37166" lon="-1.17942">
        <ele>7</ele>
        <time>2022-06-02T14:58:27Z</time>
      </trkpt>
      <trkpt lat="49.37166" lon="-1.17941">
        <ele>7</ele>
        <time>2022-06-02T14:58:29Z</time>
      </trkpt>
      <trkpt lat="49.37166" lon="-1.17937">
        <ele>7</ele>
        <time>2022-06-02T14:58:31Z</time>
      </trkpt>
      <trkpt lat="49.37165" lon="-1.17934">
        <ele>7</ele>
        <time>2022-06-02T14:58:32Z</time>
      </trkpt>
      <trkpt lat="49.37164" lon="-1.17933">
        <ele>7</ele>
        <time>2022-06-02T14:58:33Z</time>
      </trkpt>
      <trkpt lat="49.37164" lon="-1.17931">
        <ele>7</ele>
        <time>2022-06-02T14:58:34Z</time>
      </trkpt>
      <trkpt lat="49.37162" lon="-1.17928">
        <ele>7</ele>
        <time>2022-06-02T14:58:35Z</time>
      </trkpt>
      <trkpt lat="49.37161" lon="-1.17927">
        <ele>7</ele>
        <time>2022-06-02T14:58:36Z</time>
      </trkpt>
      <trkpt lat="49.37159" lon="-1.17925">
        <ele>7</ele>
        <time>2022-06-02T14:58:37Z</time>
      </trkpt>
      <trkpt lat="49.37159" lon="-1.17924">
        <ele>7</ele>
        <time>2022-06-02T14:58:38Z</time>
      </trkpt>
      <trkpt lat="49.37158" lon="-1.17923">
        <ele>7</ele>
        <time>2022-06-02T14:58:39Z</time>
      </trkpt>
      <trkpt lat="49.37157" lon="-1.17922">
        <ele>7</ele>
        <time>2022-06-02T14:58:41Z</time>
      </trkpt>
      <trkpt lat="49.37156" lon="-1.17923">
        <ele>7</ele>
        <time>2022-06-02T14:58:42Z</time>
      </trkpt>
      <trkpt lat="49.37155" lon="-1.17923">
        <ele>7</ele>
        <time>2022-06-02T14:58:43Z</time>
      </trkpt>
      <trkpt lat="49.37153" lon="-1.17921">
        <ele>7</ele>
        <time>2022-06-02T14:58:44Z</time>
      </trkpt>
      <trkpt lat="49.37153" lon="-1.17919">
        <ele>7</ele>
        <time>2022-06-02T14:58:45Z</time>
      </trkpt>
      <trkpt lat="49.37152" lon="-1.17918">
        <ele>7</ele>
        <time>2022-06-02T14:58:46Z</time>
      </trkpt>
      <trkpt lat="49.37151" lon="-1.17915">
        <ele>7</ele>
        <time>2022-06-02T14:58:47Z</time>
      </trkpt>
      <trkpt lat="49.37151" lon="-1.17914">
        <ele>7</ele>
        <time>2022-06-02T14:58:48Z</time>
      </trkpt>
      <trkpt lat="49.3715" lon="-1.17913">
        <ele>7</ele>
        <time>2022-06-02T14:58:49Z</time>
      </trkpt>
      <trkpt lat="49.3715" lon="-1.17911">
        <ele>7</ele>
        <time>2022-06-02T14:58:50Z</time>
      </trkpt>
      <trkpt lat="49.37149" lon="-1.1791">
        <ele>7</ele>
        <time>2022-06-02T14:58:51Z</time>
      </trkpt>
      <trkpt lat="49.37147" lon="-1.17906">
        <ele>7</ele>
        <time>2022-06-02T14:58:53Z</time>
      </trkpt>
      <trkpt lat="49.37146" lon="-1.17905">
        <ele>7</ele>
        <time>2022-06-02T14:58:54Z</time>
      </trkpt>
      <trkpt lat="49.37145" lon="-1.17904">
        <ele>7</ele>
        <time>2022-06-02T14:58:55Z</time>
      </trkpt>
      <trkpt lat="49.37144" lon="-1.17902">
        <ele>7.1</ele>
        <time>2022-06-02T14:58:56Z</time>
      </trkpt>
      <trkpt lat="49.37143" lon="-1.179">
        <ele>7.1</ele>
        <time>2022-06-02T14:58:57Z</time>
      </trkpt>
      <trkpt lat="49.37142" lon="-1.17897">
        <ele>7.1</ele>
        <time>2022-06-02T14:58:58Z</time>
      </trkpt>
      <trkpt lat="49.37141" lon="-1.17894">
        <ele>7.1</ele>
        <time>2022-06-02T14:58:59Z</time>
      </trkpt>
      <trkpt lat="49.3714" lon="-1.17893">
        <ele>7.1</ele>
        <time>2022-06-02T14:59:00Z</time>
      </trkpt>
      <trkpt lat="49.3714" lon="-1.17892">
        <ele>7.1</ele>
        <time>2022-06-02T14:59:01Z</time>
      </trkpt>
      <trkpt lat="49.37139" lon="-1.1789">
        <ele>7.1</ele>
        <time>2022-06-02T14:59:03Z</time>
      </trkpt>
      <trkpt lat="49.37138" lon="-1.17887">
        <ele>7.1</ele>
        <time>2022-06-02T14:59:04Z</time>
      </trkpt>
      <trkpt lat="49.37137" lon="-1.17885">
        <ele>7.1</ele>
        <time>2022-06-02T14:59:05Z</time>
      </trkpt>
      <trkpt lat="49.37137" lon="-1.17883">
        <ele>7.1</ele>
        <time>2022-06-02T14:59:06Z</time>
      </trkpt>
      <trkpt lat="49.37136" lon="-1.17882">
        <ele>7.1</ele>
        <time>2022-06-02T14:59:07Z</time>
      </trkpt>
      <trkpt lat="49.37135" lon="-1.17879">
        <ele>7.1</ele>
        <time>2022-06-02T14:59:08Z</time>
      </trkpt>
      <trkpt lat="49.37134" lon="-1.17879">
        <ele>7.1</ele>
        <time>2022-06-02T14:59:09Z</time>
      </trkpt>
      <trkpt lat="49.37134" lon="-1.17878">
        <ele>7.1</ele>
        <time>2022-06-02T14:59:10Z</time>
      </trkpt>
      <trkpt lat="49.37133" lon="-1.17876">
        <ele>7.1</ele>
        <time>2022-06-02T14:59:11Z</time>
      </trkpt>
      <trkpt lat="49.37132" lon="-1.17874">
        <ele>7.1</ele>
        <time>2022-06-02T14:59:12Z</time>
      </trkpt>
      <trkpt lat="49.37131" lon="-1.17872">
        <ele>7.1</ele>
        <time>2022-06-02T14:59:14Z</time>
      </trkpt>
      <trkpt lat="49.3713" lon="-1.17871">
        <ele>7.1</ele>
        <time>2022-06-02T14:59:15Z</time>
      </trkpt>
      <trkpt lat="49.3713" lon="-1.1787">
        <ele>7.1</ele>
        <time>2022-06-02T14:59:16Z</time>
      </trkpt>
      <trkpt lat="49.37129" lon="-1.17869">
        <ele>7.2</ele>
        <time>2022-06-02T14:59:17Z</time>
      </trkpt>
      <trkpt lat="49.37128" lon="-1.17867">
        <ele>7.2</ele>
        <time>2022-06-02T14:59:18Z</time>
      </trkpt>
      <trkpt lat="49.37127" lon="-1.17867">
        <ele>7.2</ele>
        <time>2022-06-02T14:59:19Z</time>
      </trkpt>
      <trkpt lat="49.37126" lon="-1.17864">
        <ele>7.2</ele>
        <time>2022-06-02T14:59:20Z</time>
      </trkpt>
      <trkpt lat="49.37126" lon="-1.17863">
        <ele>7.2</ele>
        <time>2022-06-02T14:59:21Z</time>
      </trkpt>
      <trkpt lat="49.37125" lon="-1.17861">
        <ele>7.2</ele>
        <time>2022-06-02T14:59:23Z</time>
      </trkpt>
      <trkpt lat="49.37125" lon="-1.1786">
        <ele>7.2</ele>
        <time>2022-06-02T14:59:24Z</time>
      </trkpt>
      <trkpt lat="49.37124" lon="-1.17859">
        <ele>7.2</ele>
        <time>2022-06-02T14:59:25Z</time>
      </trkpt>
      <trkpt lat="49.37123" lon="-1.17857">
        <ele>7.2</ele>
        <time>2022-06-02T14:59:26Z</time>
      </trkpt>
      <trkpt lat="49.37123" lon="-1.17856">
        <ele>7.2</ele>
        <time>2022-06-02T14:59:27Z</time>
      </trkpt>
      <trkpt lat="49.37122" lon="-1.17854">
        <ele>7.2</ele>
        <time>2022-06-02T14:59:28Z</time>
      </trkpt>
      <trkpt lat="49.37121" lon="-1.17853">
        <ele>7.2</ele>
        <time>2022-06-02T14:59:29Z</time>
      </trkpt>
      <trkpt lat="49.37121" lon="-1.17852">
        <ele>7.2</ele>
        <time>2022-06-02T14:59:30Z</time>
      </trkpt>
      <trkpt lat="49.3712" lon="-1.1785">
        <ele>7.2</ele>
        <time>2022-06-02T14:59:32Z</time>
      </trkpt>
      <trkpt lat="49.3712" lon="-1.17849">
        <ele>7.2</ele>
        <time>2022-06-02T14:59:33Z</time>
      </trkpt>
      <trkpt lat="49.37119" lon="-1.17847">
        <ele>7.2</ele>
        <time>2022-06-02T14:59:34Z</time>
      </trkpt>
      <trkpt lat="49.37119" lon="-1.17846">
        <ele>7.2</ele>
        <time>2022-06-02T14:59:35Z</time>
      </trkpt>
      <trkpt lat="49.37118" lon="-1.17845">
        <ele>7.2</ele>
        <time>2022-06-02T14:59:36Z</time>
      </trkpt>
      <trkpt lat="49.37118" lon="-1.17844">
        <ele>7.2</ele>
        <time>2022-06-02T14:59:37Z</time>
      </trkpt>
      <trkpt lat="49.37117" lon="-1.17842">
        <ele>7.2</ele>
        <time>2022-06-02T14:59:38Z</time>
      </trkpt>
      <trkpt lat="49.37116" lon="-1.17841">
        <ele>7.2</ele>
        <time>2022-06-02T14:59:39Z</time>
      </trkpt>
      <trkpt lat="49.37116" lon="-1.17839">
        <ele>7.2</ele>
        <time>2022-06-02T14:59:41Z</time>
      </trkpt>
      <trkpt lat="49.37115" lon="-1.17838">
        <ele>7.2</ele>
        <time>2022-06-02T14:59:42Z</time>
      </trkpt>
      <trkpt lat="49.37115" lon="-1.17836">
        <ele>7.2</ele>
        <time>2022-06-02T14:59:43Z</time>
      </trkpt>
      <trkpt lat="49.37114" lon="-1.17834">
        <ele>7.2</ele>
        <time>2022-06-02T14:59:44Z</time>
      </trkpt>
      <trkpt lat="49.37113" lon="-1.17834">
        <ele>7.2</ele>
        <time>2022-06-02T14:59:45Z</time>
      </trkpt>
      <trkpt lat="49.37113" lon="-1.17832">
        <ele>7.3</ele>
        <time>2022-06-02T14:59:47Z</time>
      </trkpt>
      <trkpt lat="49.37113" lon="-1.17831">
        <ele>7.3</ele>
        <time>2022-06-02T14:59:48Z</time>
      </trkpt>
      <trkpt lat="49.37114" lon="-1.17829">
        <ele>7.3</ele>
        <time>2022-06-02T14:59:49Z</time>
      </trkpt>
      <trkpt lat="49.37115" lon="-1.17828">
        <ele>7.3</ele>
        <time>2022-06-02T14:59:50Z</time>
      </trkpt>
      <trkpt lat="49.37116" lon="-1.17826">
        <ele>7.3</ele>
        <time>2022-06-02T14:59:51Z</time>
      </trkpt>
      <trkpt lat="49.37117" lon="-1.17825">
        <ele>7.3</ele>
        <time>2022-06-02T14:59:52Z</time>
      </trkpt>
      <trkpt lat="49.37119" lon="-1.17823">
        <ele>7.3</ele>
        <time>2022-06-02T14:59:54Z</time>
      </trkpt>
      <trkpt lat="49.3712" lon="-1.17822">
        <ele>7.3</ele>
        <time>2022-06-02T14:59:55Z</time>
      </trkpt>
      <trkpt lat="49.37121" lon="-1.17821">
        <ele>7.3</ele>
        <time>2022-06-02T14:59:56Z</time>
      </trkpt>
      <trkpt lat="49.37122" lon="-1.17819">
        <ele>7.3</ele>
        <time>2022-06-02T14:59:57Z</time>
      </trkpt>
      <trkpt lat="49.37123" lon="-1.17818">
        <ele>7.3</ele>
        <time>2022-06-02T14:59:59Z</time>
      </trkpt>
      <trkpt lat="49.37124" lon="-1.17817">
        <ele>7.3</ele>
        <time>2022-06-02T15:00:00Z</time>
      </trkpt>
      <trkpt lat="49.37125" lon="-1.17816">
        <ele>7.3</ele>
        <time>2022-06-02T15:00:01Z</time>
      </trkpt>
      <trkpt lat="49.37126" lon="-1.17814">
        <ele>7.3</ele>
        <time>2022-06-02T15:00:02Z</time>
      </trkpt>
      <trkpt lat="49.37127" lon="-1.17813">
        <ele>7.3</ele>
        <time>2022-06-02T15:00:03Z</time>
      </trkpt>
      <trkpt lat="49.37128" lon="-1.17811">
        <ele>7.3</ele>
        <time>2022-06-02T15:00:04Z</time>
      </trkpt>
      <trkpt lat="49.37128" lon="-1.17809">
        <ele>7.3</ele>
        <time>2022-06-02T15:00:06Z</time>
      </trkpt>
      <trkpt lat="49.37129" lon="-1.17808">
        <ele>7.3</ele>
        <time>2022-06-02T15:00:07Z</time>
      </trkpt>
      <trkpt lat="49.37129" lon="-1.17807">
        <ele>7.4</ele>
        <time>2022-06-02T15:00:08Z</time>
      </trkpt>
      <trkpt lat="49.3713" lon="-1.17805">
        <ele>7.4</ele>
        <time>2022-06-02T15:00:09Z</time>
      </trkpt>
      <trkpt lat="49.3713" lon="-1.17802">
        <ele>7.4</ele>
        <time>2022-06-02T15:00:11Z</time>
      </trkpt>
      <trkpt lat="49.3713" lon="-1.17801">
        <ele>7.4</ele>
        <time>2022-06-02T15:00:13Z</time>
      </trkpt>
      <trkpt lat="49.37129" lon="-1.17799">
        <ele>7.4</ele>
        <time>2022-06-02T15:00:15Z</time>
      </trkpt>
      <trkpt lat="49.37129" lon="-1.17799">
        <ele>7.4</ele>
        <time>2022-06-02T15:00:16Z</time>
      </trkpt>
      <trkpt lat="49.37129" lon="-1.17798">
        <ele>7.4</ele>
        <time>2022-06-02T15:00:17Z</time>
      </trkpt>
      <trkpt lat="49.37129" lon="-1.17796">
        <ele>7.4</ele>
        <time>2022-06-02T15:00:20Z</time>
      </trkpt>
      <trkpt lat="49.37129" lon="-1.17795">
        <ele>7.4</ele>
        <time>2022-06-02T15:00:21Z</time>
      </trkpt>
      <trkpt lat="49.37129" lon="-1.17794">
        <ele>7.4</ele>
        <time>2022-06-02T15:00:22Z</time>
      </trkpt>
      <trkpt lat="49.3713" lon="-1.17794">
        <ele>7.4</ele>
        <time>2022-06-02T15:00:23Z</time>
      </trkpt>
      <trkpt lat="49.37129" lon="-1.17794">
        <ele>7.4</ele>
        <time>2022-06-02T15:00:24Z</time>
      </trkpt>
      <trkpt lat="49.37129" lon="-1.17794">
        <ele>7.4</ele>
        <time>2022-06-02T15:00:25Z</time>
      </trkpt>
      <trkpt lat="49.37129" lon="-1.17794">
        <ele>7.4</ele>
        <time>2022-06-02T15:00:26Z</time>
      </trkpt>
      <trkpt lat="49.37129" lon="-1.17795">
        <ele>7.4</ele>
        <time>2022-06-02T15:00:27Z</time>
      </trkpt>
      <trkpt lat="49.37129" lon="-1.17795">
        <ele>7.4</ele>
        <time>2022-06-02T15:00:28Z</time>
      </trkpt>
      <trkpt lat="49.37129" lon="-1.17795">
        <ele>7.4</ele>
        <time>2022-06-02T15:00:30Z</time>
      </trkpt>
      <trkpt lat="49.37129" lon="-1.17795">
        <ele>7.4</ele>
        <time>2022-06-02T15:00:31Z</time>
      </trkpt>
      <trkpt lat="49.37129" lon="-1.17795">
        <ele>7.4</ele>
        <time>2022-06-02T15:00:32Z</time>
      </trkpt>
      <trkpt lat="49.37129" lon="-1.17795">
        <ele>7.4</ele>
        <time>2022-06-02T15:00:34Z</time>
      </trkpt>
      <trkpt lat="49.37129" lon="-1.17796">
        <ele>7.4</ele>
        <time>2022-06-02T15:00:35Z</time>
      </trkpt>
      <trkpt lat="49.37129" lon="-1.17796">
        <ele>7.4</ele>
        <time>2022-06-02T15:00:36Z</time>
      </trkpt>
      <trkpt lat="49.37129" lon="-1.17796">
        <ele>7.4</ele>
        <time>2022-06-02T15:00:37Z</time>
      </trkpt>
      <trkpt lat="49.37129" lon="-1.17796">
        <ele>7.4</ele>
        <time>2022-06-02T15:00:38Z</time>
      </trkpt>
      <trkpt lat="49.37129" lon="-1.17796">
        <ele>7.4</ele>
        <time>2022-06-02T15:00:39Z</time>
      </trkpt>
      <trkpt lat="49.37129" lon="-1.17796">
        <ele>7.4</ele>
        <time>2022-06-02T15:00:40Z</time>
      </trkpt>
      <trkpt lat="49.37129" lon="-1.17796">
        <ele>7.4</ele>
        <time>2022-06-02T15:00:41Z</time>
      </trkpt>
      <trkpt lat="49.3713" lon="-1.17796">
        <ele>7.4</ele>
        <time>2022-06-02T15:00:42Z</time>
      </trkpt>
      <trkpt lat="49.3713" lon="-1.17795">
        <ele>7.4</ele>
        <time>2022-06-02T15:00:43Z</time>
      </trkpt>
      <trkpt lat="49.37132" lon="-1.17794">
        <ele>7.5</ele>
        <time>2022-06-02T15:00:45Z</time>
      </trkpt>
      <trkpt lat="49.37133" lon="-1.17794">
        <ele>7.5</ele>
        <time>2022-06-02T15:00:47Z</time>
      </trkpt>
      <trkpt lat="49.37133" lon="-1.17794">
        <ele>7.5</ele>
        <time>2022-06-02T15:00:48Z</time>
      </trkpt>
      <trkpt lat="49.37134" lon="-1.17793">
        <ele>7.5</ele>
        <time>2022-06-02T15:00:49Z</time>
      </trkpt>
      <trkpt lat="49.37134" lon="-1.17793">
        <ele>7.5</ele>
        <time>2022-06-02T15:00:50Z</time>
      </trkpt>
      <trkpt lat="49.37134" lon="-1.17793">
        <ele>7.5</ele>
        <time>2022-06-02T15:00:51Z</time>
      </trkpt>
      <trkpt lat="49.37134" lon="-1.17794">
        <ele>7.5</ele>
        <time>2022-06-02T15:00:52Z</time>
      </trkpt>
      <trkpt lat="49.37133" lon="-1.17794">
        <ele>7.5</ele>
        <time>2022-06-02T15:00:53Z</time>
      </trkpt>
      <trkpt lat="49.37133" lon="-1.17795">
        <ele>7.5</ele>
        <time>2022-06-02T15:00:54Z</time>
      </trkpt>
      <trkpt lat="49.37133" lon="-1.17795">
        <ele>7.5</ele>
        <time>2022-06-02T15:00:55Z</time>
      </trkpt>
      <trkpt lat="49.37133" lon="-1.17795">
        <ele>7.5</ele>
        <time>2022-06-02T15:00:56Z</time>
      </trkpt>
      <trkpt lat="49.37133" lon="-1.17795">
        <ele>7.5</ele>
        <time>2022-06-02T15:00:57Z</time>
      </trkpt>
      <trkpt lat="49.37133" lon="-1.17795">
        <ele>7.5</ele>
        <time>2022-06-02T15:00:58Z</time>
      </trkpt>
      <trkpt lat="49.37132" lon="-1.17795">
        <ele>7.5</ele>
        <time>2022-06-02T15:00:59Z</time>
      </trkpt>
      <trkpt lat="49.37132" lon="-1.17795">
        <ele>7.5</ele>
        <time>2022-06-02T15:01:00Z</time>
      </trkpt>
      <trkpt lat="49.37132" lon="-1.17795">
        <ele>7.5</ele>
        <time>2022-06-02T15:01:01Z</time>
      </trkpt>
      <trkpt lat="49.37132" lon="-1.17795">
        <ele>7.5</ele>
        <time>2022-06-02T15:01:02Z</time>
      </trkpt>
      <trkpt lat="49.37132" lon="-1.17795">
        <ele>7.5</ele>
        <time>2022-06-02T15:01:03Z</time>
      </trkpt>
      <trkpt lat="49.37132" lon="-1.17796">
        <ele>7.5</ele>
        <time>2022-06-02T15:01:04Z</time>
      </trkpt>
      <trkpt lat="49.37132" lon="-1.17795">
        <ele>7.5</ele>
        <time>2022-06-02T15:01:05Z</time>
      </trkpt>
      <trkpt lat="49.37132" lon="-1.17796">
        <ele>7.5</ele>
        <time>2022-06-02T15:01:06Z</time>
      </trkpt>
      <trkpt lat="49.37132" lon="-1.17796">
        <ele>7.5</ele>
        <time>2022-06-02T15:01:07Z</time>
      </trkpt>
      <trkpt lat="49.37132" lon="-1.17797">
        <ele>7.5</ele>
        <time>2022-06-02T15:01:08Z</time>
      </trkpt>
      <trkpt lat="49.37132" lon="-1.17797">
        <ele>7.5</ele>
        <time>2022-06-02T15:01:09Z</time>
      </trkpt>
      <trkpt lat="49.37132" lon="-1.17797">
        <ele>7.5</ele>
        <time>2022-06-02T15:01:10Z</time>
      </trkpt>
      <trkpt lat="49.37132" lon="-1.17797">
        <ele>7.5</ele>
        <time>2022-06-02T15:01:11Z</time>
      </trkpt>
      <trkpt lat="49.37132" lon="-1.17797">
        <ele>7.5</ele>
        <time>2022-06-02T15:01:12Z</time>
      </trkpt>
      <trkpt lat="49.37132" lon="-1.17797">
        <ele>7.5</ele>
        <time>2022-06-02T15:01:13Z</time>
      </trkpt>
      <trkpt lat="49.37132" lon="-1.17797">
        <ele>7.5</ele>
        <time>2022-06-02T15:01:14Z</time>
      </trkpt>
      <trkpt lat="49.37132" lon="-1.17797">
        <ele>7.5</ele>
        <time>2022-06-02T15:01:15Z</time>
      </trkpt>
      <trkpt lat="49.37132" lon="-1.17797">
        <ele>7.5</ele>
        <time>2022-06-02T15:01:16Z</time>
      </trkpt>
      <trkpt lat="49.37132" lon="-1.17797">
        <ele>7.5</ele>
        <time>2022-06-02T15:01:17Z</time>
      </trkpt>
      <trkpt lat="49.37132" lon="-1.17797">
        <ele>7.5</ele>
        <time>2022-06-02T15:01:18Z</time>
      </trkpt>
      <trkpt lat="49.37132" lon="-1.17797">
        <ele>7.5</ele>
        <time>2022-06-02T15:01:19Z</time>
      </trkpt>
      <trkpt lat="49.37132" lon="-1.17797">
        <ele>7.5</ele>
        <time>2022-06-02T15:01:20Z</time>
      </trkpt>
      <trkpt lat="49.37132" lon="-1.17797">
        <ele>7.5</ele>
        <time>2022-06-02T15:01:21Z</time>
      </trkpt>
      <trkpt lat="49.37132" lon="-1.17797">
        <ele>7.5</ele>
        <time>2022-06-02T15:01:22Z</time>
      </trkpt>
      <trkpt lat="49.37132" lon="-1.17797">
        <ele>7.5</ele>
        <time>2022-06-02T15:01:23Z</time>
      </trkpt>
      <trkpt lat="49.37132" lon="-1.17797">
        <ele>7.5</ele>
        <time>2022-06-02T15:01:24Z</time>
      </trkpt>
      <trkpt lat="49.37132" lon="-1.17797">
        <ele>7.5</ele>
        <time>2022-06-02T15:01:25Z</time>
      </trkpt>
      <trkpt lat="49.37132" lon="-1.17797">
        <ele>7.5</ele>
        <time>2022-06-02T15:01:26Z</time>
      </trkpt>
      <trkpt lat="49.37132" lon="-1.17797">
        <ele>7.5</ele>
        <time>2022-06-02T15:01:27Z</time>
      </trkpt>
      <trkpt lat="49.37132" lon="-1.17797">
        <ele>7.5</ele>
        <time>2022-06-02T15:01:28Z</time>
      </trkpt>
      <trkpt lat="49.37132" lon="-1.17797">
        <ele>7.5</ele>
        <time>2022-06-02T15:01:29Z</time>
      </trkpt>
      <trkpt lat="49.37132" lon="-1.17797">
        <ele>7.5</ele>
        <time>2022-06-02T15:01:30Z</time>
      </trkpt>
      <trkpt lat="49.37132" lon="-1.17797">
        <ele>7.5</ele>
        <time>2022-06-02T15:01:31Z</time>
      </trkpt>
      <trkpt lat="49.37132" lon="-1.17797">
        <ele>7.5</ele>
        <time>2022-06-02T15:01:32Z</time>
      </trkpt>
      <trkpt lat="49.37132" lon="-1.17797">
        <ele>7.5</ele>
        <time>2022-06-02T15:01:33Z</time>
      </trkpt>
      <trkpt lat="49.37132" lon="-1.17797">
        <ele>7.5</ele>
        <time>2022-06-02T15:01:34Z</time>
      </trkpt>
      <trkpt lat="49.37132" lon="-1.17797">
        <ele>7.5</ele>
        <time>2022-06-02T15:01:35Z</time>
      </trkpt>
      <trkpt lat="49.37132" lon="-1.17797">
        <ele>7.5</ele>
        <time>2022-06-02T15:01:36Z</time>
      </trkpt>
      <trkpt lat="49.37132" lon="-1.17797">
        <ele>7.5</ele>
        <time>2022-06-02T15:01:37Z</time>
      </trkpt>
      <trkpt lat="49.37132" lon="-1.17797">
        <ele>7.5</ele>
        <time>2022-06-02T15:01:38Z</time>
      </trkpt>
      <trkpt lat="49.37132" lon="-1.17797">
        <ele>7.5</ele>
        <time>2022-06-02T15:01:39Z</time>
      </trkpt>
      <trkpt lat="49.37132" lon="-1.17797">
        <ele>7.5</ele>
        <time>2022-06-02T15:01:40Z</time>
      </trkpt>
      <trkpt lat="49.37132" lon="-1.17797">
        <ele>7.5</ele>
        <time>2022-06-02T15:01:41Z</time>
      </trkpt>
      <trkpt lat="49.37132" lon="-1.17797">
        <ele>7.5</ele>
        <time>2022-06-02T15:01:42Z</time>
      </trkpt>
      <trkpt lat="49.37132" lon="-1.17797">
        <ele>7.5</ele>
        <time>2022-06-02T15:01:43Z</time>
      </trkpt>
      <trkpt lat="49.37132" lon="-1.17797">
        <ele>7.5</ele>
        <time>2022-06-02T15:01:44Z</time>
      </trkpt>
      <trkpt lat="49.37132" lon="-1.17797">
        <ele>7.5</ele>
        <time>2022-06-02T15:01:45Z</time>
      </trkpt>
      <trkpt lat="49.37132" lon="-1.17797">
        <ele>7.5</ele>
        <time>2022-06-02T15:01:46Z</time>
      </trkpt>
      <trkpt lat="49.37132" lon="-1.17797">
        <ele>7.5</ele>
        <time>2022-06-02T15:01:47Z</time>
      </trkpt>
      <trkpt lat="49.37132" lon="-1.17797">
        <ele>7.5</ele>
        <time>2022-06-02T15:01:48Z</time>
      </trkpt>
      <trkpt lat="49.37132" lon="-1.17797">
        <ele>7.5</ele>
        <time>2022-06-02T15:01:49Z</time>
      </trkpt>
      <trkpt lat="49.37132" lon="-1.17797">
        <ele>7.5</ele>
        <time>2022-06-02T15:01:50Z</time>
      </trkpt>
      <trkpt lat="49.37132" lon="-1.17797">
        <ele>7.5</ele>
        <time>2022-06-02T15:01:51Z</time>
      </trkpt>
      <trkpt lat="49.37132" lon="-1.17797">
        <ele>7.5</ele>
        <time>2022-06-02T15:01:52Z</time>
      </trkpt>
      <trkpt lat="49.37132" lon="-1.17797">
        <ele>7.5</ele>
        <time>2022-06-02T15:01:53Z</time>
      </trkpt>
      <trkpt lat="49.37132" lon="-1.17797">
        <ele>7.5</ele>
        <time>2022-06-02T15:01:54Z</time>
      </trkpt>
      <trkpt lat="49.37132" lon="-1.17797">
        <ele>7.5</ele>
        <time>2022-06-02T15:01:55Z</time>
      </trkpt>
      <trkpt lat="49.37132" lon="-1.17797">
        <ele>7.5</ele>
        <time>2022-06-02T15:01:56Z</time>
      </trkpt>
      <trkpt lat="49.37132" lon="-1.17797">
        <ele>7.5</ele>
        <time>2022-06-02T15:01:57Z</time>
      </trkpt>
      <trkpt lat="49.37132" lon="-1.17797">
        <ele>7.5</ele>
        <time>2022-06-02T15:01:58Z</time>
      </trkpt>
      <trkpt lat="49.37132" lon="-1.17797">
        <ele>7.5</ele>
        <time>2022-06-02T15:01:59Z</time>
      </trkpt>
      <trkpt lat="49.37132" lon="-1.17797">
        <ele>7.5</ele>
        <time>2022-06-02T15:02:00Z</time>
      </trkpt>
      <trkpt lat="49.37132" lon="-1.17797">
        <ele>7.5</ele>
        <time>2022-06-02T15:02:01Z</time>
      </trkpt>
      <trkpt lat="49.37132" lon="-1.17797">
        <ele>7.5</ele>
        <time>2022-06-02T15:02:02Z</time>
      </trkpt>
      <trkpt lat="49.37132" lon="-1.17797">
        <ele>7.5</ele>
        <time>2022-06-02T15:02:03Z</time>
      </trkpt>
      <trkpt lat="49.37132" lon="-1.17797">
        <ele>7.5</ele>
        <time>2022-06-02T15:02:04Z</time>
      </trkpt>
      <trkpt lat="49.37132" lon="-1.17797">
        <ele>7.5</ele>
        <time>2022-06-02T15:02:05Z</time>
      </trkpt>
      <trkpt lat="49.37132" lon="-1.17797">
        <ele>7.5</ele>
        <time>2022-06-02T15:02:06Z</time>
      </trkpt>
      <trkpt lat="49.37132" lon="-1.17797">
        <ele>7.5</ele>
        <time>2022-06-02T15:02:07Z</time>
      </trkpt>
      <trkpt lat="49.37132" lon="-1.17797">
        <ele>7.5</ele>
        <time>2022-06-02T15:02:08Z</time>
      </trkpt>
      <trkpt lat="49.37132" lon="-1.17797">
        <ele>7.5</ele>
        <time>2022-06-02T15:02:09Z</time>
      </trkpt>
      <trkpt lat="49.37132" lon="-1.17797">
        <ele>7.5</ele>
        <time>2022-06-02T15:02:10Z</time>
      </trkpt>
      <trkpt lat="49.37132" lon="-1.17797">
        <ele>7.5</ele>
        <time>2022-06-02T15:02:11Z</time>
      </trkpt>
      <trkpt lat="49.37132" lon="-1.17797">
        <ele>7.5</ele>
        <time>2022-06-02T15:02:12Z</time>
      </trkpt>
      <trkpt lat="49.37132" lon="-1.17797">
        <ele>7.5</ele>
        <time>2022-06-02T15:02:13Z</time>
      </trkpt>
      <trkpt lat="49.37132" lon="-1.17797">
        <ele>7.5</ele>
        <time>2022-06-02T15:02:14Z</time>
      </trkpt>
      <trkpt lat="49.37132" lon="-1.17797">
        <ele>7.5</ele>
        <time>2022-06-02T15:02:15Z</time>
      </trkpt>
      <trkpt lat="49.37132" lon="-1.17797">
        <ele>7.5</ele>
        <time>2022-06-02T15:02:16Z</time>
      </trkpt>
      <trkpt lat="49.37132" lon="-1.17797">
        <ele>7.5</ele>
        <time>2022-06-02T15:02:17Z</time>
      </trkpt>
      <trkpt lat="49.37132" lon="-1.17797">
        <ele>7.5</ele>
        <time>2022-06-02T15:02:18Z</time>
      </trkpt>
      <trkpt lat="49.37132" lon="-1.17797">
        <ele>7.5</ele>
        <time>2022-06-02T15:02:19Z</time>
      </trkpt>
      <trkpt lat="49.37132" lon="-1.17797">
        <ele>7.5</ele>
        <time>2022-06-02T15:02:20Z</time>
      </trkpt>
      <trkpt lat="49.37132" lon="-1.17797">
        <ele>7.5</ele>
        <time>2022-06-02T15:02:21Z</time>
      </trkpt>
      <trkpt lat="49.37132" lon="-1.17797">
        <ele>7.5</ele>
        <time>2022-06-02T15:02:22Z</time>
      </trkpt>
      <trkpt lat="49.37132" lon="-1.17797">
        <ele>7.5</ele>
        <time>2022-06-02T15:02:23Z</time>
      </trkpt>
      <trkpt lat="49.37132" lon="-1.17797">
        <ele>7.5</ele>
        <time>2022-06-02T15:02:24Z</time>
      </trkpt>
      <trkpt lat="49.37132" lon="-1.17797">
        <ele>7.5</ele>
        <time>2022-06-02T15:02:25Z</time>
      </trkpt>
      <trkpt lat="49.37132" lon="-1.17797">
        <ele>7.5</ele>
        <time>2022-06-02T15:02:26Z</time>
      </trkpt>
      <trkpt lat="49.37132" lon="-1.17797">
        <ele>7.5</ele>
        <time>2022-06-02T15:02:27Z</time>
      </trkpt>
      <trkpt lat="49.37132" lon="-1.17797">
        <ele>7.5</ele>
        <time>2022-06-02T15:02:28Z</time>
      </trkpt>
      <trkpt lat="49.37132" lon="-1.17797">
        <ele>7.5</ele>
        <time>2022-06-02T15:02:29Z</time>
      </trkpt>
      <trkpt lat="49.37132" lon="-1.17797">
        <ele>7.5</ele>
        <time>2022-06-02T15:02:30Z</time>
      </trkpt>
      <trkpt lat="49.37132" lon="-1.17797">
        <ele>7.5</ele>
        <time>2022-06-02T15:02:31Z</time>
      </trkpt>
      <trkpt lat="49.37132" lon="-1.17797">
        <ele>7.5</ele>
        <time>2022-06-02T15:02:32Z</time>
      </trkpt>
      <trkpt lat="49.37132" lon="-1.17797">
        <ele>7.5</ele>
        <time>2022-06-02T15:02:33Z</time>
      </trkpt>
      <trkpt lat="49.37132" lon="-1.17797">
        <ele>7.5</ele>
        <time>2022-06-02T15:02:34Z</time>
      </trkpt>
      <trkpt lat="49.37132" lon="-1.17797">
        <ele>7.5</ele>
        <time>2022-06-02T15:02:35Z</time>
      </trkpt>
      <trkpt lat="49.37132" lon="-1.17797">
        <ele>7.5</ele>
        <time>2022-06-02T15:02:36Z</time>
      </trkpt>
      <trkpt lat="49.37132" lon="-1.17797">
        <ele>7.5</ele>
        <time>2022-06-02T15:02:37Z</time>
      </trkpt>
      <trkpt lat="49.37132" lon="-1.17797">
        <ele>7.5</ele>
        <time>2022-06-02T15:02:38Z</time>
      </trkpt>
      <trkpt lat="49.37132" lon="-1.17797">
        <ele>7.5</ele>
        <time>2022-06-02T15:02:39Z</time>
      </trkpt>
      <trkpt lat="49.37132" lon="-1.17797">
        <ele>7.5</ele>
        <time>2022-06-02T15:02:40Z</time>
      </trkpt>
      <trkpt lat="49.37132" lon="-1.17797">
        <ele>7.5</ele>
        <time>2022-06-02T15:02:41Z</time>
      </trkpt>
      <trkpt lat="49.37132" lon="-1.17797">
        <ele>7.5</ele>
        <time>2022-06-02T15:02:42Z</time>
      </trkpt>
      <trkpt lat="49.37132" lon="-1.17797">
        <ele>7.5</ele>
        <time>2022-06-02T15:02:43Z</time>
      </trkpt>
      <trkpt lat="49.37132" lon="-1.17797">
        <ele>7.5</ele>
        <time>2022-06-02T15:02:44Z</time>
      </trkpt>
      <trkpt lat="49.37132" lon="-1.17797">
        <ele>7.5</ele>
        <time>2022-06-02T15:02:45Z</time>
      </trkpt>
      <trkpt lat="49.37132" lon="-1.17797">
        <ele>7.5</ele>
        <time>2022-06-02T15:02:46Z</time>
      </trkpt>
      <trkpt lat="49.37132" lon="-1.17797">
        <ele>7.5</ele>
        <time>2022-06-02T15:02:47Z</time>
      </trkpt>
      <trkpt lat="49.37132" lon="-1.17797">
        <ele>7.5</ele>
        <time>2022-06-02T15:02:48Z</time>
      </trkpt>
      <trkpt lat="49.37132" lon="-1.17797">
        <ele>7.5</ele>
        <time>2022-06-02T15:02:49Z</time>
      </trkpt>
      <trkpt lat="49.37132" lon="-1.17797">
        <ele>7.5</ele>
        <time>2022-06-02T15:02:50Z</time>
      </trkpt>
      <trkpt lat="49.37132" lon="-1.17797">
        <ele>7.5</ele>
        <time>2022-06-02T15:02:51Z</time>
      </trkpt>
      <trkpt lat="49.37132" lon="-1.17797">
        <ele>7.5</ele>
        <time>2022-06-02T15:02:52Z</time>
      </trkpt>
      <trkpt lat="49.37132" lon="-1.17797">
        <ele>7.5</ele>
        <time>2022-06-02T15:02:53Z</time>
      </trkpt>
      <trkpt lat="49.37132" lon="-1.17797">
        <ele>7.5</ele>
        <time>2022-06-02T15:02:54Z</time>
      </trkpt>
      <trkpt lat="49.37132" lon="-1.17797">
        <ele>7.5</ele>
        <time>2022-06-02T15:02:55Z</time>
      </trkpt>
      <trkpt lat="49.37132" lon="-1.17797">
        <ele>7.5</ele>
        <time>2022-06-02T15:02:56Z</time>
      </trkpt>
      <trkpt lat="49.37132" lon="-1.17797">
        <ele>7.5</ele>
        <time>2022-06-02T15:02:57Z</time>
      </trkpt>
      <trkpt lat="49.37132" lon="-1.17797">
        <ele>7.5</ele>
        <time>2022-06-02T15:02:58Z</time>
      </trkpt>
      <trkpt lat="49.37132" lon="-1.17797">
        <ele>7.5</ele>
        <time>2022-06-02T15:02:59Z</time>
      </trkpt>
      <trkpt lat="49.37132" lon="-1.17797">
        <ele>7.5</ele>
        <time>2022-06-02T15:03:00Z</time>
      </trkpt>
      <trkpt lat="49.37132" lon="-1.17797">
        <ele>7.5</ele>
        <time>2022-06-02T15:03:01Z</time>
      </trkpt>
      <trkpt lat="49.37132" lon="-1.17797">
        <ele>7.5</ele>
        <time>2022-06-02T15:03:02Z</time>
      </trkpt>
      <trkpt lat="49.37132" lon="-1.17797">
        <ele>7.5</ele>
        <time>2022-06-02T15:03:03Z</time>
      </trkpt>
      <trkpt lat="49.37132" lon="-1.17797">
        <ele>7.5</ele>
        <time>2022-06-02T15:03:04Z</time>
      </trkpt>
      <trkpt lat="49.37132" lon="-1.17797">
        <ele>7.5</ele>
        <time>2022-06-02T15:03:05Z</time>
      </trkpt>
      <trkpt lat="49.37132" lon="-1.17797">
        <ele>7.5</ele>
        <time>2022-06-02T15:03:06Z</time>
      </trkpt>
      <trkpt lat="49.37132" lon="-1.17797">
        <ele>7.5</ele>
        <time>2022-06-02T15:03:07Z</time>
      </trkpt>
      <trkpt lat="49.37132" lon="-1.17797">
        <ele>7.5</ele>
        <time>2022-06-02T15:03:08Z</time>
      </trkpt>
      <trkpt lat="49.37132" lon="-1.17797">
        <ele>7.5</ele>
        <time>2022-06-02T15:03:09Z</time>
      </trkpt>
      <trkpt lat="49.37132" lon="-1.17797">
        <ele>7.5</ele>
        <time>2022-06-02T15:03:10Z</time>
      </trkpt>
      <trkpt lat="49.37132" lon="-1.17797">
        <ele>7.5</ele>
        <time>2022-06-02T15:03:11Z</time>
      </trkpt>
      <trkpt lat="49.37132" lon="-1.17797">
        <ele>7.5</ele>
        <time>2022-06-02T15:03:12Z</time>
      </trkpt>
      <trkpt lat="49.37132" lon="-1.17797">
        <ele>7.5</ele>
        <time>2022-06-02T15:03:13Z</time>
      </trkpt>
      <trkpt lat="49.37132" lon="-1.17797">
        <ele>7.5</ele>
        <time>2022-06-02T15:03:14Z</time>
      </trkpt>
      <trkpt lat="49.37132" lon="-1.17797">
        <ele>7.5</ele>
        <time>2022-06-02T15:03:15Z</time>
      </trkpt>
      <trkpt lat="49.37132" lon="-1.17797">
        <ele>7.5</ele>
        <time>2022-06-02T15:03:16Z</time>
      </trkpt>
      <trkpt lat="49.37132" lon="-1.17797">
        <ele>7.5</ele>
        <time>2022-06-02T15:03:17Z</time>
      </trkpt>
      <trkpt lat="49.37132" lon="-1.17797">
        <ele>7.5</ele>
        <time>2022-06-02T15:03:18Z</time>
      </trkpt>
      <trkpt lat="49.37132" lon="-1.17797">
        <ele>7.5</ele>
        <time>2022-06-02T15:03:19Z</time>
      </trkpt>
      <trkpt lat="49.37132" lon="-1.17797">
        <ele>7.5</ele>
        <time>2022-06-02T15:03:20Z</time>
      </trkpt>
      <trkpt lat="49.37132" lon="-1.17797">
        <ele>7.5</ele>
        <time>2022-06-02T15:03:21Z</time>
      </trkpt>
      <trkpt lat="49.37132" lon="-1.17797">
        <ele>7.5</ele>
        <time>2022-06-02T15:03:22Z</time>
      </trkpt>
      <trkpt lat="49.37132" lon="-1.17797">
        <ele>7.5</ele>
        <time>2022-06-02T15:03:24Z</time>
      </trkpt>
      <trkpt lat="49.37132" lon="-1.17797">
        <ele>7.5</ele>
        <time>2022-06-02T15:03:25Z</time>
      </trkpt>
      <trkpt lat="49.37132" lon="-1.17797">
        <ele>7.5</ele>
        <time>2022-06-02T15:03:26Z</time>
      </trkpt>
      <trkpt lat="49.37132" lon="-1.17797">
        <ele>7.5</ele>
        <time>2022-06-02T15:03:27Z</time>
      </trkpt>
      <trkpt lat="49.37132" lon="-1.17797">
        <ele>7.5</ele>
        <time>2022-06-02T15:03:28Z</time>
      </trkpt>
      <trkpt lat="49.37132" lon="-1.17797">
        <ele>7.5</ele>
        <time>2022-06-02T15:03:29Z</time>
      </trkpt>
      <trkpt lat="49.37132" lon="-1.17797">
        <ele>7.5</ele>
        <time>2022-06-02T15:03:30Z</time>
      </trkpt>
      <trkpt lat="49.37132" lon="-1.17797">
        <ele>7.5</ele>
        <time>2022-06-02T15:03:31Z</time>
      </trkpt>
      <trkpt lat="49.37132" lon="-1.17797">
        <ele>7.5</ele>
        <time>2022-06-02T15:03:32Z</time>
      </trkpt>
      <trkpt lat="49.37132" lon="-1.17797">
        <ele>7.5</ele>
        <time>2022-06-02T15:03:33Z</time>
      </trkpt>
      <trkpt lat="49.37132" lon="-1.17797">
        <ele>7.5</ele>
        <time>2022-06-02T15:03:34Z</time>
      </trkpt>
      <trkpt lat="49.37132" lon="-1.17797">
        <ele>7.5</ele>
        <time>2022-06-02T15:03:35Z</time>
      </trkpt>
      <trkpt lat="49.37132" lon="-1.17797">
        <ele>7.5</ele>
        <time>2022-06-02T15:03:36Z</time>
      </trkpt>
      <trkpt lat="49.37132" lon="-1.17797">
        <ele>7.5</ele>
        <time>2022-06-02T15:03:37Z</time>
      </trkpt>
      <trkpt lat="49.37131" lon="-1.17798">
        <ele>7.5</ele>
        <time>2022-06-02T15:03:38Z</time>
      </trkpt>
      <trkpt lat="49.3713" lon="-1.17798">
        <ele>7.5</ele>
        <time>2022-06-02T15:03:39Z</time>
      </trkpt>
      <trkpt lat="49.3713" lon="-1.17798">
        <ele>7.5</ele>
        <time>2022-06-02T15:03:40Z</time>
      </trkpt>
      <trkpt lat="49.37129" lon="-1.17798">
        <ele>7.5</ele>
        <time>2022-06-02T15:03:42Z</time>
      </trkpt>
      <trkpt lat="49.37128" lon="-1.17799">
        <ele>7.5</ele>
        <time>2022-06-02T15:03:43Z</time>
      </trkpt>
      <trkpt lat="49.37128" lon="-1.17799">
        <ele>7.5</ele>
        <time>2022-06-02T15:03:44Z</time>
      </trkpt>
      <trkpt lat="49.37128" lon="-1.178">
        <ele>7.6</ele>
        <time>2022-06-02T15:03:45Z</time>
      </trkpt>
      <trkpt lat="49.37128" lon="-1.178">
        <ele>7.6</ele>
        <time>2022-06-02T15:03:46Z</time>
      </trkpt>
      <trkpt lat="49.37128" lon="-1.178">
        <ele>7.6</ele>
        <time>2022-06-02T15:03:47Z</time>
      </trkpt>
      <trkpt lat="49.37128" lon="-1.17801">
        <ele>7.6</ele>
        <time>2022-06-02T15:03:49Z</time>
      </trkpt>
      <trkpt lat="49.37127" lon="-1.17801">
        <ele>7.6</ele>
        <time>2022-06-02T15:03:50Z</time>
      </trkpt>
      <trkpt lat="49.37127" lon="-1.17801">
        <ele>7.6</ele>
        <time>2022-06-02T15:03:51Z</time>
      </trkpt>
      <trkpt lat="49.37127" lon="-1.17802">
        <ele>7.6</ele>
        <time>2022-06-02T15:03:52Z</time>
      </trkpt>
      <trkpt lat="49.37127" lon="-1.17802">
        <ele>7.6</ele>
        <time>2022-06-02T15:03:53Z</time>
      </trkpt>
      <trkpt lat="49.37127" lon="-1.17803">
        <ele>7.6</ele>
        <time>2022-06-02T15:03:54Z</time>
      </trkpt>
      <trkpt lat="49.37127" lon="-1.17804">
        <ele>7.6</ele>
        <time>2022-06-02T15:03:55Z</time>
      </trkpt>
      <trkpt lat="49.37127" lon="-1.17805">
        <ele>7.6</ele>
        <time>2022-06-02T15:03:57Z</time>
      </trkpt>
      <trkpt lat="49.37127" lon="-1.17805">
        <ele>7.6</ele>
        <time>2022-06-02T15:03:58Z</time>
      </trkpt>
      <trkpt lat="49.37127" lon="-1.17806">
        <ele>7.6</ele>
        <time>2022-06-02T15:03:59Z</time>
      </trkpt>
      <trkpt lat="49.37127" lon="-1.17806">
        <ele>7.6</ele>
        <time>2022-06-02T15:04:00Z</time>
      </trkpt>
      <trkpt lat="49.37128" lon="-1.17806">
        <ele>7.6</ele>
        <time>2022-06-02T15:04:01Z</time>
      </trkpt>
      <trkpt lat="49.37127" lon="-1.17806">
        <ele>7.6</ele>
        <time>2022-06-02T15:04:02Z</time>
      </trkpt>
      <trkpt lat="49.37127" lon="-1.17806">
        <ele>7.6</ele>
        <time>2022-06-02T15:04:03Z</time>
      </trkpt>
      <trkpt lat="49.37128" lon="-1.17807">
        <ele>7.6</ele>
        <time>2022-06-02T15:04:04Z</time>
      </trkpt>
      <trkpt lat="49.37128" lon="-1.17808">
        <ele>7.6</ele>
        <time>2022-06-02T15:04:06Z</time>
      </trkpt>
      <trkpt lat="49.37128" lon="-1.17808">
        <ele>7.6</ele>
        <time>2022-06-02T15:04:07Z</time>
      </trkpt>
      <trkpt lat="49.37128" lon="-1.17808">
        <ele>7.6</ele>
        <time>2022-06-02T15:04:08Z</time>
      </trkpt>
      <trkpt lat="49.37128" lon="-1.17808">
        <ele>7.6</ele>
        <time>2022-06-02T15:04:09Z</time>
      </trkpt>
      <trkpt lat="49.37128" lon="-1.17809">
        <ele>7.6</ele>
        <time>2022-06-02T15:04:10Z</time>
      </trkpt>
      <trkpt lat="49.37127" lon="-1.1781">
        <ele>7.6</ele>
        <time>2022-06-02T15:04:11Z</time>
      </trkpt>
      <trkpt lat="49.37126" lon="-1.17809">
        <ele>7.6</ele>
        <time>2022-06-02T15:04:12Z</time>
      </trkpt>
      <trkpt lat="49.37125" lon="-1.17807">
        <ele>7.6</ele>
        <time>2022-06-02T15:04:13Z</time>
      </trkpt>
      <trkpt lat="49.37124" lon="-1.17805">
        <ele>7.6</ele>
        <time>2022-06-02T15:04:15Z</time>
      </trkpt>
      <trkpt lat="49.37123" lon="-1.17804">
        <ele>7.6</ele>
        <time>2022-06-02T15:04:16Z</time>
      </trkpt>
      <trkpt lat="49.37122" lon="-1.17804">
        <ele>7.6</ele>
        <time>2022-06-02T15:04:17Z</time>
      </trkpt>
      <trkpt lat="49.37122" lon="-1.17803">
        <ele>7.6</ele>
        <time>2022-06-02T15:04:18Z</time>
      </trkpt>
      <trkpt lat="49.37121" lon="-1.17802">
        <ele>7.6</ele>
        <time>2022-06-02T15:04:19Z</time>
      </trkpt>
      <trkpt lat="49.37121" lon="-1.17802">
        <ele>7.6</ele>
        <time>2022-06-02T15:04:20Z</time>
      </trkpt>
      <trkpt lat="49.37123" lon="-1.17804">
        <ele>7.7</ele>
        <time>2022-06-02T15:04:21Z</time>
      </trkpt>
      <trkpt lat="49.37123" lon="-1.17804">
        <ele>7.7</ele>
        <time>2022-06-02T15:04:23Z</time>
      </trkpt>
      <trkpt lat="49.37122" lon="-1.17803">
        <ele>7.7</ele>
        <time>2022-06-02T15:04:24Z</time>
      </trkpt>
      <trkpt lat="49.37121" lon="-1.17803">
        <ele>7.7</ele>
        <time>2022-06-02T15:04:26Z</time>
      </trkpt>
      <trkpt lat="49.37121" lon="-1.17803">
        <ele>7.7</ele>
        <time>2022-06-02T15:04:27Z</time>
      </trkpt>
      <trkpt lat="49.3712" lon="-1.17803">
        <ele>7.7</ele>
        <time>2022-06-02T15:04:29Z</time>
      </trkpt>
      <trkpt lat="49.3712" lon="-1.17803">
        <ele>7.7</ele>
        <time>2022-06-02T15:04:30Z</time>
      </trkpt>
      <trkpt lat="49.3712" lon="-1.17803">
        <ele>7.6</ele>
        <time>2022-06-02T15:04:31Z</time>
      </trkpt>
      <trkpt lat="49.3712" lon="-1.17803">
        <ele>7.6</ele>
        <time>2022-06-02T15:04:32Z</time>
      </trkpt>
      <trkpt lat="49.3712" lon="-1.17803">
        <ele>7.6</ele>
        <time>2022-06-02T15:04:33Z</time>
      </trkpt>
      <trkpt lat="49.37119" lon="-1.17804">
        <ele>7.6</ele>
        <time>2022-06-02T15:04:34Z</time>
      </trkpt>
      <trkpt lat="49.37117" lon="-1.17806">
        <ele>7.6</ele>
        <time>2022-06-02T15:04:36Z</time>
      </trkpt>
      <trkpt lat="49.37116" lon="-1.17806">
        <ele>7.6</ele>
        <time>2022-06-02T15:04:37Z</time>
      </trkpt>
      <trkpt lat="49.37115" lon="-1.17807">
        <ele>7.6</ele>
        <time>2022-06-02T15:04:38Z</time>
      </trkpt>
      <trkpt lat="49.37113" lon="-1.17808">
        <ele>7.6</ele>
        <time>2022-06-02T15:04:39Z</time>
      </trkpt>
      <trkpt lat="49.37112" lon="-1.17809">
        <ele>7.6</ele>
        <time>2022-06-02T15:04:40Z</time>
      </trkpt>
      <trkpt lat="49.37111" lon="-1.17809">
        <ele>7.6</ele>
        <time>2022-06-02T15:04:41Z</time>
      </trkpt>
      <trkpt lat="49.37109" lon="-1.1781">
        <ele>7.6</ele>
        <time>2022-06-02T15:04:42Z</time>
      </trkpt>
      <trkpt lat="49.37108" lon="-1.17811">
        <ele>7.6</ele>
        <time>2022-06-02T15:04:44Z</time>
      </trkpt>
      <trkpt lat="49.37106" lon="-1.17812">
        <ele>7.6</ele>
        <time>2022-06-02T15:04:45Z</time>
      </trkpt>
      <trkpt lat="49.37105" lon="-1.17813">
        <ele>7.5</ele>
        <time>2022-06-02T15:04:46Z</time>
      </trkpt>
      <trkpt lat="49.37104" lon="-1.17813">
        <ele>7.5</ele>
        <time>2022-06-02T15:04:47Z</time>
      </trkpt>
      <trkpt lat="49.37102" lon="-1.17818">
        <ele>7.5</ele>
        <time>2022-06-02T15:04:48Z</time>
      </trkpt>
      <trkpt lat="49.37102" lon="-1.17821">
        <ele>7.4</ele>
        <time>2022-06-02T15:04:49Z</time>
      </trkpt>
      <trkpt lat="49.37101" lon="-1.17825">
        <ele>7.4</ele>
        <time>2022-06-02T15:04:50Z</time>
      </trkpt>
      <trkpt lat="49.371" lon="-1.17826">
        <ele>7.3</ele>
        <time>2022-06-02T15:04:52Z</time>
      </trkpt>
      <trkpt lat="49.37099" lon="-1.17827">
        <ele>7.3</ele>
        <time>2022-06-02T15:04:53Z</time>
      </trkpt>
      <trkpt lat="49.37097" lon="-1.17827">
        <ele>7.3</ele>
        <time>2022-06-02T15:04:54Z</time>
      </trkpt>
      <trkpt lat="49.37096" lon="-1.17828">
        <ele>7.3</ele>
        <time>2022-06-02T15:04:55Z</time>
      </trkpt>
      <trkpt lat="49.37095" lon="-1.17828">
        <ele>7.3</ele>
        <time>2022-06-02T15:04:56Z</time>
      </trkpt>
      <trkpt lat="49.37095" lon="-1.17829">
        <ele>7.3</ele>
        <time>2022-06-02T15:04:57Z</time>
      </trkpt>
      <trkpt lat="49.37095" lon="-1.1783">
        <ele>7.2</ele>
        <time>2022-06-02T15:04:58Z</time>
      </trkpt>
      <trkpt lat="49.37094" lon="-1.17832">
        <ele>7.2</ele>
        <time>2022-06-02T15:05:00Z</time>
      </trkpt>
      <trkpt lat="49.37094" lon="-1.17833">
        <ele>7.2</ele>
        <time>2022-06-02T15:05:01Z</time>
      </trkpt>
      <trkpt lat="49.37094" lon="-1.17834">
        <ele>7.2</ele>
        <time>2022-06-02T15:05:02Z</time>
      </trkpt>
      <trkpt lat="49.37093" lon="-1.17835">
        <ele>7.2</ele>
        <time>2022-06-02T15:05:03Z</time>
      </trkpt>
      <trkpt lat="49.37092" lon="-1.17835">
        <ele>7.2</ele>
        <time>2022-06-02T15:05:04Z</time>
      </trkpt>
      <trkpt lat="49.37091" lon="-1.17836">
        <ele>7.1</ele>
        <time>2022-06-02T15:05:05Z</time>
      </trkpt>
      <trkpt lat="49.37091" lon="-1.17836">
        <ele>7.1</ele>
        <time>2022-06-02T15:05:06Z</time>
      </trkpt>
      <trkpt lat="49.37089" lon="-1.17837">
        <ele>7.1</ele>
        <time>2022-06-02T15:05:07Z</time>
      </trkpt>
      <trkpt lat="49.37088" lon="-1.17838">
        <ele>7.1</ele>
        <time>2022-06-02T15:05:08Z</time>
      </trkpt>
      <trkpt lat="49.37087" lon="-1.17838">
        <ele>7.1</ele>
        <time>2022-06-02T15:05:09Z</time>
      </trkpt>
      <trkpt lat="49.37086" lon="-1.1784">
        <ele>7</ele>
        <time>2022-06-02T15:05:11Z</time>
      </trkpt>
      <trkpt lat="49.37085" lon="-1.17843">
        <ele>7</ele>
        <time>2022-06-02T15:05:12Z</time>
      </trkpt>
      <trkpt lat="49.37084" lon="-1.17844">
        <ele>7</ele>
        <time>2022-06-02T15:05:13Z</time>
      </trkpt>
      <trkpt lat="49.37082" lon="-1.17845">
        <ele>6.9</ele>
        <time>2022-06-02T15:05:14Z</time>
      </trkpt>
      <trkpt lat="49.37081" lon="-1.17847">
        <ele>6.9</ele>
        <time>2022-06-02T15:05:15Z</time>
      </trkpt>
      <trkpt lat="49.3708" lon="-1.17848">
        <ele>6.9</ele>
        <time>2022-06-02T15:05:16Z</time>
      </trkpt>
      <trkpt lat="49.37079" lon="-1.1785">
        <ele>6.9</ele>
        <time>2022-06-02T15:05:17Z</time>
      </trkpt>
      <trkpt lat="49.37078" lon="-1.17851">
        <ele>6.8</ele>
        <time>2022-06-02T15:05:18Z</time>
      </trkpt>
      <trkpt lat="49.37077" lon="-1.17852">
        <ele>6.8</ele>
        <time>2022-06-02T15:05:19Z</time>
      </trkpt>
      <trkpt lat="49.37077" lon="-1.17854">
        <ele>6.8</ele>
        <time>2022-06-02T15:05:21Z</time>
      </trkpt>
      <trkpt lat="49.37076" lon="-1.17856">
        <ele>6.8</ele>
        <time>2022-06-02T15:05:22Z</time>
      </trkpt>
      <trkpt lat="49.37075" lon="-1.17858">
        <ele>6.8</ele>
        <time>2022-06-02T15:05:23Z</time>
      </trkpt>
      <trkpt lat="49.37074" lon="-1.1786">
        <ele>6.7</ele>
        <time>2022-06-02T15:05:24Z</time>
      </trkpt>
      <trkpt lat="49.37073" lon="-1.17861">
        <ele>6.7</ele>
        <time>2022-06-02T15:05:26Z</time>
      </trkpt>
      <trkpt lat="49.37072" lon="-1.17863">
        <ele>6.7</ele>
        <time>2022-06-02T15:05:27Z</time>
      </trkpt>
      <trkpt lat="49.37071" lon="-1.17865">
        <ele>6.7</ele>
        <time>2022-06-02T15:05:28Z</time>
      </trkpt>
      <trkpt lat="49.3707" lon="-1.17866">
        <ele>6.7</ele>
        <time>2022-06-02T15:05:29Z</time>
      </trkpt>
      <trkpt lat="49.37069" lon="-1.17867">
        <ele>6.6</ele>
        <time>2022-06-02T15:05:30Z</time>
      </trkpt>
      <trkpt lat="49.37069" lon="-1.17868">
        <ele>6.6</ele>
        <time>2022-06-02T15:05:31Z</time>
      </trkpt>
      <trkpt lat="49.37067" lon="-1.1787">
        <ele>6.6</ele>
        <time>2022-06-02T15:05:32Z</time>
      </trkpt>
      <trkpt lat="49.37067" lon="-1.17871">
        <ele>6.6</ele>
        <time>2022-06-02T15:05:33Z</time>
      </trkpt>
      <trkpt lat="49.37066" lon="-1.17872">
        <ele>6.6</ele>
        <time>2022-06-02T15:05:34Z</time>
      </trkpt>
      <trkpt lat="49.37065" lon="-1.17874">
        <ele>6.6</ele>
        <time>2022-06-02T15:05:35Z</time>
      </trkpt>
      <trkpt lat="49.37064" lon="-1.17876">
        <ele>6.5</ele>
        <time>2022-06-02T15:05:37Z</time>
      </trkpt>
      <trkpt lat="49.37063" lon="-1.17877">
        <ele>6.5</ele>
        <time>2022-06-02T15:05:38Z</time>
      </trkpt>
      <trkpt lat="49.37063" lon="-1.17879">
        <ele>6.5</ele>
        <time>2022-06-02T15:05:39Z</time>
      </trkpt>
      <trkpt lat="49.37062" lon="-1.17879">
        <ele>6.5</ele>
        <time>2022-06-02T15:05:40Z</time>
      </trkpt>
      <trkpt lat="49.37062" lon="-1.1788">
        <ele>6.5</ele>
        <time>2022-06-02T15:05:41Z</time>
      </trkpt>
      <trkpt lat="49.37061" lon="-1.1788">
        <ele>6.5</ele>
        <time>2022-06-02T15:05:43Z</time>
      </trkpt>
      <trkpt lat="49.37061" lon="-1.1788">
        <ele>6.5</ele>
        <time>2022-06-02T15:05:44Z</time>
      </trkpt>
      <trkpt lat="49.3706" lon="-1.17881">
        <ele>6.5</ele>
        <time>2022-06-02T15:05:45Z</time>
      </trkpt>
      <trkpt lat="49.37059" lon="-1.17883">
        <ele>6.5</ele>
        <time>2022-06-02T15:05:46Z</time>
      </trkpt>
      <trkpt lat="49.37058" lon="-1.17884">
        <ele>6.4</ele>
        <time>2022-06-02T15:05:47Z</time>
      </trkpt>
      <trkpt lat="49.37057" lon="-1.17886">
        <ele>6.4</ele>
        <time>2022-06-02T15:05:48Z</time>
      </trkpt>
      <trkpt lat="49.37056" lon="-1.17887">
        <ele>6.4</ele>
        <time>2022-06-02T15:05:49Z</time>
      </trkpt>
      <trkpt lat="49.37055" lon="-1.17889">
        <ele>6.4</ele>
        <time>2022-06-02T15:05:50Z</time>
      </trkpt>
      <trkpt lat="49.37054" lon="-1.17891">
        <ele>6.4</ele>
        <time>2022-06-02T15:05:51Z</time>
      </trkpt>
      <trkpt lat="49.37053" lon="-1.17893">
        <ele>6.3</ele>
        <time>2022-06-02T15:05:52Z</time>
      </trkpt>
      <trkpt lat="49.37051" lon="-1.17895">
        <ele>6.3</ele>
        <time>2022-06-02T15:05:54Z</time>
      </trkpt>
      <trkpt lat="49.3705" lon="-1.17897">
        <ele>6.3</ele>
        <time>2022-06-02T15:05:55Z</time>
      </trkpt>
      <trkpt lat="49.37048" lon="-1.179">
        <ele>6.3</ele>
        <time>2022-06-02T15:05:56Z</time>
      </trkpt>
      <trkpt lat="49.37047" lon="-1.17901">
        <ele>6.3</ele>
        <time>2022-06-02T15:05:57Z</time>
      </trkpt>
      <trkpt lat="49.37046" lon="-1.17903">
        <ele>6.2</ele>
        <time>2022-06-02T15:05:58Z</time>
      </trkpt>
      <trkpt lat="49.37044" lon="-1.17906">
        <ele>6.2</ele>
        <time>2022-06-02T15:06:00Z</time>
      </trkpt>
      <trkpt lat="49.37043" lon="-1.17908">
        <ele>6.2</ele>
        <time>2022-06-02T15:06:01Z</time>
      </trkpt>
      <trkpt lat="49.37041" lon="-1.17909">
        <ele>6.2</ele>
        <time>2022-06-02T15:06:02Z</time>
      </trkpt>
      <trkpt lat="49.3704" lon="-1.17911">
        <ele>6.2</ele>
        <time>2022-06-02T15:06:03Z</time>
      </trkpt>
      <trkpt lat="49.37039" lon="-1.17912">
        <ele>6.1</ele>
        <time>2022-06-02T15:06:05Z</time>
      </trkpt>
      <trkpt lat="49.37038" lon="-1.17913">
        <ele>6.1</ele>
        <time>2022-06-02T15:06:06Z</time>
      </trkpt>
      <trkpt lat="49.37036" lon="-1.17915">
        <ele>6.1</ele>
        <time>2022-06-02T15:06:07Z</time>
      </trkpt>
      <trkpt lat="49.37035" lon="-1.17916">
        <ele>6.1</ele>
        <time>2022-06-02T15:06:08Z</time>
      </trkpt>
      <trkpt lat="49.37034" lon="-1.17917">
        <ele>6.1</ele>
        <time>2022-06-02T15:06:09Z</time>
      </trkpt>
      <trkpt lat="49.37033" lon="-1.17919">
        <ele>6.1</ele>
        <time>2022-06-02T15:06:10Z</time>
      </trkpt>
      <trkpt lat="49.37032" lon="-1.1792">
        <ele>6.1</ele>
        <time>2022-06-02T15:06:11Z</time>
      </trkpt>
      <trkpt lat="49.3703" lon="-1.17922">
        <ele>6.1</ele>
        <time>2022-06-02T15:06:12Z</time>
      </trkpt>
      <trkpt lat="49.3703" lon="-1.17923">
        <ele>6.1</ele>
        <time>2022-06-02T15:06:13Z</time>
      </trkpt>
      <trkpt lat="49.37029" lon="-1.17924">
        <ele>6.1</ele>
        <time>2022-06-02T15:06:14Z</time>
      </trkpt>
      <trkpt lat="49.37028" lon="-1.17926">
        <ele>6</ele>
        <time>2022-06-02T15:06:16Z</time>
      </trkpt>
      <trkpt lat="49.37027" lon="-1.17927">
        <ele>6</ele>
        <time>2022-06-02T15:06:17Z</time>
      </trkpt>
      <trkpt lat="49.37026" lon="-1.17929">
        <ele>6</ele>
        <time>2022-06-02T15:06:18Z</time>
      </trkpt>
      <trkpt lat="49.37025" lon="-1.17931">
        <ele>6</ele>
        <time>2022-06-02T15:06:19Z</time>
      </trkpt>
      <trkpt lat="49.37024" lon="-1.17932">
        <ele>6</ele>
        <time>2022-06-02T15:06:21Z</time>
      </trkpt>
      <trkpt lat="49.37024" lon="-1.17933">
        <ele>6</ele>
        <time>2022-06-02T15:06:22Z</time>
      </trkpt>
      <trkpt lat="49.37023" lon="-1.17934">
        <ele>6</ele>
        <time>2022-06-02T15:06:23Z</time>
      </trkpt>
      <trkpt lat="49.37021" lon="-1.17936">
        <ele>6</ele>
        <time>2022-06-02T15:06:24Z</time>
      </trkpt>
      <trkpt lat="49.37021" lon="-1.17937">
        <ele>6</ele>
        <time>2022-06-02T15:06:25Z</time>
      </trkpt>
      <trkpt lat="49.3702" lon="-1.17938">
        <ele>6</ele>
        <time>2022-06-02T15:06:26Z</time>
      </trkpt>
      <trkpt lat="49.37019" lon="-1.17939">
        <ele>6</ele>
        <time>2022-06-02T15:06:27Z</time>
      </trkpt>
      <trkpt lat="49.37018" lon="-1.1794">
        <ele>6</ele>
        <time>2022-06-02T15:06:28Z</time>
      </trkpt>
      <trkpt lat="49.37017" lon="-1.1794">
        <ele>6</ele>
        <time>2022-06-02T15:06:29Z</time>
      </trkpt>
      <trkpt lat="49.37016" lon="-1.17941">
        <ele>6</ele>
        <time>2022-06-02T15:06:31Z</time>
      </trkpt>
      <trkpt lat="49.37015" lon="-1.17941">
        <ele>6</ele>
        <time>2022-06-02T15:06:32Z</time>
      </trkpt>
      <trkpt lat="49.37015" lon="-1.17943">
        <ele>6</ele>
        <time>2022-06-02T15:06:33Z</time>
      </trkpt>
      <trkpt lat="49.37014" lon="-1.17946">
        <ele>6</ele>
        <time>2022-06-02T15:06:34Z</time>
      </trkpt>
      <trkpt lat="49.37014" lon="-1.17947">
        <ele>6</ele>
        <time>2022-06-02T15:06:36Z</time>
      </trkpt>
      <trkpt lat="49.37014" lon="-1.17948">
        <ele>6</ele>
        <time>2022-06-02T15:06:37Z</time>
      </trkpt>
      <trkpt lat="49.37014" lon="-1.17949">
        <ele>6</ele>
        <time>2022-06-02T15:06:38Z</time>
      </trkpt>
      <trkpt lat="49.37014" lon="-1.17951">
        <ele>6</ele>
        <time>2022-06-02T15:06:39Z</time>
      </trkpt>
      <trkpt lat="49.37014" lon="-1.17951">
        <ele>6</ele>
        <time>2022-06-02T15:06:40Z</time>
      </trkpt>
      <trkpt lat="49.37014" lon="-1.17952">
        <ele>6</ele>
        <time>2022-06-02T15:06:41Z</time>
      </trkpt>
      <trkpt lat="49.37015" lon="-1.17952">
        <ele>6</ele>
        <time>2022-06-02T15:06:42Z</time>
      </trkpt>
      <trkpt lat="49.37015" lon="-1.17952">
        <ele>6</ele>
        <time>2022-06-02T15:06:43Z</time>
      </trkpt>
      <trkpt lat="49.37015" lon="-1.17952">
        <ele>6</ele>
        <time>2022-06-02T15:06:44Z</time>
      </trkpt>
      <trkpt lat="49.37015" lon="-1.17952">
        <ele>6</ele>
        <time>2022-06-02T15:06:45Z</time>
      </trkpt>
      <trkpt lat="49.37015" lon="-1.17952">
        <ele>6</ele>
        <time>2022-06-02T15:06:46Z</time>
      </trkpt>
      <trkpt lat="49.37016" lon="-1.17952">
        <ele>6</ele>
        <time>2022-06-02T15:06:48Z</time>
      </trkpt>
      <trkpt lat="49.37017" lon="-1.17953">
        <ele>6</ele>
        <time>2022-06-02T15:06:49Z</time>
      </trkpt>
      <trkpt lat="49.37017" lon="-1.17954">
        <ele>6</ele>
        <time>2022-06-02T15:06:51Z</time>
      </trkpt>
      <trkpt lat="49.37018" lon="-1.17955">
        <ele>6.1</ele>
        <time>2022-06-02T15:06:53Z</time>
      </trkpt>
      <trkpt lat="49.37019" lon="-1.17955">
        <ele>6.1</ele>
        <time>2022-06-02T15:06:54Z</time>
      </trkpt>
      <trkpt lat="49.37019" lon="-1.17955">
        <ele>6.1</ele>
        <time>2022-06-02T15:06:55Z</time>
      </trkpt>
      <trkpt lat="49.37019" lon="-1.17956">
        <ele>6.1</ele>
        <time>2022-06-02T15:06:56Z</time>
      </trkpt>
      <trkpt lat="49.37019" lon="-1.17956">
        <ele>6.1</ele>
        <time>2022-06-02T15:06:57Z</time>
      </trkpt>
      <trkpt lat="49.37019" lon="-1.17956">
        <ele>6.1</ele>
        <time>2022-06-02T15:06:58Z</time>
      </trkpt>
      <trkpt lat="49.37019" lon="-1.17956">
        <ele>6.1</ele>
        <time>2022-06-02T15:06:59Z</time>
      </trkpt>
      <trkpt lat="49.37018" lon="-1.17956">
        <ele>6.1</ele>
        <time>2022-06-02T15:07:00Z</time>
      </trkpt>
      <trkpt lat="49.37018" lon="-1.17956">
        <ele>6.1</ele>
        <time>2022-06-02T15:07:01Z</time>
      </trkpt>
      <trkpt lat="49.37017" lon="-1.17957">
        <ele>6.1</ele>
        <time>2022-06-02T15:07:02Z</time>
      </trkpt>
      <trkpt lat="49.37016" lon="-1.17956">
        <ele>6.1</ele>
        <time>2022-06-02T15:07:04Z</time>
      </trkpt>
      <trkpt lat="49.37015" lon="-1.17955">
        <ele>6.1</ele>
        <time>2022-06-02T15:07:05Z</time>
      </trkpt>
      <trkpt lat="49.37014" lon="-1.17954">
        <ele>6.1</ele>
        <time>2022-06-02T15:07:06Z</time>
      </trkpt>
      <trkpt lat="49.37013" lon="-1.17952">
        <ele>6.1</ele>
        <time>2022-06-02T15:07:07Z</time>
      </trkpt>
      <trkpt lat="49.37012" lon="-1.1795">
        <ele>6.1</ele>
        <time>2022-06-02T15:07:08Z</time>
      </trkpt>
      <trkpt lat="49.37011" lon="-1.17948">
        <ele>6.1</ele>
        <time>2022-06-02T15:07:09Z</time>
      </trkpt>
      <trkpt lat="49.37009" lon="-1.17946">
        <ele>6.1</ele>
        <time>2022-06-02T15:07:10Z</time>
      </trkpt>
      <trkpt lat="49.37008" lon="-1.17943">
        <ele>6.1</ele>
        <time>2022-06-02T15:07:12Z</time>
      </trkpt>
      <trkpt lat="49.37007" lon="-1.17941">
        <ele>6.1</ele>
        <time>2022-06-02T15:07:13Z</time>
      </trkpt>
      <trkpt lat="49.37005" lon="-1.17939">
        <ele>6.1</ele>
        <time>2022-06-02T15:07:14Z</time>
      </trkpt>
      <trkpt lat="49.37004" lon="-1.17937">
        <ele>6.1</ele>
        <time>2022-06-02T15:07:15Z</time>
      </trkpt>
      <trkpt lat="49.37003" lon="-1.17935">
        <ele>6.1</ele>
        <time>2022-06-02T15:07:17Z</time>
      </trkpt>
      <trkpt lat="49.37002" lon="-1.17934">
        <ele>6.1</ele>
        <time>2022-06-02T15:07:18Z</time>
      </trkpt>
      <trkpt lat="49.37001" lon="-1.17932">
        <ele>6.1</ele>
        <time>2022-06-02T15:07:19Z</time>
      </trkpt>
      <trkpt lat="49.37" lon="-1.1793">
        <ele>6.1</ele>
        <time>2022-06-02T15:07:20Z</time>
      </trkpt>
      <trkpt lat="49.36999" lon="-1.17929">
        <ele>6.1</ele>
        <time>2022-06-02T15:07:21Z</time>
      </trkpt>
      <trkpt lat="49.36998" lon="-1.17928">
        <ele>6.1</ele>
        <time>2022-06-02T15:07:22Z</time>
      </trkpt>
      <trkpt lat="49.36997" lon="-1.17925">
        <ele>6.1</ele>
        <time>2022-06-02T15:07:23Z</time>
      </trkpt>
      <trkpt lat="49.36996" lon="-1.17925">
        <ele>6.1</ele>
        <time>2022-06-02T15:07:24Z</time>
      </trkpt>
      <trkpt lat="49.36996" lon="-1.17923">
        <ele>6.1</ele>
        <time>2022-06-02T15:07:25Z</time>
      </trkpt>
      <trkpt lat="49.36995" lon="-1.17922">
        <ele>6.1</ele>
        <time>2022-06-02T15:07:26Z</time>
      </trkpt>
      <trkpt lat="49.36994" lon="-1.1792">
        <ele>6.1</ele>
        <time>2022-06-02T15:07:28Z</time>
      </trkpt>
      <trkpt lat="49.36993" lon="-1.1792">
        <ele>6.1</ele>
        <time>2022-06-02T15:07:29Z</time>
      </trkpt>
      <trkpt lat="49.36992" lon="-1.17918">
        <ele>6.1</ele>
        <time>2022-06-02T15:07:30Z</time>
      </trkpt>
      <trkpt lat="49.36991" lon="-1.17917">
        <ele>6.1</ele>
        <time>2022-06-02T15:07:31Z</time>
      </trkpt>
      <trkpt lat="49.36989" lon="-1.17915">
        <ele>6.1</ele>
        <time>2022-06-02T15:07:32Z</time>
      </trkpt>
      <trkpt lat="49.36989" lon="-1.17915">
        <ele>6.1</ele>
        <time>2022-06-02T15:07:33Z</time>
      </trkpt>
      <trkpt lat="49.36988" lon="-1.17914">
        <ele>6.1</ele>
        <time>2022-06-02T15:07:34Z</time>
      </trkpt>
      <trkpt lat="49.36987" lon="-1.17913">
        <ele>6.1</ele>
        <time>2022-06-02T15:07:35Z</time>
      </trkpt>
      <trkpt lat="49.36986" lon="-1.17912">
        <ele>6.1</ele>
        <time>2022-06-02T15:07:36Z</time>
      </trkpt>
      <trkpt lat="49.36985" lon="-1.17911">
        <ele>6.1</ele>
        <time>2022-06-02T15:07:38Z</time>
      </trkpt>
      <trkpt lat="49.36985" lon="-1.1791">
        <ele>6.1</ele>
        <time>2022-06-02T15:07:39Z</time>
      </trkpt>
      <trkpt lat="49.36984" lon="-1.17909">
        <ele>6.1</ele>
        <time>2022-06-02T15:07:40Z</time>
      </trkpt>
      <trkpt lat="49.36983" lon="-1.17908">
        <ele>6.1</ele>
        <time>2022-06-02T15:07:41Z</time>
      </trkpt>
      <trkpt lat="49.36981" lon="-1.17906">
        <ele>6.1</ele>
        <time>2022-06-02T15:07:42Z</time>
      </trkpt>
      <trkpt lat="49.3698" lon="-1.17905">
        <ele>6.1</ele>
        <time>2022-06-02T15:07:43Z</time>
      </trkpt>
      <trkpt lat="49.3698" lon="-1.17904">
        <ele>6.1</ele>
        <time>2022-06-02T15:07:44Z</time>
      </trkpt>
      <trkpt lat="49.36979" lon="-1.17903">
        <ele>6.1</ele>
        <time>2022-06-02T15:07:45Z</time>
      </trkpt>
      <trkpt lat="49.36978" lon="-1.17901">
        <ele>6.1</ele>
        <time>2022-06-02T15:07:46Z</time>
      </trkpt>
      <trkpt lat="49.36977" lon="-1.179">
        <ele>6.1</ele>
        <time>2022-06-02T15:07:48Z</time>
      </trkpt>
      <trkpt lat="49.36976" lon="-1.17899">
        <ele>6.1</ele>
        <time>2022-06-02T15:07:49Z</time>
      </trkpt>
      <trkpt lat="49.36976" lon="-1.17898">
        <ele>6.1</ele>
        <time>2022-06-02T15:07:50Z</time>
      </trkpt>
      <trkpt lat="49.36975" lon="-1.17896">
        <ele>6.1</ele>
        <time>2022-06-02T15:07:51Z</time>
      </trkpt>
      <trkpt lat="49.36973" lon="-1.17894">
        <ele>6.1</ele>
        <time>2022-06-02T15:07:52Z</time>
      </trkpt>
      <trkpt lat="49.36973" lon="-1.17893">
        <ele>6.1</ele>
        <time>2022-06-02T15:07:53Z</time>
      </trkpt>
      <trkpt lat="49.36972" lon="-1.17892">
        <ele>6.1</ele>
        <time>2022-06-02T15:07:54Z</time>
      </trkpt>
      <trkpt lat="49.36971" lon="-1.17891">
        <ele>6.1</ele>
        <time>2022-06-02T15:07:55Z</time>
      </trkpt>
      <trkpt lat="49.3697" lon="-1.1789">
        <ele>6.1</ele>
        <time>2022-06-02T15:07:56Z</time>
      </trkpt>
      <trkpt lat="49.36969" lon="-1.17889">
        <ele>6.1</ele>
        <time>2022-06-02T15:07:58Z</time>
      </trkpt>
      <trkpt lat="49.36968" lon="-1.17888">
        <ele>6.1</ele>
        <time>2022-06-02T15:07:59Z</time>
      </trkpt>
      <trkpt lat="49.36967" lon="-1.17888">
        <ele>6.2</ele>
        <time>2022-06-02T15:08:00Z</time>
      </trkpt>
      <trkpt lat="49.36966" lon="-1.17887">
        <ele>6.2</ele>
        <time>2022-06-02T15:08:01Z</time>
      </trkpt>
      <trkpt lat="49.36965" lon="-1.17886">
        <ele>6.2</ele>
        <time>2022-06-02T15:08:02Z</time>
      </trkpt>
      <trkpt lat="49.36965" lon="-1.17885">
        <ele>6.2</ele>
        <time>2022-06-02T15:08:03Z</time>
      </trkpt>
      <trkpt lat="49.36964" lon="-1.17883">
        <ele>6.2</ele>
        <time>2022-06-02T15:08:04Z</time>
      </trkpt>
      <trkpt lat="49.36963" lon="-1.17882">
        <ele>6.2</ele>
        <time>2022-06-02T15:08:05Z</time>
      </trkpt>
      <trkpt lat="49.36962" lon="-1.1788">
        <ele>6.2</ele>
        <time>2022-06-02T15:08:06Z</time>
      </trkpt>
      <trkpt lat="49.36962" lon="-1.17878">
        <ele>6.2</ele>
        <time>2022-06-02T15:08:08Z</time>
      </trkpt>
      <trkpt lat="49.3696" lon="-1.17876">
        <ele>6.2</ele>
        <time>2022-06-02T15:08:09Z</time>
      </trkpt>
      <trkpt lat="49.3696" lon="-1.17875">
        <ele>6.2</ele>
        <time>2022-06-02T15:08:10Z</time>
      </trkpt>
      <trkpt lat="49.36959" lon="-1.17874">
        <ele>6.2</ele>
        <time>2022-06-02T15:08:11Z</time>
      </trkpt>
      <trkpt lat="49.36958" lon="-1.17871">
        <ele>6.2</ele>
        <time>2022-06-02T15:08:12Z</time>
      </trkpt>
      <trkpt lat="49.36957" lon="-1.1787">
        <ele>6.2</ele>
        <time>2022-06-02T15:08:13Z</time>
      </trkpt>
      <trkpt lat="49.36957" lon="-1.17869">
        <ele>6.2</ele>
        <time>2022-06-02T15:08:14Z</time>
      </trkpt>
      <trkpt lat="49.36956" lon="-1.17867">
        <ele>6.2</ele>
        <time>2022-06-02T15:08:15Z</time>
      </trkpt>
      <trkpt lat="49.36955" lon="-1.17866">
        <ele>6.2</ele>
        <time>2022-06-02T15:08:17Z</time>
      </trkpt>
      <trkpt lat="49.36954" lon="-1.17865">
        <ele>6.2</ele>
        <time>2022-06-02T15:08:18Z</time>
      </trkpt>
      <trkpt lat="49.36954" lon="-1.17864">
        <ele>6.2</ele>
        <time>2022-06-02T15:08:19Z</time>
      </trkpt>
      <trkpt lat="49.36953" lon="-1.17863">
        <ele>6.2</ele>
        <time>2022-06-02T15:08:20Z</time>
      </trkpt>
      <trkpt lat="49.36951" lon="-1.1786">
        <ele>6.2</ele>
        <time>2022-06-02T15:08:21Z</time>
      </trkpt>
      <trkpt lat="49.36951" lon="-1.17859">
        <ele>6.2</ele>
        <time>2022-06-02T15:08:22Z</time>
      </trkpt>
      <trkpt lat="49.3695" lon="-1.17859">
        <ele>6.2</ele>
        <time>2022-06-02T15:08:23Z</time>
      </trkpt>
      <trkpt lat="49.36949" lon="-1.17858">
        <ele>6.2</ele>
        <time>2022-06-02T15:08:24Z</time>
      </trkpt>
      <trkpt lat="49.36948" lon="-1.17856">
        <ele>6.2</ele>
        <time>2022-06-02T15:08:25Z</time>
      </trkpt>
      <trkpt lat="49.36947" lon="-1.17856">
        <ele>6.2</ele>
        <time>2022-06-02T15:08:27Z</time>
      </trkpt>
      <trkpt lat="49.36947" lon="-1.17855">
        <ele>6.2</ele>
        <time>2022-06-02T15:08:28Z</time>
      </trkpt>
      <trkpt lat="49.36946" lon="-1.17854">
        <ele>6.3</ele>
        <time>2022-06-02T15:08:29Z</time>
      </trkpt>
      <trkpt lat="49.36945" lon="-1.17853">
        <ele>6.3</ele>
        <time>2022-06-02T15:08:30Z</time>
      </trkpt>
      <trkpt lat="49.36943" lon="-1.17851">
        <ele>6.3</ele>
        <time>2022-06-02T15:08:31Z</time>
      </trkpt>
      <trkpt lat="49.36942" lon="-1.1785">
        <ele>6.3</ele>
        <time>2022-06-02T15:08:32Z</time>
      </trkpt>
      <trkpt lat="49.36942" lon="-1.1785">
        <ele>6.3</ele>
        <time>2022-06-02T15:08:33Z</time>
      </trkpt>
      <trkpt lat="49.36941" lon="-1.17848">
        <ele>6.3</ele>
        <time>2022-06-02T15:08:34Z</time>
      </trkpt>
      <trkpt lat="49.3694" lon="-1.17847">
        <ele>6.3</ele>
        <time>2022-06-02T15:08:35Z</time>
      </trkpt>
      <trkpt lat="49.36939" lon="-1.17846">
        <ele>6.3</ele>
        <time>2022-06-02T15:08:37Z</time>
      </trkpt>
      <trkpt lat="49.36938" lon="-1.17846">
        <ele>6.3</ele>
        <time>2022-06-02T15:08:38Z</time>
      </trkpt>
      <trkpt lat="49.36937" lon="-1.17845">
        <ele>6.3</ele>
        <time>2022-06-02T15:08:39Z</time>
      </trkpt>
      <trkpt lat="49.36936" lon="-1.17844">
        <ele>6.3</ele>
        <time>2022-06-02T15:08:40Z</time>
      </trkpt>
      <trkpt lat="49.36935" lon="-1.17842">
        <ele>6.2</ele>
        <time>2022-06-02T15:08:41Z</time>
      </trkpt>
      <trkpt lat="49.36935" lon="-1.17841">
        <ele>6.2</ele>
        <time>2022-06-02T15:08:42Z</time>
      </trkpt>
      <trkpt lat="49.36934" lon="-1.1784">
        <ele>6.2</ele>
        <time>2022-06-02T15:08:43Z</time>
      </trkpt>
      <trkpt lat="49.36933" lon="-1.17839">
        <ele>6.2</ele>
        <time>2022-06-02T15:08:44Z</time>
      </trkpt>
      <trkpt lat="49.36933" lon="-1.17838">
        <ele>6.2</ele>
        <time>2022-06-02T15:08:45Z</time>
      </trkpt>
      <trkpt lat="49.36932" lon="-1.17837">
        <ele>6.2</ele>
        <time>2022-06-02T15:08:47Z</time>
      </trkpt>
      <trkpt lat="49.36931" lon="-1.17836">
        <ele>6.2</ele>
        <time>2022-06-02T15:08:48Z</time>
      </trkpt>
      <trkpt lat="49.3693" lon="-1.17835">
        <ele>6.2</ele>
        <time>2022-06-02T15:08:49Z</time>
      </trkpt>
      <trkpt lat="49.36929" lon="-1.17834">
        <ele>6.2</ele>
        <time>2022-06-02T15:08:50Z</time>
      </trkpt>
      <trkpt lat="49.36928" lon="-1.17833">
        <ele>6.2</ele>
        <time>2022-06-02T15:08:51Z</time>
      </trkpt>
      <trkpt lat="49.36927" lon="-1.17831">
        <ele>6.2</ele>
        <time>2022-06-02T15:08:52Z</time>
      </trkpt>
      <trkpt lat="49.36926" lon="-1.1783">
        <ele>6.2</ele>
        <time>2022-06-02T15:08:53Z</time>
      </trkpt>
      <trkpt lat="49.36925" lon="-1.17829">
        <ele>6.2</ele>
        <time>2022-06-02T15:08:54Z</time>
      </trkpt>
      <trkpt lat="49.36924" lon="-1.17828">
        <ele>6.2</ele>
        <time>2022-06-02T15:08:55Z</time>
      </trkpt>
      <trkpt lat="49.36923" lon="-1.17825">
        <ele>6.2</ele>
        <time>2022-06-02T15:08:56Z</time>
      </trkpt>
      <trkpt lat="49.36923" lon="-1.17825">
        <ele>6.2</ele>
        <time>2022-06-02T15:08:58Z</time>
      </trkpt>
      <trkpt lat="49.36922" lon="-1.17824">
        <ele>6.2</ele>
        <time>2022-06-02T15:08:59Z</time>
      </trkpt>
      <trkpt lat="49.3692" lon="-1.17821">
        <ele>6.1</ele>
        <time>2022-06-02T15:09:00Z</time>
      </trkpt>
      <trkpt lat="49.3692" lon="-1.1782">
        <ele>6.1</ele>
        <time>2022-06-02T15:09:01Z</time>
      </trkpt>
      <trkpt lat="49.36919" lon="-1.1782">
        <ele>6.1</ele>
        <time>2022-06-02T15:09:02Z</time>
      </trkpt>
      <trkpt lat="49.36918" lon="-1.17818">
        <ele>6.1</ele>
        <time>2022-06-02T15:09:03Z</time>
      </trkpt>
      <trkpt lat="49.36917" lon="-1.17817">
        <ele>6.1</ele>
        <time>2022-06-02T15:09:04Z</time>
      </trkpt>
      <trkpt lat="49.36916" lon="-1.17817">
        <ele>6.1</ele>
        <time>2022-06-02T15:09:05Z</time>
      </trkpt>
      <trkpt lat="49.36915" lon="-1.17816">
        <ele>6.1</ele>
        <time>2022-06-02T15:09:06Z</time>
      </trkpt>
      <trkpt lat="49.36914" lon="-1.17815">
        <ele>6.1</ele>
        <time>2022-06-02T15:09:08Z</time>
      </trkpt>
      <trkpt lat="49.36913" lon="-1.17814">
        <ele>6.1</ele>
        <time>2022-06-02T15:09:09Z</time>
      </trkpt>
      <trkpt lat="49.36913" lon="-1.17814">
        <ele>6.1</ele>
        <time>2022-06-02T15:09:10Z</time>
      </trkpt>
      <trkpt lat="49.36912" lon="-1.17812">
        <ele>6</ele>
        <time>2022-06-02T15:09:11Z</time>
      </trkpt>
      <trkpt lat="49.36911" lon="-1.17811">
        <ele>6</ele>
        <time>2022-06-02T15:09:12Z</time>
      </trkpt>
      <trkpt lat="49.3691" lon="-1.1781">
        <ele>6</ele>
        <time>2022-06-02T15:09:13Z</time>
      </trkpt>
      <trkpt lat="49.36909" lon="-1.17808">
        <ele>6</ele>
        <time>2022-06-02T15:09:14Z</time>
      </trkpt>
      <trkpt lat="49.36907" lon="-1.17806">
        <ele>6</ele>
        <time>2022-06-02T15:09:15Z</time>
      </trkpt>
      <trkpt lat="49.36906" lon="-1.17805">
        <ele>6</ele>
        <time>2022-06-02T15:09:16Z</time>
      </trkpt>
      <trkpt lat="49.36906" lon="-1.17804">
        <ele>5.9</ele>
        <time>2022-06-02T15:09:17Z</time>
      </trkpt>
      <trkpt lat="49.36905" lon="-1.17803">
        <ele>5.9</ele>
        <time>2022-06-02T15:09:19Z</time>
      </trkpt>
      <trkpt lat="49.36904" lon="-1.17802">
        <ele>5.9</ele>
        <time>2022-06-02T15:09:20Z</time>
      </trkpt>
      <trkpt lat="49.36904" lon="-1.178">
        <ele>5.9</ele>
        <time>2022-06-02T15:09:21Z</time>
      </trkpt>
      <trkpt lat="49.36902" lon="-1.17798">
        <ele>5.9</ele>
        <time>2022-06-02T15:09:22Z</time>
      </trkpt>
      <trkpt lat="49.36901" lon="-1.17797">
        <ele>5.9</ele>
        <time>2022-06-02T15:09:23Z</time>
      </trkpt>
      <trkpt lat="49.36901" lon="-1.17796">
        <ele>5.8</ele>
        <time>2022-06-02T15:09:24Z</time>
      </trkpt>
      <trkpt lat="49.36899" lon="-1.17794">
        <ele>5.8</ele>
        <time>2022-06-02T15:09:25Z</time>
      </trkpt>
      <trkpt lat="49.36898" lon="-1.17793">
        <ele>5.8</ele>
        <time>2022-06-02T15:09:26Z</time>
      </trkpt>
      <trkpt lat="49.36898" lon="-1.17793">
        <ele>5.8</ele>
        <time>2022-06-02T15:09:27Z</time>
      </trkpt>
      <trkpt lat="49.36896" lon="-1.17791">
        <ele>5.8</ele>
        <time>2022-06-02T15:09:28Z</time>
      </trkpt>
      <trkpt lat="49.36895" lon="-1.1779">
        <ele>5.7</ele>
        <time>2022-06-02T15:09:30Z</time>
      </trkpt>
      <trkpt lat="49.36895" lon="-1.17789">
        <ele>5.7</ele>
        <time>2022-06-02T15:09:31Z</time>
      </trkpt>
      <trkpt lat="49.36893" lon="-1.17787">
        <ele>5.7</ele>
        <time>2022-06-02T15:09:32Z</time>
      </trkpt>
      <trkpt lat="49.36892" lon="-1.17786">
        <ele>5.7</ele>
        <time>2022-06-02T15:09:33Z</time>
      </trkpt>
      <trkpt lat="49.36892" lon="-1.17785">
        <ele>5.7</ele>
        <time>2022-06-02T15:09:34Z</time>
      </trkpt>
      <trkpt lat="49.36891" lon="-1.17784">
        <ele>5.7</ele>
        <time>2022-06-02T15:09:35Z</time>
      </trkpt>
      <trkpt lat="49.36889" lon="-1.17783">
        <ele>5.6</ele>
        <time>2022-06-02T15:09:36Z</time>
      </trkpt>
      <trkpt lat="49.36888" lon="-1.17782">
        <ele>5.6</ele>
        <time>2022-06-02T15:09:37Z</time>
      </trkpt>
      <trkpt lat="49.36887" lon="-1.1778">
        <ele>5.6</ele>
        <time>2022-06-02T15:09:38Z</time>
      </trkpt>
      <trkpt lat="49.36886" lon="-1.17779">
        <ele>5.6</ele>
        <time>2022-06-02T15:09:40Z</time>
      </trkpt>
      <trkpt lat="49.36885" lon="-1.17778">
        <ele>5.6</ele>
        <time>2022-06-02T15:09:41Z</time>
      </trkpt>
      <trkpt lat="49.36884" lon="-1.17777">
        <ele>5.6</ele>
        <time>2022-06-02T15:09:42Z</time>
      </trkpt>
      <trkpt lat="49.36884" lon="-1.17776">
        <ele>5.5</ele>
        <time>2022-06-02T15:09:43Z</time>
      </trkpt>
      <trkpt lat="49.36883" lon="-1.17775">
        <ele>5.5</ele>
        <time>2022-06-02T15:09:44Z</time>
      </trkpt>
      <trkpt lat="49.36881" lon="-1.17773">
        <ele>5.5</ele>
        <time>2022-06-02T15:09:46Z</time>
      </trkpt>
      <trkpt lat="49.3688" lon="-1.17772">
        <ele>5.5</ele>
        <time>2022-06-02T15:09:47Z</time>
      </trkpt>
      <trkpt lat="49.3688" lon="-1.17771">
        <ele>5.5</ele>
        <time>2022-06-02T15:09:48Z</time>
      </trkpt>
      <trkpt lat="49.36878" lon="-1.17769">
        <ele>5.5</ele>
        <time>2022-06-02T15:09:49Z</time>
      </trkpt>
      <trkpt lat="49.36877" lon="-1.17768">
        <ele>5.4</ele>
        <time>2022-06-02T15:09:51Z</time>
      </trkpt>
      <trkpt lat="49.36876" lon="-1.17767">
        <ele>5.4</ele>
        <time>2022-06-02T15:09:52Z</time>
      </trkpt>
      <trkpt lat="49.36874" lon="-1.17766">
        <ele>5.4</ele>
        <time>2022-06-02T15:09:53Z</time>
      </trkpt>
      <trkpt lat="49.36874" lon="-1.17765">
        <ele>5.4</ele>
        <time>2022-06-02T15:09:54Z</time>
      </trkpt>
      <trkpt lat="49.36873" lon="-1.17765">
        <ele>5.4</ele>
        <time>2022-06-02T15:09:55Z</time>
      </trkpt>
      <trkpt lat="49.36871" lon="-1.17763">
        <ele>5.4</ele>
        <time>2022-06-02T15:09:56Z</time>
      </trkpt>
      <trkpt lat="49.3687" lon="-1.17761">
        <ele>5.4</ele>
        <time>2022-06-02T15:09:57Z</time>
      </trkpt>
      <trkpt lat="49.36869" lon="-1.1776">
        <ele>5.4</ele>
        <time>2022-06-02T15:09:58Z</time>
      </trkpt>
      <trkpt lat="49.36868" lon="-1.17759">
        <ele>5.3</ele>
        <time>2022-06-02T15:09:59Z</time>
      </trkpt>
      <trkpt lat="49.36867" lon="-1.17759">
        <ele>5.3</ele>
        <time>2022-06-02T15:10:00Z</time>
      </trkpt>
      <trkpt lat="49.36867" lon="-1.17758">
        <ele>5.3</ele>
        <time>2022-06-02T15:10:02Z</time>
      </trkpt>
      <trkpt lat="49.36866" lon="-1.17757">
        <ele>5.3</ele>
        <time>2022-06-02T15:10:03Z</time>
      </trkpt>
      <trkpt lat="49.36865" lon="-1.17755">
        <ele>5.3</ele>
        <time>2022-06-02T15:10:04Z</time>
      </trkpt>
      <trkpt lat="49.36865" lon="-1.17754">
        <ele>5.3</ele>
        <time>2022-06-02T15:10:05Z</time>
      </trkpt>
      <trkpt lat="49.36864" lon="-1.17753">
        <ele>5.3</ele>
        <time>2022-06-02T15:10:06Z</time>
      </trkpt>
      <trkpt lat="49.36863" lon="-1.17751">
        <ele>5.3</ele>
        <time>2022-06-02T15:10:07Z</time>
      </trkpt>
      <trkpt lat="49.36861" lon="-1.1775">
        <ele>5.3</ele>
        <time>2022-06-02T15:10:08Z</time>
      </trkpt>
      <trkpt lat="49.3686" lon="-1.17749">
        <ele>5.3</ele>
        <time>2022-06-02T15:10:09Z</time>
      </trkpt>
      <trkpt lat="49.3686" lon="-1.17748">
        <ele>5.3</ele>
        <time>2022-06-02T15:10:10Z</time>
      </trkpt>
      <trkpt lat="49.36858" lon="-1.17747">
        <ele>5.3</ele>
        <time>2022-06-02T15:10:11Z</time>
      </trkpt>
      <trkpt lat="49.36857" lon="-1.17746">
        <ele>5.2</ele>
        <time>2022-06-02T15:10:13Z</time>
      </trkpt>
      <trkpt lat="49.36856" lon="-1.17745">
        <ele>5.2</ele>
        <time>2022-06-02T15:10:14Z</time>
      </trkpt>
      <trkpt lat="49.36855" lon="-1.17744">
        <ele>5.2</ele>
        <time>2022-06-02T15:10:15Z</time>
      </trkpt>
      <trkpt lat="49.36855" lon="-1.17743">
        <ele>5.2</ele>
        <time>2022-06-02T15:10:16Z</time>
      </trkpt>
      <trkpt lat="49.36854" lon="-1.17743">
        <ele>5.2</ele>
        <time>2022-06-02T15:10:17Z</time>
      </trkpt>
      <trkpt lat="49.36854" lon="-1.17742">
        <ele>5.2</ele>
        <time>2022-06-02T15:10:18Z</time>
      </trkpt>
      <trkpt lat="49.36853" lon="-1.17741">
        <ele>5.2</ele>
        <time>2022-06-02T15:10:19Z</time>
      </trkpt>
      <trkpt lat="49.36852" lon="-1.1774">
        <ele>5.2</ele>
        <time>2022-06-02T15:10:20Z</time>
      </trkpt>
      <trkpt lat="49.36851" lon="-1.17739">
        <ele>5.2</ele>
        <time>2022-06-02T15:10:21Z</time>
      </trkpt>
      <trkpt lat="49.3685" lon="-1.17738">
        <ele>5.2</ele>
        <time>2022-06-02T15:10:23Z</time>
      </trkpt>
      <trkpt lat="49.36849" lon="-1.17738">
        <ele>5.2</ele>
        <time>2022-06-02T15:10:24Z</time>
      </trkpt>
      <trkpt lat="49.36848" lon="-1.17737">
        <ele>5.2</ele>
        <time>2022-06-02T15:10:25Z</time>
      </trkpt>
      <trkpt lat="49.36848" lon="-1.17736">
        <ele>5.2</ele>
        <time>2022-06-02T15:10:26Z</time>
      </trkpt>
      <trkpt lat="49.36847" lon="-1.17735">
        <ele>5.1</ele>
        <time>2022-06-02T15:10:27Z</time>
      </trkpt>
      <trkpt lat="49.36845" lon="-1.17734">
        <ele>5.1</ele>
        <time>2022-06-02T15:10:28Z</time>
      </trkpt>
      <trkpt lat="49.36845" lon="-1.17733">
        <ele>5.1</ele>
        <time>2022-06-02T15:10:29Z</time>
      </trkpt>
      <trkpt lat="49.36844" lon="-1.17732">
        <ele>5.1</ele>
        <time>2022-06-02T15:10:30Z</time>
      </trkpt>
      <trkpt lat="49.36844" lon="-1.17732">
        <ele>5.1</ele>
        <time>2022-06-02T15:10:31Z</time>
      </trkpt>
      <trkpt lat="49.36842" lon="-1.17729">
        <ele>5.1</ele>
        <time>2022-06-02T15:10:33Z</time>
      </trkpt>
      <trkpt lat="49.36841" lon="-1.17728">
        <ele>5.1</ele>
        <time>2022-06-02T15:10:34Z</time>
      </trkpt>
      <trkpt lat="49.36841" lon="-1.17728">
        <ele>5.1</ele>
        <time>2022-06-02T15:10:35Z</time>
      </trkpt>
      <trkpt lat="49.3684" lon="-1.17726">
        <ele>5.1</ele>
        <time>2022-06-02T15:10:36Z</time>
      </trkpt>
      <trkpt lat="49.36839" lon="-1.17725">
        <ele>5</ele>
        <time>2022-06-02T15:10:37Z</time>
      </trkpt>
      <trkpt lat="49.36838" lon="-1.17725">
        <ele>5</ele>
        <time>2022-06-02T15:10:38Z</time>
      </trkpt>
      <trkpt lat="49.36837" lon="-1.17725">
        <ele>5</ele>
        <time>2022-06-02T15:10:39Z</time>
      </trkpt>
      <trkpt lat="49.36836" lon="-1.17724">
        <ele>5</ele>
        <time>2022-06-02T15:10:40Z</time>
      </trkpt>
      <trkpt lat="49.36835" lon="-1.17724">
        <ele>5</ele>
        <time>2022-06-02T15:10:41Z</time>
      </trkpt>
      <trkpt lat="49.36834" lon="-1.17722">
        <ele>5</ele>
        <time>2022-06-02T15:10:42Z</time>
      </trkpt>
      <trkpt lat="49.36833" lon="-1.17722">
        <ele>5</ele>
        <time>2022-06-02T15:10:44Z</time>
      </trkpt>
      <trkpt lat="49.36832" lon="-1.17721">
        <ele>5</ele>
        <time>2022-06-02T15:10:45Z</time>
      </trkpt>
      <trkpt lat="49.36831" lon="-1.1772">
        <ele>5</ele>
        <time>2022-06-02T15:10:46Z</time>
      </trkpt>
      <trkpt lat="49.36829" lon="-1.17718">
        <ele>5</ele>
        <time>2022-06-02T15:10:48Z</time>
      </trkpt>
      <trkpt lat="49.36829" lon="-1.17717">
        <ele>5</ele>
        <time>2022-06-02T15:10:49Z</time>
      </trkpt>
      <trkpt lat="49.36828" lon="-1.17716">
        <ele>5</ele>
        <time>2022-06-02T15:10:50Z</time>
      </trkpt>
      <trkpt lat="49.36827" lon="-1.17715">
        <ele>5</ele>
        <time>2022-06-02T15:10:51Z</time>
      </trkpt>
      <trkpt lat="49.36826" lon="-1.17714">
        <ele>5</ele>
        <time>2022-06-02T15:10:52Z</time>
      </trkpt>
      <trkpt lat="49.36825" lon="-1.17712">
        <ele>4.9</ele>
        <time>2022-06-02T15:10:53Z</time>
      </trkpt>
      <trkpt lat="49.36823" lon="-1.17711">
        <ele>4.9</ele>
        <time>2022-06-02T15:10:54Z</time>
      </trkpt>
      <trkpt lat="49.36822" lon="-1.17709">
        <ele>4.9</ele>
        <time>2022-06-02T15:10:55Z</time>
      </trkpt>
      <trkpt lat="49.36821" lon="-1.17708">
        <ele>4.9</ele>
        <time>2022-06-02T15:10:56Z</time>
      </trkpt>
      <trkpt lat="49.36819" lon="-1.17707">
        <ele>4.9</ele>
        <time>2022-06-02T15:10:57Z</time>
      </trkpt>
      <trkpt lat="49.36818" lon="-1.17706">
        <ele>4.9</ele>
        <time>2022-06-02T15:10:59Z</time>
      </trkpt>
      <trkpt lat="49.36818" lon="-1.17706">
        <ele>4.9</ele>
        <time>2022-06-02T15:11:00Z</time>
      </trkpt>
      <trkpt lat="49.36816" lon="-1.17705">
        <ele>4.9</ele>
        <time>2022-06-02T15:11:01Z</time>
      </trkpt>
      <trkpt lat="49.36815" lon="-1.17703">
        <ele>4.9</ele>
        <time>2022-06-02T15:11:02Z</time>
      </trkpt>
      <trkpt lat="49.36814" lon="-1.17703">
        <ele>4.9</ele>
        <time>2022-06-02T15:11:03Z</time>
      </trkpt>
      <trkpt lat="49.36814" lon="-1.17702">
        <ele>4.9</ele>
        <time>2022-06-02T15:11:04Z</time>
      </trkpt>
      <trkpt lat="49.36813" lon="-1.17702">
        <ele>4.9</ele>
        <time>2022-06-02T15:11:05Z</time>
      </trkpt>
      <trkpt lat="49.36811" lon="-1.17702">
        <ele>4.8</ele>
        <time>2022-06-02T15:11:06Z</time>
      </trkpt>
      <trkpt lat="49.3681" lon="-1.17701">
        <ele>4.8</ele>
        <time>2022-06-02T15:11:07Z</time>
      </trkpt>
      <trkpt lat="49.36809" lon="-1.17701">
        <ele>4.8</ele>
        <time>2022-06-02T15:11:09Z</time>
      </trkpt>
      <trkpt lat="49.36809" lon="-1.17701">
        <ele>4.8</ele>
        <time>2022-06-02T15:11:10Z</time>
      </trkpt>
      <trkpt lat="49.36807" lon="-1.17701">
        <ele>4.8</ele>
        <time>2022-06-02T15:11:11Z</time>
      </trkpt>
      <trkpt lat="49.36806" lon="-1.177">
        <ele>4.8</ele>
        <time>2022-06-02T15:11:12Z</time>
      </trkpt>
      <trkpt lat="49.36805" lon="-1.177">
        <ele>4.8</ele>
        <time>2022-06-02T15:11:14Z</time>
      </trkpt>
      <trkpt lat="49.36804" lon="-1.177">
        <ele>4.7</ele>
        <time>2022-06-02T15:11:15Z</time>
      </trkpt>
      <trkpt lat="49.36802" lon="-1.177">
        <ele>4.7</ele>
        <time>2022-06-02T15:11:16Z</time>
      </trkpt>
      <trkpt lat="49.36801" lon="-1.17699">
        <ele>4.7</ele>
        <time>2022-06-02T15:11:17Z</time>
      </trkpt>
      <trkpt lat="49.368" lon="-1.17699">
        <ele>4.7</ele>
        <time>2022-06-02T15:11:18Z</time>
      </trkpt>
      <trkpt lat="49.36799" lon="-1.17699">
        <ele>4.7</ele>
        <time>2022-06-02T15:11:19Z</time>
      </trkpt>
      <trkpt lat="49.36797" lon="-1.17698">
        <ele>4.7</ele>
        <time>2022-06-02T15:11:20Z</time>
      </trkpt>
      <trkpt lat="49.36796" lon="-1.17698">
        <ele>4.6</ele>
        <time>2022-06-02T15:11:21Z</time>
      </trkpt>
      <trkpt lat="49.36795" lon="-1.17697">
        <ele>4.6</ele>
        <time>2022-06-02T15:11:22Z</time>
      </trkpt>
      <trkpt lat="49.36793" lon="-1.17697">
        <ele>4.6</ele>
        <time>2022-06-02T15:11:24Z</time>
      </trkpt>
      <trkpt lat="49.36792" lon="-1.17697">
        <ele>4.6</ele>
        <time>2022-06-02T15:11:25Z</time>
      </trkpt>
      <trkpt lat="49.36791" lon="-1.17697">
        <ele>4.6</ele>
        <time>2022-06-02T15:11:26Z</time>
      </trkpt>
      <trkpt lat="49.36789" lon="-1.17697">
        <ele>4.6</ele>
        <time>2022-06-02T15:11:27Z</time>
      </trkpt>
      <trkpt lat="49.36788" lon="-1.17696">
        <ele>4.5</ele>
        <time>2022-06-02T15:11:28Z</time>
      </trkpt>
      <trkpt lat="49.36787" lon="-1.17696">
        <ele>4.5</ele>
        <time>2022-06-02T15:11:29Z</time>
      </trkpt>
      <trkpt lat="49.36786" lon="-1.17695">
        <ele>4.5</ele>
        <time>2022-06-02T15:11:30Z</time>
      </trkpt>
      <trkpt lat="49.36784" lon="-1.17694">
        <ele>4.5</ele>
        <time>2022-06-02T15:11:32Z</time>
      </trkpt>
      <trkpt lat="49.36781" lon="-1.17694">
        <ele>4.4</ele>
        <time>2022-06-02T15:11:33Z</time>
      </trkpt>
      <trkpt lat="49.3678" lon="-1.17693">
        <ele>4.4</ele>
        <time>2022-06-02T15:11:35Z</time>
      </trkpt>
      <trkpt lat="49.36779" lon="-1.17693">
        <ele>4.4</ele>
        <time>2022-06-02T15:11:36Z</time>
      </trkpt>
      <trkpt lat="49.36778" lon="-1.17693">
        <ele>4.4</ele>
        <time>2022-06-02T15:11:37Z</time>
      </trkpt>
      <trkpt lat="49.36777" lon="-1.17693">
        <ele>4.4</ele>
        <time>2022-06-02T15:11:38Z</time>
      </trkpt>
      <trkpt lat="49.36775" lon="-1.17692">
        <ele>4.3</ele>
        <time>2022-06-02T15:11:39Z</time>
      </trkpt>
      <trkpt lat="49.36775" lon="-1.17692">
        <ele>4.3</ele>
        <time>2022-06-02T15:11:40Z</time>
      </trkpt>
      <trkpt lat="49.36774" lon="-1.17692">
        <ele>4.3</ele>
        <time>2022-06-02T15:11:41Z</time>
      </trkpt>
      <trkpt lat="49.36773" lon="-1.17692">
        <ele>4.3</ele>
        <time>2022-06-02T15:11:42Z</time>
      </trkpt>
      <trkpt lat="49.36772" lon="-1.17691">
        <ele>4.3</ele>
        <time>2022-06-02T15:11:43Z</time>
      </trkpt>
      <trkpt lat="49.36771" lon="-1.17691">
        <ele>4.2</ele>
        <time>2022-06-02T15:11:45Z</time>
      </trkpt>
      <trkpt lat="49.3677" lon="-1.17691">
        <ele>4.2</ele>
        <time>2022-06-02T15:11:46Z</time>
      </trkpt>
      <trkpt lat="49.36769" lon="-1.1769">
        <ele>4.2</ele>
        <time>2022-06-02T15:11:47Z</time>
      </trkpt>
      <trkpt lat="49.36768" lon="-1.1769">
        <ele>4.2</ele>
        <time>2022-06-02T15:11:48Z</time>
      </trkpt>
      <trkpt lat="49.36767" lon="-1.1769">
        <ele>4.2</ele>
        <time>2022-06-02T15:11:49Z</time>
      </trkpt>
      <trkpt lat="49.36766" lon="-1.17689">
        <ele>4.2</ele>
        <time>2022-06-02T15:11:50Z</time>
      </trkpt>
      <trkpt lat="49.36765" lon="-1.17688">
        <ele>4.1</ele>
        <time>2022-06-02T15:11:51Z</time>
      </trkpt>
      <trkpt lat="49.36764" lon="-1.17688">
        <ele>4.1</ele>
        <time>2022-06-02T15:11:52Z</time>
      </trkpt>
      <trkpt lat="49.36763" lon="-1.17688">
        <ele>4.1</ele>
        <time>2022-06-02T15:11:53Z</time>
      </trkpt>
      <trkpt lat="49.36762" lon="-1.17687">
        <ele>4.1</ele>
        <time>2022-06-02T15:11:55Z</time>
      </trkpt>
      <trkpt lat="49.3676" lon="-1.17687">
        <ele>4</ele>
        <time>2022-06-02T15:11:56Z</time>
      </trkpt>
      <trkpt lat="49.36759" lon="-1.17686">
        <ele>4</ele>
        <time>2022-06-02T15:11:57Z</time>
      </trkpt>
      <trkpt lat="49.36758" lon="-1.17686">
        <ele>4</ele>
        <time>2022-06-02T15:11:58Z</time>
      </trkpt>
      <trkpt lat="49.36757" lon="-1.17686">
        <ele>4</ele>
        <time>2022-06-02T15:11:59Z</time>
      </trkpt>
      <trkpt lat="49.36756" lon="-1.17686">
        <ele>4</ele>
        <time>2022-06-02T15:12:00Z</time>
      </trkpt>
      <trkpt lat="49.36755" lon="-1.17685">
        <ele>4</ele>
        <time>2022-06-02T15:12:01Z</time>
      </trkpt>
      <trkpt lat="49.36754" lon="-1.17685">
        <ele>3.9</ele>
        <time>2022-06-02T15:12:02Z</time>
      </trkpt>
      <trkpt lat="49.36753" lon="-1.17685">
        <ele>3.9</ele>
        <time>2022-06-02T15:12:04Z</time>
      </trkpt>
      <trkpt lat="49.36752" lon="-1.17684">
        <ele>3.9</ele>
        <time>2022-06-02T15:12:05Z</time>
      </trkpt>
      <trkpt lat="49.36751" lon="-1.17684">
        <ele>3.9</ele>
        <time>2022-06-02T15:12:06Z</time>
      </trkpt>
      <trkpt lat="49.36749" lon="-1.17684">
        <ele>3.9</ele>
        <time>2022-06-02T15:12:07Z</time>
      </trkpt>
      <trkpt lat="49.36749" lon="-1.17684">
        <ele>3.9</ele>
        <time>2022-06-02T15:12:08Z</time>
      </trkpt>
      <trkpt lat="49.36748" lon="-1.17684">
        <ele>3.8</ele>
        <time>2022-06-02T15:12:09Z</time>
      </trkpt>
      <trkpt lat="49.36747" lon="-1.17684">
        <ele>3.8</ele>
        <time>2022-06-02T15:12:10Z</time>
      </trkpt>
      <trkpt lat="49.36746" lon="-1.17684">
        <ele>3.8</ele>
        <time>2022-06-02T15:12:11Z</time>
      </trkpt>
      <trkpt lat="49.36744" lon="-1.17684">
        <ele>3.8</ele>
        <time>2022-06-02T15:12:12Z</time>
      </trkpt>
      <trkpt lat="49.36742" lon="-1.17684">
        <ele>3.8</ele>
        <time>2022-06-02T15:12:14Z</time>
      </trkpt>
      <trkpt lat="49.36741" lon="-1.17684">
        <ele>3.8</ele>
        <time>2022-06-02T15:12:15Z</time>
      </trkpt>
      <trkpt lat="49.3674" lon="-1.17684">
        <ele>3.8</ele>
        <time>2022-06-02T15:12:16Z</time>
      </trkpt>
      <trkpt lat="49.36739" lon="-1.17684">
        <ele>3.8</ele>
        <time>2022-06-02T15:12:17Z</time>
      </trkpt>
      <trkpt lat="49.36738" lon="-1.17684">
        <ele>3.8</ele>
        <time>2022-06-02T15:12:18Z</time>
      </trkpt>
      <trkpt lat="49.36736" lon="-1.17684">
        <ele>3.8</ele>
        <time>2022-06-02T15:12:19Z</time>
      </trkpt>
      <trkpt lat="49.36735" lon="-1.17684">
        <ele>3.8</ele>
        <time>2022-06-02T15:12:20Z</time>
      </trkpt>
      <trkpt lat="49.36734" lon="-1.17684">
        <ele>3.8</ele>
        <time>2022-06-02T15:12:21Z</time>
      </trkpt>
      <trkpt lat="49.36733" lon="-1.17683">
        <ele>3.8</ele>
        <time>2022-06-02T15:12:23Z</time>
      </trkpt>
      <trkpt lat="49.36732" lon="-1.17683">
        <ele>3.8</ele>
        <time>2022-06-02T15:12:24Z</time>
      </trkpt>
      <trkpt lat="49.36731" lon="-1.17683">
        <ele>3.8</ele>
        <time>2022-06-02T15:12:25Z</time>
      </trkpt>
      <trkpt lat="49.3673" lon="-1.17682">
        <ele>3.8</ele>
        <time>2022-06-02T15:12:26Z</time>
      </trkpt>
      <trkpt lat="49.36729" lon="-1.17682">
        <ele>3.8</ele>
        <time>2022-06-02T15:12:27Z</time>
      </trkpt>
      <trkpt lat="49.36728" lon="-1.17681">
        <ele>3.9</ele>
        <time>2022-06-02T15:12:28Z</time>
      </trkpt>
      <trkpt lat="49.36727" lon="-1.17681">
        <ele>3.9</ele>
        <time>2022-06-02T15:12:29Z</time>
      </trkpt>
      <trkpt lat="49.36726" lon="-1.1768">
        <ele>3.9</ele>
        <time>2022-06-02T15:12:31Z</time>
      </trkpt>
      <trkpt lat="49.36725" lon="-1.1768">
        <ele>3.9</ele>
        <time>2022-06-02T15:12:32Z</time>
      </trkpt>
      <trkpt lat="49.36724" lon="-1.17679">
        <ele>3.9</ele>
        <time>2022-06-02T15:12:33Z</time>
      </trkpt>
      <trkpt lat="49.36724" lon="-1.17678">
        <ele>3.9</ele>
        <time>2022-06-02T15:12:34Z</time>
      </trkpt>
      <trkpt lat="49.36723" lon="-1.17677">
        <ele>3.9</ele>
        <time>2022-06-02T15:12:35Z</time>
      </trkpt>
      <trkpt lat="49.36723" lon="-1.17676">
        <ele>3.9</ele>
        <time>2022-06-02T15:12:36Z</time>
      </trkpt>
      <trkpt lat="49.36723" lon="-1.17676">
        <ele>3.9</ele>
        <time>2022-06-02T15:12:37Z</time>
      </trkpt>
      <trkpt lat="49.36724" lon="-1.17675">
        <ele>3.9</ele>
        <time>2022-06-02T15:12:38Z</time>
      </trkpt>
      <trkpt lat="49.36724" lon="-1.17675">
        <ele>3.9</ele>
        <time>2022-06-02T15:12:39Z</time>
      </trkpt>
      <trkpt lat="49.36724" lon="-1.17675">
        <ele>3.9</ele>
        <time>2022-06-02T15:12:40Z</time>
      </trkpt>
      <trkpt lat="49.36724" lon="-1.17676">
        <ele>3.9</ele>
        <time>2022-06-02T15:12:41Z</time>
      </trkpt>
      <trkpt lat="49.36724" lon="-1.17675">
        <ele>3.9</ele>
        <time>2022-06-02T15:12:42Z</time>
      </trkpt>
      <trkpt lat="49.36724" lon="-1.17675">
        <ele>3.9</ele>
        <time>2022-06-02T15:12:43Z</time>
      </trkpt>
      <trkpt lat="49.36724" lon="-1.17675">
        <ele>3.9</ele>
        <time>2022-06-02T15:12:45Z</time>
      </trkpt>
      <trkpt lat="49.36724" lon="-1.17675">
        <ele>3.9</ele>
        <time>2022-06-02T15:12:46Z</time>
      </trkpt>
      <trkpt lat="49.36724" lon="-1.17675">
        <ele>3.9</ele>
        <time>2022-06-02T15:12:47Z</time>
      </trkpt>
      <trkpt lat="49.36723" lon="-1.17674">
        <ele>3.9</ele>
        <time>2022-06-02T15:12:48Z</time>
      </trkpt>
      <trkpt lat="49.36723" lon="-1.17674">
        <ele>3.9</ele>
        <time>2022-06-02T15:12:50Z</time>
      </trkpt>
      <trkpt lat="49.36723" lon="-1.17674">
        <ele>3.9</ele>
        <time>2022-06-02T15:12:51Z</time>
      </trkpt>
      <trkpt lat="49.36722" lon="-1.17673">
        <ele>4</ele>
        <time>2022-06-02T15:12:53Z</time>
      </trkpt>
      <trkpt lat="49.36722" lon="-1.17672">
        <ele>4</ele>
        <time>2022-06-02T15:12:55Z</time>
      </trkpt>
      <trkpt lat="49.36722" lon="-1.17672">
        <ele>4</ele>
        <time>2022-06-02T15:12:56Z</time>
      </trkpt>
      <trkpt lat="49.36721" lon="-1.17672">
        <ele>4</ele>
        <time>2022-06-02T15:12:57Z</time>
      </trkpt>
      <trkpt lat="49.36721" lon="-1.17672">
        <ele>4</ele>
        <time>2022-06-02T15:12:58Z</time>
      </trkpt>
      <trkpt lat="49.3672" lon="-1.17672">
        <ele>4</ele>
        <time>2022-06-02T15:13:00Z</time>
      </trkpt>
      <trkpt lat="49.36719" lon="-1.17672">
        <ele>4</ele>
        <time>2022-06-02T15:13:01Z</time>
      </trkpt>
      <trkpt lat="49.36718" lon="-1.17673">
        <ele>3.9</ele>
        <time>2022-06-02T15:13:02Z</time>
      </trkpt>
      <trkpt lat="49.36717" lon="-1.17673">
        <ele>3.9</ele>
        <time>2022-06-02T15:13:04Z</time>
      </trkpt>
      <trkpt lat="49.36715" lon="-1.17672">
        <ele>3.9</ele>
        <time>2022-06-02T15:13:05Z</time>
      </trkpt>
      <trkpt lat="49.36712" lon="-1.17672">
        <ele>3.9</ele>
        <time>2022-06-02T15:13:07Z</time>
      </trkpt>
      <trkpt lat="49.36711" lon="-1.17672">
        <ele>3.9</ele>
        <time>2022-06-02T15:13:08Z</time>
      </trkpt>
      <trkpt lat="49.3671" lon="-1.17672">
        <ele>3.9</ele>
        <time>2022-06-02T15:13:09Z</time>
      </trkpt>
      <trkpt lat="49.36709" lon="-1.17671">
        <ele>3.9</ele>
        <time>2022-06-02T15:13:10Z</time>
      </trkpt>
      <trkpt lat="49.36707" lon="-1.17671">
        <ele>3.9</ele>
        <time>2022-06-02T15:13:12Z</time>
      </trkpt>
      <trkpt lat="49.36706" lon="-1.17671">
        <ele>3.8</ele>
        <time>2022-06-02T15:13:13Z</time>
      </trkpt>
      <trkpt lat="49.36704" lon="-1.1767">
        <ele>3.8</ele>
        <time>2022-06-02T15:13:14Z</time>
      </trkpt>
      <trkpt lat="49.36702" lon="-1.17669">
        <ele>3.8</ele>
        <time>2022-06-02T15:13:15Z</time>
      </trkpt>
      <trkpt lat="49.36702" lon="-1.17668">
        <ele>3.8</ele>
        <time>2022-06-02T15:13:16Z</time>
      </trkpt>
      <trkpt lat="49.36701" lon="-1.17667">
        <ele>3.8</ele>
        <time>2022-06-02T15:13:17Z</time>
      </trkpt>
      <trkpt lat="49.367" lon="-1.17666">
        <ele>3.8</ele>
        <time>2022-06-02T15:13:19Z</time>
      </trkpt>
      <trkpt lat="49.36699" lon="-1.17666">
        <ele>3.8</ele>
        <time>2022-06-02T15:13:20Z</time>
      </trkpt>
      <trkpt lat="49.36698" lon="-1.17665">
        <ele>3.8</ele>
        <time>2022-06-02T15:13:21Z</time>
      </trkpt>
      <trkpt lat="49.36697" lon="-1.17664">
        <ele>3.8</ele>
        <time>2022-06-02T15:13:22Z</time>
      </trkpt>
      <trkpt lat="49.36696" lon="-1.17663">
        <ele>3.7</ele>
        <time>2022-06-02T15:13:23Z</time>
      </trkpt>
      <trkpt lat="49.36695" lon="-1.17662">
        <ele>3.7</ele>
        <time>2022-06-02T15:13:24Z</time>
      </trkpt>
      <trkpt lat="49.36694" lon="-1.17661">
        <ele>3.8</ele>
        <time>2022-06-02T15:13:25Z</time>
      </trkpt>
      <trkpt lat="49.36693" lon="-1.1766">
        <ele>3.8</ele>
        <time>2022-06-02T15:13:27Z</time>
      </trkpt>
      <trkpt lat="49.36692" lon="-1.1766">
        <ele>3.8</ele>
        <time>2022-06-02T15:13:28Z</time>
      </trkpt>
      <trkpt lat="49.36691" lon="-1.17659">
        <ele>3.8</ele>
        <time>2022-06-02T15:13:29Z</time>
      </trkpt>
      <trkpt lat="49.3669" lon="-1.17658">
        <ele>3.8</ele>
        <time>2022-06-02T15:13:30Z</time>
      </trkpt>
      <trkpt lat="49.3669" lon="-1.17657">
        <ele>3.8</ele>
        <time>2022-06-02T15:13:31Z</time>
      </trkpt>
      <trkpt lat="49.36688" lon="-1.17654">
        <ele>3.8</ele>
        <time>2022-06-02T15:13:34Z</time>
      </trkpt>
      <trkpt lat="49.36688" lon="-1.17653">
        <ele>3.8</ele>
        <time>2022-06-02T15:13:35Z</time>
      </trkpt>
      <trkpt lat="49.36688" lon="-1.17652">
        <ele>3.8</ele>
        <time>2022-06-02T15:13:36Z</time>
      </trkpt>
      <trkpt lat="49.36688" lon="-1.17652">
        <ele>3.8</ele>
        <time>2022-06-02T15:13:37Z</time>
      </trkpt>
      <trkpt lat="49.36689" lon="-1.17652">
        <ele>3.8</ele>
        <time>2022-06-02T15:13:38Z</time>
      </trkpt>
      <trkpt lat="49.36689" lon="-1.17652">
        <ele>3.8</ele>
        <time>2022-06-02T15:13:39Z</time>
      </trkpt>
      <trkpt lat="49.36689" lon="-1.17653">
        <ele>3.8</ele>
        <time>2022-06-02T15:13:40Z</time>
      </trkpt>
      <trkpt lat="49.36689" lon="-1.17653">
        <ele>3.8</ele>
        <time>2022-06-02T15:13:41Z</time>
      </trkpt>
      <trkpt lat="49.36688" lon="-1.17652">
        <ele>3.8</ele>
        <time>2022-06-02T15:13:42Z</time>
      </trkpt>
      <trkpt lat="49.36688" lon="-1.17652">
        <ele>3.8</ele>
        <time>2022-06-02T15:13:44Z</time>
      </trkpt>
      <trkpt lat="49.36688" lon="-1.17652">
        <ele>3.8</ele>
        <time>2022-06-02T15:13:45Z</time>
      </trkpt>
      <trkpt lat="49.36687" lon="-1.17652">
        <ele>3.8</ele>
        <time>2022-06-02T15:13:46Z</time>
      </trkpt>
      <trkpt lat="49.36686" lon="-1.17651">
        <ele>3.8</ele>
        <time>2022-06-02T15:13:47Z</time>
      </trkpt>
      <trkpt lat="49.36685" lon="-1.17651">
        <ele>3.8</ele>
        <time>2022-06-02T15:13:48Z</time>
      </trkpt>
      <trkpt lat="49.36684" lon="-1.17651">
        <ele>3.8</ele>
        <time>2022-06-02T15:13:50Z</time>
      </trkpt>
      <trkpt lat="49.36683" lon="-1.17651">
        <ele>3.8</ele>
        <time>2022-06-02T15:13:51Z</time>
      </trkpt>
      <trkpt lat="49.36682" lon="-1.1765">
        <ele>3.8</ele>
        <time>2022-06-02T15:13:52Z</time>
      </trkpt>
      <trkpt lat="49.36681" lon="-1.17649">
        <ele>3.8</ele>
        <time>2022-06-02T15:13:53Z</time>
      </trkpt>
      <trkpt lat="49.36681" lon="-1.17647">
        <ele>3.8</ele>
        <time>2022-06-02T15:13:54Z</time>
      </trkpt>
      <trkpt lat="49.3668" lon="-1.17646">
        <ele>3.8</ele>
        <time>2022-06-02T15:13:55Z</time>
      </trkpt>
      <trkpt lat="49.36679" lon="-1.17645">
        <ele>3.8</ele>
        <time>2022-06-02T15:13:57Z</time>
      </trkpt>
      <trkpt lat="49.36678" lon="-1.17644">
        <ele>3.8</ele>
        <time>2022-06-02T15:13:58Z</time>
      </trkpt>
      <trkpt lat="49.36677" lon="-1.17644">
        <ele>3.8</ele>
        <time>2022-06-02T15:14:00Z</time>
      </trkpt>
      <trkpt lat="49.36676" lon="-1.17643">
        <ele>3.8</ele>
        <time>2022-06-02T15:14:01Z</time>
      </trkpt>
      <trkpt lat="49.36675" lon="-1.17642">
        <ele>3.8</ele>
        <time>2022-06-02T15:14:02Z</time>
      </trkpt>
      <trkpt lat="49.36674" lon="-1.17641">
        <ele>3.8</ele>
        <time>2022-06-02T15:14:03Z</time>
      </trkpt>
      <trkpt lat="49.36673" lon="-1.1764">
        <ele>3.8</ele>
        <time>2022-06-02T15:14:05Z</time>
      </trkpt>
      <trkpt lat="49.36673" lon="-1.1764">
        <ele>3.8</ele>
        <time>2022-06-02T15:14:06Z</time>
      </trkpt>
      <trkpt lat="49.36672" lon="-1.17638">
        <ele>3.8</ele>
        <time>2022-06-02T15:14:09Z</time>
      </trkpt>
      <trkpt lat="49.36672" lon="-1.17637">
        <ele>3.8</ele>
        <time>2022-06-02T15:14:10Z</time>
      </trkpt>
      <trkpt lat="49.36672" lon="-1.17636">
        <ele>3.8</ele>
        <time>2022-06-02T15:14:11Z</time>
      </trkpt>
      <trkpt lat="49.36673" lon="-1.17636">
        <ele>3.8</ele>
        <time>2022-06-02T15:14:12Z</time>
      </trkpt>
      <trkpt lat="49.36673" lon="-1.17636">
        <ele>3.8</ele>
        <time>2022-06-02T15:14:13Z</time>
      </trkpt>
      <trkpt lat="49.36673" lon="-1.17636">
        <ele>3.8</ele>
        <time>2022-06-02T15:14:14Z</time>
      </trkpt>
      <trkpt lat="49.36673" lon="-1.17636">
        <ele>3.8</ele>
        <time>2022-06-02T15:14:15Z</time>
      </trkpt>
      <trkpt lat="49.36673" lon="-1.17636">
        <ele>3.8</ele>
        <time>2022-06-02T15:14:16Z</time>
      </trkpt>
      <trkpt lat="49.36673" lon="-1.17636">
        <ele>3.8</ele>
        <time>2022-06-02T15:14:17Z</time>
      </trkpt>
      <trkpt lat="49.36673" lon="-1.17637">
        <ele>3.8</ele>
        <time>2022-06-02T15:14:18Z</time>
      </trkpt>
      <trkpt lat="49.36673" lon="-1.17637">
        <ele>3.8</ele>
        <time>2022-06-02T15:14:19Z</time>
      </trkpt>
      <trkpt lat="49.36672" lon="-1.17638">
        <ele>3.8</ele>
        <time>2022-06-02T15:14:21Z</time>
      </trkpt>
      <trkpt lat="49.36671" lon="-1.17639">
        <ele>3.8</ele>
        <time>2022-06-02T15:14:22Z</time>
      </trkpt>
      <trkpt lat="49.3667" lon="-1.17639">
        <ele>3.8</ele>
        <time>2022-06-02T15:14:23Z</time>
      </trkpt>
      <trkpt lat="49.36669" lon="-1.17639">
        <ele>3.8</ele>
        <time>2022-06-02T15:14:25Z</time>
      </trkpt>
      <trkpt lat="49.36669" lon="-1.17639">
        <ele>3.8</ele>
        <time>2022-06-02T15:14:26Z</time>
      </trkpt>
      <trkpt lat="49.36668" lon="-1.17639">
        <ele>3.8</ele>
        <time>2022-06-02T15:14:27Z</time>
      </trkpt>
      <trkpt lat="49.36666" lon="-1.17637">
        <ele>3.8</ele>
        <time>2022-06-02T15:14:28Z</time>
      </trkpt>
      <trkpt lat="49.36665" lon="-1.17637">
        <ele>3.8</ele>
        <time>2022-06-02T15:14:30Z</time>
      </trkpt>
      <trkpt lat="49.36665" lon="-1.17637">
        <ele>3.8</ele>
        <time>2022-06-02T15:14:31Z</time>
      </trkpt>
      <trkpt lat="49.36666" lon="-1.17637">
        <ele>3.8</ele>
        <time>2022-06-02T15:14:32Z</time>
      </trkpt>
      <trkpt lat="49.36666" lon="-1.17637">
        <ele>3.8</ele>
        <time>2022-06-02T15:14:33Z</time>
      </trkpt>
      <trkpt lat="49.36666" lon="-1.17638">
        <ele>3.8</ele>
        <time>2022-06-02T15:14:34Z</time>
      </trkpt>
      <trkpt lat="49.36666" lon="-1.17638">
        <ele>3.8</ele>
        <time>2022-06-02T15:14:35Z</time>
      </trkpt>
      <trkpt lat="49.36666" lon="-1.17638">
        <ele>3.8</ele>
        <time>2022-06-02T15:14:36Z</time>
      </trkpt>
      <trkpt lat="49.36667" lon="-1.17638">
        <ele>3.8</ele>
        <time>2022-06-02T15:14:37Z</time>
      </trkpt>
      <trkpt lat="49.36667" lon="-1.17638">
        <ele>3.8</ele>
        <time>2022-06-02T15:14:38Z</time>
      </trkpt>
      <trkpt lat="49.36667" lon="-1.17639">
        <ele>3.8</ele>
        <time>2022-06-02T15:14:39Z</time>
      </trkpt>
      <trkpt lat="49.36667" lon="-1.17639">
        <ele>3.8</ele>
        <time>2022-06-02T15:14:40Z</time>
      </trkpt>
      <trkpt lat="49.36667" lon="-1.17639">
        <ele>3.8</ele>
        <time>2022-06-02T15:14:41Z</time>
      </trkpt>
      <trkpt lat="49.36668" lon="-1.17639">
        <ele>3.8</ele>
        <time>2022-06-02T15:14:42Z</time>
      </trkpt>
      <trkpt lat="49.36668" lon="-1.1764">
        <ele>3.8</ele>
        <time>2022-06-02T15:14:43Z</time>
      </trkpt>
      <trkpt lat="49.36668" lon="-1.1764">
        <ele>3.8</ele>
        <time>2022-06-02T15:14:44Z</time>
      </trkpt>
      <trkpt lat="49.36668" lon="-1.1764">
        <ele>3.8</ele>
        <time>2022-06-02T15:14:45Z</time>
      </trkpt>
      <trkpt lat="49.36668" lon="-1.1764">
        <ele>3.8</ele>
        <time>2022-06-02T15:14:47Z</time>
      </trkpt>
      <trkpt lat="49.36668" lon="-1.17641">
        <ele>3.8</ele>
        <time>2022-06-02T15:14:48Z</time>
      </trkpt>
      <trkpt lat="49.36669" lon="-1.17641">
        <ele>3.8</ele>
        <time>2022-06-02T15:14:49Z</time>
      </trkpt>
      <trkpt lat="49.36669" lon="-1.17641">
        <ele>3.8</ele>
        <time>2022-06-02T15:14:50Z</time>
      </trkpt>
      <trkpt lat="49.36671" lon="-1.17643">
        <ele>3.8</ele>
        <time>2022-06-02T15:14:51Z</time>
      </trkpt>
      <trkpt lat="49.36672" lon="-1.17646">
        <ele>3.8</ele>
        <time>2022-06-02T15:14:53Z</time>
      </trkpt>
      <trkpt lat="49.36675" lon="-1.17648">
        <ele>3.7</ele>
        <time>2022-06-02T15:14:54Z</time>
      </trkpt>
      <trkpt lat="49.36676" lon="-1.17649">
        <ele>3.7</ele>
        <time>2022-06-02T15:14:55Z</time>
      </trkpt>
      <trkpt lat="49.36677" lon="-1.17648">
        <ele>3.7</ele>
        <time>2022-06-02T15:14:57Z</time>
      </trkpt>
      <trkpt lat="49.36679" lon="-1.17648">
        <ele>3.7</ele>
        <time>2022-06-02T15:14:58Z</time>
      </trkpt>
      <trkpt lat="49.3668" lon="-1.17646">
        <ele>3.7</ele>
        <time>2022-06-02T15:15:00Z</time>
      </trkpt>
      <trkpt lat="49.36681" lon="-1.17645">
        <ele>3.7</ele>
        <time>2022-06-02T15:15:01Z</time>
      </trkpt>
      <trkpt lat="49.36682" lon="-1.17645">
        <ele>3.7</ele>
        <time>2022-06-02T15:15:02Z</time>
      </trkpt>
      <trkpt lat="49.36683" lon="-1.17646">
        <ele>3.7</ele>
        <time>2022-06-02T15:15:04Z</time>
      </trkpt>
      <trkpt lat="49.36684" lon="-1.17647">
        <ele>3.7</ele>
        <time>2022-06-02T15:15:05Z</time>
      </trkpt>
      <trkpt lat="49.36684" lon="-1.17649">
        <ele>3.7</ele>
        <time>2022-06-02T15:15:06Z</time>
      </trkpt>
      <trkpt lat="49.36685" lon="-1.1765">
        <ele>3.7</ele>
        <time>2022-06-02T15:15:08Z</time>
      </trkpt>
      <trkpt lat="49.36685" lon="-1.17651">
        <ele>3.7</ele>
        <time>2022-06-02T15:15:09Z</time>
      </trkpt>
      <trkpt lat="49.36686" lon="-1.17651">
        <ele>3.7</ele>
        <time>2022-06-02T15:15:10Z</time>
      </trkpt>
      <trkpt lat="49.36687" lon="-1.17652">
        <ele>3.7</ele>
        <time>2022-06-02T15:15:11Z</time>
      </trkpt>
      <trkpt lat="49.36688" lon="-1.17652">
        <ele>3.7</ele>
        <time>2022-06-02T15:15:13Z</time>
      </trkpt>
      <trkpt lat="49.36688" lon="-1.17653">
        <ele>3.7</ele>
        <time>2022-06-02T15:15:14Z</time>
      </trkpt>
      <trkpt lat="49.36689" lon="-1.17654">
        <ele>3.7</ele>
        <time>2022-06-02T15:15:15Z</time>
      </trkpt>
      <trkpt lat="49.36689" lon="-1.17655">
        <ele>3.7</ele>
        <time>2022-06-02T15:15:16Z</time>
      </trkpt>
      <trkpt lat="49.3669" lon="-1.17656">
        <ele>3.7</ele>
        <time>2022-06-02T15:15:18Z</time>
      </trkpt>
      <trkpt lat="49.3669" lon="-1.17657">
        <ele>3.7</ele>
        <time>2022-06-02T15:15:19Z</time>
      </trkpt>
      <trkpt lat="49.36691" lon="-1.17659">
        <ele>3.7</ele>
        <time>2022-06-02T15:15:20Z</time>
      </trkpt>
      <trkpt lat="49.36692" lon="-1.1766">
        <ele>3.7</ele>
        <time>2022-06-02T15:15:21Z</time>
      </trkpt>
      <trkpt lat="49.36694" lon="-1.17662">
        <ele>3.7</ele>
        <time>2022-06-02T15:15:22Z</time>
      </trkpt>
      <trkpt lat="49.36695" lon="-1.17663">
        <ele>3.7</ele>
        <time>2022-06-02T15:15:24Z</time>
      </trkpt>
      <trkpt lat="49.36696" lon="-1.17664">
        <ele>3.7</ele>
        <time>2022-06-02T15:15:25Z</time>
      </trkpt>
      <trkpt lat="49.36696" lon="-1.17666">
        <ele>3.6</ele>
        <time>2022-06-02T15:15:26Z</time>
      </trkpt>
      <trkpt lat="49.36695" lon="-1.17668">
        <ele>3.6</ele>
        <time>2022-06-02T15:15:27Z</time>
      </trkpt>
      <trkpt lat="49.36694" lon="-1.17669">
        <ele>3.6</ele>
        <time>2022-06-02T15:15:29Z</time>
      </trkpt>
      <trkpt lat="49.36694" lon="-1.17671">
        <ele>3.6</ele>
        <time>2022-06-02T15:15:30Z</time>
      </trkpt>
      <trkpt lat="49.36693" lon="-1.17672">
        <ele>3.6</ele>
        <time>2022-06-02T15:15:31Z</time>
      </trkpt>
      <trkpt lat="49.36691" lon="-1.17673">
        <ele>3.6</ele>
        <time>2022-06-02T15:15:33Z</time>
      </trkpt>
      <trkpt lat="49.3669" lon="-1.17673">
        <ele>3.6</ele>
        <time>2022-06-02T15:15:34Z</time>
      </trkpt>
      <trkpt lat="49.36688" lon="-1.17672">
        <ele>3.6</ele>
        <time>2022-06-02T15:15:35Z</time>
      </trkpt>
      <trkpt lat="49.36686" lon="-1.17671">
        <ele>3.6</ele>
        <time>2022-06-02T15:15:37Z</time>
      </trkpt>
      <trkpt lat="49.36686" lon="-1.1767">
        <ele>3.6</ele>
        <time>2022-06-02T15:15:38Z</time>
      </trkpt>
      <trkpt lat="49.36685" lon="-1.17669">
        <ele>3.6</ele>
        <time>2022-06-02T15:15:39Z</time>
      </trkpt>
      <trkpt lat="49.36685" lon="-1.17668">
        <ele>3.6</ele>
        <time>2022-06-02T15:15:40Z</time>
      </trkpt>
      <trkpt lat="49.36685" lon="-1.17668">
        <ele>3.6</ele>
        <time>2022-06-02T15:15:41Z</time>
      </trkpt>
      <trkpt lat="49.36684" lon="-1.17668">
        <ele>3.6</ele>
        <time>2022-06-02T15:15:42Z</time>
      </trkpt>
      <trkpt lat="49.36684" lon="-1.17668">
        <ele>3.6</ele>
        <time>2022-06-02T15:15:44Z</time>
      </trkpt>
      <trkpt lat="49.36683" lon="-1.17668">
        <ele>3.6</ele>
        <time>2022-06-02T15:15:45Z</time>
      </trkpt>
      <trkpt lat="49.36682" lon="-1.17668">
        <ele>3.6</ele>
        <time>2022-06-02T15:15:46Z</time>
      </trkpt>
      <trkpt lat="49.36682" lon="-1.17669">
        <ele>3.6</ele>
        <time>2022-06-02T15:15:47Z</time>
      </trkpt>
      <trkpt lat="49.3668" lon="-1.1767">
        <ele>3.6</ele>
        <time>2022-06-02T15:15:48Z</time>
      </trkpt>
      <trkpt lat="49.36679" lon="-1.17671">
        <ele>3.6</ele>
        <time>2022-06-02T15:15:50Z</time>
      </trkpt>
      <trkpt lat="49.36678" lon="-1.17671">
        <ele>3.6</ele>
        <time>2022-06-02T15:15:51Z</time>
      </trkpt>
      <trkpt lat="49.36677" lon="-1.17671">
        <ele>3.6</ele>
        <time>2022-06-02T15:15:53Z</time>
      </trkpt>
      <trkpt lat="49.36677" lon="-1.17671">
        <ele>3.6</ele>
        <time>2022-06-02T15:15:54Z</time>
      </trkpt>
      <trkpt lat="49.36676" lon="-1.17671">
        <ele>3.6</ele>
        <time>2022-06-02T15:15:55Z</time>
      </trkpt>
      <trkpt lat="49.36675" lon="-1.17671">
        <ele>3.6</ele>
        <time>2022-06-02T15:15:56Z</time>
      </trkpt>
      <trkpt lat="49.36673" lon="-1.17671">
        <ele>3.5</ele>
        <time>2022-06-02T15:15:57Z</time>
      </trkpt>
      <trkpt lat="49.36673" lon="-1.17671">
        <ele>3.5</ele>
        <time>2022-06-02T15:15:58Z</time>
      </trkpt>
      <trkpt lat="49.36672" lon="-1.17671">
        <ele>3.5</ele>
        <time>2022-06-02T15:16:00Z</time>
      </trkpt>
      <trkpt lat="49.36671" lon="-1.17671">
        <ele>3.5</ele>
        <time>2022-06-02T15:16:01Z</time>
      </trkpt>
      <trkpt lat="49.3667" lon="-1.17672">
        <ele>3.5</ele>
        <time>2022-06-02T15:16:02Z</time>
      </trkpt>
      <trkpt lat="49.36669" lon="-1.17673">
        <ele>3.5</ele>
        <time>2022-06-02T15:16:03Z</time>
      </trkpt>
      <trkpt lat="49.36668" lon="-1.17674">
        <ele>3.5</ele>
        <time>2022-06-02T15:16:04Z</time>
      </trkpt>
      <trkpt lat="49.36667" lon="-1.17675">
        <ele>3.5</ele>
        <time>2022-06-02T15:16:05Z</time>
      </trkpt>
      <trkpt lat="49.36666" lon="-1.17675">
        <ele>3.5</ele>
        <time>2022-06-02T15:16:07Z</time>
      </trkpt>
      <trkpt lat="49.36665" lon="-1.17676">
        <ele>3.5</ele>
        <time>2022-06-02T15:16:08Z</time>
      </trkpt>
      <trkpt lat="49.36664" lon="-1.17676">
        <ele>3.5</ele>
        <time>2022-06-02T15:16:09Z</time>
      </trkpt>
      <trkpt lat="49.36663" lon="-1.17676">
        <ele>3.5</ele>
        <time>2022-06-02T15:16:10Z</time>
      </trkpt>
      <trkpt lat="49.36662" lon="-1.17677">
        <ele>3.5</ele>
        <time>2022-06-02T15:16:11Z</time>
      </trkpt>
      <trkpt lat="49.36661" lon="-1.17678">
        <ele>3.5</ele>
        <time>2022-06-02T15:16:12Z</time>
      </trkpt>
      <trkpt lat="49.3666" lon="-1.17679">
        <ele>3.5</ele>
        <time>2022-06-02T15:16:13Z</time>
      </trkpt>
      <trkpt lat="49.36659" lon="-1.17679">
        <ele>3.5</ele>
        <time>2022-06-02T15:16:14Z</time>
      </trkpt>
      <trkpt lat="49.36657" lon="-1.1768">
        <ele>3.5</ele>
        <time>2022-06-02T15:16:16Z</time>
      </trkpt>
      <trkpt lat="49.36656" lon="-1.1768">
        <ele>3.5</ele>
        <time>2022-06-02T15:16:17Z</time>
      </trkpt>
      <trkpt lat="49.36655" lon="-1.17681">
        <ele>3.5</ele>
        <time>2022-06-02T15:16:18Z</time>
      </trkpt>
      <trkpt lat="49.36653" lon="-1.17681">
        <ele>3.5</ele>
        <time>2022-06-02T15:16:19Z</time>
      </trkpt>
      <trkpt lat="49.36652" lon="-1.17681">
        <ele>3.5</ele>
        <time>2022-06-02T15:16:20Z</time>
      </trkpt>
      <trkpt lat="49.36652" lon="-1.17682">
        <ele>3.5</ele>
        <time>2022-06-02T15:16:21Z</time>
      </trkpt>
      <trkpt lat="49.36651" lon="-1.17682">
        <ele>3.5</ele>
        <time>2022-06-02T15:16:22Z</time>
      </trkpt>
      <trkpt lat="49.36649" lon="-1.17683">
        <ele>3.5</ele>
        <time>2022-06-02T15:16:23Z</time>
      </trkpt>
      <trkpt lat="49.36648" lon="-1.17684">
        <ele>3.5</ele>
        <time>2022-06-02T15:16:25Z</time>
      </trkpt>
      <trkpt lat="49.36646" lon="-1.17685">
        <ele>3.5</ele>
        <time>2022-06-02T15:16:26Z</time>
      </trkpt>
      <trkpt lat="49.36645" lon="-1.17686">
        <ele>3.5</ele>
        <time>2022-06-02T15:16:27Z</time>
      </trkpt>
      <trkpt lat="49.36644" lon="-1.17688">
        <ele>3.5</ele>
        <time>2022-06-02T15:16:28Z</time>
      </trkpt>
      <trkpt lat="49.36643" lon="-1.17689">
        <ele>3.5</ele>
        <time>2022-06-02T15:16:29Z</time>
      </trkpt>
      <trkpt lat="49.36641" lon="-1.1769">
        <ele>3.5</ele>
        <time>2022-06-02T15:16:30Z</time>
      </trkpt>
      <trkpt lat="49.3664" lon="-1.17691">
        <ele>3.5</ele>
        <time>2022-06-02T15:16:31Z</time>
      </trkpt>
      <trkpt lat="49.36639" lon="-1.17693">
        <ele>3.5</ele>
        <time>2022-06-02T15:16:33Z</time>
      </trkpt>
      <trkpt lat="49.36638" lon="-1.17694">
        <ele>3.5</ele>
        <time>2022-06-02T15:16:34Z</time>
      </trkpt>
      <trkpt lat="49.36637" lon="-1.17694">
        <ele>3.4</ele>
        <time>2022-06-02T15:16:35Z</time>
      </trkpt>
      <trkpt lat="49.36635" lon="-1.17695">
        <ele>3.4</ele>
        <time>2022-06-02T15:16:36Z</time>
      </trkpt>
      <trkpt lat="49.36634" lon="-1.17695">
        <ele>3.4</ele>
        <time>2022-06-02T15:16:37Z</time>
      </trkpt>
      <trkpt lat="49.36632" lon="-1.17695">
        <ele>3.4</ele>
        <time>2022-06-02T15:16:38Z</time>
      </trkpt>
      <trkpt lat="49.36631" lon="-1.17695">
        <ele>3.4</ele>
        <time>2022-06-02T15:16:40Z</time>
      </trkpt>
      <trkpt lat="49.3663" lon="-1.17695">
        <ele>3.4</ele>
        <time>2022-06-02T15:16:41Z</time>
      </trkpt>
      <trkpt lat="49.36629" lon="-1.17696">
        <ele>3.4</ele>
        <time>2022-06-02T15:16:42Z</time>
      </trkpt>
      <trkpt lat="49.36628" lon="-1.17696">
        <ele>3.4</ele>
        <time>2022-06-02T15:16:43Z</time>
      </trkpt>
      <trkpt lat="49.36627" lon="-1.17696">
        <ele>3.4</ele>
        <time>2022-06-02T15:16:44Z</time>
      </trkpt>
      <trkpt lat="49.36626" lon="-1.17697">
        <ele>3.4</ele>
        <time>2022-06-02T15:16:45Z</time>
      </trkpt>
      <trkpt lat="49.36624" lon="-1.17697">
        <ele>3.4</ele>
        <time>2022-06-02T15:16:47Z</time>
      </trkpt>
      <trkpt lat="49.36623" lon="-1.17698">
        <ele>3.4</ele>
        <time>2022-06-02T15:16:48Z</time>
      </trkpt>
      <trkpt lat="49.36621" lon="-1.17698">
        <ele>3.4</ele>
        <time>2022-06-02T15:16:49Z</time>
      </trkpt>
      <trkpt lat="49.3662" lon="-1.17698">
        <ele>3.4</ele>
        <time>2022-06-02T15:16:50Z</time>
      </trkpt>
      <trkpt lat="49.3662" lon="-1.17698">
        <ele>3.4</ele>
        <time>2022-06-02T15:16:51Z</time>
      </trkpt>
      <trkpt lat="49.36619" lon="-1.17698">
        <ele>3.4</ele>
        <time>2022-06-02T15:16:52Z</time>
      </trkpt>
      <trkpt lat="49.36618" lon="-1.17699">
        <ele>3.4</ele>
        <time>2022-06-02T15:16:53Z</time>
      </trkpt>
      <trkpt lat="49.36617" lon="-1.177">
        <ele>3.4</ele>
        <time>2022-06-02T15:16:55Z</time>
      </trkpt>
      <trkpt lat="49.36615" lon="-1.17701">
        <ele>3.4</ele>
        <time>2022-06-02T15:16:56Z</time>
      </trkpt>
      <trkpt lat="49.36615" lon="-1.17701">
        <ele>3.4</ele>
        <time>2022-06-02T15:16:57Z</time>
      </trkpt>
      <trkpt lat="49.36614" lon="-1.17701">
        <ele>3.4</ele>
        <time>2022-06-02T15:16:58Z</time>
      </trkpt>
      <trkpt lat="49.36613" lon="-1.17702">
        <ele>3.4</ele>
        <time>2022-06-02T15:16:59Z</time>
      </trkpt>
      <trkpt lat="49.36612" lon="-1.17703">
        <ele>3.4</ele>
        <time>2022-06-02T15:17:00Z</time>
      </trkpt>
      <trkpt lat="49.36611" lon="-1.17704">
        <ele>3.4</ele>
        <time>2022-06-02T15:17:01Z</time>
      </trkpt>
      <trkpt lat="49.3661" lon="-1.17705">
        <ele>3.4</ele>
        <time>2022-06-02T15:17:03Z</time>
      </trkpt>
      <trkpt lat="49.36609" lon="-1.17706">
        <ele>3.4</ele>
        <time>2022-06-02T15:17:04Z</time>
      </trkpt>
      <trkpt lat="49.36608" lon="-1.17707">
        <ele>3.4</ele>
        <time>2022-06-02T15:17:05Z</time>
      </trkpt>
      <trkpt lat="49.36607" lon="-1.17709">
        <ele>3.4</ele>
        <time>2022-06-02T15:17:06Z</time>
      </trkpt>
      <trkpt lat="49.36606" lon="-1.1771">
        <ele>3.4</ele>
        <time>2022-06-02T15:17:07Z</time>
      </trkpt>
      <trkpt lat="49.36605" lon="-1.1771">
        <ele>3.4</ele>
        <time>2022-06-02T15:17:08Z</time>
      </trkpt>
      <trkpt lat="49.36603" lon="-1.17711">
        <ele>3.4</ele>
        <time>2022-06-02T15:17:09Z</time>
      </trkpt>
      <trkpt lat="49.36602" lon="-1.17712">
        <ele>3.4</ele>
        <time>2022-06-02T15:17:10Z</time>
      </trkpt>
      <trkpt lat="49.36601" lon="-1.17712">
        <ele>3.4</ele>
        <time>2022-06-02T15:17:11Z</time>
      </trkpt>
      <trkpt lat="49.366" lon="-1.17713">
        <ele>3.4</ele>
        <time>2022-06-02T15:17:13Z</time>
      </trkpt>
      <trkpt lat="49.36598" lon="-1.17714">
        <ele>3.4</ele>
        <time>2022-06-02T15:17:14Z</time>
      </trkpt>
      <trkpt lat="49.36597" lon="-1.17715">
        <ele>3.4</ele>
        <time>2022-06-02T15:17:15Z</time>
      </trkpt>
      <trkpt lat="49.36595" lon="-1.17715">
        <ele>3.4</ele>
        <time>2022-06-02T15:17:16Z</time>
      </trkpt>
      <trkpt lat="49.36593" lon="-1.17716">
        <ele>3.4</ele>
        <time>2022-06-02T15:17:17Z</time>
      </trkpt>
      <trkpt lat="49.36592" lon="-1.17717">
        <ele>3.4</ele>
        <time>2022-06-02T15:17:18Z</time>
      </trkpt>
      <trkpt lat="49.36591" lon="-1.17717">
        <ele>3.4</ele>
        <time>2022-06-02T15:17:19Z</time>
      </trkpt>
      <trkpt lat="49.3659" lon="-1.17718">
        <ele>3.4</ele>
        <time>2022-06-02T15:17:20Z</time>
      </trkpt>
      <trkpt lat="49.3659" lon="-1.17718">
        <ele>3.4</ele>
        <time>2022-06-02T15:17:22Z</time>
      </trkpt>
      <trkpt lat="49.36589" lon="-1.17718">
        <ele>3.4</ele>
        <time>2022-06-02T15:17:23Z</time>
      </trkpt>
      <trkpt lat="49.36588" lon="-1.17718">
        <ele>3.4</ele>
        <time>2022-06-02T15:17:24Z</time>
      </trkpt>
      <trkpt lat="49.36586" lon="-1.17719">
        <ele>3.4</ele>
        <time>2022-06-02T15:17:25Z</time>
      </trkpt>
      <trkpt lat="49.36585" lon="-1.17719">
        <ele>3.4</ele>
        <time>2022-06-02T15:17:26Z</time>
      </trkpt>
      <trkpt lat="49.36583" lon="-1.1772">
        <ele>3.4</ele>
        <time>2022-06-02T15:17:27Z</time>
      </trkpt>
      <trkpt lat="49.36582" lon="-1.1772">
        <ele>3.4</ele>
        <time>2022-06-02T15:17:28Z</time>
      </trkpt>
      <trkpt lat="49.36582" lon="-1.17721">
        <ele>3.4</ele>
        <time>2022-06-02T15:17:29Z</time>
      </trkpt>
      <trkpt lat="49.3658" lon="-1.17721">
        <ele>3.4</ele>
        <time>2022-06-02T15:17:30Z</time>
      </trkpt>
      <trkpt lat="49.36579" lon="-1.17722">
        <ele>3.4</ele>
        <time>2022-06-02T15:17:32Z</time>
      </trkpt>
      <trkpt lat="49.36578" lon="-1.17722">
        <ele>3.4</ele>
        <time>2022-06-02T15:17:33Z</time>
      </trkpt>
      <trkpt lat="49.36577" lon="-1.17723">
        <ele>3.4</ele>
        <time>2022-06-02T15:17:34Z</time>
      </trkpt>
      <trkpt lat="49.36575" lon="-1.17724">
        <ele>3.4</ele>
        <time>2022-06-02T15:17:35Z</time>
      </trkpt>
      <trkpt lat="49.36574" lon="-1.17724">
        <ele>3.4</ele>
        <time>2022-06-02T15:17:37Z</time>
      </trkpt>
      <trkpt lat="49.36573" lon="-1.17724">
        <ele>3.4</ele>
        <time>2022-06-02T15:17:38Z</time>
      </trkpt>
      <trkpt lat="49.36572" lon="-1.17725">
        <ele>3.4</ele>
        <time>2022-06-02T15:17:39Z</time>
      </trkpt>
      <trkpt lat="49.36571" lon="-1.17725">
        <ele>3.4</ele>
        <time>2022-06-02T15:17:40Z</time>
      </trkpt>
      <trkpt lat="49.36569" lon="-1.17726">
        <ele>3.4</ele>
        <time>2022-06-02T15:17:41Z</time>
      </trkpt>
      <trkpt lat="49.36568" lon="-1.17727">
        <ele>3.4</ele>
        <time>2022-06-02T15:17:42Z</time>
      </trkpt>
      <trkpt lat="49.36567" lon="-1.17728">
        <ele>3.4</ele>
        <time>2022-06-02T15:17:43Z</time>
      </trkpt>
      <trkpt lat="49.36567" lon="-1.17729">
        <ele>3.4</ele>
        <time>2022-06-02T15:17:44Z</time>
      </trkpt>
      <trkpt lat="49.36566" lon="-1.1773">
        <ele>3.4</ele>
        <time>2022-06-02T15:17:45Z</time>
      </trkpt>
      <trkpt lat="49.36565" lon="-1.1773">
        <ele>3.4</ele>
        <time>2022-06-02T15:17:47Z</time>
      </trkpt>
      <trkpt lat="49.36564" lon="-1.17731">
        <ele>3.4</ele>
        <time>2022-06-02T15:17:48Z</time>
      </trkpt>
      <trkpt lat="49.36563" lon="-1.17732">
        <ele>3.4</ele>
        <time>2022-06-02T15:17:49Z</time>
      </trkpt>
      <trkpt lat="49.36562" lon="-1.17733">
        <ele>3.4</ele>
        <time>2022-06-02T15:17:50Z</time>
      </trkpt>
      <trkpt lat="49.3656" lon="-1.17734">
        <ele>3.4</ele>
        <time>2022-06-02T15:17:52Z</time>
      </trkpt>
      <trkpt lat="49.36559" lon="-1.17735">
        <ele>3.4</ele>
        <time>2022-06-02T15:17:53Z</time>
      </trkpt>
      <trkpt lat="49.36558" lon="-1.17736">
        <ele>3.4</ele>
        <time>2022-06-02T15:17:54Z</time>
      </trkpt>
      <trkpt lat="49.36557" lon="-1.17737">
        <ele>3.4</ele>
        <time>2022-06-02T15:17:55Z</time>
      </trkpt>
      <trkpt lat="49.36555" lon="-1.17739">
        <ele>3.4</ele>
        <time>2022-06-02T15:17:56Z</time>
      </trkpt>
      <trkpt lat="49.36555" lon="-1.1774">
        <ele>3.4</ele>
        <time>2022-06-02T15:17:57Z</time>
      </trkpt>
      <trkpt lat="49.36554" lon="-1.1774">
        <ele>3.4</ele>
        <time>2022-06-02T15:17:58Z</time>
      </trkpt>
      <trkpt lat="49.36553" lon="-1.17742">
        <ele>3.4</ele>
        <time>2022-06-02T15:17:59Z</time>
      </trkpt>
      <trkpt lat="49.36552" lon="-1.17743">
        <ele>3.4</ele>
        <time>2022-06-02T15:18:00Z</time>
      </trkpt>
      <trkpt lat="49.36551" lon="-1.17744">
        <ele>3.4</ele>
        <time>2022-06-02T15:18:01Z</time>
      </trkpt>
      <trkpt lat="49.3655" lon="-1.17747">
        <ele>3.4</ele>
        <time>2022-06-02T15:18:02Z</time>
      </trkpt>
      <trkpt lat="49.36549" lon="-1.17748">
        <ele>3.4</ele>
        <time>2022-06-02T15:18:04Z</time>
      </trkpt>
      <trkpt lat="49.36549" lon="-1.17749">
        <ele>3.4</ele>
        <time>2022-06-02T15:18:05Z</time>
      </trkpt>
      <trkpt lat="49.36547" lon="-1.17751">
        <ele>3.4</ele>
        <time>2022-06-02T15:18:06Z</time>
      </trkpt>
      <trkpt lat="49.36547" lon="-1.17752">
        <ele>3.4</ele>
        <time>2022-06-02T15:18:07Z</time>
      </trkpt>
      <trkpt lat="49.36546" lon="-1.17752">
        <ele>3.4</ele>
        <time>2022-06-02T15:18:08Z</time>
      </trkpt>
      <trkpt lat="49.36546" lon="-1.17753">
        <ele>3.4</ele>
        <time>2022-06-02T15:18:09Z</time>
      </trkpt>
      <trkpt lat="49.36545" lon="-1.17754">
        <ele>3.4</ele>
        <time>2022-06-02T15:18:10Z</time>
      </trkpt>
      <trkpt lat="49.36544" lon="-1.17755">
        <ele>3.4</ele>
        <time>2022-06-02T15:18:11Z</time>
      </trkpt>
      <trkpt lat="49.36542" lon="-1.17757">
        <ele>3.4</ele>
        <time>2022-06-02T15:18:12Z</time>
      </trkpt>
      <trkpt lat="49.36542" lon="-1.17758">
        <ele>3.4</ele>
        <time>2022-06-02T15:18:14Z</time>
      </trkpt>
      <trkpt lat="49.36541" lon="-1.17759">
        <ele>3.4</ele>
        <time>2022-06-02T15:18:15Z</time>
      </trkpt>
      <trkpt lat="49.3654" lon="-1.17761">
        <ele>3.3</ele>
        <time>2022-06-02T15:18:16Z</time>
      </trkpt>
      <trkpt lat="49.36539" lon="-1.17762">
        <ele>3.3</ele>
        <time>2022-06-02T15:18:17Z</time>
      </trkpt>
      <trkpt lat="49.36539" lon="-1.17763">
        <ele>3.3</ele>
        <time>2022-06-02T15:18:18Z</time>
      </trkpt>
      <trkpt lat="49.36537" lon="-1.17765">
        <ele>3.3</ele>
        <time>2022-06-02T15:18:19Z</time>
      </trkpt>
      <trkpt lat="49.36536" lon="-1.17766">
        <ele>3.3</ele>
        <time>2022-06-02T15:18:20Z</time>
      </trkpt>
      <trkpt lat="49.36535" lon="-1.17767">
        <ele>3.3</ele>
        <time>2022-06-02T15:18:21Z</time>
      </trkpt>
      <trkpt lat="49.36534" lon="-1.17769">
        <ele>3.3</ele>
        <time>2022-06-02T15:18:23Z</time>
      </trkpt>
      <trkpt lat="49.36534" lon="-1.17771">
        <ele>3.3</ele>
        <time>2022-06-02T15:18:24Z</time>
      </trkpt>
      <trkpt lat="49.36534" lon="-1.17772">
        <ele>3.3</ele>
        <time>2022-06-02T15:18:25Z</time>
      </trkpt>
      <trkpt lat="49.36533" lon="-1.17775">
        <ele>3.3</ele>
        <time>2022-06-02T15:18:26Z</time>
      </trkpt>
      <trkpt lat="49.36533" lon="-1.17776">
        <ele>3.3</ele>
        <time>2022-06-02T15:18:27Z</time>
      </trkpt>
      <trkpt lat="49.36533" lon="-1.17777">
        <ele>3.3</ele>
        <time>2022-06-02T15:18:28Z</time>
      </trkpt>
      <trkpt lat="49.36532" lon="-1.1778">
        <ele>3.3</ele>
        <time>2022-06-02T15:18:29Z</time>
      </trkpt>
      <trkpt lat="49.36531" lon="-1.17781">
        <ele>3.3</ele>
        <time>2022-06-02T15:18:30Z</time>
      </trkpt>
      <trkpt lat="49.36531" lon="-1.17783">
        <ele>3.3</ele>
        <time>2022-06-02T15:18:31Z</time>
      </trkpt>
      <trkpt lat="49.3653" lon="-1.17785">
        <ele>3.3</ele>
        <time>2022-06-02T15:18:32Z</time>
      </trkpt>
      <trkpt lat="49.3653" lon="-1.17787">
        <ele>3.3</ele>
        <time>2022-06-02T15:18:34Z</time>
      </trkpt>
      <trkpt lat="49.36529" lon="-1.17789">
        <ele>3.3</ele>
        <time>2022-06-02T15:18:35Z</time>
      </trkpt>
      <trkpt lat="49.36528" lon="-1.17791">
        <ele>3.3</ele>
        <time>2022-06-02T15:18:36Z</time>
      </trkpt>
      <trkpt lat="49.36528" lon="-1.17793">
        <ele>3.3</ele>
        <time>2022-06-02T15:18:37Z</time>
      </trkpt>
      <trkpt lat="49.36528" lon="-1.17795">
        <ele>3.2</ele>
        <time>2022-06-02T15:18:38Z</time>
      </trkpt>
      <trkpt lat="49.36528" lon="-1.17798">
        <ele>3.2</ele>
        <time>2022-06-02T15:18:39Z</time>
      </trkpt>
      <trkpt lat="49.36527" lon="-1.17799">
        <ele>3.2</ele>
        <time>2022-06-02T15:18:40Z</time>
      </trkpt>
      <trkpt lat="49.36527" lon="-1.17801">
        <ele>3.2</ele>
        <time>2022-06-02T15:18:41Z</time>
      </trkpt>
      <trkpt lat="49.36526" lon="-1.17802">
        <ele>3.2</ele>
        <time>2022-06-02T15:18:43Z</time>
      </trkpt>
      <trkpt lat="49.36526" lon="-1.17804">
        <ele>3.2</ele>
        <time>2022-06-02T15:18:44Z</time>
      </trkpt>
      <trkpt lat="49.36526" lon="-1.17806">
        <ele>3.2</ele>
        <time>2022-06-02T15:18:45Z</time>
      </trkpt>
      <trkpt lat="49.36525" lon="-1.17807">
        <ele>3.2</ele>
        <time>2022-06-02T15:18:46Z</time>
      </trkpt>
      <trkpt lat="49.36524" lon="-1.17807">
        <ele>3.2</ele>
        <time>2022-06-02T15:18:48Z</time>
      </trkpt>
      <trkpt lat="49.36523" lon="-1.17808">
        <ele>3.2</ele>
        <time>2022-06-02T15:18:49Z</time>
      </trkpt>
      <trkpt lat="49.36523" lon="-1.17809">
        <ele>3.2</ele>
        <time>2022-06-02T15:18:50Z</time>
      </trkpt>
      <trkpt lat="49.36523" lon="-1.17811">
        <ele>3.2</ele>
        <time>2022-06-02T15:18:51Z</time>
      </trkpt>
      <trkpt lat="49.36523" lon="-1.17813">
        <ele>3.2</ele>
        <time>2022-06-02T15:18:53Z</time>
      </trkpt>
      <trkpt lat="49.36523" lon="-1.17813">
        <ele>3.2</ele>
        <time>2022-06-02T15:18:54Z</time>
      </trkpt>
      <trkpt lat="49.36524" lon="-1.17814">
        <ele>3.2</ele>
        <time>2022-06-02T15:18:55Z</time>
      </trkpt>
      <trkpt lat="49.36524" lon="-1.17813">
        <ele>3.2</ele>
        <time>2022-06-02T15:18:56Z</time>
      </trkpt>
      <trkpt lat="49.36524" lon="-1.17813">
        <ele>3.2</ele>
        <time>2022-06-02T15:18:57Z</time>
      </trkpt>
      <trkpt lat="49.36524" lon="-1.17812">
        <ele>3.2</ele>
        <time>2022-06-02T15:18:58Z</time>
      </trkpt>
      <trkpt lat="49.36524" lon="-1.17811">
        <ele>3.2</ele>
        <time>2022-06-02T15:18:59Z</time>
      </trkpt>
      <trkpt lat="49.36524" lon="-1.17811">
        <ele>3.2</ele>
        <time>2022-06-02T15:19:00Z</time>
      </trkpt>
      <trkpt lat="49.36525" lon="-1.1781">
        <ele>3.2</ele>
        <time>2022-06-02T15:19:02Z</time>
      </trkpt>
      <trkpt lat="49.36525" lon="-1.17811">
        <ele>3.1</ele>
        <time>2022-06-02T15:19:03Z</time>
      </trkpt>
      <trkpt lat="49.36526" lon="-1.17812">
        <ele>3.1</ele>
        <time>2022-06-02T15:19:04Z</time>
      </trkpt>
      <trkpt lat="49.36526" lon="-1.17814">
        <ele>3.1</ele>
        <time>2022-06-02T15:19:05Z</time>
      </trkpt>
      <trkpt lat="49.36526" lon="-1.17815">
        <ele>3.1</ele>
        <time>2022-06-02T15:19:06Z</time>
      </trkpt>
      <trkpt lat="49.36526" lon="-1.17816">
        <ele>3.1</ele>
        <time>2022-06-02T15:19:07Z</time>
      </trkpt>
      <trkpt lat="49.36526" lon="-1.17817">
        <ele>3.1</ele>
        <time>2022-06-02T15:19:08Z</time>
      </trkpt>
      <trkpt lat="49.36526" lon="-1.17819">
        <ele>3.1</ele>
        <time>2022-06-02T15:19:09Z</time>
      </trkpt>
      <trkpt lat="49.36526" lon="-1.17821">
        <ele>3.1</ele>
        <time>2022-06-02T15:19:11Z</time>
      </trkpt>
      <trkpt lat="49.36525" lon="-1.17822">
        <ele>3.1</ele>
        <time>2022-06-02T15:19:12Z</time>
      </trkpt>
      <trkpt lat="49.36525" lon="-1.17824">
        <ele>3.1</ele>
        <time>2022-06-02T15:19:13Z</time>
      </trkpt>
      <trkpt lat="49.36525" lon="-1.17825">
        <ele>3.1</ele>
        <time>2022-06-02T15:19:14Z</time>
      </trkpt>
      <trkpt lat="49.36525" lon="-1.17827">
        <ele>3.1</ele>
        <time>2022-06-02T15:19:15Z</time>
      </trkpt>
      <trkpt lat="49.36525" lon="-1.17828">
        <ele>3.1</ele>
        <time>2022-06-02T15:19:16Z</time>
      </trkpt>
      <trkpt lat="49.36525" lon="-1.1783">
        <ele>3.1</ele>
        <time>2022-06-02T15:19:17Z</time>
      </trkpt>
      <trkpt lat="49.36524" lon="-1.17831">
        <ele>3.1</ele>
        <time>2022-06-02T15:19:18Z</time>
      </trkpt>
      <trkpt lat="49.36524" lon="-1.17834">
        <ele>3.1</ele>
        <time>2022-06-02T15:19:19Z</time>
      </trkpt>
      <trkpt lat="49.36524" lon="-1.17835">
        <ele>3.1</ele>
        <time>2022-06-02T15:19:21Z</time>
      </trkpt>
      <trkpt lat="49.36524" lon="-1.17836">
        <ele>3.1</ele>
        <time>2022-06-02T15:19:22Z</time>
      </trkpt>
      <trkpt lat="49.36524" lon="-1.17837">
        <ele>3.1</ele>
        <time>2022-06-02T15:19:23Z</time>
      </trkpt>
      <trkpt lat="49.36523" lon="-1.17839">
        <ele>3.1</ele>
        <time>2022-06-02T15:19:24Z</time>
      </trkpt>
      <trkpt lat="49.36523" lon="-1.1784">
        <ele>3.1</ele>
        <time>2022-06-02T15:19:25Z</time>
      </trkpt>
      <trkpt lat="49.36523" lon="-1.17841">
        <ele>3.1</ele>
        <time>2022-06-02T15:19:26Z</time>
      </trkpt>
      <trkpt lat="49.36522" lon="-1.17845">
        <ele>3</ele>
        <time>2022-06-02T15:19:27Z</time>
      </trkpt>
      <trkpt lat="49.36522" lon="-1.17846">
        <ele>3</ele>
        <time>2022-06-02T15:19:28Z</time>
      </trkpt>
      <trkpt lat="49.36522" lon="-1.17848">
        <ele>3</ele>
        <time>2022-06-02T15:19:29Z</time>
      </trkpt>
      <trkpt lat="49.36522" lon="-1.1785">
        <ele>3</ele>
        <time>2022-06-02T15:19:31Z</time>
      </trkpt>
      <trkpt lat="49.36521" lon="-1.17852">
        <ele>3</ele>
        <time>2022-06-02T15:19:32Z</time>
      </trkpt>
      <trkpt lat="49.36521" lon="-1.17854">
        <ele>3</ele>
        <time>2022-06-02T15:19:33Z</time>
      </trkpt>
      <trkpt lat="49.3652" lon="-1.17856">
        <ele>3</ele>
        <time>2022-06-02T15:19:34Z</time>
      </trkpt>
      <trkpt lat="49.36519" lon="-1.17858">
        <ele>3</ele>
        <time>2022-06-02T15:19:35Z</time>
      </trkpt>
      <trkpt lat="49.36518" lon="-1.1786">
        <ele>3</ele>
        <time>2022-06-02T15:19:36Z</time>
      </trkpt>
      <trkpt lat="49.36518" lon="-1.17861">
        <ele>3</ele>
        <time>2022-06-02T15:19:38Z</time>
      </trkpt>
      <trkpt lat="49.36517" lon="-1.17863">
        <ele>3</ele>
        <time>2022-06-02T15:19:39Z</time>
      </trkpt>
      <trkpt lat="49.36517" lon="-1.17866">
        <ele>3</ele>
        <time>2022-06-02T15:19:41Z</time>
      </trkpt>
      <trkpt lat="49.36517" lon="-1.17869">
        <ele>3</ele>
        <time>2022-06-02T15:19:42Z</time>
      </trkpt>
      <trkpt lat="49.36518" lon="-1.17871">
        <ele>3</ele>
        <time>2022-06-02T15:19:43Z</time>
      </trkpt>
      <trkpt lat="49.36518" lon="-1.17872">
        <ele>3</ele>
        <time>2022-06-02T15:19:44Z</time>
      </trkpt>
      <trkpt lat="49.36519" lon="-1.17875">
        <ele>3</ele>
        <time>2022-06-02T15:19:46Z</time>
      </trkpt>
      <trkpt lat="49.3652" lon="-1.17876">
        <ele>3</ele>
        <time>2022-06-02T15:19:47Z</time>
      </trkpt>
      <trkpt lat="49.3652" lon="-1.17878">
        <ele>3</ele>
        <time>2022-06-02T15:19:48Z</time>
      </trkpt>
      <trkpt lat="49.3652" lon="-1.1788">
        <ele>3</ele>
        <time>2022-06-02T15:19:49Z</time>
      </trkpt>
      <trkpt lat="49.36521" lon="-1.17881">
        <ele>3</ele>
        <time>2022-06-02T15:19:50Z</time>
      </trkpt>
      <trkpt lat="49.36521" lon="-1.17884">
        <ele>3</ele>
        <time>2022-06-02T15:19:51Z</time>
      </trkpt>
      <trkpt lat="49.36521" lon="-1.17885">
        <ele>3</ele>
        <time>2022-06-02T15:19:52Z</time>
      </trkpt>
      <trkpt lat="49.36521" lon="-1.17887">
        <ele>3</ele>
        <time>2022-06-02T15:19:53Z</time>
      </trkpt>
      <trkpt lat="49.36521" lon="-1.17889">
        <ele>3</ele>
        <time>2022-06-02T15:19:54Z</time>
      </trkpt>
      <trkpt lat="49.36521" lon="-1.17891">
        <ele>3</ele>
        <time>2022-06-02T15:19:55Z</time>
      </trkpt>
      <trkpt lat="49.36521" lon="-1.17892">
        <ele>3</ele>
        <time>2022-06-02T15:19:57Z</time>
      </trkpt>
      <trkpt lat="49.36521" lon="-1.17894">
        <ele>3</ele>
        <time>2022-06-02T15:19:58Z</time>
      </trkpt>
      <trkpt lat="49.36521" lon="-1.17897">
        <ele>3</ele>
        <time>2022-06-02T15:19:59Z</time>
      </trkpt>
      <trkpt lat="49.3652" lon="-1.17898">
        <ele>3</ele>
        <time>2022-06-02T15:20:00Z</time>
      </trkpt>
      <trkpt lat="49.3652" lon="-1.179">
        <ele>3</ele>
        <time>2022-06-02T15:20:01Z</time>
      </trkpt>
      <trkpt lat="49.3652" lon="-1.17903">
        <ele>3</ele>
        <time>2022-06-02T15:20:02Z</time>
      </trkpt>
      <trkpt lat="49.3652" lon="-1.17904">
        <ele>3</ele>
        <time>2022-06-02T15:20:03Z</time>
      </trkpt>
      <trkpt lat="49.3652" lon="-1.17906">
        <ele>3</ele>
        <time>2022-06-02T15:20:04Z</time>
      </trkpt>
      <trkpt lat="49.3652" lon="-1.17908">
        <ele>3</ele>
        <time>2022-06-02T15:20:05Z</time>
      </trkpt>
      <trkpt lat="49.3652" lon="-1.1791">
        <ele>3</ele>
        <time>2022-06-02T15:20:06Z</time>
      </trkpt>
      <trkpt lat="49.36519" lon="-1.17912">
        <ele>3</ele>
        <time>2022-06-02T15:20:08Z</time>
      </trkpt>
      <trkpt lat="49.36519" lon="-1.17913">
        <ele>3</ele>
        <time>2022-06-02T15:20:09Z</time>
      </trkpt>
      <trkpt lat="49.36519" lon="-1.17915">
        <ele>3</ele>
        <time>2022-06-02T15:20:10Z</time>
      </trkpt>
      <trkpt lat="49.36519" lon="-1.17918">
        <ele>2.9</ele>
        <time>2022-06-02T15:20:11Z</time>
      </trkpt>
      <trkpt lat="49.36519" lon="-1.17919">
        <ele>2.9</ele>
        <time>2022-06-02T15:20:12Z</time>
      </trkpt>
      <trkpt lat="49.36519" lon="-1.17921">
        <ele>2.9</ele>
        <time>2022-06-02T15:20:13Z</time>
      </trkpt>
      <trkpt lat="49.36519" lon="-1.17922">
        <ele>2.9</ele>
        <time>2022-06-02T15:20:14Z</time>
      </trkpt>
      <trkpt lat="49.36518" lon="-1.17924">
        <ele>2.9</ele>
        <time>2022-06-02T15:20:15Z</time>
      </trkpt>
      <trkpt lat="49.36518" lon="-1.17926">
        <ele>2.9</ele>
        <time>2022-06-02T15:20:16Z</time>
      </trkpt>
      <trkpt lat="49.36518" lon="-1.17928">
        <ele>2.9</ele>
        <time>2022-06-02T15:20:17Z</time>
      </trkpt>
      <trkpt lat="49.36518" lon="-1.1793">
        <ele>2.9</ele>
        <time>2022-06-02T15:20:19Z</time>
      </trkpt>
      <trkpt lat="49.36518" lon="-1.17931">
        <ele>2.9</ele>
        <time>2022-06-02T15:20:20Z</time>
      </trkpt>
      <trkpt lat="49.36518" lon="-1.17934">
        <ele>2.9</ele>
        <time>2022-06-02T15:20:21Z</time>
      </trkpt>
      <trkpt lat="49.36518" lon="-1.17937">
        <ele>2.9</ele>
        <time>2022-06-02T15:20:22Z</time>
      </trkpt>
      <trkpt lat="49.36518" lon="-1.17938">
        <ele>2.9</ele>
        <time>2022-06-02T15:20:23Z</time>
      </trkpt>
      <trkpt lat="49.36518" lon="-1.1794">
        <ele>2.9</ele>
        <time>2022-06-02T15:20:24Z</time>
      </trkpt>
      <trkpt lat="49.36518" lon="-1.17943">
        <ele>2.9</ele>
        <time>2022-06-02T15:20:25Z</time>
      </trkpt>
      <trkpt lat="49.36517" lon="-1.17944">
        <ele>2.9</ele>
        <time>2022-06-02T15:20:26Z</time>
      </trkpt>
      <trkpt lat="49.36517" lon="-1.17945">
        <ele>2.9</ele>
        <time>2022-06-02T15:20:27Z</time>
      </trkpt>
      <trkpt lat="49.36517" lon="-1.17947">
        <ele>2.9</ele>
        <time>2022-06-02T15:20:28Z</time>
      </trkpt>
      <trkpt lat="49.36517" lon="-1.17949">
        <ele>2.9</ele>
        <time>2022-06-02T15:20:29Z</time>
      </trkpt>
      <trkpt lat="49.36517" lon="-1.17951">
        <ele>2.9</ele>
        <time>2022-06-02T15:20:31Z</time>
      </trkpt>
      <trkpt lat="49.36517" lon="-1.17953">
        <ele>2.9</ele>
        <time>2022-06-02T15:20:32Z</time>
      </trkpt>
      <trkpt lat="49.36517" lon="-1.17954">
        <ele>2.9</ele>
        <time>2022-06-02T15:20:33Z</time>
      </trkpt>
      <trkpt lat="49.36517" lon="-1.17956">
        <ele>2.9</ele>
        <time>2022-06-02T15:20:34Z</time>
      </trkpt>
      <trkpt lat="49.36518" lon="-1.17957">
        <ele>2.9</ele>
        <time>2022-06-02T15:20:35Z</time>
      </trkpt>
      <trkpt lat="49.36518" lon="-1.17959">
        <ele>2.9</ele>
        <time>2022-06-02T15:20:36Z</time>
      </trkpt>
      <trkpt lat="49.36518" lon="-1.17961">
        <ele>2.9</ele>
        <time>2022-06-02T15:20:37Z</time>
      </trkpt>
      <trkpt lat="49.36518" lon="-1.17963">
        <ele>2.9</ele>
        <time>2022-06-02T15:20:38Z</time>
      </trkpt>
      <trkpt lat="49.36518" lon="-1.17965">
        <ele>2.8</ele>
        <time>2022-06-02T15:20:39Z</time>
      </trkpt>
      <trkpt lat="49.36517" lon="-1.17966">
        <ele>2.8</ele>
        <time>2022-06-02T15:20:40Z</time>
      </trkpt>
      <trkpt lat="49.36517" lon="-1.17968">
        <ele>2.8</ele>
        <time>2022-06-02T15:20:41Z</time>
      </trkpt>
      <trkpt lat="49.36517" lon="-1.1797">
        <ele>2.8</ele>
        <time>2022-06-02T15:20:42Z</time>
      </trkpt>
      <trkpt lat="49.36517" lon="-1.17973">
        <ele>2.8</ele>
        <time>2022-06-02T15:20:44Z</time>
      </trkpt>
      <trkpt lat="49.36517" lon="-1.17974">
        <ele>2.8</ele>
        <time>2022-06-02T15:20:45Z</time>
      </trkpt>
      <trkpt lat="49.36516" lon="-1.17976">
        <ele>2.8</ele>
        <time>2022-06-02T15:20:46Z</time>
      </trkpt>
      <trkpt lat="49.36516" lon="-1.17978">
        <ele>2.8</ele>
        <time>2022-06-02T15:20:47Z</time>
      </trkpt>
      <trkpt lat="49.36516" lon="-1.17982">
        <ele>2.8</ele>
        <time>2022-06-02T15:20:48Z</time>
      </trkpt>
      <trkpt lat="49.36516" lon="-1.17983">
        <ele>2.8</ele>
        <time>2022-06-02T15:20:49Z</time>
      </trkpt>
      <trkpt lat="49.36516" lon="-1.17984">
        <ele>2.8</ele>
        <time>2022-06-02T15:20:50Z</time>
      </trkpt>
      <trkpt lat="49.36515" lon="-1.17987">
        <ele>2.8</ele>
        <time>2022-06-02T15:20:51Z</time>
      </trkpt>
      <trkpt lat="49.36515" lon="-1.17988">
        <ele>2.8</ele>
        <time>2022-06-02T15:20:52Z</time>
      </trkpt>
      <trkpt lat="49.36515" lon="-1.1799">
        <ele>2.8</ele>
        <time>2022-06-02T15:20:53Z</time>
      </trkpt>
      <trkpt lat="49.36515" lon="-1.17992">
        <ele>2.8</ele>
        <time>2022-06-02T15:20:54Z</time>
      </trkpt>
      <trkpt lat="49.36515" lon="-1.17993">
        <ele>2.8</ele>
        <time>2022-06-02T15:20:56Z</time>
      </trkpt>
      <trkpt lat="49.36514" lon="-1.17995">
        <ele>2.8</ele>
        <time>2022-06-02T15:20:57Z</time>
      </trkpt>
      <trkpt lat="49.36514" lon="-1.17997">
        <ele>2.8</ele>
        <time>2022-06-02T15:20:58Z</time>
      </trkpt>
      <trkpt lat="49.36514" lon="-1.17998">
        <ele>2.8</ele>
        <time>2022-06-02T15:20:59Z</time>
      </trkpt>
      <trkpt lat="49.36514" lon="-1.17999">
        <ele>2.8</ele>
        <time>2022-06-02T15:21:01Z</time>
      </trkpt>
      <trkpt lat="49.36515" lon="-1.17999">
        <ele>2.8</ele>
        <time>2022-06-02T15:21:02Z</time>
      </trkpt>
      <trkpt lat="49.36515" lon="-1.17999">
        <ele>2.8</ele>
        <time>2022-06-02T15:21:03Z</time>
      </trkpt>
      <trkpt lat="49.36516" lon="-1.17999">
        <ele>2.8</ele>
        <time>2022-06-02T15:21:04Z</time>
      </trkpt>
      <trkpt lat="49.36516" lon="-1.17999">
        <ele>2.8</ele>
        <time>2022-06-02T15:21:05Z</time>
      </trkpt>
      <trkpt lat="49.36516" lon="-1.18">
        <ele>2.8</ele>
        <time>2022-06-02T15:21:06Z</time>
      </trkpt>
      <trkpt lat="49.36516" lon="-1.18001">
        <ele>2.8</ele>
        <time>2022-06-02T15:21:07Z</time>
      </trkpt>
      <trkpt lat="49.36516" lon="-1.18002">
        <ele>2.8</ele>
        <time>2022-06-02T15:21:08Z</time>
      </trkpt>
      <trkpt lat="49.36515" lon="-1.18003">
        <ele>2.8</ele>
        <time>2022-06-02T15:21:09Z</time>
      </trkpt>
      <trkpt lat="49.36515" lon="-1.18006">
        <ele>2.8</ele>
        <time>2022-06-02T15:21:10Z</time>
      </trkpt>
      <trkpt lat="49.36515" lon="-1.18008">
        <ele>2.8</ele>
        <time>2022-06-02T15:21:11Z</time>
      </trkpt>
      <trkpt lat="49.36514" lon="-1.18011">
        <ele>2.8</ele>
        <time>2022-06-02T15:21:13Z</time>
      </trkpt>
      <trkpt lat="49.36514" lon="-1.18013">
        <ele>2.8</ele>
        <time>2022-06-02T15:21:14Z</time>
      </trkpt>
      <trkpt lat="49.36514" lon="-1.18014">
        <ele>2.8</ele>
        <time>2022-06-02T15:21:15Z</time>
      </trkpt>
      <trkpt lat="49.36513" lon="-1.18017">
        <ele>2.8</ele>
        <time>2022-06-02T15:21:16Z</time>
      </trkpt>
      <trkpt lat="49.36513" lon="-1.18019">
        <ele>2.8</ele>
        <time>2022-06-02T15:21:17Z</time>
      </trkpt>
      <trkpt lat="49.36512" lon="-1.1802">
        <ele>2.8</ele>
        <time>2022-06-02T15:21:18Z</time>
      </trkpt>
      <trkpt lat="49.36512" lon="-1.18023">
        <ele>2.8</ele>
        <time>2022-06-02T15:21:19Z</time>
      </trkpt>
      <trkpt lat="49.36511" lon="-1.18025">
        <ele>2.8</ele>
        <time>2022-06-02T15:21:20Z</time>
      </trkpt>
      <trkpt lat="49.3651" lon="-1.18027">
        <ele>2.8</ele>
        <time>2022-06-02T15:21:21Z</time>
      </trkpt>
      <trkpt lat="49.3651" lon="-1.18028">
        <ele>2.8</ele>
        <time>2022-06-02T15:21:22Z</time>
      </trkpt>
      <trkpt lat="49.36509" lon="-1.1803">
        <ele>2.8</ele>
        <time>2022-06-02T15:21:23Z</time>
      </trkpt>
      <trkpt lat="49.36508" lon="-1.18033">
        <ele>2.8</ele>
        <time>2022-06-02T15:21:24Z</time>
      </trkpt>
      <trkpt lat="49.36508" lon="-1.18034">
        <ele>2.8</ele>
        <time>2022-06-02T15:21:25Z</time>
      </trkpt>
      <trkpt lat="49.36507" lon="-1.18036">
        <ele>2.8</ele>
        <time>2022-06-02T15:21:26Z</time>
      </trkpt>
      <trkpt lat="49.36507" lon="-1.18037">
        <ele>2.8</ele>
        <time>2022-06-02T15:21:28Z</time>
      </trkpt>
      <trkpt lat="49.36506" lon="-1.18039">
        <ele>2.8</ele>
        <time>2022-06-02T15:21:29Z</time>
      </trkpt>
      <trkpt lat="49.36506" lon="-1.18041">
        <ele>2.8</ele>
        <time>2022-06-02T15:21:30Z</time>
      </trkpt>
      <trkpt lat="49.36505" lon="-1.18044">
        <ele>2.8</ele>
        <time>2022-06-02T15:21:31Z</time>
      </trkpt>
      <trkpt lat="49.36505" lon="-1.18045">
        <ele>2.8</ele>
        <time>2022-06-02T15:21:32Z</time>
      </trkpt>
      <trkpt lat="49.36504" lon="-1.18047">
        <ele>2.8</ele>
        <time>2022-06-02T15:21:33Z</time>
      </trkpt>
      <trkpt lat="49.36503" lon="-1.18048">
        <ele>2.8</ele>
        <time>2022-06-02T15:21:35Z</time>
      </trkpt>
      <trkpt lat="49.36503" lon="-1.18049">
        <ele>2.8</ele>
        <time>2022-06-02T15:21:36Z</time>
      </trkpt>
      <trkpt lat="49.36502" lon="-1.18052">
        <ele>2.8</ele>
        <time>2022-06-02T15:21:37Z</time>
      </trkpt>
      <trkpt lat="49.36502" lon="-1.18053">
        <ele>2.7</ele>
        <time>2022-06-02T15:21:38Z</time>
      </trkpt>
      <trkpt lat="49.36501" lon="-1.18054">
        <ele>2.7</ele>
        <time>2022-06-02T15:21:39Z</time>
      </trkpt>
      <trkpt lat="49.36501" lon="-1.18056">
        <ele>2.7</ele>
        <time>2022-06-02T15:21:40Z</time>
      </trkpt>
      <trkpt lat="49.365" lon="-1.18058">
        <ele>2.7</ele>
        <time>2022-06-02T15:21:41Z</time>
      </trkpt>
      <trkpt lat="49.36499" lon="-1.1806">
        <ele>2.7</ele>
        <time>2022-06-02T15:21:42Z</time>
      </trkpt>
      <trkpt lat="49.36499" lon="-1.18061">
        <ele>2.7</ele>
        <time>2022-06-02T15:21:43Z</time>
      </trkpt>
      <trkpt lat="49.36498" lon="-1.18063">
        <ele>2.7</ele>
        <time>2022-06-02T15:21:45Z</time>
      </trkpt>
      <trkpt lat="49.36497" lon="-1.18065">
        <ele>2.7</ele>
        <time>2022-06-02T15:21:46Z</time>
      </trkpt>
      <trkpt lat="49.36497" lon="-1.18067">
        <ele>2.7</ele>
        <time>2022-06-02T15:21:47Z</time>
      </trkpt>
      <trkpt lat="49.36496" lon="-1.18069">
        <ele>2.7</ele>
        <time>2022-06-02T15:21:48Z</time>
      </trkpt>
      <trkpt lat="49.36495" lon="-1.1807">
        <ele>2.7</ele>
        <time>2022-06-02T15:21:49Z</time>
      </trkpt>
      <trkpt lat="49.36495" lon="-1.18071">
        <ele>2.7</ele>
        <time>2022-06-02T15:21:50Z</time>
      </trkpt>
      <trkpt lat="49.36495" lon="-1.18072">
        <ele>2.7</ele>
        <time>2022-06-02T15:21:51Z</time>
      </trkpt>
      <trkpt lat="49.36493" lon="-1.18075">
        <ele>2.7</ele>
        <time>2022-06-02T15:21:52Z</time>
      </trkpt>
      <trkpt lat="49.36493" lon="-1.18076">
        <ele>2.7</ele>
        <time>2022-06-02T15:21:53Z</time>
      </trkpt>
      <trkpt lat="49.36492" lon="-1.18077">
        <ele>2.7</ele>
        <time>2022-06-02T15:21:54Z</time>
      </trkpt>
      <trkpt lat="49.36491" lon="-1.18078">
        <ele>2.6</ele>
        <time>2022-06-02T15:21:55Z</time>
      </trkpt>
      <trkpt lat="49.36491" lon="-1.1808">
        <ele>2.6</ele>
        <time>2022-06-02T15:21:57Z</time>
      </trkpt>
      <trkpt lat="49.36491" lon="-1.18082">
        <ele>2.6</ele>
        <time>2022-06-02T15:21:58Z</time>
      </trkpt>
      <trkpt lat="49.3649" lon="-1.18083">
        <ele>2.6</ele>
        <time>2022-06-02T15:21:59Z</time>
      </trkpt>
      <trkpt lat="49.36489" lon="-1.18085">
        <ele>2.6</ele>
        <time>2022-06-02T15:22:00Z</time>
      </trkpt>
      <trkpt lat="49.36488" lon="-1.18088">
        <ele>2.6</ele>
        <time>2022-06-02T15:22:01Z</time>
      </trkpt>
      <trkpt lat="49.36488" lon="-1.18089">
        <ele>2.6</ele>
        <time>2022-06-02T15:22:02Z</time>
      </trkpt>
      <trkpt lat="49.36487" lon="-1.1809">
        <ele>2.6</ele>
        <time>2022-06-02T15:22:03Z</time>
      </trkpt>
      <trkpt lat="49.36487" lon="-1.18091">
        <ele>2.6</ele>
        <time>2022-06-02T15:22:04Z</time>
      </trkpt>
      <trkpt lat="49.36486" lon="-1.18093">
        <ele>2.6</ele>
        <time>2022-06-02T15:22:05Z</time>
      </trkpt>
      <trkpt lat="49.36485" lon="-1.18094">
        <ele>2.6</ele>
        <time>2022-06-02T15:22:06Z</time>
      </trkpt>
      <trkpt lat="49.36485" lon="-1.18096">
        <ele>2.6</ele>
        <time>2022-06-02T15:22:08Z</time>
      </trkpt>
      <trkpt lat="49.36484" lon="-1.18099">
        <ele>2.6</ele>
        <time>2022-06-02T15:22:10Z</time>
      </trkpt>
      <trkpt lat="49.36484" lon="-1.18101">
        <ele>2.6</ele>
        <time>2022-06-02T15:22:11Z</time>
      </trkpt>
      <trkpt lat="49.36484" lon="-1.18102">
        <ele>2.6</ele>
        <time>2022-06-02T15:22:12Z</time>
      </trkpt>
      <trkpt lat="49.36484" lon="-1.18103">
        <ele>2.5</ele>
        <time>2022-06-02T15:22:13Z</time>
      </trkpt>
      <trkpt lat="49.36485" lon="-1.18104">
        <ele>2.5</ele>
        <time>2022-06-02T15:22:14Z</time>
      </trkpt>
      <trkpt lat="49.36485" lon="-1.18104">
        <ele>2.5</ele>
        <time>2022-06-02T15:22:15Z</time>
      </trkpt>
      <trkpt lat="49.36485" lon="-1.18104">
        <ele>2.5</ele>
        <time>2022-06-02T15:22:16Z</time>
      </trkpt>
      <trkpt lat="49.36485" lon="-1.18104">
        <ele>2.5</ele>
        <time>2022-06-02T15:22:17Z</time>
      </trkpt>
      <trkpt lat="49.36485" lon="-1.18104">
        <ele>2.5</ele>
        <time>2022-06-02T15:22:18Z</time>
      </trkpt>
      <trkpt lat="49.36485" lon="-1.18104">
        <ele>2.5</ele>
        <time>2022-06-02T15:22:19Z</time>
      </trkpt>
      <trkpt lat="49.36485" lon="-1.18104">
        <ele>2.5</ele>
        <time>2022-06-02T15:22:20Z</time>
      </trkpt>
      <trkpt lat="49.36485" lon="-1.18104">
        <ele>2.5</ele>
        <time>2022-06-02T15:22:21Z</time>
      </trkpt>
      <trkpt lat="49.36485" lon="-1.18105">
        <ele>2.5</ele>
        <time>2022-06-02T15:22:22Z</time>
      </trkpt>
      <trkpt lat="49.36485" lon="-1.18107">
        <ele>2.5</ele>
        <time>2022-06-02T15:22:24Z</time>
      </trkpt>
      <trkpt lat="49.36485" lon="-1.18107">
        <ele>2.5</ele>
        <time>2022-06-02T15:22:25Z</time>
      </trkpt>
      <trkpt lat="49.36486" lon="-1.18107">
        <ele>2.5</ele>
        <time>2022-06-02T15:22:26Z</time>
      </trkpt>
      <trkpt lat="49.36486" lon="-1.18107">
        <ele>2.5</ele>
        <time>2022-06-02T15:22:28Z</time>
      </trkpt>
      <trkpt lat="49.36486" lon="-1.18107">
        <ele>2.5</ele>
        <time>2022-06-02T15:22:29Z</time>
      </trkpt>
      <trkpt lat="49.36486" lon="-1.18107">
        <ele>2.5</ele>
        <time>2022-06-02T15:22:30Z</time>
      </trkpt>
      <trkpt lat="49.36487" lon="-1.18108">
        <ele>2.5</ele>
        <time>2022-06-02T15:22:31Z</time>
      </trkpt>
      <trkpt lat="49.36488" lon="-1.18108">
        <ele>2.5</ele>
        <time>2022-06-02T15:22:32Z</time>
      </trkpt>
      <trkpt lat="49.36488" lon="-1.18109">
        <ele>2.5</ele>
        <time>2022-06-02T15:22:33Z</time>
      </trkpt>
      <trkpt lat="49.36489" lon="-1.18109">
        <ele>2.5</ele>
        <time>2022-06-02T15:22:34Z</time>
      </trkpt>
      <trkpt lat="49.36489" lon="-1.1811">
        <ele>2.5</ele>
        <time>2022-06-02T15:22:35Z</time>
      </trkpt>
      <trkpt lat="49.36489" lon="-1.18111">
        <ele>2.5</ele>
        <time>2022-06-02T15:22:37Z</time>
      </trkpt>
      <trkpt lat="49.36488" lon="-1.18111">
        <ele>2.5</ele>
        <time>2022-06-02T15:22:38Z</time>
      </trkpt>
      <trkpt lat="49.36488" lon="-1.1811">
        <ele>2.5</ele>
        <time>2022-06-02T15:22:39Z</time>
      </trkpt>
      <trkpt lat="49.36487" lon="-1.1811">
        <ele>2.5</ele>
        <time>2022-06-02T15:22:40Z</time>
      </trkpt>
      <trkpt lat="49.36485" lon="-1.1811">
        <ele>2.5</ele>
        <time>2022-06-02T15:22:41Z</time>
      </trkpt>
      <trkpt lat="49.36484" lon="-1.1811">
        <ele>2.5</ele>
        <time>2022-06-02T15:22:42Z</time>
      </trkpt>
      <trkpt lat="49.36482" lon="-1.18111">
        <ele>2.5</ele>
        <time>2022-06-02T15:22:44Z</time>
      </trkpt>
      <trkpt lat="49.36481" lon="-1.18111">
        <ele>2.5</ele>
        <time>2022-06-02T15:22:45Z</time>
      </trkpt>
      <trkpt lat="49.3648" lon="-1.18111">
        <ele>2.4</ele>
        <time>2022-06-02T15:22:46Z</time>
      </trkpt>
      <trkpt lat="49.36478" lon="-1.18112">
        <ele>2.4</ele>
        <time>2022-06-02T15:22:47Z</time>
      </trkpt>
      <trkpt lat="49.36476" lon="-1.18113">
        <ele>2.4</ele>
        <time>2022-06-02T15:22:48Z</time>
      </trkpt>
      <trkpt lat="49.36475" lon="-1.18114">
        <ele>2.4</ele>
        <time>2022-06-02T15:22:49Z</time>
      </trkpt>
      <trkpt lat="49.36474" lon="-1.18116">
        <ele>2.4</ele>
        <time>2022-06-02T15:22:50Z</time>
      </trkpt>
      <trkpt lat="49.36473" lon="-1.18117">
        <ele>2.4</ele>
        <time>2022-06-02T15:22:51Z</time>
      </trkpt>
      <trkpt lat="49.36472" lon="-1.18118">
        <ele>2.4</ele>
        <time>2022-06-02T15:22:53Z</time>
      </trkpt>
      <trkpt lat="49.36471" lon="-1.18121">
        <ele>2.4</ele>
        <time>2022-06-02T15:22:54Z</time>
      </trkpt>
      <trkpt lat="49.3647" lon="-1.18123">
        <ele>2.4</ele>
        <time>2022-06-02T15:22:55Z</time>
      </trkpt>
      <trkpt lat="49.36469" lon="-1.18124">
        <ele>2.4</ele>
        <time>2022-06-02T15:22:56Z</time>
      </trkpt>
      <trkpt lat="49.36469" lon="-1.18125">
        <ele>2.4</ele>
        <time>2022-06-02T15:22:57Z</time>
      </trkpt>
      <trkpt lat="49.36468" lon="-1.18127">
        <ele>2.4</ele>
        <time>2022-06-02T15:22:58Z</time>
      </trkpt>
      <trkpt lat="49.36467" lon="-1.1813">
        <ele>2.3</ele>
        <time>2022-06-02T15:22:59Z</time>
      </trkpt>
      <trkpt lat="49.36466" lon="-1.18132">
        <ele>2.3</ele>
        <time>2022-06-02T15:23:00Z</time>
      </trkpt>
      <trkpt lat="49.36465" lon="-1.18133">
        <ele>2.3</ele>
        <time>2022-06-02T15:23:01Z</time>
      </trkpt>
      <trkpt lat="49.36465" lon="-1.18135">
        <ele>2.3</ele>
        <time>2022-06-02T15:23:02Z</time>
      </trkpt>
      <trkpt lat="49.36463" lon="-1.18137">
        <ele>2.3</ele>
        <time>2022-06-02T15:23:03Z</time>
      </trkpt>
      <trkpt lat="49.36463" lon="-1.18138">
        <ele>2.3</ele>
        <time>2022-06-02T15:23:05Z</time>
      </trkpt>
      <trkpt lat="49.36462" lon="-1.18139">
        <ele>2.3</ele>
        <time>2022-06-02T15:23:06Z</time>
      </trkpt>
      <trkpt lat="49.36462" lon="-1.18141">
        <ele>2.3</ele>
        <time>2022-06-02T15:23:07Z</time>
      </trkpt>
      <trkpt lat="49.36461" lon="-1.18142">
        <ele>2.3</ele>
        <time>2022-06-02T15:23:08Z</time>
      </trkpt>
      <trkpt lat="49.3646" lon="-1.18145">
        <ele>2.3</ele>
        <time>2022-06-02T15:23:09Z</time>
      </trkpt>
      <trkpt lat="49.36459" lon="-1.18146">
        <ele>2.3</ele>
        <time>2022-06-02T15:23:10Z</time>
      </trkpt>
      <trkpt lat="49.36459" lon="-1.18147">
        <ele>2.3</ele>
        <time>2022-06-02T15:23:11Z</time>
      </trkpt>
      <trkpt lat="49.36458" lon="-1.18149">
        <ele>2.3</ele>
        <time>2022-06-02T15:23:12Z</time>
      </trkpt>
      <trkpt lat="49.36457" lon="-1.18151">
        <ele>2.3</ele>
        <time>2022-06-02T15:23:14Z</time>
      </trkpt>
      <trkpt lat="49.36457" lon="-1.18152">
        <ele>2.3</ele>
        <time>2022-06-02T15:23:15Z</time>
      </trkpt>
      <trkpt lat="49.36456" lon="-1.18155">
        <ele>2.3</ele>
        <time>2022-06-02T15:23:16Z</time>
      </trkpt>
      <trkpt lat="49.36455" lon="-1.18156">
        <ele>2.2</ele>
        <time>2022-06-02T15:23:18Z</time>
      </trkpt>
      <trkpt lat="49.36454" lon="-1.18159">
        <ele>2.2</ele>
        <time>2022-06-02T15:23:19Z</time>
      </trkpt>
      <trkpt lat="49.36453" lon="-1.1816">
        <ele>2.2</ele>
        <time>2022-06-02T15:23:20Z</time>
      </trkpt>
      <trkpt lat="49.36453" lon="-1.18162">
        <ele>2.2</ele>
        <time>2022-06-02T15:23:21Z</time>
      </trkpt>
      <trkpt lat="49.36452" lon="-1.18163">
        <ele>2.2</ele>
        <time>2022-06-02T15:23:22Z</time>
      </trkpt>
      <trkpt lat="49.36451" lon="-1.18166">
        <ele>2.2</ele>
        <time>2022-06-02T15:23:23Z</time>
      </trkpt>
      <trkpt lat="49.3645" lon="-1.18167">
        <ele>2.2</ele>
        <time>2022-06-02T15:23:24Z</time>
      </trkpt>
      <trkpt lat="49.3645" lon="-1.18168">
        <ele>2.2</ele>
        <time>2022-06-02T15:23:25Z</time>
      </trkpt>
      <trkpt lat="49.36448" lon="-1.18171">
        <ele>2.2</ele>
        <time>2022-06-02T15:23:26Z</time>
      </trkpt>
      <trkpt lat="49.36448" lon="-1.18173">
        <ele>2.2</ele>
        <time>2022-06-02T15:23:27Z</time>
      </trkpt>
      <trkpt lat="49.36447" lon="-1.18174">
        <ele>2.2</ele>
        <time>2022-06-02T15:23:28Z</time>
      </trkpt>
      <trkpt lat="49.36447" lon="-1.18177">
        <ele>2.2</ele>
        <time>2022-06-02T15:23:29Z</time>
      </trkpt>
      <trkpt lat="49.36446" lon="-1.18179">
        <ele>2.2</ele>
        <time>2022-06-02T15:23:31Z</time>
      </trkpt>
      <trkpt lat="49.36445" lon="-1.18183">
        <ele>2.2</ele>
        <time>2022-06-02T15:23:32Z</time>
      </trkpt>
      <trkpt lat="49.36444" lon="-1.18185">
        <ele>2.2</ele>
        <time>2022-06-02T15:23:33Z</time>
      </trkpt>
      <trkpt lat="49.36443" lon="-1.18189">
        <ele>2.1</ele>
        <time>2022-06-02T15:23:34Z</time>
      </trkpt>
      <trkpt lat="49.36443" lon="-1.1819">
        <ele>2.1</ele>
        <time>2022-06-02T15:23:35Z</time>
      </trkpt>
      <trkpt lat="49.36442" lon="-1.18192">
        <ele>2.1</ele>
        <time>2022-06-02T15:23:36Z</time>
      </trkpt>
      <trkpt lat="49.36442" lon="-1.18195">
        <ele>2.1</ele>
        <time>2022-06-02T15:23:37Z</time>
      </trkpt>
      <trkpt lat="49.36441" lon="-1.18196">
        <ele>2.1</ele>
        <time>2022-06-02T15:23:38Z</time>
      </trkpt>
      <trkpt lat="49.36441" lon="-1.18198">
        <ele>2.1</ele>
        <time>2022-06-02T15:23:39Z</time>
      </trkpt>
      <trkpt lat="49.36441" lon="-1.18199">
        <ele>2.1</ele>
        <time>2022-06-02T15:23:40Z</time>
      </trkpt>
      <trkpt lat="49.36441" lon="-1.182">
        <ele>2.1</ele>
        <time>2022-06-02T15:23:41Z</time>
      </trkpt>
      <trkpt lat="49.36441" lon="-1.18202">
        <ele>2.1</ele>
        <time>2022-06-02T15:23:42Z</time>
      </trkpt>
      <trkpt lat="49.3644" lon="-1.18204">
        <ele>2.1</ele>
        <time>2022-06-02T15:23:44Z</time>
      </trkpt>
      <trkpt lat="49.3644" lon="-1.18206">
        <ele>2.1</ele>
        <time>2022-06-02T15:23:45Z</time>
      </trkpt>
      <trkpt lat="49.3644" lon="-1.18208">
        <ele>2.1</ele>
        <time>2022-06-02T15:23:46Z</time>
      </trkpt>
      <trkpt lat="49.36439" lon="-1.18209">
        <ele>2.1</ele>
        <time>2022-06-02T15:23:47Z</time>
      </trkpt>
      <trkpt lat="49.36439" lon="-1.18213">
        <ele>2.1</ele>
        <time>2022-06-02T15:23:48Z</time>
      </trkpt>
      <trkpt lat="49.36439" lon="-1.18214">
        <ele>2.1</ele>
        <time>2022-06-02T15:23:50Z</time>
      </trkpt>
      <trkpt lat="49.36439" lon="-1.18216">
        <ele>2.1</ele>
        <time>2022-06-02T15:23:51Z</time>
      </trkpt>
      <trkpt lat="49.36439" lon="-1.18217">
        <ele>2.1</ele>
        <time>2022-06-02T15:23:52Z</time>
      </trkpt>
      <trkpt lat="49.36439" lon="-1.18218">
        <ele>2.1</ele>
        <time>2022-06-02T15:23:53Z</time>
      </trkpt>
      <trkpt lat="49.36439" lon="-1.18219">
        <ele>2.1</ele>
        <time>2022-06-02T15:23:54Z</time>
      </trkpt>
      <trkpt lat="49.36439" lon="-1.18221">
        <ele>2.1</ele>
        <time>2022-06-02T15:23:55Z</time>
      </trkpt>
      <trkpt lat="49.36438" lon="-1.18223">
        <ele>2.1</ele>
        <time>2022-06-02T15:23:56Z</time>
      </trkpt>
      <trkpt lat="49.36438" lon="-1.18225">
        <ele>2.1</ele>
        <time>2022-06-02T15:23:57Z</time>
      </trkpt>
      <trkpt lat="49.36438" lon="-1.18227">
        <ele>2.1</ele>
        <time>2022-06-02T15:23:58Z</time>
      </trkpt>
      <trkpt lat="49.36439" lon="-1.18228">
        <ele>2.1</ele>
        <time>2022-06-02T15:24:00Z</time>
      </trkpt>
      <trkpt lat="49.36439" lon="-1.18229">
        <ele>2.1</ele>
        <time>2022-06-02T15:24:01Z</time>
      </trkpt>
      <trkpt lat="49.36439" lon="-1.18231">
        <ele>2.1</ele>
        <time>2022-06-02T15:24:02Z</time>
      </trkpt>
      <trkpt lat="49.3644" lon="-1.18232">
        <ele>2.1</ele>
        <time>2022-06-02T15:24:03Z</time>
      </trkpt>
      <trkpt lat="49.3644" lon="-1.18234">
        <ele>2.1</ele>
        <time>2022-06-02T15:24:04Z</time>
      </trkpt>
      <trkpt lat="49.3644" lon="-1.18237">
        <ele>2.1</ele>
        <time>2022-06-02T15:24:05Z</time>
      </trkpt>
      <trkpt lat="49.3644" lon="-1.18238">
        <ele>2.1</ele>
        <time>2022-06-02T15:24:06Z</time>
      </trkpt>
      <trkpt lat="49.36441" lon="-1.18239">
        <ele>2.1</ele>
        <time>2022-06-02T15:24:07Z</time>
      </trkpt>
      <trkpt lat="49.36441" lon="-1.18241">
        <ele>2.1</ele>
        <time>2022-06-02T15:24:08Z</time>
      </trkpt>
      <trkpt lat="49.36441" lon="-1.18242">
        <ele>2.1</ele>
        <time>2022-06-02T15:24:09Z</time>
      </trkpt>
      <trkpt lat="49.36442" lon="-1.18244">
        <ele>2.1</ele>
        <time>2022-06-02T15:24:10Z</time>
      </trkpt>
      <trkpt lat="49.36442" lon="-1.18246">
        <ele>2.1</ele>
        <time>2022-06-02T15:24:11Z</time>
      </trkpt>
      <trkpt lat="49.36442" lon="-1.18249">
        <ele>2.1</ele>
        <time>2022-06-02T15:24:13Z</time>
      </trkpt>
      <trkpt lat="49.36443" lon="-1.1825">
        <ele>2.1</ele>
        <time>2022-06-02T15:24:14Z</time>
      </trkpt>
      <trkpt lat="49.36443" lon="-1.18252">
        <ele>2.1</ele>
        <time>2022-06-02T15:24:15Z</time>
      </trkpt>
      <trkpt lat="49.36443" lon="-1.18254">
        <ele>2.1</ele>
        <time>2022-06-02T15:24:16Z</time>
      </trkpt>
      <trkpt lat="49.36443" lon="-1.18256">
        <ele>2.1</ele>
        <time>2022-06-02T15:24:17Z</time>
      </trkpt>
      <trkpt lat="49.36444" lon="-1.18259">
        <ele>2.1</ele>
        <time>2022-06-02T15:24:18Z</time>
      </trkpt>
      <trkpt lat="49.36444" lon="-1.18261">
        <ele>2.1</ele>
        <time>2022-06-02T15:24:19Z</time>
      </trkpt>
      <trkpt lat="49.36444" lon="-1.18262">
        <ele>2.1</ele>
        <time>2022-06-02T15:24:20Z</time>
      </trkpt>
      <trkpt lat="49.36444" lon="-1.18264">
        <ele>2.1</ele>
        <time>2022-06-02T15:24:21Z</time>
      </trkpt>
      <trkpt lat="49.36444" lon="-1.18265">
        <ele>2.1</ele>
        <time>2022-06-02T15:24:22Z</time>
      </trkpt>
      <trkpt lat="49.36444" lon="-1.18267">
        <ele>2.1</ele>
        <time>2022-06-02T15:24:23Z</time>
      </trkpt>
      <trkpt lat="49.36444" lon="-1.18269">
        <ele>2.1</ele>
        <time>2022-06-02T15:24:25Z</time>
      </trkpt>
      <trkpt lat="49.36444" lon="-1.18272">
        <ele>2.1</ele>
        <time>2022-06-02T15:24:26Z</time>
      </trkpt>
      <trkpt lat="49.36444" lon="-1.18275">
        <ele>2.1</ele>
        <time>2022-06-02T15:24:27Z</time>
      </trkpt>
      <trkpt lat="49.36444" lon="-1.18276">
        <ele>2.1</ele>
        <time>2022-06-02T15:24:28Z</time>
      </trkpt>
      <trkpt lat="49.36444" lon="-1.18278">
        <ele>2.1</ele>
        <time>2022-06-02T15:24:29Z</time>
      </trkpt>
      <trkpt lat="49.36444" lon="-1.1828">
        <ele>2.1</ele>
        <time>2022-06-02T15:24:30Z</time>
      </trkpt>
      <trkpt lat="49.36445" lon="-1.18282">
        <ele>2.1</ele>
        <time>2022-06-02T15:24:31Z</time>
      </trkpt>
      <trkpt lat="49.36445" lon="-1.18283">
        <ele>2.1</ele>
        <time>2022-06-02T15:24:32Z</time>
      </trkpt>
      <trkpt lat="49.36445" lon="-1.18285">
        <ele>2.1</ele>
        <time>2022-06-02T15:24:34Z</time>
      </trkpt>
      <trkpt lat="49.36446" lon="-1.18287">
        <ele>2.1</ele>
        <time>2022-06-02T15:24:35Z</time>
      </trkpt>
      <trkpt lat="49.36447" lon="-1.1829">
        <ele>2.1</ele>
        <time>2022-06-02T15:24:37Z</time>
      </trkpt>
      <trkpt lat="49.36447" lon="-1.18291">
        <ele>2.1</ele>
        <time>2022-06-02T15:24:38Z</time>
      </trkpt>
      <trkpt lat="49.36447" lon="-1.18292">
        <ele>2.1</ele>
        <time>2022-06-02T15:24:39Z</time>
      </trkpt>
      <trkpt lat="49.36448" lon="-1.18294">
        <ele>2.1</ele>
        <time>2022-06-02T15:24:40Z</time>
      </trkpt>
      <trkpt lat="49.36448" lon="-1.18296">
        <ele>2.1</ele>
        <time>2022-06-02T15:24:41Z</time>
      </trkpt>
      <trkpt lat="49.36449" lon="-1.18298">
        <ele>2.1</ele>
        <time>2022-06-02T15:24:42Z</time>
      </trkpt>
      <trkpt lat="49.36449" lon="-1.18299">
        <ele>2.1</ele>
        <time>2022-06-02T15:24:43Z</time>
      </trkpt>
      <trkpt lat="49.36449" lon="-1.18301">
        <ele>2.1</ele>
        <time>2022-06-02T15:24:44Z</time>
      </trkpt>
      <trkpt lat="49.3645" lon="-1.18304">
        <ele>2.1</ele>
        <time>2022-06-02T15:24:45Z</time>
      </trkpt>
      <trkpt lat="49.3645" lon="-1.18305">
        <ele>2.1</ele>
        <time>2022-06-02T15:24:46Z</time>
      </trkpt>
      <trkpt lat="49.36451" lon="-1.18306">
        <ele>2.1</ele>
        <time>2022-06-02T15:24:47Z</time>
      </trkpt>
      <trkpt lat="49.36451" lon="-1.18309">
        <ele>2.1</ele>
        <time>2022-06-02T15:24:49Z</time>
      </trkpt>
      <trkpt lat="49.36452" lon="-1.18311">
        <ele>2.1</ele>
        <time>2022-06-02T15:24:50Z</time>
      </trkpt>
      <trkpt lat="49.36452" lon="-1.18312">
        <ele>2.1</ele>
        <time>2022-06-02T15:24:51Z</time>
      </trkpt>
      <trkpt lat="49.36452" lon="-1.18313">
        <ele>2.1</ele>
        <time>2022-06-02T15:24:52Z</time>
      </trkpt>
      <trkpt lat="49.36453" lon="-1.18315">
        <ele>2.1</ele>
        <time>2022-06-02T15:24:53Z</time>
      </trkpt>
      <trkpt lat="49.36453" lon="-1.18316">
        <ele>2.1</ele>
        <time>2022-06-02T15:24:54Z</time>
      </trkpt>
      <trkpt lat="49.36454" lon="-1.18318">
        <ele>2.1</ele>
        <time>2022-06-02T15:24:55Z</time>
      </trkpt>
      <trkpt lat="49.36454" lon="-1.1832">
        <ele>2.1</ele>
        <time>2022-06-02T15:24:56Z</time>
      </trkpt>
      <trkpt lat="49.36455" lon="-1.18321">
        <ele>2.1</ele>
        <time>2022-06-02T15:24:57Z</time>
      </trkpt>
      <trkpt lat="49.36456" lon="-1.18324">
        <ele>2.1</ele>
        <time>2022-06-02T15:24:59Z</time>
      </trkpt>
      <trkpt lat="49.36456" lon="-1.18326">
        <ele>2.1</ele>
        <time>2022-06-02T15:25:00Z</time>
      </trkpt>
      <trkpt lat="49.36457" lon="-1.18327">
        <ele>2.1</ele>
        <time>2022-06-02T15:25:01Z</time>
      </trkpt>
      <trkpt lat="49.36457" lon="-1.18328">
        <ele>2.1</ele>
        <time>2022-06-02T15:25:02Z</time>
      </trkpt>
      <trkpt lat="49.36458" lon="-1.1833">
        <ele>2.1</ele>
        <time>2022-06-02T15:25:03Z</time>
      </trkpt>
      <trkpt lat="49.36459" lon="-1.18331">
        <ele>2.1</ele>
        <time>2022-06-02T15:25:04Z</time>
      </trkpt>
      <trkpt lat="49.36459" lon="-1.18333">
        <ele>2.1</ele>
        <time>2022-06-02T15:25:05Z</time>
      </trkpt>
      <trkpt lat="49.3646" lon="-1.18334">
        <ele>2.1</ele>
        <time>2022-06-02T15:25:06Z</time>
      </trkpt>
      <trkpt lat="49.3646" lon="-1.18336">
        <ele>2.1</ele>
        <time>2022-06-02T15:25:07Z</time>
      </trkpt>
      <trkpt lat="49.36461" lon="-1.18337">
        <ele>2.1</ele>
        <time>2022-06-02T15:25:08Z</time>
      </trkpt>
      <trkpt lat="49.36462" lon="-1.18338">
        <ele>2.1</ele>
        <time>2022-06-02T15:25:10Z</time>
      </trkpt>
      <trkpt lat="49.36463" lon="-1.18339">
        <ele>2.1</ele>
        <time>2022-06-02T15:25:11Z</time>
      </trkpt>
      <trkpt lat="49.36463" lon="-1.18339">
        <ele>2.1</ele>
        <time>2022-06-02T15:25:12Z</time>
      </trkpt>
      <trkpt lat="49.36463" lon="-1.1834">
        <ele>2.1</ele>
        <time>2022-06-02T15:25:13Z</time>
      </trkpt>
      <trkpt lat="49.36463" lon="-1.1834">
        <ele>2.1</ele>
        <time>2022-06-02T15:25:14Z</time>
      </trkpt>
      <trkpt lat="49.36463" lon="-1.1834">
        <ele>2.1</ele>
        <time>2022-06-02T15:25:15Z</time>
      </trkpt>
      <trkpt lat="49.36463" lon="-1.1834">
        <ele>2.1</ele>
        <time>2022-06-02T15:25:16Z</time>
      </trkpt>
      <trkpt lat="49.36463" lon="-1.1834">
        <ele>2.1</ele>
        <time>2022-06-02T15:25:17Z</time>
      </trkpt>
      <trkpt lat="49.36462" lon="-1.1834">
        <ele>2.1</ele>
        <time>2022-06-02T15:25:18Z</time>
      </trkpt>
      <trkpt lat="49.36462" lon="-1.18339">
        <ele>2.1</ele>
        <time>2022-06-02T15:25:19Z</time>
      </trkpt>
      <trkpt lat="49.36462" lon="-1.18339">
        <ele>2.1</ele>
        <time>2022-06-02T15:25:20Z</time>
      </trkpt>
      <trkpt lat="49.36462" lon="-1.18339">
        <ele>2.1</ele>
        <time>2022-06-02T15:25:21Z</time>
      </trkpt>
      <trkpt lat="49.36462" lon="-1.18339">
        <ele>2.1</ele>
        <time>2022-06-02T15:25:22Z</time>
      </trkpt>
      <trkpt lat="49.36462" lon="-1.18339">
        <ele>2.1</ele>
        <time>2022-06-02T15:25:23Z</time>
      </trkpt>
      <trkpt lat="49.36462" lon="-1.18339">
        <ele>2.1</ele>
        <time>2022-06-02T15:25:24Z</time>
      </trkpt>
      <trkpt lat="49.36462" lon="-1.18339">
        <ele>2.1</ele>
        <time>2022-06-02T15:25:25Z</time>
      </trkpt>
      <trkpt lat="49.36462" lon="-1.18339">
        <ele>2.1</ele>
        <time>2022-06-02T15:25:26Z</time>
      </trkpt>
      <trkpt lat="49.36462" lon="-1.18339">
        <ele>2.1</ele>
        <time>2022-06-02T15:25:27Z</time>
      </trkpt>
      <trkpt lat="49.36462" lon="-1.18339">
        <ele>2.1</ele>
        <time>2022-06-02T15:25:28Z</time>
      </trkpt>
      <trkpt lat="49.36462" lon="-1.18339">
        <ele>2.1</ele>
        <time>2022-06-02T15:25:29Z</time>
      </trkpt>
      <trkpt lat="49.36461" lon="-1.18338">
        <ele>2.1</ele>
        <time>2022-06-02T15:25:30Z</time>
      </trkpt>
      <trkpt lat="49.36461" lon="-1.18338">
        <ele>2.1</ele>
        <time>2022-06-02T15:25:31Z</time>
      </trkpt>
      <trkpt lat="49.36461" lon="-1.18338">
        <ele>2.1</ele>
        <time>2022-06-02T15:25:32Z</time>
      </trkpt>
      <trkpt lat="49.36461" lon="-1.18338">
        <ele>2.1</ele>
        <time>2022-06-02T15:25:33Z</time>
      </trkpt>
      <trkpt lat="49.36461" lon="-1.18338">
        <ele>2.1</ele>
        <time>2022-06-02T15:25:34Z</time>
      </trkpt>
      <trkpt lat="49.36461" lon="-1.18338">
        <ele>2.1</ele>
        <time>2022-06-02T15:25:35Z</time>
      </trkpt>
      <trkpt lat="49.36461" lon="-1.18338">
        <ele>2.1</ele>
        <time>2022-06-02T15:25:36Z</time>
      </trkpt>
      <trkpt lat="49.36461" lon="-1.18338">
        <ele>2.1</ele>
        <time>2022-06-02T15:25:37Z</time>
      </trkpt>
      <trkpt lat="49.36461" lon="-1.18338">
        <ele>2.1</ele>
        <time>2022-06-02T15:25:38Z</time>
      </trkpt>
      <trkpt lat="49.36461" lon="-1.18338">
        <ele>2.1</ele>
        <time>2022-06-02T15:25:39Z</time>
      </trkpt>
      <trkpt lat="49.36461" lon="-1.18338">
        <ele>2.1</ele>
        <time>2022-06-02T15:25:40Z</time>
      </trkpt>
      <trkpt lat="49.36461" lon="-1.18338">
        <ele>2.1</ele>
        <time>2022-06-02T15:25:41Z</time>
      </trkpt>
      <trkpt lat="49.36461" lon="-1.18338">
        <ele>2.1</ele>
        <time>2022-06-02T15:25:42Z</time>
      </trkpt>
      <trkpt lat="49.36461" lon="-1.18338">
        <ele>2.1</ele>
        <time>2022-06-02T15:25:43Z</time>
      </trkpt>
      <trkpt lat="49.36461" lon="-1.18338">
        <ele>2.1</ele>
        <time>2022-06-02T15:25:44Z</time>
      </trkpt>
      <trkpt lat="49.36461" lon="-1.18338">
        <ele>2.1</ele>
        <time>2022-06-02T15:25:45Z</time>
      </trkpt>
      <trkpt lat="49.36461" lon="-1.18338">
        <ele>2.1</ele>
        <time>2022-06-02T15:25:46Z</time>
      </trkpt>
      <trkpt lat="49.36461" lon="-1.18338">
        <ele>2.1</ele>
        <time>2022-06-02T15:25:47Z</time>
      </trkpt>
      <trkpt lat="49.36461" lon="-1.18338">
        <ele>2.1</ele>
        <time>2022-06-02T15:25:48Z</time>
      </trkpt>
      <trkpt lat="49.36461" lon="-1.18338">
        <ele>2.1</ele>
        <time>2022-06-02T15:25:49Z</time>
      </trkpt>
      <trkpt lat="49.36461" lon="-1.18338">
        <ele>2.1</ele>
        <time>2022-06-02T15:25:50Z</time>
      </trkpt>
      <trkpt lat="49.36461" lon="-1.18338">
        <ele>2.1</ele>
        <time>2022-06-02T15:25:51Z</time>
      </trkpt>
      <trkpt lat="49.36461" lon="-1.18338">
        <ele>2.1</ele>
        <time>2022-06-02T15:25:52Z</time>
      </trkpt>
      <trkpt lat="49.36461" lon="-1.18338">
        <ele>2.1</ele>
        <time>2022-06-02T15:25:53Z</time>
      </trkpt>
      <trkpt lat="49.36461" lon="-1.18337">
        <ele>2.1</ele>
        <time>2022-06-02T15:25:54Z</time>
      </trkpt>
      <trkpt lat="49.36461" lon="-1.18337">
        <ele>2.1</ele>
        <time>2022-06-02T15:25:55Z</time>
      </trkpt>
      <trkpt lat="49.36461" lon="-1.18337">
        <ele>2.1</ele>
        <time>2022-06-02T15:25:56Z</time>
      </trkpt>
      <trkpt lat="49.36461" lon="-1.18337">
        <ele>2.1</ele>
        <time>2022-06-02T15:25:57Z</time>
      </trkpt>
      <trkpt lat="49.36461" lon="-1.18337">
        <ele>2.1</ele>
        <time>2022-06-02T15:25:58Z</time>
      </trkpt>
      <trkpt lat="49.36461" lon="-1.18337">
        <ele>2.1</ele>
        <time>2022-06-02T15:25:59Z</time>
      </trkpt>
      <trkpt lat="49.36461" lon="-1.18337">
        <ele>2.1</ele>
        <time>2022-06-02T15:26:00Z</time>
      </trkpt>
      <trkpt lat="49.36461" lon="-1.18337">
        <ele>2.1</ele>
        <time>2022-06-02T15:26:01Z</time>
      </trkpt>
      <trkpt lat="49.36461" lon="-1.18337">
        <ele>2.1</ele>
        <time>2022-06-02T15:26:02Z</time>
      </trkpt>
      <trkpt lat="49.36461" lon="-1.18337">
        <ele>2.1</ele>
        <time>2022-06-02T15:26:03Z</time>
      </trkpt>
      <trkpt lat="49.36461" lon="-1.18338">
        <ele>2.1</ele>
        <time>2022-06-02T15:26:04Z</time>
      </trkpt>
      <trkpt lat="49.36462" lon="-1.18339">
        <ele>2.1</ele>
        <time>2022-06-02T15:26:05Z</time>
      </trkpt>
      <trkpt lat="49.36462" lon="-1.18341">
        <ele>2.1</ele>
        <time>2022-06-02T15:26:06Z</time>
      </trkpt>
      <trkpt lat="49.36462" lon="-1.18342">
        <ele>2.1</ele>
        <time>2022-06-02T15:26:07Z</time>
      </trkpt>
      <trkpt lat="49.36463" lon="-1.18343">
        <ele>2.1</ele>
        <time>2022-06-02T15:26:08Z</time>
      </trkpt>
      <trkpt lat="49.36463" lon="-1.18344">
        <ele>2.1</ele>
        <time>2022-06-02T15:26:09Z</time>
      </trkpt>
      <trkpt lat="49.36463" lon="-1.18345">
        <ele>2.1</ele>
        <time>2022-06-02T15:26:10Z</time>
      </trkpt>
      <trkpt lat="49.36463" lon="-1.18345">
        <ele>2.1</ele>
        <time>2022-06-02T15:26:11Z</time>
      </trkpt>
      <trkpt lat="49.36464" lon="-1.18347">
        <ele>2.1</ele>
        <time>2022-06-02T15:26:12Z</time>
      </trkpt>
      <trkpt lat="49.36464" lon="-1.1835">
        <ele>2.1</ele>
        <time>2022-06-02T15:26:13Z</time>
      </trkpt>
      <trkpt lat="49.36465" lon="-1.18351">
        <ele>2.1</ele>
        <time>2022-06-02T15:26:14Z</time>
      </trkpt>
      <trkpt lat="49.36465" lon="-1.18354">
        <ele>2.1</ele>
        <time>2022-06-02T15:26:15Z</time>
      </trkpt>
      <trkpt lat="49.36465" lon="-1.18356">
        <ele>2.1</ele>
        <time>2022-06-02T15:26:16Z</time>
      </trkpt>
      <trkpt lat="49.36466" lon="-1.18358">
        <ele>2.1</ele>
        <time>2022-06-02T15:26:17Z</time>
      </trkpt>
      <trkpt lat="49.36466" lon="-1.1836">
        <ele>2.1</ele>
        <time>2022-06-02T15:26:18Z</time>
      </trkpt>
      <trkpt lat="49.36467" lon="-1.18363">
        <ele>2.1</ele>
        <time>2022-06-02T15:26:20Z</time>
      </trkpt>
      <trkpt lat="49.36467" lon="-1.18365">
        <ele>2.1</ele>
        <time>2022-06-02T15:26:21Z</time>
      </trkpt>
      <trkpt lat="49.36467" lon="-1.18366">
        <ele>2.1</ele>
        <time>2022-06-02T15:26:22Z</time>
      </trkpt>
      <trkpt lat="49.36468" lon="-1.18368">
        <ele>2.1</ele>
        <time>2022-06-02T15:26:23Z</time>
      </trkpt>
      <trkpt lat="49.36468" lon="-1.18371">
        <ele>2.1</ele>
        <time>2022-06-02T15:26:24Z</time>
      </trkpt>
      <trkpt lat="49.36468" lon="-1.18372">
        <ele>2.1</ele>
        <time>2022-06-02T15:26:26Z</time>
      </trkpt>
      <trkpt lat="49.36468" lon="-1.18374">
        <ele>2.1</ele>
        <time>2022-06-02T15:26:27Z</time>
      </trkpt>
      <trkpt lat="49.36469" lon="-1.18376">
        <ele>2.1</ele>
        <time>2022-06-02T15:26:28Z</time>
      </trkpt>
      <trkpt lat="49.36469" lon="-1.18378">
        <ele>2.1</ele>
        <time>2022-06-02T15:26:29Z</time>
      </trkpt>
      <trkpt lat="49.36469" lon="-1.1838">
        <ele>2.1</ele>
        <time>2022-06-02T15:26:30Z</time>
      </trkpt>
      <trkpt lat="49.3647" lon="-1.18382">
        <ele>2.1</ele>
        <time>2022-06-02T15:26:31Z</time>
      </trkpt>
      <trkpt lat="49.3647" lon="-1.18385">
        <ele>2.1</ele>
        <time>2022-06-02T15:26:32Z</time>
      </trkpt>
      <trkpt lat="49.3647" lon="-1.18388">
        <ele>2.1</ele>
        <time>2022-06-02T15:26:33Z</time>
      </trkpt>
      <trkpt lat="49.3647" lon="-1.18389">
        <ele>2.1</ele>
        <time>2022-06-02T15:26:34Z</time>
      </trkpt>
      <trkpt lat="49.36471" lon="-1.1839">
        <ele>2.1</ele>
        <time>2022-06-02T15:26:35Z</time>
      </trkpt>
      <trkpt lat="49.36471" lon="-1.18392">
        <ele>2.1</ele>
        <time>2022-06-02T15:26:36Z</time>
      </trkpt>
      <trkpt lat="49.36471" lon="-1.18394">
        <ele>2.1</ele>
        <time>2022-06-02T15:26:37Z</time>
      </trkpt>
      <trkpt lat="49.36471" lon="-1.18394">
        <ele>2.1</ele>
        <time>2022-06-02T15:26:39Z</time>
      </trkpt>
      <trkpt lat="49.36471" lon="-1.18394">
        <ele>2.1</ele>
        <time>2022-06-02T15:26:40Z</time>
      </trkpt>
      <trkpt lat="49.36471" lon="-1.18395">
        <ele>2.1</ele>
        <time>2022-06-02T15:26:41Z</time>
      </trkpt>
      <trkpt lat="49.36471" lon="-1.18397">
        <ele>2.1</ele>
        <time>2022-06-02T15:26:42Z</time>
      </trkpt>
      <trkpt lat="49.36471" lon="-1.18399">
        <ele>2.1</ele>
        <time>2022-06-02T15:26:43Z</time>
      </trkpt>
      <trkpt lat="49.36471" lon="-1.18402">
        <ele>2.1</ele>
        <time>2022-06-02T15:26:45Z</time>
      </trkpt>
      <trkpt lat="49.36471" lon="-1.18403">
        <ele>2.1</ele>
        <time>2022-06-02T15:26:46Z</time>
      </trkpt>
      <trkpt lat="49.36471" lon="-1.18405">
        <ele>2.2</ele>
        <time>2022-06-02T15:26:47Z</time>
      </trkpt>
      <trkpt lat="49.36471" lon="-1.18407">
        <ele>2.2</ele>
        <time>2022-06-02T15:26:48Z</time>
      </trkpt>
      <trkpt lat="49.36471" lon="-1.18409">
        <ele>2.2</ele>
        <time>2022-06-02T15:26:49Z</time>
      </trkpt>
      <trkpt lat="49.36471" lon="-1.18411">
        <ele>2.2</ele>
        <time>2022-06-02T15:26:50Z</time>
      </trkpt>
      <trkpt lat="49.36472" lon="-1.18413">
        <ele>2.2</ele>
        <time>2022-06-02T15:26:51Z</time>
      </trkpt>
      <trkpt lat="49.36472" lon="-1.18416">
        <ele>2.2</ele>
        <time>2022-06-02T15:26:53Z</time>
      </trkpt>
      <trkpt lat="49.36472" lon="-1.18418">
        <ele>2.2</ele>
        <time>2022-06-02T15:26:54Z</time>
      </trkpt>
      <trkpt lat="49.36472" lon="-1.18422">
        <ele>2.2</ele>
        <time>2022-06-02T15:26:55Z</time>
      </trkpt>
      <trkpt lat="49.36472" lon="-1.18423">
        <ele>2.2</ele>
        <time>2022-06-02T15:26:56Z</time>
      </trkpt>
      <trkpt lat="49.36472" lon="-1.18425">
        <ele>2.2</ele>
        <time>2022-06-02T15:26:57Z</time>
      </trkpt>
      <trkpt lat="49.36472" lon="-1.18427">
        <ele>2.2</ele>
        <time>2022-06-02T15:26:58Z</time>
      </trkpt>
      <trkpt lat="49.36473" lon="-1.1843">
        <ele>2.2</ele>
        <time>2022-06-02T15:26:59Z</time>
      </trkpt>
      <trkpt lat="49.36473" lon="-1.18432">
        <ele>2.2</ele>
        <time>2022-06-02T15:27:00Z</time>
      </trkpt>
      <trkpt lat="49.36473" lon="-1.18435">
        <ele>2.2</ele>
        <time>2022-06-02T15:27:01Z</time>
      </trkpt>
      <trkpt lat="49.36473" lon="-1.18437">
        <ele>2.2</ele>
        <time>2022-06-02T15:27:02Z</time>
      </trkpt>
      <trkpt lat="49.36473" lon="-1.18439">
        <ele>2.2</ele>
        <time>2022-06-02T15:27:03Z</time>
      </trkpt>
      <trkpt lat="49.36473" lon="-1.18441">
        <ele>2.2</ele>
        <time>2022-06-02T15:27:04Z</time>
      </trkpt>
      <trkpt lat="49.36474" lon="-1.18443">
        <ele>2.2</ele>
        <time>2022-06-02T15:27:05Z</time>
      </trkpt>
      <trkpt lat="49.36474" lon="-1.18445">
        <ele>2.2</ele>
        <time>2022-06-02T15:27:07Z</time>
      </trkpt>
      <trkpt lat="49.36474" lon="-1.18448">
        <ele>2.2</ele>
        <time>2022-06-02T15:27:08Z</time>
      </trkpt>
      <trkpt lat="49.36474" lon="-1.18449">
        <ele>2.2</ele>
        <time>2022-06-02T15:27:09Z</time>
      </trkpt>
      <trkpt lat="49.36474" lon="-1.18451">
        <ele>2.2</ele>
        <time>2022-06-02T15:27:10Z</time>
      </trkpt>
      <trkpt lat="49.36475" lon="-1.18455">
        <ele>2.2</ele>
        <time>2022-06-02T15:27:11Z</time>
      </trkpt>
      <trkpt lat="49.36475" lon="-1.18456">
        <ele>2.2</ele>
        <time>2022-06-02T15:27:12Z</time>
      </trkpt>
      <trkpt lat="49.36475" lon="-1.18458">
        <ele>2.2</ele>
        <time>2022-06-02T15:27:13Z</time>
      </trkpt>
      <trkpt lat="49.36475" lon="-1.18459">
        <ele>2.2</ele>
        <time>2022-06-02T15:27:14Z</time>
      </trkpt>
      <trkpt lat="49.36476" lon="-1.18461">
        <ele>2.2</ele>
        <time>2022-06-02T15:27:15Z</time>
      </trkpt>
      <trkpt lat="49.36476" lon="-1.18464">
        <ele>2.2</ele>
        <time>2022-06-02T15:27:16Z</time>
      </trkpt>
      <trkpt lat="49.36477" lon="-1.18466">
        <ele>2.2</ele>
        <time>2022-06-02T15:27:17Z</time>
      </trkpt>
      <trkpt lat="49.36477" lon="-1.18468">
        <ele>2.2</ele>
        <time>2022-06-02T15:27:18Z</time>
      </trkpt>
      <trkpt lat="49.36478" lon="-1.18469">
        <ele>2.2</ele>
        <time>2022-06-02T15:27:20Z</time>
      </trkpt>
      <trkpt lat="49.36478" lon="-1.18471">
        <ele>2.2</ele>
        <time>2022-06-02T15:27:21Z</time>
      </trkpt>
      <trkpt lat="49.36478" lon="-1.18473">
        <ele>2.2</ele>
        <time>2022-06-02T15:27:22Z</time>
      </trkpt>
      <trkpt lat="49.36479" lon="-1.18476">
        <ele>2.2</ele>
        <time>2022-06-02T15:27:23Z</time>
      </trkpt>
      <trkpt lat="49.36479" lon="-1.18479">
        <ele>2.2</ele>
        <time>2022-06-02T15:27:24Z</time>
      </trkpt>
      <trkpt lat="49.36479" lon="-1.1848">
        <ele>2.2</ele>
        <time>2022-06-02T15:27:25Z</time>
      </trkpt>
      <trkpt lat="49.3648" lon="-1.18482">
        <ele>2.2</ele>
        <time>2022-06-02T15:27:26Z</time>
      </trkpt>
      <trkpt lat="49.3648" lon="-1.18485">
        <ele>2.2</ele>
        <time>2022-06-02T15:27:27Z</time>
      </trkpt>
      <trkpt lat="49.36481" lon="-1.18486">
        <ele>2.2</ele>
        <time>2022-06-02T15:27:28Z</time>
      </trkpt>
      <trkpt lat="49.36481" lon="-1.18488">
        <ele>2.2</ele>
        <time>2022-06-02T15:27:29Z</time>
      </trkpt>
      <trkpt lat="49.36481" lon="-1.1849">
        <ele>2.2</ele>
        <time>2022-06-02T15:27:30Z</time>
      </trkpt>
      <trkpt lat="49.36481" lon="-1.18491">
        <ele>2.2</ele>
        <time>2022-06-02T15:27:32Z</time>
      </trkpt>
      <trkpt lat="49.36482" lon="-1.18493">
        <ele>2.2</ele>
        <time>2022-06-02T15:27:33Z</time>
      </trkpt>
      <trkpt lat="49.36482" lon="-1.18495">
        <ele>2.2</ele>
        <time>2022-06-02T15:27:34Z</time>
      </trkpt>
      <trkpt lat="49.36482" lon="-1.18497">
        <ele>2.2</ele>
        <time>2022-06-02T15:27:35Z</time>
      </trkpt>
      <trkpt lat="49.36482" lon="-1.185">
        <ele>2.2</ele>
        <time>2022-06-02T15:27:36Z</time>
      </trkpt>
      <trkpt lat="49.36483" lon="-1.18502">
        <ele>2.2</ele>
        <time>2022-06-02T15:27:37Z</time>
      </trkpt>
      <trkpt lat="49.36483" lon="-1.18503">
        <ele>2.2</ele>
        <time>2022-06-02T15:27:38Z</time>
      </trkpt>
      <trkpt lat="49.36483" lon="-1.18505">
        <ele>2.2</ele>
        <time>2022-06-02T15:27:40Z</time>
      </trkpt>
      <trkpt lat="49.36483" lon="-1.18507">
        <ele>2.2</ele>
        <time>2022-06-02T15:27:41Z</time>
      </trkpt>
      <trkpt lat="49.36483" lon="-1.18512">
        <ele>2.1</ele>
        <time>2022-06-02T15:27:43Z</time>
      </trkpt>
      <trkpt lat="49.36483" lon="-1.18513">
        <ele>2.1</ele>
        <time>2022-06-02T15:27:45Z</time>
      </trkpt>
      <trkpt lat="49.36484" lon="-1.18515">
        <ele>2.1</ele>
        <time>2022-06-02T15:27:46Z</time>
      </trkpt>
      <trkpt lat="49.36484" lon="-1.18517">
        <ele>2.1</ele>
        <time>2022-06-02T15:27:47Z</time>
      </trkpt>
      <trkpt lat="49.36485" lon="-1.1852">
        <ele>2.1</ele>
        <time>2022-06-02T15:27:48Z</time>
      </trkpt>
      <trkpt lat="49.36485" lon="-1.18521">
        <ele>2.1</ele>
        <time>2022-06-02T15:27:49Z</time>
      </trkpt>
      <trkpt lat="49.36486" lon="-1.18522">
        <ele>2.1</ele>
        <time>2022-06-02T15:27:50Z</time>
      </trkpt>
      <trkpt lat="49.36486" lon="-1.18524">
        <ele>2.1</ele>
        <time>2022-06-02T15:27:51Z</time>
      </trkpt>
      <trkpt lat="49.36487" lon="-1.18527">
        <ele>2.1</ele>
        <time>2022-06-02T15:27:52Z</time>
      </trkpt>
      <trkpt lat="49.36487" lon="-1.18528">
        <ele>2.1</ele>
        <time>2022-06-02T15:27:53Z</time>
      </trkpt>
      <trkpt lat="49.36487" lon="-1.18529">
        <ele>2.1</ele>
        <time>2022-06-02T15:27:54Z</time>
      </trkpt>
      <trkpt lat="49.36488" lon="-1.18531">
        <ele>2.1</ele>
        <time>2022-06-02T15:27:55Z</time>
      </trkpt>
      <trkpt lat="49.36488" lon="-1.18533">
        <ele>2.1</ele>
        <time>2022-06-02T15:27:56Z</time>
      </trkpt>
      <trkpt lat="49.36488" lon="-1.18535">
        <ele>2.1</ele>
        <time>2022-06-02T15:27:58Z</time>
      </trkpt>
      <trkpt lat="49.36488" lon="-1.18536">
        <ele>2.1</ele>
        <time>2022-06-02T15:27:59Z</time>
      </trkpt>
      <trkpt lat="49.36488" lon="-1.18537">
        <ele>2.1</ele>
        <time>2022-06-02T15:28:00Z</time>
      </trkpt>
      <trkpt lat="49.36488" lon="-1.18539">
        <ele>2.1</ele>
        <time>2022-06-02T15:28:01Z</time>
      </trkpt>
      <trkpt lat="49.36488" lon="-1.18541">
        <ele>2.1</ele>
        <time>2022-06-02T15:28:02Z</time>
      </trkpt>
      <trkpt lat="49.36489" lon="-1.18543">
        <ele>2.1</ele>
        <time>2022-06-02T15:28:03Z</time>
      </trkpt>
      <trkpt lat="49.36489" lon="-1.18544">
        <ele>2.1</ele>
        <time>2022-06-02T15:28:04Z</time>
      </trkpt>
      <trkpt lat="49.36489" lon="-1.18546">
        <ele>2.1</ele>
        <time>2022-06-02T15:28:05Z</time>
      </trkpt>
      <trkpt lat="49.36489" lon="-1.18548">
        <ele>2.1</ele>
        <time>2022-06-02T15:28:06Z</time>
      </trkpt>
      <trkpt lat="49.3649" lon="-1.18552">
        <ele>2.1</ele>
        <time>2022-06-02T15:28:08Z</time>
      </trkpt>
      <trkpt lat="49.3649" lon="-1.18553">
        <ele>2.1</ele>
        <time>2022-06-02T15:28:10Z</time>
      </trkpt>
      <trkpt lat="49.3649" lon="-1.18555">
        <ele>2.1</ele>
        <time>2022-06-02T15:28:11Z</time>
      </trkpt>
      <trkpt lat="49.3649" lon="-1.18556">
        <ele>2.1</ele>
        <time>2022-06-02T15:28:12Z</time>
      </trkpt>
      <trkpt lat="49.3649" lon="-1.1856">
        <ele>2.1</ele>
        <time>2022-06-02T15:28:13Z</time>
      </trkpt>
      <trkpt lat="49.3649" lon="-1.18561">
        <ele>2.1</ele>
        <time>2022-06-02T15:28:14Z</time>
      </trkpt>
      <trkpt lat="49.3649" lon="-1.18562">
        <ele>2.1</ele>
        <time>2022-06-02T15:28:15Z</time>
      </trkpt>
      <trkpt lat="49.3649" lon="-1.18565">
        <ele>2.1</ele>
        <time>2022-06-02T15:28:16Z</time>
      </trkpt>
      <trkpt lat="49.36491" lon="-1.18567">
        <ele>2.1</ele>
        <time>2022-06-02T15:28:17Z</time>
      </trkpt>
      <trkpt lat="49.36491" lon="-1.18568">
        <ele>2.1</ele>
        <time>2022-06-02T15:28:18Z</time>
      </trkpt>
      <trkpt lat="49.36491" lon="-1.1857">
        <ele>2.1</ele>
        <time>2022-06-02T15:28:19Z</time>
      </trkpt>
      <trkpt lat="49.36491" lon="-1.18572">
        <ele>2.1</ele>
        <time>2022-06-02T15:28:20Z</time>
      </trkpt>
      <trkpt lat="49.36492" lon="-1.18573">
        <ele>2.1</ele>
        <time>2022-06-02T15:28:22Z</time>
      </trkpt>
      <trkpt lat="49.36492" lon="-1.18575">
        <ele>2.1</ele>
        <time>2022-06-02T15:28:23Z</time>
      </trkpt>
      <trkpt lat="49.36492" lon="-1.18577">
        <ele>2.1</ele>
        <time>2022-06-02T15:28:24Z</time>
      </trkpt>
      <trkpt lat="49.36492" lon="-1.18578">
        <ele>2.1</ele>
        <time>2022-06-02T15:28:25Z</time>
      </trkpt>
      <trkpt lat="49.36493" lon="-1.18582">
        <ele>2.1</ele>
        <time>2022-06-02T15:28:26Z</time>
      </trkpt>
      <trkpt lat="49.36493" lon="-1.18583">
        <ele>2.1</ele>
        <time>2022-06-02T15:28:27Z</time>
      </trkpt>
      <trkpt lat="49.36493" lon="-1.18585">
        <ele>2.1</ele>
        <time>2022-06-02T15:28:28Z</time>
      </trkpt>
      <trkpt lat="49.36493" lon="-1.18586">
        <ele>2.1</ele>
        <time>2022-06-02T15:28:29Z</time>
      </trkpt>
      <trkpt lat="49.36493" lon="-1.18588">
        <ele>2.1</ele>
        <time>2022-06-02T15:28:30Z</time>
      </trkpt>
      <trkpt lat="49.36493" lon="-1.1859">
        <ele>2.1</ele>
        <time>2022-06-02T15:28:31Z</time>
      </trkpt>
      <trkpt lat="49.36493" lon="-1.18593">
        <ele>2.1</ele>
        <time>2022-06-02T15:28:32Z</time>
      </trkpt>
      <trkpt lat="49.36493" lon="-1.18594">
        <ele>2.1</ele>
        <time>2022-06-02T15:28:34Z</time>
      </trkpt>
      <trkpt lat="49.36493" lon="-1.18596">
        <ele>2.1</ele>
        <time>2022-06-02T15:28:35Z</time>
      </trkpt>
      <trkpt lat="49.36493" lon="-1.18597">
        <ele>2</ele>
        <time>2022-06-02T15:28:36Z</time>
      </trkpt>
      <trkpt lat="49.36492" lon="-1.18599">
        <ele>2</ele>
        <time>2022-06-02T15:28:37Z</time>
      </trkpt>
      <trkpt lat="49.36492" lon="-1.18603">
        <ele>2</ele>
        <time>2022-06-02T15:28:38Z</time>
      </trkpt>
      <trkpt lat="49.36491" lon="-1.18605">
        <ele>2</ele>
        <time>2022-06-02T15:28:40Z</time>
      </trkpt>
      <trkpt lat="49.36491" lon="-1.18606">
        <ele>2</ele>
        <time>2022-06-02T15:28:41Z</time>
      </trkpt>
      <trkpt lat="49.36491" lon="-1.18608">
        <ele>2</ele>
        <time>2022-06-02T15:28:42Z</time>
      </trkpt>
      <trkpt lat="49.3649" lon="-1.1861">
        <ele>2</ele>
        <time>2022-06-02T15:28:43Z</time>
      </trkpt>
      <trkpt lat="49.3649" lon="-1.18611">
        <ele>2</ele>
        <time>2022-06-02T15:28:44Z</time>
      </trkpt>
      <trkpt lat="49.3649" lon="-1.18613">
        <ele>2</ele>
        <time>2022-06-02T15:28:46Z</time>
      </trkpt>
      <trkpt lat="49.3649" lon="-1.18615">
        <ele>2</ele>
        <time>2022-06-02T15:28:47Z</time>
      </trkpt>
      <trkpt lat="49.36489" lon="-1.18618">
        <ele>2</ele>
        <time>2022-06-02T15:28:48Z</time>
      </trkpt>
      <trkpt lat="49.36489" lon="-1.18619">
        <ele>2</ele>
        <time>2022-06-02T15:28:49Z</time>
      </trkpt>
      <trkpt lat="49.36489" lon="-1.1862">
        <ele>2</ele>
        <time>2022-06-02T15:28:50Z</time>
      </trkpt>
      <trkpt lat="49.36488" lon="-1.18622">
        <ele>2</ele>
        <time>2022-06-02T15:28:51Z</time>
      </trkpt>
      <trkpt lat="49.36487" lon="-1.18624">
        <ele>2</ele>
        <time>2022-06-02T15:28:52Z</time>
      </trkpt>
      <trkpt lat="49.36486" lon="-1.18627">
        <ele>2</ele>
        <time>2022-06-02T15:28:53Z</time>
      </trkpt>
      <trkpt lat="49.36486" lon="-1.18628">
        <ele>2</ele>
        <time>2022-06-02T15:28:54Z</time>
      </trkpt>
      <trkpt lat="49.36486" lon="-1.18629">
        <ele>2</ele>
        <time>2022-06-02T15:28:55Z</time>
      </trkpt>
      <trkpt lat="49.36485" lon="-1.18631">
        <ele>2</ele>
        <time>2022-06-02T15:28:56Z</time>
      </trkpt>
      <trkpt lat="49.36485" lon="-1.18632">
        <ele>2</ele>
        <time>2022-06-02T15:28:58Z</time>
      </trkpt>
      <trkpt lat="49.36484" lon="-1.18634">
        <ele>2</ele>
        <time>2022-06-02T15:28:59Z</time>
      </trkpt>
      <trkpt lat="49.36484" lon="-1.18635">
        <ele>2</ele>
        <time>2022-06-02T15:29:00Z</time>
      </trkpt>
      <trkpt lat="49.36483" lon="-1.18637">
        <ele>2</ele>
        <time>2022-06-02T15:29:01Z</time>
      </trkpt>
      <trkpt lat="49.36483" lon="-1.18639">
        <ele>2</ele>
        <time>2022-06-02T15:29:02Z</time>
      </trkpt>
      <trkpt lat="49.36482" lon="-1.18641">
        <ele>2</ele>
        <time>2022-06-02T15:29:04Z</time>
      </trkpt>
      <trkpt lat="49.36481" lon="-1.18642">
        <ele>2</ele>
        <time>2022-06-02T15:29:05Z</time>
      </trkpt>
      <trkpt lat="49.36481" lon="-1.18643">
        <ele>2</ele>
        <time>2022-06-02T15:29:06Z</time>
      </trkpt>
      <trkpt lat="49.3648" lon="-1.18645">
        <ele>2</ele>
        <time>2022-06-02T15:29:07Z</time>
      </trkpt>
      <trkpt lat="49.3648" lon="-1.18648">
        <ele>2</ele>
        <time>2022-06-02T15:29:08Z</time>
      </trkpt>
      <trkpt lat="49.3648" lon="-1.18649">
        <ele>2</ele>
        <time>2022-06-02T15:29:09Z</time>
      </trkpt>
      <trkpt lat="49.36479" lon="-1.1865">
        <ele>2</ele>
        <time>2022-06-02T15:29:10Z</time>
      </trkpt>
      <trkpt lat="49.36479" lon="-1.18651">
        <ele>2</ele>
        <time>2022-06-02T15:29:11Z</time>
      </trkpt>
      <trkpt lat="49.36478" lon="-1.18652">
        <ele>2</ele>
        <time>2022-06-02T15:29:12Z</time>
      </trkpt>
      <trkpt lat="49.36478" lon="-1.18654">
        <ele>2</ele>
        <time>2022-06-02T15:29:13Z</time>
      </trkpt>
      <trkpt lat="49.36477" lon="-1.18655">
        <ele>2</ele>
        <time>2022-06-02T15:29:14Z</time>
      </trkpt>
      <trkpt lat="49.36477" lon="-1.18657">
        <ele>2</ele>
        <time>2022-06-02T15:29:15Z</time>
      </trkpt>
      <trkpt lat="49.36476" lon="-1.1866">
        <ele>2</ele>
        <time>2022-06-02T15:29:17Z</time>
      </trkpt>
      <trkpt lat="49.36476" lon="-1.18661">
        <ele>2</ele>
        <time>2022-06-02T15:29:18Z</time>
      </trkpt>
      <trkpt lat="49.36475" lon="-1.18662">
        <ele>2</ele>
        <time>2022-06-02T15:29:19Z</time>
      </trkpt>
      <trkpt lat="49.36475" lon="-1.18664">
        <ele>2</ele>
        <time>2022-06-02T15:29:20Z</time>
      </trkpt>
      <trkpt lat="49.36475" lon="-1.18665">
        <ele>2</ele>
        <time>2022-06-02T15:29:21Z</time>
      </trkpt>
      <trkpt lat="49.36474" lon="-1.18667">
        <ele>2</ele>
        <time>2022-06-02T15:29:22Z</time>
      </trkpt>
      <trkpt lat="49.36474" lon="-1.18669">
        <ele>2</ele>
        <time>2022-06-02T15:29:23Z</time>
      </trkpt>
      <trkpt lat="49.36474" lon="-1.1867">
        <ele>2</ele>
        <time>2022-06-02T15:29:24Z</time>
      </trkpt>
      <trkpt lat="49.36474" lon="-1.18672">
        <ele>2</ele>
        <time>2022-06-02T15:29:25Z</time>
      </trkpt>
      <trkpt lat="49.36473" lon="-1.18675">
        <ele>2</ele>
        <time>2022-06-02T15:29:26Z</time>
      </trkpt>
      <trkpt lat="49.36473" lon="-1.18676">
        <ele>2</ele>
        <time>2022-06-02T15:29:28Z</time>
      </trkpt>
      <trkpt lat="49.36473" lon="-1.18677">
        <ele>2</ele>
        <time>2022-06-02T15:29:29Z</time>
      </trkpt>
      <trkpt lat="49.36472" lon="-1.1868">
        <ele>2</ele>
        <time>2022-06-02T15:29:30Z</time>
      </trkpt>
      <trkpt lat="49.36472" lon="-1.18682">
        <ele>2</ele>
        <time>2022-06-02T15:29:31Z</time>
      </trkpt>
      <trkpt lat="49.36472" lon="-1.18683">
        <ele>2</ele>
        <time>2022-06-02T15:29:32Z</time>
      </trkpt>
      <trkpt lat="49.36471" lon="-1.18685">
        <ele>2</ele>
        <time>2022-06-02T15:29:33Z</time>
      </trkpt>
      <trkpt lat="49.36471" lon="-1.18686">
        <ele>2</ele>
        <time>2022-06-02T15:29:34Z</time>
      </trkpt>
      <trkpt lat="49.36471" lon="-1.18688">
        <ele>2</ele>
        <time>2022-06-02T15:29:35Z</time>
      </trkpt>
      <trkpt lat="49.3647" lon="-1.18691">
        <ele>2</ele>
        <time>2022-06-02T15:29:36Z</time>
      </trkpt>
      <trkpt lat="49.3647" lon="-1.18692">
        <ele>2</ele>
        <time>2022-06-02T15:29:37Z</time>
      </trkpt>
      <trkpt lat="49.36469" lon="-1.18694">
        <ele>2</ele>
        <time>2022-06-02T15:29:38Z</time>
      </trkpt>
      <trkpt lat="49.36469" lon="-1.18697">
        <ele>2</ele>
        <time>2022-06-02T15:29:39Z</time>
      </trkpt>
      <trkpt lat="49.36468" lon="-1.18698">
        <ele>2</ele>
        <time>2022-06-02T15:29:41Z</time>
      </trkpt>
      <trkpt lat="49.36468" lon="-1.18699">
        <ele>2</ele>
        <time>2022-06-02T15:29:42Z</time>
      </trkpt>
      <trkpt lat="49.36468" lon="-1.18701">
        <ele>2</ele>
        <time>2022-06-02T15:29:43Z</time>
      </trkpt>
      <trkpt lat="49.36467" lon="-1.18703">
        <ele>2</ele>
        <time>2022-06-02T15:29:44Z</time>
      </trkpt>
      <trkpt lat="49.36467" lon="-1.18704">
        <ele>2</ele>
        <time>2022-06-02T15:29:45Z</time>
      </trkpt>
      <trkpt lat="49.36466" lon="-1.18707">
        <ele>2</ele>
        <time>2022-06-02T15:29:46Z</time>
      </trkpt>
      <trkpt lat="49.36466" lon="-1.18708">
        <ele>2</ele>
        <time>2022-06-02T15:29:47Z</time>
      </trkpt>
      <trkpt lat="49.36466" lon="-1.1871">
        <ele>2</ele>
        <time>2022-06-02T15:29:48Z</time>
      </trkpt>
      <trkpt lat="49.36466" lon="-1.18711">
        <ele>2</ele>
        <time>2022-06-02T15:29:49Z</time>
      </trkpt>
      <trkpt lat="49.36465" lon="-1.18713">
        <ele>2</ele>
        <time>2022-06-02T15:29:50Z</time>
      </trkpt>
      <trkpt lat="49.36465" lon="-1.18715">
        <ele>2</ele>
        <time>2022-06-02T15:29:52Z</time>
      </trkpt>
      <trkpt lat="49.36465" lon="-1.18716">
        <ele>2</ele>
        <time>2022-06-02T15:29:53Z</time>
      </trkpt>
      <trkpt lat="49.36465" lon="-1.18719">
        <ele>2</ele>
        <time>2022-06-02T15:29:54Z</time>
      </trkpt>
      <trkpt lat="49.36465" lon="-1.18721">
        <ele>2</ele>
        <time>2022-06-02T15:29:55Z</time>
      </trkpt>
      <trkpt lat="49.36464" lon="-1.18724">
        <ele>2</ele>
        <time>2022-06-02T15:29:56Z</time>
      </trkpt>
      <trkpt lat="49.36464" lon="-1.18725">
        <ele>2</ele>
        <time>2022-06-02T15:29:58Z</time>
      </trkpt>
      <trkpt lat="49.36464" lon="-1.18727">
        <ele>2</ele>
        <time>2022-06-02T15:29:59Z</time>
      </trkpt>
      <trkpt lat="49.36463" lon="-1.18729">
        <ele>2</ele>
        <time>2022-06-02T15:30:00Z</time>
      </trkpt>
      <trkpt lat="49.36463" lon="-1.18731">
        <ele>2</ele>
        <time>2022-06-02T15:30:01Z</time>
      </trkpt>
      <trkpt lat="49.36463" lon="-1.18733">
        <ele>2.1</ele>
        <time>2022-06-02T15:30:02Z</time>
      </trkpt>
      <trkpt lat="49.36463" lon="-1.18735">
        <ele>2.1</ele>
        <time>2022-06-02T15:30:04Z</time>
      </trkpt>
      <trkpt lat="49.36464" lon="-1.18736">
        <ele>2.1</ele>
        <time>2022-06-02T15:30:05Z</time>
      </trkpt>
      <trkpt lat="49.36464" lon="-1.18737">
        <ele>2.1</ele>
        <time>2022-06-02T15:30:06Z</time>
      </trkpt>
      <trkpt lat="49.36465" lon="-1.18738">
        <ele>2.1</ele>
        <time>2022-06-02T15:30:07Z</time>
      </trkpt>
      <trkpt lat="49.36465" lon="-1.18739">
        <ele>2.1</ele>
        <time>2022-06-02T15:30:08Z</time>
      </trkpt>
      <trkpt lat="49.36465" lon="-1.18739">
        <ele>2.1</ele>
        <time>2022-06-02T15:30:09Z</time>
      </trkpt>
      <trkpt lat="49.36466" lon="-1.18739">
        <ele>2.1</ele>
        <time>2022-06-02T15:30:10Z</time>
      </trkpt>
      <trkpt lat="49.36466" lon="-1.18738">
        <ele>2.1</ele>
        <time>2022-06-02T15:30:11Z</time>
      </trkpt>
      <trkpt lat="49.36467" lon="-1.18738">
        <ele>2.1</ele>
        <time>2022-06-02T15:30:12Z</time>
      </trkpt>
      <trkpt lat="49.36467" lon="-1.18737">
        <ele>2.1</ele>
        <time>2022-06-02T15:30:13Z</time>
      </trkpt>
      <trkpt lat="49.36467" lon="-1.18737">
        <ele>2.1</ele>
        <time>2022-06-02T15:30:14Z</time>
      </trkpt>
      <trkpt lat="49.36467" lon="-1.18736">
        <ele>2.1</ele>
        <time>2022-06-02T15:30:15Z</time>
      </trkpt>
      <trkpt lat="49.36467" lon="-1.18736">
        <ele>2.1</ele>
        <time>2022-06-02T15:30:16Z</time>
      </trkpt>
      <trkpt lat="49.36467" lon="-1.18736">
        <ele>2.1</ele>
        <time>2022-06-02T15:30:17Z</time>
      </trkpt>
      <trkpt lat="49.36467" lon="-1.18736">
        <ele>2.1</ele>
        <time>2022-06-02T15:30:18Z</time>
      </trkpt>
      <trkpt lat="49.36467" lon="-1.18736">
        <ele>2.1</ele>
        <time>2022-06-02T15:30:19Z</time>
      </trkpt>
      <trkpt lat="49.36467" lon="-1.18737">
        <ele>2.1</ele>
        <time>2022-06-02T15:30:20Z</time>
      </trkpt>
      <trkpt lat="49.36467" lon="-1.18737">
        <ele>2.1</ele>
        <time>2022-06-02T15:30:22Z</time>
      </trkpt>
      <trkpt lat="49.36467" lon="-1.18738">
        <ele>2.1</ele>
        <time>2022-06-02T15:30:23Z</time>
      </trkpt>
      <trkpt lat="49.36466" lon="-1.18739">
        <ele>2.1</ele>
        <time>2022-06-02T15:30:24Z</time>
      </trkpt>
      <trkpt lat="49.36466" lon="-1.18739">
        <ele>2.1</ele>
        <time>2022-06-02T15:30:25Z</time>
      </trkpt>
      <trkpt lat="49.36465" lon="-1.18741">
        <ele>2.1</ele>
        <time>2022-06-02T15:30:26Z</time>
      </trkpt>
      <trkpt lat="49.36464" lon="-1.18743">
        <ele>2.1</ele>
        <time>2022-06-02T15:30:27Z</time>
      </trkpt>
      <trkpt lat="49.36464" lon="-1.18744">
        <ele>2.1</ele>
        <time>2022-06-02T15:30:28Z</time>
      </trkpt>
      <trkpt lat="49.36463" lon="-1.18745">
        <ele>2.1</ele>
        <time>2022-06-02T15:30:29Z</time>
      </trkpt>
      <trkpt lat="49.36463" lon="-1.18747">
        <ele>2.1</ele>
        <time>2022-06-02T15:30:30Z</time>
      </trkpt>
      <trkpt lat="49.36462" lon="-1.18748">
        <ele>2.1</ele>
        <time>2022-06-02T15:30:32Z</time>
      </trkpt>
      <trkpt lat="49.36461" lon="-1.1875">
        <ele>2.1</ele>
        <time>2022-06-02T15:30:33Z</time>
      </trkpt>
      <trkpt lat="49.3646" lon="-1.18753">
        <ele>2.1</ele>
        <time>2022-06-02T15:30:34Z</time>
      </trkpt>
      <trkpt lat="49.3646" lon="-1.18754">
        <ele>2.1</ele>
        <time>2022-06-02T15:30:35Z</time>
      </trkpt>
      <trkpt lat="49.3646" lon="-1.18755">
        <ele>2.1</ele>
        <time>2022-06-02T15:30:36Z</time>
      </trkpt>
      <trkpt lat="49.3646" lon="-1.18757">
        <ele>2.1</ele>
        <time>2022-06-02T15:30:37Z</time>
      </trkpt>
      <trkpt lat="49.3646" lon="-1.18759">
        <ele>2.1</ele>
        <time>2022-06-02T15:30:39Z</time>
      </trkpt>
      <trkpt lat="49.3646" lon="-1.18759">
        <ele>2.1</ele>
        <time>2022-06-02T15:30:40Z</time>
      </trkpt>
      <trkpt lat="49.3646" lon="-1.1876">
        <ele>2.1</ele>
        <time>2022-06-02T15:30:41Z</time>
      </trkpt>
      <trkpt lat="49.3646" lon="-1.18763">
        <ele>2.1</ele>
        <time>2022-06-02T15:30:42Z</time>
      </trkpt>
      <trkpt lat="49.3646" lon="-1.18765">
        <ele>2.1</ele>
        <time>2022-06-02T15:30:43Z</time>
      </trkpt>
      <trkpt lat="49.3646" lon="-1.18766">
        <ele>2.1</ele>
        <time>2022-06-02T15:30:44Z</time>
      </trkpt>
      <trkpt lat="49.3646" lon="-1.18768">
        <ele>2.1</ele>
        <time>2022-06-02T15:30:45Z</time>
      </trkpt>
      <trkpt lat="49.36459" lon="-1.1877">
        <ele>2.1</ele>
        <time>2022-06-02T15:30:46Z</time>
      </trkpt>
      <trkpt lat="49.36459" lon="-1.18771">
        <ele>2.1</ele>
        <time>2022-06-02T15:30:47Z</time>
      </trkpt>
      <trkpt lat="49.36459" lon="-1.18774">
        <ele>2.1</ele>
        <time>2022-06-02T15:30:49Z</time>
      </trkpt>
      <trkpt lat="49.36459" lon="-1.18776">
        <ele>2.1</ele>
        <time>2022-06-02T15:30:50Z</time>
      </trkpt>
      <trkpt lat="49.36459" lon="-1.18777">
        <ele>2.1</ele>
        <time>2022-06-02T15:30:51Z</time>
      </trkpt>
      <trkpt lat="49.36459" lon="-1.18779">
        <ele>2.1</ele>
        <time>2022-06-02T15:30:52Z</time>
      </trkpt>
      <trkpt lat="49.36459" lon="-1.18782">
        <ele>2.1</ele>
        <time>2022-06-02T15:30:53Z</time>
      </trkpt>
      <trkpt lat="49.36459" lon="-1.18787">
        <ele>2.1</ele>
        <time>2022-06-02T15:30:54Z</time>
      </trkpt>
      <trkpt lat="49.36459" lon="-1.18789">
        <ele>2.1</ele>
        <time>2022-06-02T15:30:56Z</time>
      </trkpt>
      <trkpt lat="49.36459" lon="-1.18791">
        <ele>2.2</ele>
        <time>2022-06-02T15:30:57Z</time>
      </trkpt>
      <trkpt lat="49.36459" lon="-1.18794">
        <ele>2.2</ele>
        <time>2022-06-02T15:30:58Z</time>
      </trkpt>
      <trkpt lat="49.36459" lon="-1.18796">
        <ele>2.2</ele>
        <time>2022-06-02T15:30:59Z</time>
      </trkpt>
      <trkpt lat="49.36459" lon="-1.18798">
        <ele>2.2</ele>
        <time>2022-06-02T15:31:00Z</time>
      </trkpt>
      <trkpt lat="49.36459" lon="-1.18802">
        <ele>2.2</ele>
        <time>2022-06-02T15:31:01Z</time>
      </trkpt>
      <trkpt lat="49.36459" lon="-1.18803">
        <ele>2.2</ele>
        <time>2022-06-02T15:31:02Z</time>
      </trkpt>
      <trkpt lat="49.36459" lon="-1.18804">
        <ele>2.2</ele>
        <time>2022-06-02T15:31:03Z</time>
      </trkpt>
      <trkpt lat="49.36459" lon="-1.18806">
        <ele>2.2</ele>
        <time>2022-06-02T15:31:04Z</time>
      </trkpt>
      <trkpt lat="49.36459" lon="-1.18808">
        <ele>2.2</ele>
        <time>2022-06-02T15:31:05Z</time>
      </trkpt>
      <trkpt lat="49.36459" lon="-1.1881">
        <ele>2.2</ele>
        <time>2022-06-02T15:31:06Z</time>
      </trkpt>
      <trkpt lat="49.36459" lon="-1.18811">
        <ele>2.2</ele>
        <time>2022-06-02T15:31:08Z</time>
      </trkpt>
      <trkpt lat="49.36459" lon="-1.18814">
        <ele>2.2</ele>
        <time>2022-06-02T15:31:09Z</time>
      </trkpt>
      <trkpt lat="49.36459" lon="-1.18817">
        <ele>2.2</ele>
        <time>2022-06-02T15:31:10Z</time>
      </trkpt>
      <trkpt lat="49.36459" lon="-1.18818">
        <ele>2.2</ele>
        <time>2022-06-02T15:31:11Z</time>
      </trkpt>
      <trkpt lat="49.36459" lon="-1.18819">
        <ele>2.2</ele>
        <time>2022-06-02T15:31:12Z</time>
      </trkpt>
      <trkpt lat="49.36458" lon="-1.18822">
        <ele>2.2</ele>
        <time>2022-06-02T15:31:13Z</time>
      </trkpt>
      <trkpt lat="49.36458" lon="-1.18823">
        <ele>2.2</ele>
        <time>2022-06-02T15:31:14Z</time>
      </trkpt>
      <trkpt lat="49.36459" lon="-1.18825">
        <ele>2.2</ele>
        <time>2022-06-02T15:31:15Z</time>
      </trkpt>
      <trkpt lat="49.36459" lon="-1.18827">
        <ele>2.2</ele>
        <time>2022-06-02T15:31:16Z</time>
      </trkpt>
      <trkpt lat="49.36459" lon="-1.18829">
        <ele>2.2</ele>
        <time>2022-06-02T15:31:17Z</time>
      </trkpt>
      <trkpt lat="49.36459" lon="-1.18831">
        <ele>2.2</ele>
        <time>2022-06-02T15:31:19Z</time>
      </trkpt>
      <trkpt lat="49.36458" lon="-1.18834">
        <ele>2.2</ele>
        <time>2022-06-02T15:31:20Z</time>
      </trkpt>
      <trkpt lat="49.36458" lon="-1.18836">
        <ele>2.2</ele>
        <time>2022-06-02T15:31:21Z</time>
      </trkpt>
      <trkpt lat="49.36458" lon="-1.18837">
        <ele>2.2</ele>
        <time>2022-06-02T15:31:22Z</time>
      </trkpt>
      <trkpt lat="49.36457" lon="-1.18841">
        <ele>2.2</ele>
        <time>2022-06-02T15:31:23Z</time>
      </trkpt>
      <trkpt lat="49.36457" lon="-1.18842">
        <ele>2.2</ele>
        <time>2022-06-02T15:31:24Z</time>
      </trkpt>
      <trkpt lat="49.36456" lon="-1.18842">
        <ele>2.2</ele>
        <time>2022-06-02T15:31:25Z</time>
      </trkpt>
      <trkpt lat="49.36456" lon="-1.18844">
        <ele>2.2</ele>
        <time>2022-06-02T15:31:26Z</time>
      </trkpt>
      <trkpt lat="49.36456" lon="-1.18846">
        <ele>2.3</ele>
        <time>2022-06-02T15:31:27Z</time>
      </trkpt>
      <trkpt lat="49.36455" lon="-1.18848">
        <ele>2.3</ele>
        <time>2022-06-02T15:31:29Z</time>
      </trkpt>
      <trkpt lat="49.36455" lon="-1.1885">
        <ele>2.3</ele>
        <time>2022-06-02T15:31:30Z</time>
      </trkpt>
      <trkpt lat="49.36455" lon="-1.18851">
        <ele>2.3</ele>
        <time>2022-06-02T15:31:31Z</time>
      </trkpt>
      <trkpt lat="49.36454" lon="-1.18853">
        <ele>2.3</ele>
        <time>2022-06-02T15:31:32Z</time>
      </trkpt>
      <trkpt lat="49.36454" lon="-1.18855">
        <ele>2.3</ele>
        <time>2022-06-02T15:31:33Z</time>
      </trkpt>
      <trkpt lat="49.36453" lon="-1.18857">
        <ele>2.3</ele>
        <time>2022-06-02T15:31:34Z</time>
      </trkpt>
      <trkpt lat="49.36453" lon="-1.18858">
        <ele>2.3</ele>
        <time>2022-06-02T15:31:35Z</time>
      </trkpt>
      <trkpt lat="49.36453" lon="-1.1886">
        <ele>2.3</ele>
        <time>2022-06-02T15:31:36Z</time>
      </trkpt>
      <trkpt lat="49.36452" lon="-1.18861">
        <ele>2.3</ele>
        <time>2022-06-02T15:31:37Z</time>
      </trkpt>
      <trkpt lat="49.36452" lon="-1.18863">
        <ele>2.3</ele>
        <time>2022-06-02T15:31:38Z</time>
      </trkpt>
      <trkpt lat="49.36452" lon="-1.18865">
        <ele>2.3</ele>
        <time>2022-06-02T15:31:40Z</time>
      </trkpt>
      <trkpt lat="49.36451" lon="-1.18866">
        <ele>2.3</ele>
        <time>2022-06-02T15:31:41Z</time>
      </trkpt>
      <trkpt lat="49.36451" lon="-1.18868">
        <ele>2.3</ele>
        <time>2022-06-02T15:31:42Z</time>
      </trkpt>
      <trkpt lat="49.3645" lon="-1.1887">
        <ele>2.3</ele>
        <time>2022-06-02T15:31:43Z</time>
      </trkpt>
      <trkpt lat="49.3645" lon="-1.18872">
        <ele>2.3</ele>
        <time>2022-06-02T15:31:44Z</time>
      </trkpt>
      <trkpt lat="49.3645" lon="-1.18874">
        <ele>2.3</ele>
        <time>2022-06-02T15:31:45Z</time>
      </trkpt>
      <trkpt lat="49.36449" lon="-1.18876">
        <ele>2.3</ele>
        <time>2022-06-02T15:31:46Z</time>
      </trkpt>
      <trkpt lat="49.36449" lon="-1.18878">
        <ele>2.3</ele>
        <time>2022-06-02T15:31:47Z</time>
      </trkpt>
      <trkpt lat="49.3645" lon="-1.1888">
        <ele>2.3</ele>
        <time>2022-06-02T15:31:48Z</time>
      </trkpt>
      <trkpt lat="49.36449" lon="-1.18881">
        <ele>2.3</ele>
        <time>2022-06-02T15:31:49Z</time>
      </trkpt>
      <trkpt lat="49.36449" lon="-1.18883">
        <ele>2.3</ele>
        <time>2022-06-02T15:31:50Z</time>
      </trkpt>
      <trkpt lat="49.36448" lon="-1.18885">
        <ele>2.3</ele>
        <time>2022-06-02T15:31:52Z</time>
      </trkpt>
      <trkpt lat="49.36448" lon="-1.18886">
        <ele>2.3</ele>
        <time>2022-06-02T15:31:53Z</time>
      </trkpt>
      <trkpt lat="49.36447" lon="-1.18888">
        <ele>2.3</ele>
        <time>2022-06-02T15:31:54Z</time>
      </trkpt>
      <trkpt lat="49.36447" lon="-1.18889">
        <ele>2.3</ele>
        <time>2022-06-02T15:31:55Z</time>
      </trkpt>
      <trkpt lat="49.36446" lon="-1.18891">
        <ele>2.3</ele>
        <time>2022-06-02T15:31:56Z</time>
      </trkpt>
      <trkpt lat="49.36446" lon="-1.18892">
        <ele>2.3</ele>
        <time>2022-06-02T15:31:57Z</time>
      </trkpt>
      <trkpt lat="49.36445" lon="-1.18894">
        <ele>2.3</ele>
        <time>2022-06-02T15:31:58Z</time>
      </trkpt>
      <trkpt lat="49.36446" lon="-1.18895">
        <ele>2.3</ele>
        <time>2022-06-02T15:31:59Z</time>
      </trkpt>
      <trkpt lat="49.36445" lon="-1.18898">
        <ele>2.3</ele>
        <time>2022-06-02T15:32:00Z</time>
      </trkpt>
      <trkpt lat="49.36444" lon="-1.18899">
        <ele>2.3</ele>
        <time>2022-06-02T15:32:01Z</time>
      </trkpt>
      <trkpt lat="49.36444" lon="-1.189">
        <ele>2.3</ele>
        <time>2022-06-02T15:32:03Z</time>
      </trkpt>
      <trkpt lat="49.36443" lon="-1.18903">
        <ele>2.3</ele>
        <time>2022-06-02T15:32:04Z</time>
      </trkpt>
      <trkpt lat="49.36442" lon="-1.18904">
        <ele>2.3</ele>
        <time>2022-06-02T15:32:05Z</time>
      </trkpt>
      <trkpt lat="49.36442" lon="-1.18905">
        <ele>2.3</ele>
        <time>2022-06-02T15:32:06Z</time>
      </trkpt>
      <trkpt lat="49.36441" lon="-1.18907">
        <ele>2.3</ele>
        <time>2022-06-02T15:32:07Z</time>
      </trkpt>
      <trkpt lat="49.3644" lon="-1.18909">
        <ele>2.3</ele>
        <time>2022-06-02T15:32:08Z</time>
      </trkpt>
      <trkpt lat="49.36439" lon="-1.18911">
        <ele>2.3</ele>
        <time>2022-06-02T15:32:09Z</time>
      </trkpt>
      <trkpt lat="49.36438" lon="-1.18912">
        <ele>2.3</ele>
        <time>2022-06-02T15:32:10Z</time>
      </trkpt>
      <trkpt lat="49.36436" lon="-1.18915">
        <ele>2.3</ele>
        <time>2022-06-02T15:32:11Z</time>
      </trkpt>
      <trkpt lat="49.36436" lon="-1.18916">
        <ele>2.3</ele>
        <time>2022-06-02T15:32:12Z</time>
      </trkpt>
      <trkpt lat="49.36435" lon="-1.18916">
        <ele>2.3</ele>
        <time>2022-06-02T15:32:13Z</time>
      </trkpt>
      <trkpt lat="49.36434" lon="-1.18918">
        <ele>2.3</ele>
        <time>2022-06-02T15:32:15Z</time>
      </trkpt>
      <trkpt lat="49.36433" lon="-1.18919">
        <ele>2.3</ele>
        <time>2022-06-02T15:32:16Z</time>
      </trkpt>
      <trkpt lat="49.36432" lon="-1.1892">
        <ele>2.3</ele>
        <time>2022-06-02T15:32:17Z</time>
      </trkpt>
      <trkpt lat="49.36431" lon="-1.18921">
        <ele>2.3</ele>
        <time>2022-06-02T15:32:18Z</time>
      </trkpt>
      <trkpt lat="49.3643" lon="-1.18923">
        <ele>2.3</ele>
        <time>2022-06-02T15:32:19Z</time>
      </trkpt>
      <trkpt lat="49.3643" lon="-1.18923">
        <ele>2.2</ele>
        <time>2022-06-02T15:32:20Z</time>
      </trkpt>
      <trkpt lat="49.36429" lon="-1.18925">
        <ele>2.2</ele>
        <time>2022-06-02T15:32:21Z</time>
      </trkpt>
      <trkpt lat="49.36428" lon="-1.18926">
        <ele>2.2</ele>
        <time>2022-06-02T15:32:22Z</time>
      </trkpt>
      <trkpt lat="49.36427" lon="-1.18927">
        <ele>2.2</ele>
        <time>2022-06-02T15:32:23Z</time>
      </trkpt>
      <trkpt lat="49.36427" lon="-1.18929">
        <ele>2.2</ele>
        <time>2022-06-02T15:32:25Z</time>
      </trkpt>
      <trkpt lat="49.36427" lon="-1.1893">
        <ele>2.2</ele>
        <time>2022-06-02T15:32:26Z</time>
      </trkpt>
      <trkpt lat="49.36425" lon="-1.18932">
        <ele>2.2</ele>
        <time>2022-06-02T15:32:27Z</time>
      </trkpt>
      <trkpt lat="49.36425" lon="-1.18933">
        <ele>2.2</ele>
        <time>2022-06-02T15:32:28Z</time>
      </trkpt>
      <trkpt lat="49.36424" lon="-1.18934">
        <ele>2.2</ele>
        <time>2022-06-02T15:32:29Z</time>
      </trkpt>
      <trkpt lat="49.36423" lon="-1.18934">
        <ele>2.2</ele>
        <time>2022-06-02T15:32:30Z</time>
      </trkpt>
      <trkpt lat="49.36423" lon="-1.18936">
        <ele>2.2</ele>
        <time>2022-06-02T15:32:31Z</time>
      </trkpt>
      <trkpt lat="49.36422" lon="-1.18937">
        <ele>2.2</ele>
        <time>2022-06-02T15:32:32Z</time>
      </trkpt>
      <trkpt lat="49.36422" lon="-1.18941">
        <ele>2.2</ele>
        <time>2022-06-02T15:32:33Z</time>
      </trkpt>
      <trkpt lat="49.36422" lon="-1.18942">
        <ele>2.2</ele>
        <time>2022-06-02T15:32:35Z</time>
      </trkpt>
      <trkpt lat="49.36422" lon="-1.18944">
        <ele>2.2</ele>
        <time>2022-06-02T15:32:36Z</time>
      </trkpt>
      <trkpt lat="49.36422" lon="-1.18945">
        <ele>2.2</ele>
        <time>2022-06-02T15:32:37Z</time>
      </trkpt>
      <trkpt lat="49.36423" lon="-1.18947">
        <ele>2.2</ele>
        <time>2022-06-02T15:32:38Z</time>
      </trkpt>
      <trkpt lat="49.36423" lon="-1.18949">
        <ele>2.2</ele>
        <time>2022-06-02T15:32:40Z</time>
      </trkpt>
      <trkpt lat="49.36424" lon="-1.1895">
        <ele>2.2</ele>
        <time>2022-06-02T15:32:41Z</time>
      </trkpt>
      <trkpt lat="49.36425" lon="-1.18949">
        <ele>2.2</ele>
        <time>2022-06-02T15:32:42Z</time>
      </trkpt>
      <trkpt lat="49.36426" lon="-1.18949">
        <ele>2.2</ele>
        <time>2022-06-02T15:32:43Z</time>
      </trkpt>
      <trkpt lat="49.36426" lon="-1.18949">
        <ele>2.2</ele>
        <time>2022-06-02T15:32:44Z</time>
      </trkpt>
      <trkpt lat="49.36426" lon="-1.18949">
        <ele>2.2</ele>
        <time>2022-06-02T15:32:45Z</time>
      </trkpt>
      <trkpt lat="49.36426" lon="-1.18949">
        <ele>2.2</ele>
        <time>2022-06-02T15:32:46Z</time>
      </trkpt>
      <trkpt lat="49.36426" lon="-1.18949">
        <ele>2.2</ele>
        <time>2022-06-02T15:32:47Z</time>
      </trkpt>
      <trkpt lat="49.36426" lon="-1.18948">
        <ele>2.2</ele>
        <time>2022-06-02T15:32:48Z</time>
      </trkpt>
      <trkpt lat="49.36426" lon="-1.18948">
        <ele>2.2</ele>
        <time>2022-06-02T15:32:49Z</time>
      </trkpt>
      <trkpt lat="49.36426" lon="-1.18948">
        <ele>2.2</ele>
        <time>2022-06-02T15:32:50Z</time>
      </trkpt>
      <trkpt lat="49.36426" lon="-1.18948">
        <ele>2.2</ele>
        <time>2022-06-02T15:32:51Z</time>
      </trkpt>
      <trkpt lat="49.36426" lon="-1.18948">
        <ele>2.2</ele>
        <time>2022-06-02T15:32:52Z</time>
      </trkpt>
      <trkpt lat="49.36426" lon="-1.18948">
        <ele>2.2</ele>
        <time>2022-06-02T15:32:53Z</time>
      </trkpt>
      <trkpt lat="49.36426" lon="-1.18948">
        <ele>2.2</ele>
        <time>2022-06-02T15:32:54Z</time>
      </trkpt>
      <trkpt lat="49.36426" lon="-1.18948">
        <ele>2.2</ele>
        <time>2022-06-02T15:32:55Z</time>
      </trkpt>
      <trkpt lat="49.36426" lon="-1.18948">
        <ele>2.2</ele>
        <time>2022-06-02T15:32:56Z</time>
      </trkpt>
      <trkpt lat="49.36426" lon="-1.18948">
        <ele>2.2</ele>
        <time>2022-06-02T15:32:57Z</time>
      </trkpt>
      <trkpt lat="49.36426" lon="-1.18948">
        <ele>2.2</ele>
        <time>2022-06-02T15:32:58Z</time>
      </trkpt>
      <trkpt lat="49.36426" lon="-1.18947">
        <ele>2.2</ele>
        <time>2022-06-02T15:32:59Z</time>
      </trkpt>
      <trkpt lat="49.36426" lon="-1.18947">
        <ele>2.2</ele>
        <time>2022-06-02T15:33:00Z</time>
      </trkpt>
      <trkpt lat="49.36426" lon="-1.18947">
        <ele>2.2</ele>
        <time>2022-06-02T15:33:01Z</time>
      </trkpt>
      <trkpt lat="49.36426" lon="-1.18947">
        <ele>2.2</ele>
        <time>2022-06-02T15:33:02Z</time>
      </trkpt>
      <trkpt lat="49.36426" lon="-1.18947">
        <ele>2.2</ele>
        <time>2022-06-02T15:33:03Z</time>
      </trkpt>
      <trkpt lat="49.36426" lon="-1.18947">
        <ele>2.2</ele>
        <time>2022-06-02T15:33:04Z</time>
      </trkpt>
      <trkpt lat="49.36426" lon="-1.18947">
        <ele>2.2</ele>
        <time>2022-06-02T15:33:05Z</time>
      </trkpt>
      <trkpt lat="49.36426" lon="-1.18947">
        <ele>2.2</ele>
        <time>2022-06-02T15:33:06Z</time>
      </trkpt>
      <trkpt lat="49.36426" lon="-1.18947">
        <ele>2.2</ele>
        <time>2022-06-02T15:33:07Z</time>
      </trkpt>
      <trkpt lat="49.36426" lon="-1.18947">
        <ele>2.2</ele>
        <time>2022-06-02T15:33:08Z</time>
      </trkpt>
      <trkpt lat="49.36426" lon="-1.18947">
        <ele>2.2</ele>
        <time>2022-06-02T15:33:09Z</time>
      </trkpt>
      <trkpt lat="49.36426" lon="-1.18947">
        <ele>2.2</ele>
        <time>2022-06-02T15:33:10Z</time>
      </trkpt>
      <trkpt lat="49.36426" lon="-1.18947">
        <ele>2.2</ele>
        <time>2022-06-02T15:33:11Z</time>
      </trkpt>
      <trkpt lat="49.36426" lon="-1.18947">
        <ele>2.2</ele>
        <time>2022-06-02T15:33:12Z</time>
      </trkpt>
      <trkpt lat="49.36426" lon="-1.18947">
        <ele>2.2</ele>
        <time>2022-06-02T15:33:13Z</time>
      </trkpt>
      <trkpt lat="49.36426" lon="-1.18947">
        <ele>2.2</ele>
        <time>2022-06-02T15:33:14Z</time>
      </trkpt>
      <trkpt lat="49.36426" lon="-1.18947">
        <ele>2.2</ele>
        <time>2022-06-02T15:33:15Z</time>
      </trkpt>
      <trkpt lat="49.36426" lon="-1.18947">
        <ele>2.2</ele>
        <time>2022-06-02T15:33:16Z</time>
      </trkpt>
      <trkpt lat="49.36426" lon="-1.18947">
        <ele>2.2</ele>
        <time>2022-06-02T15:33:17Z</time>
      </trkpt>
      <trkpt lat="49.36426" lon="-1.18947">
        <ele>2.2</ele>
        <time>2022-06-02T15:33:18Z</time>
      </trkpt>
      <trkpt lat="49.36426" lon="-1.18947">
        <ele>2.2</ele>
        <time>2022-06-02T15:33:19Z</time>
      </trkpt>
      <trkpt lat="49.36426" lon="-1.18947">
        <ele>2.2</ele>
        <time>2022-06-02T15:33:20Z</time>
      </trkpt>
      <trkpt lat="49.36426" lon="-1.18947">
        <ele>2.2</ele>
        <time>2022-06-02T15:33:21Z</time>
      </trkpt>
      <trkpt lat="49.36426" lon="-1.18947">
        <ele>2.2</ele>
        <time>2022-06-02T15:33:22Z</time>
      </trkpt>
      <trkpt lat="49.36426" lon="-1.18947">
        <ele>2.2</ele>
        <time>2022-06-02T15:33:23Z</time>
      </trkpt>
      <trkpt lat="49.36426" lon="-1.18947">
        <ele>2.2</ele>
        <time>2022-06-02T15:33:24Z</time>
      </trkpt>
      <trkpt lat="49.36426" lon="-1.18948">
        <ele>2.2</ele>
        <time>2022-06-02T15:33:25Z</time>
      </trkpt>
      <trkpt lat="49.36426" lon="-1.18948">
        <ele>2.2</ele>
        <time>2022-06-02T15:33:27Z</time>
      </trkpt>
      <trkpt lat="49.36426" lon="-1.18949">
        <ele>2.2</ele>
        <time>2022-06-02T15:33:28Z</time>
      </trkpt>
      <trkpt lat="49.36425" lon="-1.1895">
        <ele>2.2</ele>
        <time>2022-06-02T15:33:29Z</time>
      </trkpt>
      <trkpt lat="49.36425" lon="-1.1895">
        <ele>2.2</ele>
        <time>2022-06-02T15:33:30Z</time>
      </trkpt>
      <trkpt lat="49.36424" lon="-1.18951">
        <ele>2.2</ele>
        <time>2022-06-02T15:33:31Z</time>
      </trkpt>
      <trkpt lat="49.36423" lon="-1.18951">
        <ele>2.1</ele>
        <time>2022-06-02T15:33:33Z</time>
      </trkpt>
      <trkpt lat="49.36423" lon="-1.18952">
        <ele>2.1</ele>
        <time>2022-06-02T15:33:34Z</time>
      </trkpt>
      <trkpt lat="49.36421" lon="-1.18953">
        <ele>2.1</ele>
        <time>2022-06-02T15:33:35Z</time>
      </trkpt>
      <trkpt lat="49.36419" lon="-1.18954">
        <ele>2.1</ele>
        <time>2022-06-02T15:33:37Z</time>
      </trkpt>
      <trkpt lat="49.36418" lon="-1.18955">
        <ele>2.1</ele>
        <time>2022-06-02T15:33:38Z</time>
      </trkpt>
      <trkpt lat="49.36417" lon="-1.18955">
        <ele>2.1</ele>
        <time>2022-06-02T15:33:39Z</time>
      </trkpt>
      <trkpt lat="49.36415" lon="-1.18956">
        <ele>2.1</ele>
        <time>2022-06-02T15:33:40Z</time>
      </trkpt>
      <trkpt lat="49.36414" lon="-1.18958">
        <ele>2.1</ele>
        <time>2022-06-02T15:33:41Z</time>
      </trkpt>
      <trkpt lat="49.36413" lon="-1.18959">
        <ele>2.1</ele>
        <time>2022-06-02T15:33:42Z</time>
      </trkpt>
      <trkpt lat="49.36412" lon="-1.1896">
        <ele>2.1</ele>
        <time>2022-06-02T15:33:43Z</time>
      </trkpt>
      <trkpt lat="49.36412" lon="-1.18961">
        <ele>2.2</ele>
        <time>2022-06-02T15:33:44Z</time>
      </trkpt>
      <trkpt lat="49.36411" lon="-1.18962">
        <ele>2.2</ele>
        <time>2022-06-02T15:33:45Z</time>
      </trkpt>
      <trkpt lat="49.3641" lon="-1.18964">
        <ele>2.2</ele>
        <time>2022-06-02T15:33:47Z</time>
      </trkpt>
      <trkpt lat="49.3641" lon="-1.18965">
        <ele>2.2</ele>
        <time>2022-06-02T15:33:48Z</time>
      </trkpt>
      <trkpt lat="49.3641" lon="-1.18966">
        <ele>2.2</ele>
        <time>2022-06-02T15:33:49Z</time>
      </trkpt>
      <trkpt lat="49.36409" lon="-1.18968">
        <ele>2.2</ele>
        <time>2022-06-02T15:33:50Z</time>
      </trkpt>
      <trkpt lat="49.36407" lon="-1.18969">
        <ele>2.2</ele>
        <time>2022-06-02T15:33:51Z</time>
      </trkpt>
      <trkpt lat="49.36406" lon="-1.18971">
        <ele>2.2</ele>
        <time>2022-06-02T15:33:52Z</time>
      </trkpt>
      <trkpt lat="49.36406" lon="-1.18972">
        <ele>2.2</ele>
        <time>2022-06-02T15:33:53Z</time>
      </trkpt>
      <trkpt lat="49.36404" lon="-1.18974">
        <ele>2.2</ele>
        <time>2022-06-02T15:33:55Z</time>
      </trkpt>
      <trkpt lat="49.36403" lon="-1.18975">
        <ele>2.2</ele>
        <time>2022-06-02T15:33:56Z</time>
      </trkpt>
      <trkpt lat="49.36401" lon="-1.18977">
        <ele>2.2</ele>
        <time>2022-06-02T15:33:57Z</time>
      </trkpt>
      <trkpt lat="49.36399" lon="-1.18979">
        <ele>2.2</ele>
        <time>2022-06-02T15:33:58Z</time>
      </trkpt>
      <trkpt lat="49.36398" lon="-1.18981">
        <ele>2.2</ele>
        <time>2022-06-02T15:33:59Z</time>
      </trkpt>
      <trkpt lat="49.36397" lon="-1.18982">
        <ele>2.2</ele>
        <time>2022-06-02T15:34:00Z</time>
      </trkpt>
      <trkpt lat="49.36395" lon="-1.18983">
        <ele>2.2</ele>
        <time>2022-06-02T15:34:01Z</time>
      </trkpt>
      <trkpt lat="49.36394" lon="-1.18983">
        <ele>2.2</ele>
        <time>2022-06-02T15:34:02Z</time>
      </trkpt>
      <trkpt lat="49.36392" lon="-1.18984">
        <ele>2.2</ele>
        <time>2022-06-02T15:34:03Z</time>
      </trkpt>
      <trkpt lat="49.36391" lon="-1.18985">
        <ele>2.2</ele>
        <time>2022-06-02T15:34:04Z</time>
      </trkpt>
      <trkpt lat="49.3639" lon="-1.18986">
        <ele>2.2</ele>
        <time>2022-06-02T15:34:05Z</time>
      </trkpt>
      <trkpt lat="49.36389" lon="-1.18988">
        <ele>2.2</ele>
        <time>2022-06-02T15:34:07Z</time>
      </trkpt>
      <trkpt lat="49.36388" lon="-1.18989">
        <ele>2.2</ele>
        <time>2022-06-02T15:34:08Z</time>
      </trkpt>
      <trkpt lat="49.36386" lon="-1.18992">
        <ele>2.2</ele>
        <time>2022-06-02T15:34:09Z</time>
      </trkpt>
      <trkpt lat="49.36386" lon="-1.18993">
        <ele>2.2</ele>
        <time>2022-06-02T15:34:10Z</time>
      </trkpt>
      <trkpt lat="49.36385" lon="-1.18993">
        <ele>2.2</ele>
        <time>2022-06-02T15:34:11Z</time>
      </trkpt>
      <trkpt lat="49.36385" lon="-1.18995">
        <ele>2.2</ele>
        <time>2022-06-02T15:34:12Z</time>
      </trkpt>
      <trkpt lat="49.36384" lon="-1.18997">
        <ele>2.2</ele>
        <time>2022-06-02T15:34:13Z</time>
      </trkpt>
      <trkpt lat="49.36383" lon="-1.18998">
        <ele>2.2</ele>
        <time>2022-06-02T15:34:14Z</time>
      </trkpt>
      <trkpt lat="49.36382" lon="-1.19">
        <ele>2.2</ele>
        <time>2022-06-02T15:34:16Z</time>
      </trkpt>
      <trkpt lat="49.36381" lon="-1.19001">
        <ele>2.2</ele>
        <time>2022-06-02T15:34:17Z</time>
      </trkpt>
      <trkpt lat="49.36381" lon="-1.19003">
        <ele>2.2</ele>
        <time>2022-06-02T15:34:18Z</time>
      </trkpt>
      <trkpt lat="49.36379" lon="-1.19005">
        <ele>2.2</ele>
        <time>2022-06-02T15:34:19Z</time>
      </trkpt>
      <trkpt lat="49.36378" lon="-1.19006">
        <ele>2.2</ele>
        <time>2022-06-02T15:34:20Z</time>
      </trkpt>
      <trkpt lat="49.36377" lon="-1.19007">
        <ele>2.2</ele>
        <time>2022-06-02T15:34:21Z</time>
      </trkpt>
      <trkpt lat="49.36376" lon="-1.19008">
        <ele>2.1</ele>
        <time>2022-06-02T15:34:22Z</time>
      </trkpt>
      <trkpt lat="49.36376" lon="-1.1901">
        <ele>2.1</ele>
        <time>2022-06-02T15:34:23Z</time>
      </trkpt>
      <trkpt lat="49.36375" lon="-1.19011">
        <ele>2.1</ele>
        <time>2022-06-02T15:34:24Z</time>
      </trkpt>
      <trkpt lat="49.36374" lon="-1.19012">
        <ele>2.1</ele>
        <time>2022-06-02T15:34:25Z</time>
      </trkpt>
      <trkpt lat="49.36373" lon="-1.19013">
        <ele>2.1</ele>
        <time>2022-06-02T15:34:26Z</time>
      </trkpt>
      <trkpt lat="49.36372" lon="-1.19014">
        <ele>2.1</ele>
        <time>2022-06-02T15:34:27Z</time>
      </trkpt>
      <trkpt lat="49.3637" lon="-1.19017">
        <ele>2.1</ele>
        <time>2022-06-02T15:34:28Z</time>
      </trkpt>
      <trkpt lat="49.36369" lon="-1.19018">
        <ele>2.1</ele>
        <time>2022-06-02T15:34:30Z</time>
      </trkpt>
      <trkpt lat="49.36368" lon="-1.19019">
        <ele>2.1</ele>
        <time>2022-06-02T15:34:31Z</time>
      </trkpt>
      <trkpt lat="49.36367" lon="-1.1902">
        <ele>2.1</ele>
        <time>2022-06-02T15:34:32Z</time>
      </trkpt>
      <trkpt lat="49.36366" lon="-1.19022">
        <ele>2.1</ele>
        <time>2022-06-02T15:34:33Z</time>
      </trkpt>
      <trkpt lat="49.36365" lon="-1.19024">
        <ele>2.1</ele>
        <time>2022-06-02T15:34:34Z</time>
      </trkpt>
      <trkpt lat="49.36364" lon="-1.19025">
        <ele>2.1</ele>
        <time>2022-06-02T15:34:35Z</time>
      </trkpt>
      <trkpt lat="49.36363" lon="-1.19026">
        <ele>2.1</ele>
        <time>2022-06-02T15:34:36Z</time>
      </trkpt>
      <trkpt lat="49.36363" lon="-1.19027">
        <ele>2.1</ele>
        <time>2022-06-02T15:34:38Z</time>
      </trkpt>
      <trkpt lat="49.36362" lon="-1.19028">
        <ele>2.1</ele>
        <time>2022-06-02T15:34:39Z</time>
      </trkpt>
      <trkpt lat="49.3636" lon="-1.19031">
        <ele>2</ele>
        <time>2022-06-02T15:34:40Z</time>
      </trkpt>
      <trkpt lat="49.3636" lon="-1.19032">
        <ele>2</ele>
        <time>2022-06-02T15:34:41Z</time>
      </trkpt>
      <trkpt lat="49.36359" lon="-1.19033">
        <ele>2</ele>
        <time>2022-06-02T15:34:42Z</time>
      </trkpt>
      <trkpt lat="49.36358" lon="-1.19035">
        <ele>2</ele>
        <time>2022-06-02T15:34:43Z</time>
      </trkpt>
      <trkpt lat="49.36357" lon="-1.19036">
        <ele>2</ele>
        <time>2022-06-02T15:34:45Z</time>
      </trkpt>
      <trkpt lat="49.36356" lon="-1.19037">
        <ele>2</ele>
        <time>2022-06-02T15:34:46Z</time>
      </trkpt>
      <trkpt lat="49.36355" lon="-1.19038">
        <ele>2</ele>
        <time>2022-06-02T15:34:47Z</time>
      </trkpt>
      <trkpt lat="49.36354" lon="-1.1904">
        <ele>2</ele>
        <time>2022-06-02T15:34:48Z</time>
      </trkpt>
      <trkpt lat="49.36353" lon="-1.19042">
        <ele>2</ele>
        <time>2022-06-02T15:34:49Z</time>
      </trkpt>
      <trkpt lat="49.36353" lon="-1.19043">
        <ele>2</ele>
        <time>2022-06-02T15:34:50Z</time>
      </trkpt>
      <trkpt lat="49.36352" lon="-1.19044">
        <ele>2</ele>
        <time>2022-06-02T15:34:51Z</time>
      </trkpt>
      <trkpt lat="49.36352" lon="-1.19045">
        <ele>2</ele>
        <time>2022-06-02T15:34:52Z</time>
      </trkpt>
      <trkpt lat="49.36351" lon="-1.19046">
        <ele>2</ele>
        <time>2022-06-02T15:34:53Z</time>
      </trkpt>
      <trkpt lat="49.3635" lon="-1.19049">
        <ele>2</ele>
        <time>2022-06-02T15:34:54Z</time>
      </trkpt>
      <trkpt lat="49.36349" lon="-1.19049">
        <ele>2</ele>
        <time>2022-06-02T15:34:55Z</time>
      </trkpt>
      <trkpt lat="49.36349" lon="-1.1905">
        <ele>2</ele>
        <time>2022-06-02T15:34:56Z</time>
      </trkpt>
      <trkpt lat="49.36348" lon="-1.19051">
        <ele>2</ele>
        <time>2022-06-02T15:34:57Z</time>
      </trkpt>
      <trkpt lat="49.36347" lon="-1.19053">
        <ele>2</ele>
        <time>2022-06-02T15:34:58Z</time>
      </trkpt>
      <trkpt lat="49.36345" lon="-1.19055">
        <ele>2</ele>
        <time>2022-06-02T15:35:00Z</time>
      </trkpt>
      <trkpt lat="49.36345" lon="-1.19056">
        <ele>2</ele>
        <time>2022-06-02T15:35:01Z</time>
      </trkpt>
      <trkpt lat="49.36344" lon="-1.19057">
        <ele>2</ele>
        <time>2022-06-02T15:35:02Z</time>
      </trkpt>
      <trkpt lat="49.36343" lon="-1.19059">
        <ele>2</ele>
        <time>2022-06-02T15:35:03Z</time>
      </trkpt>
      <trkpt lat="49.36341" lon="-1.1906">
        <ele>2</ele>
        <time>2022-06-02T15:35:04Z</time>
      </trkpt>
      <trkpt lat="49.36341" lon="-1.19061">
        <ele>2</ele>
        <time>2022-06-02T15:35:05Z</time>
      </trkpt>
      <trkpt lat="49.3634" lon="-1.19062">
        <ele>2</ele>
        <time>2022-06-02T15:35:06Z</time>
      </trkpt>
      <trkpt lat="49.36339" lon="-1.19063">
        <ele>2</ele>
        <time>2022-06-02T15:35:07Z</time>
      </trkpt>
      <trkpt lat="49.36338" lon="-1.19064">
        <ele>2</ele>
        <time>2022-06-02T15:35:08Z</time>
      </trkpt>
      <trkpt lat="49.36337" lon="-1.19067">
        <ele>2</ele>
        <time>2022-06-02T15:35:09Z</time>
      </trkpt>
      <trkpt lat="49.36336" lon="-1.19067">
        <ele>2</ele>
        <time>2022-06-02T15:35:10Z</time>
      </trkpt>
      <trkpt lat="49.36336" lon="-1.19068">
        <ele>2</ele>
        <time>2022-06-02T15:35:11Z</time>
      </trkpt>
      <trkpt lat="49.36335" lon="-1.1907">
        <ele>2</ele>
        <time>2022-06-02T15:35:12Z</time>
      </trkpt>
      <trkpt lat="49.36334" lon="-1.19071">
        <ele>2</ele>
        <time>2022-06-02T15:35:13Z</time>
      </trkpt>
      <trkpt lat="49.36333" lon="-1.19074">
        <ele>2</ele>
        <time>2022-06-02T15:35:15Z</time>
      </trkpt>
      <trkpt lat="49.36332" lon="-1.19075">
        <ele>2</ele>
        <time>2022-06-02T15:35:16Z</time>
      </trkpt>
      <trkpt lat="49.36332" lon="-1.19076">
        <ele>2</ele>
        <time>2022-06-02T15:35:17Z</time>
      </trkpt>
      <trkpt lat="49.36331" lon="-1.19077">
        <ele>2</ele>
        <time>2022-06-02T15:35:18Z</time>
      </trkpt>
      <trkpt lat="49.36329" lon="-1.19079">
        <ele>2</ele>
        <time>2022-06-02T15:35:19Z</time>
      </trkpt>
      <trkpt lat="49.36328" lon="-1.1908">
        <ele>2</ele>
        <time>2022-06-02T15:35:20Z</time>
      </trkpt>
      <trkpt lat="49.36328" lon="-1.19081">
        <ele>2</ele>
        <time>2022-06-02T15:35:21Z</time>
      </trkpt>
      <trkpt lat="49.36327" lon="-1.19082">
        <ele>2</ele>
        <time>2022-06-02T15:35:22Z</time>
      </trkpt>
      <trkpt lat="49.36326" lon="-1.19082">
        <ele>2</ele>
        <time>2022-06-02T15:35:23Z</time>
      </trkpt>
      <trkpt lat="49.36325" lon="-1.19084">
        <ele>2</ele>
        <time>2022-06-02T15:35:24Z</time>
      </trkpt>
      <trkpt lat="49.36325" lon="-1.19085">
        <ele>2</ele>
        <time>2022-06-02T15:35:25Z</time>
      </trkpt>
      <trkpt lat="49.36324" lon="-1.19086">
        <ele>2</ele>
        <time>2022-06-02T15:35:26Z</time>
      </trkpt>
      <trkpt lat="49.36323" lon="-1.19088">
        <ele>2</ele>
        <time>2022-06-02T15:35:28Z</time>
      </trkpt>
      <trkpt lat="49.36322" lon="-1.1909">
        <ele>2</ele>
        <time>2022-06-02T15:35:29Z</time>
      </trkpt>
      <trkpt lat="49.36321" lon="-1.19091">
        <ele>2</ele>
        <time>2022-06-02T15:35:30Z</time>
      </trkpt>
      <trkpt lat="49.36321" lon="-1.19092">
        <ele>2</ele>
        <time>2022-06-02T15:35:31Z</time>
      </trkpt>
      <trkpt lat="49.3632" lon="-1.19093">
        <ele>2</ele>
        <time>2022-06-02T15:35:32Z</time>
      </trkpt>
      <trkpt lat="49.36319" lon="-1.19094">
        <ele>2</ele>
        <time>2022-06-02T15:35:33Z</time>
      </trkpt>
      <trkpt lat="49.36317" lon="-1.19096">
        <ele>2</ele>
        <time>2022-06-02T15:35:34Z</time>
      </trkpt>
      <trkpt lat="49.36317" lon="-1.19097">
        <ele>2</ele>
        <time>2022-06-02T15:35:35Z</time>
      </trkpt>
      <trkpt lat="49.36316" lon="-1.19098">
        <ele>2</ele>
        <time>2022-06-02T15:35:36Z</time>
      </trkpt>
      <trkpt lat="49.36315" lon="-1.19101">
        <ele>1.9</ele>
        <time>2022-06-02T15:35:37Z</time>
      </trkpt>
      <trkpt lat="49.36314" lon="-1.19102">
        <ele>1.9</ele>
        <time>2022-06-02T15:35:38Z</time>
      </trkpt>
      <trkpt lat="49.36313" lon="-1.19103">
        <ele>1.9</ele>
        <time>2022-06-02T15:35:39Z</time>
      </trkpt>
      <trkpt lat="49.36313" lon="-1.19104">
        <ele>1.9</ele>
        <time>2022-06-02T15:35:41Z</time>
      </trkpt>
      <trkpt lat="49.36312" lon="-1.19105">
        <ele>1.9</ele>
        <time>2022-06-02T15:35:42Z</time>
      </trkpt>
      <trkpt lat="49.36311" lon="-1.19106">
        <ele>1.9</ele>
        <time>2022-06-02T15:35:43Z</time>
      </trkpt>
      <trkpt lat="49.36309" lon="-1.19108">
        <ele>1.9</ele>
        <time>2022-06-02T15:35:44Z</time>
      </trkpt>
      <trkpt lat="49.36308" lon="-1.19108">
        <ele>1.9</ele>
        <time>2022-06-02T15:35:45Z</time>
      </trkpt>
      <trkpt lat="49.36308" lon="-1.19109">
        <ele>1.9</ele>
        <time>2022-06-02T15:35:46Z</time>
      </trkpt>
      <trkpt lat="49.36306" lon="-1.19111">
        <ele>1.9</ele>
        <time>2022-06-02T15:35:47Z</time>
      </trkpt>
      <trkpt lat="49.36306" lon="-1.19112">
        <ele>1.9</ele>
        <time>2022-06-02T15:35:48Z</time>
      </trkpt>
      <trkpt lat="49.36305" lon="-1.19113">
        <ele>1.9</ele>
        <time>2022-06-02T15:35:49Z</time>
      </trkpt>
      <trkpt lat="49.36305" lon="-1.19114">
        <ele>1.9</ele>
        <time>2022-06-02T15:35:50Z</time>
      </trkpt>
      <trkpt lat="49.36304" lon="-1.19115">
        <ele>1.9</ele>
        <time>2022-06-02T15:35:51Z</time>
      </trkpt>
      <trkpt lat="49.36303" lon="-1.19116">
        <ele>1.9</ele>
        <time>2022-06-02T15:35:52Z</time>
      </trkpt>
      <trkpt lat="49.36302" lon="-1.19117">
        <ele>1.9</ele>
        <time>2022-06-02T15:35:54Z</time>
      </trkpt>
      <trkpt lat="49.36301" lon="-1.19119">
        <ele>1.9</ele>
        <time>2022-06-02T15:35:55Z</time>
      </trkpt>
      <trkpt lat="49.363" lon="-1.1912">
        <ele>1.9</ele>
        <time>2022-06-02T15:35:56Z</time>
      </trkpt>
      <trkpt lat="49.36299" lon="-1.19121">
        <ele>1.9</ele>
        <time>2022-06-02T15:35:57Z</time>
      </trkpt>
      <trkpt lat="49.36298" lon="-1.19122">
        <ele>1.9</ele>
        <time>2022-06-02T15:35:58Z</time>
      </trkpt>
      <trkpt lat="49.36297" lon="-1.19123">
        <ele>1.9</ele>
        <time>2022-06-02T15:35:59Z</time>
      </trkpt>
      <trkpt lat="49.36296" lon="-1.19124">
        <ele>1.9</ele>
        <time>2022-06-02T15:36:00Z</time>
      </trkpt>
      <trkpt lat="49.36295" lon="-1.19125">
        <ele>1.9</ele>
        <time>2022-06-02T15:36:01Z</time>
      </trkpt>
      <trkpt lat="49.36294" lon="-1.19127">
        <ele>1.9</ele>
        <time>2022-06-02T15:36:02Z</time>
      </trkpt>
      <trkpt lat="49.36293" lon="-1.19128">
        <ele>1.9</ele>
        <time>2022-06-02T15:36:03Z</time>
      </trkpt>
      <trkpt lat="49.36293" lon="-1.19129">
        <ele>1.9</ele>
        <time>2022-06-02T15:36:04Z</time>
      </trkpt>
      <trkpt lat="49.36292" lon="-1.1913">
        <ele>1.9</ele>
        <time>2022-06-02T15:36:05Z</time>
      </trkpt>
      <trkpt lat="49.36291" lon="-1.19132">
        <ele>1.9</ele>
        <time>2022-06-02T15:36:06Z</time>
      </trkpt>
      <trkpt lat="49.36291" lon="-1.19133">
        <ele>1.9</ele>
        <time>2022-06-02T15:36:08Z</time>
      </trkpt>
      <trkpt lat="49.3629" lon="-1.19135">
        <ele>1.9</ele>
        <time>2022-06-02T15:36:09Z</time>
      </trkpt>
      <trkpt lat="49.36289" lon="-1.19137">
        <ele>1.9</ele>
        <time>2022-06-02T15:36:10Z</time>
      </trkpt>
      <trkpt lat="49.36288" lon="-1.19138">
        <ele>1.9</ele>
        <time>2022-06-02T15:36:11Z</time>
      </trkpt>
      <trkpt lat="49.36287" lon="-1.19139">
        <ele>1.9</ele>
        <time>2022-06-02T15:36:12Z</time>
      </trkpt>
      <trkpt lat="49.36286" lon="-1.1914">
        <ele>1.9</ele>
        <time>2022-06-02T15:36:13Z</time>
      </trkpt>
      <trkpt lat="49.36286" lon="-1.19142">
        <ele>1.9</ele>
        <time>2022-06-02T15:36:14Z</time>
      </trkpt>
      <trkpt lat="49.36285" lon="-1.19143">
        <ele>1.9</ele>
        <time>2022-06-02T15:36:15Z</time>
      </trkpt>
      <trkpt lat="49.36284" lon="-1.19144">
        <ele>1.9</ele>
        <time>2022-06-02T15:36:16Z</time>
      </trkpt>
      <trkpt lat="49.36283" lon="-1.19146">
        <ele>1.9</ele>
        <time>2022-06-02T15:36:17Z</time>
      </trkpt>
      <trkpt lat="49.36282" lon="-1.19147">
        <ele>1.9</ele>
        <time>2022-06-02T15:36:18Z</time>
      </trkpt>
      <trkpt lat="49.36281" lon="-1.19149">
        <ele>1.9</ele>
        <time>2022-06-02T15:36:20Z</time>
      </trkpt>
      <trkpt lat="49.3628" lon="-1.1915">
        <ele>1.9</ele>
        <time>2022-06-02T15:36:21Z</time>
      </trkpt>
      <trkpt lat="49.36279" lon="-1.19151">
        <ele>1.9</ele>
        <time>2022-06-02T15:36:22Z</time>
      </trkpt>
      <trkpt lat="49.36279" lon="-1.19153">
        <ele>2</ele>
        <time>2022-06-02T15:36:23Z</time>
      </trkpt>
      <trkpt lat="49.36277" lon="-1.19155">
        <ele>2</ele>
        <time>2022-06-02T15:36:24Z</time>
      </trkpt>
      <trkpt lat="49.36276" lon="-1.19156">
        <ele>2</ele>
        <time>2022-06-02T15:36:25Z</time>
      </trkpt>
      <trkpt lat="49.36276" lon="-1.19157">
        <ele>2</ele>
        <time>2022-06-02T15:36:26Z</time>
      </trkpt>
      <trkpt lat="49.36275" lon="-1.19158">
        <ele>2</ele>
        <time>2022-06-02T15:36:27Z</time>
      </trkpt>
      <trkpt lat="49.36275" lon="-1.19159">
        <ele>2</ele>
        <time>2022-06-02T15:36:28Z</time>
      </trkpt>
      <trkpt lat="49.36274" lon="-1.19161">
        <ele>2</ele>
        <time>2022-06-02T15:36:29Z</time>
      </trkpt>
      <trkpt lat="49.36273" lon="-1.19163">
        <ele>2</ele>
        <time>2022-06-02T15:36:30Z</time>
      </trkpt>
      <trkpt lat="49.36272" lon="-1.19164">
        <ele>2</ele>
        <time>2022-06-02T15:36:31Z</time>
      </trkpt>
      <trkpt lat="49.36271" lon="-1.19167">
        <ele>2</ele>
        <time>2022-06-02T15:36:33Z</time>
      </trkpt>
      <trkpt lat="49.3627" lon="-1.19168">
        <ele>2</ele>
        <time>2022-06-02T15:36:34Z</time>
      </trkpt>
      <trkpt lat="49.3627" lon="-1.1917">
        <ele>2</ele>
        <time>2022-06-02T15:36:35Z</time>
      </trkpt>
      <trkpt lat="49.36269" lon="-1.19172">
        <ele>2</ele>
        <time>2022-06-02T15:36:36Z</time>
      </trkpt>
      <trkpt lat="49.36268" lon="-1.19173">
        <ele>2</ele>
        <time>2022-06-02T15:36:37Z</time>
      </trkpt>
      <trkpt lat="49.36268" lon="-1.19174">
        <ele>2</ele>
        <time>2022-06-02T15:36:38Z</time>
      </trkpt>
      <trkpt lat="49.36267" lon="-1.19177">
        <ele>2</ele>
        <time>2022-06-02T15:36:40Z</time>
      </trkpt>
      <trkpt lat="49.36267" lon="-1.19178">
        <ele>2</ele>
        <time>2022-06-02T15:36:41Z</time>
      </trkpt>
      <trkpt lat="49.36266" lon="-1.19179">
        <ele>2</ele>
        <time>2022-06-02T15:36:42Z</time>
      </trkpt>
      <trkpt lat="49.36265" lon="-1.19181">
        <ele>2</ele>
        <time>2022-06-02T15:36:43Z</time>
      </trkpt>
      <trkpt lat="49.36264" lon="-1.19182">
        <ele>2</ele>
        <time>2022-06-02T15:36:44Z</time>
      </trkpt>
      <trkpt lat="49.36264" lon="-1.19183">
        <ele>2</ele>
        <time>2022-06-02T15:36:45Z</time>
      </trkpt>
      <trkpt lat="49.36263" lon="-1.19186">
        <ele>2</ele>
        <time>2022-06-02T15:36:46Z</time>
      </trkpt>
      <trkpt lat="49.36262" lon="-1.19187">
        <ele>2</ele>
        <time>2022-06-02T15:36:47Z</time>
      </trkpt>
      <trkpt lat="49.36262" lon="-1.19188">
        <ele>2</ele>
        <time>2022-06-02T15:36:48Z</time>
      </trkpt>
      <trkpt lat="49.36261" lon="-1.19189">
        <ele>2</ele>
        <time>2022-06-02T15:36:49Z</time>
      </trkpt>
      <trkpt lat="49.3626" lon="-1.19191">
        <ele>2</ele>
        <time>2022-06-02T15:36:50Z</time>
      </trkpt>
      <trkpt lat="49.36259" lon="-1.19192">
        <ele>2</ele>
        <time>2022-06-02T15:36:51Z</time>
      </trkpt>
      <trkpt lat="49.36258" lon="-1.19193">
        <ele>2</ele>
        <time>2022-06-02T15:36:53Z</time>
      </trkpt>
      <trkpt lat="49.36257" lon="-1.19194">
        <ele>2</ele>
        <time>2022-06-02T15:36:54Z</time>
      </trkpt>
      <trkpt lat="49.36256" lon="-1.19196">
        <ele>2</ele>
        <time>2022-06-02T15:36:55Z</time>
      </trkpt>
      <trkpt lat="49.36255" lon="-1.19197">
        <ele>2</ele>
        <time>2022-06-02T15:36:56Z</time>
      </trkpt>
      <trkpt lat="49.36254" lon="-1.19198">
        <ele>2</ele>
        <time>2022-06-02T15:36:57Z</time>
      </trkpt>
      <trkpt lat="49.36253" lon="-1.192">
        <ele>2</ele>
        <time>2022-06-02T15:36:58Z</time>
      </trkpt>
      <trkpt lat="49.36252" lon="-1.19201">
        <ele>2</ele>
        <time>2022-06-02T15:36:59Z</time>
      </trkpt>
      <trkpt lat="49.36251" lon="-1.19202">
        <ele>2</ele>
        <time>2022-06-02T15:37:00Z</time>
      </trkpt>
      <trkpt lat="49.36249" lon="-1.19203">
        <ele>2</ele>
        <time>2022-06-02T15:37:01Z</time>
      </trkpt>
      <trkpt lat="49.36249" lon="-1.19204">
        <ele>2</ele>
        <time>2022-06-02T15:37:02Z</time>
      </trkpt>
      <trkpt lat="49.36248" lon="-1.19205">
        <ele>2</ele>
        <time>2022-06-02T15:37:03Z</time>
      </trkpt>
      <trkpt lat="49.36246" lon="-1.19207">
        <ele>2</ele>
        <time>2022-06-02T15:37:04Z</time>
      </trkpt>
      <trkpt lat="49.36245" lon="-1.19207">
        <ele>2</ele>
        <time>2022-06-02T15:37:05Z</time>
      </trkpt>
      <trkpt lat="49.36245" lon="-1.19208">
        <ele>2</ele>
        <time>2022-06-02T15:37:07Z</time>
      </trkpt>
      <trkpt lat="49.36244" lon="-1.19209">
        <ele>2</ele>
        <time>2022-06-02T15:37:08Z</time>
      </trkpt>
      <trkpt lat="49.36243" lon="-1.1921">
        <ele>2</ele>
        <time>2022-06-02T15:37:09Z</time>
      </trkpt>
      <trkpt lat="49.36242" lon="-1.19211">
        <ele>2</ele>
        <time>2022-06-02T15:37:10Z</time>
      </trkpt>
      <trkpt lat="49.36241" lon="-1.19213">
        <ele>2</ele>
        <time>2022-06-02T15:37:11Z</time>
      </trkpt>
      <trkpt lat="49.3624" lon="-1.19214">
        <ele>2</ele>
        <time>2022-06-02T15:37:13Z</time>
      </trkpt>
      <trkpt lat="49.36239" lon="-1.19215">
        <ele>2</ele>
        <time>2022-06-02T15:37:14Z</time>
      </trkpt>
      <trkpt lat="49.36238" lon="-1.19216">
        <ele>2</ele>
        <time>2022-06-02T15:37:15Z</time>
      </trkpt>
      <trkpt lat="49.36237" lon="-1.19217">
        <ele>2</ele>
        <time>2022-06-02T15:37:16Z</time>
      </trkpt>
      <trkpt lat="49.36236" lon="-1.19219">
        <ele>2</ele>
        <time>2022-06-02T15:37:17Z</time>
      </trkpt>
      <trkpt lat="49.36236" lon="-1.1922">
        <ele>2</ele>
        <time>2022-06-02T15:37:18Z</time>
      </trkpt>
      <trkpt lat="49.36235" lon="-1.19221">
        <ele>2</ele>
        <time>2022-06-02T15:37:19Z</time>
      </trkpt>
      <trkpt lat="49.36234" lon="-1.19223">
        <ele>2</ele>
        <time>2022-06-02T15:37:20Z</time>
      </trkpt>
      <trkpt lat="49.36233" lon="-1.19224">
        <ele>2</ele>
        <time>2022-06-02T15:37:21Z</time>
      </trkpt>
      <trkpt lat="49.36233" lon="-1.19225">
        <ele>2</ele>
        <time>2022-06-02T15:37:22Z</time>
      </trkpt>
      <trkpt lat="49.36232" lon="-1.19226">
        <ele>2</ele>
        <time>2022-06-02T15:37:23Z</time>
      </trkpt>
      <trkpt lat="49.36231" lon="-1.19228">
        <ele>2</ele>
        <time>2022-06-02T15:37:24Z</time>
      </trkpt>
      <trkpt lat="49.3623" lon="-1.1923">
        <ele>2</ele>
        <time>2022-06-02T15:37:26Z</time>
      </trkpt>
      <trkpt lat="49.36229" lon="-1.1923">
        <ele>2</ele>
        <time>2022-06-02T15:37:27Z</time>
      </trkpt>
      <trkpt lat="49.36229" lon="-1.19232">
        <ele>2</ele>
        <time>2022-06-02T15:37:28Z</time>
      </trkpt>
      <trkpt lat="49.36228" lon="-1.19234">
        <ele>2</ele>
        <time>2022-06-02T15:37:29Z</time>
      </trkpt>
      <trkpt lat="49.36227" lon="-1.19236">
        <ele>2</ele>
        <time>2022-06-02T15:37:30Z</time>
      </trkpt>
      <trkpt lat="49.36226" lon="-1.19237">
        <ele>2</ele>
        <time>2022-06-02T15:37:31Z</time>
      </trkpt>
      <trkpt lat="49.36225" lon="-1.19238">
        <ele>2</ele>
        <time>2022-06-02T15:37:33Z</time>
      </trkpt>
      <trkpt lat="49.36225" lon="-1.1924">
        <ele>2</ele>
        <time>2022-06-02T15:37:34Z</time>
      </trkpt>
      <trkpt lat="49.36224" lon="-1.19241">
        <ele>2</ele>
        <time>2022-06-02T15:37:35Z</time>
      </trkpt>
      <trkpt lat="49.36222" lon="-1.19243">
        <ele>2</ele>
        <time>2022-06-02T15:37:36Z</time>
      </trkpt>
      <trkpt lat="49.36221" lon="-1.19244">
        <ele>2</ele>
        <time>2022-06-02T15:37:37Z</time>
      </trkpt>
      <trkpt lat="49.3622" lon="-1.19246">
        <ele>2</ele>
        <time>2022-06-02T15:37:38Z</time>
      </trkpt>
      <trkpt lat="49.36219" lon="-1.19247">
        <ele>2</ele>
        <time>2022-06-02T15:37:40Z</time>
      </trkpt>
      <trkpt lat="49.36218" lon="-1.19248">
        <ele>2</ele>
        <time>2022-06-02T15:37:41Z</time>
      </trkpt>
      <trkpt lat="49.36217" lon="-1.19247">
        <ele>2</ele>
        <time>2022-06-02T15:37:42Z</time>
      </trkpt>
      <trkpt lat="49.36216" lon="-1.19247">
        <ele>2</ele>
        <time>2022-06-02T15:37:43Z</time>
      </trkpt>
      <trkpt lat="49.36215" lon="-1.19248">
        <ele>2</ele>
        <time>2022-06-02T15:37:44Z</time>
      </trkpt>
      <trkpt lat="49.36213" lon="-1.1925">
        <ele>2</ele>
        <time>2022-06-02T15:37:45Z</time>
      </trkpt>
      <trkpt lat="49.36213" lon="-1.19251">
        <ele>2</ele>
        <time>2022-06-02T15:37:46Z</time>
      </trkpt>
      <trkpt lat="49.36213" lon="-1.19252">
        <ele>2</ele>
        <time>2022-06-02T15:37:47Z</time>
      </trkpt>
      <trkpt lat="49.36212" lon="-1.19254">
        <ele>2</ele>
        <time>2022-06-02T15:37:48Z</time>
      </trkpt>
      <trkpt lat="49.36211" lon="-1.19255">
        <ele>2</ele>
        <time>2022-06-02T15:37:49Z</time>
      </trkpt>
      <trkpt lat="49.3621" lon="-1.19257">
        <ele>2</ele>
        <time>2022-06-02T15:37:51Z</time>
      </trkpt>
      <trkpt lat="49.3621" lon="-1.19258">
        <ele>2</ele>
        <time>2022-06-02T15:37:52Z</time>
      </trkpt>
      <trkpt lat="49.36209" lon="-1.19259">
        <ele>2</ele>
        <time>2022-06-02T15:37:53Z</time>
      </trkpt>
      <trkpt lat="49.36209" lon="-1.19261">
        <ele>2</ele>
        <time>2022-06-02T15:37:55Z</time>
      </trkpt>
      <trkpt lat="49.3621" lon="-1.19263">
        <ele>2</ele>
        <time>2022-06-02T15:37:56Z</time>
      </trkpt>
      <trkpt lat="49.3621" lon="-1.19264">
        <ele>2</ele>
        <time>2022-06-02T15:37:57Z</time>
      </trkpt>
      <trkpt lat="49.3621" lon="-1.19266">
        <ele>2</ele>
        <time>2022-06-02T15:37:58Z</time>
      </trkpt>
      <trkpt lat="49.36209" lon="-1.19267">
        <ele>2</ele>
        <time>2022-06-02T15:37:59Z</time>
      </trkpt>
      <trkpt lat="49.36207" lon="-1.19269">
        <ele>2</ele>
        <time>2022-06-02T15:38:00Z</time>
      </trkpt>
      <trkpt lat="49.36206" lon="-1.1927">
        <ele>2</ele>
        <time>2022-06-02T15:38:01Z</time>
      </trkpt>
      <trkpt lat="49.36205" lon="-1.19272">
        <ele>2</ele>
        <time>2022-06-02T15:38:02Z</time>
      </trkpt>
      <trkpt lat="49.36204" lon="-1.19273">
        <ele>2</ele>
        <time>2022-06-02T15:38:04Z</time>
      </trkpt>
      <trkpt lat="49.36203" lon="-1.19274">
        <ele>2</ele>
        <time>2022-06-02T15:38:05Z</time>
      </trkpt>
      <trkpt lat="49.36202" lon="-1.19275">
        <ele>2</ele>
        <time>2022-06-02T15:38:06Z</time>
      </trkpt>
      <trkpt lat="49.36201" lon="-1.19277">
        <ele>2</ele>
        <time>2022-06-02T15:38:07Z</time>
      </trkpt>
      <trkpt lat="49.362" lon="-1.19278">
        <ele>2</ele>
        <time>2022-06-02T15:38:08Z</time>
      </trkpt>
      <trkpt lat="49.36199" lon="-1.19278">
        <ele>2</ele>
        <time>2022-06-02T15:38:09Z</time>
      </trkpt>
      <trkpt lat="49.36198" lon="-1.19279">
        <ele>2</ele>
        <time>2022-06-02T15:38:10Z</time>
      </trkpt>
      <trkpt lat="49.36197" lon="-1.1928">
        <ele>2</ele>
        <time>2022-06-02T15:38:11Z</time>
      </trkpt>
      <trkpt lat="49.36197" lon="-1.1928">
        <ele>2</ele>
        <time>2022-06-02T15:38:12Z</time>
      </trkpt>
      <trkpt lat="49.36196" lon="-1.19281">
        <ele>2</ele>
        <time>2022-06-02T15:38:14Z</time>
      </trkpt>
      <trkpt lat="49.36195" lon="-1.19282">
        <ele>2</ele>
        <time>2022-06-02T15:38:15Z</time>
      </trkpt>
      <trkpt lat="49.36194" lon="-1.19283">
        <ele>2</ele>
        <time>2022-06-02T15:38:16Z</time>
      </trkpt>
      <trkpt lat="49.36193" lon="-1.19284">
        <ele>2</ele>
        <time>2022-06-02T15:38:17Z</time>
      </trkpt>
      <trkpt lat="49.36191" lon="-1.19286">
        <ele>2</ele>
        <time>2022-06-02T15:38:18Z</time>
      </trkpt>
      <trkpt lat="49.36191" lon="-1.19286">
        <ele>2</ele>
        <time>2022-06-02T15:38:19Z</time>
      </trkpt>
      <trkpt lat="49.3619" lon="-1.19287">
        <ele>2</ele>
        <time>2022-06-02T15:38:20Z</time>
      </trkpt>
      <trkpt lat="49.36189" lon="-1.19287">
        <ele>2</ele>
        <time>2022-06-02T15:38:21Z</time>
      </trkpt>
      <trkpt lat="49.36188" lon="-1.19288">
        <ele>2</ele>
        <time>2022-06-02T15:38:22Z</time>
      </trkpt>
      <trkpt lat="49.36188" lon="-1.19289">
        <ele>2</ele>
        <time>2022-06-02T15:38:23Z</time>
      </trkpt>
      <trkpt lat="49.36187" lon="-1.1929">
        <ele>2</ele>
        <time>2022-06-02T15:38:24Z</time>
      </trkpt>
      <trkpt lat="49.36185" lon="-1.19292">
        <ele>2</ele>
        <time>2022-06-02T15:38:25Z</time>
      </trkpt>
      <trkpt lat="49.36185" lon="-1.19293">
        <ele>2</ele>
        <time>2022-06-02T15:38:27Z</time>
      </trkpt>
      <trkpt lat="49.36184" lon="-1.19294">
        <ele>2</ele>
        <time>2022-06-02T15:38:28Z</time>
      </trkpt>
      <trkpt lat="49.36183" lon="-1.19295">
        <ele>2</ele>
        <time>2022-06-02T15:38:29Z</time>
      </trkpt>
      <trkpt lat="49.36183" lon="-1.19296">
        <ele>2</ele>
        <time>2022-06-02T15:38:30Z</time>
      </trkpt>
      <trkpt lat="49.36182" lon="-1.19297">
        <ele>2</ele>
        <time>2022-06-02T15:38:31Z</time>
      </trkpt>
      <trkpt lat="49.36181" lon="-1.19299">
        <ele>2</ele>
        <time>2022-06-02T15:38:32Z</time>
      </trkpt>
      <trkpt lat="49.3618" lon="-1.19301">
        <ele>2</ele>
        <time>2022-06-02T15:38:33Z</time>
      </trkpt>
      <trkpt lat="49.3618" lon="-1.19303">
        <ele>2</ele>
        <time>2022-06-02T15:38:34Z</time>
      </trkpt>
      <trkpt lat="49.36179" lon="-1.19304">
        <ele>2</ele>
        <time>2022-06-02T15:38:35Z</time>
      </trkpt>
      <trkpt lat="49.36179" lon="-1.19305">
        <ele>2</ele>
        <time>2022-06-02T15:38:36Z</time>
      </trkpt>
      <trkpt lat="49.36178" lon="-1.19306">
        <ele>2</ele>
        <time>2022-06-02T15:38:37Z</time>
      </trkpt>
      <trkpt lat="49.36178" lon="-1.19308">
        <ele>2.1</ele>
        <time>2022-06-02T15:38:38Z</time>
      </trkpt>
      <trkpt lat="49.36177" lon="-1.1931">
        <ele>2.1</ele>
        <time>2022-06-02T15:38:40Z</time>
      </trkpt>
      <trkpt lat="49.36176" lon="-1.19311">
        <ele>2.1</ele>
        <time>2022-06-02T15:38:41Z</time>
      </trkpt>
      <trkpt lat="49.36176" lon="-1.19313">
        <ele>2.1</ele>
        <time>2022-06-02T15:38:42Z</time>
      </trkpt>
      <trkpt lat="49.36175" lon="-1.19315">
        <ele>2.1</ele>
        <time>2022-06-02T15:38:43Z</time>
      </trkpt>
      <trkpt lat="49.36175" lon="-1.19317">
        <ele>2.1</ele>
        <time>2022-06-02T15:38:44Z</time>
      </trkpt>
      <trkpt lat="49.36175" lon="-1.19318">
        <ele>2.1</ele>
        <time>2022-06-02T15:38:45Z</time>
      </trkpt>
      <trkpt lat="49.36174" lon="-1.1932">
        <ele>2.1</ele>
        <time>2022-06-02T15:38:46Z</time>
      </trkpt>
      <trkpt lat="49.36174" lon="-1.19321">
        <ele>2.1</ele>
        <time>2022-06-02T15:38:47Z</time>
      </trkpt>
      <trkpt lat="49.36173" lon="-1.19323">
        <ele>2.1</ele>
        <time>2022-06-02T15:38:48Z</time>
      </trkpt>
      <trkpt lat="49.36172" lon="-1.19326">
        <ele>2.1</ele>
        <time>2022-06-02T15:38:49Z</time>
      </trkpt>
      <trkpt lat="49.36172" lon="-1.19327">
        <ele>2.1</ele>
        <time>2022-06-02T15:38:50Z</time>
      </trkpt>
      <trkpt lat="49.36172" lon="-1.19328">
        <ele>2.1</ele>
        <time>2022-06-02T15:38:51Z</time>
      </trkpt>
      <trkpt lat="49.36171" lon="-1.19331">
        <ele>2.1</ele>
        <time>2022-06-02T15:38:53Z</time>
      </trkpt>
      <trkpt lat="49.36171" lon="-1.19332">
        <ele>2.1</ele>
        <time>2022-06-02T15:38:54Z</time>
      </trkpt>
      <trkpt lat="49.36171" lon="-1.19334">
        <ele>2.1</ele>
        <time>2022-06-02T15:38:55Z</time>
      </trkpt>
      <trkpt lat="49.3617" lon="-1.19336">
        <ele>2.1</ele>
        <time>2022-06-02T15:38:56Z</time>
      </trkpt>
      <trkpt lat="49.3617" lon="-1.19337">
        <ele>2.1</ele>
        <time>2022-06-02T15:38:57Z</time>
      </trkpt>
      <trkpt lat="49.3617" lon="-1.19339">
        <ele>2.1</ele>
        <time>2022-06-02T15:38:58Z</time>
      </trkpt>
      <trkpt lat="49.3617" lon="-1.19341">
        <ele>2.1</ele>
        <time>2022-06-02T15:38:59Z</time>
      </trkpt>
      <trkpt lat="49.3617" lon="-1.19343">
        <ele>2.1</ele>
        <time>2022-06-02T15:39:00Z</time>
      </trkpt>
      <trkpt lat="49.3617" lon="-1.19345">
        <ele>2.1</ele>
        <time>2022-06-02T15:39:02Z</time>
      </trkpt>
      <trkpt lat="49.3617" lon="-1.19346">
        <ele>2.1</ele>
        <time>2022-06-02T15:39:03Z</time>
      </trkpt>
      <trkpt lat="49.3617" lon="-1.19349">
        <ele>2.1</ele>
        <time>2022-06-02T15:39:04Z</time>
      </trkpt>
      <trkpt lat="49.3617" lon="-1.19351">
        <ele>2.1</ele>
        <time>2022-06-02T15:39:05Z</time>
      </trkpt>
      <trkpt lat="49.3617" lon="-1.19353">
        <ele>2.1</ele>
        <time>2022-06-02T15:39:06Z</time>
      </trkpt>
      <trkpt lat="49.36171" lon="-1.19357">
        <ele>2.1</ele>
        <time>2022-06-02T15:39:07Z</time>
      </trkpt>
      <trkpt lat="49.36171" lon="-1.19358">
        <ele>2.1</ele>
        <time>2022-06-02T15:39:08Z</time>
      </trkpt>
      <trkpt lat="49.36171" lon="-1.19359">
        <ele>2.1</ele>
        <time>2022-06-02T15:39:09Z</time>
      </trkpt>
      <trkpt lat="49.36172" lon="-1.19361">
        <ele>2.1</ele>
        <time>2022-06-02T15:39:10Z</time>
      </trkpt>
      <trkpt lat="49.36172" lon="-1.19362">
        <ele>2.1</ele>
        <time>2022-06-02T15:39:12Z</time>
      </trkpt>
      <trkpt lat="49.36173" lon="-1.19364">
        <ele>2.1</ele>
        <time>2022-06-02T15:39:13Z</time>
      </trkpt>
      <trkpt lat="49.36173" lon="-1.19366">
        <ele>2.1</ele>
        <time>2022-06-02T15:39:14Z</time>
      </trkpt>
      <trkpt lat="49.36173" lon="-1.19368">
        <ele>2.1</ele>
        <time>2022-06-02T15:39:15Z</time>
      </trkpt>
      <trkpt lat="49.36173" lon="-1.1937">
        <ele>2.1</ele>
        <time>2022-06-02T15:39:16Z</time>
      </trkpt>
      <trkpt lat="49.36174" lon="-1.19372">
        <ele>2.1</ele>
        <time>2022-06-02T15:39:17Z</time>
      </trkpt>
      <trkpt lat="49.36174" lon="-1.19376">
        <ele>2.1</ele>
        <time>2022-06-02T15:39:19Z</time>
      </trkpt>
      <trkpt lat="49.36174" lon="-1.19379">
        <ele>2.1</ele>
        <time>2022-06-02T15:39:20Z</time>
      </trkpt>
      <trkpt lat="49.36174" lon="-1.19381">
        <ele>2.1</ele>
        <time>2022-06-02T15:39:21Z</time>
      </trkpt>
      <trkpt lat="49.36174" lon="-1.19382">
        <ele>2.1</ele>
        <time>2022-06-02T15:39:22Z</time>
      </trkpt>
      <trkpt lat="49.36174" lon="-1.19385">
        <ele>2.1</ele>
        <time>2022-06-02T15:39:23Z</time>
      </trkpt>
      <trkpt lat="49.36174" lon="-1.19387">
        <ele>2.1</ele>
        <time>2022-06-02T15:39:24Z</time>
      </trkpt>
      <trkpt lat="49.36175" lon="-1.19388">
        <ele>2.1</ele>
        <time>2022-06-02T15:39:26Z</time>
      </trkpt>
      <trkpt lat="49.36175" lon="-1.1939">
        <ele>2.1</ele>
        <time>2022-06-02T15:39:27Z</time>
      </trkpt>
      <trkpt lat="49.36175" lon="-1.19391">
        <ele>2.1</ele>
        <time>2022-06-02T15:39:28Z</time>
      </trkpt>
      <trkpt lat="49.36175" lon="-1.19393">
        <ele>2.1</ele>
        <time>2022-06-02T15:39:29Z</time>
      </trkpt>
      <trkpt lat="49.36176" lon="-1.19394">
        <ele>2.1</ele>
        <time>2022-06-02T15:39:30Z</time>
      </trkpt>
      <trkpt lat="49.36176" lon="-1.19396">
        <ele>2.1</ele>
        <time>2022-06-02T15:39:32Z</time>
      </trkpt>
      <trkpt lat="49.36176" lon="-1.19398">
        <ele>2.1</ele>
        <time>2022-06-02T15:39:33Z</time>
      </trkpt>
      <trkpt lat="49.36177" lon="-1.194">
        <ele>2.1</ele>
        <time>2022-06-02T15:39:34Z</time>
      </trkpt>
      <trkpt lat="49.36177" lon="-1.19402">
        <ele>2.1</ele>
        <time>2022-06-02T15:39:35Z</time>
      </trkpt>
      <trkpt lat="49.36177" lon="-1.19404">
        <ele>2.1</ele>
        <time>2022-06-02T15:39:36Z</time>
      </trkpt>
      <trkpt lat="49.36177" lon="-1.19406">
        <ele>2.1</ele>
        <time>2022-06-02T15:39:37Z</time>
      </trkpt>
      <trkpt lat="49.36178" lon="-1.19408">
        <ele>2.1</ele>
        <time>2022-06-02T15:39:38Z</time>
      </trkpt>
      <trkpt lat="49.36177" lon="-1.1941">
        <ele>2.1</ele>
        <time>2022-06-02T15:39:39Z</time>
      </trkpt>
      <trkpt lat="49.36178" lon="-1.19411">
        <ele>2.1</ele>
        <time>2022-06-02T15:39:40Z</time>
      </trkpt>
      <trkpt lat="49.36178" lon="-1.19413">
        <ele>2.1</ele>
        <time>2022-06-02T15:39:41Z</time>
      </trkpt>
      <trkpt lat="49.36178" lon="-1.19416">
        <ele>2.1</ele>
        <time>2022-06-02T15:39:42Z</time>
      </trkpt>
      <trkpt lat="49.36178" lon="-1.19418">
        <ele>2.1</ele>
        <time>2022-06-02T15:39:43Z</time>
      </trkpt>
      <trkpt lat="49.36178" lon="-1.19419">
        <ele>2.1</ele>
        <time>2022-06-02T15:39:44Z</time>
      </trkpt>
      <trkpt lat="49.36177" lon="-1.19421">
        <ele>2.1</ele>
        <time>2022-06-02T15:39:45Z</time>
      </trkpt>
      <trkpt lat="49.36177" lon="-1.19422">
        <ele>2.1</ele>
        <time>2022-06-02T15:39:47Z</time>
      </trkpt>
      <trkpt lat="49.36177" lon="-1.19424">
        <ele>2.1</ele>
        <time>2022-06-02T15:39:48Z</time>
      </trkpt>
      <trkpt lat="49.36176" lon="-1.19427">
        <ele>2.1</ele>
        <time>2022-06-02T15:39:49Z</time>
      </trkpt>
      <trkpt lat="49.36176" lon="-1.19428">
        <ele>2.1</ele>
        <time>2022-06-02T15:39:50Z</time>
      </trkpt>
      <trkpt lat="49.36176" lon="-1.1943">
        <ele>2.1</ele>
        <time>2022-06-02T15:39:51Z</time>
      </trkpt>
      <trkpt lat="49.36175" lon="-1.19433">
        <ele>2.1</ele>
        <time>2022-06-02T15:39:52Z</time>
      </trkpt>
      <trkpt lat="49.36175" lon="-1.19434">
        <ele>2.1</ele>
        <time>2022-06-02T15:39:53Z</time>
      </trkpt>
      <trkpt lat="49.36175" lon="-1.19436">
        <ele>2.1</ele>
        <time>2022-06-02T15:39:54Z</time>
      </trkpt>
      <trkpt lat="49.36175" lon="-1.19437">
        <ele>2.1</ele>
        <time>2022-06-02T15:39:55Z</time>
      </trkpt>
      <trkpt lat="49.36174" lon="-1.19438">
        <ele>2.1</ele>
        <time>2022-06-02T15:39:56Z</time>
      </trkpt>
      <trkpt lat="49.36174" lon="-1.1944">
        <ele>2.1</ele>
        <time>2022-06-02T15:39:57Z</time>
      </trkpt>
      <trkpt lat="49.36173" lon="-1.19441">
        <ele>2.1</ele>
        <time>2022-06-02T15:39:58Z</time>
      </trkpt>
      <trkpt lat="49.36173" lon="-1.19444">
        <ele>2.1</ele>
        <time>2022-06-02T15:40:00Z</time>
      </trkpt>
      <trkpt lat="49.36173" lon="-1.19446">
        <ele>2.1</ele>
        <time>2022-06-02T15:40:01Z</time>
      </trkpt>
      <trkpt lat="49.36172" lon="-1.19448">
        <ele>2.2</ele>
        <time>2022-06-02T15:40:02Z</time>
      </trkpt>
      <trkpt lat="49.36172" lon="-1.1945">
        <ele>2.2</ele>
        <time>2022-06-02T15:40:03Z</time>
      </trkpt>
      <trkpt lat="49.36172" lon="-1.19453">
        <ele>2.2</ele>
        <time>2022-06-02T15:40:04Z</time>
      </trkpt>
      <trkpt lat="49.36171" lon="-1.19455">
        <ele>2.2</ele>
        <time>2022-06-02T15:40:06Z</time>
      </trkpt>
      <trkpt lat="49.3617" lon="-1.19456">
        <ele>2.2</ele>
        <time>2022-06-02T15:40:07Z</time>
      </trkpt>
      <trkpt lat="49.3617" lon="-1.19457">
        <ele>2.2</ele>
        <time>2022-06-02T15:40:08Z</time>
      </trkpt>
      <trkpt lat="49.3617" lon="-1.19458">
        <ele>2.2</ele>
        <time>2022-06-02T15:40:09Z</time>
      </trkpt>
      <trkpt lat="49.36169" lon="-1.1946">
        <ele>2.2</ele>
        <time>2022-06-02T15:40:10Z</time>
      </trkpt>
      <trkpt lat="49.36169" lon="-1.19461">
        <ele>2.2</ele>
        <time>2022-06-02T15:40:11Z</time>
      </trkpt>
      <trkpt lat="49.36169" lon="-1.19463">
        <ele>2.2</ele>
        <time>2022-06-02T15:40:12Z</time>
      </trkpt>
      <trkpt lat="49.3617" lon="-1.19465">
        <ele>2.2</ele>
        <time>2022-06-02T15:40:13Z</time>
      </trkpt>
      <trkpt lat="49.3617" lon="-1.19468">
        <ele>2.2</ele>
        <time>2022-06-02T15:40:14Z</time>
      </trkpt>
      <trkpt lat="49.3617" lon="-1.19469">
        <ele>2.2</ele>
        <time>2022-06-02T15:40:16Z</time>
      </trkpt>
      <trkpt lat="49.3617" lon="-1.1947">
        <ele>2.2</ele>
        <time>2022-06-02T15:40:17Z</time>
      </trkpt>
      <trkpt lat="49.36169" lon="-1.19472">
        <ele>2.2</ele>
        <time>2022-06-02T15:40:18Z</time>
      </trkpt>
      <trkpt lat="49.36169" lon="-1.19474">
        <ele>2.2</ele>
        <time>2022-06-02T15:40:19Z</time>
      </trkpt>
      <trkpt lat="49.36168" lon="-1.19475">
        <ele>2.2</ele>
        <time>2022-06-02T15:40:20Z</time>
      </trkpt>
      <trkpt lat="49.36168" lon="-1.19478">
        <ele>2.2</ele>
        <time>2022-06-02T15:40:22Z</time>
      </trkpt>
      <trkpt lat="49.36168" lon="-1.19479">
        <ele>2.2</ele>
        <time>2022-06-02T15:40:23Z</time>
      </trkpt>
      <trkpt lat="49.36169" lon="-1.1948">
        <ele>2.2</ele>
        <time>2022-06-02T15:40:24Z</time>
      </trkpt>
      <trkpt lat="49.3617" lon="-1.19481">
        <ele>2.2</ele>
        <time>2022-06-02T15:40:25Z</time>
      </trkpt>
      <trkpt lat="49.3617" lon="-1.19482">
        <ele>2.2</ele>
        <time>2022-06-02T15:40:26Z</time>
      </trkpt>
      <trkpt lat="49.3617" lon="-1.19482">
        <ele>2.2</ele>
        <time>2022-06-02T15:40:27Z</time>
      </trkpt>
      <trkpt lat="49.3617" lon="-1.19483">
        <ele>2.2</ele>
        <time>2022-06-02T15:40:29Z</time>
      </trkpt>
      <trkpt lat="49.3617" lon="-1.19484">
        <ele>2.2</ele>
        <time>2022-06-02T15:40:30Z</time>
      </trkpt>
      <trkpt lat="49.36169" lon="-1.19484">
        <ele>2.2</ele>
        <time>2022-06-02T15:40:31Z</time>
      </trkpt>
      <trkpt lat="49.36169" lon="-1.19485">
        <ele>2.2</ele>
        <time>2022-06-02T15:40:32Z</time>
      </trkpt>
      <trkpt lat="49.36169" lon="-1.19486">
        <ele>2.2</ele>
        <time>2022-06-02T15:40:33Z</time>
      </trkpt>
      <trkpt lat="49.36168" lon="-1.19486">
        <ele>2.2</ele>
        <time>2022-06-02T15:40:34Z</time>
      </trkpt>
      <trkpt lat="49.36167" lon="-1.19488">
        <ele>2.2</ele>
        <time>2022-06-02T15:40:36Z</time>
      </trkpt>
      <trkpt lat="49.36167" lon="-1.19489">
        <ele>2.2</ele>
        <time>2022-06-02T15:40:37Z</time>
      </trkpt>
      <trkpt lat="49.36167" lon="-1.19491">
        <ele>2.2</ele>
        <time>2022-06-02T15:40:38Z</time>
      </trkpt>
      <trkpt lat="49.36166" lon="-1.19494">
        <ele>2.2</ele>
        <time>2022-06-02T15:40:39Z</time>
      </trkpt>
      <trkpt lat="49.36166" lon="-1.19495">
        <ele>2.2</ele>
        <time>2022-06-02T15:40:40Z</time>
      </trkpt>
      <trkpt lat="49.36166" lon="-1.19496">
        <ele>2.2</ele>
        <time>2022-06-02T15:40:41Z</time>
      </trkpt>
      <trkpt lat="49.36164" lon="-1.19499">
        <ele>2.2</ele>
        <time>2022-06-02T15:40:42Z</time>
      </trkpt>
      <trkpt lat="49.36164" lon="-1.195">
        <ele>2.2</ele>
        <time>2022-06-02T15:40:43Z</time>
      </trkpt>
      <trkpt lat="49.36163" lon="-1.19502">
        <ele>2.2</ele>
        <time>2022-06-02T15:40:44Z</time>
      </trkpt>
      <trkpt lat="49.36162" lon="-1.19505">
        <ele>2.2</ele>
        <time>2022-06-02T15:40:45Z</time>
      </trkpt>
      <trkpt lat="49.36162" lon="-1.19506">
        <ele>2.2</ele>
        <time>2022-06-02T15:40:46Z</time>
      </trkpt>
      <trkpt lat="49.36161" lon="-1.19507">
        <ele>2.2</ele>
        <time>2022-06-02T15:40:47Z</time>
      </trkpt>
      <trkpt lat="49.36161" lon="-1.19509">
        <ele>2.2</ele>
        <time>2022-06-02T15:40:48Z</time>
      </trkpt>
      <trkpt lat="49.36161" lon="-1.1951">
        <ele>2.2</ele>
        <time>2022-06-02T15:40:50Z</time>
      </trkpt>
      <trkpt lat="49.3616" lon="-1.19512">
        <ele>2.2</ele>
        <time>2022-06-02T15:40:51Z</time>
      </trkpt>
      <trkpt lat="49.3616" lon="-1.19514">
        <ele>2.2</ele>
        <time>2022-06-02T15:40:52Z</time>
      </trkpt>
      <trkpt lat="49.3616" lon="-1.19516">
        <ele>2.2</ele>
        <time>2022-06-02T15:40:53Z</time>
      </trkpt>
      <trkpt lat="49.36159" lon="-1.19518">
        <ele>2.2</ele>
        <time>2022-06-02T15:40:54Z</time>
      </trkpt>
      <trkpt lat="49.36159" lon="-1.19519">
        <ele>2.2</ele>
        <time>2022-06-02T15:40:55Z</time>
      </trkpt>
      <trkpt lat="49.36158" lon="-1.19521">
        <ele>2.2</ele>
        <time>2022-06-02T15:40:56Z</time>
      </trkpt>
      <trkpt lat="49.36157" lon="-1.19525">
        <ele>2.2</ele>
        <time>2022-06-02T15:40:58Z</time>
      </trkpt>
      <trkpt lat="49.36156" lon="-1.19526">
        <ele>2.2</ele>
        <time>2022-06-02T15:40:59Z</time>
      </trkpt>
      <trkpt lat="49.36156" lon="-1.19529">
        <ele>2.2</ele>
        <time>2022-06-02T15:41:00Z</time>
      </trkpt>
      <trkpt lat="49.36155" lon="-1.19531">
        <ele>2.3</ele>
        <time>2022-06-02T15:41:01Z</time>
      </trkpt>
      <trkpt lat="49.36153" lon="-1.19534">
        <ele>2.3</ele>
        <time>2022-06-02T15:41:02Z</time>
      </trkpt>
      <trkpt lat="49.36153" lon="-1.19537">
        <ele>2.3</ele>
        <time>2022-06-02T15:41:04Z</time>
      </trkpt>
      <trkpt lat="49.36151" lon="-1.1954">
        <ele>2.3</ele>
        <time>2022-06-02T15:41:05Z</time>
      </trkpt>
      <trkpt lat="49.3615" lon="-1.19541">
        <ele>2.3</ele>
        <time>2022-06-02T15:41:06Z</time>
      </trkpt>
      <trkpt lat="49.3615" lon="-1.19543">
        <ele>2.3</ele>
        <time>2022-06-02T15:41:07Z</time>
      </trkpt>
      <trkpt lat="49.36149" lon="-1.19545">
        <ele>2.3</ele>
        <time>2022-06-02T15:41:08Z</time>
      </trkpt>
      <trkpt lat="49.36148" lon="-1.19547">
        <ele>2.3</ele>
        <time>2022-06-02T15:41:09Z</time>
      </trkpt>
      <trkpt lat="49.36147" lon="-1.19548">
        <ele>2.3</ele>
        <time>2022-06-02T15:41:11Z</time>
      </trkpt>
      <trkpt lat="49.36147" lon="-1.19549">
        <ele>2.3</ele>
        <time>2022-06-02T15:41:12Z</time>
      </trkpt>
      <trkpt lat="49.36146" lon="-1.19552">
        <ele>2.3</ele>
        <time>2022-06-02T15:41:13Z</time>
      </trkpt>
      <trkpt lat="49.36145" lon="-1.19552">
        <ele>2.3</ele>
        <time>2022-06-02T15:41:14Z</time>
      </trkpt>
      <trkpt lat="49.36144" lon="-1.19553">
        <ele>2.3</ele>
        <time>2022-06-02T15:41:15Z</time>
      </trkpt>
      <trkpt lat="49.36143" lon="-1.19553">
        <ele>2.3</ele>
        <time>2022-06-02T15:41:16Z</time>
      </trkpt>
      <trkpt lat="49.36142" lon="-1.19554">
        <ele>2.3</ele>
        <time>2022-06-02T15:41:17Z</time>
      </trkpt>
      <trkpt lat="49.36141" lon="-1.19556">
        <ele>2.3</ele>
        <time>2022-06-02T15:41:18Z</time>
      </trkpt>
      <trkpt lat="49.3614" lon="-1.19557">
        <ele>2.3</ele>
        <time>2022-06-02T15:41:19Z</time>
      </trkpt>
      <trkpt lat="49.36139" lon="-1.1956">
        <ele>2.3</ele>
        <time>2022-06-02T15:41:20Z</time>
      </trkpt>
      <trkpt lat="49.36139" lon="-1.19561">
        <ele>2.3</ele>
        <time>2022-06-02T15:41:21Z</time>
      </trkpt>
      <trkpt lat="49.36138" lon="-1.19562">
        <ele>2.3</ele>
        <time>2022-06-02T15:41:22Z</time>
      </trkpt>
      <trkpt lat="49.36138" lon="-1.19563">
        <ele>2.3</ele>
        <time>2022-06-02T15:41:24Z</time>
      </trkpt>
      <trkpt lat="49.36137" lon="-1.19564">
        <ele>2.3</ele>
        <time>2022-06-02T15:41:25Z</time>
      </trkpt>
      <trkpt lat="49.36137" lon="-1.19566">
        <ele>2.3</ele>
        <time>2022-06-02T15:41:26Z</time>
      </trkpt>
      <trkpt lat="49.36136" lon="-1.19567">
        <ele>2.3</ele>
        <time>2022-06-02T15:41:27Z</time>
      </trkpt>
      <trkpt lat="49.36135" lon="-1.19568">
        <ele>2.3</ele>
        <time>2022-06-02T15:41:28Z</time>
      </trkpt>
      <trkpt lat="49.36134" lon="-1.19569">
        <ele>2.3</ele>
        <time>2022-06-02T15:41:29Z</time>
      </trkpt>
      <trkpt lat="49.36133" lon="-1.1957">
        <ele>2.3</ele>
        <time>2022-06-02T15:41:30Z</time>
      </trkpt>
      <trkpt lat="49.36133" lon="-1.19571">
        <ele>2.3</ele>
        <time>2022-06-02T15:41:31Z</time>
      </trkpt>
      <trkpt lat="49.36133" lon="-1.19572">
        <ele>2.3</ele>
        <time>2022-06-02T15:41:32Z</time>
      </trkpt>
      <trkpt lat="49.36132" lon="-1.19574">
        <ele>2.3</ele>
        <time>2022-06-02T15:41:33Z</time>
      </trkpt>
      <trkpt lat="49.36132" lon="-1.19575">
        <ele>2.3</ele>
        <time>2022-06-02T15:41:34Z</time>
      </trkpt>
      <trkpt lat="49.36131" lon="-1.19577">
        <ele>2.3</ele>
        <time>2022-06-02T15:41:35Z</time>
      </trkpt>
      <trkpt lat="49.36131" lon="-1.19578">
        <ele>2.3</ele>
        <time>2022-06-02T15:41:37Z</time>
      </trkpt>
      <trkpt lat="49.3613" lon="-1.19579">
        <ele>2.3</ele>
        <time>2022-06-02T15:41:38Z</time>
      </trkpt>
      <trkpt lat="49.36129" lon="-1.19581">
        <ele>2.3</ele>
        <time>2022-06-02T15:41:39Z</time>
      </trkpt>
      <trkpt lat="49.36129" lon="-1.19582">
        <ele>2.3</ele>
        <time>2022-06-02T15:41:40Z</time>
      </trkpt>
      <trkpt lat="49.36128" lon="-1.19583">
        <ele>2.3</ele>
        <time>2022-06-02T15:41:41Z</time>
      </trkpt>
      <trkpt lat="49.36127" lon="-1.19586">
        <ele>2.3</ele>
        <time>2022-06-02T15:41:42Z</time>
      </trkpt>
      <trkpt lat="49.36126" lon="-1.19587">
        <ele>2.3</ele>
        <time>2022-06-02T15:41:43Z</time>
      </trkpt>
      <trkpt lat="49.36125" lon="-1.19588">
        <ele>2.3</ele>
        <time>2022-06-02T15:41:44Z</time>
      </trkpt>
      <trkpt lat="49.36124" lon="-1.19589">
        <ele>2.3</ele>
        <time>2022-06-02T15:41:45Z</time>
      </trkpt>
      <trkpt lat="49.36123" lon="-1.19591">
        <ele>2.3</ele>
        <time>2022-06-02T15:41:46Z</time>
      </trkpt>
      <trkpt lat="49.36121" lon="-1.19592">
        <ele>2.4</ele>
        <time>2022-06-02T15:41:47Z</time>
      </trkpt>
      <trkpt lat="49.3612" lon="-1.19593">
        <ele>2.4</ele>
        <time>2022-06-02T15:41:48Z</time>
      </trkpt>
      <trkpt lat="49.36119" lon="-1.19594">
        <ele>2.4</ele>
        <time>2022-06-02T15:41:49Z</time>
      </trkpt>
      <trkpt lat="49.36117" lon="-1.19596">
        <ele>2.4</ele>
        <time>2022-06-02T15:41:51Z</time>
      </trkpt>
      <trkpt lat="49.36117" lon="-1.19596">
        <ele>2.4</ele>
        <time>2022-06-02T15:41:52Z</time>
      </trkpt>
      <trkpt lat="49.36116" lon="-1.19597">
        <ele>2.4</ele>
        <time>2022-06-02T15:41:53Z</time>
      </trkpt>
      <trkpt lat="49.36115" lon="-1.19598">
        <ele>2.4</ele>
        <time>2022-06-02T15:41:54Z</time>
      </trkpt>
      <trkpt lat="49.36114" lon="-1.19599">
        <ele>2.3</ele>
        <time>2022-06-02T15:41:55Z</time>
      </trkpt>
      <trkpt lat="49.36112" lon="-1.196">
        <ele>2.3</ele>
        <time>2022-06-02T15:41:56Z</time>
      </trkpt>
      <trkpt lat="49.36111" lon="-1.19601">
        <ele>2.3</ele>
        <time>2022-06-02T15:41:57Z</time>
      </trkpt>
      <trkpt lat="49.36109" lon="-1.19603">
        <ele>2.3</ele>
        <time>2022-06-02T15:41:58Z</time>
      </trkpt>
      <trkpt lat="49.36108" lon="-1.19604">
        <ele>2.3</ele>
        <time>2022-06-02T15:41:59Z</time>
      </trkpt>
      <trkpt lat="49.36108" lon="-1.19605">
        <ele>2.3</ele>
        <time>2022-06-02T15:42:00Z</time>
      </trkpt>
      <trkpt lat="49.36107" lon="-1.19606">
        <ele>2.3</ele>
        <time>2022-06-02T15:42:01Z</time>
      </trkpt>
      <trkpt lat="49.36106" lon="-1.19606">
        <ele>2.3</ele>
        <time>2022-06-02T15:42:03Z</time>
      </trkpt>
      <trkpt lat="49.36105" lon="-1.19607">
        <ele>2.3</ele>
        <time>2022-06-02T15:42:04Z</time>
      </trkpt>
      <trkpt lat="49.36104" lon="-1.19608">
        <ele>2.3</ele>
        <time>2022-06-02T15:42:05Z</time>
      </trkpt>
      <trkpt lat="49.36102" lon="-1.19609">
        <ele>2.3</ele>
        <time>2022-06-02T15:42:06Z</time>
      </trkpt>
      <trkpt lat="49.36101" lon="-1.1961">
        <ele>2.3</ele>
        <time>2022-06-02T15:42:07Z</time>
      </trkpt>
      <trkpt lat="49.361" lon="-1.19611">
        <ele>2.3</ele>
        <time>2022-06-02T15:42:08Z</time>
      </trkpt>
      <trkpt lat="49.36099" lon="-1.19612">
        <ele>2.3</ele>
        <time>2022-06-02T15:42:09Z</time>
      </trkpt>
      <trkpt lat="49.36098" lon="-1.19613">
        <ele>2.3</ele>
        <time>2022-06-02T15:42:10Z</time>
      </trkpt>
      <trkpt lat="49.36097" lon="-1.19614">
        <ele>2.3</ele>
        <time>2022-06-02T15:42:11Z</time>
      </trkpt>
      <trkpt lat="49.36096" lon="-1.19615">
        <ele>2.3</ele>
        <time>2022-06-02T15:42:12Z</time>
      </trkpt>
      <trkpt lat="49.36095" lon="-1.19614">
        <ele>2.3</ele>
        <time>2022-06-02T15:42:13Z</time>
      </trkpt>
      <trkpt lat="49.36094" lon="-1.19614">
        <ele>2.3</ele>
        <time>2022-06-02T15:42:15Z</time>
      </trkpt>
      <trkpt lat="49.36094" lon="-1.19613">
        <ele>2.3</ele>
        <time>2022-06-02T15:42:16Z</time>
      </trkpt>
      <trkpt lat="49.36093" lon="-1.19612">
        <ele>2.3</ele>
        <time>2022-06-02T15:42:17Z</time>
      </trkpt>
      <trkpt lat="49.36093" lon="-1.1961">
        <ele>2.3</ele>
        <time>2022-06-02T15:42:18Z</time>
      </trkpt>
      <trkpt lat="49.36092" lon="-1.19609">
        <ele>2.3</ele>
        <time>2022-06-02T15:42:20Z</time>
      </trkpt>
      <trkpt lat="49.36091" lon="-1.19611">
        <ele>2.3</ele>
        <time>2022-06-02T15:42:22Z</time>
      </trkpt>
      <trkpt lat="49.36092" lon="-1.19612">
        <ele>2.3</ele>
        <time>2022-06-02T15:42:23Z</time>
      </trkpt>
      <trkpt lat="49.36092" lon="-1.19613">
        <ele>2.3</ele>
        <time>2022-06-02T15:42:24Z</time>
      </trkpt>
      <trkpt lat="49.36092" lon="-1.19614">
        <ele>2.3</ele>
        <time>2022-06-02T15:42:25Z</time>
      </trkpt>
      <trkpt lat="49.36092" lon="-1.19615">
        <ele>2.3</ele>
        <time>2022-06-02T15:42:26Z</time>
      </trkpt>
      <trkpt lat="49.36091" lon="-1.19616">
        <ele>2.3</ele>
        <time>2022-06-02T15:42:27Z</time>
      </trkpt>
      <trkpt lat="49.3609" lon="-1.19617">
        <ele>2.3</ele>
        <time>2022-06-02T15:42:28Z</time>
      </trkpt>
      <trkpt lat="49.36088" lon="-1.19619">
        <ele>2.4</ele>
        <time>2022-06-02T15:42:29Z</time>
      </trkpt>
      <trkpt lat="49.36087" lon="-1.1962">
        <ele>2.4</ele>
        <time>2022-06-02T15:42:31Z</time>
      </trkpt>
      <trkpt lat="49.36086" lon="-1.19621">
        <ele>2.4</ele>
        <time>2022-06-02T15:42:32Z</time>
      </trkpt>
      <trkpt lat="49.36085" lon="-1.19622">
        <ele>2.4</ele>
        <time>2022-06-02T15:42:33Z</time>
      </trkpt>
      <trkpt lat="49.36084" lon="-1.19623">
        <ele>2.4</ele>
        <time>2022-06-02T15:42:34Z</time>
      </trkpt>
      <trkpt lat="49.36082" lon="-1.19624">
        <ele>2.4</ele>
        <time>2022-06-02T15:42:35Z</time>
      </trkpt>
      <trkpt lat="49.36081" lon="-1.19625">
        <ele>2.4</ele>
        <time>2022-06-02T15:42:37Z</time>
      </trkpt>
      <trkpt lat="49.3608" lon="-1.19626">
        <ele>2.4</ele>
        <time>2022-06-02T15:42:38Z</time>
      </trkpt>
      <trkpt lat="49.36079" lon="-1.19627">
        <ele>2.4</ele>
        <time>2022-06-02T15:42:39Z</time>
      </trkpt>
      <trkpt lat="49.36078" lon="-1.19627">
        <ele>2.4</ele>
        <time>2022-06-02T15:42:40Z</time>
      </trkpt>
      <trkpt lat="49.36077" lon="-1.19629">
        <ele>2.4</ele>
        <time>2022-06-02T15:42:41Z</time>
      </trkpt>
      <trkpt lat="49.36076" lon="-1.1963">
        <ele>2.4</ele>
        <time>2022-06-02T15:42:42Z</time>
      </trkpt>
      <trkpt lat="49.36076" lon="-1.19631">
        <ele>2.4</ele>
        <time>2022-06-02T15:42:44Z</time>
      </trkpt>
      <trkpt lat="49.36075" lon="-1.19632">
        <ele>2.4</ele>
        <time>2022-06-02T15:42:45Z</time>
      </trkpt>
      <trkpt lat="49.36074" lon="-1.19634">
        <ele>2.4</ele>
        <time>2022-06-02T15:42:46Z</time>
      </trkpt>
      <trkpt lat="49.36073" lon="-1.19635">
        <ele>2.4</ele>
        <time>2022-06-02T15:42:47Z</time>
      </trkpt>
      <trkpt lat="49.36072" lon="-1.19636">
        <ele>2.4</ele>
        <time>2022-06-02T15:42:48Z</time>
      </trkpt>
      <trkpt lat="49.36071" lon="-1.19638">
        <ele>2.4</ele>
        <time>2022-06-02T15:42:49Z</time>
      </trkpt>
      <trkpt lat="49.3607" lon="-1.19639">
        <ele>2.4</ele>
        <time>2022-06-02T15:42:50Z</time>
      </trkpt>
      <trkpt lat="49.36069" lon="-1.19641">
        <ele>2.4</ele>
        <time>2022-06-02T15:42:51Z</time>
      </trkpt>
      <trkpt lat="49.36068" lon="-1.19642">
        <ele>2.4</ele>
        <time>2022-06-02T15:42:52Z</time>
      </trkpt>
      <trkpt lat="49.36067" lon="-1.19644">
        <ele>2.4</ele>
        <time>2022-06-02T15:42:54Z</time>
      </trkpt>
      <trkpt lat="49.36065" lon="-1.19645">
        <ele>2.4</ele>
        <time>2022-06-02T15:42:55Z</time>
      </trkpt>
      <trkpt lat="49.36064" lon="-1.19646">
        <ele>2.4</ele>
        <time>2022-06-02T15:42:56Z</time>
      </trkpt>
      <trkpt lat="49.36063" lon="-1.19647">
        <ele>2.4</ele>
        <time>2022-06-02T15:42:58Z</time>
      </trkpt>
      <trkpt lat="49.36062" lon="-1.19648">
        <ele>2.4</ele>
        <time>2022-06-02T15:42:59Z</time>
      </trkpt>
      <trkpt lat="49.36061" lon="-1.19649">
        <ele>2.4</ele>
        <time>2022-06-02T15:43:00Z</time>
      </trkpt>
      <trkpt lat="49.36059" lon="-1.19651">
        <ele>2.4</ele>
        <time>2022-06-02T15:43:01Z</time>
      </trkpt>
      <trkpt lat="49.36058" lon="-1.19652">
        <ele>2.4</ele>
        <time>2022-06-02T15:43:02Z</time>
      </trkpt>
      <trkpt lat="49.36057" lon="-1.19653">
        <ele>2.4</ele>
        <time>2022-06-02T15:43:03Z</time>
      </trkpt>
      <trkpt lat="49.36056" lon="-1.19654">
        <ele>2.4</ele>
        <time>2022-06-02T15:43:04Z</time>
      </trkpt>
      <trkpt lat="49.36054" lon="-1.19656">
        <ele>2.4</ele>
        <time>2022-06-02T15:43:05Z</time>
      </trkpt>
      <trkpt lat="49.36053" lon="-1.19657">
        <ele>2.4</ele>
        <time>2022-06-02T15:43:06Z</time>
      </trkpt>
      <trkpt lat="49.36052" lon="-1.19658">
        <ele>2.4</ele>
        <time>2022-06-02T15:43:07Z</time>
      </trkpt>
      <trkpt lat="49.36052" lon="-1.19659">
        <ele>2.4</ele>
        <time>2022-06-02T15:43:09Z</time>
      </trkpt>
      <trkpt lat="49.36051" lon="-1.1966">
        <ele>2.4</ele>
        <time>2022-06-02T15:43:10Z</time>
      </trkpt>
      <trkpt lat="49.3605" lon="-1.19661">
        <ele>2.4</ele>
        <time>2022-06-02T15:43:11Z</time>
      </trkpt>
      <trkpt lat="49.36048" lon="-1.19663">
        <ele>2.4</ele>
        <time>2022-06-02T15:43:12Z</time>
      </trkpt>
      <trkpt lat="49.36047" lon="-1.19663">
        <ele>2.4</ele>
        <time>2022-06-02T15:43:13Z</time>
      </trkpt>
      <trkpt lat="49.36046" lon="-1.19664">
        <ele>2.4</ele>
        <time>2022-06-02T15:43:14Z</time>
      </trkpt>
      <trkpt lat="49.36045" lon="-1.19666">
        <ele>2.4</ele>
        <time>2022-06-02T15:43:15Z</time>
      </trkpt>
      <trkpt lat="49.36043" lon="-1.19667">
        <ele>2.4</ele>
        <time>2022-06-02T15:43:17Z</time>
      </trkpt>
      <trkpt lat="49.36041" lon="-1.19669">
        <ele>2.4</ele>
        <time>2022-06-02T15:43:18Z</time>
      </trkpt>
      <trkpt lat="49.3604" lon="-1.1967">
        <ele>2.4</ele>
        <time>2022-06-02T15:43:19Z</time>
      </trkpt>
      <trkpt lat="49.36039" lon="-1.1967">
        <ele>2.4</ele>
        <time>2022-06-02T15:43:20Z</time>
      </trkpt>
      <trkpt lat="49.36038" lon="-1.19672">
        <ele>2.4</ele>
        <time>2022-06-02T15:43:21Z</time>
      </trkpt>
      <trkpt lat="49.36037" lon="-1.19673">
        <ele>2.4</ele>
        <time>2022-06-02T15:43:22Z</time>
      </trkpt>
      <trkpt lat="49.36036" lon="-1.19674">
        <ele>2.4</ele>
        <time>2022-06-02T15:43:23Z</time>
      </trkpt>
      <trkpt lat="49.36035" lon="-1.19675">
        <ele>2.4</ele>
        <time>2022-06-02T15:43:24Z</time>
      </trkpt>
      <trkpt lat="49.36034" lon="-1.19676">
        <ele>2.4</ele>
        <time>2022-06-02T15:43:25Z</time>
      </trkpt>
      <trkpt lat="49.36033" lon="-1.19677">
        <ele>2.4</ele>
        <time>2022-06-02T15:43:26Z</time>
      </trkpt>
      <trkpt lat="49.36032" lon="-1.19678">
        <ele>2.4</ele>
        <time>2022-06-02T15:43:27Z</time>
      </trkpt>
      <trkpt lat="49.36031" lon="-1.19679">
        <ele>2.4</ele>
        <time>2022-06-02T15:43:28Z</time>
      </trkpt>
      <trkpt lat="49.3603" lon="-1.19679">
        <ele>2.4</ele>
        <time>2022-06-02T15:43:29Z</time>
      </trkpt>
      <trkpt lat="49.36029" lon="-1.1968">
        <ele>2.4</ele>
        <time>2022-06-02T15:43:30Z</time>
      </trkpt>
      <trkpt lat="49.36027" lon="-1.19681">
        <ele>2.4</ele>
        <time>2022-06-02T15:43:32Z</time>
      </trkpt>
      <trkpt lat="49.36027" lon="-1.19681">
        <ele>2.4</ele>
        <time>2022-06-02T15:43:33Z</time>
      </trkpt>
      <trkpt lat="49.36026" lon="-1.19682">
        <ele>2.4</ele>
        <time>2022-06-02T15:43:34Z</time>
      </trkpt>
      <trkpt lat="49.36025" lon="-1.19683">
        <ele>2.4</ele>
        <time>2022-06-02T15:43:35Z</time>
      </trkpt>
      <trkpt lat="49.36024" lon="-1.19683">
        <ele>2.4</ele>
        <time>2022-06-02T15:43:36Z</time>
      </trkpt>
      <trkpt lat="49.36022" lon="-1.19685">
        <ele>2.4</ele>
        <time>2022-06-02T15:43:37Z</time>
      </trkpt>
      <trkpt lat="49.36021" lon="-1.19685">
        <ele>2.4</ele>
        <time>2022-06-02T15:43:38Z</time>
      </trkpt>
      <trkpt lat="49.3602" lon="-1.19686">
        <ele>2.4</ele>
        <time>2022-06-02T15:43:39Z</time>
      </trkpt>
      <trkpt lat="49.36019" lon="-1.19687">
        <ele>2.4</ele>
        <time>2022-06-02T15:43:40Z</time>
      </trkpt>
      <trkpt lat="49.36017" lon="-1.19688">
        <ele>2.4</ele>
        <time>2022-06-02T15:43:41Z</time>
      </trkpt>
      <trkpt lat="49.36017" lon="-1.19688">
        <ele>2.4</ele>
        <time>2022-06-02T15:43:42Z</time>
      </trkpt>
      <trkpt lat="49.36016" lon="-1.19689">
        <ele>2.4</ele>
        <time>2022-06-02T15:43:43Z</time>
      </trkpt>
      <trkpt lat="49.36014" lon="-1.19689">
        <ele>2.4</ele>
        <time>2022-06-02T15:43:45Z</time>
      </trkpt>
      <trkpt lat="49.36013" lon="-1.1969">
        <ele>2.4</ele>
        <time>2022-06-02T15:43:46Z</time>
      </trkpt>
      <trkpt lat="49.36012" lon="-1.1969">
        <ele>2.4</ele>
        <time>2022-06-02T15:43:47Z</time>
      </trkpt>
      <trkpt lat="49.36011" lon="-1.19691">
        <ele>2.4</ele>
        <time>2022-06-02T15:43:48Z</time>
      </trkpt>
      <trkpt lat="49.3601" lon="-1.19691">
        <ele>2.4</ele>
        <time>2022-06-02T15:43:49Z</time>
      </trkpt>
      <trkpt lat="49.36009" lon="-1.19692">
        <ele>2.4</ele>
        <time>2022-06-02T15:43:50Z</time>
      </trkpt>
      <trkpt lat="49.36008" lon="-1.19692">
        <ele>2.4</ele>
        <time>2022-06-02T15:43:51Z</time>
      </trkpt>
      <trkpt lat="49.36007" lon="-1.19693">
        <ele>2.4</ele>
        <time>2022-06-02T15:43:52Z</time>
      </trkpt>
      <trkpt lat="49.36006" lon="-1.19693">
        <ele>2.4</ele>
        <time>2022-06-02T15:43:53Z</time>
      </trkpt>
      <trkpt lat="49.36005" lon="-1.19694">
        <ele>2.4</ele>
        <time>2022-06-02T15:43:54Z</time>
      </trkpt>
      <trkpt lat="49.36004" lon="-1.19694">
        <ele>2.4</ele>
        <time>2022-06-02T15:43:56Z</time>
      </trkpt>
      <trkpt lat="49.36003" lon="-1.19695">
        <ele>2.4</ele>
        <time>2022-06-02T15:43:57Z</time>
      </trkpt>
      <trkpt lat="49.36002" lon="-1.19695">
        <ele>2.4</ele>
        <time>2022-06-02T15:43:58Z</time>
      </trkpt>
      <trkpt lat="49.36001" lon="-1.19696">
        <ele>2.4</ele>
        <time>2022-06-02T15:43:59Z</time>
      </trkpt>
      <trkpt lat="49.36" lon="-1.19697">
        <ele>2.4</ele>
        <time>2022-06-02T15:44:00Z</time>
      </trkpt>
      <trkpt lat="49.35999" lon="-1.19697">
        <ele>2.4</ele>
        <time>2022-06-02T15:44:01Z</time>
      </trkpt>
      <trkpt lat="49.35998" lon="-1.19698">
        <ele>2.4</ele>
        <time>2022-06-02T15:44:02Z</time>
      </trkpt>
      <trkpt lat="49.35997" lon="-1.19698">
        <ele>2.4</ele>
        <time>2022-06-02T15:44:03Z</time>
      </trkpt>
      <trkpt lat="49.35996" lon="-1.19699">
        <ele>2.4</ele>
        <time>2022-06-02T15:44:04Z</time>
      </trkpt>
      <trkpt lat="49.35995" lon="-1.197">
        <ele>2.4</ele>
        <time>2022-06-02T15:44:06Z</time>
      </trkpt>
      <trkpt lat="49.35994" lon="-1.19702">
        <ele>2.4</ele>
        <time>2022-06-02T15:44:08Z</time>
      </trkpt>
      <trkpt lat="49.35995" lon="-1.19703">
        <ele>2.4</ele>
        <time>2022-06-02T15:44:09Z</time>
      </trkpt>
      <trkpt lat="49.35995" lon="-1.19704">
        <ele>2.4</ele>
        <time>2022-06-02T15:44:10Z</time>
      </trkpt>
      <trkpt lat="49.35996" lon="-1.19704">
        <ele>2.4</ele>
        <time>2022-06-02T15:44:11Z</time>
      </trkpt>
      <trkpt lat="49.35996" lon="-1.19704">
        <ele>2.4</ele>
        <time>2022-06-02T15:44:12Z</time>
      </trkpt>
      <trkpt lat="49.35996" lon="-1.19704">
        <ele>2.4</ele>
        <time>2022-06-02T15:44:13Z</time>
      </trkpt>
      <trkpt lat="49.35996" lon="-1.19704">
        <ele>2.4</ele>
        <time>2022-06-02T15:44:14Z</time>
      </trkpt>
      <trkpt lat="49.35995" lon="-1.19704">
        <ele>2.4</ele>
        <time>2022-06-02T15:44:15Z</time>
      </trkpt>
      <trkpt lat="49.35995" lon="-1.19703">
        <ele>2.4</ele>
        <time>2022-06-02T15:44:16Z</time>
      </trkpt>
      <trkpt lat="49.35995" lon="-1.19703">
        <ele>2.4</ele>
        <time>2022-06-02T15:44:17Z</time>
      </trkpt>
      <trkpt lat="49.35995" lon="-1.19703">
        <ele>2.4</ele>
        <time>2022-06-02T15:44:18Z</time>
      </trkpt>
      <trkpt lat="49.35995" lon="-1.19703">
        <ele>2.4</ele>
        <time>2022-06-02T15:44:19Z</time>
      </trkpt>
      <trkpt lat="49.35996" lon="-1.19703">
        <ele>2.4</ele>
        <time>2022-06-02T15:44:20Z</time>
      </trkpt>
      <trkpt lat="49.35996" lon="-1.19702">
        <ele>2.4</ele>
        <time>2022-06-02T15:44:21Z</time>
      </trkpt>
      <trkpt lat="49.35997" lon="-1.19702">
        <ele>2.4</ele>
        <time>2022-06-02T15:44:23Z</time>
      </trkpt>
      <trkpt lat="49.35997" lon="-1.19702">
        <ele>2.4</ele>
        <time>2022-06-02T15:44:24Z</time>
      </trkpt>
      <trkpt lat="49.35998" lon="-1.19702">
        <ele>2.4</ele>
        <time>2022-06-02T15:44:25Z</time>
      </trkpt>
      <trkpt lat="49.35999" lon="-1.19701">
        <ele>2.4</ele>
        <time>2022-06-02T15:44:26Z</time>
      </trkpt>
      <trkpt lat="49.35999" lon="-1.19701">
        <ele>2.4</ele>
        <time>2022-06-02T15:44:27Z</time>
      </trkpt>
      <trkpt lat="49.36" lon="-1.19701">
        <ele>2.4</ele>
        <time>2022-06-02T15:44:28Z</time>
      </trkpt>
      <trkpt lat="49.36" lon="-1.19701">
        <ele>2.4</ele>
        <time>2022-06-02T15:44:29Z</time>
      </trkpt>
      <trkpt lat="49.36001" lon="-1.197">
        <ele>2.4</ele>
        <time>2022-06-02T15:44:31Z</time>
      </trkpt>
      <trkpt lat="49.36002" lon="-1.197">
        <ele>2.4</ele>
        <time>2022-06-02T15:44:32Z</time>
      </trkpt>
      <trkpt lat="49.36003" lon="-1.19699">
        <ele>2.4</ele>
        <time>2022-06-02T15:44:33Z</time>
      </trkpt>
      <trkpt lat="49.36006" lon="-1.19698">
        <ele>2.4</ele>
        <time>2022-06-02T15:44:35Z</time>
      </trkpt>
      <trkpt lat="49.36006" lon="-1.19698">
        <ele>2.4</ele>
        <time>2022-06-02T15:44:37Z</time>
      </trkpt>
      <trkpt lat="49.36007" lon="-1.19698">
        <ele>2.4</ele>
        <time>2022-06-02T15:44:38Z</time>
      </trkpt>
      <trkpt lat="49.36008" lon="-1.19697">
        <ele>2.4</ele>
        <time>2022-06-02T15:44:39Z</time>
      </trkpt>
      <trkpt lat="49.36009" lon="-1.19696">
        <ele>2.4</ele>
        <time>2022-06-02T15:44:40Z</time>
      </trkpt>
      <trkpt lat="49.36009" lon="-1.19694">
        <ele>2.4</ele>
        <time>2022-06-02T15:44:41Z</time>
      </trkpt>
      <trkpt lat="49.36009" lon="-1.19693">
        <ele>2.4</ele>
        <time>2022-06-02T15:44:42Z</time>
      </trkpt>
      <trkpt lat="49.3601" lon="-1.19692">
        <ele>2.4</ele>
        <time>2022-06-02T15:44:43Z</time>
      </trkpt>
      <trkpt lat="49.36011" lon="-1.19692">
        <ele>2.4</ele>
        <time>2022-06-02T15:44:44Z</time>
      </trkpt>
      <trkpt lat="49.36013" lon="-1.19691">
        <ele>2.4</ele>
        <time>2022-06-02T15:44:45Z</time>
      </trkpt>
      <trkpt lat="49.36015" lon="-1.1969">
        <ele>2.4</ele>
        <time>2022-06-02T15:44:47Z</time>
      </trkpt>
      <trkpt lat="49.36018" lon="-1.19688">
        <ele>2.4</ele>
        <time>2022-06-02T15:44:48Z</time>
      </trkpt>
      <trkpt lat="49.36018" lon="-1.19687">
        <ele>2.4</ele>
        <time>2022-06-02T15:44:49Z</time>
      </trkpt>
      <trkpt lat="49.36019" lon="-1.19686">
        <ele>2.4</ele>
        <time>2022-06-02T15:44:50Z</time>
      </trkpt>
      <trkpt lat="49.36021" lon="-1.19685">
        <ele>2.4</ele>
        <time>2022-06-02T15:44:51Z</time>
      </trkpt>
      <trkpt lat="49.36022" lon="-1.19684">
        <ele>2.4</ele>
        <time>2022-06-02T15:44:52Z</time>
      </trkpt>
      <trkpt lat="49.36023" lon="-1.19684">
        <ele>2.4</ele>
        <time>2022-06-02T15:44:53Z</time>
      </trkpt>
      <trkpt lat="49.36025" lon="-1.19682">
        <ele>2.4</ele>
        <time>2022-06-02T15:44:54Z</time>
      </trkpt>
      <trkpt lat="49.36026" lon="-1.19681">
        <ele>2.4</ele>
        <time>2022-06-02T15:44:56Z</time>
      </trkpt>
      <trkpt lat="49.36027" lon="-1.1968">
        <ele>2.4</ele>
        <time>2022-06-02T15:44:57Z</time>
      </trkpt>
      <trkpt lat="49.36028" lon="-1.19679">
        <ele>2.4</ele>
        <time>2022-06-02T15:44:58Z</time>
      </trkpt>
      <trkpt lat="49.36029" lon="-1.19678">
        <ele>2.4</ele>
        <time>2022-06-02T15:44:59Z</time>
      </trkpt>
      <trkpt lat="49.36031" lon="-1.19676">
        <ele>2.4</ele>
        <time>2022-06-02T15:45:00Z</time>
      </trkpt>
      <trkpt lat="49.36032" lon="-1.19675">
        <ele>2.4</ele>
        <time>2022-06-02T15:45:01Z</time>
      </trkpt>
      <trkpt lat="49.36033" lon="-1.19673">
        <ele>2.4</ele>
        <time>2022-06-02T15:45:02Z</time>
      </trkpt>
      <trkpt lat="49.36034" lon="-1.19672">
        <ele>2.4</ele>
        <time>2022-06-02T15:45:03Z</time>
      </trkpt>
      <trkpt lat="49.36036" lon="-1.19671">
        <ele>2.4</ele>
        <time>2022-06-02T15:45:04Z</time>
      </trkpt>
      <trkpt lat="49.36037" lon="-1.1967">
        <ele>2.4</ele>
        <time>2022-06-02T15:45:05Z</time>
      </trkpt>
      <trkpt lat="49.36038" lon="-1.19669">
        <ele>2.4</ele>
        <time>2022-06-02T15:45:06Z</time>
      </trkpt>
      <trkpt lat="49.3604" lon="-1.19666">
        <ele>2.4</ele>
        <time>2022-06-02T15:45:08Z</time>
      </trkpt>
      <trkpt lat="49.36041" lon="-1.19665">
        <ele>2.4</ele>
        <time>2022-06-02T15:45:09Z</time>
      </trkpt>
      <trkpt lat="49.36042" lon="-1.19663">
        <ele>2.4</ele>
        <time>2022-06-02T15:45:10Z</time>
      </trkpt>
      <trkpt lat="49.36043" lon="-1.19662">
        <ele>2.4</ele>
        <time>2022-06-02T15:45:11Z</time>
      </trkpt>
      <trkpt lat="49.36045" lon="-1.19659">
        <ele>2.4</ele>
        <time>2022-06-02T15:45:12Z</time>
      </trkpt>
      <trkpt lat="49.36046" lon="-1.19658">
        <ele>2.4</ele>
        <time>2022-06-02T15:45:13Z</time>
      </trkpt>
      <trkpt lat="49.36047" lon="-1.19657">
        <ele>2.4</ele>
        <time>2022-06-02T15:45:14Z</time>
      </trkpt>
      <trkpt lat="49.36048" lon="-1.19657">
        <ele>2.4</ele>
        <time>2022-06-02T15:45:15Z</time>
      </trkpt>
      <trkpt lat="49.36049" lon="-1.19656">
        <ele>2.4</ele>
        <time>2022-06-02T15:45:16Z</time>
      </trkpt>
      <trkpt lat="49.36051" lon="-1.19655">
        <ele>2.4</ele>
        <time>2022-06-02T15:45:17Z</time>
      </trkpt>
      <trkpt lat="49.36053" lon="-1.19655">
        <ele>2.4</ele>
        <time>2022-06-02T15:45:19Z</time>
      </trkpt>
      <trkpt lat="49.36054" lon="-1.19656">
        <ele>2.4</ele>
        <time>2022-06-02T15:45:20Z</time>
      </trkpt>
      <trkpt lat="49.36055" lon="-1.19656">
        <ele>2.4</ele>
        <time>2022-06-02T15:45:21Z</time>
      </trkpt>
      <trkpt lat="49.36056" lon="-1.19656">
        <ele>2.5</ele>
        <time>2022-06-02T15:45:22Z</time>
      </trkpt>
      <trkpt lat="49.36058" lon="-1.19658">
        <ele>2.5</ele>
        <time>2022-06-02T15:45:23Z</time>
      </trkpt>
      <trkpt lat="49.36058" lon="-1.1966">
        <ele>2.5</ele>
        <time>2022-06-02T15:45:25Z</time>
      </trkpt>
      <trkpt lat="49.36059" lon="-1.19661">
        <ele>2.6</ele>
        <time>2022-06-02T15:45:26Z</time>
      </trkpt>
      <trkpt lat="49.3606" lon="-1.19663">
        <ele>2.6</ele>
        <time>2022-06-02T15:45:27Z</time>
      </trkpt>
      <trkpt lat="49.36062" lon="-1.19665">
        <ele>2.6</ele>
        <time>2022-06-02T15:45:28Z</time>
      </trkpt>
      <trkpt lat="49.36062" lon="-1.19667">
        <ele>2.6</ele>
        <time>2022-06-02T15:45:29Z</time>
      </trkpt>
      <trkpt lat="49.36063" lon="-1.19669">
        <ele>2.6</ele>
        <time>2022-06-02T15:45:30Z</time>
      </trkpt>
      <trkpt lat="49.36063" lon="-1.19671">
        <ele>2.7</ele>
        <time>2022-06-02T15:45:31Z</time>
      </trkpt>
      <trkpt lat="49.36064" lon="-1.19673">
        <ele>2.7</ele>
        <time>2022-06-02T15:45:32Z</time>
      </trkpt>
      <trkpt lat="49.36064" lon="-1.19676">
        <ele>2.7</ele>
        <time>2022-06-02T15:45:33Z</time>
      </trkpt>
      <trkpt lat="49.36065" lon="-1.19679">
        <ele>2.7</ele>
        <time>2022-06-02T15:45:35Z</time>
      </trkpt>
      <trkpt lat="49.36065" lon="-1.1968">
        <ele>2.7</ele>
        <time>2022-06-02T15:45:36Z</time>
      </trkpt>
      <trkpt lat="49.36066" lon="-1.19682">
        <ele>2.7</ele>
        <time>2022-06-02T15:45:37Z</time>
      </trkpt>
      <trkpt lat="49.36066" lon="-1.19684">
        <ele>2.7</ele>
        <time>2022-06-02T15:45:38Z</time>
      </trkpt>
      <trkpt lat="49.36066" lon="-1.19687">
        <ele>2.8</ele>
        <time>2022-06-02T15:45:39Z</time>
      </trkpt>
      <trkpt lat="49.36067" lon="-1.19689">
        <ele>2.8</ele>
        <time>2022-06-02T15:45:40Z</time>
      </trkpt>
      <trkpt lat="49.36068" lon="-1.19691">
        <ele>2.8</ele>
        <time>2022-06-02T15:45:41Z</time>
      </trkpt>
      <trkpt lat="49.36069" lon="-1.19694">
        <ele>2.8</ele>
        <time>2022-06-02T15:45:42Z</time>
      </trkpt>
      <trkpt lat="49.3607" lon="-1.19696">
        <ele>2.8</ele>
        <time>2022-06-02T15:45:43Z</time>
      </trkpt>
      <trkpt lat="49.3607" lon="-1.19696">
        <ele>2.8</ele>
        <time>2022-06-02T15:45:44Z</time>
      </trkpt>
      <trkpt lat="49.36071" lon="-1.19698">
        <ele>2.9</ele>
        <time>2022-06-02T15:45:45Z</time>
      </trkpt>
      <trkpt lat="49.36072" lon="-1.197">
        <ele>2.9</ele>
        <time>2022-06-02T15:45:46Z</time>
      </trkpt>
      <trkpt lat="49.36072" lon="-1.19701">
        <ele>2.9</ele>
        <time>2022-06-02T15:45:48Z</time>
      </trkpt>
      <trkpt lat="49.36073" lon="-1.19703">
        <ele>2.9</ele>
        <time>2022-06-02T15:45:49Z</time>
      </trkpt>
      <trkpt lat="49.36074" lon="-1.19705">
        <ele>2.9</ele>
        <time>2022-06-02T15:45:50Z</time>
      </trkpt>
      <trkpt lat="49.36075" lon="-1.19707">
        <ele>2.9</ele>
        <time>2022-06-02T15:45:51Z</time>
      </trkpt>
      <trkpt lat="49.36075" lon="-1.19709">
        <ele>3</ele>
        <time>2022-06-02T15:45:52Z</time>
      </trkpt>
      <trkpt lat="49.36076" lon="-1.19712">
        <ele>3</ele>
        <time>2022-06-02T15:45:53Z</time>
      </trkpt>
      <trkpt lat="49.36077" lon="-1.19713">
        <ele>3</ele>
        <time>2022-06-02T15:45:54Z</time>
      </trkpt>
      <trkpt lat="49.36077" lon="-1.19715">
        <ele>3</ele>
        <time>2022-06-02T15:45:55Z</time>
      </trkpt>
      <trkpt lat="49.36078" lon="-1.19716">
        <ele>3</ele>
        <time>2022-06-02T15:45:56Z</time>
      </trkpt>
      <trkpt lat="49.36078" lon="-1.19718">
        <ele>3.1</ele>
        <time>2022-06-02T15:45:57Z</time>
      </trkpt>
      <trkpt lat="49.36079" lon="-1.19721">
        <ele>3.1</ele>
        <time>2022-06-02T15:45:58Z</time>
      </trkpt>
      <trkpt lat="49.3608" lon="-1.19722">
        <ele>3.1</ele>
        <time>2022-06-02T15:46:00Z</time>
      </trkpt>
      <trkpt lat="49.3608" lon="-1.19723">
        <ele>3.1</ele>
        <time>2022-06-02T15:46:01Z</time>
      </trkpt>
      <trkpt lat="49.36081" lon="-1.19725">
        <ele>3.2</ele>
        <time>2022-06-02T15:46:02Z</time>
      </trkpt>
      <trkpt lat="49.36082" lon="-1.19726">
        <ele>3.2</ele>
        <time>2022-06-02T15:46:03Z</time>
      </trkpt>
      <trkpt lat="49.36083" lon="-1.19729">
        <ele>3.2</ele>
        <time>2022-06-02T15:46:04Z</time>
      </trkpt>
      <trkpt lat="49.36083" lon="-1.1973">
        <ele>3.3</ele>
        <time>2022-06-02T15:46:05Z</time>
      </trkpt>
      <trkpt lat="49.36084" lon="-1.19732">
        <ele>3.3</ele>
        <time>2022-06-02T15:46:06Z</time>
      </trkpt>
      <trkpt lat="49.36084" lon="-1.19734">
        <ele>3.3</ele>
        <time>2022-06-02T15:46:08Z</time>
      </trkpt>
      <trkpt lat="49.36085" lon="-1.19736">
        <ele>3.4</ele>
        <time>2022-06-02T15:46:09Z</time>
      </trkpt>
      <trkpt lat="49.36086" lon="-1.19738">
        <ele>3.4</ele>
        <time>2022-06-02T15:46:10Z</time>
      </trkpt>
      <trkpt lat="49.36086" lon="-1.19739">
        <ele>3.4</ele>
        <time>2022-06-02T15:46:12Z</time>
      </trkpt>
      <trkpt lat="49.36087" lon="-1.19741">
        <ele>3.5</ele>
        <time>2022-06-02T15:46:13Z</time>
      </trkpt>
      <trkpt lat="49.36088" lon="-1.19743">
        <ele>3.5</ele>
        <time>2022-06-02T15:46:14Z</time>
      </trkpt>
      <trkpt lat="49.36089" lon="-1.19746">
        <ele>3.6</ele>
        <time>2022-06-02T15:46:15Z</time>
      </trkpt>
      <trkpt lat="49.36089" lon="-1.19747">
        <ele>3.6</ele>
        <time>2022-06-02T15:46:16Z</time>
      </trkpt>
      <trkpt lat="49.36089" lon="-1.19748">
        <ele>3.6</ele>
        <time>2022-06-02T15:46:17Z</time>
      </trkpt>
      <trkpt lat="49.3609" lon="-1.1975">
        <ele>3.7</ele>
        <time>2022-06-02T15:46:18Z</time>
      </trkpt>
      <trkpt lat="49.36091" lon="-1.19752">
        <ele>3.7</ele>
        <time>2022-06-02T15:46:19Z</time>
      </trkpt>
      <trkpt lat="49.36091" lon="-1.19754">
        <ele>3.7</ele>
        <time>2022-06-02T15:46:21Z</time>
      </trkpt>
      <trkpt lat="49.36092" lon="-1.19757">
        <ele>3.8</ele>
        <time>2022-06-02T15:46:22Z</time>
      </trkpt>
      <trkpt lat="49.36092" lon="-1.19759">
        <ele>3.8</ele>
        <time>2022-06-02T15:46:24Z</time>
      </trkpt>
      <trkpt lat="49.36092" lon="-1.1976">
        <ele>3.9</ele>
        <time>2022-06-02T15:46:25Z</time>
      </trkpt>
      <trkpt lat="49.36093" lon="-1.19762">
        <ele>3.9</ele>
        <time>2022-06-02T15:46:26Z</time>
      </trkpt>
      <trkpt lat="49.36093" lon="-1.19764">
        <ele>3.9</ele>
        <time>2022-06-02T15:46:27Z</time>
      </trkpt>
      <trkpt lat="49.36094" lon="-1.19766">
        <ele>4</ele>
        <time>2022-06-02T15:46:28Z</time>
      </trkpt>
      <trkpt lat="49.36095" lon="-1.19768">
        <ele>4</ele>
        <time>2022-06-02T15:46:29Z</time>
      </trkpt>
      <trkpt lat="49.36095" lon="-1.1977">
        <ele>4.1</ele>
        <time>2022-06-02T15:46:30Z</time>
      </trkpt>
      <trkpt lat="49.36095" lon="-1.19772">
        <ele>4.1</ele>
        <time>2022-06-02T15:46:31Z</time>
      </trkpt>
      <trkpt lat="49.36096" lon="-1.19773">
        <ele>4.2</ele>
        <time>2022-06-02T15:46:32Z</time>
      </trkpt>
      <trkpt lat="49.36097" lon="-1.19776">
        <ele>4.2</ele>
        <time>2022-06-02T15:46:34Z</time>
      </trkpt>
      <trkpt lat="49.36097" lon="-1.19777">
        <ele>4.2</ele>
        <time>2022-06-02T15:46:35Z</time>
      </trkpt>
      <trkpt lat="49.36097" lon="-1.19778">
        <ele>4.3</ele>
        <time>2022-06-02T15:46:36Z</time>
      </trkpt>
      <trkpt lat="49.36098" lon="-1.1978">
        <ele>4.3</ele>
        <time>2022-06-02T15:46:37Z</time>
      </trkpt>
      <trkpt lat="49.36099" lon="-1.19782">
        <ele>4.4</ele>
        <time>2022-06-02T15:46:38Z</time>
      </trkpt>
      <trkpt lat="49.361" lon="-1.19784">
        <ele>4.4</ele>
        <time>2022-06-02T15:46:39Z</time>
      </trkpt>
      <trkpt lat="49.36101" lon="-1.19786">
        <ele>4.5</ele>
        <time>2022-06-02T15:46:40Z</time>
      </trkpt>
      <trkpt lat="49.36101" lon="-1.19787">
        <ele>4.5</ele>
        <time>2022-06-02T15:46:41Z</time>
      </trkpt>
      <trkpt lat="49.36102" lon="-1.19788">
        <ele>4.5</ele>
        <time>2022-06-02T15:46:42Z</time>
      </trkpt>
      <trkpt lat="49.36103" lon="-1.19791">
        <ele>4.6</ele>
        <time>2022-06-02T15:46:43Z</time>
      </trkpt>
      <trkpt lat="49.36103" lon="-1.19792">
        <ele>4.6</ele>
        <time>2022-06-02T15:46:45Z</time>
      </trkpt>
      <trkpt lat="49.36104" lon="-1.19793">
        <ele>4.6</ele>
        <time>2022-06-02T15:46:46Z</time>
      </trkpt>
      <trkpt lat="49.36105" lon="-1.19794">
        <ele>4.7</ele>
        <time>2022-06-02T15:46:47Z</time>
      </trkpt>
      <trkpt lat="49.36105" lon="-1.19797">
        <ele>4.7</ele>
        <time>2022-06-02T15:46:48Z</time>
      </trkpt>
      <trkpt lat="49.36106" lon="-1.198">
        <ele>4.8</ele>
        <time>2022-06-02T15:46:49Z</time>
      </trkpt>
      <trkpt lat="49.36107" lon="-1.19801">
        <ele>4.8</ele>
        <time>2022-06-02T15:46:51Z</time>
      </trkpt>
      <trkpt lat="49.36107" lon="-1.19803">
        <ele>4.9</ele>
        <time>2022-06-02T15:46:52Z</time>
      </trkpt>
      <trkpt lat="49.36108" lon="-1.19804">
        <ele>4.9</ele>
        <time>2022-06-02T15:46:53Z</time>
      </trkpt>
      <trkpt lat="49.36108" lon="-1.19805">
        <ele>4.9</ele>
        <time>2022-06-02T15:46:54Z</time>
      </trkpt>
      <trkpt lat="49.36108" lon="-1.19806">
        <ele>5</ele>
        <time>2022-06-02T15:46:55Z</time>
      </trkpt>
      <trkpt lat="49.36109" lon="-1.19808">
        <ele>5</ele>
        <time>2022-06-02T15:46:56Z</time>
      </trkpt>
      <trkpt lat="49.36109" lon="-1.19809">
        <ele>5</ele>
        <time>2022-06-02T15:46:57Z</time>
      </trkpt>
      <trkpt lat="49.3611" lon="-1.19812">
        <ele>5.1</ele>
        <time>2022-06-02T15:46:58Z</time>
      </trkpt>
      <trkpt lat="49.36111" lon="-1.19813">
        <ele>5.1</ele>
        <time>2022-06-02T15:46:59Z</time>
      </trkpt>
      <trkpt lat="49.36111" lon="-1.19814">
        <ele>5.2</ele>
        <time>2022-06-02T15:47:00Z</time>
      </trkpt>
      <trkpt lat="49.36112" lon="-1.19818">
        <ele>5.2</ele>
        <time>2022-06-02T15:47:02Z</time>
      </trkpt>
      <trkpt lat="49.36112" lon="-1.19819">
        <ele>5.3</ele>
        <time>2022-06-02T15:47:03Z</time>
      </trkpt>
      <trkpt lat="49.36113" lon="-1.19821">
        <ele>5.3</ele>
        <time>2022-06-02T15:47:04Z</time>
      </trkpt>
      <trkpt lat="49.36113" lon="-1.19822">
        <ele>5.3</ele>
        <time>2022-06-02T15:47:05Z</time>
      </trkpt>
      <trkpt lat="49.36114" lon="-1.19824">
        <ele>5.4</ele>
        <time>2022-06-02T15:47:07Z</time>
      </trkpt>
      <trkpt lat="49.36114" lon="-1.19825">
        <ele>5.4</ele>
        <time>2022-06-02T15:47:08Z</time>
      </trkpt>
      <trkpt lat="49.36115" lon="-1.19828">
        <ele>5.5</ele>
        <time>2022-06-02T15:47:09Z</time>
      </trkpt>
      <trkpt lat="49.36116" lon="-1.1983">
        <ele>5.5</ele>
        <time>2022-06-02T15:47:10Z</time>
      </trkpt>
      <trkpt lat="49.36116" lon="-1.19832">
        <ele>5.6</ele>
        <time>2022-06-02T15:47:12Z</time>
      </trkpt>
      <trkpt lat="49.36117" lon="-1.19834">
        <ele>5.6</ele>
        <time>2022-06-02T15:47:13Z</time>
      </trkpt>
      <trkpt lat="49.36117" lon="-1.19835">
        <ele>5.7</ele>
        <time>2022-06-02T15:47:14Z</time>
      </trkpt>
      <trkpt lat="49.36118" lon="-1.19837">
        <ele>5.7</ele>
        <time>2022-06-02T15:47:15Z</time>
      </trkpt>
      <trkpt lat="49.36118" lon="-1.19839">
        <ele>5.8</ele>
        <time>2022-06-02T15:47:16Z</time>
      </trkpt>
      <trkpt lat="49.36119" lon="-1.19842">
        <ele>5.8</ele>
        <time>2022-06-02T15:47:17Z</time>
      </trkpt>
      <trkpt lat="49.36119" lon="-1.19843">
        <ele>5.9</ele>
        <time>2022-06-02T15:47:18Z</time>
      </trkpt>
      <trkpt lat="49.3612" lon="-1.19844">
        <ele>5.9</ele>
        <time>2022-06-02T15:47:19Z</time>
      </trkpt>
      <trkpt lat="49.3612" lon="-1.19845">
        <ele>5.9</ele>
        <time>2022-06-02T15:47:20Z</time>
      </trkpt>
      <trkpt lat="49.36121" lon="-1.19847">
        <ele>6</ele>
        <time>2022-06-02T15:47:22Z</time>
      </trkpt>
      <trkpt lat="49.36121" lon="-1.19848">
        <ele>6</ele>
        <time>2022-06-02T15:47:23Z</time>
      </trkpt>
      <trkpt lat="49.36122" lon="-1.19851">
        <ele>6.1</ele>
        <time>2022-06-02T15:47:24Z</time>
      </trkpt>
      <trkpt lat="49.36123" lon="-1.19853">
        <ele>6.1</ele>
        <time>2022-06-02T15:47:25Z</time>
      </trkpt>
      <trkpt lat="49.36124" lon="-1.19855">
        <ele>6.2</ele>
        <time>2022-06-02T15:47:27Z</time>
      </trkpt>
      <trkpt lat="49.36124" lon="-1.19857">
        <ele>6.2</ele>
        <time>2022-06-02T15:47:28Z</time>
      </trkpt>
      <trkpt lat="49.36125" lon="-1.19858">
        <ele>6.2</ele>
        <time>2022-06-02T15:47:29Z</time>
      </trkpt>
      <trkpt lat="49.36125" lon="-1.19859">
        <ele>6.3</ele>
        <time>2022-06-02T15:47:30Z</time>
      </trkpt>
      <trkpt lat="49.36126" lon="-1.19861">
        <ele>6.3</ele>
        <time>2022-06-02T15:47:32Z</time>
      </trkpt>
      <trkpt lat="49.36126" lon="-1.19861">
        <ele>6.3</ele>
        <time>2022-06-02T15:47:33Z</time>
      </trkpt>
      <trkpt lat="49.36127" lon="-1.19862">
        <ele>6.3</ele>
        <time>2022-06-02T15:47:34Z</time>
      </trkpt>
      <trkpt lat="49.36127" lon="-1.19863">
        <ele>6.3</ele>
        <time>2022-06-02T15:47:35Z</time>
      </trkpt>
      <trkpt lat="49.36128" lon="-1.19863">
        <ele>6.3</ele>
        <time>2022-06-02T15:47:36Z</time>
      </trkpt>
      <trkpt lat="49.36128" lon="-1.19863">
        <ele>6.3</ele>
        <time>2022-06-02T15:47:37Z</time>
      </trkpt>
      <trkpt lat="49.36128" lon="-1.19862">
        <ele>6.3</ele>
        <time>2022-06-02T15:47:39Z</time>
      </trkpt>
      <trkpt lat="49.36128" lon="-1.19861">
        <ele>6.3</ele>
        <time>2022-06-02T15:47:40Z</time>
      </trkpt>
      <trkpt lat="49.36128" lon="-1.19861">
        <ele>6.3</ele>
        <time>2022-06-02T15:47:41Z</time>
      </trkpt>
      <trkpt lat="49.36127" lon="-1.19861">
        <ele>6.3</ele>
        <time>2022-06-02T15:47:42Z</time>
      </trkpt>
      <trkpt lat="49.36127" lon="-1.19861">
        <ele>6.3</ele>
        <time>2022-06-02T15:47:43Z</time>
      </trkpt>
      <trkpt lat="49.36127" lon="-1.19861">
        <ele>6.3</ele>
        <time>2022-06-02T15:47:44Z</time>
      </trkpt>
      <trkpt lat="49.36127" lon="-1.19861">
        <ele>6.3</ele>
        <time>2022-06-02T15:47:45Z</time>
      </trkpt>
      <trkpt lat="49.36127" lon="-1.19861">
        <ele>6.3</ele>
        <time>2022-06-02T15:47:46Z</time>
      </trkpt>
      <trkpt lat="49.36127" lon="-1.19861">
        <ele>6.3</ele>
        <time>2022-06-02T15:47:47Z</time>
      </trkpt>
      <trkpt lat="49.36127" lon="-1.1986">
        <ele>6.3</ele>
        <time>2022-06-02T15:47:48Z</time>
      </trkpt>
      <trkpt lat="49.36127" lon="-1.1986">
        <ele>6.3</ele>
        <time>2022-06-02T15:47:49Z</time>
      </trkpt>
      <trkpt lat="49.36127" lon="-1.1986">
        <ele>6.3</ele>
        <time>2022-06-02T15:47:50Z</time>
      </trkpt>
      <trkpt lat="49.36127" lon="-1.1986">
        <ele>6.3</ele>
        <time>2022-06-02T15:47:51Z</time>
      </trkpt>
      <trkpt lat="49.36127" lon="-1.1986">
        <ele>6.3</ele>
        <time>2022-06-02T15:47:52Z</time>
      </trkpt>
      <trkpt lat="49.36126" lon="-1.19861">
        <ele>6.3</ele>
        <time>2022-06-02T15:47:53Z</time>
      </trkpt>
      <trkpt lat="49.36126" lon="-1.19861">
        <ele>6.3</ele>
        <time>2022-06-02T15:47:54Z</time>
      </trkpt>
      <trkpt lat="49.36126" lon="-1.19861">
        <ele>6.3</ele>
        <time>2022-06-02T15:47:55Z</time>
      </trkpt>
      <trkpt lat="49.36126" lon="-1.19861">
        <ele>6.3</ele>
        <time>2022-06-02T15:47:56Z</time>
      </trkpt>
      <trkpt lat="49.36126" lon="-1.19861">
        <ele>6.3</ele>
        <time>2022-06-02T15:47:57Z</time>
      </trkpt>
      <trkpt lat="49.36126" lon="-1.19861">
        <ele>6.3</ele>
        <time>2022-06-02T15:47:58Z</time>
      </trkpt>
      <trkpt lat="49.36126" lon="-1.19861">
        <ele>6.3</ele>
        <time>2022-06-02T15:47:59Z</time>
      </trkpt>
      <trkpt lat="49.36126" lon="-1.19861">
        <ele>6.3</ele>
        <time>2022-06-02T15:48:00Z</time>
      </trkpt>
      <trkpt lat="49.36126" lon="-1.19861">
        <ele>6.3</ele>
        <time>2022-06-02T15:48:01Z</time>
      </trkpt>
      <trkpt lat="49.36126" lon="-1.19861">
        <ele>6.3</ele>
        <time>2022-06-02T15:48:02Z</time>
      </trkpt>
      <trkpt lat="49.36126" lon="-1.19861">
        <ele>6.3</ele>
        <time>2022-06-02T15:48:03Z</time>
      </trkpt>
      <trkpt lat="49.36126" lon="-1.19861">
        <ele>6.3</ele>
        <time>2022-06-02T15:48:04Z</time>
      </trkpt>
      <trkpt lat="49.36126" lon="-1.19858">
        <ele>6.4</ele>
        <time>2022-06-02T15:48:05Z</time>
      </trkpt>
      <trkpt lat="49.36125" lon="-1.19857">
        <ele>6.4</ele>
        <time>2022-06-02T15:48:06Z</time>
      </trkpt>
      <trkpt lat="49.36125" lon="-1.19856">
        <ele>6.4</ele>
        <time>2022-06-02T15:48:07Z</time>
      </trkpt>
      <trkpt lat="49.36125" lon="-1.19856">
        <ele>6.4</ele>
        <time>2022-06-02T15:48:08Z</time>
      </trkpt>
      <trkpt lat="49.36125" lon="-1.19856">
        <ele>6.4</ele>
        <time>2022-06-02T15:48:09Z</time>
      </trkpt>
      <trkpt lat="49.36125" lon="-1.19856">
        <ele>6.4</ele>
        <time>2022-06-02T15:48:10Z</time>
      </trkpt>
      <trkpt lat="49.36125" lon="-1.19855">
        <ele>6.4</ele>
        <time>2022-06-02T15:48:11Z</time>
      </trkpt>
      <trkpt lat="49.36125" lon="-1.19855">
        <ele>6.4</ele>
        <time>2022-06-02T15:48:12Z</time>
      </trkpt>
      <trkpt lat="49.36125" lon="-1.19855">
        <ele>6.4</ele>
        <time>2022-06-02T15:48:13Z</time>
      </trkpt>
      <trkpt lat="49.36125" lon="-1.19855">
        <ele>6.4</ele>
        <time>2022-06-02T15:48:14Z</time>
      </trkpt>
      <trkpt lat="49.36125" lon="-1.19855">
        <ele>6.4</ele>
        <time>2022-06-02T15:48:15Z</time>
      </trkpt>
      <trkpt lat="49.36125" lon="-1.19855">
        <ele>6.4</ele>
        <time>2022-06-02T15:48:16Z</time>
      </trkpt>
      <trkpt lat="49.36126" lon="-1.19855">
        <ele>6.4</ele>
        <time>2022-06-02T15:48:17Z</time>
      </trkpt>
      <trkpt lat="49.36126" lon="-1.19855">
        <ele>6.4</ele>
        <time>2022-06-02T15:48:18Z</time>
      </trkpt>
      <trkpt lat="49.36127" lon="-1.19855">
        <ele>6.4</ele>
        <time>2022-06-02T15:48:19Z</time>
      </trkpt>
      <trkpt lat="49.36127" lon="-1.19855">
        <ele>6.4</ele>
        <time>2022-06-02T15:48:20Z</time>
      </trkpt>
      <trkpt lat="49.36128" lon="-1.19855">
        <ele>6.4</ele>
        <time>2022-06-02T15:48:21Z</time>
      </trkpt>
      <trkpt lat="49.36131" lon="-1.19856">
        <ele>6.4</ele>
        <time>2022-06-02T15:48:24Z</time>
      </trkpt>
      <trkpt lat="49.36131" lon="-1.19856">
        <ele>6.4</ele>
        <time>2022-06-02T15:48:25Z</time>
      </trkpt>
      <trkpt lat="49.36131" lon="-1.19857">
        <ele>6.4</ele>
        <time>2022-06-02T15:48:26Z</time>
      </trkpt>
      <trkpt lat="49.36131" lon="-1.19858">
        <ele>6.4</ele>
        <time>2022-06-02T15:48:27Z</time>
      </trkpt>
      <trkpt lat="49.36131" lon="-1.19859">
        <ele>6.4</ele>
        <time>2022-06-02T15:48:29Z</time>
      </trkpt>
      <trkpt lat="49.36131" lon="-1.19859">
        <ele>6.4</ele>
        <time>2022-06-02T15:48:30Z</time>
      </trkpt>
      <trkpt lat="49.36131" lon="-1.19859">
        <ele>6.4</ele>
        <time>2022-06-02T15:48:31Z</time>
      </trkpt>
      <trkpt lat="49.36131" lon="-1.19859">
        <ele>6.4</ele>
        <time>2022-06-02T15:48:32Z</time>
      </trkpt>
      <trkpt lat="49.36131" lon="-1.19859">
        <ele>6.4</ele>
        <time>2022-06-02T15:48:33Z</time>
      </trkpt>
      <trkpt lat="49.36131" lon="-1.1986">
        <ele>6.4</ele>
        <time>2022-06-02T15:48:34Z</time>
      </trkpt>
      <trkpt lat="49.36131" lon="-1.1986">
        <ele>6.4</ele>
        <time>2022-06-02T15:48:35Z</time>
      </trkpt>
      <trkpt lat="49.36131" lon="-1.1986">
        <ele>6.4</ele>
        <time>2022-06-02T15:48:36Z</time>
      </trkpt>
      <trkpt lat="49.36131" lon="-1.1986">
        <ele>6.4</ele>
        <time>2022-06-02T15:48:37Z</time>
      </trkpt>
      <trkpt lat="49.36131" lon="-1.1986">
        <ele>6.4</ele>
        <time>2022-06-02T15:48:39Z</time>
      </trkpt>
      <trkpt lat="49.36131" lon="-1.1986">
        <ele>6.4</ele>
        <time>2022-06-02T15:48:40Z</time>
      </trkpt>
      <trkpt lat="49.36131" lon="-1.1986">
        <ele>6.4</ele>
        <time>2022-06-02T15:48:41Z</time>
      </trkpt>
      <trkpt lat="49.36131" lon="-1.1986">
        <ele>6.4</ele>
        <time>2022-06-02T15:48:42Z</time>
      </trkpt>
      <trkpt lat="49.3613" lon="-1.1986">
        <ele>6.4</ele>
        <time>2022-06-02T15:48:43Z</time>
      </trkpt>
      <trkpt lat="49.3613" lon="-1.1986">
        <ele>6.4</ele>
        <time>2022-06-02T15:48:44Z</time>
      </trkpt>
      <trkpt lat="49.3613" lon="-1.19859">
        <ele>6.4</ele>
        <time>2022-06-02T15:48:45Z</time>
      </trkpt>
      <trkpt lat="49.3613" lon="-1.19859">
        <ele>6.4</ele>
        <time>2022-06-02T15:48:46Z</time>
      </trkpt>
      <trkpt lat="49.3613" lon="-1.19859">
        <ele>6.4</ele>
        <time>2022-06-02T15:48:47Z</time>
      </trkpt>
      <trkpt lat="49.3613" lon="-1.19859">
        <ele>6.4</ele>
        <time>2022-06-02T15:48:48Z</time>
      </trkpt>
      <trkpt lat="49.3613" lon="-1.19859">
        <ele>6.4</ele>
        <time>2022-06-02T15:48:49Z</time>
      </trkpt>
      <trkpt lat="49.3613" lon="-1.19859">
        <ele>6.4</ele>
        <time>2022-06-02T15:48:50Z</time>
      </trkpt>
      <trkpt lat="49.3613" lon="-1.19859">
        <ele>6.4</ele>
        <time>2022-06-02T15:48:51Z</time>
      </trkpt>
      <trkpt lat="49.3613" lon="-1.19859">
        <ele>6.4</ele>
        <time>2022-06-02T15:48:52Z</time>
      </trkpt>
      <trkpt lat="49.3613" lon="-1.19859">
        <ele>6.4</ele>
        <time>2022-06-02T15:48:53Z</time>
      </trkpt>
      <trkpt lat="49.3613" lon="-1.19859">
        <ele>6.4</ele>
        <time>2022-06-02T15:48:54Z</time>
      </trkpt>
      <trkpt lat="49.3613" lon="-1.19859">
        <ele>6.4</ele>
        <time>2022-06-02T15:48:55Z</time>
      </trkpt>
      <trkpt lat="49.3613" lon="-1.19859">
        <ele>6.4</ele>
        <time>2022-06-02T15:48:56Z</time>
      </trkpt>
      <trkpt lat="49.3613" lon="-1.19859">
        <ele>6.4</ele>
        <time>2022-06-02T15:48:57Z</time>
      </trkpt>
      <trkpt lat="49.36131" lon="-1.19861">
        <ele>6.4</ele>
        <time>2022-06-02T15:48:58Z</time>
      </trkpt>
      <trkpt lat="49.36132" lon="-1.19863">
        <ele>6.4</ele>
        <time>2022-06-02T15:48:59Z</time>
      </trkpt>
      <trkpt lat="49.36133" lon="-1.19864">
        <ele>6.4</ele>
        <time>2022-06-02T15:49:00Z</time>
      </trkpt>
      <trkpt lat="49.36134" lon="-1.19864">
        <ele>6.4</ele>
        <time>2022-06-02T15:49:01Z</time>
      </trkpt>
      <trkpt lat="49.36136" lon="-1.19864">
        <ele>6.4</ele>
        <time>2022-06-02T15:49:02Z</time>
      </trkpt>
      <trkpt lat="49.36137" lon="-1.19865">
        <ele>6.4</ele>
        <time>2022-06-02T15:49:03Z</time>
      </trkpt>
      <trkpt lat="49.36138" lon="-1.19865">
        <ele>6.4</ele>
        <time>2022-06-02T15:49:04Z</time>
      </trkpt>
      <trkpt lat="49.36139" lon="-1.19865">
        <ele>6.4</ele>
        <time>2022-06-02T15:49:05Z</time>
      </trkpt>
      <trkpt lat="49.36139" lon="-1.19866">
        <ele>6.5</ele>
        <time>2022-06-02T15:49:06Z</time>
      </trkpt>
      <trkpt lat="49.36139" lon="-1.19866">
        <ele>6.5</ele>
        <time>2022-06-02T15:49:07Z</time>
      </trkpt>
      <trkpt lat="49.3614" lon="-1.19866">
        <ele>6.5</ele>
        <time>2022-06-02T15:49:08Z</time>
      </trkpt>
      <trkpt lat="49.3614" lon="-1.19866">
        <ele>6.5</ele>
        <time>2022-06-02T15:49:09Z</time>
      </trkpt>
      <trkpt lat="49.36141" lon="-1.19866">
        <ele>6.5</ele>
        <time>2022-06-02T15:49:10Z</time>
      </trkpt>
      <trkpt lat="49.36142" lon="-1.19866">
        <ele>6.5</ele>
        <time>2022-06-02T15:49:11Z</time>
      </trkpt>
      <trkpt lat="49.36142" lon="-1.19866">
        <ele>6.5</ele>
        <time>2022-06-02T15:49:12Z</time>
      </trkpt>
      <trkpt lat="49.36143" lon="-1.19867">
        <ele>6.5</ele>
        <time>2022-06-02T15:49:13Z</time>
      </trkpt>
      <trkpt lat="49.36144" lon="-1.19867">
        <ele>6.5</ele>
        <time>2022-06-02T15:49:14Z</time>
      </trkpt>
      <trkpt lat="49.36145" lon="-1.19867">
        <ele>6.5</ele>
        <time>2022-06-02T15:49:15Z</time>
      </trkpt>
      <trkpt lat="49.36146" lon="-1.19867">
        <ele>6.5</ele>
        <time>2022-06-02T15:49:16Z</time>
      </trkpt>
      <trkpt lat="49.36148" lon="-1.19868">
        <ele>6.6</ele>
        <time>2022-06-02T15:49:17Z</time>
      </trkpt>
      <trkpt lat="49.36149" lon="-1.19868">
        <ele>6.6</ele>
        <time>2022-06-02T15:49:18Z</time>
      </trkpt>
      <trkpt lat="49.36149" lon="-1.19868">
        <ele>6.6</ele>
        <time>2022-06-02T15:49:19Z</time>
      </trkpt>
      <trkpt lat="49.3615" lon="-1.19868">
        <ele>6.6</ele>
        <time>2022-06-02T15:49:20Z</time>
      </trkpt>
      <trkpt lat="49.3615" lon="-1.19868">
        <ele>6.6</ele>
        <time>2022-06-02T15:49:21Z</time>
      </trkpt>
      <trkpt lat="49.3615" lon="-1.19868">
        <ele>6.6</ele>
        <time>2022-06-02T15:49:22Z</time>
      </trkpt>
      <trkpt lat="49.36151" lon="-1.19868">
        <ele>6.7</ele>
        <time>2022-06-02T15:49:23Z</time>
      </trkpt>
      <trkpt lat="49.36152" lon="-1.19868">
        <ele>6.7</ele>
        <time>2022-06-02T15:49:24Z</time>
      </trkpt>
      <trkpt lat="49.36154" lon="-1.19869">
        <ele>6.7</ele>
        <time>2022-06-02T15:49:25Z</time>
      </trkpt>
      <trkpt lat="49.36157" lon="-1.19868">
        <ele>6.8</ele>
        <time>2022-06-02T15:49:26Z</time>
      </trkpt>
      <trkpt lat="49.36158" lon="-1.19868">
        <ele>6.8</ele>
        <time>2022-06-02T15:49:27Z</time>
      </trkpt>
      <trkpt lat="49.36159" lon="-1.19868">
        <ele>6.9</ele>
        <time>2022-06-02T15:49:28Z</time>
      </trkpt>
      <trkpt lat="49.3616" lon="-1.19868">
        <ele>6.9</ele>
        <time>2022-06-02T15:49:29Z</time>
      </trkpt>
      <trkpt lat="49.36161" lon="-1.19868">
        <ele>6.9</ele>
        <time>2022-06-02T15:49:30Z</time>
      </trkpt>
      <trkpt lat="49.36162" lon="-1.19868">
        <ele>6.9</ele>
        <time>2022-06-02T15:49:32Z</time>
      </trkpt>
      <trkpt lat="49.36163" lon="-1.19869">
        <ele>6.9</ele>
        <time>2022-06-02T15:49:33Z</time>
      </trkpt>
      <trkpt lat="49.36164" lon="-1.1987">
        <ele>7</ele>
        <time>2022-06-02T15:49:34Z</time>
      </trkpt>
      <trkpt lat="49.36164" lon="-1.1987">
        <ele>7</ele>
        <time>2022-06-02T15:49:36Z</time>
      </trkpt>
      <trkpt lat="49.36164" lon="-1.1987">
        <ele>7</ele>
        <time>2022-06-02T15:49:37Z</time>
      </trkpt>
      <trkpt lat="49.36164" lon="-1.1987">
        <ele>7</ele>
        <time>2022-06-02T15:49:38Z</time>
      </trkpt>
      <trkpt lat="49.36164" lon="-1.1987">
        <ele>7</ele>
        <time>2022-06-02T15:49:39Z</time>
      </trkpt>
      <trkpt lat="49.36165" lon="-1.19871">
        <ele>7</ele>
        <time>2022-06-02T15:49:40Z</time>
      </trkpt>
      <trkpt lat="49.36165" lon="-1.19871">
        <ele>7</ele>
        <time>2022-06-02T15:49:41Z</time>
      </trkpt>
      <trkpt lat="49.36165" lon="-1.19871">
        <ele>7</ele>
        <time>2022-06-02T15:49:42Z</time>
      </trkpt>
      <trkpt lat="49.36165" lon="-1.19871">
        <ele>7</ele>
        <time>2022-06-02T15:49:43Z</time>
      </trkpt>
      <trkpt lat="49.36166" lon="-1.19871">
        <ele>7</ele>
        <time>2022-06-02T15:49:45Z</time>
      </trkpt>
      <trkpt lat="49.36166" lon="-1.19871">
        <ele>7</ele>
        <time>2022-06-02T15:49:46Z</time>
      </trkpt>
      <trkpt lat="49.36166" lon="-1.19871">
        <ele>7</ele>
        <time>2022-06-02T15:49:47Z</time>
      </trkpt>
      <trkpt lat="49.36168" lon="-1.19871">
        <ele>7</ele>
        <time>2022-06-02T15:49:48Z</time>
      </trkpt>
      <trkpt lat="49.36171" lon="-1.19872">
        <ele>7.1</ele>
        <time>2022-06-02T15:49:50Z</time>
      </trkpt>
      <trkpt lat="49.36173" lon="-1.19871">
        <ele>7.1</ele>
        <time>2022-06-02T15:49:51Z</time>
      </trkpt>
      <trkpt lat="49.36174" lon="-1.19871">
        <ele>7.1</ele>
        <time>2022-06-02T15:49:52Z</time>
      </trkpt>
      <trkpt lat="49.36175" lon="-1.19871">
        <ele>7.1</ele>
        <time>2022-06-02T15:49:53Z</time>
      </trkpt>
      <trkpt lat="49.36176" lon="-1.19871">
        <ele>7.1</ele>
        <time>2022-06-02T15:49:54Z</time>
      </trkpt>
      <trkpt lat="49.36177" lon="-1.19871">
        <ele>7.2</ele>
        <time>2022-06-02T15:49:55Z</time>
      </trkpt>
      <trkpt lat="49.36178" lon="-1.19871">
        <ele>7.2</ele>
        <time>2022-06-02T15:49:56Z</time>
      </trkpt>
      <trkpt lat="49.36179" lon="-1.1987">
        <ele>7.2</ele>
        <time>2022-06-02T15:49:57Z</time>
      </trkpt>
      <trkpt lat="49.3618" lon="-1.1987">
        <ele>7.2</ele>
        <time>2022-06-02T15:49:58Z</time>
      </trkpt>
      <trkpt lat="49.36181" lon="-1.1987">
        <ele>7.2</ele>
        <time>2022-06-02T15:50:00Z</time>
      </trkpt>
      <trkpt lat="49.36181" lon="-1.1987">
        <ele>7.2</ele>
        <time>2022-06-02T15:50:01Z</time>
      </trkpt>
      <trkpt lat="49.36181" lon="-1.1987">
        <ele>7.2</ele>
        <time>2022-06-02T15:50:02Z</time>
      </trkpt>
      <trkpt lat="49.36181" lon="-1.1987">
        <ele>7.2</ele>
        <time>2022-06-02T15:50:03Z</time>
      </trkpt>
      <trkpt lat="49.36183" lon="-1.1987">
        <ele>7.2</ele>
        <time>2022-06-02T15:50:04Z</time>
      </trkpt>
      <trkpt lat="49.36185" lon="-1.1987">
        <ele>7.2</ele>
        <time>2022-06-02T15:50:05Z</time>
      </trkpt>
      <trkpt lat="49.36186" lon="-1.1987">
        <ele>7.2</ele>
        <time>2022-06-02T15:50:06Z</time>
      </trkpt>
      <trkpt lat="49.36187" lon="-1.1987">
        <ele>7.2</ele>
        <time>2022-06-02T15:50:07Z</time>
      </trkpt>
      <trkpt lat="49.36189" lon="-1.1987">
        <ele>7.2</ele>
        <time>2022-06-02T15:50:08Z</time>
      </trkpt>
      <trkpt lat="49.36191" lon="-1.1987">
        <ele>7.2</ele>
        <time>2022-06-02T15:50:09Z</time>
      </trkpt>
      <trkpt lat="49.36194" lon="-1.19869">
        <ele>7.2</ele>
        <time>2022-06-02T15:50:10Z</time>
      </trkpt>
      <trkpt lat="49.36195" lon="-1.19869">
        <ele>7.2</ele>
        <time>2022-06-02T15:50:11Z</time>
      </trkpt>
      <trkpt lat="49.36196" lon="-1.19868">
        <ele>7.2</ele>
        <time>2022-06-02T15:50:12Z</time>
      </trkpt>
      <trkpt lat="49.36198" lon="-1.19868">
        <ele>7.2</ele>
        <time>2022-06-02T15:50:13Z</time>
      </trkpt>
      <trkpt lat="49.362" lon="-1.19869">
        <ele>7.2</ele>
        <time>2022-06-02T15:50:15Z</time>
      </trkpt>
      <trkpt lat="49.36201" lon="-1.19869">
        <ele>7.2</ele>
        <time>2022-06-02T15:50:16Z</time>
      </trkpt>
      <trkpt lat="49.36202" lon="-1.19869">
        <ele>7.2</ele>
        <time>2022-06-02T15:50:17Z</time>
      </trkpt>
      <trkpt lat="49.36204" lon="-1.19869">
        <ele>7.2</ele>
        <time>2022-06-02T15:50:18Z</time>
      </trkpt>
      <trkpt lat="49.36205" lon="-1.19869">
        <ele>7.2</ele>
        <time>2022-06-02T15:50:19Z</time>
      </trkpt>
      <trkpt lat="49.36207" lon="-1.19869">
        <ele>7.2</ele>
        <time>2022-06-02T15:50:20Z</time>
      </trkpt>
      <trkpt lat="49.36209" lon="-1.1987">
        <ele>7.2</ele>
        <time>2022-06-02T15:50:21Z</time>
      </trkpt>
      <trkpt lat="49.3621" lon="-1.1987">
        <ele>7.2</ele>
        <time>2022-06-02T15:50:22Z</time>
      </trkpt>
      <trkpt lat="49.36211" lon="-1.19871">
        <ele>7.2</ele>
        <time>2022-06-02T15:50:23Z</time>
      </trkpt>
      <trkpt lat="49.36212" lon="-1.19871">
        <ele>7.2</ele>
        <time>2022-06-02T15:50:24Z</time>
      </trkpt>
      <trkpt lat="49.36213" lon="-1.19872">
        <ele>7.2</ele>
        <time>2022-06-02T15:50:25Z</time>
      </trkpt>
      <trkpt lat="49.36214" lon="-1.19872">
        <ele>7.2</ele>
        <time>2022-06-02T15:50:26Z</time>
      </trkpt>
      <trkpt lat="49.36215" lon="-1.19872">
        <ele>7.2</ele>
        <time>2022-06-02T15:50:28Z</time>
      </trkpt>
      <trkpt lat="49.36216" lon="-1.19872">
        <ele>7.3</ele>
        <time>2022-06-02T15:50:29Z</time>
      </trkpt>
      <trkpt lat="49.36218" lon="-1.19872">
        <ele>7.3</ele>
        <time>2022-06-02T15:50:30Z</time>
      </trkpt>
      <trkpt lat="49.3622" lon="-1.19872">
        <ele>7.3</ele>
        <time>2022-06-02T15:50:31Z</time>
      </trkpt>
      <trkpt lat="49.36222" lon="-1.19872">
        <ele>7.3</ele>
        <time>2022-06-02T15:50:32Z</time>
      </trkpt>
      <trkpt lat="49.36223" lon="-1.19873">
        <ele>7.3</ele>
        <time>2022-06-02T15:50:33Z</time>
      </trkpt>
      <trkpt lat="49.36224" lon="-1.19873">
        <ele>7.3</ele>
        <time>2022-06-02T15:50:34Z</time>
      </trkpt>
      <trkpt lat="49.36226" lon="-1.19872">
        <ele>7.3</ele>
        <time>2022-06-02T15:50:35Z</time>
      </trkpt>
      <trkpt lat="49.36227" lon="-1.19872">
        <ele>7.3</ele>
        <time>2022-06-02T15:50:36Z</time>
      </trkpt>
      <trkpt lat="49.36229" lon="-1.19872">
        <ele>7.4</ele>
        <time>2022-06-02T15:50:37Z</time>
      </trkpt>
      <trkpt lat="49.36229" lon="-1.19872">
        <ele>7.4</ele>
        <time>2022-06-02T15:50:38Z</time>
      </trkpt>
      <trkpt lat="49.3623" lon="-1.19872">
        <ele>7.4</ele>
        <time>2022-06-02T15:50:39Z</time>
      </trkpt>
      <trkpt lat="49.36232" lon="-1.19873">
        <ele>7.4</ele>
        <time>2022-06-02T15:50:41Z</time>
      </trkpt>
      <trkpt lat="49.36233" lon="-1.19873">
        <ele>7.5</ele>
        <time>2022-06-02T15:50:42Z</time>
      </trkpt>
      <trkpt lat="49.36234" lon="-1.19873">
        <ele>7.5</ele>
        <time>2022-06-02T15:50:43Z</time>
      </trkpt>
      <trkpt lat="49.36235" lon="-1.19873">
        <ele>7.5</ele>
        <time>2022-06-02T15:50:44Z</time>
      </trkpt>
      <trkpt lat="49.36238" lon="-1.19873">
        <ele>7.6</ele>
        <time>2022-06-02T15:50:46Z</time>
      </trkpt>
      <trkpt lat="49.36239" lon="-1.19873">
        <ele>7.6</ele>
        <time>2022-06-02T15:50:48Z</time>
      </trkpt>
      <trkpt lat="49.36241" lon="-1.19873">
        <ele>7.6</ele>
        <time>2022-06-02T15:50:49Z</time>
      </trkpt>
      <trkpt lat="49.36242" lon="-1.19874">
        <ele>7.6</ele>
        <time>2022-06-02T15:50:50Z</time>
      </trkpt>
      <trkpt lat="49.36244" lon="-1.19874">
        <ele>7.7</ele>
        <time>2022-06-02T15:50:51Z</time>
      </trkpt>
      <trkpt lat="49.36245" lon="-1.19874">
        <ele>7.7</ele>
        <time>2022-06-02T15:50:52Z</time>
      </trkpt>
      <trkpt lat="49.36247" lon="-1.19874">
        <ele>7.7</ele>
        <time>2022-06-02T15:50:53Z</time>
      </trkpt>
      <trkpt lat="49.36248" lon="-1.19874">
        <ele>7.7</ele>
        <time>2022-06-02T15:50:55Z</time>
      </trkpt>
      <trkpt lat="49.36249" lon="-1.19875">
        <ele>7.7</ele>
        <time>2022-06-02T15:50:56Z</time>
      </trkpt>
      <trkpt lat="49.3625" lon="-1.19875">
        <ele>7.7</ele>
        <time>2022-06-02T15:50:57Z</time>
      </trkpt>
      <trkpt lat="49.36251" lon="-1.19875">
        <ele>7.8</ele>
        <time>2022-06-02T15:50:58Z</time>
      </trkpt>
      <trkpt lat="49.36253" lon="-1.19874">
        <ele>7.8</ele>
        <time>2022-06-02T15:50:59Z</time>
      </trkpt>
      <trkpt lat="49.36254" lon="-1.19874">
        <ele>7.8</ele>
        <time>2022-06-02T15:51:00Z</time>
      </trkpt>
      <trkpt lat="49.36256" lon="-1.19874">
        <ele>7.8</ele>
        <time>2022-06-02T15:51:01Z</time>
      </trkpt>
      <trkpt lat="49.36258" lon="-1.19874">
        <ele>7.8</ele>
        <time>2022-06-02T15:51:02Z</time>
      </trkpt>
      <trkpt lat="49.36259" lon="-1.19874">
        <ele>7.8</ele>
        <time>2022-06-02T15:51:04Z</time>
      </trkpt>
      <trkpt lat="49.36259" lon="-1.19874">
        <ele>7.8</ele>
        <time>2022-06-02T15:51:05Z</time>
      </trkpt>
      <trkpt lat="49.36261" lon="-1.19874">
        <ele>7.8</ele>
        <time>2022-06-02T15:51:06Z</time>
      </trkpt>
      <trkpt lat="49.36262" lon="-1.19874">
        <ele>7.8</ele>
        <time>2022-06-02T15:51:07Z</time>
      </trkpt>
      <trkpt lat="49.36264" lon="-1.19875">
        <ele>7.8</ele>
        <time>2022-06-02T15:51:08Z</time>
      </trkpt>
      <trkpt lat="49.36264" lon="-1.19875">
        <ele>7.8</ele>
        <time>2022-06-02T15:51:09Z</time>
      </trkpt>
      <trkpt lat="49.36265" lon="-1.19875">
        <ele>7.8</ele>
        <time>2022-06-02T15:51:10Z</time>
      </trkpt>
      <trkpt lat="49.36266" lon="-1.19875">
        <ele>7.8</ele>
        <time>2022-06-02T15:51:11Z</time>
      </trkpt>
      <trkpt lat="49.36268" lon="-1.19876">
        <ele>7.9</ele>
        <time>2022-06-02T15:51:12Z</time>
      </trkpt>
      <trkpt lat="49.36269" lon="-1.19876">
        <ele>7.9</ele>
        <time>2022-06-02T15:51:13Z</time>
      </trkpt>
      <trkpt lat="49.36271" lon="-1.19876">
        <ele>7.9</ele>
        <time>2022-06-02T15:51:14Z</time>
      </trkpt>
      <trkpt lat="49.36272" lon="-1.19876">
        <ele>7.9</ele>
        <time>2022-06-02T15:51:16Z</time>
      </trkpt>
      <trkpt lat="49.36274" lon="-1.19876">
        <ele>7.9</ele>
        <time>2022-06-02T15:51:17Z</time>
      </trkpt>
      <trkpt lat="49.36275" lon="-1.19876">
        <ele>7.9</ele>
        <time>2022-06-02T15:51:18Z</time>
      </trkpt>
      <trkpt lat="49.36277" lon="-1.19877">
        <ele>7.9</ele>
        <time>2022-06-02T15:51:19Z</time>
      </trkpt>
      <trkpt lat="49.36278" lon="-1.19877">
        <ele>7.9</ele>
        <time>2022-06-02T15:51:20Z</time>
      </trkpt>
      <trkpt lat="49.3628" lon="-1.19877">
        <ele>7.9</ele>
        <time>2022-06-02T15:51:21Z</time>
      </trkpt>
      <trkpt lat="49.36282" lon="-1.19877">
        <ele>8</ele>
        <time>2022-06-02T15:51:22Z</time>
      </trkpt>
      <trkpt lat="49.36284" lon="-1.19877">
        <ele>8</ele>
        <time>2022-06-02T15:51:24Z</time>
      </trkpt>
      <trkpt lat="49.36286" lon="-1.19878">
        <ele>8</ele>
        <time>2022-06-02T15:51:25Z</time>
      </trkpt>
      <trkpt lat="49.36287" lon="-1.19878">
        <ele>8</ele>
        <time>2022-06-02T15:51:26Z</time>
      </trkpt>
      <trkpt lat="49.36288" lon="-1.19877">
        <ele>8</ele>
        <time>2022-06-02T15:51:27Z</time>
      </trkpt>
      <trkpt lat="49.36289" lon="-1.19877">
        <ele>8</ele>
        <time>2022-06-02T15:51:28Z</time>
      </trkpt>
      <trkpt lat="49.36291" lon="-1.19877">
        <ele>8</ele>
        <time>2022-06-02T15:51:29Z</time>
      </trkpt>
      <trkpt lat="49.36293" lon="-1.19877">
        <ele>8</ele>
        <time>2022-06-02T15:51:30Z</time>
      </trkpt>
      <trkpt lat="49.36294" lon="-1.19877">
        <ele>8</ele>
        <time>2022-06-02T15:51:31Z</time>
      </trkpt>
      <trkpt lat="49.36295" lon="-1.19877">
        <ele>8</ele>
        <time>2022-06-02T15:51:32Z</time>
      </trkpt>
      <trkpt lat="49.36296" lon="-1.19877">
        <ele>8</ele>
        <time>2022-06-02T15:51:33Z</time>
      </trkpt>
      <trkpt lat="49.36297" lon="-1.19877">
        <ele>8.1</ele>
        <time>2022-06-02T15:51:34Z</time>
      </trkpt>
      <trkpt lat="49.36298" lon="-1.19877">
        <ele>8.1</ele>
        <time>2022-06-02T15:51:36Z</time>
      </trkpt>
      <trkpt lat="49.36299" lon="-1.19878">
        <ele>8.1</ele>
        <time>2022-06-02T15:51:37Z</time>
      </trkpt>
      <trkpt lat="49.36301" lon="-1.19878">
        <ele>8.1</ele>
        <time>2022-06-02T15:51:38Z</time>
      </trkpt>
      <trkpt lat="49.36302" lon="-1.19878">
        <ele>8.1</ele>
        <time>2022-06-02T15:51:39Z</time>
      </trkpt>
      <trkpt lat="49.36303" lon="-1.19879">
        <ele>8.1</ele>
        <time>2022-06-02T15:51:40Z</time>
      </trkpt>
      <trkpt lat="49.36304" lon="-1.19879">
        <ele>8.1</ele>
        <time>2022-06-02T15:51:41Z</time>
      </trkpt>
      <trkpt lat="49.36306" lon="-1.19879">
        <ele>8.2</ele>
        <time>2022-06-02T15:51:42Z</time>
      </trkpt>
      <trkpt lat="49.36307" lon="-1.19879">
        <ele>8.2</ele>
        <time>2022-06-02T15:51:43Z</time>
      </trkpt>
      <trkpt lat="49.36308" lon="-1.19879">
        <ele>8.2</ele>
        <time>2022-06-02T15:51:44Z</time>
      </trkpt>
      <trkpt lat="49.36309" lon="-1.1988">
        <ele>8.2</ele>
        <time>2022-06-02T15:51:45Z</time>
      </trkpt>
      <trkpt lat="49.3631" lon="-1.1988">
        <ele>8.2</ele>
        <time>2022-06-02T15:51:46Z</time>
      </trkpt>
      <trkpt lat="49.36311" lon="-1.1988">
        <ele>8.2</ele>
        <time>2022-06-02T15:51:48Z</time>
      </trkpt>
      <trkpt lat="49.36312" lon="-1.19881">
        <ele>8.2</ele>
        <time>2022-06-02T15:51:49Z</time>
      </trkpt>
      <trkpt lat="49.36313" lon="-1.19881">
        <ele>8.2</ele>
        <time>2022-06-02T15:51:50Z</time>
      </trkpt>
      <trkpt lat="49.36314" lon="-1.19881">
        <ele>8.3</ele>
        <time>2022-06-02T15:51:51Z</time>
      </trkpt>
      <trkpt lat="49.36315" lon="-1.19882">
        <ele>8.3</ele>
        <time>2022-06-02T15:51:52Z</time>
      </trkpt>
      <trkpt lat="49.36316" lon="-1.19882">
        <ele>8.3</ele>
        <time>2022-06-02T15:51:53Z</time>
      </trkpt>
      <trkpt lat="49.36317" lon="-1.19882">
        <ele>8.3</ele>
        <time>2022-06-02T15:51:54Z</time>
      </trkpt>
      <trkpt lat="49.36318" lon="-1.19883">
        <ele>8.3</ele>
        <time>2022-06-02T15:51:55Z</time>
      </trkpt>
      <trkpt lat="49.36319" lon="-1.19883">
        <ele>8.3</ele>
        <time>2022-06-02T15:51:56Z</time>
      </trkpt>
      <trkpt lat="49.3632" lon="-1.19884">
        <ele>8.3</ele>
        <time>2022-06-02T15:51:57Z</time>
      </trkpt>
      <trkpt lat="49.3632" lon="-1.19884">
        <ele>8.3</ele>
        <time>2022-06-02T15:51:58Z</time>
      </trkpt>
      <trkpt lat="49.36321" lon="-1.19885">
        <ele>8.3</ele>
        <time>2022-06-02T15:51:59Z</time>
      </trkpt>
      <trkpt lat="49.36321" lon="-1.19886">
        <ele>8.2</ele>
        <time>2022-06-02T15:52:00Z</time>
      </trkpt>
      <trkpt lat="49.36322" lon="-1.19887">
        <ele>8.2</ele>
        <time>2022-06-02T15:52:02Z</time>
      </trkpt>
      <trkpt lat="49.36324" lon="-1.19888">
        <ele>8.2</ele>
        <time>2022-06-02T15:52:03Z</time>
      </trkpt>
      <trkpt lat="49.36325" lon="-1.19888">
        <ele>8.2</ele>
        <time>2022-06-02T15:52:04Z</time>
      </trkpt>
      <trkpt lat="49.36326" lon="-1.19889">
        <ele>8.2</ele>
        <time>2022-06-02T15:52:05Z</time>
      </trkpt>
      <trkpt lat="49.36327" lon="-1.1989">
        <ele>8.2</ele>
        <time>2022-06-02T15:52:06Z</time>
      </trkpt>
      <trkpt lat="49.36328" lon="-1.19891">
        <ele>8.2</ele>
        <time>2022-06-02T15:52:07Z</time>
      </trkpt>
      <trkpt lat="49.36329" lon="-1.19891">
        <ele>8.2</ele>
        <time>2022-06-02T15:52:08Z</time>
      </trkpt>
      <trkpt lat="49.3633" lon="-1.19892">
        <ele>8.2</ele>
        <time>2022-06-02T15:52:09Z</time>
      </trkpt>
      <trkpt lat="49.36331" lon="-1.19892">
        <ele>8.2</ele>
        <time>2022-06-02T15:52:10Z</time>
      </trkpt>
      <trkpt lat="49.36332" lon="-1.19893">
        <ele>8.2</ele>
        <time>2022-06-02T15:52:11Z</time>
      </trkpt>
      <trkpt lat="49.36334" lon="-1.19894">
        <ele>8.1</ele>
        <time>2022-06-02T15:52:12Z</time>
      </trkpt>
      <trkpt lat="49.36335" lon="-1.19894">
        <ele>8.1</ele>
        <time>2022-06-02T15:52:13Z</time>
      </trkpt>
      <trkpt lat="49.36336" lon="-1.19895">
        <ele>8.1</ele>
        <time>2022-06-02T15:52:14Z</time>
      </trkpt>
      <trkpt lat="49.36337" lon="-1.19895">
        <ele>8.1</ele>
        <time>2022-06-02T15:52:16Z</time>
      </trkpt>
      <trkpt lat="49.36338" lon="-1.19896">
        <ele>8.1</ele>
        <time>2022-06-02T15:52:17Z</time>
      </trkpt>
      <trkpt lat="49.36339" lon="-1.19897">
        <ele>8.1</ele>
        <time>2022-06-02T15:52:18Z</time>
      </trkpt>
      <trkpt lat="49.3634" lon="-1.19897">
        <ele>8.1</ele>
        <time>2022-06-02T15:52:19Z</time>
      </trkpt>
      <trkpt lat="49.3634" lon="-1.19898">
        <ele>8.2</ele>
        <time>2022-06-02T15:52:20Z</time>
      </trkpt>
      <trkpt lat="49.36341" lon="-1.19899">
        <ele>8.2</ele>
        <time>2022-06-02T15:52:21Z</time>
      </trkpt>
      <trkpt lat="49.36342" lon="-1.199">
        <ele>8.2</ele>
        <time>2022-06-02T15:52:22Z</time>
      </trkpt>
      <trkpt lat="49.36343" lon="-1.19901">
        <ele>8.2</ele>
        <time>2022-06-02T15:52:23Z</time>
      </trkpt>
      <trkpt lat="49.36344" lon="-1.19902">
        <ele>8.2</ele>
        <time>2022-06-02T15:52:24Z</time>
      </trkpt>
      <trkpt lat="49.36345" lon="-1.19903">
        <ele>8.2</ele>
        <time>2022-06-02T15:52:25Z</time>
      </trkpt>
      <trkpt lat="49.36346" lon="-1.19904">
        <ele>8.2</ele>
        <time>2022-06-02T15:52:26Z</time>
      </trkpt>
      <trkpt lat="49.36348" lon="-1.19905">
        <ele>8.2</ele>
        <time>2022-06-02T15:52:27Z</time>
      </trkpt>
      <trkpt lat="49.36349" lon="-1.19905">
        <ele>8.1</ele>
        <time>2022-06-02T15:52:28Z</time>
      </trkpt>
      <trkpt lat="49.3635" lon="-1.19906">
        <ele>8.1</ele>
        <time>2022-06-02T15:52:30Z</time>
      </trkpt>
      <trkpt lat="49.36351" lon="-1.19906">
        <ele>8.1</ele>
        <time>2022-06-02T15:52:31Z</time>
      </trkpt>
      <trkpt lat="49.36352" lon="-1.19907">
        <ele>8.1</ele>
        <time>2022-06-02T15:52:32Z</time>
      </trkpt>
      <trkpt lat="49.36353" lon="-1.19908">
        <ele>8.1</ele>
        <time>2022-06-02T15:52:33Z</time>
      </trkpt>
      <trkpt lat="49.36354" lon="-1.19909">
        <ele>8.1</ele>
        <time>2022-06-02T15:52:34Z</time>
      </trkpt>
      <trkpt lat="49.36356" lon="-1.1991">
        <ele>8</ele>
        <time>2022-06-02T15:52:36Z</time>
      </trkpt>
      <trkpt lat="49.36357" lon="-1.19911">
        <ele>8</ele>
        <time>2022-06-02T15:52:37Z</time>
      </trkpt>
      <trkpt lat="49.36358" lon="-1.19912">
        <ele>8</ele>
        <time>2022-06-02T15:52:38Z</time>
      </trkpt>
      <trkpt lat="49.36359" lon="-1.19913">
        <ele>8</ele>
        <time>2022-06-02T15:52:39Z</time>
      </trkpt>
      <trkpt lat="49.3636" lon="-1.19914">
        <ele>8</ele>
        <time>2022-06-02T15:52:40Z</time>
      </trkpt>
      <trkpt lat="49.36362" lon="-1.19915">
        <ele>7.9</ele>
        <time>2022-06-02T15:52:41Z</time>
      </trkpt>
      <trkpt lat="49.36363" lon="-1.19916">
        <ele>7.9</ele>
        <time>2022-06-02T15:52:43Z</time>
      </trkpt>
      <trkpt lat="49.36364" lon="-1.19917">
        <ele>7.9</ele>
        <time>2022-06-02T15:52:44Z</time>
      </trkpt>
      <trkpt lat="49.36365" lon="-1.19918">
        <ele>7.9</ele>
        <time>2022-06-02T15:52:45Z</time>
      </trkpt>
      <trkpt lat="49.36366" lon="-1.19919">
        <ele>7.8</ele>
        <time>2022-06-02T15:52:46Z</time>
      </trkpt>
      <trkpt lat="49.36367" lon="-1.1992">
        <ele>7.8</ele>
        <time>2022-06-02T15:52:47Z</time>
      </trkpt>
      <trkpt lat="49.36369" lon="-1.19921">
        <ele>7.8</ele>
        <time>2022-06-02T15:52:48Z</time>
      </trkpt>
      <trkpt lat="49.36371" lon="-1.19923">
        <ele>7.8</ele>
        <time>2022-06-02T15:52:49Z</time>
      </trkpt>
      <trkpt lat="49.36372" lon="-1.19923">
        <ele>7.8</ele>
        <time>2022-06-02T15:52:50Z</time>
      </trkpt>
      <trkpt lat="49.36372" lon="-1.19924">
        <ele>7.8</ele>
        <time>2022-06-02T15:52:51Z</time>
      </trkpt>
      <trkpt lat="49.36375" lon="-1.19926">
        <ele>7.8</ele>
        <time>2022-06-02T15:52:52Z</time>
      </trkpt>
      <trkpt lat="49.36376" lon="-1.19927">
        <ele>7.8</ele>
        <time>2022-06-02T15:52:54Z</time>
      </trkpt>
      <trkpt lat="49.36377" lon="-1.19928">
        <ele>7.8</ele>
        <time>2022-06-02T15:52:55Z</time>
      </trkpt>
      <trkpt lat="49.36379" lon="-1.19929">
        <ele>7.8</ele>
        <time>2022-06-02T15:52:56Z</time>
      </trkpt>
      <trkpt lat="49.3638" lon="-1.1993">
        <ele>7.8</ele>
        <time>2022-06-02T15:52:57Z</time>
      </trkpt>
      <trkpt lat="49.36381" lon="-1.19932">
        <ele>7.8</ele>
        <time>2022-06-02T15:52:58Z</time>
      </trkpt>
      <trkpt lat="49.36382" lon="-1.19933">
        <ele>7.8</ele>
        <time>2022-06-02T15:52:59Z</time>
      </trkpt>
      <trkpt lat="49.36383" lon="-1.19934">
        <ele>7.8</ele>
        <time>2022-06-02T15:53:00Z</time>
      </trkpt>
      <trkpt lat="49.36386" lon="-1.19936">
        <ele>7.8</ele>
        <time>2022-06-02T15:53:02Z</time>
      </trkpt>
      <trkpt lat="49.36387" lon="-1.19936">
        <ele>7.8</ele>
        <time>2022-06-02T15:53:03Z</time>
      </trkpt>
      <trkpt lat="49.36388" lon="-1.19938">
        <ele>7.7</ele>
        <time>2022-06-02T15:53:04Z</time>
      </trkpt>
      <trkpt lat="49.36389" lon="-1.19938">
        <ele>7.7</ele>
        <time>2022-06-02T15:53:05Z</time>
      </trkpt>
      <trkpt lat="49.3639" lon="-1.19939">
        <ele>7.7</ele>
        <time>2022-06-02T15:53:06Z</time>
      </trkpt>
      <trkpt lat="49.36393" lon="-1.19941">
        <ele>7.7</ele>
        <time>2022-06-02T15:53:07Z</time>
      </trkpt>
      <trkpt lat="49.36393" lon="-1.19941">
        <ele>7.7</ele>
        <time>2022-06-02T15:53:09Z</time>
      </trkpt>
      <trkpt lat="49.36394" lon="-1.19941">
        <ele>7.7</ele>
        <time>2022-06-02T15:53:10Z</time>
      </trkpt>
      <trkpt lat="49.36395" lon="-1.19942">
        <ele>7.7</ele>
        <time>2022-06-02T15:53:11Z</time>
      </trkpt>
      <trkpt lat="49.36396" lon="-1.19943">
        <ele>7.7</ele>
        <time>2022-06-02T15:53:12Z</time>
      </trkpt>
      <trkpt lat="49.36396" lon="-1.19943">
        <ele>7.7</ele>
        <time>2022-06-02T15:53:13Z</time>
      </trkpt>
      <trkpt lat="49.36396" lon="-1.19944">
        <ele>7.7</ele>
        <time>2022-06-02T15:53:14Z</time>
      </trkpt>
      <trkpt lat="49.36396" lon="-1.19944">
        <ele>7.7</ele>
        <time>2022-06-02T15:53:15Z</time>
      </trkpt>
      <trkpt lat="49.36395" lon="-1.19943">
        <ele>7.7</ele>
        <time>2022-06-02T15:53:16Z</time>
      </trkpt>
      <trkpt lat="49.36395" lon="-1.19942">
        <ele>7.7</ele>
        <time>2022-06-02T15:53:17Z</time>
      </trkpt>
      <trkpt lat="49.36395" lon="-1.19942">
        <ele>7.6</ele>
        <time>2022-06-02T15:53:18Z</time>
      </trkpt>
      <trkpt lat="49.36395" lon="-1.19942">
        <ele>7.6</ele>
        <time>2022-06-02T15:53:19Z</time>
      </trkpt>
      <trkpt lat="49.36394" lon="-1.19941">
        <ele>7.6</ele>
        <time>2022-06-02T15:53:20Z</time>
      </trkpt>
      <trkpt lat="49.36394" lon="-1.19941">
        <ele>7.6</ele>
        <time>2022-06-02T15:53:21Z</time>
      </trkpt>
      <trkpt lat="49.36394" lon="-1.19941">
        <ele>7.6</ele>
        <time>2022-06-02T15:53:22Z</time>
      </trkpt>
      <trkpt lat="49.36394" lon="-1.19941">
        <ele>7.6</ele>
        <time>2022-06-02T15:53:23Z</time>
      </trkpt>
      <trkpt lat="49.36394" lon="-1.19941">
        <ele>7.6</ele>
        <time>2022-06-02T15:53:24Z</time>
      </trkpt>
      <trkpt lat="49.36394" lon="-1.19941">
        <ele>7.6</ele>
        <time>2022-06-02T15:53:25Z</time>
      </trkpt>
      <trkpt lat="49.36394" lon="-1.19941">
        <ele>7.6</ele>
        <time>2022-06-02T15:53:26Z</time>
      </trkpt>
      <trkpt lat="49.36394" lon="-1.19941">
        <ele>7.6</ele>
        <time>2022-06-02T15:53:27Z</time>
      </trkpt>
      <trkpt lat="49.36394" lon="-1.19941">
        <ele>7.6</ele>
        <time>2022-06-02T15:53:28Z</time>
      </trkpt>
      <trkpt lat="49.36394" lon="-1.1994">
        <ele>7.6</ele>
        <time>2022-06-02T15:53:29Z</time>
      </trkpt>
      <trkpt lat="49.36393" lon="-1.1994">
        <ele>7.6</ele>
        <time>2022-06-02T15:53:30Z</time>
      </trkpt>
      <trkpt lat="49.36393" lon="-1.19939">
        <ele>7.6</ele>
        <time>2022-06-02T15:53:31Z</time>
      </trkpt>
      <trkpt lat="49.36393" lon="-1.19939">
        <ele>7.6</ele>
        <time>2022-06-02T15:53:32Z</time>
      </trkpt>
      <trkpt lat="49.36393" lon="-1.19939">
        <ele>7.6</ele>
        <time>2022-06-02T15:53:33Z</time>
      </trkpt>
      <trkpt lat="49.36393" lon="-1.19939">
        <ele>7.6</ele>
        <time>2022-06-02T15:53:34Z</time>
      </trkpt>
      <trkpt lat="49.36393" lon="-1.19939">
        <ele>7.6</ele>
        <time>2022-06-02T15:53:35Z</time>
      </trkpt>
      <trkpt lat="49.36393" lon="-1.19939">
        <ele>7.6</ele>
        <time>2022-06-02T15:53:36Z</time>
      </trkpt>
      <trkpt lat="49.36393" lon="-1.19939">
        <ele>7.6</ele>
        <time>2022-06-02T15:53:37Z</time>
      </trkpt>
      <trkpt lat="49.36393" lon="-1.19939">
        <ele>7.6</ele>
        <time>2022-06-02T15:53:38Z</time>
      </trkpt>
      <trkpt lat="49.36393" lon="-1.19939">
        <ele>7.6</ele>
        <time>2022-06-02T15:53:39Z</time>
      </trkpt>
      <trkpt lat="49.36393" lon="-1.19939">
        <ele>7.6</ele>
        <time>2022-06-02T15:53:40Z</time>
      </trkpt>
      <trkpt lat="49.36393" lon="-1.19939">
        <ele>7.6</ele>
        <time>2022-06-02T15:53:41Z</time>
      </trkpt>
      <trkpt lat="49.36393" lon="-1.19939">
        <ele>7.6</ele>
        <time>2022-06-02T15:53:42Z</time>
      </trkpt>
      <trkpt lat="49.36393" lon="-1.19939">
        <ele>7.6</ele>
        <time>2022-06-02T15:53:43Z</time>
      </trkpt>
      <trkpt lat="49.36393" lon="-1.19939">
        <ele>7.6</ele>
        <time>2022-06-02T15:53:44Z</time>
      </trkpt>
      <trkpt lat="49.36393" lon="-1.19939">
        <ele>7.6</ele>
        <time>2022-06-02T15:53:45Z</time>
      </trkpt>
      <trkpt lat="49.36393" lon="-1.19939">
        <ele>7.6</ele>
        <time>2022-06-02T15:53:46Z</time>
      </trkpt>
      <trkpt lat="49.36393" lon="-1.19939">
        <ele>7.6</ele>
        <time>2022-06-02T15:53:47Z</time>
      </trkpt>
      <trkpt lat="49.36393" lon="-1.19939">
        <ele>7.6</ele>
        <time>2022-06-02T15:53:48Z</time>
      </trkpt>
      <trkpt lat="49.36393" lon="-1.19939">
        <ele>7.6</ele>
        <time>2022-06-02T15:53:49Z</time>
      </trkpt>
      <trkpt lat="49.36393" lon="-1.19939">
        <ele>7.6</ele>
        <time>2022-06-02T15:53:50Z</time>
      </trkpt>
      <trkpt lat="49.36393" lon="-1.19939">
        <ele>7.6</ele>
        <time>2022-06-02T15:53:51Z</time>
      </trkpt>
      <trkpt lat="49.36393" lon="-1.19939">
        <ele>7.6</ele>
        <time>2022-06-02T15:53:52Z</time>
      </trkpt>
      <trkpt lat="49.36393" lon="-1.19939">
        <ele>7.6</ele>
        <time>2022-06-02T15:53:53Z</time>
      </trkpt>
      <trkpt lat="49.36393" lon="-1.19939">
        <ele>7.6</ele>
        <time>2022-06-02T15:53:54Z</time>
      </trkpt>
      <trkpt lat="49.36393" lon="-1.19939">
        <ele>7.6</ele>
        <time>2022-06-02T15:53:55Z</time>
      </trkpt>
      <trkpt lat="49.36393" lon="-1.19939">
        <ele>7.6</ele>
        <time>2022-06-02T15:53:56Z</time>
      </trkpt>
      <trkpt lat="49.36393" lon="-1.19939">
        <ele>7.6</ele>
        <time>2022-06-02T15:53:57Z</time>
      </trkpt>
      <trkpt lat="49.36395" lon="-1.19939">
        <ele>7.6</ele>
        <time>2022-06-02T15:53:58Z</time>
      </trkpt>
      <trkpt lat="49.36395" lon="-1.1994">
        <ele>7.6</ele>
        <time>2022-06-02T15:53:59Z</time>
      </trkpt>
      <trkpt lat="49.36396" lon="-1.1994">
        <ele>7.6</ele>
        <time>2022-06-02T15:54:00Z</time>
      </trkpt>
      <trkpt lat="49.36396" lon="-1.19941">
        <ele>7.6</ele>
        <time>2022-06-02T15:54:01Z</time>
      </trkpt>
      <trkpt lat="49.36398" lon="-1.19941">
        <ele>7.6</ele>
        <time>2022-06-02T15:54:02Z</time>
      </trkpt>
      <trkpt lat="49.36398" lon="-1.19942">
        <ele>7.6</ele>
        <time>2022-06-02T15:54:03Z</time>
      </trkpt>
      <trkpt lat="49.36399" lon="-1.19942">
        <ele>7.5</ele>
        <time>2022-06-02T15:54:04Z</time>
      </trkpt>
      <trkpt lat="49.36399" lon="-1.19942">
        <ele>7.5</ele>
        <time>2022-06-02T15:54:05Z</time>
      </trkpt>
      <trkpt lat="49.364" lon="-1.19942">
        <ele>7.5</ele>
        <time>2022-06-02T15:54:06Z</time>
      </trkpt>
      <trkpt lat="49.36401" lon="-1.19943">
        <ele>7.5</ele>
        <time>2022-06-02T15:54:07Z</time>
      </trkpt>
      <trkpt lat="49.36403" lon="-1.19944">
        <ele>7.5</ele>
        <time>2022-06-02T15:54:08Z</time>
      </trkpt>
      <trkpt lat="49.36405" lon="-1.19945">
        <ele>7.5</ele>
        <time>2022-06-02T15:54:09Z</time>
      </trkpt>
      <trkpt lat="49.36406" lon="-1.19946">
        <ele>7.5</ele>
        <time>2022-06-02T15:54:10Z</time>
      </trkpt>
      <trkpt lat="49.36408" lon="-1.19948">
        <ele>7.4</ele>
        <time>2022-06-02T15:54:11Z</time>
      </trkpt>
      <trkpt lat="49.36409" lon="-1.19949">
        <ele>7.4</ele>
        <time>2022-06-02T15:54:13Z</time>
      </trkpt>
      <trkpt lat="49.3641" lon="-1.1995">
        <ele>7.4</ele>
        <time>2022-06-02T15:54:15Z</time>
      </trkpt>
      <trkpt lat="49.36411" lon="-1.19951">
        <ele>7.4</ele>
        <time>2022-06-02T15:54:16Z</time>
      </trkpt>
      <trkpt lat="49.36411" lon="-1.19952">
        <ele>7.4</ele>
        <time>2022-06-02T15:54:17Z</time>
      </trkpt>
      <trkpt lat="49.36412" lon="-1.19953">
        <ele>7.4</ele>
        <time>2022-06-02T15:54:18Z</time>
      </trkpt>
      <trkpt lat="49.36414" lon="-1.19955">
        <ele>7.3</ele>
        <time>2022-06-02T15:54:19Z</time>
      </trkpt>
      <trkpt lat="49.36415" lon="-1.19956">
        <ele>7.3</ele>
        <time>2022-06-02T15:54:20Z</time>
      </trkpt>
      <trkpt lat="49.36416" lon="-1.19957">
        <ele>7.3</ele>
        <time>2022-06-02T15:54:22Z</time>
      </trkpt>
      <trkpt lat="49.36417" lon="-1.19958">
        <ele>7.3</ele>
        <time>2022-06-02T15:54:23Z</time>
      </trkpt>
      <trkpt lat="49.36419" lon="-1.19959">
        <ele>7.3</ele>
        <time>2022-06-02T15:54:24Z</time>
      </trkpt>
      <trkpt lat="49.3642" lon="-1.19961">
        <ele>7.2</ele>
        <time>2022-06-02T15:54:25Z</time>
      </trkpt>
      <trkpt lat="49.36421" lon="-1.19962">
        <ele>7.2</ele>
        <time>2022-06-02T15:54:26Z</time>
      </trkpt>
      <trkpt lat="49.36423" lon="-1.19964">
        <ele>7.2</ele>
        <time>2022-06-02T15:54:27Z</time>
      </trkpt>
      <trkpt lat="49.36424" lon="-1.19965">
        <ele>7.2</ele>
        <time>2022-06-02T15:54:28Z</time>
      </trkpt>
      <trkpt lat="49.36426" lon="-1.19967">
        <ele>7.2</ele>
        <time>2022-06-02T15:54:29Z</time>
      </trkpt>
      <trkpt lat="49.36427" lon="-1.19968">
        <ele>7.2</ele>
        <time>2022-06-02T15:54:30Z</time>
      </trkpt>
      <trkpt lat="49.36428" lon="-1.1997">
        <ele>7.1</ele>
        <time>2022-06-02T15:54:31Z</time>
      </trkpt>
      <trkpt lat="49.36429" lon="-1.19971">
        <ele>7.1</ele>
        <time>2022-06-02T15:54:33Z</time>
      </trkpt>
      <trkpt lat="49.3643" lon="-1.19972">
        <ele>7.1</ele>
        <time>2022-06-02T15:54:34Z</time>
      </trkpt>
      <trkpt lat="49.36431" lon="-1.19973">
        <ele>7.1</ele>
        <time>2022-06-02T15:54:35Z</time>
      </trkpt>
      <trkpt lat="49.36432" lon="-1.19975">
        <ele>7.1</ele>
        <time>2022-06-02T15:54:36Z</time>
      </trkpt>
      <trkpt lat="49.36434" lon="-1.19977">
        <ele>7.1</ele>
        <time>2022-06-02T15:54:37Z</time>
      </trkpt>
      <trkpt lat="49.36435" lon="-1.19978">
        <ele>7.1</ele>
        <time>2022-06-02T15:54:38Z</time>
      </trkpt>
      <trkpt lat="49.36436" lon="-1.1998">
        <ele>7</ele>
        <time>2022-06-02T15:54:39Z</time>
      </trkpt>
      <trkpt lat="49.36437" lon="-1.19981">
        <ele>7</ele>
        <time>2022-06-02T15:54:40Z</time>
      </trkpt>
      <trkpt lat="49.36438" lon="-1.19982">
        <ele>7</ele>
        <time>2022-06-02T15:54:41Z</time>
      </trkpt>
      <trkpt lat="49.36439" lon="-1.19984">
        <ele>7</ele>
        <time>2022-06-02T15:54:42Z</time>
      </trkpt>
      <trkpt lat="49.3644" lon="-1.19985">
        <ele>7</ele>
        <time>2022-06-02T15:54:43Z</time>
      </trkpt>
      <trkpt lat="49.36441" lon="-1.19986">
        <ele>6.9</ele>
        <time>2022-06-02T15:54:44Z</time>
      </trkpt>
      <trkpt lat="49.36442" lon="-1.19987">
        <ele>6.9</ele>
        <time>2022-06-02T15:54:45Z</time>
      </trkpt>
      <trkpt lat="49.36442" lon="-1.19989">
        <ele>6.9</ele>
        <time>2022-06-02T15:54:46Z</time>
      </trkpt>
      <trkpt lat="49.36444" lon="-1.19991">
        <ele>6.8</ele>
        <time>2022-06-02T15:54:47Z</time>
      </trkpt>
      <trkpt lat="49.36444" lon="-1.19992">
        <ele>6.8</ele>
        <time>2022-06-02T15:54:48Z</time>
      </trkpt>
      <trkpt lat="49.36445" lon="-1.19993">
        <ele>6.8</ele>
        <time>2022-06-02T15:54:49Z</time>
      </trkpt>
      <trkpt lat="49.36446" lon="-1.19994">
        <ele>6.8</ele>
        <time>2022-06-02T15:54:51Z</time>
      </trkpt>
      <trkpt lat="49.36447" lon="-1.19995">
        <ele>6.8</ele>
        <time>2022-06-02T15:54:52Z</time>
      </trkpt>
      <trkpt lat="49.36447" lon="-1.19996">
        <ele>6.8</ele>
        <time>2022-06-02T15:54:53Z</time>
      </trkpt>
      <trkpt lat="49.36447" lon="-1.19997">
        <ele>6.7</ele>
        <time>2022-06-02T15:54:54Z</time>
      </trkpt>
      <trkpt lat="49.36448" lon="-1.19999">
        <ele>6.7</ele>
        <time>2022-06-02T15:54:55Z</time>
      </trkpt>
      <trkpt lat="49.36449" lon="-1.2">
        <ele>6.7</ele>
        <time>2022-06-02T15:54:56Z</time>
      </trkpt>
      <trkpt lat="49.3645" lon="-1.20002">
        <ele>6.7</ele>
        <time>2022-06-02T15:54:57Z</time>
      </trkpt>
      <trkpt lat="49.36451" lon="-1.20003">
        <ele>6.7</ele>
        <time>2022-06-02T15:54:58Z</time>
      </trkpt>
      <trkpt lat="49.36451" lon="-1.20005">
        <ele>6.6</ele>
        <time>2022-06-02T15:54:59Z</time>
      </trkpt>
      <trkpt lat="49.36452" lon="-1.20006">
        <ele>6.6</ele>
        <time>2022-06-02T15:55:00Z</time>
      </trkpt>
      <trkpt lat="49.36453" lon="-1.20007">
        <ele>6.6</ele>
        <time>2022-06-02T15:55:01Z</time>
      </trkpt>
      <trkpt lat="49.36455" lon="-1.20009">
        <ele>6.6</ele>
        <time>2022-06-02T15:55:02Z</time>
      </trkpt>
      <trkpt lat="49.36456" lon="-1.2001">
        <ele>6.6</ele>
        <time>2022-06-02T15:55:03Z</time>
      </trkpt>
      <trkpt lat="49.36458" lon="-1.20011">
        <ele>6.6</ele>
        <time>2022-06-02T15:55:04Z</time>
      </trkpt>
      <trkpt lat="49.36459" lon="-1.20012">
        <ele>6.6</ele>
        <time>2022-06-02T15:55:05Z</time>
      </trkpt>
      <trkpt lat="49.3646" lon="-1.20013">
        <ele>6.6</ele>
        <time>2022-06-02T15:55:06Z</time>
      </trkpt>
      <trkpt lat="49.36461" lon="-1.20014">
        <ele>6.5</ele>
        <time>2022-06-02T15:55:07Z</time>
      </trkpt>
      <trkpt lat="49.36461" lon="-1.20015">
        <ele>6.5</ele>
        <time>2022-06-02T15:55:09Z</time>
      </trkpt>
      <trkpt lat="49.36462" lon="-1.20016">
        <ele>6.5</ele>
        <time>2022-06-02T15:55:10Z</time>
      </trkpt>
      <trkpt lat="49.36463" lon="-1.20017">
        <ele>6.5</ele>
        <time>2022-06-02T15:55:11Z</time>
      </trkpt>
      <trkpt lat="49.36464" lon="-1.20019">
        <ele>6.5</ele>
        <time>2022-06-02T15:55:12Z</time>
      </trkpt>
      <trkpt lat="49.36465" lon="-1.2002">
        <ele>6.5</ele>
        <time>2022-06-02T15:55:13Z</time>
      </trkpt>
      <trkpt lat="49.36467" lon="-1.20021">
        <ele>6.5</ele>
        <time>2022-06-02T15:55:15Z</time>
      </trkpt>
      <trkpt lat="49.36468" lon="-1.20021">
        <ele>6.4</ele>
        <time>2022-06-02T15:55:16Z</time>
      </trkpt>
      <trkpt lat="49.36469" lon="-1.20022">
        <ele>6.4</ele>
        <time>2022-06-02T15:55:17Z</time>
      </trkpt>
      <trkpt lat="49.36471" lon="-1.20024">
        <ele>6.4</ele>
        <time>2022-06-02T15:55:18Z</time>
      </trkpt>
      <trkpt lat="49.36472" lon="-1.20025">
        <ele>6.4</ele>
        <time>2022-06-02T15:55:19Z</time>
      </trkpt>
      <trkpt lat="49.36472" lon="-1.20026">
        <ele>6.4</ele>
        <time>2022-06-02T15:55:20Z</time>
      </trkpt>
      <trkpt lat="49.36474" lon="-1.20027">
        <ele>6.4</ele>
        <time>2022-06-02T15:55:21Z</time>
      </trkpt>
      <trkpt lat="49.36475" lon="-1.20028">
        <ele>6.4</ele>
        <time>2022-06-02T15:55:22Z</time>
      </trkpt>
      <trkpt lat="49.36476" lon="-1.2003">
        <ele>6.4</ele>
        <time>2022-06-02T15:55:23Z</time>
      </trkpt>
      <trkpt lat="49.36478" lon="-1.20031">
        <ele>6.4</ele>
        <time>2022-06-02T15:55:24Z</time>
      </trkpt>
      <trkpt lat="49.36478" lon="-1.20034">
        <ele>6.4</ele>
        <time>2022-06-02T15:55:26Z</time>
      </trkpt>
      <trkpt lat="49.36477" lon="-1.20035">
        <ele>6.4</ele>
        <time>2022-06-02T15:55:27Z</time>
      </trkpt>
      <trkpt lat="49.36477" lon="-1.20037">
        <ele>6.4</ele>
        <time>2022-06-02T15:55:29Z</time>
      </trkpt>
      <trkpt lat="49.36477" lon="-1.20038">
        <ele>6.3</ele>
        <time>2022-06-02T15:55:30Z</time>
      </trkpt>
      <trkpt lat="49.36477" lon="-1.20038">
        <ele>6.3</ele>
        <time>2022-06-02T15:55:32Z</time>
      </trkpt>
      <trkpt lat="49.36477" lon="-1.20038">
        <ele>6.3</ele>
        <time>2022-06-02T15:55:33Z</time>
      </trkpt>
      <trkpt lat="49.36476" lon="-1.20038">
        <ele>6.3</ele>
        <time>2022-06-02T15:55:34Z</time>
      </trkpt>
      <trkpt lat="49.36476" lon="-1.20037">
        <ele>6.3</ele>
        <time>2022-06-02T15:55:35Z</time>
      </trkpt>
      <trkpt lat="49.36476" lon="-1.20036">
        <ele>6.3</ele>
        <time>2022-06-02T15:55:36Z</time>
      </trkpt>
      <trkpt lat="49.36476" lon="-1.20036">
        <ele>6.3</ele>
        <time>2022-06-02T15:55:37Z</time>
      </trkpt>
      <trkpt lat="49.36476" lon="-1.20036">
        <ele>6.3</ele>
        <time>2022-06-02T15:55:38Z</time>
      </trkpt>
      <trkpt lat="49.36476" lon="-1.20035">
        <ele>6.3</ele>
        <time>2022-06-02T15:55:39Z</time>
      </trkpt>
      <trkpt lat="49.36476" lon="-1.20035">
        <ele>6.3</ele>
        <time>2022-06-02T15:55:40Z</time>
      </trkpt>
      <trkpt lat="49.36476" lon="-1.20035">
        <ele>6.3</ele>
        <time>2022-06-02T15:55:41Z</time>
      </trkpt>
      <trkpt lat="49.36476" lon="-1.20035">
        <ele>6.3</ele>
        <time>2022-06-02T15:55:42Z</time>
      </trkpt>
      <trkpt lat="49.36476" lon="-1.20035">
        <ele>6.3</ele>
        <time>2022-06-02T15:55:43Z</time>
      </trkpt>
      <trkpt lat="49.36476" lon="-1.20034">
        <ele>6.3</ele>
        <time>2022-06-02T15:55:44Z</time>
      </trkpt>
      <trkpt lat="49.36476" lon="-1.20034">
        <ele>6.3</ele>
        <time>2022-06-02T15:55:45Z</time>
      </trkpt>
      <trkpt lat="49.36476" lon="-1.20033">
        <ele>6.3</ele>
        <time>2022-06-02T15:55:46Z</time>
      </trkpt>
      <trkpt lat="49.36476" lon="-1.20033">
        <ele>6.3</ele>
        <time>2022-06-02T15:55:47Z</time>
      </trkpt>
      <trkpt lat="49.36476" lon="-1.20033">
        <ele>6.3</ele>
        <time>2022-06-02T15:55:48Z</time>
      </trkpt>
      <trkpt lat="49.36476" lon="-1.20033">
        <ele>6.3</ele>
        <time>2022-06-02T15:55:49Z</time>
      </trkpt>
      <trkpt lat="49.36476" lon="-1.20033">
        <ele>6.3</ele>
        <time>2022-06-02T15:55:50Z</time>
      </trkpt>
      <trkpt lat="49.36476" lon="-1.20033">
        <ele>6.3</ele>
        <time>2022-06-02T15:55:52Z</time>
      </trkpt>
      <trkpt lat="49.36476" lon="-1.20033">
        <ele>6.3</ele>
        <time>2022-06-02T15:55:53Z</time>
      </trkpt>
      <trkpt lat="49.36476" lon="-1.20033">
        <ele>6.3</ele>
        <time>2022-06-02T15:55:54Z</time>
      </trkpt>
      <trkpt lat="49.36476" lon="-1.20033">
        <ele>6.3</ele>
        <time>2022-06-02T15:55:55Z</time>
      </trkpt>
      <trkpt lat="49.36476" lon="-1.20033">
        <ele>6.3</ele>
        <time>2022-06-02T15:55:56Z</time>
      </trkpt>
      <trkpt lat="49.36476" lon="-1.20033">
        <ele>6.3</ele>
        <time>2022-06-02T15:55:57Z</time>
      </trkpt>
      <trkpt lat="49.36476" lon="-1.20033">
        <ele>6.3</ele>
        <time>2022-06-02T15:55:58Z</time>
      </trkpt>
      <trkpt lat="49.36476" lon="-1.20033">
        <ele>6.3</ele>
        <time>2022-06-02T15:55:59Z</time>
      </trkpt>
      <trkpt lat="49.36476" lon="-1.20033">
        <ele>6.3</ele>
        <time>2022-06-02T15:56:00Z</time>
      </trkpt>
      <trkpt lat="49.36476" lon="-1.20033">
        <ele>6.3</ele>
        <time>2022-06-02T15:56:01Z</time>
      </trkpt>
      <trkpt lat="49.36476" lon="-1.20033">
        <ele>6.3</ele>
        <time>2022-06-02T15:56:02Z</time>
      </trkpt>
      <trkpt lat="49.36476" lon="-1.20033">
        <ele>6.3</ele>
        <time>2022-06-02T15:56:03Z</time>
      </trkpt>
      <trkpt lat="49.36476" lon="-1.20033">
        <ele>6.3</ele>
        <time>2022-06-02T15:56:04Z</time>
      </trkpt>
      <trkpt lat="49.36476" lon="-1.20033">
        <ele>6.3</ele>
        <time>2022-06-02T15:56:05Z</time>
      </trkpt>
      <trkpt lat="49.36476" lon="-1.20033">
        <ele>6.3</ele>
        <time>2022-06-02T15:56:06Z</time>
      </trkpt>
      <trkpt lat="49.36476" lon="-1.20033">
        <ele>6.3</ele>
        <time>2022-06-02T15:56:07Z</time>
      </trkpt>
      <trkpt lat="49.36476" lon="-1.20033">
        <ele>6.3</ele>
        <time>2022-06-02T15:56:08Z</time>
      </trkpt>
      <trkpt lat="49.36476" lon="-1.20033">
        <ele>6.3</ele>
        <time>2022-06-02T15:56:09Z</time>
      </trkpt>
      <trkpt lat="49.36476" lon="-1.20033">
        <ele>6.3</ele>
        <time>2022-06-02T15:56:10Z</time>
      </trkpt>
      <trkpt lat="49.36476" lon="-1.20033">
        <ele>6.3</ele>
        <time>2022-06-02T15:56:11Z</time>
      </trkpt>
      <trkpt lat="49.36476" lon="-1.20033">
        <ele>6.3</ele>
        <time>2022-06-02T15:56:12Z</time>
      </trkpt>
      <trkpt lat="49.36476" lon="-1.20033">
        <ele>6.3</ele>
        <time>2022-06-02T15:56:13Z</time>
      </trkpt>
      <trkpt lat="49.36476" lon="-1.20033">
        <ele>6.3</ele>
        <time>2022-06-02T15:56:14Z</time>
      </trkpt>
      <trkpt lat="49.36476" lon="-1.20033">
        <ele>6.3</ele>
        <time>2022-06-02T15:56:15Z</time>
      </trkpt>
      <trkpt lat="49.36476" lon="-1.20033">
        <ele>6.3</ele>
        <time>2022-06-02T15:56:16Z</time>
      </trkpt>
      <trkpt lat="49.36476" lon="-1.20033">
        <ele>6.3</ele>
        <time>2022-06-02T15:56:17Z</time>
      </trkpt>
      <trkpt lat="49.36476" lon="-1.20033">
        <ele>6.3</ele>
        <time>2022-06-02T15:56:18Z</time>
      </trkpt>
      <trkpt lat="49.36476" lon="-1.20033">
        <ele>6.3</ele>
        <time>2022-06-02T15:56:19Z</time>
      </trkpt>
      <trkpt lat="49.36476" lon="-1.20033">
        <ele>6.3</ele>
        <time>2022-06-02T15:56:20Z</time>
      </trkpt>
      <trkpt lat="49.36476" lon="-1.20033">
        <ele>6.3</ele>
        <time>2022-06-02T15:56:21Z</time>
      </trkpt>
      <trkpt lat="49.36476" lon="-1.20033">
        <ele>6.3</ele>
        <time>2022-06-02T15:56:22Z</time>
      </trkpt>
      <trkpt lat="49.36476" lon="-1.20033">
        <ele>6.3</ele>
        <time>2022-06-02T15:56:23Z</time>
      </trkpt>
      <trkpt lat="49.36476" lon="-1.20033">
        <ele>6.3</ele>
        <time>2022-06-02T15:56:24Z</time>
      </trkpt>
      <trkpt lat="49.36476" lon="-1.20033">
        <ele>6.3</ele>
        <time>2022-06-02T15:56:25Z</time>
      </trkpt>
      <trkpt lat="49.36476" lon="-1.20033">
        <ele>6.3</ele>
        <time>2022-06-02T15:56:26Z</time>
      </trkpt>
      <trkpt lat="49.36476" lon="-1.20033">
        <ele>6.3</ele>
        <time>2022-06-02T15:56:27Z</time>
      </trkpt>
      <trkpt lat="49.36476" lon="-1.20033">
        <ele>6.3</ele>
        <time>2022-06-02T15:56:28Z</time>
      </trkpt>
      <trkpt lat="49.36476" lon="-1.20033">
        <ele>6.3</ele>
        <time>2022-06-02T15:56:29Z</time>
      </trkpt>
      <trkpt lat="49.36476" lon="-1.20033">
        <ele>6.3</ele>
        <time>2022-06-02T15:56:30Z</time>
      </trkpt>
      <trkpt lat="49.36476" lon="-1.20033">
        <ele>6.3</ele>
        <time>2022-06-02T15:56:31Z</time>
      </trkpt>
      <trkpt lat="49.36476" lon="-1.20033">
        <ele>6.3</ele>
        <time>2022-06-02T15:56:32Z</time>
      </trkpt>
      <trkpt lat="49.36476" lon="-1.20033">
        <ele>6.3</ele>
        <time>2022-06-02T15:56:33Z</time>
      </trkpt>
      <trkpt lat="49.36476" lon="-1.20033">
        <ele>6.3</ele>
        <time>2022-06-02T15:56:34Z</time>
      </trkpt>
      <trkpt lat="49.36476" lon="-1.20033">
        <ele>6.3</ele>
        <time>2022-06-02T15:56:35Z</time>
      </trkpt>
      <trkpt lat="49.36476" lon="-1.20033">
        <ele>6.3</ele>
        <time>2022-06-02T15:56:36Z</time>
      </trkpt>
      <trkpt lat="49.36476" lon="-1.20033">
        <ele>6.3</ele>
        <time>2022-06-02T15:56:37Z</time>
      </trkpt>
      <trkpt lat="49.36476" lon="-1.20033">
        <ele>6.3</ele>
        <time>2022-06-02T15:56:38Z</time>
      </trkpt>
      <trkpt lat="49.36476" lon="-1.20033">
        <ele>6.3</ele>
        <time>2022-06-02T15:56:39Z</time>
      </trkpt>
      <trkpt lat="49.36476" lon="-1.20033">
        <ele>6.3</ele>
        <time>2022-06-02T15:56:40Z</time>
      </trkpt>
      <trkpt lat="49.36476" lon="-1.20033">
        <ele>6.3</ele>
        <time>2022-06-02T15:56:41Z</time>
      </trkpt>
      <trkpt lat="49.36476" lon="-1.20033">
        <ele>6.3</ele>
        <time>2022-06-02T15:56:42Z</time>
      </trkpt>
      <trkpt lat="49.36476" lon="-1.20033">
        <ele>6.3</ele>
        <time>2022-06-02T15:56:43Z</time>
      </trkpt>
      <trkpt lat="49.36476" lon="-1.20033">
        <ele>6.3</ele>
        <time>2022-06-02T15:56:44Z</time>
      </trkpt>
      <trkpt lat="49.36476" lon="-1.20033">
        <ele>6.3</ele>
        <time>2022-06-02T15:56:45Z</time>
      </trkpt>
      <trkpt lat="49.36476" lon="-1.20033">
        <ele>6.3</ele>
        <time>2022-06-02T15:56:46Z</time>
      </trkpt>
      <trkpt lat="49.36476" lon="-1.20033">
        <ele>6.3</ele>
        <time>2022-06-02T15:56:47Z</time>
      </trkpt>
      <trkpt lat="49.36476" lon="-1.20033">
        <ele>6.3</ele>
        <time>2022-06-02T15:56:48Z</time>
      </trkpt>
      <trkpt lat="49.36476" lon="-1.20033">
        <ele>6.3</ele>
        <time>2022-06-02T15:56:49Z</time>
      </trkpt>
      <trkpt lat="49.36476" lon="-1.20033">
        <ele>6.3</ele>
        <time>2022-06-02T15:56:50Z</time>
      </trkpt>
      <trkpt lat="49.36476" lon="-1.20033">
        <ele>6.3</ele>
        <time>2022-06-02T15:56:51Z</time>
      </trkpt>
      <trkpt lat="49.36476" lon="-1.20033">
        <ele>6.3</ele>
        <time>2022-06-02T15:56:52Z</time>
      </trkpt>
      <trkpt lat="49.36476" lon="-1.20033">
        <ele>6.3</ele>
        <time>2022-06-02T15:56:53Z</time>
      </trkpt>
      <trkpt lat="49.36476" lon="-1.20033">
        <ele>6.3</ele>
        <time>2022-06-02T15:56:54Z</time>
      </trkpt>
      <trkpt lat="49.36476" lon="-1.20033">
        <ele>6.3</ele>
        <time>2022-06-02T15:56:55Z</time>
      </trkpt>
      <trkpt lat="49.36476" lon="-1.20033">
        <ele>6.3</ele>
        <time>2022-06-02T15:56:56Z</time>
      </trkpt>
      <trkpt lat="49.36478" lon="-1.20031">
        <ele>6.3</ele>
        <time>2022-06-02T15:56:57Z</time>
      </trkpt>
      <trkpt lat="49.36479" lon="-1.2003">
        <ele>6.3</ele>
        <time>2022-06-02T15:56:58Z</time>
      </trkpt>
      <trkpt lat="49.36479" lon="-1.20029">
        <ele>6.3</ele>
        <time>2022-06-02T15:56:59Z</time>
      </trkpt>
      <trkpt lat="49.36479" lon="-1.20028">
        <ele>6.3</ele>
        <time>2022-06-02T15:57:00Z</time>
      </trkpt>
      <trkpt lat="49.3648" lon="-1.20029">
        <ele>6.3</ele>
        <time>2022-06-02T15:57:01Z</time>
      </trkpt>
      <trkpt lat="49.36481" lon="-1.2003">
        <ele>6.3</ele>
        <time>2022-06-02T15:57:02Z</time>
      </trkpt>
      <trkpt lat="49.36482" lon="-1.20031">
        <ele>6.3</ele>
        <time>2022-06-02T15:57:03Z</time>
      </trkpt>
      <trkpt lat="49.36483" lon="-1.20032">
        <ele>6.2</ele>
        <time>2022-06-02T15:57:05Z</time>
      </trkpt>
      <trkpt lat="49.36485" lon="-1.20033">
        <ele>6.2</ele>
        <time>2022-06-02T15:57:06Z</time>
      </trkpt>
      <trkpt lat="49.36486" lon="-1.20034">
        <ele>6.2</ele>
        <time>2022-06-02T15:57:07Z</time>
      </trkpt>
      <trkpt lat="49.36488" lon="-1.20035">
        <ele>6.2</ele>
        <time>2022-06-02T15:57:08Z</time>
      </trkpt>
      <trkpt lat="49.36488" lon="-1.20036">
        <ele>6.2</ele>
        <time>2022-06-02T15:57:09Z</time>
      </trkpt>
      <trkpt lat="49.36489" lon="-1.20036">
        <ele>6.1</ele>
        <time>2022-06-02T15:57:10Z</time>
      </trkpt>
      <trkpt lat="49.3649" lon="-1.20037">
        <ele>6.1</ele>
        <time>2022-06-02T15:57:11Z</time>
      </trkpt>
      <trkpt lat="49.36492" lon="-1.20039">
        <ele>6.1</ele>
        <time>2022-06-02T15:57:12Z</time>
      </trkpt>
      <trkpt lat="49.36492" lon="-1.20038">
        <ele>6.1</ele>
        <time>2022-06-02T15:57:13Z</time>
      </trkpt>
      <trkpt lat="49.36493" lon="-1.20039">
        <ele>6.1</ele>
        <time>2022-06-02T15:57:15Z</time>
      </trkpt>
      <trkpt lat="49.36494" lon="-1.20039">
        <ele>6.1</ele>
        <time>2022-06-02T15:57:16Z</time>
      </trkpt>
      <trkpt lat="49.36494" lon="-1.2004">
        <ele>6.1</ele>
        <time>2022-06-02T15:57:17Z</time>
      </trkpt>
      <trkpt lat="49.36495" lon="-1.20041">
        <ele>6.1</ele>
        <time>2022-06-02T15:57:18Z</time>
      </trkpt>
      <trkpt lat="49.36496" lon="-1.20041">
        <ele>6.1</ele>
        <time>2022-06-02T15:57:19Z</time>
      </trkpt>
      <trkpt lat="49.36498" lon="-1.20042">
        <ele>6</ele>
        <time>2022-06-02T15:57:20Z</time>
      </trkpt>
      <trkpt lat="49.36499" lon="-1.20043">
        <ele>6</ele>
        <time>2022-06-02T15:57:21Z</time>
      </trkpt>
      <trkpt lat="49.365" lon="-1.20044">
        <ele>6</ele>
        <time>2022-06-02T15:57:22Z</time>
      </trkpt>
      <trkpt lat="49.36501" lon="-1.20044">
        <ele>6</ele>
        <time>2022-06-02T15:57:23Z</time>
      </trkpt>
      <trkpt lat="49.36502" lon="-1.20045">
        <ele>6</ele>
        <time>2022-06-02T15:57:24Z</time>
      </trkpt>
      <trkpt lat="49.36503" lon="-1.20045">
        <ele>6</ele>
        <time>2022-06-02T15:57:25Z</time>
      </trkpt>
      <trkpt lat="49.36504" lon="-1.20046">
        <ele>5.9</ele>
        <time>2022-06-02T15:57:26Z</time>
      </trkpt>
      <trkpt lat="49.36506" lon="-1.20048">
        <ele>5.9</ele>
        <time>2022-06-02T15:57:28Z</time>
      </trkpt>
      <trkpt lat="49.36507" lon="-1.20048">
        <ele>5.9</ele>
        <time>2022-06-02T15:57:29Z</time>
      </trkpt>
      <trkpt lat="49.36508" lon="-1.20048">
        <ele>5.9</ele>
        <time>2022-06-02T15:57:30Z</time>
      </trkpt>
      <trkpt lat="49.3651" lon="-1.20049">
        <ele>5.9</ele>
        <time>2022-06-02T15:57:31Z</time>
      </trkpt>
      <trkpt lat="49.36511" lon="-1.2005">
        <ele>5.8</ele>
        <time>2022-06-02T15:57:32Z</time>
      </trkpt>
      <trkpt lat="49.36513" lon="-1.20051">
        <ele>5.8</ele>
        <time>2022-06-02T15:57:33Z</time>
      </trkpt>
      <trkpt lat="49.36514" lon="-1.20051">
        <ele>5.8</ele>
        <time>2022-06-02T15:57:34Z</time>
      </trkpt>
      <trkpt lat="49.36515" lon="-1.20052">
        <ele>5.8</ele>
        <time>2022-06-02T15:57:35Z</time>
      </trkpt>
      <trkpt lat="49.36518" lon="-1.20054">
        <ele>5.8</ele>
        <time>2022-06-02T15:57:36Z</time>
      </trkpt>
      <trkpt lat="49.3652" lon="-1.20054">
        <ele>5.7</ele>
        <time>2022-06-02T15:57:38Z</time>
      </trkpt>
      <trkpt lat="49.36521" lon="-1.20055">
        <ele>5.7</ele>
        <time>2022-06-02T15:57:39Z</time>
      </trkpt>
      <trkpt lat="49.36522" lon="-1.20055">
        <ele>5.7</ele>
        <time>2022-06-02T15:57:40Z</time>
      </trkpt>
      <trkpt lat="49.36524" lon="-1.20056">
        <ele>5.7</ele>
        <time>2022-06-02T15:57:41Z</time>
      </trkpt>
      <trkpt lat="49.36526" lon="-1.20057">
        <ele>5.7</ele>
        <time>2022-06-02T15:57:43Z</time>
      </trkpt>
      <trkpt lat="49.36527" lon="-1.20057">
        <ele>5.6</ele>
        <time>2022-06-02T15:57:44Z</time>
      </trkpt>
      <trkpt lat="49.36529" lon="-1.20058">
        <ele>5.6</ele>
        <time>2022-06-02T15:57:45Z</time>
      </trkpt>
      <trkpt lat="49.3653" lon="-1.20058">
        <ele>5.6</ele>
        <time>2022-06-02T15:57:46Z</time>
      </trkpt>
      <trkpt lat="49.36531" lon="-1.20059">
        <ele>5.6</ele>
        <time>2022-06-02T15:57:47Z</time>
      </trkpt>
      <trkpt lat="49.36532" lon="-1.20059">
        <ele>5.6</ele>
        <time>2022-06-02T15:57:48Z</time>
      </trkpt>
      <trkpt lat="49.36534" lon="-1.20059">
        <ele>5.6</ele>
        <time>2022-06-02T15:57:50Z</time>
      </trkpt>
      <trkpt lat="49.36535" lon="-1.2006">
        <ele>5.5</ele>
        <time>2022-06-02T15:57:51Z</time>
      </trkpt>
      <trkpt lat="49.36536" lon="-1.2006">
        <ele>5.5</ele>
        <time>2022-06-02T15:57:52Z</time>
      </trkpt>
      <trkpt lat="49.36537" lon="-1.2006">
        <ele>5.5</ele>
        <time>2022-06-02T15:57:53Z</time>
      </trkpt>
      <trkpt lat="49.36539" lon="-1.20061">
        <ele>5.5</ele>
        <time>2022-06-02T15:57:54Z</time>
      </trkpt>
      <trkpt lat="49.3654" lon="-1.20061">
        <ele>5.5</ele>
        <time>2022-06-02T15:57:55Z</time>
      </trkpt>
      <trkpt lat="49.36541" lon="-1.20062">
        <ele>5.5</ele>
        <time>2022-06-02T15:57:56Z</time>
      </trkpt>
      <trkpt lat="49.36542" lon="-1.20062">
        <ele>5.5</ele>
        <time>2022-06-02T15:57:58Z</time>
      </trkpt>
      <trkpt lat="49.36543" lon="-1.20063">
        <ele>5.4</ele>
        <time>2022-06-02T15:57:59Z</time>
      </trkpt>
      <trkpt lat="49.36545" lon="-1.20064">
        <ele>5.4</ele>
        <time>2022-06-02T15:58:00Z</time>
      </trkpt>
      <trkpt lat="49.36546" lon="-1.20064">
        <ele>5.4</ele>
        <time>2022-06-02T15:58:01Z</time>
      </trkpt>
      <trkpt lat="49.36546" lon="-1.20065">
        <ele>5.4</ele>
        <time>2022-06-02T15:58:02Z</time>
      </trkpt>
      <trkpt lat="49.36548" lon="-1.20066">
        <ele>5.4</ele>
        <time>2022-06-02T15:58:03Z</time>
      </trkpt>
      <trkpt lat="49.36549" lon="-1.20067">
        <ele>5.4</ele>
        <time>2022-06-02T15:58:04Z</time>
      </trkpt>
      <trkpt lat="49.3655" lon="-1.20068">
        <ele>5.3</ele>
        <time>2022-06-02T15:58:05Z</time>
      </trkpt>
      <trkpt lat="49.36551" lon="-1.20068">
        <ele>5.3</ele>
        <time>2022-06-02T15:58:06Z</time>
      </trkpt>
      <trkpt lat="49.36553" lon="-1.20069">
        <ele>5.3</ele>
        <time>2022-06-02T15:58:08Z</time>
      </trkpt>
      <trkpt lat="49.36553" lon="-1.20069">
        <ele>5.3</ele>
        <time>2022-06-02T15:58:09Z</time>
      </trkpt>
      <trkpt lat="49.36554" lon="-1.20069">
        <ele>5.3</ele>
        <time>2022-06-02T15:58:10Z</time>
      </trkpt>
      <trkpt lat="49.36555" lon="-1.2007">
        <ele>5.3</ele>
        <time>2022-06-02T15:58:11Z</time>
      </trkpt>
      <trkpt lat="49.36556" lon="-1.2007">
        <ele>5.3</ele>
        <time>2022-06-02T15:58:12Z</time>
      </trkpt>
      <trkpt lat="49.36557" lon="-1.2007">
        <ele>5.2</ele>
        <time>2022-06-02T15:58:13Z</time>
      </trkpt>
      <trkpt lat="49.3656" lon="-1.2007">
        <ele>5.2</ele>
        <time>2022-06-02T15:58:14Z</time>
      </trkpt>
      <trkpt lat="49.36561" lon="-1.20071">
        <ele>5.2</ele>
        <time>2022-06-02T15:58:16Z</time>
      </trkpt>
      <trkpt lat="49.36562" lon="-1.20072">
        <ele>5.2</ele>
        <time>2022-06-02T15:58:18Z</time>
      </trkpt>
      <trkpt lat="49.36563" lon="-1.20072">
        <ele>5.2</ele>
        <time>2022-06-02T15:58:19Z</time>
      </trkpt>
      <trkpt lat="49.36565" lon="-1.20074">
        <ele>5.1</ele>
        <time>2022-06-02T15:58:20Z</time>
      </trkpt>
      <trkpt lat="49.36566" lon="-1.20074">
        <ele>5.1</ele>
        <time>2022-06-02T15:58:21Z</time>
      </trkpt>
      <trkpt lat="49.36566" lon="-1.20075">
        <ele>5.1</ele>
        <time>2022-06-02T15:58:22Z</time>
      </trkpt>
      <trkpt lat="49.36568" lon="-1.20075">
        <ele>5.1</ele>
        <time>2022-06-02T15:58:23Z</time>
      </trkpt>
      <trkpt lat="49.36569" lon="-1.20076">
        <ele>5.1</ele>
        <time>2022-06-02T15:58:24Z</time>
      </trkpt>
      <trkpt lat="49.3657" lon="-1.20077">
        <ele>5.1</ele>
        <time>2022-06-02T15:58:25Z</time>
      </trkpt>
      <trkpt lat="49.36571" lon="-1.20078">
        <ele>5.1</ele>
        <time>2022-06-02T15:58:26Z</time>
      </trkpt>
      <trkpt lat="49.36572" lon="-1.20078">
        <ele>5.1</ele>
        <time>2022-06-02T15:58:27Z</time>
      </trkpt>
      <trkpt lat="49.36573" lon="-1.20079">
        <ele>5.1</ele>
        <time>2022-06-02T15:58:29Z</time>
      </trkpt>
      <trkpt lat="49.36575" lon="-1.2008">
        <ele>5.1</ele>
        <time>2022-06-02T15:58:30Z</time>
      </trkpt>
      <trkpt lat="49.36577" lon="-1.20081">
        <ele>5.1</ele>
        <time>2022-06-02T15:58:31Z</time>
      </trkpt>
      <trkpt lat="49.36578" lon="-1.20082">
        <ele>5.1</ele>
        <time>2022-06-02T15:58:32Z</time>
      </trkpt>
      <trkpt lat="49.36579" lon="-1.20082">
        <ele>5.1</ele>
        <time>2022-06-02T15:58:33Z</time>
      </trkpt>
      <trkpt lat="49.36581" lon="-1.20084">
        <ele>5.1</ele>
        <time>2022-06-02T15:58:34Z</time>
      </trkpt>
      <trkpt lat="49.36582" lon="-1.20084">
        <ele>5.1</ele>
        <time>2022-06-02T15:58:35Z</time>
      </trkpt>
      <trkpt lat="49.36583" lon="-1.20084">
        <ele>5.1</ele>
        <time>2022-06-02T15:58:37Z</time>
      </trkpt>
      <trkpt lat="49.36584" lon="-1.20085">
        <ele>5.1</ele>
        <time>2022-06-02T15:58:39Z</time>
      </trkpt>
      <trkpt lat="49.36586" lon="-1.20085">
        <ele>5.1</ele>
        <time>2022-06-02T15:58:40Z</time>
      </trkpt>
      <trkpt lat="49.36588" lon="-1.20086">
        <ele>5.1</ele>
        <time>2022-06-02T15:58:41Z</time>
      </trkpt>
      <trkpt lat="49.36589" lon="-1.20087">
        <ele>5.1</ele>
        <time>2022-06-02T15:58:42Z</time>
      </trkpt>
      <trkpt lat="49.3659" lon="-1.20088">
        <ele>5.1</ele>
        <time>2022-06-02T15:58:43Z</time>
      </trkpt>
      <trkpt lat="49.36591" lon="-1.20089">
        <ele>5.1</ele>
        <time>2022-06-02T15:58:45Z</time>
      </trkpt>
      <trkpt lat="49.36593" lon="-1.20089">
        <ele>5.1</ele>
        <time>2022-06-02T15:58:46Z</time>
      </trkpt>
      <trkpt lat="49.36594" lon="-1.2009">
        <ele>5.1</ele>
        <time>2022-06-02T15:58:47Z</time>
      </trkpt>
      <trkpt lat="49.36596" lon="-1.20091">
        <ele>5.1</ele>
        <time>2022-06-02T15:58:48Z</time>
      </trkpt>
      <trkpt lat="49.36598" lon="-1.20092">
        <ele>5.1</ele>
        <time>2022-06-02T15:58:50Z</time>
      </trkpt>
      <trkpt lat="49.36599" lon="-1.20093">
        <ele>5.1</ele>
        <time>2022-06-02T15:58:51Z</time>
      </trkpt>
      <trkpt lat="49.366" lon="-1.20093">
        <ele>5.1</ele>
        <time>2022-06-02T15:58:52Z</time>
      </trkpt>
      <trkpt lat="49.36601" lon="-1.20094">
        <ele>5.1</ele>
        <time>2022-06-02T15:58:53Z</time>
      </trkpt>
      <trkpt lat="49.36602" lon="-1.20096">
        <ele>5.1</ele>
        <time>2022-06-02T15:58:55Z</time>
      </trkpt>
      <trkpt lat="49.36604" lon="-1.20097">
        <ele>5.1</ele>
        <time>2022-06-02T15:58:56Z</time>
      </trkpt>
      <trkpt lat="49.36605" lon="-1.20098">
        <ele>5.1</ele>
        <time>2022-06-02T15:58:57Z</time>
      </trkpt>
      <trkpt lat="49.36607" lon="-1.201">
        <ele>5.1</ele>
        <time>2022-06-02T15:58:58Z</time>
      </trkpt>
      <trkpt lat="49.36608" lon="-1.201">
        <ele>5.1</ele>
        <time>2022-06-02T15:58:59Z</time>
      </trkpt>
      <trkpt lat="49.36609" lon="-1.20101">
        <ele>5.1</ele>
        <time>2022-06-02T15:59:00Z</time>
      </trkpt>
      <trkpt lat="49.3661" lon="-1.20102">
        <ele>5.1</ele>
        <time>2022-06-02T15:59:02Z</time>
      </trkpt>
      <trkpt lat="49.36611" lon="-1.20102">
        <ele>5.1</ele>
        <time>2022-06-02T15:59:03Z</time>
      </trkpt>
      <trkpt lat="49.36612" lon="-1.20103">
        <ele>5.1</ele>
        <time>2022-06-02T15:59:04Z</time>
      </trkpt>
      <trkpt lat="49.36614" lon="-1.20104">
        <ele>5.1</ele>
        <time>2022-06-02T15:59:05Z</time>
      </trkpt>
      <trkpt lat="49.36616" lon="-1.20106">
        <ele>5.1</ele>
        <time>2022-06-02T15:59:06Z</time>
      </trkpt>
      <trkpt lat="49.36616" lon="-1.20106">
        <ele>5.1</ele>
        <time>2022-06-02T15:59:07Z</time>
      </trkpt>
      <trkpt lat="49.36617" lon="-1.20107">
        <ele>5.1</ele>
        <time>2022-06-02T15:59:08Z</time>
      </trkpt>
      <trkpt lat="49.3662" lon="-1.20109">
        <ele>5.1</ele>
        <time>2022-06-02T15:59:09Z</time>
      </trkpt>
      <trkpt lat="49.36622" lon="-1.2011">
        <ele>5.2</ele>
        <time>2022-06-02T15:59:10Z</time>
      </trkpt>
      <trkpt lat="49.36622" lon="-1.2011">
        <ele>5.2</ele>
        <time>2022-06-02T15:59:12Z</time>
      </trkpt>
      <trkpt lat="49.36623" lon="-1.20111">
        <ele>5.2</ele>
        <time>2022-06-02T15:59:13Z</time>
      </trkpt>
      <trkpt lat="49.36626" lon="-1.20113">
        <ele>5.2</ele>
        <time>2022-06-02T15:59:14Z</time>
      </trkpt>
      <trkpt lat="49.36627" lon="-1.20114">
        <ele>5.2</ele>
        <time>2022-06-02T15:59:15Z</time>
      </trkpt>
      <trkpt lat="49.36628" lon="-1.20115">
        <ele>5.2</ele>
        <time>2022-06-02T15:59:16Z</time>
      </trkpt>
      <trkpt lat="49.36629" lon="-1.20116">
        <ele>5.2</ele>
        <time>2022-06-02T15:59:17Z</time>
      </trkpt>
      <trkpt lat="49.3663" lon="-1.20117">
        <ele>5.2</ele>
        <time>2022-06-02T15:59:18Z</time>
      </trkpt>
      <trkpt lat="49.36631" lon="-1.20118">
        <ele>5.2</ele>
        <time>2022-06-02T15:59:19Z</time>
      </trkpt>
      <trkpt lat="49.36633" lon="-1.2012">
        <ele>5.3</ele>
        <time>2022-06-02T15:59:20Z</time>
      </trkpt>
      <trkpt lat="49.36635" lon="-1.20121">
        <ele>5.3</ele>
        <time>2022-06-02T15:59:21Z</time>
      </trkpt>
      <trkpt lat="49.36636" lon="-1.20122">
        <ele>5.3</ele>
        <time>2022-06-02T15:59:23Z</time>
      </trkpt>
      <trkpt lat="49.36636" lon="-1.20122">
        <ele>5.3</ele>
        <time>2022-06-02T15:59:24Z</time>
      </trkpt>
      <trkpt lat="49.36639" lon="-1.20124">
        <ele>5.3</ele>
        <time>2022-06-02T15:59:25Z</time>
      </trkpt>
      <trkpt lat="49.3664" lon="-1.20124">
        <ele>5.3</ele>
        <time>2022-06-02T15:59:26Z</time>
      </trkpt>
      <trkpt lat="49.36641" lon="-1.20125">
        <ele>5.3</ele>
        <time>2022-06-02T15:59:27Z</time>
      </trkpt>
      <trkpt lat="49.36643" lon="-1.20126">
        <ele>5.3</ele>
        <time>2022-06-02T15:59:29Z</time>
      </trkpt>
      <trkpt lat="49.36644" lon="-1.20127">
        <ele>5.3</ele>
        <time>2022-06-02T15:59:30Z</time>
      </trkpt>
      <trkpt lat="49.36646" lon="-1.20128">
        <ele>5.3</ele>
        <time>2022-06-02T15:59:31Z</time>
      </trkpt>
      <trkpt lat="49.36647" lon="-1.20129">
        <ele>5.3</ele>
        <time>2022-06-02T15:59:32Z</time>
      </trkpt>
      <trkpt lat="49.36648" lon="-1.2013">
        <ele>5.3</ele>
        <time>2022-06-02T15:59:33Z</time>
      </trkpt>
      <trkpt lat="49.36649" lon="-1.20131">
        <ele>5.3</ele>
        <time>2022-06-02T15:59:34Z</time>
      </trkpt>
      <trkpt lat="49.3665" lon="-1.20132">
        <ele>5.3</ele>
        <time>2022-06-02T15:59:35Z</time>
      </trkpt>
      <trkpt lat="49.36652" lon="-1.20133">
        <ele>5.4</ele>
        <time>2022-06-02T15:59:36Z</time>
      </trkpt>
      <trkpt lat="49.36654" lon="-1.20135">
        <ele>5.4</ele>
        <time>2022-06-02T15:59:38Z</time>
      </trkpt>
      <trkpt lat="49.36654" lon="-1.20136">
        <ele>5.4</ele>
        <time>2022-06-02T15:59:39Z</time>
      </trkpt>
      <trkpt lat="49.36655" lon="-1.20136">
        <ele>5.4</ele>
        <time>2022-06-02T15:59:40Z</time>
      </trkpt>
      <trkpt lat="49.36657" lon="-1.20138">
        <ele>5.4</ele>
        <time>2022-06-02T15:59:41Z</time>
      </trkpt>
      <trkpt lat="49.36657" lon="-1.20139">
        <ele>5.4</ele>
        <time>2022-06-02T15:59:42Z</time>
      </trkpt>
      <trkpt lat="49.36658" lon="-1.2014">
        <ele>5.4</ele>
        <time>2022-06-02T15:59:43Z</time>
      </trkpt>
      <trkpt lat="49.3666" lon="-1.20141">
        <ele>5.4</ele>
        <time>2022-06-02T15:59:44Z</time>
      </trkpt>
      <trkpt lat="49.36662" lon="-1.20143">
        <ele>5.4</ele>
        <time>2022-06-02T15:59:46Z</time>
      </trkpt>
      <trkpt lat="49.36662" lon="-1.20144">
        <ele>5.4</ele>
        <time>2022-06-02T15:59:47Z</time>
      </trkpt>
      <trkpt lat="49.36663" lon="-1.20145">
        <ele>5.4</ele>
        <time>2022-06-02T15:59:48Z</time>
      </trkpt>
      <trkpt lat="49.36665" lon="-1.20146">
        <ele>5.5</ele>
        <time>2022-06-02T15:59:49Z</time>
      </trkpt>
      <trkpt lat="49.36666" lon="-1.20147">
        <ele>5.5</ele>
        <time>2022-06-02T15:59:50Z</time>
      </trkpt>
      <trkpt lat="49.36667" lon="-1.20148">
        <ele>5.5</ele>
        <time>2022-06-02T15:59:51Z</time>
      </trkpt>
      <trkpt lat="49.36668" lon="-1.20149">
        <ele>5.5</ele>
        <time>2022-06-02T15:59:52Z</time>
      </trkpt>
      <trkpt lat="49.36669" lon="-1.2015">
        <ele>5.5</ele>
        <time>2022-06-02T15:59:53Z</time>
      </trkpt>
      <trkpt lat="49.36669" lon="-1.20151">
        <ele>5.5</ele>
        <time>2022-06-02T15:59:54Z</time>
      </trkpt>
      <trkpt lat="49.36671" lon="-1.20153">
        <ele>5.5</ele>
        <time>2022-06-02T15:59:55Z</time>
      </trkpt>
      <trkpt lat="49.36671" lon="-1.20154">
        <ele>5.5</ele>
        <time>2022-06-02T15:59:57Z</time>
      </trkpt>
      <trkpt lat="49.36672" lon="-1.20155">
        <ele>5.5</ele>
        <time>2022-06-02T15:59:58Z</time>
      </trkpt>
      <trkpt lat="49.36674" lon="-1.20157">
        <ele>5.5</ele>
        <time>2022-06-02T15:59:59Z</time>
      </trkpt>
      <trkpt lat="49.36675" lon="-1.20158">
        <ele>5.5</ele>
        <time>2022-06-02T16:00:00Z</time>
      </trkpt>
      <trkpt lat="49.36676" lon="-1.20159">
        <ele>5.5</ele>
        <time>2022-06-02T16:00:01Z</time>
      </trkpt>
      <trkpt lat="49.36676" lon="-1.2016">
        <ele>5.5</ele>
        <time>2022-06-02T16:00:02Z</time>
      </trkpt>
      <trkpt lat="49.36678" lon="-1.20161">
        <ele>5.5</ele>
        <time>2022-06-02T16:00:03Z</time>
      </trkpt>
      <trkpt lat="49.36679" lon="-1.20163">
        <ele>5.5</ele>
        <time>2022-06-02T16:00:05Z</time>
      </trkpt>
      <trkpt lat="49.3668" lon="-1.20164">
        <ele>5.5</ele>
        <time>2022-06-02T16:00:06Z</time>
      </trkpt>
      <trkpt lat="49.36681" lon="-1.20165">
        <ele>5.5</ele>
        <time>2022-06-02T16:00:07Z</time>
      </trkpt>
      <trkpt lat="49.36682" lon="-1.20167">
        <ele>5.5</ele>
        <time>2022-06-02T16:00:08Z</time>
      </trkpt>
      <trkpt lat="49.36683" lon="-1.20167">
        <ele>5.5</ele>
        <time>2022-06-02T16:00:09Z</time>
      </trkpt>
      <trkpt lat="49.36684" lon="-1.20168">
        <ele>5.5</ele>
        <time>2022-06-02T16:00:10Z</time>
      </trkpt>
      <trkpt lat="49.36686" lon="-1.2017">
        <ele>5.6</ele>
        <time>2022-06-02T16:00:11Z</time>
      </trkpt>
      <trkpt lat="49.36687" lon="-1.20171">
        <ele>5.6</ele>
        <time>2022-06-02T16:00:13Z</time>
      </trkpt>
      <trkpt lat="49.36688" lon="-1.20172">
        <ele>5.6</ele>
        <time>2022-06-02T16:00:14Z</time>
      </trkpt>
      <trkpt lat="49.36688" lon="-1.20173">
        <ele>5.6</ele>
        <time>2022-06-02T16:00:15Z</time>
      </trkpt>
      <trkpt lat="49.36689" lon="-1.20173">
        <ele>5.6</ele>
        <time>2022-06-02T16:00:16Z</time>
      </trkpt>
      <trkpt lat="49.36691" lon="-1.20175">
        <ele>5.6</ele>
        <time>2022-06-02T16:00:17Z</time>
      </trkpt>
      <trkpt lat="49.36692" lon="-1.20176">
        <ele>5.6</ele>
        <time>2022-06-02T16:00:18Z</time>
      </trkpt>
      <trkpt lat="49.36692" lon="-1.20177">
        <ele>5.6</ele>
        <time>2022-06-02T16:00:19Z</time>
      </trkpt>
      <trkpt lat="49.36693" lon="-1.20178">
        <ele>5.6</ele>
        <time>2022-06-02T16:00:21Z</time>
      </trkpt>
      <trkpt lat="49.36695" lon="-1.20179">
        <ele>5.6</ele>
        <time>2022-06-02T16:00:22Z</time>
      </trkpt>
      <trkpt lat="49.36697" lon="-1.20181">
        <ele>5.6</ele>
        <time>2022-06-02T16:00:23Z</time>
      </trkpt>
      <trkpt lat="49.36698" lon="-1.20181">
        <ele>5.6</ele>
        <time>2022-06-02T16:00:24Z</time>
      </trkpt>
      <trkpt lat="49.36698" lon="-1.20182">
        <ele>5.7</ele>
        <time>2022-06-02T16:00:25Z</time>
      </trkpt>
      <trkpt lat="49.367" lon="-1.20183">
        <ele>5.7</ele>
        <time>2022-06-02T16:00:26Z</time>
      </trkpt>
      <trkpt lat="49.367" lon="-1.20184">
        <ele>5.7</ele>
        <time>2022-06-02T16:00:27Z</time>
      </trkpt>
      <trkpt lat="49.36701" lon="-1.20185">
        <ele>5.7</ele>
        <time>2022-06-02T16:00:29Z</time>
      </trkpt>
      <trkpt lat="49.36702" lon="-1.20186">
        <ele>5.7</ele>
        <time>2022-06-02T16:00:30Z</time>
      </trkpt>
      <trkpt lat="49.36704" lon="-1.20188">
        <ele>5.7</ele>
        <time>2022-06-02T16:00:31Z</time>
      </trkpt>
      <trkpt lat="49.36705" lon="-1.20189">
        <ele>5.7</ele>
        <time>2022-06-02T16:00:32Z</time>
      </trkpt>
      <trkpt lat="49.36705" lon="-1.2019">
        <ele>5.7</ele>
        <time>2022-06-02T16:00:33Z</time>
      </trkpt>
      <trkpt lat="49.36706" lon="-1.20191">
        <ele>5.7</ele>
        <time>2022-06-02T16:00:34Z</time>
      </trkpt>
      <trkpt lat="49.36708" lon="-1.20194">
        <ele>5.7</ele>
        <time>2022-06-02T16:00:35Z</time>
      </trkpt>
      <trkpt lat="49.36709" lon="-1.20196">
        <ele>5.7</ele>
        <time>2022-06-02T16:00:37Z</time>
      </trkpt>
      <trkpt lat="49.36709" lon="-1.20197">
        <ele>5.7</ele>
        <time>2022-06-02T16:00:38Z</time>
      </trkpt>
      <trkpt lat="49.3671" lon="-1.20199">
        <ele>5.7</ele>
        <time>2022-06-02T16:00:39Z</time>
      </trkpt>
      <trkpt lat="49.36711" lon="-1.202">
        <ele>5.8</ele>
        <time>2022-06-02T16:00:40Z</time>
      </trkpt>
      <trkpt lat="49.36712" lon="-1.20202">
        <ele>5.8</ele>
        <time>2022-06-02T16:00:41Z</time>
      </trkpt>
      <trkpt lat="49.36713" lon="-1.20203">
        <ele>5.8</ele>
        <time>2022-06-02T16:00:42Z</time>
      </trkpt>
      <trkpt lat="49.36714" lon="-1.20204">
        <ele>5.8</ele>
        <time>2022-06-02T16:00:43Z</time>
      </trkpt>
      <trkpt lat="49.36715" lon="-1.20205">
        <ele>5.8</ele>
        <time>2022-06-02T16:00:44Z</time>
      </trkpt>
      <trkpt lat="49.36716" lon="-1.20207">
        <ele>5.8</ele>
        <time>2022-06-02T16:00:46Z</time>
      </trkpt>
      <trkpt lat="49.36717" lon="-1.20208">
        <ele>5.8</ele>
        <time>2022-06-02T16:00:47Z</time>
      </trkpt>
      <trkpt lat="49.36718" lon="-1.20209">
        <ele>5.8</ele>
        <time>2022-06-02T16:00:48Z</time>
      </trkpt>
      <trkpt lat="49.36719" lon="-1.2021">
        <ele>5.8</ele>
        <time>2022-06-02T16:00:49Z</time>
      </trkpt>
      <trkpt lat="49.3672" lon="-1.20212">
        <ele>5.9</ele>
        <time>2022-06-02T16:00:50Z</time>
      </trkpt>
      <trkpt lat="49.36721" lon="-1.20214">
        <ele>5.9</ele>
        <time>2022-06-02T16:00:51Z</time>
      </trkpt>
      <trkpt lat="49.36722" lon="-1.20217">
        <ele>5.9</ele>
        <time>2022-06-02T16:00:52Z</time>
      </trkpt>
      <trkpt lat="49.36723" lon="-1.20219">
        <ele>5.9</ele>
        <time>2022-06-02T16:00:54Z</time>
      </trkpt>
      <trkpt lat="49.36723" lon="-1.2022">
        <ele>5.9</ele>
        <time>2022-06-02T16:00:55Z</time>
      </trkpt>
      <trkpt lat="49.36724" lon="-1.20222">
        <ele>5.9</ele>
        <time>2022-06-02T16:00:56Z</time>
      </trkpt>
      <trkpt lat="49.36725" lon="-1.20223">
        <ele>5.9</ele>
        <time>2022-06-02T16:00:57Z</time>
      </trkpt>
      <trkpt lat="49.36725" lon="-1.20226">
        <ele>5.9</ele>
        <time>2022-06-02T16:00:58Z</time>
      </trkpt>
      <trkpt lat="49.36726" lon="-1.20227">
        <ele>5.9</ele>
        <time>2022-06-02T16:00:59Z</time>
      </trkpt>
      <trkpt lat="49.36726" lon="-1.20228">
        <ele>5.9</ele>
        <time>2022-06-02T16:01:00Z</time>
      </trkpt>
      <trkpt lat="49.36727" lon="-1.20231">
        <ele>5.9</ele>
        <time>2022-06-02T16:01:01Z</time>
      </trkpt>
      <trkpt lat="49.36727" lon="-1.20232">
        <ele>5.9</ele>
        <time>2022-06-02T16:01:02Z</time>
      </trkpt>
      <trkpt lat="49.36728" lon="-1.20235">
        <ele>5.9</ele>
        <time>2022-06-02T16:01:03Z</time>
      </trkpt>
      <trkpt lat="49.36729" lon="-1.20236">
        <ele>5.9</ele>
        <time>2022-06-02T16:01:04Z</time>
      </trkpt>
      <trkpt lat="49.36729" lon="-1.20237">
        <ele>5.9</ele>
        <time>2022-06-02T16:01:05Z</time>
      </trkpt>
      <trkpt lat="49.3673" lon="-1.20239">
        <ele>5.9</ele>
        <time>2022-06-02T16:01:06Z</time>
      </trkpt>
      <trkpt lat="49.36731" lon="-1.20241">
        <ele>5.9</ele>
        <time>2022-06-02T16:01:07Z</time>
      </trkpt>
      <trkpt lat="49.36731" lon="-1.20242">
        <ele>5.9</ele>
        <time>2022-06-02T16:01:09Z</time>
      </trkpt>
      <trkpt lat="49.36732" lon="-1.20244">
        <ele>5.9</ele>
        <time>2022-06-02T16:01:10Z</time>
      </trkpt>
      <trkpt lat="49.36732" lon="-1.20246">
        <ele>5.9</ele>
        <time>2022-06-02T16:01:11Z</time>
      </trkpt>
      <trkpt lat="49.36732" lon="-1.20248">
        <ele>5.9</ele>
        <time>2022-06-02T16:01:12Z</time>
      </trkpt>
      <trkpt lat="49.36733" lon="-1.2025">
        <ele>5.9</ele>
        <time>2022-06-02T16:01:13Z</time>
      </trkpt>
      <trkpt lat="49.36733" lon="-1.20253">
        <ele>5.9</ele>
        <time>2022-06-02T16:01:14Z</time>
      </trkpt>
      <trkpt lat="49.36733" lon="-1.20255">
        <ele>5.9</ele>
        <time>2022-06-02T16:01:15Z</time>
      </trkpt>
      <trkpt lat="49.36734" lon="-1.20256">
        <ele>5.9</ele>
        <time>2022-06-02T16:01:16Z</time>
      </trkpt>
      <trkpt lat="49.36734" lon="-1.20257">
        <ele>5.9</ele>
        <time>2022-06-02T16:01:17Z</time>
      </trkpt>
      <trkpt lat="49.36734" lon="-1.20259">
        <ele>5.9</ele>
        <time>2022-06-02T16:01:18Z</time>
      </trkpt>
      <trkpt lat="49.36734" lon="-1.2026">
        <ele>5.9</ele>
        <time>2022-06-02T16:01:19Z</time>
      </trkpt>
      <trkpt lat="49.36735" lon="-1.20262">
        <ele>5.9</ele>
        <time>2022-06-02T16:01:20Z</time>
      </trkpt>
      <trkpt lat="49.36735" lon="-1.20265">
        <ele>5.9</ele>
        <time>2022-06-02T16:01:21Z</time>
      </trkpt>
      <trkpt lat="49.36735" lon="-1.20267">
        <ele>5.9</ele>
        <time>2022-06-02T16:01:22Z</time>
      </trkpt>
      <trkpt lat="49.36735" lon="-1.20268">
        <ele>5.9</ele>
        <time>2022-06-02T16:01:24Z</time>
      </trkpt>
      <trkpt lat="49.36735" lon="-1.2027">
        <ele>5.9</ele>
        <time>2022-06-02T16:01:25Z</time>
      </trkpt>
      <trkpt lat="49.36735" lon="-1.20272">
        <ele>5.9</ele>
        <time>2022-06-02T16:01:26Z</time>
      </trkpt>
      <trkpt lat="49.36735" lon="-1.20274">
        <ele>6</ele>
        <time>2022-06-02T16:01:27Z</time>
      </trkpt>
      <trkpt lat="49.36735" lon="-1.20277">
        <ele>6</ele>
        <time>2022-06-02T16:01:28Z</time>
      </trkpt>
      <trkpt lat="49.36735" lon="-1.20279">
        <ele>6</ele>
        <time>2022-06-02T16:01:29Z</time>
      </trkpt>
      <trkpt lat="49.36735" lon="-1.2028">
        <ele>6</ele>
        <time>2022-06-02T16:01:30Z</time>
      </trkpt>
      <trkpt lat="49.36735" lon="-1.20283">
        <ele>6</ele>
        <time>2022-06-02T16:01:31Z</time>
      </trkpt>
      <trkpt lat="49.36735" lon="-1.20284">
        <ele>6</ele>
        <time>2022-06-02T16:01:32Z</time>
      </trkpt>
      <trkpt lat="49.36735" lon="-1.20285">
        <ele>6</ele>
        <time>2022-06-02T16:01:33Z</time>
      </trkpt>
      <trkpt lat="49.36735" lon="-1.20288">
        <ele>6.1</ele>
        <time>2022-06-02T16:01:34Z</time>
      </trkpt>
      <trkpt lat="49.36736" lon="-1.2029">
        <ele>6.1</ele>
        <time>2022-06-02T16:01:35Z</time>
      </trkpt>
      <trkpt lat="49.36736" lon="-1.20291">
        <ele>6.1</ele>
        <time>2022-06-02T16:01:36Z</time>
      </trkpt>
      <trkpt lat="49.36735" lon="-1.20293">
        <ele>6.1</ele>
        <time>2022-06-02T16:01:38Z</time>
      </trkpt>
      <trkpt lat="49.36736" lon="-1.20295">
        <ele>6.1</ele>
        <time>2022-06-02T16:01:39Z</time>
      </trkpt>
      <trkpt lat="49.36736" lon="-1.20297">
        <ele>6.1</ele>
        <time>2022-06-02T16:01:40Z</time>
      </trkpt>
      <trkpt lat="49.36736" lon="-1.20298">
        <ele>6.2</ele>
        <time>2022-06-02T16:01:41Z</time>
      </trkpt>
      <trkpt lat="49.36736" lon="-1.20301">
        <ele>6.2</ele>
        <time>2022-06-02T16:01:42Z</time>
      </trkpt>
      <trkpt lat="49.36736" lon="-1.20303">
        <ele>6.2</ele>
        <time>2022-06-02T16:01:44Z</time>
      </trkpt>
      <trkpt lat="49.36737" lon="-1.20304">
        <ele>6.2</ele>
        <time>2022-06-02T16:01:45Z</time>
      </trkpt>
      <trkpt lat="49.36737" lon="-1.20306">
        <ele>6.3</ele>
        <time>2022-06-02T16:01:46Z</time>
      </trkpt>
      <trkpt lat="49.36737" lon="-1.20309">
        <ele>6.3</ele>
        <time>2022-06-02T16:01:47Z</time>
      </trkpt>
      <trkpt lat="49.36737" lon="-1.20311">
        <ele>6.3</ele>
        <time>2022-06-02T16:01:48Z</time>
      </trkpt>
      <trkpt lat="49.36737" lon="-1.20312">
        <ele>6.3</ele>
        <time>2022-06-02T16:01:50Z</time>
      </trkpt>
      <trkpt lat="49.36738" lon="-1.20313">
        <ele>6.4</ele>
        <time>2022-06-02T16:01:51Z</time>
      </trkpt>
      <trkpt lat="49.36738" lon="-1.20316">
        <ele>6.4</ele>
        <time>2022-06-02T16:01:52Z</time>
      </trkpt>
      <trkpt lat="49.36738" lon="-1.20318">
        <ele>6.4</ele>
        <time>2022-06-02T16:01:53Z</time>
      </trkpt>
      <trkpt lat="49.36738" lon="-1.2032">
        <ele>6.5</ele>
        <time>2022-06-02T16:01:54Z</time>
      </trkpt>
      <trkpt lat="49.36738" lon="-1.20323">
        <ele>6.5</ele>
        <time>2022-06-02T16:01:55Z</time>
      </trkpt>
      <trkpt lat="49.36738" lon="-1.20324">
        <ele>6.5</ele>
        <time>2022-06-02T16:01:57Z</time>
      </trkpt>
      <trkpt lat="49.36738" lon="-1.20325">
        <ele>6.5</ele>
        <time>2022-06-02T16:01:58Z</time>
      </trkpt>
      <trkpt lat="49.36738" lon="-1.20327">
        <ele>6.6</ele>
        <time>2022-06-02T16:01:59Z</time>
      </trkpt>
      <trkpt lat="49.36739" lon="-1.2033">
        <ele>6.6</ele>
        <time>2022-06-02T16:02:00Z</time>
      </trkpt>
      <trkpt lat="49.36739" lon="-1.20332">
        <ele>6.6</ele>
        <time>2022-06-02T16:02:01Z</time>
      </trkpt>
      <trkpt lat="49.36739" lon="-1.20335">
        <ele>6.7</ele>
        <time>2022-06-02T16:02:02Z</time>
      </trkpt>
      <trkpt lat="49.36739" lon="-1.20338">
        <ele>6.7</ele>
        <time>2022-06-02T16:02:03Z</time>
      </trkpt>
      <trkpt lat="49.36739" lon="-1.2034">
        <ele>6.7</ele>
        <time>2022-06-02T16:02:05Z</time>
      </trkpt>
      <trkpt lat="49.36739" lon="-1.20342">
        <ele>6.8</ele>
        <time>2022-06-02T16:02:06Z</time>
      </trkpt>
      <trkpt lat="49.36739" lon="-1.20344">
        <ele>6.8</ele>
        <time>2022-06-02T16:02:07Z</time>
      </trkpt>
      <trkpt lat="49.36739" lon="-1.20346">
        <ele>6.8</ele>
        <time>2022-06-02T16:02:08Z</time>
      </trkpt>
      <trkpt lat="49.36739" lon="-1.20347">
        <ele>6.8</ele>
        <time>2022-06-02T16:02:09Z</time>
      </trkpt>
      <trkpt lat="49.3674" lon="-1.20349">
        <ele>6.8</ele>
        <time>2022-06-02T16:02:10Z</time>
      </trkpt>
      <trkpt lat="49.3674" lon="-1.20351">
        <ele>6.9</ele>
        <time>2022-06-02T16:02:11Z</time>
      </trkpt>
      <trkpt lat="49.36739" lon="-1.20353">
        <ele>6.9</ele>
        <time>2022-06-02T16:02:13Z</time>
      </trkpt>
      <trkpt lat="49.36739" lon="-1.20354">
        <ele>6.9</ele>
        <time>2022-06-02T16:02:14Z</time>
      </trkpt>
      <trkpt lat="49.36738" lon="-1.20356">
        <ele>6.9</ele>
        <time>2022-06-02T16:02:15Z</time>
      </trkpt>
      <trkpt lat="49.36738" lon="-1.20356">
        <ele>6.9</ele>
        <time>2022-06-02T16:02:16Z</time>
      </trkpt>
      <trkpt lat="49.36739" lon="-1.20356">
        <ele>6.9</ele>
        <time>2022-06-02T16:02:17Z</time>
      </trkpt>
      <trkpt lat="49.36739" lon="-1.20356">
        <ele>6.9</ele>
        <time>2022-06-02T16:02:18Z</time>
      </trkpt>
      <trkpt lat="49.36739" lon="-1.20356">
        <ele>6.9</ele>
        <time>2022-06-02T16:02:19Z</time>
      </trkpt>
      <trkpt lat="49.36739" lon="-1.20355">
        <ele>6.9</ele>
        <time>2022-06-02T16:02:20Z</time>
      </trkpt>
      <trkpt lat="49.36739" lon="-1.20355">
        <ele>6.9</ele>
        <time>2022-06-02T16:02:21Z</time>
      </trkpt>
      <trkpt lat="49.36739" lon="-1.20355">
        <ele>6.9</ele>
        <time>2022-06-02T16:02:22Z</time>
      </trkpt>
      <trkpt lat="49.36739" lon="-1.20355">
        <ele>6.9</ele>
        <time>2022-06-02T16:02:24Z</time>
      </trkpt>
      <trkpt lat="49.36739" lon="-1.20355">
        <ele>6.9</ele>
        <time>2022-06-02T16:02:25Z</time>
      </trkpt>
      <trkpt lat="49.36739" lon="-1.20355">
        <ele>6.9</ele>
        <time>2022-06-02T16:02:26Z</time>
      </trkpt>
      <trkpt lat="49.36739" lon="-1.20355">
        <ele>6.9</ele>
        <time>2022-06-02T16:02:27Z</time>
      </trkpt>
      <trkpt lat="49.36739" lon="-1.20354">
        <ele>6.9</ele>
        <time>2022-06-02T16:02:28Z</time>
      </trkpt>
      <trkpt lat="49.36739" lon="-1.20354">
        <ele>6.9</ele>
        <time>2022-06-02T16:02:29Z</time>
      </trkpt>
      <trkpt lat="49.36739" lon="-1.20354">
        <ele>6.9</ele>
        <time>2022-06-02T16:02:30Z</time>
      </trkpt>
      <trkpt lat="49.36739" lon="-1.20354">
        <ele>6.9</ele>
        <time>2022-06-02T16:02:31Z</time>
      </trkpt>
      <trkpt lat="49.36739" lon="-1.20353">
        <ele>6.9</ele>
        <time>2022-06-02T16:02:32Z</time>
      </trkpt>
      <trkpt lat="49.36739" lon="-1.20353">
        <ele>7</ele>
        <time>2022-06-02T16:02:33Z</time>
      </trkpt>
      <trkpt lat="49.36739" lon="-1.20353">
        <ele>7</ele>
        <time>2022-06-02T16:02:34Z</time>
      </trkpt>
      <trkpt lat="49.36739" lon="-1.20353">
        <ele>7</ele>
        <time>2022-06-02T16:02:35Z</time>
      </trkpt>
      <trkpt lat="49.36739" lon="-1.20353">
        <ele>7</ele>
        <time>2022-06-02T16:02:36Z</time>
      </trkpt>
      <trkpt lat="49.36739" lon="-1.20353">
        <ele>7</ele>
        <time>2022-06-02T16:02:37Z</time>
      </trkpt>
      <trkpt lat="49.36739" lon="-1.20353">
        <ele>7</ele>
        <time>2022-06-02T16:02:38Z</time>
      </trkpt>
      <trkpt lat="49.36739" lon="-1.20353">
        <ele>7</ele>
        <time>2022-06-02T16:02:39Z</time>
      </trkpt>
      <trkpt lat="49.36739" lon="-1.20353">
        <ele>7</ele>
        <time>2022-06-02T16:02:40Z</time>
      </trkpt>
      <trkpt lat="49.36739" lon="-1.20353">
        <ele>7</ele>
        <time>2022-06-02T16:02:41Z</time>
      </trkpt>
      <trkpt lat="49.36739" lon="-1.20353">
        <ele>7</ele>
        <time>2022-06-02T16:02:42Z</time>
      </trkpt>
      <trkpt lat="49.36739" lon="-1.20353">
        <ele>7</ele>
        <time>2022-06-02T16:02:43Z</time>
      </trkpt>
      <trkpt lat="49.36739" lon="-1.20353">
        <ele>7</ele>
        <time>2022-06-02T16:02:44Z</time>
      </trkpt>
      <trkpt lat="49.36739" lon="-1.20353">
        <ele>7</ele>
        <time>2022-06-02T16:02:45Z</time>
      </trkpt>
      <trkpt lat="49.36739" lon="-1.20353">
        <ele>7</ele>
        <time>2022-06-02T16:02:46Z</time>
      </trkpt>
      <trkpt lat="49.36739" lon="-1.20353">
        <ele>7</ele>
        <time>2022-06-02T16:02:47Z</time>
      </trkpt>
      <trkpt lat="49.36739" lon="-1.20353">
        <ele>7</ele>
        <time>2022-06-02T16:02:48Z</time>
      </trkpt>
      <trkpt lat="49.36739" lon="-1.20353">
        <ele>7</ele>
        <time>2022-06-02T16:02:49Z</time>
      </trkpt>
      <trkpt lat="49.36739" lon="-1.20353">
        <ele>7</ele>
        <time>2022-06-02T16:02:50Z</time>
      </trkpt>
      <trkpt lat="49.36739" lon="-1.20353">
        <ele>7</ele>
        <time>2022-06-02T16:02:51Z</time>
      </trkpt>
      <trkpt lat="49.36739" lon="-1.20353">
        <ele>7</ele>
        <time>2022-06-02T16:02:52Z</time>
      </trkpt>
      <trkpt lat="49.36739" lon="-1.20353">
        <ele>7</ele>
        <time>2022-06-02T16:02:53Z</time>
      </trkpt>
      <trkpt lat="49.36739" lon="-1.20353">
        <ele>7</ele>
        <time>2022-06-02T16:02:54Z</time>
      </trkpt>
      <trkpt lat="49.36739" lon="-1.20353">
        <ele>7</ele>
        <time>2022-06-02T16:02:55Z</time>
      </trkpt>
      <trkpt lat="49.36739" lon="-1.20353">
        <ele>7</ele>
        <time>2022-06-02T16:02:56Z</time>
      </trkpt>
      <trkpt lat="49.36739" lon="-1.20353">
        <ele>7</ele>
        <time>2022-06-02T16:02:57Z</time>
      </trkpt>
      <trkpt lat="49.36739" lon="-1.20353">
        <ele>7</ele>
        <time>2022-06-02T16:02:58Z</time>
      </trkpt>
      <trkpt lat="49.36739" lon="-1.20353">
        <ele>7</ele>
        <time>2022-06-02T16:02:59Z</time>
      </trkpt>
      <trkpt lat="49.36739" lon="-1.20353">
        <ele>7</ele>
        <time>2022-06-02T16:03:00Z</time>
      </trkpt>
      <trkpt lat="49.36739" lon="-1.20353">
        <ele>7</ele>
        <time>2022-06-02T16:03:01Z</time>
      </trkpt>
      <trkpt lat="49.36739" lon="-1.20353">
        <ele>7</ele>
        <time>2022-06-02T16:03:02Z</time>
      </trkpt>
      <trkpt lat="49.36739" lon="-1.20353">
        <ele>7</ele>
        <time>2022-06-02T16:03:03Z</time>
      </trkpt>
      <trkpt lat="49.3674" lon="-1.2035">
        <ele>7</ele>
        <time>2022-06-02T16:03:04Z</time>
      </trkpt>
      <trkpt lat="49.3674" lon="-1.20349">
        <ele>7</ele>
        <time>2022-06-02T16:03:05Z</time>
      </trkpt>
      <trkpt lat="49.3674" lon="-1.20349">
        <ele>7</ele>
        <time>2022-06-02T16:03:06Z</time>
      </trkpt>
      <trkpt lat="49.36741" lon="-1.20352">
        <ele>7</ele>
        <time>2022-06-02T16:03:07Z</time>
      </trkpt>
      <trkpt lat="49.36742" lon="-1.20352">
        <ele>7.1</ele>
        <time>2022-06-02T16:03:09Z</time>
      </trkpt>
      <trkpt lat="49.36742" lon="-1.20351">
        <ele>7.1</ele>
        <time>2022-06-02T16:03:10Z</time>
      </trkpt>
      <trkpt lat="49.36742" lon="-1.20351">
        <ele>7.1</ele>
        <time>2022-06-02T16:03:11Z</time>
      </trkpt>
      <trkpt lat="49.36742" lon="-1.20351">
        <ele>7.1</ele>
        <time>2022-06-02T16:03:12Z</time>
      </trkpt>
      <trkpt lat="49.36742" lon="-1.2035">
        <ele>7.1</ele>
        <time>2022-06-02T16:03:13Z</time>
      </trkpt>
      <trkpt lat="49.36741" lon="-1.2035">
        <ele>7.1</ele>
        <time>2022-06-02T16:03:14Z</time>
      </trkpt>
      <trkpt lat="49.36741" lon="-1.2035">
        <ele>7.1</ele>
        <time>2022-06-02T16:03:15Z</time>
      </trkpt>
      <trkpt lat="49.36741" lon="-1.2035">
        <ele>7.1</ele>
        <time>2022-06-02T16:03:16Z</time>
      </trkpt>
      <trkpt lat="49.36741" lon="-1.20349">
        <ele>7.1</ele>
        <time>2022-06-02T16:03:17Z</time>
      </trkpt>
      <trkpt lat="49.36741" lon="-1.20349">
        <ele>7.1</ele>
        <time>2022-06-02T16:03:18Z</time>
      </trkpt>
      <trkpt lat="49.36741" lon="-1.20349">
        <ele>7.1</ele>
        <time>2022-06-02T16:03:19Z</time>
      </trkpt>
      <trkpt lat="49.36741" lon="-1.20349">
        <ele>7.1</ele>
        <time>2022-06-02T16:03:20Z</time>
      </trkpt>
      <trkpt lat="49.36741" lon="-1.20349">
        <ele>7.1</ele>
        <time>2022-06-02T16:03:21Z</time>
      </trkpt>
      <trkpt lat="49.36741" lon="-1.20349">
        <ele>7.1</ele>
        <time>2022-06-02T16:03:22Z</time>
      </trkpt>
      <trkpt lat="49.36741" lon="-1.20349">
        <ele>7.1</ele>
        <time>2022-06-02T16:03:23Z</time>
      </trkpt>
      <trkpt lat="49.36741" lon="-1.20348">
        <ele>7.1</ele>
        <time>2022-06-02T16:03:24Z</time>
      </trkpt>
      <trkpt lat="49.36741" lon="-1.20348">
        <ele>7.1</ele>
        <time>2022-06-02T16:03:25Z</time>
      </trkpt>
      <trkpt lat="49.36741" lon="-1.20348">
        <ele>7.1</ele>
        <time>2022-06-02T16:03:26Z</time>
      </trkpt>
      <trkpt lat="49.3674" lon="-1.20348">
        <ele>7.1</ele>
        <time>2022-06-02T16:03:27Z</time>
      </trkpt>
      <trkpt lat="49.3674" lon="-1.20349">
        <ele>7.1</ele>
        <time>2022-06-02T16:03:28Z</time>
      </trkpt>
      <trkpt lat="49.3674" lon="-1.20349">
        <ele>7.1</ele>
        <time>2022-06-02T16:03:29Z</time>
      </trkpt>
      <trkpt lat="49.3674" lon="-1.20349">
        <ele>7.1</ele>
        <time>2022-06-02T16:03:30Z</time>
      </trkpt>
      <trkpt lat="49.3674" lon="-1.20349">
        <ele>7.1</ele>
        <time>2022-06-02T16:03:31Z</time>
      </trkpt>
      <trkpt lat="49.3674" lon="-1.20349">
        <ele>7.1</ele>
        <time>2022-06-02T16:03:32Z</time>
      </trkpt>
      <trkpt lat="49.3674" lon="-1.20349">
        <ele>7.1</ele>
        <time>2022-06-02T16:03:33Z</time>
      </trkpt>
      <trkpt lat="49.3674" lon="-1.20349">
        <ele>7.1</ele>
        <time>2022-06-02T16:03:34Z</time>
      </trkpt>
      <trkpt lat="49.3674" lon="-1.20349">
        <ele>7.1</ele>
        <time>2022-06-02T16:03:35Z</time>
      </trkpt>
      <trkpt lat="49.3674" lon="-1.20349">
        <ele>7.1</ele>
        <time>2022-06-02T16:03:36Z</time>
      </trkpt>
      <trkpt lat="49.3674" lon="-1.20349">
        <ele>7.1</ele>
        <time>2022-06-02T16:03:37Z</time>
      </trkpt>
      <trkpt lat="49.36741" lon="-1.20349">
        <ele>7.2</ele>
        <time>2022-06-02T16:03:38Z</time>
      </trkpt>
      <trkpt lat="49.36742" lon="-1.20349">
        <ele>7.2</ele>
        <time>2022-06-02T16:03:40Z</time>
      </trkpt>
      <trkpt lat="49.36742" lon="-1.2035">
        <ele>7.2</ele>
        <time>2022-06-02T16:03:41Z</time>
      </trkpt>
      <trkpt lat="49.36742" lon="-1.20352">
        <ele>7.2</ele>
        <time>2022-06-02T16:03:42Z</time>
      </trkpt>
      <trkpt lat="49.36742" lon="-1.20354">
        <ele>7.2</ele>
        <time>2022-06-02T16:03:43Z</time>
      </trkpt>
      <trkpt lat="49.36742" lon="-1.20356">
        <ele>7.3</ele>
        <time>2022-06-02T16:03:44Z</time>
      </trkpt>
      <trkpt lat="49.36741" lon="-1.20358">
        <ele>7.3</ele>
        <time>2022-06-02T16:03:45Z</time>
      </trkpt>
      <trkpt lat="49.36742" lon="-1.20359">
        <ele>7.3</ele>
        <time>2022-06-02T16:03:48Z</time>
      </trkpt>
      <trkpt lat="49.36742" lon="-1.20359">
        <ele>7.3</ele>
        <time>2022-06-02T16:03:49Z</time>
      </trkpt>
      <trkpt lat="49.36742" lon="-1.20359">
        <ele>7.3</ele>
        <time>2022-06-02T16:03:50Z</time>
      </trkpt>
      <trkpt lat="49.36742" lon="-1.20359">
        <ele>7.3</ele>
        <time>2022-06-02T16:03:51Z</time>
      </trkpt>
      <trkpt lat="49.36742" lon="-1.20359">
        <ele>7.3</ele>
        <time>2022-06-02T16:03:52Z</time>
      </trkpt>
      <trkpt lat="49.36742" lon="-1.20359">
        <ele>7.3</ele>
        <time>2022-06-02T16:03:53Z</time>
      </trkpt>
      <trkpt lat="49.36742" lon="-1.20359">
        <ele>7.3</ele>
        <time>2022-06-02T16:03:54Z</time>
      </trkpt>
      <trkpt lat="49.36742" lon="-1.20359">
        <ele>7.3</ele>
        <time>2022-06-02T16:03:55Z</time>
      </trkpt>
      <trkpt lat="49.36742" lon="-1.20359">
        <ele>7.3</ele>
        <time>2022-06-02T16:03:56Z</time>
      </trkpt>
      <trkpt lat="49.36742" lon="-1.20359">
        <ele>7.3</ele>
        <time>2022-06-02T16:03:57Z</time>
      </trkpt>
      <trkpt lat="49.36742" lon="-1.20359">
        <ele>7.3</ele>
        <time>2022-06-02T16:03:58Z</time>
      </trkpt>
      <trkpt lat="49.36742" lon="-1.20359">
        <ele>7.3</ele>
        <time>2022-06-02T16:03:59Z</time>
      </trkpt>
      <trkpt lat="49.36742" lon="-1.20359">
        <ele>7.3</ele>
        <time>2022-06-02T16:04:00Z</time>
      </trkpt>
      <trkpt lat="49.36742" lon="-1.20359">
        <ele>7.3</ele>
        <time>2022-06-02T16:04:01Z</time>
      </trkpt>
      <trkpt lat="49.36741" lon="-1.20359">
        <ele>7.3</ele>
        <time>2022-06-02T16:04:03Z</time>
      </trkpt>
      <trkpt lat="49.36741" lon="-1.20359">
        <ele>7.3</ele>
        <time>2022-06-02T16:04:04Z</time>
      </trkpt>
      <trkpt lat="49.36741" lon="-1.20359">
        <ele>7.3</ele>
        <time>2022-06-02T16:04:05Z</time>
      </trkpt>
      <trkpt lat="49.36741" lon="-1.20359">
        <ele>7.3</ele>
        <time>2022-06-02T16:04:06Z</time>
      </trkpt>
      <trkpt lat="49.36741" lon="-1.20359">
        <ele>7.3</ele>
        <time>2022-06-02T16:04:07Z</time>
      </trkpt>
      <trkpt lat="49.36741" lon="-1.20359">
        <ele>7.3</ele>
        <time>2022-06-02T16:04:08Z</time>
      </trkpt>
      <trkpt lat="49.36741" lon="-1.20359">
        <ele>7.3</ele>
        <time>2022-06-02T16:04:09Z</time>
      </trkpt>
      <trkpt lat="49.36741" lon="-1.20359">
        <ele>7.3</ele>
        <time>2022-06-02T16:04:10Z</time>
      </trkpt>
      <trkpt lat="49.36741" lon="-1.20359">
        <ele>7.3</ele>
        <time>2022-06-02T16:04:11Z</time>
      </trkpt>
      <trkpt lat="49.36741" lon="-1.20359">
        <ele>7.3</ele>
        <time>2022-06-02T16:04:12Z</time>
      </trkpt>
      <trkpt lat="49.36741" lon="-1.20359">
        <ele>7.3</ele>
        <time>2022-06-02T16:04:13Z</time>
      </trkpt>
      <trkpt lat="49.36741" lon="-1.20359">
        <ele>7.3</ele>
        <time>2022-06-02T16:04:14Z</time>
      </trkpt>
      <trkpt lat="49.36741" lon="-1.20359">
        <ele>7.3</ele>
        <time>2022-06-02T16:04:15Z</time>
      </trkpt>
      <trkpt lat="49.36741" lon="-1.20359">
        <ele>7.3</ele>
        <time>2022-06-02T16:04:16Z</time>
      </trkpt>
      <trkpt lat="49.36741" lon="-1.20359">
        <ele>7.3</ele>
        <time>2022-06-02T16:04:17Z</time>
      </trkpt>
      <trkpt lat="49.36741" lon="-1.20359">
        <ele>7.3</ele>
        <time>2022-06-02T16:04:18Z</time>
      </trkpt>
      <trkpt lat="49.36741" lon="-1.20359">
        <ele>7.3</ele>
        <time>2022-06-02T16:04:19Z</time>
      </trkpt>
      <trkpt lat="49.36741" lon="-1.20359">
        <ele>7.3</ele>
        <time>2022-06-02T16:04:20Z</time>
      </trkpt>
      <trkpt lat="49.36741" lon="-1.20359">
        <ele>7.3</ele>
        <time>2022-06-02T16:04:21Z</time>
      </trkpt>
      <trkpt lat="49.36741" lon="-1.20359">
        <ele>7.3</ele>
        <time>2022-06-02T16:04:22Z</time>
      </trkpt>
      <trkpt lat="49.36741" lon="-1.20359">
        <ele>7.3</ele>
        <time>2022-06-02T16:04:23Z</time>
      </trkpt>
      <trkpt lat="49.36741" lon="-1.20359">
        <ele>7.3</ele>
        <time>2022-06-02T16:04:24Z</time>
      </trkpt>
      <trkpt lat="49.36741" lon="-1.20359">
        <ele>7.3</ele>
        <time>2022-06-02T16:04:25Z</time>
      </trkpt>
      <trkpt lat="49.36741" lon="-1.20359">
        <ele>7.3</ele>
        <time>2022-06-02T16:04:26Z</time>
      </trkpt>
      <trkpt lat="49.36741" lon="-1.20359">
        <ele>7.3</ele>
        <time>2022-06-02T16:04:27Z</time>
      </trkpt>
      <trkpt lat="49.36741" lon="-1.2036">
        <ele>7.4</ele>
        <time>2022-06-02T16:04:28Z</time>
      </trkpt>
      <trkpt lat="49.36741" lon="-1.20361">
        <ele>7.4</ele>
        <time>2022-06-02T16:04:29Z</time>
      </trkpt>
      <trkpt lat="49.36741" lon="-1.20362">
        <ele>7.4</ele>
        <time>2022-06-02T16:04:30Z</time>
      </trkpt>
      <trkpt lat="49.36741" lon="-1.20363">
        <ele>7.4</ele>
        <time>2022-06-02T16:04:31Z</time>
      </trkpt>
      <trkpt lat="49.36741" lon="-1.20364">
        <ele>7.4</ele>
        <time>2022-06-02T16:04:32Z</time>
      </trkpt>
      <trkpt lat="49.36741" lon="-1.20364">
        <ele>7.4</ele>
        <time>2022-06-02T16:04:33Z</time>
      </trkpt>
      <trkpt lat="49.3674" lon="-1.20366">
        <ele>7.4</ele>
        <time>2022-06-02T16:04:34Z</time>
      </trkpt>
      <trkpt lat="49.36741" lon="-1.20369">
        <ele>7.5</ele>
        <time>2022-06-02T16:04:35Z</time>
      </trkpt>
      <trkpt lat="49.36742" lon="-1.2037">
        <ele>7.5</ele>
        <time>2022-06-02T16:04:36Z</time>
      </trkpt>
      <trkpt lat="49.36742" lon="-1.20371">
        <ele>7.5</ele>
        <time>2022-06-02T16:04:37Z</time>
      </trkpt>
      <trkpt lat="49.36743" lon="-1.20374">
        <ele>7.5</ele>
        <time>2022-06-02T16:04:38Z</time>
      </trkpt>
      <trkpt lat="49.36743" lon="-1.20375">
        <ele>7.5</ele>
        <time>2022-06-02T16:04:40Z</time>
      </trkpt>
      <trkpt lat="49.36743" lon="-1.20378">
        <ele>7.6</ele>
        <time>2022-06-02T16:04:41Z</time>
      </trkpt>
      <trkpt lat="49.36743" lon="-1.2038">
        <ele>7.6</ele>
        <time>2022-06-02T16:04:42Z</time>
      </trkpt>
      <trkpt lat="49.36743" lon="-1.20383">
        <ele>7.6</ele>
        <time>2022-06-02T16:04:44Z</time>
      </trkpt>
      <trkpt lat="49.36743" lon="-1.20384">
        <ele>7.7</ele>
        <time>2022-06-02T16:04:45Z</time>
      </trkpt>
      <trkpt lat="49.36743" lon="-1.20388">
        <ele>7.7</ele>
        <time>2022-06-02T16:04:46Z</time>
      </trkpt>
      <trkpt lat="49.36743" lon="-1.20389">
        <ele>7.7</ele>
        <time>2022-06-02T16:04:47Z</time>
      </trkpt>
      <trkpt lat="49.36743" lon="-1.2039">
        <ele>7.7</ele>
        <time>2022-06-02T16:04:48Z</time>
      </trkpt>
      <trkpt lat="49.36744" lon="-1.20391">
        <ele>7.7</ele>
        <time>2022-06-02T16:04:50Z</time>
      </trkpt>
      <trkpt lat="49.36744" lon="-1.20392">
        <ele>7.8</ele>
        <time>2022-06-02T16:04:51Z</time>
      </trkpt>
      <trkpt lat="49.36744" lon="-1.20393">
        <ele>7.8</ele>
        <time>2022-06-02T16:04:52Z</time>
      </trkpt>
      <trkpt lat="49.36744" lon="-1.20395">
        <ele>7.8</ele>
        <time>2022-06-02T16:04:53Z</time>
      </trkpt>
      <trkpt lat="49.36744" lon="-1.20398">
        <ele>7.8</ele>
        <time>2022-06-02T16:04:54Z</time>
      </trkpt>
      <trkpt lat="49.36744" lon="-1.204">
        <ele>7.9</ele>
        <time>2022-06-02T16:04:55Z</time>
      </trkpt>
      <trkpt lat="49.36744" lon="-1.20402">
        <ele>7.9</ele>
        <time>2022-06-02T16:04:56Z</time>
      </trkpt>
      <trkpt lat="49.36745" lon="-1.20405">
        <ele>7.9</ele>
        <time>2022-06-02T16:04:57Z</time>
      </trkpt>
      <trkpt lat="49.36745" lon="-1.20407">
        <ele>7.9</ele>
        <time>2022-06-02T16:04:59Z</time>
      </trkpt>
      <trkpt lat="49.36745" lon="-1.20409">
        <ele>8</ele>
        <time>2022-06-02T16:05:00Z</time>
      </trkpt>
      <trkpt lat="49.36745" lon="-1.20413">
        <ele>8</ele>
        <time>2022-06-02T16:05:01Z</time>
      </trkpt>
      <trkpt lat="49.36746" lon="-1.20414">
        <ele>8</ele>
        <time>2022-06-02T16:05:02Z</time>
      </trkpt>
      <trkpt lat="49.36746" lon="-1.20415">
        <ele>8</ele>
        <time>2022-06-02T16:05:03Z</time>
      </trkpt>
      <trkpt lat="49.36746" lon="-1.20417">
        <ele>8</ele>
        <time>2022-06-02T16:05:04Z</time>
      </trkpt>
      <trkpt lat="49.36747" lon="-1.20419">
        <ele>8.1</ele>
        <time>2022-06-02T16:05:05Z</time>
      </trkpt>
      <trkpt lat="49.36747" lon="-1.20421">
        <ele>8.1</ele>
        <time>2022-06-02T16:05:06Z</time>
      </trkpt>
      <trkpt lat="49.36747" lon="-1.20425">
        <ele>8.1</ele>
        <time>2022-06-02T16:05:07Z</time>
      </trkpt>
      <trkpt lat="49.36747" lon="-1.20427">
        <ele>8.1</ele>
        <time>2022-06-02T16:05:08Z</time>
      </trkpt>
      <trkpt lat="49.36748" lon="-1.20429">
        <ele>8.2</ele>
        <time>2022-06-02T16:05:09Z</time>
      </trkpt>
      <trkpt lat="49.36748" lon="-1.2043">
        <ele>8.2</ele>
        <time>2022-06-02T16:05:10Z</time>
      </trkpt>
      <trkpt lat="49.36748" lon="-1.20432">
        <ele>8.2</ele>
        <time>2022-06-02T16:05:11Z</time>
      </trkpt>
      <trkpt lat="49.36749" lon="-1.20435">
        <ele>8.2</ele>
        <time>2022-06-02T16:05:12Z</time>
      </trkpt>
      <trkpt lat="49.36749" lon="-1.20436">
        <ele>8.2</ele>
        <time>2022-06-02T16:05:14Z</time>
      </trkpt>
      <trkpt lat="49.36749" lon="-1.20437">
        <ele>8.2</ele>
        <time>2022-06-02T16:05:15Z</time>
      </trkpt>
      <trkpt lat="49.36749" lon="-1.20439">
        <ele>8.2</ele>
        <time>2022-06-02T16:05:16Z</time>
      </trkpt>
      <trkpt lat="49.3675" lon="-1.20443">
        <ele>8.2</ele>
        <time>2022-06-02T16:05:17Z</time>
      </trkpt>
      <trkpt lat="49.36751" lon="-1.20445">
        <ele>8.3</ele>
        <time>2022-06-02T16:05:18Z</time>
      </trkpt>
      <trkpt lat="49.36751" lon="-1.20448">
        <ele>8.3</ele>
        <time>2022-06-02T16:05:20Z</time>
      </trkpt>
      <trkpt lat="49.36751" lon="-1.2045">
        <ele>8.3</ele>
        <time>2022-06-02T16:05:21Z</time>
      </trkpt>
      <trkpt lat="49.36752" lon="-1.20453">
        <ele>8.3</ele>
        <time>2022-06-02T16:05:22Z</time>
      </trkpt>
      <trkpt lat="49.36752" lon="-1.20454">
        <ele>8.3</ele>
        <time>2022-06-02T16:05:23Z</time>
      </trkpt>
      <trkpt lat="49.36752" lon="-1.20456">
        <ele>8.3</ele>
        <time>2022-06-02T16:05:24Z</time>
      </trkpt>
      <trkpt lat="49.36752" lon="-1.20458">
        <ele>8.3</ele>
        <time>2022-06-02T16:05:26Z</time>
      </trkpt>
      <trkpt lat="49.36752" lon="-1.2046">
        <ele>8.3</ele>
        <time>2022-06-02T16:05:27Z</time>
      </trkpt>
      <trkpt lat="49.36753" lon="-1.20462">
        <ele>8.4</ele>
        <time>2022-06-02T16:05:28Z</time>
      </trkpt>
      <trkpt lat="49.36754" lon="-1.20463">
        <ele>8.4</ele>
        <time>2022-06-02T16:05:29Z</time>
      </trkpt>
      <trkpt lat="49.36754" lon="-1.20465">
        <ele>8.4</ele>
        <time>2022-06-02T16:05:30Z</time>
      </trkpt>
      <trkpt lat="49.36754" lon="-1.20467">
        <ele>8.4</ele>
        <time>2022-06-02T16:05:31Z</time>
      </trkpt>
      <trkpt lat="49.36754" lon="-1.2047">
        <ele>8.4</ele>
        <time>2022-06-02T16:05:32Z</time>
      </trkpt>
      <trkpt lat="49.36755" lon="-1.20471">
        <ele>8.4</ele>
        <time>2022-06-02T16:05:33Z</time>
      </trkpt>
      <trkpt lat="49.36755" lon="-1.20472">
        <ele>8.4</ele>
        <time>2022-06-02T16:05:34Z</time>
      </trkpt>
      <trkpt lat="49.36755" lon="-1.20474">
        <ele>8.5</ele>
        <time>2022-06-02T16:05:36Z</time>
      </trkpt>
      <trkpt lat="49.36755" lon="-1.20475">
        <ele>8.5</ele>
        <time>2022-06-02T16:05:37Z</time>
      </trkpt>
      <trkpt lat="49.36756" lon="-1.20477">
        <ele>8.5</ele>
        <time>2022-06-02T16:05:38Z</time>
      </trkpt>
      <trkpt lat="49.36756" lon="-1.20479">
        <ele>8.5</ele>
        <time>2022-06-02T16:05:39Z</time>
      </trkpt>
      <trkpt lat="49.36756" lon="-1.2048">
        <ele>8.5</ele>
        <time>2022-06-02T16:05:40Z</time>
      </trkpt>
      <trkpt lat="49.36757" lon="-1.20482">
        <ele>8.5</ele>
        <time>2022-06-02T16:05:41Z</time>
      </trkpt>
      <trkpt lat="49.36757" lon="-1.20484">
        <ele>8.5</ele>
        <time>2022-06-02T16:05:42Z</time>
      </trkpt>
      <trkpt lat="49.36757" lon="-1.20486">
        <ele>8.5</ele>
        <time>2022-06-02T16:05:43Z</time>
      </trkpt>
      <trkpt lat="49.36757" lon="-1.20487">
        <ele>8.6</ele>
        <time>2022-06-02T16:05:44Z</time>
      </trkpt>
      <trkpt lat="49.36758" lon="-1.20489">
        <ele>8.6</ele>
        <time>2022-06-02T16:05:46Z</time>
      </trkpt>
      <trkpt lat="49.36758" lon="-1.2049">
        <ele>8.6</ele>
        <time>2022-06-02T16:05:47Z</time>
      </trkpt>
      <trkpt lat="49.36758" lon="-1.20492">
        <ele>8.6</ele>
        <time>2022-06-02T16:05:48Z</time>
      </trkpt>
      <trkpt lat="49.36758" lon="-1.20494">
        <ele>8.6</ele>
        <time>2022-06-02T16:05:49Z</time>
      </trkpt>
      <trkpt lat="49.36758" lon="-1.20495">
        <ele>8.6</ele>
        <time>2022-06-02T16:05:50Z</time>
      </trkpt>
      <trkpt lat="49.36758" lon="-1.20497">
        <ele>8.7</ele>
        <time>2022-06-02T16:05:51Z</time>
      </trkpt>
      <trkpt lat="49.36758" lon="-1.205">
        <ele>8.7</ele>
        <time>2022-06-02T16:05:53Z</time>
      </trkpt>
      <trkpt lat="49.36759" lon="-1.20501">
        <ele>8.7</ele>
        <time>2022-06-02T16:05:54Z</time>
      </trkpt>
      <trkpt lat="49.36759" lon="-1.20502">
        <ele>8.7</ele>
        <time>2022-06-02T16:05:55Z</time>
      </trkpt>
      <trkpt lat="49.36759" lon="-1.20503">
        <ele>8.7</ele>
        <time>2022-06-02T16:05:56Z</time>
      </trkpt>
      <trkpt lat="49.3676" lon="-1.20505">
        <ele>8.7</ele>
        <time>2022-06-02T16:05:57Z</time>
      </trkpt>
      <trkpt lat="49.3676" lon="-1.20507">
        <ele>8.8</ele>
        <time>2022-06-02T16:05:59Z</time>
      </trkpt>
      <trkpt lat="49.3676" lon="-1.20508">
        <ele>8.8</ele>
        <time>2022-06-02T16:06:00Z</time>
      </trkpt>
      <trkpt lat="49.36761" lon="-1.20509">
        <ele>8.8</ele>
        <time>2022-06-02T16:06:01Z</time>
      </trkpt>
      <trkpt lat="49.36762" lon="-1.20513">
        <ele>8.8</ele>
        <time>2022-06-02T16:06:03Z</time>
      </trkpt>
      <trkpt lat="49.36762" lon="-1.20514">
        <ele>8.8</ele>
        <time>2022-06-02T16:06:04Z</time>
      </trkpt>
      <trkpt lat="49.36763" lon="-1.20516">
        <ele>8.9</ele>
        <time>2022-06-02T16:06:06Z</time>
      </trkpt>
      <trkpt lat="49.36763" lon="-1.20518">
        <ele>8.9</ele>
        <time>2022-06-02T16:06:07Z</time>
      </trkpt>
      <trkpt lat="49.36764" lon="-1.2052">
        <ele>8.9</ele>
        <time>2022-06-02T16:06:08Z</time>
      </trkpt>
      <trkpt lat="49.36764" lon="-1.20522">
        <ele>8.9</ele>
        <time>2022-06-02T16:06:09Z</time>
      </trkpt>
      <trkpt lat="49.36764" lon="-1.20524">
        <ele>8.9</ele>
        <time>2022-06-02T16:06:10Z</time>
      </trkpt>
      <trkpt lat="49.36765" lon="-1.20525">
        <ele>8.9</ele>
        <time>2022-06-02T16:06:12Z</time>
      </trkpt>
      <trkpt lat="49.36765" lon="-1.20528">
        <ele>9</ele>
        <time>2022-06-02T16:06:13Z</time>
      </trkpt>
      <trkpt lat="49.36766" lon="-1.20529">
        <ele>9</ele>
        <time>2022-06-02T16:06:14Z</time>
      </trkpt>
      <trkpt lat="49.36766" lon="-1.2053">
        <ele>9</ele>
        <time>2022-06-02T16:06:15Z</time>
      </trkpt>
      <trkpt lat="49.36767" lon="-1.20534">
        <ele>9</ele>
        <time>2022-06-02T16:06:16Z</time>
      </trkpt>
      <trkpt lat="49.36767" lon="-1.20535">
        <ele>9</ele>
        <time>2022-06-02T16:06:17Z</time>
      </trkpt>
      <trkpt lat="49.36768" lon="-1.20537">
        <ele>9</ele>
        <time>2022-06-02T16:06:18Z</time>
      </trkpt>
      <trkpt lat="49.36768" lon="-1.2054">
        <ele>9.1</ele>
        <time>2022-06-02T16:06:19Z</time>
      </trkpt>
      <trkpt lat="49.36768" lon="-1.20541">
        <ele>9.1</ele>
        <time>2022-06-02T16:06:20Z</time>
      </trkpt>
      <trkpt lat="49.36768" lon="-1.20542">
        <ele>9.1</ele>
        <time>2022-06-02T16:06:21Z</time>
      </trkpt>
      <trkpt lat="49.36769" lon="-1.20544">
        <ele>9.1</ele>
        <time>2022-06-02T16:06:22Z</time>
      </trkpt>
      <trkpt lat="49.36769" lon="-1.20547">
        <ele>9.1</ele>
        <time>2022-06-02T16:06:23Z</time>
      </trkpt>
      <trkpt lat="49.3677" lon="-1.2055">
        <ele>9.1</ele>
        <time>2022-06-02T16:06:24Z</time>
      </trkpt>
      <trkpt lat="49.3677" lon="-1.20551">
        <ele>9.1</ele>
        <time>2022-06-02T16:06:26Z</time>
      </trkpt>
      <trkpt lat="49.3677" lon="-1.20553">
        <ele>9.1</ele>
        <time>2022-06-02T16:06:27Z</time>
      </trkpt>
      <trkpt lat="49.3677" lon="-1.20555">
        <ele>9.1</ele>
        <time>2022-06-02T16:06:28Z</time>
      </trkpt>
      <trkpt lat="49.36771" lon="-1.20557">
        <ele>9.2</ele>
        <time>2022-06-02T16:06:29Z</time>
      </trkpt>
      <trkpt lat="49.36771" lon="-1.20559">
        <ele>9.2</ele>
        <time>2022-06-02T16:06:30Z</time>
      </trkpt>
      <trkpt lat="49.36771" lon="-1.20561">
        <ele>9.2</ele>
        <time>2022-06-02T16:06:31Z</time>
      </trkpt>
      <trkpt lat="49.36771" lon="-1.20564">
        <ele>9.2</ele>
        <time>2022-06-02T16:06:33Z</time>
      </trkpt>
      <trkpt lat="49.36771" lon="-1.20565">
        <ele>9.2</ele>
        <time>2022-06-02T16:06:34Z</time>
      </trkpt>
      <trkpt lat="49.3677" lon="-1.20566">
        <ele>9.2</ele>
        <time>2022-06-02T16:06:35Z</time>
      </trkpt>
      <trkpt lat="49.36769" lon="-1.20567">
        <ele>9.2</ele>
        <time>2022-06-02T16:06:36Z</time>
      </trkpt>
      <trkpt lat="49.3677" lon="-1.20569">
        <ele>9.2</ele>
        <time>2022-06-02T16:06:37Z</time>
      </trkpt>
      <trkpt lat="49.3677" lon="-1.20571">
        <ele>9.2</ele>
        <time>2022-06-02T16:06:38Z</time>
      </trkpt>
      <trkpt lat="49.3677" lon="-1.20573">
        <ele>9.2</ele>
        <time>2022-06-02T16:06:39Z</time>
      </trkpt>
      <trkpt lat="49.36771" lon="-1.20576">
        <ele>9.2</ele>
        <time>2022-06-02T16:06:40Z</time>
      </trkpt>
      <trkpt lat="49.36771" lon="-1.20577">
        <ele>9.2</ele>
        <time>2022-06-02T16:06:42Z</time>
      </trkpt>
      <trkpt lat="49.36772" lon="-1.20579">
        <ele>9.2</ele>
        <time>2022-06-02T16:06:43Z</time>
      </trkpt>
      <trkpt lat="49.36772" lon="-1.2058">
        <ele>9.2</ele>
        <time>2022-06-02T16:06:44Z</time>
      </trkpt>
      <trkpt lat="49.36773" lon="-1.20581">
        <ele>9.2</ele>
        <time>2022-06-02T16:06:45Z</time>
      </trkpt>
      <trkpt lat="49.36774" lon="-1.20582">
        <ele>9.2</ele>
        <time>2022-06-02T16:06:46Z</time>
      </trkpt>
      <trkpt lat="49.36775" lon="-1.20585">
        <ele>9.2</ele>
        <time>2022-06-02T16:06:47Z</time>
      </trkpt>
      <trkpt lat="49.36775" lon="-1.20586">
        <ele>9.2</ele>
        <time>2022-06-02T16:06:48Z</time>
      </trkpt>
      <trkpt lat="49.36776" lon="-1.20587">
        <ele>9.2</ele>
        <time>2022-06-02T16:06:49Z</time>
      </trkpt>
      <trkpt lat="49.36777" lon="-1.2059">
        <ele>9.2</ele>
        <time>2022-06-02T16:06:51Z</time>
      </trkpt>
      <trkpt lat="49.36777" lon="-1.20591">
        <ele>9.2</ele>
        <time>2022-06-02T16:06:52Z</time>
      </trkpt>
      <trkpt lat="49.36778" lon="-1.20592">
        <ele>9.2</ele>
        <time>2022-06-02T16:06:53Z</time>
      </trkpt>
      <trkpt lat="49.36778" lon="-1.20594">
        <ele>9.2</ele>
        <time>2022-06-02T16:06:54Z</time>
      </trkpt>
      <trkpt lat="49.36779" lon="-1.20595">
        <ele>9.2</ele>
        <time>2022-06-02T16:06:55Z</time>
      </trkpt>
      <trkpt lat="49.36779" lon="-1.20597">
        <ele>9.2</ele>
        <time>2022-06-02T16:06:56Z</time>
      </trkpt>
      <trkpt lat="49.3678" lon="-1.20598">
        <ele>9.2</ele>
        <time>2022-06-02T16:06:57Z</time>
      </trkpt>
      <trkpt lat="49.3678" lon="-1.206">
        <ele>9.2</ele>
        <time>2022-06-02T16:06:58Z</time>
      </trkpt>
      <trkpt lat="49.36781" lon="-1.20602">
        <ele>9.2</ele>
        <time>2022-06-02T16:06:59Z</time>
      </trkpt>
      <trkpt lat="49.36781" lon="-1.20605">
        <ele>9.2</ele>
        <time>2022-06-02T16:07:01Z</time>
      </trkpt>
      <trkpt lat="49.36782" lon="-1.20607">
        <ele>9.2</ele>
        <time>2022-06-02T16:07:02Z</time>
      </trkpt>
      <trkpt lat="49.36782" lon="-1.20609">
        <ele>9.2</ele>
        <time>2022-06-02T16:07:03Z</time>
      </trkpt>
      <trkpt lat="49.36782" lon="-1.2061">
        <ele>9.2</ele>
        <time>2022-06-02T16:07:05Z</time>
      </trkpt>
      <trkpt lat="49.36783" lon="-1.20612">
        <ele>9.2</ele>
        <time>2022-06-02T16:07:06Z</time>
      </trkpt>
      <trkpt lat="49.36783" lon="-1.20614">
        <ele>9.2</ele>
        <time>2022-06-02T16:07:07Z</time>
      </trkpt>
      <trkpt lat="49.36784" lon="-1.20617">
        <ele>9.1</ele>
        <time>2022-06-02T16:07:08Z</time>
      </trkpt>
      <trkpt lat="49.36785" lon="-1.20618">
        <ele>9.1</ele>
        <time>2022-06-02T16:07:09Z</time>
      </trkpt>
      <trkpt lat="49.36786" lon="-1.2062">
        <ele>9.1</ele>
        <time>2022-06-02T16:07:10Z</time>
      </trkpt>
      <trkpt lat="49.36787" lon="-1.20621">
        <ele>9.1</ele>
        <time>2022-06-02T16:07:11Z</time>
      </trkpt>
      <trkpt lat="49.36788" lon="-1.20622">
        <ele>9.1</ele>
        <time>2022-06-02T16:07:13Z</time>
      </trkpt>
      <trkpt lat="49.36789" lon="-1.20624">
        <ele>9.1</ele>
        <time>2022-06-02T16:07:14Z</time>
      </trkpt>
      <trkpt lat="49.36791" lon="-1.20626">
        <ele>9.1</ele>
        <time>2022-06-02T16:07:15Z</time>
      </trkpt>
      <trkpt lat="49.36791" lon="-1.20627">
        <ele>9.1</ele>
        <time>2022-06-02T16:07:16Z</time>
      </trkpt>
      <trkpt lat="49.36792" lon="-1.20628">
        <ele>9</ele>
        <time>2022-06-02T16:07:17Z</time>
      </trkpt>
      <trkpt lat="49.36794" lon="-1.20631">
        <ele>9</ele>
        <time>2022-06-02T16:07:18Z</time>
      </trkpt>
      <trkpt lat="49.36795" lon="-1.20631">
        <ele>9</ele>
        <time>2022-06-02T16:07:20Z</time>
      </trkpt>
      <trkpt lat="49.36796" lon="-1.20632">
        <ele>9</ele>
        <time>2022-06-02T16:07:21Z</time>
      </trkpt>
      <trkpt lat="49.36797" lon="-1.20632">
        <ele>8.9</ele>
        <time>2022-06-02T16:07:22Z</time>
      </trkpt>
      <trkpt lat="49.36798" lon="-1.20633">
        <ele>8.9</ele>
        <time>2022-06-02T16:07:23Z</time>
      </trkpt>
      <trkpt lat="49.36799" lon="-1.20633">
        <ele>8.9</ele>
        <time>2022-06-02T16:07:24Z</time>
      </trkpt>
      <trkpt lat="49.368" lon="-1.20633">
        <ele>8.9</ele>
        <time>2022-06-02T16:07:25Z</time>
      </trkpt>
      <trkpt lat="49.36802" lon="-1.20633">
        <ele>8.8</ele>
        <time>2022-06-02T16:07:26Z</time>
      </trkpt>
      <trkpt lat="49.36803" lon="-1.20632">
        <ele>8.8</ele>
        <time>2022-06-02T16:07:27Z</time>
      </trkpt>
      <trkpt lat="49.36805" lon="-1.20632">
        <ele>8.8</ele>
        <time>2022-06-02T16:07:28Z</time>
      </trkpt>
      <trkpt lat="49.36805" lon="-1.20631">
        <ele>8.7</ele>
        <time>2022-06-02T16:07:29Z</time>
      </trkpt>
      <trkpt lat="49.36807" lon="-1.2063">
        <ele>8.7</ele>
        <time>2022-06-02T16:07:30Z</time>
      </trkpt>
      <trkpt lat="49.36807" lon="-1.2063">
        <ele>8.7</ele>
        <time>2022-06-02T16:07:31Z</time>
      </trkpt>
      <trkpt lat="49.36808" lon="-1.20629">
        <ele>8.7</ele>
        <time>2022-06-02T16:07:33Z</time>
      </trkpt>
      <trkpt lat="49.3681" lon="-1.20629">
        <ele>8.6</ele>
        <time>2022-06-02T16:07:34Z</time>
      </trkpt>
      <trkpt lat="49.36811" lon="-1.20628">
        <ele>8.6</ele>
        <time>2022-06-02T16:07:35Z</time>
      </trkpt>
      <trkpt lat="49.36812" lon="-1.20628">
        <ele>8.6</ele>
        <time>2022-06-02T16:07:36Z</time>
      </trkpt>
      <trkpt lat="49.36813" lon="-1.20628">
        <ele>8.6</ele>
        <time>2022-06-02T16:07:37Z</time>
      </trkpt>
      <trkpt lat="49.36815" lon="-1.20627">
        <ele>8.5</ele>
        <time>2022-06-02T16:07:38Z</time>
      </trkpt>
      <trkpt lat="49.36816" lon="-1.20627">
        <ele>8.5</ele>
        <time>2022-06-02T16:07:40Z</time>
      </trkpt>
      <trkpt lat="49.36817" lon="-1.20627">
        <ele>8.5</ele>
        <time>2022-06-02T16:07:41Z</time>
      </trkpt>
      <trkpt lat="49.36819" lon="-1.20627">
        <ele>8.5</ele>
        <time>2022-06-02T16:07:42Z</time>
      </trkpt>
      <trkpt lat="49.3682" lon="-1.20628">
        <ele>8.5</ele>
        <time>2022-06-02T16:07:43Z</time>
      </trkpt>
      <trkpt lat="49.36822" lon="-1.20629">
        <ele>8.4</ele>
        <time>2022-06-02T16:07:44Z</time>
      </trkpt>
      <trkpt lat="49.36822" lon="-1.2063">
        <ele>8.4</ele>
        <time>2022-06-02T16:07:45Z</time>
      </trkpt>
      <trkpt lat="49.36823" lon="-1.2063">
        <ele>8.4</ele>
        <time>2022-06-02T16:07:46Z</time>
      </trkpt>
      <trkpt lat="49.36824" lon="-1.20631">
        <ele>8.4</ele>
        <time>2022-06-02T16:07:48Z</time>
      </trkpt>
      <trkpt lat="49.36825" lon="-1.20634">
        <ele>8.3</ele>
        <time>2022-06-02T16:07:49Z</time>
      </trkpt>
      <trkpt lat="49.36825" lon="-1.20635">
        <ele>8.3</ele>
        <time>2022-06-02T16:07:51Z</time>
      </trkpt>
      <trkpt lat="49.36826" lon="-1.20637">
        <ele>8.3</ele>
        <time>2022-06-02T16:07:52Z</time>
      </trkpt>
      <trkpt lat="49.36826" lon="-1.20639">
        <ele>8.3</ele>
        <time>2022-06-02T16:07:53Z</time>
      </trkpt>
      <trkpt lat="49.36827" lon="-1.20641">
        <ele>8.2</ele>
        <time>2022-06-02T16:07:54Z</time>
      </trkpt>
      <trkpt lat="49.36828" lon="-1.20642">
        <ele>8.2</ele>
        <time>2022-06-02T16:07:55Z</time>
      </trkpt>
      <trkpt lat="49.36829" lon="-1.20645">
        <ele>8.1</ele>
        <time>2022-06-02T16:07:57Z</time>
      </trkpt>
      <trkpt lat="49.3683" lon="-1.20646">
        <ele>8.1</ele>
        <time>2022-06-02T16:07:58Z</time>
      </trkpt>
      <trkpt lat="49.36831" lon="-1.20647">
        <ele>8.1</ele>
        <time>2022-06-02T16:07:59Z</time>
      </trkpt>
      <trkpt lat="49.36831" lon="-1.20648">
        <ele>8</ele>
        <time>2022-06-02T16:08:00Z</time>
      </trkpt>
      <trkpt lat="49.36832" lon="-1.20649">
        <ele>8</ele>
        <time>2022-06-02T16:08:01Z</time>
      </trkpt>
      <trkpt lat="49.36833" lon="-1.2065">
        <ele>8</ele>
        <time>2022-06-02T16:08:02Z</time>
      </trkpt>
      <trkpt lat="49.36833" lon="-1.20652">
        <ele>7.9</ele>
        <time>2022-06-02T16:08:03Z</time>
      </trkpt>
      <trkpt lat="49.36834" lon="-1.20653">
        <ele>7.9</ele>
        <time>2022-06-02T16:08:04Z</time>
      </trkpt>
      <trkpt lat="49.36835" lon="-1.20654">
        <ele>7.8</ele>
        <time>2022-06-02T16:08:05Z</time>
      </trkpt>
      <trkpt lat="49.36835" lon="-1.20655">
        <ele>7.8</ele>
        <time>2022-06-02T16:08:06Z</time>
      </trkpt>
      <trkpt lat="49.36835" lon="-1.20656">
        <ele>7.8</ele>
        <time>2022-06-02T16:08:07Z</time>
      </trkpt>
      <trkpt lat="49.36836" lon="-1.20658">
        <ele>7.7</ele>
        <time>2022-06-02T16:08:08Z</time>
      </trkpt>
      <trkpt lat="49.36837" lon="-1.20659">
        <ele>7.7</ele>
        <time>2022-06-02T16:08:09Z</time>
      </trkpt>
      <trkpt lat="49.36837" lon="-1.2066">
        <ele>7.6</ele>
        <time>2022-06-02T16:08:10Z</time>
      </trkpt>
      <trkpt lat="49.36838" lon="-1.20662">
        <ele>7.6</ele>
        <time>2022-06-02T16:08:11Z</time>
      </trkpt>
      <trkpt lat="49.36839" lon="-1.20665">
        <ele>7.5</ele>
        <time>2022-06-02T16:08:12Z</time>
      </trkpt>
      <trkpt lat="49.3684" lon="-1.20666">
        <ele>7.5</ele>
        <time>2022-06-02T16:08:14Z</time>
      </trkpt>
      <trkpt lat="49.3684" lon="-1.20668">
        <ele>7.4</ele>
        <time>2022-06-02T16:08:15Z</time>
      </trkpt>
      <trkpt lat="49.36841" lon="-1.20669">
        <ele>7.4</ele>
        <time>2022-06-02T16:08:16Z</time>
      </trkpt>
      <trkpt lat="49.36842" lon="-1.20671">
        <ele>7.3</ele>
        <time>2022-06-02T16:08:17Z</time>
      </trkpt>
      <trkpt lat="49.36843" lon="-1.20674">
        <ele>7.2</ele>
        <time>2022-06-02T16:08:19Z</time>
      </trkpt>
      <trkpt lat="49.36843" lon="-1.20675">
        <ele>7.2</ele>
        <time>2022-06-02T16:08:20Z</time>
      </trkpt>
      <trkpt lat="49.36844" lon="-1.20678">
        <ele>7.1</ele>
        <time>2022-06-02T16:08:21Z</time>
      </trkpt>
      <trkpt lat="49.36845" lon="-1.20679">
        <ele>7.1</ele>
        <time>2022-06-02T16:08:22Z</time>
      </trkpt>
      <trkpt lat="49.36845" lon="-1.2068">
        <ele>7</ele>
        <time>2022-06-02T16:08:23Z</time>
      </trkpt>
      <trkpt lat="49.36846" lon="-1.20683">
        <ele>6.9</ele>
        <time>2022-06-02T16:08:24Z</time>
      </trkpt>
      <trkpt lat="49.36847" lon="-1.20684">
        <ele>6.9</ele>
        <time>2022-06-02T16:08:25Z</time>
      </trkpt>
      <trkpt lat="49.36847" lon="-1.20685">
        <ele>6.9</ele>
        <time>2022-06-02T16:08:26Z</time>
      </trkpt>
      <trkpt lat="49.36848" lon="-1.20687">
        <ele>6.8</ele>
        <time>2022-06-02T16:08:27Z</time>
      </trkpt>
      <trkpt lat="49.36849" lon="-1.2069">
        <ele>6.8</ele>
        <time>2022-06-02T16:08:28Z</time>
      </trkpt>
      <trkpt lat="49.3685" lon="-1.20693">
        <ele>6.7</ele>
        <time>2022-06-02T16:08:30Z</time>
      </trkpt>
      <trkpt lat="49.3685" lon="-1.20694">
        <ele>6.7</ele>
        <time>2022-06-02T16:08:31Z</time>
      </trkpt>
      <trkpt lat="49.36851" lon="-1.20695">
        <ele>6.6</ele>
        <time>2022-06-02T16:08:32Z</time>
      </trkpt>
      <trkpt lat="49.36852" lon="-1.20698">
        <ele>6.6</ele>
        <time>2022-06-02T16:08:34Z</time>
      </trkpt>
      <trkpt lat="49.36852" lon="-1.20699">
        <ele>6.6</ele>
        <time>2022-06-02T16:08:35Z</time>
      </trkpt>
      <trkpt lat="49.36854" lon="-1.20702">
        <ele>6.5</ele>
        <time>2022-06-02T16:08:36Z</time>
      </trkpt>
      <trkpt lat="49.36854" lon="-1.20703">
        <ele>6.5</ele>
        <time>2022-06-02T16:08:37Z</time>
      </trkpt>
      <trkpt lat="49.36855" lon="-1.20704">
        <ele>6.5</ele>
        <time>2022-06-02T16:08:38Z</time>
      </trkpt>
      <trkpt lat="49.36856" lon="-1.20707">
        <ele>6.5</ele>
        <time>2022-06-02T16:08:39Z</time>
      </trkpt>
      <trkpt lat="49.36856" lon="-1.20708">
        <ele>6.5</ele>
        <time>2022-06-02T16:08:40Z</time>
      </trkpt>
      <trkpt lat="49.36857" lon="-1.2071">
        <ele>6.5</ele>
        <time>2022-06-02T16:08:41Z</time>
      </trkpt>
      <trkpt lat="49.36858" lon="-1.20713">
        <ele>6.4</ele>
        <time>2022-06-02T16:08:42Z</time>
      </trkpt>
      <trkpt lat="49.36858" lon="-1.20715">
        <ele>6.4</ele>
        <time>2022-06-02T16:08:44Z</time>
      </trkpt>
      <trkpt lat="49.36859" lon="-1.20716">
        <ele>6.4</ele>
        <time>2022-06-02T16:08:45Z</time>
      </trkpt>
      <trkpt lat="49.36859" lon="-1.20718">
        <ele>6.4</ele>
        <time>2022-06-02T16:08:46Z</time>
      </trkpt>
      <trkpt lat="49.3686" lon="-1.2072">
        <ele>6.5</ele>
        <time>2022-06-02T16:08:47Z</time>
      </trkpt>
      <trkpt lat="49.36861" lon="-1.20723">
        <ele>6.5</ele>
        <time>2022-06-02T16:08:48Z</time>
      </trkpt>
      <trkpt lat="49.36861" lon="-1.20724">
        <ele>6.5</ele>
        <time>2022-06-02T16:08:49Z</time>
      </trkpt>
      <trkpt lat="49.36862" lon="-1.20725">
        <ele>6.5</ele>
        <time>2022-06-02T16:08:50Z</time>
      </trkpt>
      <trkpt lat="49.36862" lon="-1.20727">
        <ele>6.5</ele>
        <time>2022-06-02T16:08:51Z</time>
      </trkpt>
      <trkpt lat="49.36863" lon="-1.20728">
        <ele>6.5</ele>
        <time>2022-06-02T16:08:52Z</time>
      </trkpt>
      <trkpt lat="49.36863" lon="-1.2073">
        <ele>6.5</ele>
        <time>2022-06-02T16:08:54Z</time>
      </trkpt>
      <trkpt lat="49.36864" lon="-1.20732">
        <ele>6.5</ele>
        <time>2022-06-02T16:08:55Z</time>
      </trkpt>
      <trkpt lat="49.36864" lon="-1.20734">
        <ele>6.5</ele>
        <time>2022-06-02T16:08:56Z</time>
      </trkpt>
      <trkpt lat="49.36865" lon="-1.20737">
        <ele>6.6</ele>
        <time>2022-06-02T16:08:57Z</time>
      </trkpt>
      <trkpt lat="49.36865" lon="-1.20738">
        <ele>6.6</ele>
        <time>2022-06-02T16:08:58Z</time>
      </trkpt>
      <trkpt lat="49.36865" lon="-1.2074">
        <ele>6.6</ele>
        <time>2022-06-02T16:08:59Z</time>
      </trkpt>
      <trkpt lat="49.36866" lon="-1.20741">
        <ele>6.6</ele>
        <time>2022-06-02T16:09:01Z</time>
      </trkpt>
      <trkpt lat="49.36866" lon="-1.20743">
        <ele>6.6</ele>
        <time>2022-06-02T16:09:02Z</time>
      </trkpt>
      <trkpt lat="49.36867" lon="-1.20744">
        <ele>6.6</ele>
        <time>2022-06-02T16:09:03Z</time>
      </trkpt>
      <trkpt lat="49.36868" lon="-1.20747">
        <ele>6.7</ele>
        <time>2022-06-02T16:09:04Z</time>
      </trkpt>
      <trkpt lat="49.36868" lon="-1.20748">
        <ele>6.7</ele>
        <time>2022-06-02T16:09:05Z</time>
      </trkpt>
      <trkpt lat="49.36869" lon="-1.2075">
        <ele>6.7</ele>
        <time>2022-06-02T16:09:06Z</time>
      </trkpt>
      <trkpt lat="49.3687" lon="-1.20751">
        <ele>6.7</ele>
        <time>2022-06-02T16:09:07Z</time>
      </trkpt>
      <trkpt lat="49.3687" lon="-1.20753">
        <ele>6.7</ele>
        <time>2022-06-02T16:09:08Z</time>
      </trkpt>
      <trkpt lat="49.36871" lon="-1.20755">
        <ele>6.8</ele>
        <time>2022-06-02T16:09:09Z</time>
      </trkpt>
      <trkpt lat="49.36871" lon="-1.20756">
        <ele>6.8</ele>
        <time>2022-06-02T16:09:11Z</time>
      </trkpt>
      <trkpt lat="49.36872" lon="-1.20757">
        <ele>6.8</ele>
        <time>2022-06-02T16:09:12Z</time>
      </trkpt>
      <trkpt lat="49.36873" lon="-1.20758">
        <ele>6.9</ele>
        <time>2022-06-02T16:09:13Z</time>
      </trkpt>
      <trkpt lat="49.36874" lon="-1.20757">
        <ele>6.9</ele>
        <time>2022-06-02T16:09:15Z</time>
      </trkpt>
      <trkpt lat="49.36875" lon="-1.20757">
        <ele>6.9</ele>
        <time>2022-06-02T16:09:16Z</time>
      </trkpt>
      <trkpt lat="49.36875" lon="-1.20756">
        <ele>6.9</ele>
        <time>2022-06-02T16:09:17Z</time>
      </trkpt>
      <trkpt lat="49.36875" lon="-1.20756">
        <ele>6.9</ele>
        <time>2022-06-02T16:09:18Z</time>
      </trkpt>
      <trkpt lat="49.36875" lon="-1.20756">
        <ele>6.9</ele>
        <time>2022-06-02T16:09:19Z</time>
      </trkpt>
      <trkpt lat="49.36875" lon="-1.20755">
        <ele>6.9</ele>
        <time>2022-06-02T16:09:20Z</time>
      </trkpt>
      <trkpt lat="49.36875" lon="-1.20755">
        <ele>6.9</ele>
        <time>2022-06-02T16:09:21Z</time>
      </trkpt>
      <trkpt lat="49.36875" lon="-1.20755">
        <ele>6.9</ele>
        <time>2022-06-02T16:09:22Z</time>
      </trkpt>
      <trkpt lat="49.36874" lon="-1.20755">
        <ele>6.9</ele>
        <time>2022-06-02T16:09:23Z</time>
      </trkpt>
      <trkpt lat="49.36875" lon="-1.20755">
        <ele>6.9</ele>
        <time>2022-06-02T16:09:25Z</time>
      </trkpt>
      <trkpt lat="49.36875" lon="-1.20755">
        <ele>6.9</ele>
        <time>2022-06-02T16:09:26Z</time>
      </trkpt>
      <trkpt lat="49.36875" lon="-1.20755">
        <ele>6.9</ele>
        <time>2022-06-02T16:09:27Z</time>
      </trkpt>
      <trkpt lat="49.36875" lon="-1.20755">
        <ele>6.9</ele>
        <time>2022-06-02T16:09:28Z</time>
      </trkpt>
      <trkpt lat="49.36875" lon="-1.20755">
        <ele>6.9</ele>
        <time>2022-06-02T16:09:29Z</time>
      </trkpt>
      <trkpt lat="49.36875" lon="-1.20755">
        <ele>6.9</ele>
        <time>2022-06-02T16:09:30Z</time>
      </trkpt>
      <trkpt lat="49.36874" lon="-1.20755">
        <ele>6.9</ele>
        <time>2022-06-02T16:09:31Z</time>
      </trkpt>
      <trkpt lat="49.36874" lon="-1.20755">
        <ele>6.9</ele>
        <time>2022-06-02T16:09:33Z</time>
      </trkpt>
      <trkpt lat="49.36874" lon="-1.20755">
        <ele>6.9</ele>
        <time>2022-06-02T16:09:34Z</time>
      </trkpt>
      <trkpt lat="49.36874" lon="-1.20755">
        <ele>6.9</ele>
        <time>2022-06-02T16:09:35Z</time>
      </trkpt>
      <trkpt lat="49.36874" lon="-1.20754">
        <ele>6.9</ele>
        <time>2022-06-02T16:09:36Z</time>
      </trkpt>
      <trkpt lat="49.36874" lon="-1.20754">
        <ele>6.9</ele>
        <time>2022-06-02T16:09:37Z</time>
      </trkpt>
      <trkpt lat="49.36874" lon="-1.20754">
        <ele>6.9</ele>
        <time>2022-06-02T16:09:38Z</time>
      </trkpt>
      <trkpt lat="49.36874" lon="-1.20753">
        <ele>6.9</ele>
        <time>2022-06-02T16:09:40Z</time>
      </trkpt>
      <trkpt lat="49.36875" lon="-1.20753">
        <ele>6.9</ele>
        <time>2022-06-02T16:09:41Z</time>
      </trkpt>
      <trkpt lat="49.36875" lon="-1.20753">
        <ele>6.9</ele>
        <time>2022-06-02T16:09:42Z</time>
      </trkpt>
      <trkpt lat="49.36875" lon="-1.20753">
        <ele>6.9</ele>
        <time>2022-06-02T16:09:43Z</time>
      </trkpt>
      <trkpt lat="49.36875" lon="-1.20753">
        <ele>6.9</ele>
        <time>2022-06-02T16:09:44Z</time>
      </trkpt>
      <trkpt lat="49.36875" lon="-1.20754">
        <ele>6.9</ele>
        <time>2022-06-02T16:09:45Z</time>
      </trkpt>
      <trkpt lat="49.36874" lon="-1.20754">
        <ele>6.9</ele>
        <time>2022-06-02T16:09:46Z</time>
      </trkpt>
      <trkpt lat="49.36874" lon="-1.20754">
        <ele>6.9</ele>
        <time>2022-06-02T16:09:47Z</time>
      </trkpt>
      <trkpt lat="49.36874" lon="-1.20755">
        <ele>6.9</ele>
        <time>2022-06-02T16:09:48Z</time>
      </trkpt>
      <trkpt lat="49.36874" lon="-1.20755">
        <ele>6.9</ele>
        <time>2022-06-02T16:09:49Z</time>
      </trkpt>
      <trkpt lat="49.36874" lon="-1.20755">
        <ele>6.9</ele>
        <time>2022-06-02T16:09:50Z</time>
      </trkpt>
      <trkpt lat="49.36874" lon="-1.20755">
        <ele>6.9</ele>
        <time>2022-06-02T16:09:51Z</time>
      </trkpt>
      <trkpt lat="49.36874" lon="-1.20755">
        <ele>6.9</ele>
        <time>2022-06-02T16:09:52Z</time>
      </trkpt>
      <trkpt lat="49.36874" lon="-1.20755">
        <ele>6.9</ele>
        <time>2022-06-02T16:09:53Z</time>
      </trkpt>
      <trkpt lat="49.36874" lon="-1.20755">
        <ele>6.9</ele>
        <time>2022-06-02T16:09:54Z</time>
      </trkpt>
      <trkpt lat="49.36874" lon="-1.20755">
        <ele>6.9</ele>
        <time>2022-06-02T16:09:55Z</time>
      </trkpt>
      <trkpt lat="49.36874" lon="-1.20755">
        <ele>6.9</ele>
        <time>2022-06-02T16:09:56Z</time>
      </trkpt>
      <trkpt lat="49.36874" lon="-1.20755">
        <ele>6.9</ele>
        <time>2022-06-02T16:09:57Z</time>
      </trkpt>
      <trkpt lat="49.36874" lon="-1.20755">
        <ele>6.9</ele>
        <time>2022-06-02T16:09:58Z</time>
      </trkpt>
      <trkpt lat="49.36874" lon="-1.20755">
        <ele>6.9</ele>
        <time>2022-06-02T16:09:59Z</time>
      </trkpt>
      <trkpt lat="49.36874" lon="-1.20755">
        <ele>6.9</ele>
        <time>2022-06-02T16:10:00Z</time>
      </trkpt>
      <trkpt lat="49.36874" lon="-1.20755">
        <ele>6.9</ele>
        <time>2022-06-02T16:10:01Z</time>
      </trkpt>
      <trkpt lat="49.36874" lon="-1.20755">
        <ele>6.9</ele>
        <time>2022-06-02T16:10:02Z</time>
      </trkpt>
      <trkpt lat="49.36874" lon="-1.20755">
        <ele>6.9</ele>
        <time>2022-06-02T16:10:03Z</time>
      </trkpt>
      <trkpt lat="49.36874" lon="-1.20755">
        <ele>6.9</ele>
        <time>2022-06-02T16:10:04Z</time>
      </trkpt>
      <trkpt lat="49.36874" lon="-1.20755">
        <ele>6.9</ele>
        <time>2022-06-02T16:10:05Z</time>
      </trkpt>
      <trkpt lat="49.36874" lon="-1.20755">
        <ele>6.9</ele>
        <time>2022-06-02T16:10:06Z</time>
      </trkpt>
      <trkpt lat="49.36874" lon="-1.20755">
        <ele>6.9</ele>
        <time>2022-06-02T16:10:07Z</time>
      </trkpt>
      <trkpt lat="49.36874" lon="-1.20755">
        <ele>6.9</ele>
        <time>2022-06-02T16:10:08Z</time>
      </trkpt>
      <trkpt lat="49.36874" lon="-1.20755">
        <ele>6.9</ele>
        <time>2022-06-02T16:10:09Z</time>
      </trkpt>
      <trkpt lat="49.36874" lon="-1.20755">
        <ele>6.9</ele>
        <time>2022-06-02T16:10:10Z</time>
      </trkpt>
      <trkpt lat="49.36874" lon="-1.20755">
        <ele>6.9</ele>
        <time>2022-06-02T16:10:11Z</time>
      </trkpt>
      <trkpt lat="49.36874" lon="-1.20755">
        <ele>6.9</ele>
        <time>2022-06-02T16:10:12Z</time>
      </trkpt>
      <trkpt lat="49.36874" lon="-1.20755">
        <ele>6.9</ele>
        <time>2022-06-02T16:10:13Z</time>
      </trkpt>
      <trkpt lat="49.36874" lon="-1.20755">
        <ele>6.9</ele>
        <time>2022-06-02T16:10:14Z</time>
      </trkpt>
      <trkpt lat="49.36874" lon="-1.20755">
        <ele>6.9</ele>
        <time>2022-06-02T16:10:15Z</time>
      </trkpt>
      <trkpt lat="49.36874" lon="-1.20755">
        <ele>6.9</ele>
        <time>2022-06-02T16:10:16Z</time>
      </trkpt>
      <trkpt lat="49.36874" lon="-1.20755">
        <ele>6.9</ele>
        <time>2022-06-02T16:10:17Z</time>
      </trkpt>
      <trkpt lat="49.36874" lon="-1.20755">
        <ele>6.9</ele>
        <time>2022-06-02T16:10:18Z</time>
      </trkpt>
      <trkpt lat="49.36874" lon="-1.20755">
        <ele>6.9</ele>
        <time>2022-06-02T16:10:19Z</time>
      </trkpt>
      <trkpt lat="49.36874" lon="-1.20755">
        <ele>6.9</ele>
        <time>2022-06-02T16:10:20Z</time>
      </trkpt>
      <trkpt lat="49.36874" lon="-1.20755">
        <ele>6.9</ele>
        <time>2022-06-02T16:10:21Z</time>
      </trkpt>
      <trkpt lat="49.36874" lon="-1.20755">
        <ele>6.9</ele>
        <time>2022-06-02T16:10:22Z</time>
      </trkpt>
      <trkpt lat="49.36874" lon="-1.20755">
        <ele>6.9</ele>
        <time>2022-06-02T16:10:23Z</time>
      </trkpt>
      <trkpt lat="49.36874" lon="-1.20755">
        <ele>6.9</ele>
        <time>2022-06-02T16:10:24Z</time>
      </trkpt>
      <trkpt lat="49.36874" lon="-1.20755">
        <ele>6.9</ele>
        <time>2022-06-02T16:10:25Z</time>
      </trkpt>
      <trkpt lat="49.36874" lon="-1.20755">
        <ele>6.9</ele>
        <time>2022-06-02T16:10:26Z</time>
      </trkpt>
      <trkpt lat="49.36874" lon="-1.20755">
        <ele>6.9</ele>
        <time>2022-06-02T16:10:27Z</time>
      </trkpt>
      <trkpt lat="49.36874" lon="-1.20755">
        <ele>6.9</ele>
        <time>2022-06-02T16:10:28Z</time>
      </trkpt>
      <trkpt lat="49.36874" lon="-1.20755">
        <ele>6.9</ele>
        <time>2022-06-02T16:10:29Z</time>
      </trkpt>
      <trkpt lat="49.36874" lon="-1.20755">
        <ele>6.9</ele>
        <time>2022-06-02T16:10:30Z</time>
      </trkpt>
      <trkpt lat="49.36874" lon="-1.20755">
        <ele>6.9</ele>
        <time>2022-06-02T16:10:31Z</time>
      </trkpt>
      <trkpt lat="49.36874" lon="-1.20755">
        <ele>6.9</ele>
        <time>2022-06-02T16:10:32Z</time>
      </trkpt>
      <trkpt lat="49.36874" lon="-1.20755">
        <ele>6.9</ele>
        <time>2022-06-02T16:10:33Z</time>
      </trkpt>
      <trkpt lat="49.36874" lon="-1.20755">
        <ele>6.9</ele>
        <time>2022-06-02T16:10:34Z</time>
      </trkpt>
      <trkpt lat="49.36874" lon="-1.20755">
        <ele>6.9</ele>
        <time>2022-06-02T16:10:35Z</time>
      </trkpt>
      <trkpt lat="49.36874" lon="-1.20755">
        <ele>6.9</ele>
        <time>2022-06-02T16:10:36Z</time>
      </trkpt>
      <trkpt lat="49.36874" lon="-1.20755">
        <ele>6.9</ele>
        <time>2022-06-02T16:10:37Z</time>
      </trkpt>
      <trkpt lat="49.36874" lon="-1.20755">
        <ele>6.9</ele>
        <time>2022-06-02T16:10:38Z</time>
      </trkpt>
      <trkpt lat="49.36874" lon="-1.20755">
        <ele>6.9</ele>
        <time>2022-06-02T16:10:39Z</time>
      </trkpt>
      <trkpt lat="49.36874" lon="-1.20755">
        <ele>6.9</ele>
        <time>2022-06-02T16:10:40Z</time>
      </trkpt>
      <trkpt lat="49.36874" lon="-1.20755">
        <ele>6.9</ele>
        <time>2022-06-02T16:10:41Z</time>
      </trkpt>
      <trkpt lat="49.36874" lon="-1.20755">
        <ele>6.9</ele>
        <time>2022-06-02T16:10:42Z</time>
      </trkpt>
      <trkpt lat="49.36874" lon="-1.20755">
        <ele>6.9</ele>
        <time>2022-06-02T16:10:43Z</time>
      </trkpt>
      <trkpt lat="49.36874" lon="-1.20755">
        <ele>6.9</ele>
        <time>2022-06-02T16:10:44Z</time>
      </trkpt>
      <trkpt lat="49.36874" lon="-1.20755">
        <ele>6.9</ele>
        <time>2022-06-02T16:10:45Z</time>
      </trkpt>
      <trkpt lat="49.36874" lon="-1.20755">
        <ele>6.9</ele>
        <time>2022-06-02T16:10:46Z</time>
      </trkpt>
      <trkpt lat="49.36874" lon="-1.20755">
        <ele>6.9</ele>
        <time>2022-06-02T16:10:47Z</time>
      </trkpt>
      <trkpt lat="49.36874" lon="-1.20755">
        <ele>6.9</ele>
        <time>2022-06-02T16:10:48Z</time>
      </trkpt>
      <trkpt lat="49.36874" lon="-1.20755">
        <ele>6.9</ele>
        <time>2022-06-02T16:10:49Z</time>
      </trkpt>
      <trkpt lat="49.36874" lon="-1.20755">
        <ele>6.9</ele>
        <time>2022-06-02T16:10:50Z</time>
      </trkpt>
      <trkpt lat="49.36874" lon="-1.20755">
        <ele>6.9</ele>
        <time>2022-06-02T16:10:51Z</time>
      </trkpt>
      <trkpt lat="49.36874" lon="-1.20755">
        <ele>6.9</ele>
        <time>2022-06-02T16:10:52Z</time>
      </trkpt>
      <trkpt lat="49.36874" lon="-1.20755">
        <ele>6.9</ele>
        <time>2022-06-02T16:10:53Z</time>
      </trkpt>
      <trkpt lat="49.36874" lon="-1.20755">
        <ele>6.9</ele>
        <time>2022-06-02T16:10:54Z</time>
      </trkpt>
      <trkpt lat="49.36874" lon="-1.20755">
        <ele>6.9</ele>
        <time>2022-06-02T16:10:55Z</time>
      </trkpt>
      <trkpt lat="49.36874" lon="-1.20755">
        <ele>6.9</ele>
        <time>2022-06-02T16:10:56Z</time>
      </trkpt>
      <trkpt lat="49.36874" lon="-1.20755">
        <ele>6.9</ele>
        <time>2022-06-02T16:10:57Z</time>
      </trkpt>
      <trkpt lat="49.36874" lon="-1.20755">
        <ele>6.9</ele>
        <time>2022-06-02T16:10:58Z</time>
      </trkpt>
      <trkpt lat="49.36874" lon="-1.20755">
        <ele>6.9</ele>
        <time>2022-06-02T16:10:59Z</time>
      </trkpt>
      <trkpt lat="49.36874" lon="-1.20755">
        <ele>6.9</ele>
        <time>2022-06-02T16:11:00Z</time>
      </trkpt>
      <trkpt lat="49.36874" lon="-1.20755">
        <ele>6.9</ele>
        <time>2022-06-02T16:11:01Z</time>
      </trkpt>
      <trkpt lat="49.36874" lon="-1.20755">
        <ele>6.9</ele>
        <time>2022-06-02T16:11:02Z</time>
      </trkpt>
      <trkpt lat="49.36874" lon="-1.20755">
        <ele>6.9</ele>
        <time>2022-06-02T16:11:03Z</time>
      </trkpt>
      <trkpt lat="49.36874" lon="-1.20755">
        <ele>6.9</ele>
        <time>2022-06-02T16:11:04Z</time>
      </trkpt>
      <trkpt lat="49.36874" lon="-1.20755">
        <ele>6.9</ele>
        <time>2022-06-02T16:11:05Z</time>
      </trkpt>
      <trkpt lat="49.36874" lon="-1.20755">
        <ele>6.9</ele>
        <time>2022-06-02T16:11:06Z</time>
      </trkpt>
      <trkpt lat="49.36874" lon="-1.20755">
        <ele>6.9</ele>
        <time>2022-06-02T16:11:07Z</time>
      </trkpt>
      <trkpt lat="49.36874" lon="-1.20755">
        <ele>6.9</ele>
        <time>2022-06-02T16:11:08Z</time>
      </trkpt>
      <trkpt lat="49.36874" lon="-1.20755">
        <ele>6.9</ele>
        <time>2022-06-02T16:11:09Z</time>
      </trkpt>
      <trkpt lat="49.36874" lon="-1.20755">
        <ele>6.9</ele>
        <time>2022-06-02T16:11:10Z</time>
      </trkpt>
      <trkpt lat="49.36874" lon="-1.20755">
        <ele>6.9</ele>
        <time>2022-06-02T16:11:11Z</time>
      </trkpt>
      <trkpt lat="49.36874" lon="-1.20755">
        <ele>6.9</ele>
        <time>2022-06-02T16:11:12Z</time>
      </trkpt>
      <trkpt lat="49.36874" lon="-1.20755">
        <ele>6.9</ele>
        <time>2022-06-02T16:11:13Z</time>
      </trkpt>
      <trkpt lat="49.36874" lon="-1.20755">
        <ele>6.9</ele>
        <time>2022-06-02T16:11:14Z</time>
      </trkpt>
      <trkpt lat="49.36875" lon="-1.20755">
        <ele>6.9</ele>
        <time>2022-06-02T16:11:15Z</time>
      </trkpt>
      <trkpt lat="49.36875" lon="-1.20755">
        <ele>6.9</ele>
        <time>2022-06-02T16:11:17Z</time>
      </trkpt>
      <trkpt lat="49.36875" lon="-1.20754">
        <ele>6.9</ele>
        <time>2022-06-02T16:11:18Z</time>
      </trkpt>
      <trkpt lat="49.36876" lon="-1.20754">
        <ele>6.9</ele>
        <time>2022-06-02T16:11:19Z</time>
      </trkpt>
      <trkpt lat="49.36876" lon="-1.20754">
        <ele>6.9</ele>
        <time>2022-06-02T16:11:21Z</time>
      </trkpt>
      <trkpt lat="49.36877" lon="-1.20753">
        <ele>6.9</ele>
        <time>2022-06-02T16:11:22Z</time>
      </trkpt>
      <trkpt lat="49.36877" lon="-1.20753">
        <ele>6.9</ele>
        <time>2022-06-02T16:11:23Z</time>
      </trkpt>
      <trkpt lat="49.36878" lon="-1.20753">
        <ele>6.9</ele>
        <time>2022-06-02T16:11:24Z</time>
      </trkpt>
      <trkpt lat="49.36879" lon="-1.20753">
        <ele>6.9</ele>
        <time>2022-06-02T16:11:25Z</time>
      </trkpt>
      <trkpt lat="49.3688" lon="-1.20753">
        <ele>7</ele>
        <time>2022-06-02T16:11:27Z</time>
      </trkpt>
      <trkpt lat="49.36882" lon="-1.20753">
        <ele>7</ele>
        <time>2022-06-02T16:11:28Z</time>
      </trkpt>
      <trkpt lat="49.36883" lon="-1.20752">
        <ele>7</ele>
        <time>2022-06-02T16:11:29Z</time>
      </trkpt>
      <trkpt lat="49.36884" lon="-1.20752">
        <ele>7</ele>
        <time>2022-06-02T16:11:30Z</time>
      </trkpt>
      <trkpt lat="49.36884" lon="-1.20752">
        <ele>7</ele>
        <time>2022-06-02T16:11:31Z</time>
      </trkpt>
      <trkpt lat="49.36885" lon="-1.20752">
        <ele>7</ele>
        <time>2022-06-02T16:11:32Z</time>
      </trkpt>
      <trkpt lat="49.36886" lon="-1.20751">
        <ele>7</ele>
        <time>2022-06-02T16:11:33Z</time>
      </trkpt>
      <trkpt lat="49.36887" lon="-1.20751">
        <ele>7</ele>
        <time>2022-06-02T16:11:34Z</time>
      </trkpt>
      <trkpt lat="49.36888" lon="-1.20751">
        <ele>7</ele>
        <time>2022-06-02T16:11:35Z</time>
      </trkpt>
      <trkpt lat="49.36889" lon="-1.20751">
        <ele>7</ele>
        <time>2022-06-02T16:11:37Z</time>
      </trkpt>
      <trkpt lat="49.3689" lon="-1.2075">
        <ele>7</ele>
        <time>2022-06-02T16:11:38Z</time>
      </trkpt>
      <trkpt lat="49.36891" lon="-1.2075">
        <ele>7</ele>
        <time>2022-06-02T16:11:39Z</time>
      </trkpt>
      <trkpt lat="49.36892" lon="-1.20749">
        <ele>7</ele>
        <time>2022-06-02T16:11:40Z</time>
      </trkpt>
      <trkpt lat="49.36893" lon="-1.20749">
        <ele>7</ele>
        <time>2022-06-02T16:11:42Z</time>
      </trkpt>
      <trkpt lat="49.36894" lon="-1.20748">
        <ele>7</ele>
        <time>2022-06-02T16:11:43Z</time>
      </trkpt>
      <trkpt lat="49.36895" lon="-1.20748">
        <ele>7</ele>
        <time>2022-06-02T16:11:44Z</time>
      </trkpt>
      <trkpt lat="49.36896" lon="-1.20747">
        <ele>7</ele>
        <time>2022-06-02T16:11:45Z</time>
      </trkpt>
      <trkpt lat="49.36897" lon="-1.20747">
        <ele>7</ele>
        <time>2022-06-02T16:11:46Z</time>
      </trkpt>
      <trkpt lat="49.36897" lon="-1.20746">
        <ele>7</ele>
        <time>2022-06-02T16:11:48Z</time>
      </trkpt>
      <trkpt lat="49.36896" lon="-1.20745">
        <ele>7</ele>
        <time>2022-06-02T16:11:49Z</time>
      </trkpt>
      <trkpt lat="49.36897" lon="-1.20744">
        <ele>7</ele>
        <time>2022-06-02T16:11:50Z</time>
      </trkpt>
      <trkpt lat="49.36898" lon="-1.20743">
        <ele>7</ele>
        <time>2022-06-02T16:11:51Z</time>
      </trkpt>
      <trkpt lat="49.36899" lon="-1.20742">
        <ele>7</ele>
        <time>2022-06-02T16:11:52Z</time>
      </trkpt>
      <trkpt lat="49.369" lon="-1.20741">
        <ele>7</ele>
        <time>2022-06-02T16:11:53Z</time>
      </trkpt>
      <trkpt lat="49.36901" lon="-1.2074">
        <ele>7</ele>
        <time>2022-06-02T16:11:54Z</time>
      </trkpt>
      <trkpt lat="49.36902" lon="-1.20739">
        <ele>7</ele>
        <time>2022-06-02T16:11:55Z</time>
      </trkpt>
      <trkpt lat="49.36902" lon="-1.20738">
        <ele>7</ele>
        <time>2022-06-02T16:11:56Z</time>
      </trkpt>
      <trkpt lat="49.36902" lon="-1.20736">
        <ele>7</ele>
        <time>2022-06-02T16:11:57Z</time>
      </trkpt>
      <trkpt lat="49.36901" lon="-1.20735">
        <ele>7</ele>
        <time>2022-06-02T16:11:59Z</time>
      </trkpt>
      <trkpt lat="49.36901" lon="-1.20734">
        <ele>6.9</ele>
        <time>2022-06-02T16:12:00Z</time>
      </trkpt>
      <trkpt lat="49.36902" lon="-1.20733">
        <ele>6.9</ele>
        <time>2022-06-02T16:12:01Z</time>
      </trkpt>
      <trkpt lat="49.36902" lon="-1.20732">
        <ele>6.9</ele>
        <time>2022-06-02T16:12:02Z</time>
      </trkpt>
      <trkpt lat="49.36903" lon="-1.2073">
        <ele>6.9</ele>
        <time>2022-06-02T16:12:03Z</time>
      </trkpt>
      <trkpt lat="49.36905" lon="-1.20729">
        <ele>6.9</ele>
        <time>2022-06-02T16:12:04Z</time>
      </trkpt>
      <trkpt lat="49.36906" lon="-1.20727">
        <ele>6.9</ele>
        <time>2022-06-02T16:12:05Z</time>
      </trkpt>
      <trkpt lat="49.36907" lon="-1.20725">
        <ele>6.9</ele>
        <time>2022-06-02T16:12:06Z</time>
      </trkpt>
      <trkpt lat="49.36908" lon="-1.20722">
        <ele>6.9</ele>
        <time>2022-06-02T16:12:07Z</time>
      </trkpt>
      <trkpt lat="49.36909" lon="-1.20721">
        <ele>6.9</ele>
        <time>2022-06-02T16:12:08Z</time>
      </trkpt>
      <trkpt lat="49.36909" lon="-1.2072">
        <ele>6.9</ele>
        <time>2022-06-02T16:12:10Z</time>
      </trkpt>
      <trkpt lat="49.3691" lon="-1.20719">
        <ele>6.9</ele>
        <time>2022-06-02T16:12:11Z</time>
      </trkpt>
      <trkpt lat="49.36911" lon="-1.20718">
        <ele>6.9</ele>
        <time>2022-06-02T16:12:12Z</time>
      </trkpt>
      <trkpt lat="49.36911" lon="-1.20717">
        <ele>6.9</ele>
        <time>2022-06-02T16:12:13Z</time>
      </trkpt>
      <trkpt lat="49.36912" lon="-1.20715">
        <ele>6.9</ele>
        <time>2022-06-02T16:12:14Z</time>
      </trkpt>
      <trkpt lat="49.36913" lon="-1.20713">
        <ele>6.9</ele>
        <time>2022-06-02T16:12:15Z</time>
      </trkpt>
      <trkpt lat="49.36916" lon="-1.20711">
        <ele>6.9</ele>
        <time>2022-06-02T16:12:16Z</time>
      </trkpt>
      <trkpt lat="49.36917" lon="-1.2071">
        <ele>6.9</ele>
        <time>2022-06-02T16:12:17Z</time>
      </trkpt>
      <trkpt lat="49.36919" lon="-1.20707">
        <ele>6.9</ele>
        <time>2022-06-02T16:12:18Z</time>
      </trkpt>
      <trkpt lat="49.3692" lon="-1.20706">
        <ele>6.9</ele>
        <time>2022-06-02T16:12:19Z</time>
      </trkpt>
      <trkpt lat="49.36923" lon="-1.20704">
        <ele>6.9</ele>
        <time>2022-06-02T16:12:21Z</time>
      </trkpt>
      <trkpt lat="49.36924" lon="-1.20703">
        <ele>6.9</ele>
        <time>2022-06-02T16:12:22Z</time>
      </trkpt>
      <trkpt lat="49.36926" lon="-1.20701">
        <ele>6.9</ele>
        <time>2022-06-02T16:12:23Z</time>
      </trkpt>
      <trkpt lat="49.36927" lon="-1.207">
        <ele>6.9</ele>
        <time>2022-06-02T16:12:24Z</time>
      </trkpt>
      <trkpt lat="49.36928" lon="-1.20698">
        <ele>6.9</ele>
        <time>2022-06-02T16:12:25Z</time>
      </trkpt>
      <trkpt lat="49.36929" lon="-1.20697">
        <ele>6.9</ele>
        <time>2022-06-02T16:12:26Z</time>
      </trkpt>
      <trkpt lat="49.3693" lon="-1.20695">
        <ele>6.9</ele>
        <time>2022-06-02T16:12:27Z</time>
      </trkpt>
      <trkpt lat="49.36931" lon="-1.20694">
        <ele>6.8</ele>
        <time>2022-06-02T16:12:28Z</time>
      </trkpt>
      <trkpt lat="49.36933" lon="-1.20692">
        <ele>6.8</ele>
        <time>2022-06-02T16:12:29Z</time>
      </trkpt>
      <trkpt lat="49.36934" lon="-1.2069">
        <ele>6.8</ele>
        <time>2022-06-02T16:12:30Z</time>
      </trkpt>
      <trkpt lat="49.36935" lon="-1.20689">
        <ele>6.8</ele>
        <time>2022-06-02T16:12:31Z</time>
      </trkpt>
      <trkpt lat="49.36936" lon="-1.20687">
        <ele>6.8</ele>
        <time>2022-06-02T16:12:33Z</time>
      </trkpt>
      <trkpt lat="49.36937" lon="-1.20686">
        <ele>6.8</ele>
        <time>2022-06-02T16:12:34Z</time>
      </trkpt>
      <trkpt lat="49.36938" lon="-1.20684">
        <ele>6.7</ele>
        <time>2022-06-02T16:12:35Z</time>
      </trkpt>
      <trkpt lat="49.36939" lon="-1.20683">
        <ele>6.7</ele>
        <time>2022-06-02T16:12:36Z</time>
      </trkpt>
      <trkpt lat="49.3694" lon="-1.20681">
        <ele>6.7</ele>
        <time>2022-06-02T16:12:37Z</time>
      </trkpt>
      <trkpt lat="49.36942" lon="-1.20679">
        <ele>6.7</ele>
        <time>2022-06-02T16:12:38Z</time>
      </trkpt>
      <trkpt lat="49.36943" lon="-1.20678">
        <ele>6.7</ele>
        <time>2022-06-02T16:12:39Z</time>
      </trkpt>
      <trkpt lat="49.36943" lon="-1.20677">
        <ele>6.6</ele>
        <time>2022-06-02T16:12:40Z</time>
      </trkpt>
      <trkpt lat="49.36944" lon="-1.20676">
        <ele>6.6</ele>
        <time>2022-06-02T16:12:42Z</time>
      </trkpt>
      <trkpt lat="49.36945" lon="-1.20675">
        <ele>6.6</ele>
        <time>2022-06-02T16:12:43Z</time>
      </trkpt>
      <trkpt lat="49.36946" lon="-1.20673">
        <ele>6.6</ele>
        <time>2022-06-02T16:12:44Z</time>
      </trkpt>
      <trkpt lat="49.36946" lon="-1.20672">
        <ele>6.6</ele>
        <time>2022-06-02T16:12:45Z</time>
      </trkpt>
      <trkpt lat="49.36947" lon="-1.20671">
        <ele>6.6</ele>
        <time>2022-06-02T16:12:46Z</time>
      </trkpt>
      <trkpt lat="49.36948" lon="-1.2067">
        <ele>6.6</ele>
        <time>2022-06-02T16:12:47Z</time>
      </trkpt>
      <trkpt lat="49.3695" lon="-1.2067">
        <ele>6.6</ele>
        <time>2022-06-02T16:12:48Z</time>
      </trkpt>
      <trkpt lat="49.36951" lon="-1.20669">
        <ele>6.6</ele>
        <time>2022-06-02T16:12:49Z</time>
      </trkpt>
      <trkpt lat="49.36951" lon="-1.20669">
        <ele>6.6</ele>
        <time>2022-06-02T16:12:50Z</time>
      </trkpt>
      <trkpt lat="49.36952" lon="-1.20668">
        <ele>6.6</ele>
        <time>2022-06-02T16:12:52Z</time>
      </trkpt>
      <trkpt lat="49.36953" lon="-1.20668">
        <ele>6.6</ele>
        <time>2022-06-02T16:12:53Z</time>
      </trkpt>
      <trkpt lat="49.36954" lon="-1.20667">
        <ele>6.6</ele>
        <time>2022-06-02T16:12:54Z</time>
      </trkpt>
      <trkpt lat="49.36956" lon="-1.20665">
        <ele>6.6</ele>
        <time>2022-06-02T16:12:55Z</time>
      </trkpt>
      <trkpt lat="49.36957" lon="-1.20665">
        <ele>6.6</ele>
        <time>2022-06-02T16:12:56Z</time>
      </trkpt>
      <trkpt lat="49.36957" lon="-1.20664">
        <ele>6.6</ele>
        <time>2022-06-02T16:12:57Z</time>
      </trkpt>
      <trkpt lat="49.36958" lon="-1.20663">
        <ele>6.6</ele>
        <time>2022-06-02T16:12:58Z</time>
      </trkpt>
      <trkpt lat="49.36959" lon="-1.20662">
        <ele>6.6</ele>
        <time>2022-06-02T16:12:59Z</time>
      </trkpt>
      <trkpt lat="49.3696" lon="-1.20661">
        <ele>6.6</ele>
        <time>2022-06-02T16:13:00Z</time>
      </trkpt>
      <trkpt lat="49.36961" lon="-1.2066">
        <ele>6.6</ele>
        <time>2022-06-02T16:13:01Z</time>
      </trkpt>
      <trkpt lat="49.36962" lon="-1.20659">
        <ele>6.6</ele>
        <time>2022-06-02T16:13:03Z</time>
      </trkpt>
      <trkpt lat="49.36962" lon="-1.20658">
        <ele>6.6</ele>
        <time>2022-06-02T16:13:04Z</time>
      </trkpt>
      <trkpt lat="49.36964" lon="-1.20656">
        <ele>6.6</ele>
        <time>2022-06-02T16:13:05Z</time>
      </trkpt>
      <trkpt lat="49.36965" lon="-1.20656">
        <ele>6.6</ele>
        <time>2022-06-02T16:13:06Z</time>
      </trkpt>
      <trkpt lat="49.36966" lon="-1.20654">
        <ele>6.7</ele>
        <time>2022-06-02T16:13:08Z</time>
      </trkpt>
      <trkpt lat="49.36966" lon="-1.20653">
        <ele>6.7</ele>
        <time>2022-06-02T16:13:09Z</time>
      </trkpt>
      <trkpt lat="49.36966" lon="-1.20652">
        <ele>6.7</ele>
        <time>2022-06-02T16:13:10Z</time>
      </trkpt>
      <trkpt lat="49.36968" lon="-1.2065">
        <ele>6.7</ele>
        <time>2022-06-02T16:13:11Z</time>
      </trkpt>
      <trkpt lat="49.36968" lon="-1.20649">
        <ele>6.7</ele>
        <time>2022-06-02T16:13:12Z</time>
      </trkpt>
      <trkpt lat="49.36969" lon="-1.20648">
        <ele>6.7</ele>
        <time>2022-06-02T16:13:13Z</time>
      </trkpt>
      <trkpt lat="49.3697" lon="-1.20647">
        <ele>6.7</ele>
        <time>2022-06-02T16:13:14Z</time>
      </trkpt>
      <trkpt lat="49.36971" lon="-1.20646">
        <ele>6.7</ele>
        <time>2022-06-02T16:13:15Z</time>
      </trkpt>
      <trkpt lat="49.36972" lon="-1.20645">
        <ele>6.7</ele>
        <time>2022-06-02T16:13:16Z</time>
      </trkpt>
      <trkpt lat="49.36973" lon="-1.20645">
        <ele>6.7</ele>
        <time>2022-06-02T16:13:18Z</time>
      </trkpt>
      <trkpt lat="49.36973" lon="-1.20644">
        <ele>6.7</ele>
        <time>2022-06-02T16:13:19Z</time>
      </trkpt>
      <trkpt lat="49.36974" lon="-1.20643">
        <ele>6.7</ele>
        <time>2022-06-02T16:13:20Z</time>
      </trkpt>
      <trkpt lat="49.36975" lon="-1.20642">
        <ele>6.7</ele>
        <time>2022-06-02T16:13:21Z</time>
      </trkpt>
      <trkpt lat="49.36976" lon="-1.20641">
        <ele>6.7</ele>
        <time>2022-06-02T16:13:22Z</time>
      </trkpt>
      <trkpt lat="49.36978" lon="-1.2064">
        <ele>6.7</ele>
        <time>2022-06-02T16:13:23Z</time>
      </trkpt>
      <trkpt lat="49.36979" lon="-1.2064">
        <ele>6.7</ele>
        <time>2022-06-02T16:13:24Z</time>
      </trkpt>
      <trkpt lat="49.3698" lon="-1.20639">
        <ele>6.7</ele>
        <time>2022-06-02T16:13:25Z</time>
      </trkpt>
      <trkpt lat="49.36981" lon="-1.20638">
        <ele>6.7</ele>
        <time>2022-06-02T16:13:26Z</time>
      </trkpt>
      <trkpt lat="49.36983" lon="-1.20637">
        <ele>6.7</ele>
        <time>2022-06-02T16:13:27Z</time>
      </trkpt>
      <trkpt lat="49.36985" lon="-1.20635">
        <ele>6.7</ele>
        <time>2022-06-02T16:13:29Z</time>
      </trkpt>
      <trkpt lat="49.36987" lon="-1.20634">
        <ele>6.7</ele>
        <time>2022-06-02T16:13:30Z</time>
      </trkpt>
      <trkpt lat="49.36988" lon="-1.20633">
        <ele>6.7</ele>
        <time>2022-06-02T16:13:31Z</time>
      </trkpt>
      <trkpt lat="49.36988" lon="-1.20632">
        <ele>6.7</ele>
        <time>2022-06-02T16:13:32Z</time>
      </trkpt>
      <trkpt lat="49.3699" lon="-1.20631">
        <ele>6.7</ele>
        <time>2022-06-02T16:13:33Z</time>
      </trkpt>
      <trkpt lat="49.36991" lon="-1.2063">
        <ele>6.7</ele>
        <time>2022-06-02T16:13:34Z</time>
      </trkpt>
      <trkpt lat="49.36993" lon="-1.20629">
        <ele>6.7</ele>
        <time>2022-06-02T16:13:35Z</time>
      </trkpt>
      <trkpt lat="49.36994" lon="-1.20629">
        <ele>6.7</ele>
        <time>2022-06-02T16:13:36Z</time>
      </trkpt>
      <trkpt lat="49.36995" lon="-1.20628">
        <ele>6.7</ele>
        <time>2022-06-02T16:13:37Z</time>
      </trkpt>
      <trkpt lat="49.36997" lon="-1.20626">
        <ele>6.6</ele>
        <time>2022-06-02T16:13:38Z</time>
      </trkpt>
      <trkpt lat="49.36998" lon="-1.20625">
        <ele>6.6</ele>
        <time>2022-06-02T16:13:40Z</time>
      </trkpt>
      <trkpt lat="49.36999" lon="-1.20624">
        <ele>6.6</ele>
        <time>2022-06-02T16:13:41Z</time>
      </trkpt>
      <trkpt lat="49.37" lon="-1.20623">
        <ele>6.6</ele>
        <time>2022-06-02T16:13:42Z</time>
      </trkpt>
      <trkpt lat="49.37001" lon="-1.20622">
        <ele>6.6</ele>
        <time>2022-06-02T16:13:43Z</time>
      </trkpt>
      <trkpt lat="49.37003" lon="-1.2062">
        <ele>6.5</ele>
        <time>2022-06-02T16:13:44Z</time>
      </trkpt>
      <trkpt lat="49.37004" lon="-1.20619">
        <ele>6.5</ele>
        <time>2022-06-02T16:13:45Z</time>
      </trkpt>
      <trkpt lat="49.37005" lon="-1.20618">
        <ele>6.5</ele>
        <time>2022-06-02T16:13:46Z</time>
      </trkpt>
      <trkpt lat="49.37006" lon="-1.20617">
        <ele>6.5</ele>
        <time>2022-06-02T16:13:47Z</time>
      </trkpt>
      <trkpt lat="49.37008" lon="-1.20615">
        <ele>6.5</ele>
        <time>2022-06-02T16:13:48Z</time>
      </trkpt>
      <trkpt lat="49.37008" lon="-1.20614">
        <ele>6.5</ele>
        <time>2022-06-02T16:13:49Z</time>
      </trkpt>
      <trkpt lat="49.37009" lon="-1.20613">
        <ele>6.4</ele>
        <time>2022-06-02T16:13:51Z</time>
      </trkpt>
      <trkpt lat="49.3701" lon="-1.20612">
        <ele>6.4</ele>
        <time>2022-06-02T16:13:52Z</time>
      </trkpt>
      <trkpt lat="49.37011" lon="-1.20611">
        <ele>6.4</ele>
        <time>2022-06-02T16:13:53Z</time>
      </trkpt>
      <trkpt lat="49.37012" lon="-1.20609">
        <ele>6.4</ele>
        <time>2022-06-02T16:13:54Z</time>
      </trkpt>
      <trkpt lat="49.37013" lon="-1.20609">
        <ele>6.4</ele>
        <time>2022-06-02T16:13:55Z</time>
      </trkpt>
      <trkpt lat="49.37015" lon="-1.20607">
        <ele>6.3</ele>
        <time>2022-06-02T16:13:56Z</time>
      </trkpt>
      <trkpt lat="49.37016" lon="-1.20606">
        <ele>6.3</ele>
        <time>2022-06-02T16:13:58Z</time>
      </trkpt>
      <trkpt lat="49.37017" lon="-1.20606">
        <ele>6.3</ele>
        <time>2022-06-02T16:13:59Z</time>
      </trkpt>
      <trkpt lat="49.37018" lon="-1.20605">
        <ele>6.3</ele>
        <time>2022-06-02T16:14:00Z</time>
      </trkpt>
      <trkpt lat="49.37019" lon="-1.20604">
        <ele>6.3</ele>
        <time>2022-06-02T16:14:01Z</time>
      </trkpt>
      <trkpt lat="49.3702" lon="-1.20603">
        <ele>6.2</ele>
        <time>2022-06-02T16:14:02Z</time>
      </trkpt>
      <trkpt lat="49.37021" lon="-1.20602">
        <ele>6.2</ele>
        <time>2022-06-02T16:14:03Z</time>
      </trkpt>
      <trkpt lat="49.37023" lon="-1.206">
        <ele>6.2</ele>
        <time>2022-06-02T16:14:05Z</time>
      </trkpt>
      <trkpt lat="49.37024" lon="-1.20599">
        <ele>6.1</ele>
        <time>2022-06-02T16:14:06Z</time>
      </trkpt>
      <trkpt lat="49.37024" lon="-1.20598">
        <ele>6.1</ele>
        <time>2022-06-02T16:14:07Z</time>
      </trkpt>
      <trkpt lat="49.37026" lon="-1.20597">
        <ele>6.1</ele>
        <time>2022-06-02T16:14:08Z</time>
      </trkpt>
      <trkpt lat="49.37028" lon="-1.20595">
        <ele>6</ele>
        <time>2022-06-02T16:14:09Z</time>
      </trkpt>
      <trkpt lat="49.37028" lon="-1.20594">
        <ele>6</ele>
        <time>2022-06-02T16:14:10Z</time>
      </trkpt>
      <trkpt lat="49.37029" lon="-1.20593">
        <ele>6</ele>
        <time>2022-06-02T16:14:11Z</time>
      </trkpt>
      <trkpt lat="49.3703" lon="-1.20592">
        <ele>6</ele>
        <time>2022-06-02T16:14:12Z</time>
      </trkpt>
      <trkpt lat="49.37031" lon="-1.2059">
        <ele>5.9</ele>
        <time>2022-06-02T16:14:13Z</time>
      </trkpt>
      <trkpt lat="49.37031" lon="-1.20587">
        <ele>5.9</ele>
        <time>2022-06-02T16:14:15Z</time>
      </trkpt>
      <trkpt lat="49.37031" lon="-1.20586">
        <ele>5.9</ele>
        <time>2022-06-02T16:14:16Z</time>
      </trkpt>
      <trkpt lat="49.37032" lon="-1.20584">
        <ele>5.8</ele>
        <time>2022-06-02T16:14:17Z</time>
      </trkpt>
      <trkpt lat="49.37032" lon="-1.20582">
        <ele>5.8</ele>
        <time>2022-06-02T16:14:18Z</time>
      </trkpt>
      <trkpt lat="49.37033" lon="-1.2058">
        <ele>5.8</ele>
        <time>2022-06-02T16:14:19Z</time>
      </trkpt>
      <trkpt lat="49.37033" lon="-1.20579">
        <ele>5.8</ele>
        <time>2022-06-02T16:14:20Z</time>
      </trkpt>
      <trkpt lat="49.37034" lon="-1.20577">
        <ele>5.8</ele>
        <time>2022-06-02T16:14:21Z</time>
      </trkpt>
      <trkpt lat="49.37034" lon="-1.20575">
        <ele>5.7</ele>
        <time>2022-06-02T16:14:22Z</time>
      </trkpt>
      <trkpt lat="49.37035" lon="-1.20573">
        <ele>5.7</ele>
        <time>2022-06-02T16:14:23Z</time>
      </trkpt>
      <trkpt lat="49.37036" lon="-1.20572">
        <ele>5.7</ele>
        <time>2022-06-02T16:14:24Z</time>
      </trkpt>
      <trkpt lat="49.37037" lon="-1.20571">
        <ele>5.7</ele>
        <time>2022-06-02T16:14:26Z</time>
      </trkpt>
      <trkpt lat="49.37038" lon="-1.20569">
        <ele>5.7</ele>
        <time>2022-06-02T16:14:27Z</time>
      </trkpt>
      <trkpt lat="49.37039" lon="-1.20567">
        <ele>5.6</ele>
        <time>2022-06-02T16:14:28Z</time>
      </trkpt>
      <trkpt lat="49.3704" lon="-1.20566">
        <ele>5.6</ele>
        <time>2022-06-02T16:14:29Z</time>
      </trkpt>
      <trkpt lat="49.37041" lon="-1.20564">
        <ele>5.6</ele>
        <time>2022-06-02T16:14:31Z</time>
      </trkpt>
      <trkpt lat="49.37042" lon="-1.20563">
        <ele>5.6</ele>
        <time>2022-06-02T16:14:32Z</time>
      </trkpt>
      <trkpt lat="49.37042" lon="-1.20562">
        <ele>5.6</ele>
        <time>2022-06-02T16:14:33Z</time>
      </trkpt>
      <trkpt lat="49.37042" lon="-1.2056">
        <ele>5.6</ele>
        <time>2022-06-02T16:14:34Z</time>
      </trkpt>
      <trkpt lat="49.37043" lon="-1.20558">
        <ele>5.6</ele>
        <time>2022-06-02T16:14:35Z</time>
      </trkpt>
      <trkpt lat="49.37044" lon="-1.20557">
        <ele>5.6</ele>
        <time>2022-06-02T16:14:36Z</time>
      </trkpt>
      <trkpt lat="49.37044" lon="-1.20555">
        <ele>5.6</ele>
        <time>2022-06-02T16:14:37Z</time>
      </trkpt>
      <trkpt lat="49.37045" lon="-1.20554">
        <ele>5.5</ele>
        <time>2022-06-02T16:14:38Z</time>
      </trkpt>
      <trkpt lat="49.37045" lon="-1.20553">
        <ele>5.5</ele>
        <time>2022-06-02T16:14:39Z</time>
      </trkpt>
      <trkpt lat="49.37046" lon="-1.20552">
        <ele>5.5</ele>
        <time>2022-06-02T16:14:40Z</time>
      </trkpt>
      <trkpt lat="49.37047" lon="-1.20551">
        <ele>5.5</ele>
        <time>2022-06-02T16:14:41Z</time>
      </trkpt>
      <trkpt lat="49.37048" lon="-1.2055">
        <ele>5.5</ele>
        <time>2022-06-02T16:14:42Z</time>
      </trkpt>
      <trkpt lat="49.37049" lon="-1.20548">
        <ele>5.5</ele>
        <time>2022-06-02T16:14:43Z</time>
      </trkpt>
      <trkpt lat="49.3705" lon="-1.20546">
        <ele>5.5</ele>
        <time>2022-06-02T16:14:44Z</time>
      </trkpt>
      <trkpt lat="49.37051" lon="-1.20545">
        <ele>5.5</ele>
        <time>2022-06-02T16:14:46Z</time>
      </trkpt>
      <trkpt lat="49.37052" lon="-1.20544">
        <ele>5.5</ele>
        <time>2022-06-02T16:14:47Z</time>
      </trkpt>
      <trkpt lat="49.37052" lon="-1.20543">
        <ele>5.5</ele>
        <time>2022-06-02T16:14:48Z</time>
      </trkpt>
      <trkpt lat="49.37054" lon="-1.20541">
        <ele>5.4</ele>
        <time>2022-06-02T16:14:49Z</time>
      </trkpt>
      <trkpt lat="49.37055" lon="-1.2054">
        <ele>5.4</ele>
        <time>2022-06-02T16:14:50Z</time>
      </trkpt>
      <trkpt lat="49.37056" lon="-1.20538">
        <ele>5.4</ele>
        <time>2022-06-02T16:14:52Z</time>
      </trkpt>
      <trkpt lat="49.37057" lon="-1.20537">
        <ele>5.4</ele>
        <time>2022-06-02T16:14:53Z</time>
      </trkpt>
      <trkpt lat="49.37058" lon="-1.20536">
        <ele>5.4</ele>
        <time>2022-06-02T16:14:54Z</time>
      </trkpt>
      <trkpt lat="49.37058" lon="-1.20535">
        <ele>5.4</ele>
        <time>2022-06-02T16:14:55Z</time>
      </trkpt>
      <trkpt lat="49.37059" lon="-1.20534">
        <ele>5.4</ele>
        <time>2022-06-02T16:14:56Z</time>
      </trkpt>
      <trkpt lat="49.3706" lon="-1.20532">
        <ele>5.4</ele>
        <time>2022-06-02T16:14:57Z</time>
      </trkpt>
      <trkpt lat="49.37061" lon="-1.20529">
        <ele>5.4</ele>
        <time>2022-06-02T16:14:58Z</time>
      </trkpt>
      <trkpt lat="49.37062" lon="-1.20529">
        <ele>5.4</ele>
        <time>2022-06-02T16:14:59Z</time>
      </trkpt>
      <trkpt lat="49.37062" lon="-1.20528">
        <ele>5.4</ele>
        <time>2022-06-02T16:15:00Z</time>
      </trkpt>
      <trkpt lat="49.37063" lon="-1.20527">
        <ele>5.4</ele>
        <time>2022-06-02T16:15:01Z</time>
      </trkpt>
      <trkpt lat="49.37064" lon="-1.20525">
        <ele>5.4</ele>
        <time>2022-06-02T16:15:02Z</time>
      </trkpt>
      <trkpt lat="49.37065" lon="-1.20524">
        <ele>5.4</ele>
        <time>2022-06-02T16:15:03Z</time>
      </trkpt>
      <trkpt lat="49.37066" lon="-1.20523">
        <ele>5.4</ele>
        <time>2022-06-02T16:15:05Z</time>
      </trkpt>
      <trkpt lat="49.37066" lon="-1.20521">
        <ele>5.4</ele>
        <time>2022-06-02T16:15:06Z</time>
      </trkpt>
      <trkpt lat="49.37067" lon="-1.2052">
        <ele>5.4</ele>
        <time>2022-06-02T16:15:07Z</time>
      </trkpt>
      <trkpt lat="49.37068" lon="-1.20519">
        <ele>5.4</ele>
        <time>2022-06-02T16:15:08Z</time>
      </trkpt>
      <trkpt lat="49.37069" lon="-1.20518">
        <ele>5.4</ele>
        <time>2022-06-02T16:15:09Z</time>
      </trkpt>
      <trkpt lat="49.37071" lon="-1.20515">
        <ele>5.4</ele>
        <time>2022-06-02T16:15:10Z</time>
      </trkpt>
      <trkpt lat="49.37071" lon="-1.20514">
        <ele>5.4</ele>
        <time>2022-06-02T16:15:11Z</time>
      </trkpt>
      <trkpt lat="49.37072" lon="-1.20513">
        <ele>5.3</ele>
        <time>2022-06-02T16:15:12Z</time>
      </trkpt>
      <trkpt lat="49.37073" lon="-1.20513">
        <ele>5.3</ele>
        <time>2022-06-02T16:15:13Z</time>
      </trkpt>
      <trkpt lat="49.37073" lon="-1.20511">
        <ele>5.3</ele>
        <time>2022-06-02T16:15:14Z</time>
      </trkpt>
      <trkpt lat="49.37074" lon="-1.2051">
        <ele>5.3</ele>
        <time>2022-06-02T16:15:16Z</time>
      </trkpt>
      <trkpt lat="49.37075" lon="-1.20509">
        <ele>5.3</ele>
        <time>2022-06-02T16:15:17Z</time>
      </trkpt>
      <trkpt lat="49.37076" lon="-1.20507">
        <ele>5.3</ele>
        <time>2022-06-02T16:15:18Z</time>
      </trkpt>
      <trkpt lat="49.37078" lon="-1.20506">
        <ele>5.3</ele>
        <time>2022-06-02T16:15:19Z</time>
      </trkpt>
      <trkpt lat="49.37079" lon="-1.20504">
        <ele>5.3</ele>
        <time>2022-06-02T16:15:20Z</time>
      </trkpt>
      <trkpt lat="49.37079" lon="-1.20503">
        <ele>5.3</ele>
        <time>2022-06-02T16:15:22Z</time>
      </trkpt>
      <trkpt lat="49.3708" lon="-1.20502">
        <ele>5.3</ele>
        <time>2022-06-02T16:15:23Z</time>
      </trkpt>
      <trkpt lat="49.37081" lon="-1.20501">
        <ele>5.3</ele>
        <time>2022-06-02T16:15:24Z</time>
      </trkpt>
      <trkpt lat="49.37083" lon="-1.20499">
        <ele>5.3</ele>
        <time>2022-06-02T16:15:25Z</time>
      </trkpt>
      <trkpt lat="49.37083" lon="-1.20498">
        <ele>5.3</ele>
        <time>2022-06-02T16:15:26Z</time>
      </trkpt>
      <trkpt lat="49.37084" lon="-1.20498">
        <ele>5.3</ele>
        <time>2022-06-02T16:15:27Z</time>
      </trkpt>
      <trkpt lat="49.37085" lon="-1.20497">
        <ele>5.2</ele>
        <time>2022-06-02T16:15:28Z</time>
      </trkpt>
      <trkpt lat="49.37086" lon="-1.20496">
        <ele>5.2</ele>
        <time>2022-06-02T16:15:29Z</time>
      </trkpt>
      <trkpt lat="49.37086" lon="-1.20495">
        <ele>5.2</ele>
        <time>2022-06-02T16:15:30Z</time>
      </trkpt>
      <trkpt lat="49.37087" lon="-1.20495">
        <ele>5.2</ele>
        <time>2022-06-02T16:15:31Z</time>
      </trkpt>
      <trkpt lat="49.37088" lon="-1.20493">
        <ele>5.2</ele>
        <time>2022-06-02T16:15:32Z</time>
      </trkpt>
      <trkpt lat="49.37088" lon="-1.20493">
        <ele>5.2</ele>
        <time>2022-06-02T16:15:34Z</time>
      </trkpt>
      <trkpt lat="49.37089" lon="-1.20492">
        <ele>5.2</ele>
        <time>2022-06-02T16:15:35Z</time>
      </trkpt>
      <trkpt lat="49.3709" lon="-1.20492">
        <ele>5.2</ele>
        <time>2022-06-02T16:15:36Z</time>
      </trkpt>
      <trkpt lat="49.37091" lon="-1.20491">
        <ele>5.2</ele>
        <time>2022-06-02T16:15:37Z</time>
      </trkpt>
      <trkpt lat="49.37092" lon="-1.20489">
        <ele>5.1</ele>
        <time>2022-06-02T16:15:38Z</time>
      </trkpt>
      <trkpt lat="49.37093" lon="-1.20489">
        <ele>5.1</ele>
        <time>2022-06-02T16:15:39Z</time>
      </trkpt>
      <trkpt lat="49.37094" lon="-1.20488">
        <ele>5.1</ele>
        <time>2022-06-02T16:15:40Z</time>
      </trkpt>
      <trkpt lat="49.37095" lon="-1.20487">
        <ele>5.1</ele>
        <time>2022-06-02T16:15:41Z</time>
      </trkpt>
      <trkpt lat="49.37097" lon="-1.20486">
        <ele>5.1</ele>
        <time>2022-06-02T16:15:43Z</time>
      </trkpt>
      <trkpt lat="49.37097" lon="-1.20485">
        <ele>5.1</ele>
        <time>2022-06-02T16:15:44Z</time>
      </trkpt>
      <trkpt lat="49.37099" lon="-1.20483">
        <ele>5.1</ele>
        <time>2022-06-02T16:15:45Z</time>
      </trkpt>
      <trkpt lat="49.371" lon="-1.20482">
        <ele>5.1</ele>
        <time>2022-06-02T16:15:47Z</time>
      </trkpt>
      <trkpt lat="49.37101" lon="-1.20481">
        <ele>5</ele>
        <time>2022-06-02T16:15:48Z</time>
      </trkpt>
      <trkpt lat="49.37101" lon="-1.2048">
        <ele>5</ele>
        <time>2022-06-02T16:15:49Z</time>
      </trkpt>
      <trkpt lat="49.37102" lon="-1.20479">
        <ele>5</ele>
        <time>2022-06-02T16:15:50Z</time>
      </trkpt>
      <trkpt lat="49.37102" lon="-1.20477">
        <ele>5</ele>
        <time>2022-06-02T16:15:51Z</time>
      </trkpt>
      <trkpt lat="49.37103" lon="-1.20473">
        <ele>5</ele>
        <time>2022-06-02T16:15:53Z</time>
      </trkpt>
      <trkpt lat="49.37103" lon="-1.20472">
        <ele>5</ele>
        <time>2022-06-02T16:15:54Z</time>
      </trkpt>
      <trkpt lat="49.37102" lon="-1.20471">
        <ele>5</ele>
        <time>2022-06-02T16:15:55Z</time>
      </trkpt>
      <trkpt lat="49.37102" lon="-1.20471">
        <ele>5</ele>
        <time>2022-06-02T16:15:56Z</time>
      </trkpt>
      <trkpt lat="49.37102" lon="-1.20471">
        <ele>5</ele>
        <time>2022-06-02T16:15:57Z</time>
      </trkpt>
      <trkpt lat="49.37102" lon="-1.20472">
        <ele>5</ele>
        <time>2022-06-02T16:15:58Z</time>
      </trkpt>
      <trkpt lat="49.37102" lon="-1.20472">
        <ele>5</ele>
        <time>2022-06-02T16:15:59Z</time>
      </trkpt>
      <trkpt lat="49.37102" lon="-1.20472">
        <ele>5</ele>
        <time>2022-06-02T16:16:00Z</time>
      </trkpt>
      <trkpt lat="49.37102" lon="-1.20472">
        <ele>5</ele>
        <time>2022-06-02T16:16:01Z</time>
      </trkpt>
      <trkpt lat="49.37102" lon="-1.20472">
        <ele>5</ele>
        <time>2022-06-02T16:16:02Z</time>
      </trkpt>
      <trkpt lat="49.37102" lon="-1.20472">
        <ele>5</ele>
        <time>2022-06-02T16:16:03Z</time>
      </trkpt>
      <trkpt lat="49.37102" lon="-1.20472">
        <ele>5</ele>
        <time>2022-06-02T16:16:04Z</time>
      </trkpt>
      <trkpt lat="49.37102" lon="-1.20472">
        <ele>5</ele>
        <time>2022-06-02T16:16:05Z</time>
      </trkpt>
      <trkpt lat="49.37102" lon="-1.20472">
        <ele>5</ele>
        <time>2022-06-02T16:16:06Z</time>
      </trkpt>
      <trkpt lat="49.37102" lon="-1.20472">
        <ele>5</ele>
        <time>2022-06-02T16:16:07Z</time>
      </trkpt>
      <trkpt lat="49.37102" lon="-1.20472">
        <ele>5</ele>
        <time>2022-06-02T16:16:08Z</time>
      </trkpt>
      <trkpt lat="49.37102" lon="-1.20473">
        <ele>5</ele>
        <time>2022-06-02T16:16:09Z</time>
      </trkpt>
      <trkpt lat="49.37102" lon="-1.20473">
        <ele>5</ele>
        <time>2022-06-02T16:16:10Z</time>
      </trkpt>
      <trkpt lat="49.37102" lon="-1.20473">
        <ele>5</ele>
        <time>2022-06-02T16:16:11Z</time>
      </trkpt>
      <trkpt lat="49.37102" lon="-1.20473">
        <ele>5</ele>
        <time>2022-06-02T16:16:12Z</time>
      </trkpt>
      <trkpt lat="49.37102" lon="-1.20473">
        <ele>5</ele>
        <time>2022-06-02T16:16:13Z</time>
      </trkpt>
      <trkpt lat="49.37102" lon="-1.20473">
        <ele>5</ele>
        <time>2022-06-02T16:16:14Z</time>
      </trkpt>
      <trkpt lat="49.37102" lon="-1.20473">
        <ele>5</ele>
        <time>2022-06-02T16:16:15Z</time>
      </trkpt>
      <trkpt lat="49.37102" lon="-1.20473">
        <ele>5</ele>
        <time>2022-06-02T16:16:16Z</time>
      </trkpt>
      <trkpt lat="49.37102" lon="-1.20473">
        <ele>5</ele>
        <time>2022-06-02T16:16:17Z</time>
      </trkpt>
      <trkpt lat="49.37102" lon="-1.20473">
        <ele>5</ele>
        <time>2022-06-02T16:16:18Z</time>
      </trkpt>
      <trkpt lat="49.37102" lon="-1.20473">
        <ele>5</ele>
        <time>2022-06-02T16:16:19Z</time>
      </trkpt>
      <trkpt lat="49.37102" lon="-1.20474">
        <ele>5</ele>
        <time>2022-06-02T16:16:20Z</time>
      </trkpt>
      <trkpt lat="49.37102" lon="-1.20474">
        <ele>5</ele>
        <time>2022-06-02T16:16:21Z</time>
      </trkpt>
      <trkpt lat="49.37102" lon="-1.20474">
        <ele>5</ele>
        <time>2022-06-02T16:16:22Z</time>
      </trkpt>
      <trkpt lat="49.37102" lon="-1.20474">
        <ele>5</ele>
        <time>2022-06-02T16:16:23Z</time>
      </trkpt>
      <trkpt lat="49.37102" lon="-1.20474">
        <ele>5</ele>
        <time>2022-06-02T16:16:24Z</time>
      </trkpt>
      <trkpt lat="49.37102" lon="-1.20474">
        <ele>5</ele>
        <time>2022-06-02T16:16:25Z</time>
      </trkpt>
      <trkpt lat="49.37102" lon="-1.20474">
        <ele>5</ele>
        <time>2022-06-02T16:16:26Z</time>
      </trkpt>
      <trkpt lat="49.37102" lon="-1.20474">
        <ele>5</ele>
        <time>2022-06-02T16:16:27Z</time>
      </trkpt>
      <trkpt lat="49.37102" lon="-1.20474">
        <ele>5</ele>
        <time>2022-06-02T16:16:28Z</time>
      </trkpt>
      <trkpt lat="49.37102" lon="-1.20474">
        <ele>5</ele>
        <time>2022-06-02T16:16:29Z</time>
      </trkpt>
      <trkpt lat="49.37102" lon="-1.20474">
        <ele>5</ele>
        <time>2022-06-02T16:16:30Z</time>
      </trkpt>
      <trkpt lat="49.37102" lon="-1.20475">
        <ele>5</ele>
        <time>2022-06-02T16:16:31Z</time>
      </trkpt>
      <trkpt lat="49.37102" lon="-1.20475">
        <ele>5</ele>
        <time>2022-06-02T16:16:32Z</time>
      </trkpt>
      <trkpt lat="49.37102" lon="-1.20475">
        <ele>5</ele>
        <time>2022-06-02T16:16:33Z</time>
      </trkpt>
      <trkpt lat="49.37102" lon="-1.20475">
        <ele>5</ele>
        <time>2022-06-02T16:16:34Z</time>
      </trkpt>
      <trkpt lat="49.37102" lon="-1.20475">
        <ele>5</ele>
        <time>2022-06-02T16:16:35Z</time>
      </trkpt>
      <trkpt lat="49.37102" lon="-1.20475">
        <ele>5</ele>
        <time>2022-06-02T16:16:36Z</time>
      </trkpt>
      <trkpt lat="49.37102" lon="-1.20475">
        <ele>5</ele>
        <time>2022-06-02T16:16:37Z</time>
      </trkpt>
      <trkpt lat="49.37102" lon="-1.20475">
        <ele>5</ele>
        <time>2022-06-02T16:16:38Z</time>
      </trkpt>
      <trkpt lat="49.37102" lon="-1.20475">
        <ele>5</ele>
        <time>2022-06-02T16:16:39Z</time>
      </trkpt>
      <trkpt lat="49.37102" lon="-1.20475">
        <ele>5</ele>
        <time>2022-06-02T16:16:40Z</time>
      </trkpt>
      <trkpt lat="49.37102" lon="-1.20475">
        <ele>5</ele>
        <time>2022-06-02T16:16:41Z</time>
      </trkpt>
      <trkpt lat="49.37102" lon="-1.20476">
        <ele>5</ele>
        <time>2022-06-02T16:16:42Z</time>
      </trkpt>
      <trkpt lat="49.37102" lon="-1.20476">
        <ele>5</ele>
        <time>2022-06-02T16:16:43Z</time>
      </trkpt>
      <trkpt lat="49.37102" lon="-1.20476">
        <ele>5</ele>
        <time>2022-06-02T16:16:44Z</time>
      </trkpt>
      <trkpt lat="49.37102" lon="-1.20476">
        <ele>5</ele>
        <time>2022-06-02T16:16:45Z</time>
      </trkpt>
      <trkpt lat="49.37102" lon="-1.20476">
        <ele>5</ele>
        <time>2022-06-02T16:16:46Z</time>
      </trkpt>
      <trkpt lat="49.37102" lon="-1.20476">
        <ele>5</ele>
        <time>2022-06-02T16:16:47Z</time>
      </trkpt>
      <trkpt lat="49.37102" lon="-1.20476">
        <ele>5</ele>
        <time>2022-06-02T16:16:48Z</time>
      </trkpt>
      <trkpt lat="49.37102" lon="-1.20476">
        <ele>5</ele>
        <time>2022-06-02T16:16:49Z</time>
      </trkpt>
      <trkpt lat="49.37102" lon="-1.20476">
        <ele>5</ele>
        <time>2022-06-02T16:16:50Z</time>
      </trkpt>
      <trkpt lat="49.37103" lon="-1.20476">
        <ele>5</ele>
        <time>2022-06-02T16:16:51Z</time>
      </trkpt>
      <trkpt lat="49.37103" lon="-1.20476">
        <ele>5</ele>
        <time>2022-06-02T16:16:52Z</time>
      </trkpt>
      <trkpt lat="49.37103" lon="-1.20477">
        <ele>5</ele>
        <time>2022-06-02T16:16:53Z</time>
      </trkpt>
      <trkpt lat="49.37103" lon="-1.20477">
        <ele>5</ele>
        <time>2022-06-02T16:16:54Z</time>
      </trkpt>
      <trkpt lat="49.37103" lon="-1.20477">
        <ele>5</ele>
        <time>2022-06-02T16:16:55Z</time>
      </trkpt>
      <trkpt lat="49.37103" lon="-1.20477">
        <ele>5</ele>
        <time>2022-06-02T16:16:56Z</time>
      </trkpt>
      <trkpt lat="49.37103" lon="-1.20477">
        <ele>5</ele>
        <time>2022-06-02T16:16:57Z</time>
      </trkpt>
      <trkpt lat="49.37103" lon="-1.20477">
        <ele>5</ele>
        <time>2022-06-02T16:16:58Z</time>
      </trkpt>
      <trkpt lat="49.37103" lon="-1.20477">
        <ele>5</ele>
        <time>2022-06-02T16:16:59Z</time>
      </trkpt>
      <trkpt lat="49.37103" lon="-1.20477">
        <ele>5</ele>
        <time>2022-06-02T16:17:00Z</time>
      </trkpt>
      <trkpt lat="49.37103" lon="-1.20477">
        <ele>5</ele>
        <time>2022-06-02T16:17:01Z</time>
      </trkpt>
      <trkpt lat="49.37103" lon="-1.20477">
        <ele>5</ele>
        <time>2022-06-02T16:17:02Z</time>
      </trkpt>
      <trkpt lat="49.37103" lon="-1.20477">
        <ele>5</ele>
        <time>2022-06-02T16:17:03Z</time>
      </trkpt>
      <trkpt lat="49.37103" lon="-1.20478">
        <ele>5</ele>
        <time>2022-06-02T16:17:04Z</time>
      </trkpt>
      <trkpt lat="49.37103" lon="-1.20478">
        <ele>5</ele>
        <time>2022-06-02T16:17:05Z</time>
      </trkpt>
      <trkpt lat="49.37103" lon="-1.20478">
        <ele>5</ele>
        <time>2022-06-02T16:17:06Z</time>
      </trkpt>
      <trkpt lat="49.37103" lon="-1.20478">
        <ele>5</ele>
        <time>2022-06-02T16:17:07Z</time>
      </trkpt>
      <trkpt lat="49.37103" lon="-1.20478">
        <ele>5</ele>
        <time>2022-06-02T16:17:08Z</time>
      </trkpt>
      <trkpt lat="49.37103" lon="-1.20478">
        <ele>5</ele>
        <time>2022-06-02T16:17:09Z</time>
      </trkpt>
      <trkpt lat="49.37103" lon="-1.20478">
        <ele>5</ele>
        <time>2022-06-02T16:17:10Z</time>
      </trkpt>
      <trkpt lat="49.37103" lon="-1.20478">
        <ele>5</ele>
        <time>2022-06-02T16:17:11Z</time>
      </trkpt>
      <trkpt lat="49.37103" lon="-1.20478">
        <ele>5</ele>
        <time>2022-06-02T16:17:12Z</time>
      </trkpt>
      <trkpt lat="49.37103" lon="-1.20478">
        <ele>5</ele>
        <time>2022-06-02T16:17:13Z</time>
      </trkpt>
      <trkpt lat="49.37103" lon="-1.20478">
        <ele>5</ele>
        <time>2022-06-02T16:17:14Z</time>
      </trkpt>
      <trkpt lat="49.37103" lon="-1.20478">
        <ele>5</ele>
        <time>2022-06-02T16:17:15Z</time>
      </trkpt>
      <trkpt lat="49.37103" lon="-1.20479">
        <ele>5</ele>
        <time>2022-06-02T16:17:16Z</time>
      </trkpt>
      <trkpt lat="49.37103" lon="-1.20479">
        <ele>5</ele>
        <time>2022-06-02T16:17:17Z</time>
      </trkpt>
      <trkpt lat="49.37103" lon="-1.20479">
        <ele>5</ele>
        <time>2022-06-02T16:17:18Z</time>
      </trkpt>
      <trkpt lat="49.37103" lon="-1.20479">
        <ele>5</ele>
        <time>2022-06-02T16:17:19Z</time>
      </trkpt>
      <trkpt lat="49.37103" lon="-1.20479">
        <ele>5</ele>
        <time>2022-06-02T16:17:20Z</time>
      </trkpt>
      <trkpt lat="49.37103" lon="-1.20479">
        <ele>5</ele>
        <time>2022-06-02T16:17:21Z</time>
      </trkpt>
      <trkpt lat="49.37103" lon="-1.20481">
        <ele>5</ele>
        <time>2022-06-02T16:17:22Z</time>
      </trkpt>
      <trkpt lat="49.37103" lon="-1.20481">
        <ele>5</ele>
        <time>2022-06-02T16:17:23Z</time>
      </trkpt>
      <trkpt lat="49.37103" lon="-1.20481">
        <ele>5</ele>
        <time>2022-06-02T16:17:24Z</time>
      </trkpt>
      <trkpt lat="49.37103" lon="-1.20481">
        <ele>5</ele>
        <time>2022-06-02T16:17:25Z</time>
      </trkpt>
      <trkpt lat="49.37103" lon="-1.2048">
        <ele>5</ele>
        <time>2022-06-02T16:17:26Z</time>
      </trkpt>
      <trkpt lat="49.37104" lon="-1.2048">
        <ele>5</ele>
        <time>2022-06-02T16:17:28Z</time>
      </trkpt>
      <trkpt lat="49.37105" lon="-1.20478">
        <ele>5</ele>
        <time>2022-06-02T16:17:29Z</time>
      </trkpt>
      <trkpt lat="49.37105" lon="-1.20476">
        <ele>5</ele>
        <time>2022-06-02T16:17:30Z</time>
      </trkpt>
      <trkpt lat="49.37106" lon="-1.20475">
        <ele>5</ele>
        <time>2022-06-02T16:17:31Z</time>
      </trkpt>
      <trkpt lat="49.37107" lon="-1.20474">
        <ele>5</ele>
        <time>2022-06-02T16:17:33Z</time>
      </trkpt>
      <trkpt lat="49.37107" lon="-1.20472">
        <ele>5</ele>
        <time>2022-06-02T16:17:34Z</time>
      </trkpt>
      <trkpt lat="49.37108" lon="-1.2047">
        <ele>5</ele>
        <time>2022-06-02T16:17:35Z</time>
      </trkpt>
      <trkpt lat="49.37109" lon="-1.20469">
        <ele>5</ele>
        <time>2022-06-02T16:17:36Z</time>
      </trkpt>
      <trkpt lat="49.3711" lon="-1.20469">
        <ele>5</ele>
        <time>2022-06-02T16:17:37Z</time>
      </trkpt>
      <trkpt lat="49.37111" lon="-1.20468">
        <ele>5</ele>
        <time>2022-06-02T16:17:39Z</time>
      </trkpt>
      <trkpt lat="49.37111" lon="-1.20469">
        <ele>5</ele>
        <time>2022-06-02T16:17:40Z</time>
      </trkpt>
      <trkpt lat="49.37111" lon="-1.20469">
        <ele>5</ele>
        <time>2022-06-02T16:17:41Z</time>
      </trkpt>
      <trkpt lat="49.37112" lon="-1.2047">
        <ele>5</ele>
        <time>2022-06-02T16:17:42Z</time>
      </trkpt>
      <trkpt lat="49.37111" lon="-1.20471">
        <ele>5</ele>
        <time>2022-06-02T16:17:43Z</time>
      </trkpt>
      <trkpt lat="49.37111" lon="-1.20471">
        <ele>5.1</ele>
        <time>2022-06-02T16:17:44Z</time>
      </trkpt>
      <trkpt lat="49.37111" lon="-1.20471">
        <ele>5.1</ele>
        <time>2022-06-02T16:17:45Z</time>
      </trkpt>
      <trkpt lat="49.3711" lon="-1.20471">
        <ele>5.1</ele>
        <time>2022-06-02T16:17:46Z</time>
      </trkpt>
      <trkpt lat="49.3711" lon="-1.20471">
        <ele>5.1</ele>
        <time>2022-06-02T16:17:47Z</time>
      </trkpt>
      <trkpt lat="49.37111" lon="-1.20471">
        <ele>5.1</ele>
        <time>2022-06-02T16:17:48Z</time>
      </trkpt>
      <trkpt lat="49.37111" lon="-1.2047">
        <ele>5.1</ele>
        <time>2022-06-02T16:17:49Z</time>
      </trkpt>
      <trkpt lat="49.37112" lon="-1.2047">
        <ele>5.1</ele>
        <time>2022-06-02T16:17:50Z</time>
      </trkpt>
      <trkpt lat="49.37113" lon="-1.20469">
        <ele>5.1</ele>
        <time>2022-06-02T16:17:51Z</time>
      </trkpt>
      <trkpt lat="49.37114" lon="-1.20469">
        <ele>5.1</ele>
        <time>2022-06-02T16:17:53Z</time>
      </trkpt>
      <trkpt lat="49.37116" lon="-1.20468">
        <ele>5.1</ele>
        <time>2022-06-02T16:17:54Z</time>
      </trkpt>
      <trkpt lat="49.37117" lon="-1.20468">
        <ele>5.1</ele>
        <time>2022-06-02T16:17:55Z</time>
      </trkpt>
      <trkpt lat="49.37118" lon="-1.20468">
        <ele>5.2</ele>
        <time>2022-06-02T16:17:56Z</time>
      </trkpt>
      <trkpt lat="49.37119" lon="-1.20468">
        <ele>5.2</ele>
        <time>2022-06-02T16:17:57Z</time>
      </trkpt>
      <trkpt lat="49.3712" lon="-1.20468">
        <ele>5.2</ele>
        <time>2022-06-02T16:17:58Z</time>
      </trkpt>
      <trkpt lat="49.37121" lon="-1.2047">
        <ele>5.2</ele>
        <time>2022-06-02T16:17:59Z</time>
      </trkpt>
      <trkpt lat="49.37122" lon="-1.2047">
        <ele>5.2</ele>
        <time>2022-06-02T16:18:00Z</time>
      </trkpt>
      <trkpt lat="49.37123" lon="-1.2047">
        <ele>5.2</ele>
        <time>2022-06-02T16:18:01Z</time>
      </trkpt>
      <trkpt lat="49.37124" lon="-1.20471">
        <ele>5.2</ele>
        <time>2022-06-02T16:18:02Z</time>
      </trkpt>
      <trkpt lat="49.37125" lon="-1.20471">
        <ele>5.3</ele>
        <time>2022-06-02T16:18:04Z</time>
      </trkpt>
      <trkpt lat="49.37126" lon="-1.20471">
        <ele>5.3</ele>
        <time>2022-06-02T16:18:05Z</time>
      </trkpt>
      <trkpt lat="49.37127" lon="-1.20471">
        <ele>5.3</ele>
        <time>2022-06-02T16:18:06Z</time>
      </trkpt>
      <trkpt lat="49.37128" lon="-1.20471">
        <ele>5.3</ele>
        <time>2022-06-02T16:18:07Z</time>
      </trkpt>
      <trkpt lat="49.37128" lon="-1.20471">
        <ele>5.3</ele>
        <time>2022-06-02T16:18:08Z</time>
      </trkpt>
      <trkpt lat="49.37128" lon="-1.20471">
        <ele>5.3</ele>
        <time>2022-06-02T16:18:09Z</time>
      </trkpt>
      <trkpt lat="49.37128" lon="-1.20472">
        <ele>5.3</ele>
        <time>2022-06-02T16:18:10Z</time>
      </trkpt>
      <trkpt lat="49.37129" lon="-1.20472">
        <ele>5.3</ele>
        <time>2022-06-02T16:18:11Z</time>
      </trkpt>
      <trkpt lat="49.3713" lon="-1.20472">
        <ele>5.4</ele>
        <time>2022-06-02T16:18:12Z</time>
      </trkpt>
      <trkpt lat="49.3713" lon="-1.20472">
        <ele>5.4</ele>
        <time>2022-06-02T16:18:14Z</time>
      </trkpt>
      <trkpt lat="49.37131" lon="-1.20472">
        <ele>5.4</ele>
        <time>2022-06-02T16:18:15Z</time>
      </trkpt>
      <trkpt lat="49.37132" lon="-1.20472">
        <ele>5.4</ele>
        <time>2022-06-02T16:18:16Z</time>
      </trkpt>
      <trkpt lat="49.37133" lon="-1.20472">
        <ele>5.4</ele>
        <time>2022-06-02T16:18:17Z</time>
      </trkpt>
      <trkpt lat="49.37134" lon="-1.20471">
        <ele>5.4</ele>
        <time>2022-06-02T16:18:18Z</time>
      </trkpt>
      <trkpt lat="49.37134" lon="-1.20471">
        <ele>5.4</ele>
        <time>2022-06-02T16:18:19Z</time>
      </trkpt>
      <trkpt lat="49.37136" lon="-1.20471">
        <ele>5.5</ele>
        <time>2022-06-02T16:18:20Z</time>
      </trkpt>
      <trkpt lat="49.37136" lon="-1.20471">
        <ele>5.5</ele>
        <time>2022-06-02T16:18:21Z</time>
      </trkpt>
      <trkpt lat="49.37137" lon="-1.20471">
        <ele>5.5</ele>
        <time>2022-06-02T16:18:22Z</time>
      </trkpt>
      <trkpt lat="49.37138" lon="-1.20471">
        <ele>5.5</ele>
        <time>2022-06-02T16:18:24Z</time>
      </trkpt>
      <trkpt lat="49.37139" lon="-1.20471">
        <ele>5.5</ele>
        <time>2022-06-02T16:18:25Z</time>
      </trkpt>
      <trkpt lat="49.37139" lon="-1.2047">
        <ele>5.5</ele>
        <time>2022-06-02T16:18:26Z</time>
      </trkpt>
      <trkpt lat="49.3714" lon="-1.2047">
        <ele>5.5</ele>
        <time>2022-06-02T16:18:27Z</time>
      </trkpt>
      <trkpt lat="49.37142" lon="-1.2047">
        <ele>5.5</ele>
        <time>2022-06-02T16:18:28Z</time>
      </trkpt>
      <trkpt lat="49.37142" lon="-1.2047">
        <ele>5.6</ele>
        <time>2022-06-02T16:18:29Z</time>
      </trkpt>
      <trkpt lat="49.37143" lon="-1.2047">
        <ele>5.6</ele>
        <time>2022-06-02T16:18:30Z</time>
      </trkpt>
      <trkpt lat="49.37144" lon="-1.2047">
        <ele>5.6</ele>
        <time>2022-06-02T16:18:31Z</time>
      </trkpt>
      <trkpt lat="49.37144" lon="-1.20469">
        <ele>5.6</ele>
        <time>2022-06-02T16:18:33Z</time>
      </trkpt>
      <trkpt lat="49.37145" lon="-1.20469">
        <ele>5.6</ele>
        <time>2022-06-02T16:18:34Z</time>
      </trkpt>
      <trkpt lat="49.37146" lon="-1.2047">
        <ele>5.6</ele>
        <time>2022-06-02T16:18:35Z</time>
      </trkpt>
      <trkpt lat="49.37148" lon="-1.20469">
        <ele>5.6</ele>
        <time>2022-06-02T16:18:36Z</time>
      </trkpt>
      <trkpt lat="49.3715" lon="-1.20469">
        <ele>5.7</ele>
        <time>2022-06-02T16:18:37Z</time>
      </trkpt>
      <trkpt lat="49.37153" lon="-1.20468">
        <ele>5.7</ele>
        <time>2022-06-02T16:18:38Z</time>
      </trkpt>
      <trkpt lat="49.37155" lon="-1.20468">
        <ele>5.7</ele>
        <time>2022-06-02T16:18:39Z</time>
      </trkpt>
      <trkpt lat="49.37158" lon="-1.20467">
        <ele>5.8</ele>
        <time>2022-06-02T16:18:40Z</time>
      </trkpt>
      <trkpt lat="49.37159" lon="-1.20466">
        <ele>5.8</ele>
        <time>2022-06-02T16:18:41Z</time>
      </trkpt>
      <trkpt lat="49.37163" lon="-1.20465">
        <ele>5.8</ele>
        <time>2022-06-02T16:18:43Z</time>
      </trkpt>
      <trkpt lat="49.37164" lon="-1.20465">
        <ele>5.8</ele>
        <time>2022-06-02T16:18:44Z</time>
      </trkpt>
      <trkpt lat="49.37167" lon="-1.20464">
        <ele>5.8</ele>
        <time>2022-06-02T16:18:45Z</time>
      </trkpt>
      <trkpt lat="49.37168" lon="-1.20464">
        <ele>5.8</ele>
        <time>2022-06-02T16:18:46Z</time>
      </trkpt>
      <trkpt lat="49.37169" lon="-1.20464">
        <ele>5.8</ele>
        <time>2022-06-02T16:18:47Z</time>
      </trkpt>
      <trkpt lat="49.37171" lon="-1.20464">
        <ele>5.8</ele>
        <time>2022-06-02T16:18:48Z</time>
      </trkpt>
      <trkpt lat="49.37172" lon="-1.20463">
        <ele>5.8</ele>
        <time>2022-06-02T16:18:49Z</time>
      </trkpt>
      <trkpt lat="49.37174" lon="-1.20463">
        <ele>5.8</ele>
        <time>2022-06-02T16:18:50Z</time>
      </trkpt>
      <trkpt lat="49.37176" lon="-1.20462">
        <ele>5.8</ele>
        <time>2022-06-02T16:18:51Z</time>
      </trkpt>
      <trkpt lat="49.37177" lon="-1.20462">
        <ele>5.9</ele>
        <time>2022-06-02T16:18:52Z</time>
      </trkpt>
      <trkpt lat="49.37179" lon="-1.20461">
        <ele>5.9</ele>
        <time>2022-06-02T16:18:54Z</time>
      </trkpt>
      <trkpt lat="49.3718" lon="-1.20461">
        <ele>5.9</ele>
        <time>2022-06-02T16:18:55Z</time>
      </trkpt>
      <trkpt lat="49.37181" lon="-1.20461">
        <ele>5.9</ele>
        <time>2022-06-02T16:18:56Z</time>
      </trkpt>
      <trkpt lat="49.37183" lon="-1.2046">
        <ele>5.9</ele>
        <time>2022-06-02T16:18:57Z</time>
      </trkpt>
      <trkpt lat="49.37184" lon="-1.2046">
        <ele>5.9</ele>
        <time>2022-06-02T16:18:58Z</time>
      </trkpt>
      <trkpt lat="49.37184" lon="-1.2046">
        <ele>5.9</ele>
        <time>2022-06-02T16:18:59Z</time>
      </trkpt>
      <trkpt lat="49.37187" lon="-1.20459">
        <ele>5.9</ele>
        <time>2022-06-02T16:19:00Z</time>
      </trkpt>
      <trkpt lat="49.37188" lon="-1.20459">
        <ele>5.9</ele>
        <time>2022-06-02T16:19:02Z</time>
      </trkpt>
      <trkpt lat="49.37189" lon="-1.20458">
        <ele>5.9</ele>
        <time>2022-06-02T16:19:03Z</time>
      </trkpt>
      <trkpt lat="49.3719" lon="-1.20458">
        <ele>5.9</ele>
        <time>2022-06-02T16:19:04Z</time>
      </trkpt>
      <trkpt lat="49.37191" lon="-1.20457">
        <ele>5.9</ele>
        <time>2022-06-02T16:19:05Z</time>
      </trkpt>
      <trkpt lat="49.37192" lon="-1.20457">
        <ele>5.9</ele>
        <time>2022-06-02T16:19:06Z</time>
      </trkpt>
      <trkpt lat="49.37194" lon="-1.20457">
        <ele>5.9</ele>
        <time>2022-06-02T16:19:07Z</time>
      </trkpt>
      <trkpt lat="49.37196" lon="-1.20456">
        <ele>5.9</ele>
        <time>2022-06-02T16:19:08Z</time>
      </trkpt>
      <trkpt lat="49.37197" lon="-1.20456">
        <ele>5.9</ele>
        <time>2022-06-02T16:19:09Z</time>
      </trkpt>
      <trkpt lat="49.37198" lon="-1.20456">
        <ele>5.9</ele>
        <time>2022-06-02T16:19:10Z</time>
      </trkpt>
      <trkpt lat="49.372" lon="-1.20456">
        <ele>6</ele>
        <time>2022-06-02T16:19:11Z</time>
      </trkpt>
      <trkpt lat="49.372" lon="-1.20456">
        <ele>6</ele>
        <time>2022-06-02T16:19:13Z</time>
      </trkpt>
      <trkpt lat="49.37201" lon="-1.20456">
        <ele>6</ele>
        <time>2022-06-02T16:19:14Z</time>
      </trkpt>
      <trkpt lat="49.37203" lon="-1.20456">
        <ele>6</ele>
        <time>2022-06-02T16:19:15Z</time>
      </trkpt>
      <trkpt lat="49.37204" lon="-1.20456">
        <ele>6</ele>
        <time>2022-06-02T16:19:16Z</time>
      </trkpt>
      <trkpt lat="49.37205" lon="-1.20456">
        <ele>6</ele>
        <time>2022-06-02T16:19:17Z</time>
      </trkpt>
      <trkpt lat="49.37206" lon="-1.20456">
        <ele>6</ele>
        <time>2022-06-02T16:19:18Z</time>
      </trkpt>
      <trkpt lat="49.37207" lon="-1.20456">
        <ele>6</ele>
        <time>2022-06-02T16:19:19Z</time>
      </trkpt>
      <trkpt lat="49.37208" lon="-1.20456">
        <ele>6</ele>
        <time>2022-06-02T16:19:20Z</time>
      </trkpt>
      <trkpt lat="49.37211" lon="-1.20456">
        <ele>6</ele>
        <time>2022-06-02T16:19:21Z</time>
      </trkpt>
      <trkpt lat="49.37212" lon="-1.20456">
        <ele>6.1</ele>
        <time>2022-06-02T16:19:22Z</time>
      </trkpt>
      <trkpt lat="49.37213" lon="-1.20456">
        <ele>6.1</ele>
        <time>2022-06-02T16:19:24Z</time>
      </trkpt>
      <trkpt lat="49.37213" lon="-1.20456">
        <ele>6.1</ele>
        <time>2022-06-02T16:19:25Z</time>
      </trkpt>
      <trkpt lat="49.37214" lon="-1.20456">
        <ele>6.1</ele>
        <time>2022-06-02T16:19:26Z</time>
      </trkpt>
      <trkpt lat="49.37215" lon="-1.20456">
        <ele>6.1</ele>
        <time>2022-06-02T16:19:27Z</time>
      </trkpt>
      <trkpt lat="49.37217" lon="-1.20455">
        <ele>6.1</ele>
        <time>2022-06-02T16:19:28Z</time>
      </trkpt>
      <trkpt lat="49.37218" lon="-1.20455">
        <ele>6.1</ele>
        <time>2022-06-02T16:19:30Z</time>
      </trkpt>
      <trkpt lat="49.37219" lon="-1.20455">
        <ele>6.1</ele>
        <time>2022-06-02T16:19:31Z</time>
      </trkpt>
      <trkpt lat="49.3722" lon="-1.20454">
        <ele>6.1</ele>
        <time>2022-06-02T16:19:32Z</time>
      </trkpt>
      <trkpt lat="49.37221" lon="-1.20454">
        <ele>6.1</ele>
        <time>2022-06-02T16:19:33Z</time>
      </trkpt>
      <trkpt lat="49.37221" lon="-1.20454">
        <ele>6.2</ele>
        <time>2022-06-02T16:19:35Z</time>
      </trkpt>
      <trkpt lat="49.37222" lon="-1.20453">
        <ele>6.2</ele>
        <time>2022-06-02T16:19:36Z</time>
      </trkpt>
      <trkpt lat="49.37224" lon="-1.20453">
        <ele>6.2</ele>
        <time>2022-06-02T16:19:37Z</time>
      </trkpt>
      <trkpt lat="49.37225" lon="-1.20453">
        <ele>6.2</ele>
        <time>2022-06-02T16:19:38Z</time>
      </trkpt>
      <trkpt lat="49.37226" lon="-1.20454">
        <ele>6.2</ele>
        <time>2022-06-02T16:19:39Z</time>
      </trkpt>
      <trkpt lat="49.37226" lon="-1.20456">
        <ele>6.2</ele>
        <time>2022-06-02T16:19:41Z</time>
      </trkpt>
      <trkpt lat="49.37227" lon="-1.20458">
        <ele>6.2</ele>
        <time>2022-06-02T16:19:42Z</time>
      </trkpt>
      <trkpt lat="49.37228" lon="-1.20459">
        <ele>6.2</ele>
        <time>2022-06-02T16:19:43Z</time>
      </trkpt>
      <trkpt lat="49.37228" lon="-1.2046">
        <ele>6.2</ele>
        <time>2022-06-02T16:19:44Z</time>
      </trkpt>
      <trkpt lat="49.37229" lon="-1.2046">
        <ele>6.2</ele>
        <time>2022-06-02T16:19:45Z</time>
      </trkpt>
      <trkpt lat="49.37229" lon="-1.20461">
        <ele>6.3</ele>
        <time>2022-06-02T16:19:46Z</time>
      </trkpt>
      <trkpt lat="49.37229" lon="-1.20461">
        <ele>6.3</ele>
        <time>2022-06-02T16:19:47Z</time>
      </trkpt>
      <trkpt lat="49.37229" lon="-1.20461">
        <ele>6.3</ele>
        <time>2022-06-02T16:19:48Z</time>
      </trkpt>
      <trkpt lat="49.37229" lon="-1.2046">
        <ele>6.3</ele>
        <time>2022-06-02T16:19:49Z</time>
      </trkpt>
      <trkpt lat="49.37229" lon="-1.2046">
        <ele>6.3</ele>
        <time>2022-06-02T16:19:50Z</time>
      </trkpt>
      <trkpt lat="49.37229" lon="-1.2046">
        <ele>6.3</ele>
        <time>2022-06-02T16:19:51Z</time>
      </trkpt>
      <trkpt lat="49.37229" lon="-1.2046">
        <ele>6.3</ele>
        <time>2022-06-02T16:19:53Z</time>
      </trkpt>
      <trkpt lat="49.37229" lon="-1.2046">
        <ele>6.3</ele>
        <time>2022-06-02T16:19:54Z</time>
      </trkpt>
      <trkpt lat="49.37229" lon="-1.2046">
        <ele>6.3</ele>
        <time>2022-06-02T16:19:56Z</time>
      </trkpt>
      <trkpt lat="49.37229" lon="-1.2046">
        <ele>6.3</ele>
        <time>2022-06-02T16:19:58Z</time>
      </trkpt>
      <trkpt lat="49.37229" lon="-1.2046">
        <ele>6.3</ele>
        <time>2022-06-02T16:19:59Z</time>
      </trkpt>
      <trkpt lat="49.37229" lon="-1.2046">
        <ele>6.3</ele>
        <time>2022-06-02T16:20:00Z</time>
      </trkpt>
      <trkpt lat="49.37229" lon="-1.20461">
        <ele>6.3</ele>
        <time>2022-06-02T16:20:01Z</time>
      </trkpt>
      <trkpt lat="49.37229" lon="-1.20461">
        <ele>6.3</ele>
        <time>2022-06-02T16:20:02Z</time>
      </trkpt>
      <trkpt lat="49.37229" lon="-1.20461">
        <ele>6.3</ele>
        <time>2022-06-02T16:20:03Z</time>
      </trkpt>
      <trkpt lat="49.37229" lon="-1.20461">
        <ele>6.3</ele>
        <time>2022-06-02T16:20:04Z</time>
      </trkpt>
      <trkpt lat="49.37229" lon="-1.20461">
        <ele>6.3</ele>
        <time>2022-06-02T16:20:05Z</time>
      </trkpt>
      <trkpt lat="49.37228" lon="-1.20461">
        <ele>6.3</ele>
        <time>2022-06-02T16:20:06Z</time>
      </trkpt>
      <trkpt lat="49.37228" lon="-1.20461">
        <ele>6.3</ele>
        <time>2022-06-02T16:20:07Z</time>
      </trkpt>
      <trkpt lat="49.37228" lon="-1.20461">
        <ele>6.3</ele>
        <time>2022-06-02T16:20:08Z</time>
      </trkpt>
      <trkpt lat="49.37228" lon="-1.20461">
        <ele>6.3</ele>
        <time>2022-06-02T16:20:09Z</time>
      </trkpt>
      <trkpt lat="49.37228" lon="-1.20461">
        <ele>6.3</ele>
        <time>2022-06-02T16:20:10Z</time>
      </trkpt>
      <trkpt lat="49.37228" lon="-1.20461">
        <ele>6.3</ele>
        <time>2022-06-02T16:20:11Z</time>
      </trkpt>
      <trkpt lat="49.37228" lon="-1.20461">
        <ele>6.3</ele>
        <time>2022-06-02T16:20:12Z</time>
      </trkpt>
      <trkpt lat="49.37228" lon="-1.20461">
        <ele>6.3</ele>
        <time>2022-06-02T16:20:13Z</time>
      </trkpt>
      <trkpt lat="49.37228" lon="-1.20461">
        <ele>6.3</ele>
        <time>2022-06-02T16:20:14Z</time>
      </trkpt>
      <trkpt lat="49.37228" lon="-1.20461">
        <ele>6.3</ele>
        <time>2022-06-02T16:20:15Z</time>
      </trkpt>
      <trkpt lat="49.37227" lon="-1.2046">
        <ele>6.3</ele>
        <time>2022-06-02T16:20:16Z</time>
      </trkpt>
      <trkpt lat="49.37227" lon="-1.2046">
        <ele>6.3</ele>
        <time>2022-06-02T16:20:17Z</time>
      </trkpt>
      <trkpt lat="49.37227" lon="-1.2046">
        <ele>6.3</ele>
        <time>2022-06-02T16:20:18Z</time>
      </trkpt>
      <trkpt lat="49.37227" lon="-1.20459">
        <ele>6.3</ele>
        <time>2022-06-02T16:20:19Z</time>
      </trkpt>
      <trkpt lat="49.37227" lon="-1.20459">
        <ele>6.3</ele>
        <time>2022-06-02T16:20:20Z</time>
      </trkpt>
      <trkpt lat="49.37228" lon="-1.2046">
        <ele>6.3</ele>
        <time>2022-06-02T16:20:21Z</time>
      </trkpt>
      <trkpt lat="49.37228" lon="-1.20461">
        <ele>6.3</ele>
        <time>2022-06-02T16:20:22Z</time>
      </trkpt>
      <trkpt lat="49.37228" lon="-1.20462">
        <ele>6.3</ele>
        <time>2022-06-02T16:20:23Z</time>
      </trkpt>
      <trkpt lat="49.37228" lon="-1.20462">
        <ele>6.3</ele>
        <time>2022-06-02T16:20:24Z</time>
      </trkpt>
      <trkpt lat="49.37227" lon="-1.20462">
        <ele>6.3</ele>
        <time>2022-06-02T16:20:25Z</time>
      </trkpt>
      <trkpt lat="49.37227" lon="-1.20462">
        <ele>6.3</ele>
        <time>2022-06-02T16:20:26Z</time>
      </trkpt>
      <trkpt lat="49.37227" lon="-1.20462">
        <ele>6.3</ele>
        <time>2022-06-02T16:20:27Z</time>
      </trkpt>
      <trkpt lat="49.37226" lon="-1.20462">
        <ele>6.3</ele>
        <time>2022-06-02T16:20:28Z</time>
      </trkpt>
      <trkpt lat="49.37226" lon="-1.20462">
        <ele>6.3</ele>
        <time>2022-06-02T16:20:29Z</time>
      </trkpt>
      <trkpt lat="49.37226" lon="-1.20462">
        <ele>6.3</ele>
        <time>2022-06-02T16:20:30Z</time>
      </trkpt>
      <trkpt lat="49.37226" lon="-1.20462">
        <ele>6.4</ele>
        <time>2022-06-02T16:20:31Z</time>
      </trkpt>
      <trkpt lat="49.37226" lon="-1.20462">
        <ele>6.4</ele>
        <time>2022-06-02T16:20:32Z</time>
      </trkpt>
      <trkpt lat="49.37226" lon="-1.20461">
        <ele>6.4</ele>
        <time>2022-06-02T16:20:33Z</time>
      </trkpt>
      <trkpt lat="49.37225" lon="-1.20461">
        <ele>6.4</ele>
        <time>2022-06-02T16:20:34Z</time>
      </trkpt>
      <trkpt lat="49.37225" lon="-1.20461">
        <ele>6.4</ele>
        <time>2022-06-02T16:20:35Z</time>
      </trkpt>
      <trkpt lat="49.37225" lon="-1.20461">
        <ele>6.4</ele>
        <time>2022-06-02T16:20:36Z</time>
      </trkpt>
      <trkpt lat="49.37225" lon="-1.20461">
        <ele>6.4</ele>
        <time>2022-06-02T16:20:37Z</time>
      </trkpt>
      <trkpt lat="49.37225" lon="-1.20461">
        <ele>6.4</ele>
        <time>2022-06-02T16:20:38Z</time>
      </trkpt>
      <trkpt lat="49.37225" lon="-1.20461">
        <ele>6.4</ele>
        <time>2022-06-02T16:20:39Z</time>
      </trkpt>
      <trkpt lat="49.37225" lon="-1.2046">
        <ele>6.4</ele>
        <time>2022-06-02T16:20:40Z</time>
      </trkpt>
      <trkpt lat="49.37225" lon="-1.2046">
        <ele>6.4</ele>
        <time>2022-06-02T16:20:41Z</time>
      </trkpt>
      <trkpt lat="49.37225" lon="-1.2046">
        <ele>6.4</ele>
        <time>2022-06-02T16:20:42Z</time>
      </trkpt>
      <trkpt lat="49.37225" lon="-1.2046">
        <ele>6.4</ele>
        <time>2022-06-02T16:20:43Z</time>
      </trkpt>
      <trkpt lat="49.37225" lon="-1.2046">
        <ele>6.4</ele>
        <time>2022-06-02T16:20:44Z</time>
      </trkpt>
      <trkpt lat="49.37225" lon="-1.2046">
        <ele>6.4</ele>
        <time>2022-06-02T16:20:45Z</time>
      </trkpt>
      <trkpt lat="49.37225" lon="-1.2046">
        <ele>6.4</ele>
        <time>2022-06-02T16:20:46Z</time>
      </trkpt>
      <trkpt lat="49.37225" lon="-1.20459">
        <ele>6.4</ele>
        <time>2022-06-02T16:20:47Z</time>
      </trkpt>
      <trkpt lat="49.37223" lon="-1.20457">
        <ele>6.4</ele>
        <time>2022-06-02T16:20:48Z</time>
      </trkpt>
      <trkpt lat="49.37223" lon="-1.20456">
        <ele>6.4</ele>
        <time>2022-06-02T16:20:49Z</time>
      </trkpt>
      <trkpt lat="49.37223" lon="-1.20455">
        <ele>6.4</ele>
        <time>2022-06-02T16:20:50Z</time>
      </trkpt>
      <trkpt lat="49.37223" lon="-1.20455">
        <ele>6.4</ele>
        <time>2022-06-02T16:20:51Z</time>
      </trkpt>
      <trkpt lat="49.37223" lon="-1.20455">
        <ele>6.4</ele>
        <time>2022-06-02T16:20:52Z</time>
      </trkpt>
      <trkpt lat="49.37224" lon="-1.20455">
        <ele>6.4</ele>
        <time>2022-06-02T16:20:53Z</time>
      </trkpt>
      <trkpt lat="49.37224" lon="-1.20455">
        <ele>6.4</ele>
        <time>2022-06-02T16:20:54Z</time>
      </trkpt>
      <trkpt lat="49.37224" lon="-1.20454">
        <ele>6.4</ele>
        <time>2022-06-02T16:20:55Z</time>
      </trkpt>
      <trkpt lat="49.37224" lon="-1.20454">
        <ele>6.4</ele>
        <time>2022-06-02T16:20:56Z</time>
      </trkpt>
      <trkpt lat="49.37224" lon="-1.20454">
        <ele>6.4</ele>
        <time>2022-06-02T16:20:57Z</time>
      </trkpt>
      <trkpt lat="49.37224" lon="-1.20454">
        <ele>6.4</ele>
        <time>2022-06-02T16:20:58Z</time>
      </trkpt>
      <trkpt lat="49.37224" lon="-1.20454">
        <ele>6.4</ele>
        <time>2022-06-02T16:20:59Z</time>
      </trkpt>
      <trkpt lat="49.37224" lon="-1.20454">
        <ele>6.4</ele>
        <time>2022-06-02T16:21:00Z</time>
      </trkpt>
      <trkpt lat="49.37224" lon="-1.20454">
        <ele>6.4</ele>
        <time>2022-06-02T16:21:01Z</time>
      </trkpt>
      <trkpt lat="49.37224" lon="-1.20454">
        <ele>6.4</ele>
        <time>2022-06-02T16:21:02Z</time>
      </trkpt>
      <trkpt lat="49.37224" lon="-1.20454">
        <ele>6.4</ele>
        <time>2022-06-02T16:21:03Z</time>
      </trkpt>
      <trkpt lat="49.37224" lon="-1.20454">
        <ele>6.4</ele>
        <time>2022-06-02T16:21:04Z</time>
      </trkpt>
      <trkpt lat="49.37224" lon="-1.20454">
        <ele>6.4</ele>
        <time>2022-06-02T16:21:05Z</time>
      </trkpt>
      <trkpt lat="49.37224" lon="-1.20454">
        <ele>6.4</ele>
        <time>2022-06-02T16:21:06Z</time>
      </trkpt>
      <trkpt lat="49.37224" lon="-1.20454">
        <ele>6.4</ele>
        <time>2022-06-02T16:21:07Z</time>
      </trkpt>
      <trkpt lat="49.37225" lon="-1.20454">
        <ele>6.4</ele>
        <time>2022-06-02T16:21:08Z</time>
      </trkpt>
      <trkpt lat="49.37225" lon="-1.20455">
        <ele>6.4</ele>
        <time>2022-06-02T16:21:09Z</time>
      </trkpt>
      <trkpt lat="49.37224" lon="-1.20455">
        <ele>6.4</ele>
        <time>2022-06-02T16:21:10Z</time>
      </trkpt>
      <trkpt lat="49.37223" lon="-1.20455">
        <ele>6.4</ele>
        <time>2022-06-02T16:21:11Z</time>
      </trkpt>
      <trkpt lat="49.37223" lon="-1.20455">
        <ele>6.4</ele>
        <time>2022-06-02T16:21:12Z</time>
      </trkpt>
      <trkpt lat="49.37223" lon="-1.20455">
        <ele>6.4</ele>
        <time>2022-06-02T16:21:13Z</time>
      </trkpt>
      <trkpt lat="49.37224" lon="-1.20455">
        <ele>6.4</ele>
        <time>2022-06-02T16:21:14Z</time>
      </trkpt>
      <trkpt lat="49.37224" lon="-1.20455">
        <ele>6.4</ele>
        <time>2022-06-02T16:21:15Z</time>
      </trkpt>
      <trkpt lat="49.37224" lon="-1.20455">
        <ele>6.4</ele>
        <time>2022-06-02T16:21:16Z</time>
      </trkpt>
      <trkpt lat="49.37224" lon="-1.20455">
        <ele>6.4</ele>
        <time>2022-06-02T16:21:18Z</time>
      </trkpt>
      <trkpt lat="49.37224" lon="-1.20455">
        <ele>6.4</ele>
        <time>2022-06-02T16:21:20Z</time>
      </trkpt>
      <trkpt lat="49.37224" lon="-1.20455">
        <ele>6.4</ele>
        <time>2022-06-02T16:21:21Z</time>
      </trkpt>
      <trkpt lat="49.37225" lon="-1.20455">
        <ele>6.4</ele>
        <time>2022-06-02T16:21:22Z</time>
      </trkpt>
      <trkpt lat="49.37225" lon="-1.20454">
        <ele>6.4</ele>
        <time>2022-06-02T16:21:23Z</time>
      </trkpt>
      <trkpt lat="49.37225" lon="-1.20454">
        <ele>6.4</ele>
        <time>2022-06-02T16:21:24Z</time>
      </trkpt>
      <trkpt lat="49.37225" lon="-1.20454">
        <ele>6.4</ele>
        <time>2022-06-02T16:21:25Z</time>
      </trkpt>
      <trkpt lat="49.37225" lon="-1.20454">
        <ele>6.4</ele>
        <time>2022-06-02T16:21:26Z</time>
      </trkpt>
      <trkpt lat="49.37225" lon="-1.20454">
        <ele>6.4</ele>
        <time>2022-06-02T16:21:27Z</time>
      </trkpt>
      <trkpt lat="49.37226" lon="-1.20453">
        <ele>6.5</ele>
        <time>2022-06-02T16:21:28Z</time>
      </trkpt>
      <trkpt lat="49.37226" lon="-1.20453">
        <ele>6.5</ele>
        <time>2022-06-02T16:21:29Z</time>
      </trkpt>
      <trkpt lat="49.37226" lon="-1.20453">
        <ele>6.5</ele>
        <time>2022-06-02T16:21:31Z</time>
      </trkpt>
      <trkpt lat="49.37226" lon="-1.20452">
        <ele>6.5</ele>
        <time>2022-06-02T16:21:32Z</time>
      </trkpt>
      <trkpt lat="49.37227" lon="-1.20452">
        <ele>6.5</ele>
        <time>2022-06-02T16:21:33Z</time>
      </trkpt>
      <trkpt lat="49.37227" lon="-1.20452">
        <ele>6.5</ele>
        <time>2022-06-02T16:21:35Z</time>
      </trkpt>
      <trkpt lat="49.37228" lon="-1.20453">
        <ele>6.5</ele>
        <time>2022-06-02T16:21:36Z</time>
      </trkpt>
      <trkpt lat="49.37228" lon="-1.20453">
        <ele>6.5</ele>
        <time>2022-06-02T16:21:37Z</time>
      </trkpt>
      <trkpt lat="49.37228" lon="-1.20454">
        <ele>6.5</ele>
        <time>2022-06-02T16:21:38Z</time>
      </trkpt>
      <trkpt lat="49.37229" lon="-1.20454">
        <ele>6.5</ele>
        <time>2022-06-02T16:21:39Z</time>
      </trkpt>
      <trkpt lat="49.37229" lon="-1.20453">
        <ele>6.5</ele>
        <time>2022-06-02T16:21:40Z</time>
      </trkpt>
      <trkpt lat="49.37229" lon="-1.20453">
        <ele>6.5</ele>
        <time>2022-06-02T16:21:41Z</time>
      </trkpt>
      <trkpt lat="49.37229" lon="-1.20453">
        <ele>6.5</ele>
        <time>2022-06-02T16:21:42Z</time>
      </trkpt>
      <trkpt lat="49.37229" lon="-1.20452">
        <ele>6.5</ele>
        <time>2022-06-02T16:21:44Z</time>
      </trkpt>
      <trkpt lat="49.37228" lon="-1.20452">
        <ele>6.5</ele>
        <time>2022-06-02T16:21:45Z</time>
      </trkpt>
      <trkpt lat="49.37228" lon="-1.20452">
        <ele>6.5</ele>
        <time>2022-06-02T16:21:46Z</time>
      </trkpt>
      <trkpt lat="49.37228" lon="-1.20451">
        <ele>6.5</ele>
        <time>2022-06-02T16:21:47Z</time>
      </trkpt>
      <trkpt lat="49.37229" lon="-1.20451">
        <ele>6.5</ele>
        <time>2022-06-02T16:21:48Z</time>
      </trkpt>
      <trkpt lat="49.37229" lon="-1.20451">
        <ele>6.5</ele>
        <time>2022-06-02T16:21:49Z</time>
      </trkpt>
      <trkpt lat="49.37229" lon="-1.20451">
        <ele>6.5</ele>
        <time>2022-06-02T16:21:50Z</time>
      </trkpt>
      <trkpt lat="49.37229" lon="-1.20451">
        <ele>6.5</ele>
        <time>2022-06-02T16:21:51Z</time>
      </trkpt>
      <trkpt lat="49.37229" lon="-1.20451">
        <ele>6.5</ele>
        <time>2022-06-02T16:21:52Z</time>
      </trkpt>
      <trkpt lat="49.37229" lon="-1.20451">
        <ele>6.5</ele>
        <time>2022-06-02T16:21:53Z</time>
      </trkpt>
      <trkpt lat="49.37228" lon="-1.20452">
        <ele>6.5</ele>
        <time>2022-06-02T16:21:55Z</time>
      </trkpt>
      <trkpt lat="49.37228" lon="-1.20453">
        <ele>6.5</ele>
        <time>2022-06-02T16:21:56Z</time>
      </trkpt>
      <trkpt lat="49.37228" lon="-1.20453">
        <ele>6.5</ele>
        <time>2022-06-02T16:21:57Z</time>
      </trkpt>
      <trkpt lat="49.37227" lon="-1.20453">
        <ele>6.5</ele>
        <time>2022-06-02T16:21:58Z</time>
      </trkpt>
      <trkpt lat="49.37227" lon="-1.20452">
        <ele>6.5</ele>
        <time>2022-06-02T16:21:59Z</time>
      </trkpt>
      <trkpt lat="49.37228" lon="-1.20452">
        <ele>6.5</ele>
        <time>2022-06-02T16:22:00Z</time>
      </trkpt>
      <trkpt lat="49.37228" lon="-1.20452">
        <ele>6.5</ele>
        <time>2022-06-02T16:22:01Z</time>
      </trkpt>
      <trkpt lat="49.37228" lon="-1.20453">
        <ele>6.5</ele>
        <time>2022-06-02T16:22:02Z</time>
      </trkpt>
      <trkpt lat="49.37228" lon="-1.20453">
        <ele>6.5</ele>
        <time>2022-06-02T16:22:03Z</time>
      </trkpt>
      <trkpt lat="49.37228" lon="-1.20453">
        <ele>6.5</ele>
        <time>2022-06-02T16:22:04Z</time>
      </trkpt>
      <trkpt lat="49.37229" lon="-1.20453">
        <ele>6.5</ele>
        <time>2022-06-02T16:22:05Z</time>
      </trkpt>
      <trkpt lat="49.37229" lon="-1.20453">
        <ele>6.5</ele>
        <time>2022-06-02T16:22:06Z</time>
      </trkpt>
      <trkpt lat="49.37229" lon="-1.20453">
        <ele>6.5</ele>
        <time>2022-06-02T16:22:07Z</time>
      </trkpt>
      <trkpt lat="49.37229" lon="-1.20453">
        <ele>6.5</ele>
        <time>2022-06-02T16:22:08Z</time>
      </trkpt>
      <trkpt lat="49.37229" lon="-1.20453">
        <ele>6.5</ele>
        <time>2022-06-02T16:22:09Z</time>
      </trkpt>
      <trkpt lat="49.37229" lon="-1.20453">
        <ele>6.5</ele>
        <time>2022-06-02T16:22:10Z</time>
      </trkpt>
      <trkpt lat="49.37229" lon="-1.20453">
        <ele>6.5</ele>
        <time>2022-06-02T16:22:11Z</time>
      </trkpt>
      <trkpt lat="49.37229" lon="-1.20453">
        <ele>6.5</ele>
        <time>2022-06-02T16:22:12Z</time>
      </trkpt>
      <trkpt lat="49.37229" lon="-1.20453">
        <ele>6.5</ele>
        <time>2022-06-02T16:22:13Z</time>
      </trkpt>
      <trkpt lat="49.37229" lon="-1.20453">
        <ele>6.6</ele>
        <time>2022-06-02T16:22:14Z</time>
      </trkpt>
      <trkpt lat="49.37229" lon="-1.20454">
        <ele>6.6</ele>
        <time>2022-06-02T16:22:15Z</time>
      </trkpt>
      <trkpt lat="49.37229" lon="-1.20454">
        <ele>6.6</ele>
        <time>2022-06-02T16:22:16Z</time>
      </trkpt>
      <trkpt lat="49.3723" lon="-1.20454">
        <ele>6.6</ele>
        <time>2022-06-02T16:22:17Z</time>
      </trkpt>
      <trkpt lat="49.3723" lon="-1.20454">
        <ele>6.6</ele>
        <time>2022-06-02T16:22:18Z</time>
      </trkpt>
      <trkpt lat="49.3723" lon="-1.20454">
        <ele>6.6</ele>
        <time>2022-06-02T16:22:19Z</time>
      </trkpt>
      <trkpt lat="49.3723" lon="-1.20454">
        <ele>6.6</ele>
        <time>2022-06-02T16:22:20Z</time>
      </trkpt>
      <trkpt lat="49.3723" lon="-1.20454">
        <ele>6.6</ele>
        <time>2022-06-02T16:22:21Z</time>
      </trkpt>
      <trkpt lat="49.3723" lon="-1.20454">
        <ele>6.6</ele>
        <time>2022-06-02T16:22:22Z</time>
      </trkpt>
      <trkpt lat="49.3723" lon="-1.20454">
        <ele>6.6</ele>
        <time>2022-06-02T16:22:23Z</time>
      </trkpt>
    </trkseg>
  </trk>
</gpx>